<?xml version="1.0" encoding="UTF-8"?>
<gpx creator="Garmin Connect" version="1.1"
  xsi:schemaLocation="http://www.topografix.com/GPX/1/1 http://www.topografix.com/GPX/11.xsd"
  xmlns:ns3="http://www.garmin.com/xmlschemas/TrackPointExtension/v1"
  xmlns="http://www.topografix.com/GPX/1/1"
  xmlns:xsi="http://www.w3.org/2001/XMLSchema-instance" xmlns:ns2="http://www.garmin.com/xmlschemas/GpxExtensions/v3">
  <metadata>
    <link href="connect.garmin.com">
      <text>Garmin Connect</text>
    </link>
    <time>2026-01-06T14:49:08.000Z</time>
  </metadata>
  <trk>
    <name>Hinsdale County Hiking</name>
    <type>hiking</type>
    <trkseg>
      <trkpt lat="37.94013024307787418365478515625" lon="-107.159236036241054534912109375">
        <ele>3324.60009765625</ele>
        <time>2026-01-06T14:49:15.000Z</time>
        <extensions>
          <ns3:TrackPointExtension>
            <ns3:hr>73</ns3:hr>
            <ns3:cad>0</ns3:cad>
          </ns3:TrackPointExtension>
        </extensions>
      </trkpt>
      <trkpt lat="37.94013007543981075286865234375" lon="-107.15926143340766429901123046875">
        <ele>3323.800048828125</ele>
        <time>2026-01-06T14:49:20.000Z</time>
        <extensions>
          <ns3:TrackPointExtension>
            <ns3:hr>72</ns3:hr>
            <ns3:cad>0</ns3:cad>
          </ns3:TrackPointExtension>
        </extensions>
      </trkpt>
      <trkpt lat="37.9401333443820476531982421875" lon="-107.15927266515791416168212890625">
        <ele>3323.39990234375</ele>
        <time>2026-01-06T14:49:22.000Z</time>
        <extensions>
          <ns3:TrackPointExtension>
            <ns3:hr>72</ns3:hr>
            <ns3:cad>0</ns3:cad>
          </ns3:TrackPointExtension>
        </extensions>
      </trkpt>
      <trkpt lat="37.940080873668193817138671875" lon="-107.15929160825908184051513671875">
        <ele>3324.39990234375</ele>
        <time>2026-01-06T14:49:27.000Z</time>
        <extensions>
          <ns3:TrackPointExtension>
            <ns3:hr>72</ns3:hr>
            <ns3:cad>0</ns3:cad>
          </ns3:TrackPointExtension>
        </extensions>
      </trkpt>
      <trkpt lat="37.94006989337503910064697265625" lon="-107.15929060243070125579833984375">
        <ele>3324.60009765625</ele>
        <time>2026-01-06T14:49:28.000Z</time>
        <extensions>
          <ns3:TrackPointExtension>
            <ns3:hr>71</ns3:hr>
            <ns3:cad>0</ns3:cad>
          </ns3:TrackPointExtension>
        </extensions>
      </trkpt>
      <trkpt lat="37.9400183446705341339111328125" lon="-107.159276939928531646728515625">
        <ele>3325.199951171875</ele>
        <time>2026-01-06T14:49:32.000Z</time>
        <extensions>
          <ns3:TrackPointExtension>
            <ns3:hr>73</ns3:hr>
            <ns3:cad>59</ns3:cad>
          </ns3:TrackPointExtension>
        </extensions>
      </trkpt>
      <trkpt lat="37.93998666107654571533203125" lon="-107.1592479385435581207275390625">
        <ele>3325.60009765625</ele>
        <time>2026-01-06T14:49:35.000Z</time>
        <extensions>
          <ns3:TrackPointExtension>
            <ns3:hr>76</ns3:hr>
            <ns3:cad>59</ns3:cad>
          </ns3:TrackPointExtension>
        </extensions>
      </trkpt>
      <trkpt lat="37.939946763217449188232421875" lon="-107.1591986529529094696044921875">
        <ele>3325.60009765625</ele>
        <time>2026-01-06T14:49:39.000Z</time>
        <extensions>
          <ns3:TrackPointExtension>
            <ns3:hr>79</ns3:hr>
            <ns3:cad>59</ns3:cad>
          </ns3:TrackPointExtension>
        </extensions>
      </trkpt>
      <trkpt lat="37.93989035300910472869873046875" lon="-107.15912573039531707763671875">
        <ele>3325.60009765625</ele>
        <time>2026-01-06T14:49:45.000Z</time>
        <extensions>
          <ns3:TrackPointExtension>
            <ns3:hr>79</ns3:hr>
            <ns3:cad>61</ns3:cad>
          </ns3:TrackPointExtension>
        </extensions>
      </trkpt>
      <trkpt lat="37.93987006880342960357666015625" lon="-107.15910268016159534454345703125">
        <ele>3325.39990234375</ele>
        <time>2026-01-06T14:49:47.000Z</time>
        <extensions>
          <ns3:TrackPointExtension>
            <ns3:hr>79</ns3:hr>
            <ns3:cad>61</ns3:cad>
          </ns3:TrackPointExtension>
        </extensions>
      </trkpt>
      <trkpt lat="37.93981768190860748291015625" lon="-107.15902288444340229034423828125">
        <ele>3326.199951171875</ele>
        <time>2026-01-06T14:49:53.000Z</time>
        <extensions>
          <ns3:TrackPointExtension>
            <ns3:hr>78</ns3:hr>
            <ns3:cad>60</ns3:cad>
          </ns3:TrackPointExtension>
        </extensions>
      </trkpt>
      <trkpt lat="37.93978750705718994140625" lon="-107.15898566879332065582275390625">
        <ele>3326.60009765625</ele>
        <time>2026-01-06T14:49:56.000Z</time>
        <extensions>
          <ns3:TrackPointExtension>
            <ns3:hr>79</ns3:hr>
            <ns3:cad>60</ns3:cad>
          </ns3:TrackPointExtension>
        </extensions>
      </trkpt>
      <trkpt lat="37.93974501080811023712158203125" lon="-107.15891106985509395599365234375">
        <ele>3325.60009765625</ele>
        <time>2026-01-06T14:50:01.000Z</time>
        <extensions>
          <ns3:TrackPointExtension>
            <ns3:hr>81</ns3:hr>
            <ns3:cad>57</ns3:cad>
          </ns3:TrackPointExtension>
        </extensions>
      </trkpt>
      <trkpt lat="37.939741909503936767578125" lon="-107.15889413841068744659423828125">
        <ele>3325.39990234375</ele>
        <time>2026-01-06T14:50:02.000Z</time>
        <extensions>
          <ns3:TrackPointExtension>
            <ns3:hr>80</ns3:hr>
            <ns3:cad>57</ns3:cad>
          </ns3:TrackPointExtension>
        </extensions>
      </trkpt>
      <trkpt lat="37.939749620854854583740234375" lon="-107.15879355557262897491455078125">
        <ele>3326.39990234375</ele>
        <time>2026-01-06T14:50:08.000Z</time>
        <extensions>
          <ns3:TrackPointExtension>
            <ns3:hr>80</ns3:hr>
            <ns3:cad>0</ns3:cad>
          </ns3:TrackPointExtension>
        </extensions>
      </trkpt>
      <trkpt lat="37.93975758366286754608154296875" lon="-107.15878416784107685089111328125">
        <ele>3326.39990234375</ele>
        <time>2026-01-06T14:50:09.000Z</time>
        <extensions>
          <ns3:TrackPointExtension>
            <ns3:hr>80</ns3:hr>
            <ns3:cad>0</ns3:cad>
          </ns3:TrackPointExtension>
        </extensions>
      </trkpt>
      <trkpt lat="37.9397699050605297088623046875" lon="-107.15877570211887359619140625">
        <ele>3326.39990234375</ele>
        <time>2026-01-06T14:50:10.000Z</time>
        <extensions>
          <ns3:TrackPointExtension>
            <ns3:hr>80</ns3:hr>
            <ns3:cad>57</ns3:cad>
          </ns3:TrackPointExtension>
        </extensions>
      </trkpt>
      <trkpt lat="37.93982438743114471435546875" lon="-107.158758938312530517578125">
        <ele>3326</ele>
        <time>2026-01-06T14:50:14.000Z</time>
        <extensions>
          <ns3:TrackPointExtension>
            <ns3:hr>81</ns3:hr>
            <ns3:cad>57</ns3:cad>
          </ns3:TrackPointExtension>
        </extensions>
      </trkpt>
      <trkpt lat="37.93987962417304515838623046875" lon="-107.15874494053423404693603515625">
        <ele>3325.60009765625</ele>
        <time>2026-01-06T14:50:18.000Z</time>
        <extensions>
          <ns3:TrackPointExtension>
            <ns3:hr>80</ns3:hr>
            <ns3:cad>57</ns3:cad>
          </ns3:TrackPointExtension>
        </extensions>
      </trkpt>
      <trkpt lat="37.939935363829135894775390625" lon="-107.15874125249683856964111328125">
        <ele>3326</ele>
        <time>2026-01-06T14:50:22.000Z</time>
        <extensions>
          <ns3:TrackPointExtension>
            <ns3:hr>79</ns3:hr>
            <ns3:cad>59</ns3:cad>
          </ns3:TrackPointExtension>
        </extensions>
      </trkpt>
      <trkpt lat="37.93999345041811466217041015625" lon="-107.15874292887747287750244140625">
        <ele>3326.199951171875</ele>
        <time>2026-01-06T14:50:26.000Z</time>
        <extensions>
          <ns3:TrackPointExtension>
            <ns3:hr>78</ns3:hr>
            <ns3:cad>59</ns3:cad>
          </ns3:TrackPointExtension>
        </extensions>
      </trkpt>
      <trkpt lat="37.940026223659515380859375" lon="-107.15874888002872467041015625">
        <ele>3325.199951171875</ele>
        <time>2026-01-06T14:50:31.000Z</time>
        <extensions>
          <ns3:TrackPointExtension>
            <ns3:hr>78</ns3:hr>
            <ns3:cad>59</ns3:cad>
          </ns3:TrackPointExtension>
        </extensions>
      </trkpt>
      <trkpt lat="37.94004608877003192901611328125" lon="-107.15874276123940944671630859375">
        <ele>3325.199951171875</ele>
        <time>2026-01-06T14:50:33.000Z</time>
        <extensions>
          <ns3:TrackPointExtension>
            <ns3:hr>78</ns3:hr>
            <ns3:cad>0</ns3:cad>
          </ns3:TrackPointExtension>
        </extensions>
      </trkpt>
      <trkpt lat="37.9400612600147724151611328125" lon="-107.158725075423717498779296875">
        <ele>3325</ele>
        <time>2026-01-06T14:50:35.000Z</time>
        <extensions>
          <ns3:TrackPointExtension>
            <ns3:hr>78</ns3:hr>
            <ns3:cad>0</ns3:cad>
          </ns3:TrackPointExtension>
        </extensions>
      </trkpt>
      <trkpt lat="37.94006369076669216156005859375" lon="-107.15870956890285015106201171875">
        <ele>3325.199951171875</ele>
        <time>2026-01-06T14:50:36.000Z</time>
        <extensions>
          <ns3:TrackPointExtension>
            <ns3:hr>78</ns3:hr>
            <ns3:cad>0</ns3:cad>
          </ns3:TrackPointExtension>
        </extensions>
      </trkpt>
      <trkpt lat="37.9400676302611827850341796875" lon="-107.15866313315927982330322265625">
        <ele>3325.60009765625</ele>
        <time>2026-01-06T14:50:40.000Z</time>
        <extensions>
          <ns3:TrackPointExtension>
            <ns3:hr>76</ns3:hr>
            <ns3:cad>0</ns3:cad>
          </ns3:TrackPointExtension>
        </extensions>
      </trkpt>
      <trkpt lat="37.940070144832134246826171875" lon="-107.15859733521938323974609375">
        <ele>3325.199951171875</ele>
        <time>2026-01-06T14:50:46.000Z</time>
        <extensions>
          <ns3:TrackPointExtension>
            <ns3:hr>78</ns3:hr>
            <ns3:cad>0</ns3:cad>
          </ns3:TrackPointExtension>
        </extensions>
      </trkpt>
      <trkpt lat="37.94007056392729282379150390625" lon="-107.15858568437397480010986328125">
        <ele>3325.60009765625</ele>
        <time>2026-01-06T14:50:52.000Z</time>
        <extensions>
          <ns3:TrackPointExtension>
            <ns3:hr>79</ns3:hr>
            <ns3:cad>0</ns3:cad>
          </ns3:TrackPointExtension>
        </extensions>
      </trkpt>
      <trkpt lat="37.9400706477463245391845703125" lon="-107.15858434326946735382080078125">
        <ele>3325.60009765625</ele>
        <time>2026-01-06T14:50:58.000Z</time>
        <extensions>
          <ns3:TrackPointExtension>
            <ns3:hr>77</ns3:hr>
            <ns3:cad>0</ns3:cad>
          </ns3:TrackPointExtension>
        </extensions>
      </trkpt>
      <trkpt lat="37.940065450966358184814453125" lon="-107.1585686691105365753173828125">
        <ele>3325.60009765625</ele>
        <time>2026-01-06T14:51:00.000Z</time>
        <extensions>
          <ns3:TrackPointExtension>
            <ns3:hr>76</ns3:hr>
            <ns3:cad>0</ns3:cad>
          </ns3:TrackPointExtension>
        </extensions>
      </trkpt>
      <trkpt lat="37.9400579072535037994384765625" lon="-107.15855618007481098175048828125">
        <ele>3325.39990234375</ele>
        <time>2026-01-06T14:51:06.000Z</time>
        <extensions>
          <ns3:TrackPointExtension>
            <ns3:hr>73</ns3:hr>
            <ns3:cad>0</ns3:cad>
          </ns3:TrackPointExtension>
        </extensions>
      </trkpt>
      <trkpt lat="37.9400599189102649688720703125" lon="-107.15856238268315792083740234375">
        <ele>3325</ele>
        <time>2026-01-06T14:51:08.000Z</time>
        <extensions>
          <ns3:TrackPointExtension>
            <ns3:hr>73</ns3:hr>
            <ns3:cad>0</ns3:cad>
          </ns3:TrackPointExtension>
        </extensions>
      </trkpt>
      <trkpt lat="37.94006620533764362335205078125" lon="-107.15853153727948665618896484375">
        <ele>3325.800048828125</ele>
        <time>2026-01-06T14:51:14.000Z</time>
        <extensions>
          <ns3:TrackPointExtension>
            <ns3:hr>71</ns3:hr>
            <ns3:cad>0</ns3:cad>
          </ns3:TrackPointExtension>
        </extensions>
      </trkpt>
      <trkpt lat="37.940060086548328399658203125" lon="-107.15845459140837192535400390625">
        <ele>3326.60009765625</ele>
        <time>2026-01-06T14:51:19.000Z</time>
        <extensions>
          <ns3:TrackPointExtension>
            <ns3:hr>71</ns3:hr>
            <ns3:cad>62</ns3:cad>
          </ns3:TrackPointExtension>
        </extensions>
      </trkpt>
      <trkpt lat="37.94006888754665851593017578125" lon="-107.15840178541839122772216796875">
        <ele>3327</ele>
        <time>2026-01-06T14:51:23.000Z</time>
        <extensions>
          <ns3:TrackPointExtension>
            <ns3:hr>71</ns3:hr>
            <ns3:cad>16</ns3:cad>
          </ns3:TrackPointExtension>
        </extensions>
      </trkpt>
      <trkpt lat="37.9400686360895633697509765625" lon="-107.158338166773319244384765625">
        <ele>3327.39990234375</ele>
        <time>2026-01-06T14:51:28.000Z</time>
        <extensions>
          <ns3:TrackPointExtension>
            <ns3:hr>71</ns3:hr>
            <ns3:cad>0</ns3:cad>
          </ns3:TrackPointExtension>
        </extensions>
      </trkpt>
      <trkpt lat="37.940066792070865631103515625" lon="-107.15831612236797809600830078125">
        <ele>3327.60009765625</ele>
        <time>2026-01-06T14:51:30.000Z</time>
        <extensions>
          <ns3:TrackPointExtension>
            <ns3:hr>71</ns3:hr>
            <ns3:cad>0</ns3:cad>
          </ns3:TrackPointExtension>
        </extensions>
      </trkpt>
      <trkpt lat="37.94006905518472194671630859375" lon="-107.15827974490821361541748046875">
        <ele>3328.199951171875</ele>
        <time>2026-01-06T14:51:36.000Z</time>
        <extensions>
          <ns3:TrackPointExtension>
            <ns3:hr>73</ns3:hr>
            <ns3:cad>0</ns3:cad>
          </ns3:TrackPointExtension>
        </extensions>
      </trkpt>
      <trkpt lat="37.94008883647620677947998046875" lon="-107.15830019675195217132568359375">
        <ele>3329.199951171875</ele>
        <time>2026-01-06T14:51:39.000Z</time>
        <extensions>
          <ns3:TrackPointExtension>
            <ns3:hr>74</ns3:hr>
            <ns3:cad>0</ns3:cad>
          </ns3:TrackPointExtension>
        </extensions>
      </trkpt>
      <trkpt lat="37.9401028342545032501220703125" lon="-107.1583175472915172576904296875">
        <ele>3329.60009765625</ele>
        <time>2026-01-06T14:51:41.000Z</time>
        <extensions>
          <ns3:TrackPointExtension>
            <ns3:hr>75</ns3:hr>
            <ns3:cad>0</ns3:cad>
          </ns3:TrackPointExtension>
        </extensions>
      </trkpt>
      <trkpt lat="37.94013124890625476837158203125" lon="-107.15835920535027980804443359375">
        <ele>3330.39990234375</ele>
        <time>2026-01-06T14:51:45.000Z</time>
        <extensions>
          <ns3:TrackPointExtension>
            <ns3:hr>78</ns3:hr>
            <ns3:cad>61</ns3:cad>
          </ns3:TrackPointExtension>
        </extensions>
      </trkpt>
      <trkpt lat="37.940143235027790069580078125" lon="-107.15837144292891025543212890625">
        <ele>3330.39990234375</ele>
        <time>2026-01-06T14:51:46.000Z</time>
        <extensions>
          <ns3:TrackPointExtension>
            <ns3:hr>78</ns3:hr>
            <ns3:cad>61</ns3:cad>
          </ns3:TrackPointExtension>
        </extensions>
      </trkpt>
      <trkpt lat="37.94018170796334743499755859375" lon="-107.15844671241939067840576171875">
        <ele>3331.199951171875</ele>
        <time>2026-01-06T14:51:52.000Z</time>
        <extensions>
          <ns3:TrackPointExtension>
            <ns3:hr>76</ns3:hr>
            <ns3:cad>61</ns3:cad>
          </ns3:TrackPointExtension>
        </extensions>
      </trkpt>
      <trkpt lat="37.94019612483680248260498046875" lon="-107.158466242253780364990234375">
        <ele>3331.199951171875</ele>
        <time>2026-01-06T14:51:54.000Z</time>
        <extensions>
          <ns3:TrackPointExtension>
            <ns3:hr>76</ns3:hr>
            <ns3:cad>0</ns3:cad>
          </ns3:TrackPointExtension>
        </extensions>
      </trkpt>
      <trkpt lat="37.9402000643312931060791015625" lon="-107.15847370214760303497314453125">
        <ele>3331.39990234375</ele>
        <time>2026-01-06T14:51:55.000Z</time>
        <extensions>
          <ns3:TrackPointExtension>
            <ns3:hr>75</ns3:hr>
            <ns3:cad>0</ns3:cad>
          </ns3:TrackPointExtension>
        </extensions>
      </trkpt>
      <trkpt lat="37.94024021364748477935791015625" lon="-107.15849398635327816009521484375">
        <ele>3331.800048828125</ele>
        <time>2026-01-06T14:52:00.000Z</time>
        <extensions>
          <ns3:TrackPointExtension>
            <ns3:hr>75</ns3:hr>
            <ns3:cad>49</ns3:cad>
          </ns3:TrackPointExtension>
        </extensions>
      </trkpt>
      <trkpt lat="37.94025043956935405731201171875" lon="-107.15849046595394611358642578125">
        <ele>3332</ele>
        <time>2026-01-06T14:52:01.000Z</time>
        <extensions>
          <ns3:TrackPointExtension>
            <ns3:hr>75</ns3:hr>
            <ns3:cad>49</ns3:cad>
          </ns3:TrackPointExtension>
        </extensions>
      </trkpt>
      <trkpt lat="37.94025831855833530426025390625" lon="-107.1584731154143810272216796875">
        <ele>3332.39990234375</ele>
        <time>2026-01-06T14:52:03.000Z</time>
        <extensions>
          <ns3:TrackPointExtension>
            <ns3:hr>76</ns3:hr>
            <ns3:cad>49</ns3:cad>
          </ns3:TrackPointExtension>
        </extensions>
      </trkpt>
      <trkpt lat="37.9402580671012401580810546875" lon="-107.1584613807499408721923828125">
        <ele>3332.60009765625</ele>
        <time>2026-01-06T14:52:04.000Z</time>
        <extensions>
          <ns3:TrackPointExtension>
            <ns3:hr>75</ns3:hr>
            <ns3:cad>0</ns3:cad>
          </ns3:TrackPointExtension>
        </extensions>
      </trkpt>
      <trkpt lat="37.94025865383446216583251953125" lon="-107.1584516577422618865966796875">
        <ele>3332.800048828125</ele>
        <time>2026-01-06T14:52:05.000Z</time>
        <extensions>
          <ns3:TrackPointExtension>
            <ns3:hr>76</ns3:hr>
            <ns3:cad>0</ns3:cad>
          </ns3:TrackPointExtension>
        </extensions>
      </trkpt>
      <trkpt lat="37.9402627609670162200927734375" lon="-107.15839575044810771942138671875">
        <ele>3333.60009765625</ele>
        <time>2026-01-06T14:52:10.000Z</time>
        <extensions>
          <ns3:TrackPointExtension>
            <ns3:hr>77</ns3:hr>
            <ns3:cad>0</ns3:cad>
          </ns3:TrackPointExtension>
        </extensions>
      </trkpt>
      <trkpt lat="37.94028036296367645263671875" lon="-107.158347554504871368408203125">
        <ele>3334.800048828125</ele>
        <time>2026-01-06T14:52:15.000Z</time>
        <extensions>
          <ns3:TrackPointExtension>
            <ns3:hr>78</ns3:hr>
            <ns3:cad>0</ns3:cad>
          </ns3:TrackPointExtension>
        </extensions>
      </trkpt>
      <trkpt lat="37.9402869008481502532958984375" lon="-107.1583418548107147216796875">
        <ele>3335</ele>
        <time>2026-01-06T14:52:16.000Z</time>
        <extensions>
          <ns3:TrackPointExtension>
            <ns3:hr>78</ns3:hr>
            <ns3:cad>0</ns3:cad>
          </ns3:TrackPointExtension>
        </extensions>
      </trkpt>
      <trkpt lat="37.940332330763339996337890625" lon="-107.15830455534160137176513671875">
        <ele>3335.60009765625</ele>
        <time>2026-01-06T14:52:22.000Z</time>
        <extensions>
          <ns3:TrackPointExtension>
            <ns3:hr>79</ns3:hr>
            <ns3:cad>0</ns3:cad>
          </ns3:TrackPointExtension>
        </extensions>
      </trkpt>
      <trkpt lat="37.940343059599399566650390625" lon="-107.15829701162874698638916015625">
        <ele>3335.60009765625</ele>
        <time>2026-01-06T14:52:23.000Z</time>
        <extensions>
          <ns3:TrackPointExtension>
            <ns3:hr>79</ns3:hr>
            <ns3:cad>0</ns3:cad>
          </ns3:TrackPointExtension>
        </extensions>
      </trkpt>
      <trkpt lat="37.9403655230998992919921875" lon="-107.15825560502707958221435546875">
        <ele>3335.60009765625</ele>
        <time>2026-01-06T14:52:29.000Z</time>
        <extensions>
          <ns3:TrackPointExtension>
            <ns3:hr>80</ns3:hr>
            <ns3:cad>0</ns3:cad>
          </ns3:TrackPointExtension>
        </extensions>
      </trkpt>
      <trkpt lat="37.94037968851625919342041015625" lon="-107.1582035534083843231201171875">
        <ele>3335.800048828125</ele>
        <time>2026-01-06T14:52:35.000Z</time>
        <extensions>
          <ns3:TrackPointExtension>
            <ns3:hr>80</ns3:hr>
            <ns3:cad>0</ns3:cad>
          </ns3:TrackPointExtension>
        </extensions>
      </trkpt>
      <trkpt lat="37.940382622182369232177734375" lon="-107.1581889688968658447265625">
        <ele>3335.800048828125</ele>
        <time>2026-01-06T14:52:36.000Z</time>
        <extensions>
          <ns3:TrackPointExtension>
            <ns3:hr>80</ns3:hr>
            <ns3:cad>0</ns3:cad>
          </ns3:TrackPointExtension>
        </extensions>
      </trkpt>
      <trkpt lat="37.940399385988712310791015625" lon="-107.15814747847616672515869140625">
        <ele>3336.800048828125</ele>
        <time>2026-01-06T14:52:41.000Z</time>
        <extensions>
          <ns3:TrackPointExtension>
            <ns3:hr>82</ns3:hr>
            <ns3:cad>0</ns3:cad>
          </ns3:TrackPointExtension>
        </extensions>
      </trkpt>
      <trkpt lat="37.94040651060640811920166015625" lon="-107.15812535025179386138916015625">
        <ele>3337.39990234375</ele>
        <time>2026-01-06T14:52:43.000Z</time>
        <extensions>
          <ns3:TrackPointExtension>
            <ns3:hr>83</ns3:hr>
            <ns3:cad>0</ns3:cad>
          </ns3:TrackPointExtension>
        </extensions>
      </trkpt>
      <trkpt lat="37.940424866974353790283203125" lon="-107.1581063233315944671630859375">
        <ele>3338.39990234375</ele>
        <time>2026-01-06T14:52:46.000Z</time>
        <extensions>
          <ns3:TrackPointExtension>
            <ns3:hr>83</ns3:hr>
            <ns3:cad>51</ns3:cad>
          </ns3:TrackPointExtension>
        </extensions>
      </trkpt>
      <trkpt lat="37.94042930938303470611572265625" lon="-107.15810003690421581268310546875">
        <ele>3338.39990234375</ele>
        <time>2026-01-06T14:52:47.000Z</time>
        <extensions>
          <ns3:TrackPointExtension>
            <ns3:hr>83</ns3:hr>
            <ns3:cad>51</ns3:cad>
          </ns3:TrackPointExtension>
        </extensions>
      </trkpt>
      <trkpt lat="37.94044129550457000732421875" lon="-107.158069275319576263427734375">
        <ele>3338.60009765625</ele>
        <time>2026-01-06T14:52:52.000Z</time>
        <extensions>
          <ns3:TrackPointExtension>
            <ns3:hr>83</ns3:hr>
            <ns3:cad>0</ns3:cad>
          </ns3:TrackPointExtension>
        </extensions>
      </trkpt>
      <trkpt lat="37.9404521919786930084228515625" lon="-107.15801588259637355804443359375">
        <ele>3339.39990234375</ele>
        <time>2026-01-06T14:52:58.000Z</time>
        <extensions>
          <ns3:TrackPointExtension>
            <ns3:hr>81</ns3:hr>
            <ns3:cad>0</ns3:cad>
          </ns3:TrackPointExtension>
        </extensions>
      </trkpt>
      <trkpt lat="37.9404431395232677459716796875" lon="-107.15799895115196704864501953125">
        <ele>3339.60009765625</ele>
        <time>2026-01-06T14:53:00.000Z</time>
        <extensions>
          <ns3:TrackPointExtension>
            <ns3:hr>81</ns3:hr>
            <ns3:cad>0</ns3:cad>
          </ns3:TrackPointExtension>
        </extensions>
      </trkpt>
      <trkpt lat="37.9404179938137531280517578125" lon="-107.157976739108562469482421875">
        <ele>3340.199951171875</ele>
        <time>2026-01-06T14:53:03.000Z</time>
        <extensions>
          <ns3:TrackPointExtension>
            <ns3:hr>80</ns3:hr>
            <ns3:cad>0</ns3:cad>
          </ns3:TrackPointExtension>
        </extensions>
      </trkpt>
      <trkpt lat="37.9403923451900482177734375" lon="-107.1579611487686634063720703125">
        <ele>3340.800048828125</ele>
        <time>2026-01-06T14:53:06.000Z</time>
        <extensions>
          <ns3:TrackPointExtension>
            <ns3:hr>80</ns3:hr>
            <ns3:cad>0</ns3:cad>
          </ns3:TrackPointExtension>
        </extensions>
      </trkpt>
      <trkpt lat="37.9403650201857089996337890625" lon="-107.157947905361652374267578125">
        <ele>3341</ele>
        <time>2026-01-06T14:53:09.000Z</time>
        <extensions>
          <ns3:TrackPointExtension>
            <ns3:hr>80</ns3:hr>
            <ns3:cad>0</ns3:cad>
          </ns3:TrackPointExtension>
        </extensions>
      </trkpt>
      <trkpt lat="37.940332330763339996337890625" lon="-107.157911695539951324462890625">
        <ele>3341.39990234375</ele>
        <time>2026-01-06T14:53:15.000Z</time>
        <extensions>
          <ns3:TrackPointExtension>
            <ns3:hr>82</ns3:hr>
            <ns3:cad>0</ns3:cad>
          </ns3:TrackPointExtension>
        </extensions>
      </trkpt>
      <trkpt lat="37.9403375275433063507080078125" lon="-107.157876826822757720947265625">
        <ele>3341.800048828125</ele>
        <time>2026-01-06T14:53:20.000Z</time>
        <extensions>
          <ns3:TrackPointExtension>
            <ns3:hr>82</ns3:hr>
            <ns3:cad>0</ns3:cad>
          </ns3:TrackPointExtension>
        </extensions>
      </trkpt>
      <trkpt lat="37.940337359905242919921875" lon="-107.157866097986698150634765625">
        <ele>3342</ele>
        <time>2026-01-06T14:53:21.000Z</time>
        <extensions>
          <ns3:TrackPointExtension>
            <ns3:hr>81</ns3:hr>
            <ns3:cad>0</ns3:cad>
          </ns3:TrackPointExtension>
        </extensions>
      </trkpt>
      <trkpt lat="37.94032671488821506500244140625" lon="-107.15783718042075634002685546875">
        <ele>3342.199951171875</ele>
        <time>2026-01-06T14:53:27.000Z</time>
        <extensions>
          <ns3:TrackPointExtension>
            <ns3:hr>81</ns3:hr>
            <ns3:cad>79</ns3:cad>
          </ns3:TrackPointExtension>
        </extensions>
      </trkpt>
      <trkpt lat="37.9403257928788661956787109375" lon="-107.157834582030773162841796875">
        <ele>3341.39990234375</ele>
        <time>2026-01-06T14:53:31.000Z</time>
        <extensions>
          <ns3:TrackPointExtension>
            <ns3:hr>87</ns3:hr>
            <ns3:cad>0</ns3:cad>
          </ns3:TrackPointExtension>
        </extensions>
      </trkpt>
      <trkpt lat="37.9403257928788661956787109375" lon="-107.157834582030773162841796875">
        <ele>3341.39990234375</ele>
        <time>2026-01-06T14:53:32.000Z</time>
        <extensions>
          <ns3:TrackPointExtension>
            <ns3:hr>96</ns3:hr>
            <ns3:cad>0</ns3:cad>
          </ns3:TrackPointExtension>
        </extensions>
      </trkpt>
      <trkpt lat="37.9403257928788661956787109375" lon="-107.157834582030773162841796875">
        <ele>3341.60009765625</ele>
        <time>2026-01-06T14:53:33.000Z</time>
        <extensions>
          <ns3:TrackPointExtension>
            <ns3:hr>109</ns3:hr>
            <ns3:cad>0</ns3:cad>
          </ns3:TrackPointExtension>
        </extensions>
      </trkpt>
      <trkpt lat="37.9403078556060791015625" lon="-107.15780784375965595245361328125">
        <ele>3342.39990234375</ele>
        <time>2026-01-06T14:53:39.000Z</time>
        <extensions>
          <ns3:TrackPointExtension>
            <ns3:hr>108</ns3:hr>
            <ns3:cad>0</ns3:cad>
          </ns3:TrackPointExtension>
        </extensions>
      </trkpt>
      <trkpt lat="37.94029117561876773834228515625" lon="-107.1577904932200908660888671875">
        <ele>3343</ele>
        <time>2026-01-06T14:53:41.000Z</time>
        <extensions>
          <ns3:TrackPointExtension>
            <ns3:hr>110</ns3:hr>
            <ns3:cad>0</ns3:cad>
          </ns3:TrackPointExtension>
        </extensions>
      </trkpt>
      <trkpt lat="37.94025965966284275054931640625" lon="-107.1577757410705089569091796875">
        <ele>3344.199951171875</ele>
        <time>2026-01-06T14:53:45.000Z</time>
        <extensions>
          <ns3:TrackPointExtension>
            <ns3:hr>110</ns3:hr>
            <ns3:cad>0</ns3:cad>
          </ns3:TrackPointExtension>
        </extensions>
      </trkpt>
      <trkpt lat="37.9402218572795391082763671875" lon="-107.15776492841541767120361328125">
        <ele>3344.800048828125</ele>
        <time>2026-01-06T14:53:50.000Z</time>
        <extensions>
          <ns3:TrackPointExtension>
            <ns3:hr>108</ns3:hr>
            <ns3:cad>0</ns3:cad>
          </ns3:TrackPointExtension>
        </extensions>
      </trkpt>
      <trkpt lat="37.94018958695232868194580078125" lon="-107.15775386430323123931884765625">
        <ele>3345</ele>
        <time>2026-01-06T14:53:56.000Z</time>
        <extensions>
          <ns3:TrackPointExtension>
            <ns3:hr>108</ns3:hr>
            <ns3:cad>41</ns3:cad>
          </ns3:TrackPointExtension>
        </extensions>
      </trkpt>
      <trkpt lat="37.940183468163013458251953125" lon="-107.157750092446804046630859375">
        <ele>3345</ele>
        <time>2026-01-06T14:53:57.000Z</time>
        <extensions>
          <ns3:TrackPointExtension>
            <ns3:hr>108</ns3:hr>
            <ns3:cad>41</ns3:cad>
          </ns3:TrackPointExtension>
        </extensions>
      </trkpt>
      <trkpt lat="37.940174750983715057373046875" lon="-107.15774045325815677642822265625">
        <ele>3345.800048828125</ele>
        <time>2026-01-06T14:53:59.000Z</time>
        <extensions>
          <ns3:TrackPointExtension>
            <ns3:hr>108</ns3:hr>
            <ns3:cad>0</ns3:cad>
          </ns3:TrackPointExtension>
        </extensions>
      </trkpt>
      <trkpt lat="37.940162681043148040771484375" lon="-107.15771446935832500457763671875">
        <ele>3346.39990234375</ele>
        <time>2026-01-06T14:54:02.000Z</time>
        <extensions>
          <ns3:TrackPointExtension>
            <ns3:hr>113</ns3:hr>
            <ns3:cad>0</ns3:cad>
          </ns3:TrackPointExtension>
        </extensions>
      </trkpt>
      <trkpt lat="37.9401598311960697174072265625" lon="-107.157707512378692626953125">
        <ele>3346.39990234375</ele>
        <time>2026-01-06T14:54:03.000Z</time>
        <extensions>
          <ns3:TrackPointExtension>
            <ns3:hr>114</ns3:hr>
            <ns3:cad>0</ns3:cad>
          </ns3:TrackPointExtension>
        </extensions>
      </trkpt>
      <trkpt lat="37.9401628486812114715576171875" lon="-107.15767465531826019287109375">
        <ele>3346.800048828125</ele>
        <time>2026-01-06T14:54:07.000Z</time>
        <extensions>
          <ns3:TrackPointExtension>
            <ns3:hr>115</ns3:hr>
            <ns3:cad>0</ns3:cad>
          </ns3:TrackPointExtension>
        </extensions>
      </trkpt>
      <trkpt lat="37.94018120504915714263916015625" lon="-107.15765428729355335235595703125">
        <ele>3347.199951171875</ele>
        <time>2026-01-06T14:54:09.000Z</time>
        <extensions>
          <ns3:TrackPointExtension>
            <ns3:hr>114</ns3:hr>
            <ns3:cad>0</ns3:cad>
          </ns3:TrackPointExtension>
        </extensions>
      </trkpt>
      <trkpt lat="37.9402342624962329864501953125" lon="-107.15764473192393779754638671875">
        <ele>3347.800048828125</ele>
        <time>2026-01-06T14:54:14.000Z</time>
        <extensions>
          <ns3:TrackPointExtension>
            <ns3:hr>115</ns3:hr>
            <ns3:cad>0</ns3:cad>
          </ns3:TrackPointExtension>
        </extensions>
      </trkpt>
      <trkpt lat="37.9402765072882175445556640625" lon="-107.15760114602744579315185546875">
        <ele>3347.60009765625</ele>
        <time>2026-01-06T14:54:19.000Z</time>
        <extensions>
          <ns3:TrackPointExtension>
            <ns3:hr>112</ns3:hr>
            <ns3:cad>0</ns3:cad>
          </ns3:TrackPointExtension>
        </extensions>
      </trkpt>
      <trkpt lat="37.9402936063706874847412109375" lon="-107.1575625054538249969482421875">
        <ele>3347.800048828125</ele>
        <time>2026-01-06T14:54:22.000Z</time>
        <extensions>
          <ns3:TrackPointExtension>
            <ns3:hr>110</ns3:hr>
            <ns3:cad>70</ns3:cad>
          </ns3:TrackPointExtension>
        </extensions>
      </trkpt>
      <trkpt lat="37.94028011150658130645751953125" lon="-107.157514728605747222900390625">
        <ele>3348.60009765625</ele>
        <time>2026-01-06T14:54:26.000Z</time>
        <extensions>
          <ns3:TrackPointExtension>
            <ns3:hr>110</ns3:hr>
            <ns3:cad>0</ns3:cad>
          </ns3:TrackPointExtension>
        </extensions>
      </trkpt>
      <trkpt lat="37.94026963412761688232421875" lon="-107.15750760398805141448974609375">
        <ele>3348.800048828125</ele>
        <time>2026-01-06T14:54:27.000Z</time>
        <extensions>
          <ns3:TrackPointExtension>
            <ns3:hr>111</ns3:hr>
            <ns3:cad>0</ns3:cad>
          </ns3:TrackPointExtension>
        </extensions>
      </trkpt>
      <trkpt lat="37.9402533732354640960693359375" lon="-107.1575048379600048065185546875">
        <ele>3348.60009765625</ele>
        <time>2026-01-06T14:54:28.000Z</time>
        <extensions>
          <ns3:TrackPointExtension>
            <ns3:hr>111</ns3:hr>
            <ns3:cad>0</ns3:cad>
          </ns3:TrackPointExtension>
        </extensions>
      </trkpt>
      <trkpt lat="37.9402151517570018768310546875" lon="-107.1575081907212734222412109375">
        <ele>3348.39990234375</ele>
        <time>2026-01-06T14:54:31.000Z</time>
        <extensions>
          <ns3:TrackPointExtension>
            <ns3:hr>111</ns3:hr>
            <ns3:cad>0</ns3:cad>
          </ns3:TrackPointExtension>
        </extensions>
      </trkpt>
      <trkpt lat="37.9401782713830471038818359375" lon="-107.15750106610357761383056640625">
        <ele>3348.60009765625</ele>
        <time>2026-01-06T14:54:36.000Z</time>
        <extensions>
          <ns3:TrackPointExtension>
            <ns3:hr>110</ns3:hr>
            <ns3:cad>0</ns3:cad>
          </ns3:TrackPointExtension>
        </extensions>
      </trkpt>
      <trkpt lat="37.94014030136168003082275390625" lon="-107.1574867330491542816162109375">
        <ele>3348.800048828125</ele>
        <time>2026-01-06T14:54:42.000Z</time>
        <extensions>
          <ns3:TrackPointExtension>
            <ns3:hr>110</ns3:hr>
            <ns3:cad>0</ns3:cad>
          </ns3:TrackPointExtension>
        </extensions>
      </trkpt>
      <trkpt lat="37.94012747704982757568359375" lon="-107.15748446993529796600341796875">
        <ele>3349.800048828125</ele>
        <time>2026-01-06T14:54:48.000Z</time>
        <extensions>
          <ns3:TrackPointExtension>
            <ns3:hr>107</ns3:hr>
            <ns3:cad>0</ns3:cad>
          </ns3:TrackPointExtension>
        </extensions>
      </trkpt>
      <trkpt lat="37.94012052007019519805908203125" lon="-107.1574843861162662506103515625">
        <ele>3349.800048828125</ele>
        <time>2026-01-06T14:54:49.000Z</time>
        <extensions>
          <ns3:TrackPointExtension>
            <ns3:hr>107</ns3:hr>
            <ns3:cad>0</ns3:cad>
          </ns3:TrackPointExtension>
        </extensions>
      </trkpt>
      <trkpt lat="37.9401296563446521759033203125" lon="-107.157484553754329681396484375">
        <ele>3349.199951171875</ele>
        <time>2026-01-06T14:54:54.000Z</time>
        <extensions>
          <ns3:TrackPointExtension>
            <ns3:hr>104</ns3:hr>
            <ns3:cad>0</ns3:cad>
          </ns3:TrackPointExtension>
        </extensions>
      </trkpt>
      <trkpt lat="37.94011565856635570526123046875" lon="-107.157493270933628082275390625">
        <ele>3349.199951171875</ele>
        <time>2026-01-06T14:54:57.000Z</time>
        <extensions>
          <ns3:TrackPointExtension>
            <ns3:hr>103</ns3:hr>
            <ns3:cad>0</ns3:cad>
          </ns3:TrackPointExtension>
        </extensions>
      </trkpt>
      <trkpt lat="37.940115742385387420654296875" lon="-107.15749385766685009002685546875">
        <ele>3349.800048828125</ele>
        <time>2026-01-06T14:55:03.000Z</time>
        <extensions>
          <ns3:TrackPointExtension>
            <ns3:hr>102</ns3:hr>
            <ns3:cad>0</ns3:cad>
          </ns3:TrackPointExtension>
        </extensions>
      </trkpt>
      <trkpt lat="37.9401149041950702667236328125" lon="-107.15749084018170833587646484375">
        <ele>3350</ele>
        <time>2026-01-06T14:55:04.000Z</time>
        <extensions>
          <ns3:TrackPointExtension>
            <ns3:hr>102</ns3:hr>
            <ns3:cad>0</ns3:cad>
          </ns3:TrackPointExtension>
        </extensions>
      </trkpt>
      <trkpt lat="37.94010694138705730438232421875" lon="-107.15748153626918792724609375">
        <ele>3350</ele>
        <time>2026-01-06T14:55:06.000Z</time>
        <extensions>
          <ns3:TrackPointExtension>
            <ns3:hr>101</ns3:hr>
            <ns3:cad>0</ns3:cad>
          </ns3:TrackPointExtension>
        </extensions>
      </trkpt>
      <trkpt lat="37.9401061870157718658447265625" lon="-107.1574404649436473846435546875">
        <ele>3350</ele>
        <time>2026-01-06T14:55:12.000Z</time>
        <extensions>
          <ns3:TrackPointExtension>
            <ns3:hr>101</ns3:hr>
            <ns3:cad>0</ns3:cad>
          </ns3:TrackPointExtension>
        </extensions>
      </trkpt>
      <trkpt lat="37.94011666439473628997802734375" lon="-107.15744071640074253082275390625">
        <ele>3350.199951171875</ele>
        <time>2026-01-06T14:55:13.000Z</time>
        <extensions>
          <ns3:TrackPointExtension>
            <ns3:hr>102</ns3:hr>
            <ns3:cad>0</ns3:cad>
          </ns3:TrackPointExtension>
        </extensions>
      </trkpt>
      <trkpt lat="37.940137870609760284423828125" lon="-107.15742663480341434478759765625">
        <ele>3351.199951171875</ele>
        <time>2026-01-06T14:55:16.000Z</time>
        <extensions>
          <ns3:TrackPointExtension>
            <ns3:hr>102</ns3:hr>
            <ns3:cad>0</ns3:cad>
          </ns3:TrackPointExtension>
        </extensions>
      </trkpt>
      <trkpt lat="37.9401514492928981781005859375" lon="-107.15742026455700397491455078125">
        <ele>3352.60009765625</ele>
        <time>2026-01-06T14:55:19.000Z</time>
        <extensions>
          <ns3:TrackPointExtension>
            <ns3:hr>102</ns3:hr>
            <ns3:cad>0</ns3:cad>
          </ns3:TrackPointExtension>
        </extensions>
      </trkpt>
      <trkpt lat="37.940171062946319580078125" lon="-107.15740920044481754302978515625">
        <ele>3353.800048828125</ele>
        <time>2026-01-06T14:55:22.000Z</time>
        <extensions>
          <ns3:TrackPointExtension>
            <ns3:hr>102</ns3:hr>
            <ns3:cad>0</ns3:cad>
          </ns3:TrackPointExtension>
        </extensions>
      </trkpt>
      <trkpt lat="37.94018506072461605072021484375" lon="-107.15739545412361621856689453125">
        <ele>3354.199951171875</ele>
        <time>2026-01-06T14:55:24.000Z</time>
        <extensions>
          <ns3:TrackPointExtension>
            <ns3:hr>103</ns3:hr>
            <ns3:cad>0</ns3:cad>
          </ns3:TrackPointExtension>
        </extensions>
      </trkpt>
      <trkpt lat="37.940200902521610260009765625" lon="-107.15738003142178058624267578125">
        <ele>3354.60009765625</ele>
        <time>2026-01-06T14:55:26.000Z</time>
        <extensions>
          <ns3:TrackPointExtension>
            <ns3:hr>106</ns3:hr>
            <ns3:cad>0</ns3:cad>
          </ns3:TrackPointExtension>
        </extensions>
      </trkpt>
      <trkpt lat="37.94020333327353000640869140625" lon="-107.157374918460845947265625">
        <ele>3355</ele>
        <time>2026-01-06T14:55:27.000Z</time>
        <extensions>
          <ns3:TrackPointExtension>
            <ns3:hr>108</ns3:hr>
            <ns3:cad>0</ns3:cad>
          </ns3:TrackPointExtension>
        </extensions>
      </trkpt>
      <trkpt lat="37.94022596441209316253662109375" lon="-107.15736326761543750762939453125">
        <ele>3355.39990234375</ele>
        <time>2026-01-06T14:55:30.000Z</time>
        <extensions>
          <ns3:TrackPointExtension>
            <ns3:hr>109</ns3:hr>
            <ns3:cad>51</ns3:cad>
          </ns3:TrackPointExtension>
        </extensions>
      </trkpt>
      <trkpt lat="37.94026033021509647369384765625" lon="-107.15734130702912807464599609375">
        <ele>3355.60009765625</ele>
        <time>2026-01-06T14:55:36.000Z</time>
        <extensions>
          <ns3:TrackPointExtension>
            <ns3:hr>110</ns3:hr>
            <ns3:cad>0</ns3:cad>
          </ns3:TrackPointExtension>
        </extensions>
      </trkpt>
      <trkpt lat="37.94029067270457744598388671875" lon="-107.1573304943740367889404296875">
        <ele>3356</ele>
        <time>2026-01-06T14:55:40.000Z</time>
        <extensions>
          <ns3:TrackPointExtension>
            <ns3:hr>112</ns3:hr>
            <ns3:cad>0</ns3:cad>
          </ns3:TrackPointExtension>
        </extensions>
      </trkpt>
      <trkpt lat="37.940301485359668731689453125" lon="-107.15732772834599018096923828125">
        <ele>3356.39990234375</ele>
        <time>2026-01-06T14:55:42.000Z</time>
        <extensions>
          <ns3:TrackPointExtension>
            <ns3:hr>112</ns3:hr>
            <ns3:cad>0</ns3:cad>
          </ns3:TrackPointExtension>
        </extensions>
      </trkpt>
      <trkpt lat="37.94033308513462543487548828125" lon="-107.1573107130825519561767578125">
        <ele>3356.800048828125</ele>
        <time>2026-01-06T14:55:47.000Z</time>
        <extensions>
          <ns3:TrackPointExtension>
            <ns3:hr>113</ns3:hr>
            <ns3:cad>0</ns3:cad>
          </ns3:TrackPointExtension>
        </extensions>
      </trkpt>
      <trkpt lat="37.94037382118403911590576171875" lon="-107.15728975832462310791015625">
        <ele>3357.39990234375</ele>
        <time>2026-01-06T14:55:52.000Z</time>
        <extensions>
          <ns3:TrackPointExtension>
            <ns3:hr>114</ns3:hr>
            <ns3:cad>0</ns3:cad>
          </ns3:TrackPointExtension>
        </extensions>
      </trkpt>
      <trkpt lat="37.94037868268787860870361328125" lon="-107.157276682555675506591796875">
        <ele>3357.60009765625</ele>
        <time>2026-01-06T14:55:53.000Z</time>
        <extensions>
          <ns3:TrackPointExtension>
            <ns3:hr>114</ns3:hr>
            <ns3:cad>0</ns3:cad>
          </ns3:TrackPointExtension>
        </extensions>
      </trkpt>
      <trkpt lat="37.940367870032787322998046875" lon="-107.15723016299307346343994140625">
        <ele>3357.800048828125</ele>
        <time>2026-01-06T14:55:57.000Z</time>
        <extensions>
          <ns3:TrackPointExtension>
            <ns3:hr>113</ns3:hr>
            <ns3:cad>0</ns3:cad>
          </ns3:TrackPointExtension>
        </extensions>
      </trkpt>
      <trkpt lat="37.9403549619019031524658203125" lon="-107.15721172280609607696533203125">
        <ele>3357.800048828125</ele>
        <time>2026-01-06T14:55:59.000Z</time>
        <extensions>
          <ns3:TrackPointExtension>
            <ns3:hr>112</ns3:hr>
            <ns3:cad>0</ns3:cad>
          </ns3:TrackPointExtension>
        </extensions>
      </trkpt>
      <trkpt lat="37.940315902233123779296875" lon="-107.1571804583072662353515625">
        <ele>3358.39990234375</ele>
        <time>2026-01-06T14:56:04.000Z</time>
        <extensions>
          <ns3:TrackPointExtension>
            <ns3:hr>111</ns3:hr>
            <ns3:cad>0</ns3:cad>
          </ns3:TrackPointExtension>
        </extensions>
      </trkpt>
      <trkpt lat="37.9402949474751949310302734375" lon="-107.1571846492588520050048828125">
        <ele>3358.60009765625</ele>
        <time>2026-01-06T14:56:06.000Z</time>
        <extensions>
          <ns3:TrackPointExtension>
            <ns3:hr>111</ns3:hr>
            <ns3:cad>0</ns3:cad>
          </ns3:TrackPointExtension>
        </extensions>
      </trkpt>
      <trkpt lat="37.94024390168488025665283203125" lon="-107.1571947075426578521728515625">
        <ele>3358.60009765625</ele>
        <time>2026-01-06T14:56:12.000Z</time>
        <extensions>
          <ns3:TrackPointExtension>
            <ns3:hr>112</ns3:hr>
            <ns3:cad>48</ns3:cad>
          </ns3:TrackPointExtension>
        </extensions>
      </trkpt>
      <trkpt lat="37.94023669324815273284912109375" lon="-107.15719412080943584442138671875">
        <ele>3358.60009765625</ele>
        <time>2026-01-06T14:56:13.000Z</time>
        <extensions>
          <ns3:TrackPointExtension>
            <ns3:hr>113</ns3:hr>
            <ns3:cad>48</ns3:cad>
          </ns3:TrackPointExtension>
        </extensions>
      </trkpt>
      <trkpt lat="37.94018254615366458892822265625" lon="-107.1571937017142772674560546875">
        <ele>3359</ele>
        <time>2026-01-06T14:56:19.000Z</time>
        <extensions>
          <ns3:TrackPointExtension>
            <ns3:hr>113</ns3:hr>
            <ns3:cad>0</ns3:cad>
          </ns3:TrackPointExtension>
        </extensions>
      </trkpt>
      <trkpt lat="37.940134517848491668701171875" lon="-107.157170735299587249755859375">
        <ele>3359.199951171875</ele>
        <time>2026-01-06T14:56:24.000Z</time>
        <extensions>
          <ns3:TrackPointExtension>
            <ns3:hr>114</ns3:hr>
            <ns3:cad>0</ns3:cad>
          </ns3:TrackPointExtension>
        </extensions>
      </trkpt>
      <trkpt lat="37.94011984951794147491455078125" lon="-107.15715137310326099395751953125">
        <ele>3359.199951171875</ele>
        <time>2026-01-06T14:56:26.000Z</time>
        <extensions>
          <ns3:TrackPointExtension>
            <ns3:hr>113</ns3:hr>
            <ns3:cad>0</ns3:cad>
          </ns3:TrackPointExtension>
        </extensions>
      </trkpt>
      <trkpt lat="37.94011716730892658233642578125" lon="-107.15713293291628360748291015625">
        <ele>3359.60009765625</ele>
        <time>2026-01-06T14:56:28.000Z</time>
        <extensions>
          <ns3:TrackPointExtension>
            <ns3:hr>113</ns3:hr>
            <ns3:cad>0</ns3:cad>
          </ns3:TrackPointExtension>
        </extensions>
      </trkpt>
      <trkpt lat="37.94012152589857578277587890625" lon="-107.15710711665451526641845703125">
        <ele>3360</ele>
        <time>2026-01-06T14:56:31.000Z</time>
        <extensions>
          <ns3:TrackPointExtension>
            <ns3:hr>114</ns3:hr>
            <ns3:cad>0</ns3:cad>
          </ns3:TrackPointExtension>
        </extensions>
      </trkpt>
      <trkpt lat="37.94012990780174732208251953125" lon="-107.1570478565990924835205078125">
        <ele>3360.39990234375</ele>
        <time>2026-01-06T14:56:37.000Z</time>
        <extensions>
          <ns3:TrackPointExtension>
            <ns3:hr>114</ns3:hr>
            <ns3:cad>0</ns3:cad>
          </ns3:TrackPointExtension>
        </extensions>
      </trkpt>
      <trkpt lat="37.94013376347720623016357421875" lon="-107.15702279470860958099365234375">
        <ele>3360.60009765625</ele>
        <time>2026-01-06T14:56:39.000Z</time>
        <extensions>
          <ns3:TrackPointExtension>
            <ns3:hr>114</ns3:hr>
            <ns3:cad>0</ns3:cad>
          </ns3:TrackPointExtension>
        </extensions>
      </trkpt>
      <trkpt lat="37.940134517848491668701171875" lon="-107.15700100176036357879638671875">
        <ele>3361</ele>
        <time>2026-01-06T14:56:42.000Z</time>
        <extensions>
          <ns3:TrackPointExtension>
            <ns3:hr>112</ns3:hr>
            <ns3:cad>0</ns3:cad>
          </ns3:TrackPointExtension>
        </extensions>
      </trkpt>
      <trkpt lat="37.9401299916207790374755859375" lon="-107.15694702230393886566162109375">
        <ele>3361.60009765625</ele>
        <time>2026-01-06T14:56:48.000Z</time>
        <extensions>
          <ns3:TrackPointExtension>
            <ns3:hr>111</ns3:hr>
            <ns3:cad>0</ns3:cad>
          </ns3:TrackPointExtension>
        </extensions>
      </trkpt>
      <trkpt lat="37.940129823982715606689453125" lon="-107.1569415740668773651123046875">
        <ele>3361.60009765625</ele>
        <time>2026-01-06T14:56:49.000Z</time>
        <extensions>
          <ns3:TrackPointExtension>
            <ns3:hr>111</ns3:hr>
            <ns3:cad>0</ns3:cad>
          </ns3:TrackPointExtension>
        </extensions>
      </trkpt>
      <trkpt lat="37.94013812206685543060302734375" lon="-107.1568943001329898834228515625">
        <ele>3362.39990234375</ele>
        <time>2026-01-06T14:56:54.000Z</time>
        <extensions>
          <ns3:TrackPointExtension>
            <ns3:hr>111</ns3:hr>
            <ns3:cad>0</ns3:cad>
          </ns3:TrackPointExtension>
        </extensions>
      </trkpt>
      <trkpt lat="37.94014013372361660003662109375" lon="-107.15688801370561122894287109375">
        <ele>3362.800048828125</ele>
        <time>2026-01-06T14:56:55.000Z</time>
        <extensions>
          <ns3:TrackPointExtension>
            <ns3:hr>111</ns3:hr>
            <ns3:cad>0</ns3:cad>
          </ns3:TrackPointExtension>
        </extensions>
      </trkpt>
      <trkpt lat="37.94014415703713893890380859375" lon="-107.15686940588057041168212890625">
        <ele>3363.199951171875</ele>
        <time>2026-01-06T14:56:59.000Z</time>
        <extensions>
          <ns3:TrackPointExtension>
            <ns3:hr>111</ns3:hr>
            <ns3:cad>0</ns3:cad>
          </ns3:TrackPointExtension>
        </extensions>
      </trkpt>
      <trkpt lat="37.94014432467520236968994140625" lon="-107.15684493072330951690673828125">
        <ele>3363.800048828125</ele>
        <time>2026-01-06T14:57:02.000Z</time>
        <extensions>
          <ns3:TrackPointExtension>
            <ns3:hr>111</ns3:hr>
            <ns3:cad>0</ns3:cad>
          </ns3:TrackPointExtension>
        </extensions>
      </trkpt>
      <trkpt lat="37.94014298357069492340087890625" lon="-107.15683353133499622344970703125">
        <ele>3364</ele>
        <time>2026-01-06T14:57:04.000Z</time>
        <extensions>
          <ns3:TrackPointExtension>
            <ns3:hr>112</ns3:hr>
            <ns3:cad>0</ns3:cad>
          </ns3:TrackPointExtension>
        </extensions>
      </trkpt>
      <trkpt lat="37.94014080427587032318115234375" lon="-107.15679732151329517364501953125">
        <ele>3364.60009765625</ele>
        <time>2026-01-06T14:57:09.000Z</time>
        <extensions>
          <ns3:TrackPointExtension>
            <ns3:hr>115</ns3:hr>
            <ns3:cad>0</ns3:cad>
          </ns3:TrackPointExtension>
        </extensions>
      </trkpt>
      <trkpt lat="37.940140552818775177001953125" lon="-107.15678592212498188018798828125">
        <ele>3364.800048828125</ele>
        <time>2026-01-06T14:57:10.000Z</time>
        <extensions>
          <ns3:TrackPointExtension>
            <ns3:hr>116</ns3:hr>
            <ns3:cad>0</ns3:cad>
          </ns3:TrackPointExtension>
        </extensions>
      </trkpt>
      <trkpt lat="37.94013912789523601531982421875" lon="-107.15675063431262969970703125">
        <ele>3365.800048828125</ele>
        <time>2026-01-06T14:57:15.000Z</time>
        <extensions>
          <ns3:TrackPointExtension>
            <ns3:hr>118</ns3:hr>
            <ns3:cad>0</ns3:cad>
          </ns3:TrackPointExtension>
        </extensions>
      </trkpt>
      <trkpt lat="37.9401393793523311614990234375" lon="-107.15674015693366527557373046875">
        <ele>3366.199951171875</ele>
        <time>2026-01-06T14:57:17.000Z</time>
        <extensions>
          <ns3:TrackPointExtension>
            <ns3:hr>117</ns3:hr>
            <ns3:cad>0</ns3:cad>
          </ns3:TrackPointExtension>
        </extensions>
      </trkpt>
      <trkpt lat="37.94013141654431819915771484375" lon="-107.1567092277109622955322265625">
        <ele>3366.800048828125</ele>
        <time>2026-01-06T14:57:21.000Z</time>
        <extensions>
          <ns3:TrackPointExtension>
            <ns3:hr>116</ns3:hr>
            <ns3:cad>0</ns3:cad>
          </ns3:TrackPointExtension>
        </extensions>
      </trkpt>
      <trkpt lat="37.94012856669723987579345703125" lon="-107.1566874347627162933349609375">
        <ele>3367.39990234375</ele>
        <time>2026-01-06T14:57:24.000Z</time>
        <extensions>
          <ns3:TrackPointExtension>
            <ns3:hr>117</ns3:hr>
            <ns3:cad>0</ns3:cad>
          </ns3:TrackPointExtension>
        </extensions>
      </trkpt>
      <trkpt lat="37.94012990780174732208251953125" lon="-107.1566565893590450286865234375">
        <ele>3368.199951171875</ele>
        <time>2026-01-06T14:57:27.000Z</time>
        <extensions>
          <ns3:TrackPointExtension>
            <ns3:hr>116</ns3:hr>
            <ns3:cad>68</ns3:cad>
          </ns3:TrackPointExtension>
        </extensions>
      </trkpt>
      <trkpt lat="37.94013393111526966094970703125" lon="-107.1566391550004482269287109375">
        <ele>3368.39990234375</ele>
        <time>2026-01-06T14:57:30.000Z</time>
        <extensions>
          <ns3:TrackPointExtension>
            <ns3:hr>116</ns3:hr>
            <ns3:cad>0</ns3:cad>
          </ns3:TrackPointExtension>
        </extensions>
      </trkpt>
      <trkpt lat="37.94013460166752338409423828125" lon="-107.1566260792315006256103515625">
        <ele>3368.39990234375</ele>
        <time>2026-01-06T14:57:31.000Z</time>
        <extensions>
          <ns3:TrackPointExtension>
            <ns3:hr>116</ns3:hr>
            <ns3:cad>0</ns3:cad>
          </ns3:TrackPointExtension>
        </extensions>
      </trkpt>
      <trkpt lat="37.94012923724949359893798828125" lon="-107.1565714292228221893310546875">
        <ele>3369</ele>
        <time>2026-01-06T14:57:37.000Z</time>
        <extensions>
          <ns3:TrackPointExtension>
            <ns3:hr>116</ns3:hr>
            <ns3:cad>0</ns3:cad>
          </ns3:TrackPointExtension>
        </extensions>
      </trkpt>
      <trkpt lat="37.9401226155459880828857421875" lon="-107.156536392867565155029296875">
        <ele>3369.199951171875</ele>
        <time>2026-01-06T14:57:42.000Z</time>
        <extensions>
          <ns3:TrackPointExtension>
            <ns3:hr>118</ns3:hr>
            <ns3:cad>0</ns3:cad>
          </ns3:TrackPointExtension>
        </extensions>
      </trkpt>
      <trkpt lat="37.94012621976435184478759765625" lon="-107.156506218016147613525390625">
        <ele>3369.39990234375</ele>
        <time>2026-01-06T14:57:46.000Z</time>
        <extensions>
          <ns3:TrackPointExtension>
            <ns3:hr>118</ns3:hr>
            <ns3:cad>0</ns3:cad>
          </ns3:TrackPointExtension>
        </extensions>
      </trkpt>
      <trkpt lat="37.9401246272027492523193359375" lon="-107.156503200531005859375">
        <ele>3369.60009765625</ele>
        <time>2026-01-06T14:57:47.000Z</time>
        <extensions>
          <ns3:TrackPointExtension>
            <ns3:hr>118</ns3:hr>
            <ns3:cad>0</ns3:cad>
          </ns3:TrackPointExtension>
        </extensions>
      </trkpt>
      <trkpt lat="37.940126471221446990966796875" lon="-107.1564597822725772857666015625">
        <ele>3370.199951171875</ele>
        <time>2026-01-06T14:57:52.000Z</time>
        <extensions>
          <ns3:TrackPointExtension>
            <ns3:hr>118</ns3:hr>
            <ns3:cad>0</ns3:cad>
          </ns3:TrackPointExtension>
        </extensions>
      </trkpt>
      <trkpt lat="37.94013024307787418365478515625" lon="-107.15644846670329570770263671875">
        <ele>3370.60009765625</ele>
        <time>2026-01-06T14:57:55.000Z</time>
        <extensions>
          <ns3:TrackPointExtension>
            <ns3:hr>117</ns3:hr>
            <ns3:cad>0</ns3:cad>
          </ns3:TrackPointExtension>
        </extensions>
      </trkpt>
      <trkpt lat="37.94013476930558681488037109375" lon="-107.15641762129962444305419921875">
        <ele>3371.39990234375</ele>
        <time>2026-01-06T14:57:59.000Z</time>
        <extensions>
          <ns3:TrackPointExtension>
            <ns3:hr>117</ns3:hr>
            <ns3:cad>0</ns3:cad>
          </ns3:TrackPointExtension>
        </extensions>
      </trkpt>
      <trkpt lat="37.94013711623847484588623046875" lon="-107.15640102513134479522705078125">
        <ele>3371.800048828125</ele>
        <time>2026-01-06T14:58:01.000Z</time>
        <extensions>
          <ns3:TrackPointExtension>
            <ns3:hr>117</ns3:hr>
            <ns3:cad>0</ns3:cad>
          </ns3:TrackPointExtension>
        </extensions>
      </trkpt>
      <trkpt lat="37.9401454143226146697998046875" lon="-107.15636766515672206878662109375">
        <ele>3372.199951171875</ele>
        <time>2026-01-06T14:58:04.000Z</time>
        <extensions>
          <ns3:TrackPointExtension>
            <ns3:hr>117</ns3:hr>
            <ns3:cad>0</ns3:cad>
          </ns3:TrackPointExtension>
        </extensions>
      </trkpt>
      <trkpt lat="37.94017399661242961883544921875" lon="-107.15631217695772647857666015625">
        <ele>3371.800048828125</ele>
        <time>2026-01-06T14:58:10.000Z</time>
        <extensions>
          <ns3:TrackPointExtension>
            <ns3:hr>119</ns3:hr>
            <ns3:cad>0</ns3:cad>
          </ns3:TrackPointExtension>
        </extensions>
      </trkpt>
      <trkpt lat="37.94018858112394809722900390625" lon="-107.15630312450230121612548828125">
        <ele>3372</ele>
        <time>2026-01-06T14:58:12.000Z</time>
        <extensions>
          <ns3:TrackPointExtension>
            <ns3:hr>119</ns3:hr>
            <ns3:cad>0</ns3:cad>
          </ns3:TrackPointExtension>
        </extensions>
      </trkpt>
      <trkpt lat="37.94023652561008930206298828125" lon="-107.156261466443538665771484375">
        <ele>3372.199951171875</ele>
        <time>2026-01-06T14:58:18.000Z</time>
        <extensions>
          <ns3:TrackPointExtension>
            <ns3:hr>117</ns3:hr>
            <ns3:cad>0</ns3:cad>
          </ns3:TrackPointExtension>
        </extensions>
      </trkpt>
      <trkpt lat="37.94024289585649967193603515625" lon="-107.15625165961682796478271484375">
        <ele>3372.199951171875</ele>
        <time>2026-01-06T14:58:19.000Z</time>
        <extensions>
          <ns3:TrackPointExtension>
            <ns3:hr>117</ns3:hr>
            <ns3:cad>0</ns3:cad>
          </ns3:TrackPointExtension>
        </extensions>
      </trkpt>
      <trkpt lat="37.94024893082678318023681640625" lon="-107.15622081421315670013427734375">
        <ele>3372.39990234375</ele>
        <time>2026-01-06T14:58:22.000Z</time>
        <extensions>
          <ns3:TrackPointExtension>
            <ns3:hr>117</ns3:hr>
            <ns3:cad>0</ns3:cad>
          </ns3:TrackPointExtension>
        </extensions>
      </trkpt>
      <trkpt lat="37.94024842791259288787841796875" lon="-107.15620354749262332916259765625">
        <ele>3372.800048828125</ele>
        <time>2026-01-06T14:58:24.000Z</time>
        <extensions>
          <ns3:TrackPointExtension>
            <ns3:hr>117</ns3:hr>
            <ns3:cad>0</ns3:cad>
          </ns3:TrackPointExtension>
        </extensions>
      </trkpt>
      <trkpt lat="37.940243817865848541259765625" lon="-107.15619851835072040557861328125">
        <ele>3372.800048828125</ele>
        <time>2026-01-06T14:58:25.000Z</time>
        <extensions>
          <ns3:TrackPointExtension>
            <ns3:hr>117</ns3:hr>
            <ns3:cad>0</ns3:cad>
          </ns3:TrackPointExtension>
        </extensions>
      </trkpt>
      <trkpt lat="37.94022479094564914703369140625" lon="-107.15615979395806789398193359375">
        <ele>3373</ele>
        <time>2026-01-06T14:58:31.000Z</time>
        <extensions>
          <ns3:TrackPointExtension>
            <ns3:hr>115</ns3:hr>
            <ns3:cad>0</ns3:cad>
          </ns3:TrackPointExtension>
        </extensions>
      </trkpt>
      <trkpt lat="37.94022076763212680816650390625" lon="-107.1561037190258502960205078125">
        <ele>3373.60009765625</ele>
        <time>2026-01-06T14:58:37.000Z</time>
        <extensions>
          <ns3:TrackPointExtension>
            <ns3:hr>114</ns3:hr>
            <ns3:cad>0</ns3:cad>
          </ns3:TrackPointExtension>
        </extensions>
      </trkpt>
      <trkpt lat="37.9402228631079196929931640625" lon="-107.15609458275139331817626953125">
        <ele>3374</ele>
        <time>2026-01-06T14:58:38.000Z</time>
        <extensions>
          <ns3:TrackPointExtension>
            <ns3:hr>114</ns3:hr>
            <ns3:cad>0</ns3:cad>
          </ns3:TrackPointExtension>
        </extensions>
      </trkpt>
      <trkpt lat="37.94022412039339542388916015625" lon="-107.15605485253036022186279296875">
        <ele>3374.39990234375</ele>
        <time>2026-01-06T14:58:43.000Z</time>
        <extensions>
          <ns3:TrackPointExtension>
            <ns3:hr>111</ns3:hr>
            <ns3:cad>0</ns3:cad>
          </ns3:TrackPointExtension>
        </extensions>
      </trkpt>
      <trkpt lat="37.94023987837135791778564453125" lon="-107.15599919669330120086669921875">
        <ele>3374</ele>
        <time>2026-01-06T14:58:49.000Z</time>
        <extensions>
          <ns3:TrackPointExtension>
            <ns3:hr>109</ns3:hr>
            <ns3:cad>0</ns3:cad>
          </ns3:TrackPointExtension>
        </extensions>
      </trkpt>
      <trkpt lat="37.94024507515132427215576171875" lon="-107.15596583671867847442626953125">
        <ele>3375</ele>
        <time>2026-01-06T14:58:54.000Z</time>
        <extensions>
          <ns3:TrackPointExtension>
            <ns3:hr>111</ns3:hr>
            <ns3:cad>0</ns3:cad>
          </ns3:TrackPointExtension>
        </extensions>
      </trkpt>
      <trkpt lat="37.94024524278938770294189453125" lon="-107.155951000750064849853515625">
        <ele>3375.60009765625</ele>
        <time>2026-01-06T14:58:56.000Z</time>
        <extensions>
          <ns3:TrackPointExtension>
            <ns3:hr>113</ns3:hr>
            <ns3:cad>0</ns3:cad>
          </ns3:TrackPointExtension>
        </extensions>
      </trkpt>
      <trkpt lat="37.94024557806551456451416015625" lon="-107.155930884182453155517578125">
        <ele>3376.199951171875</ele>
        <time>2026-01-06T14:58:58.000Z</time>
        <extensions>
          <ns3:TrackPointExtension>
            <ns3:hr>113</ns3:hr>
            <ns3:cad>0</ns3:cad>
          </ns3:TrackPointExtension>
        </extensions>
      </trkpt>
      <trkpt lat="37.94024306349456310272216796875" lon="-107.15589123778045177459716796875">
        <ele>3376.60009765625</ele>
        <time>2026-01-06T14:59:02.000Z</time>
        <extensions>
          <ns3:TrackPointExtension>
            <ns3:hr>114</ns3:hr>
            <ns3:cad>0</ns3:cad>
          </ns3:TrackPointExtension>
        </extensions>
      </trkpt>
      <trkpt lat="37.94023535214364528656005859375" lon="-107.1558334864675998687744140625">
        <ele>3377.199951171875</ele>
        <time>2026-01-06T14:59:08.000Z</time>
        <extensions>
          <ns3:TrackPointExtension>
            <ns3:hr>117</ns3:hr>
            <ns3:cad>0</ns3:cad>
          </ns3:TrackPointExtension>
        </extensions>
      </trkpt>
      <trkpt lat="37.9402287304401397705078125" lon="-107.15581965632736682891845703125">
        <ele>3377.39990234375</ele>
        <time>2026-01-06T14:59:09.000Z</time>
        <extensions>
          <ns3:TrackPointExtension>
            <ns3:hr>117</ns3:hr>
            <ns3:cad>0</ns3:cad>
          </ns3:TrackPointExtension>
        </extensions>
      </trkpt>
      <trkpt lat="37.94021322391927242279052734375" lon="-107.1557657606899738311767578125">
        <ele>3377.800048828125</ele>
        <time>2026-01-06T14:59:15.000Z</time>
        <extensions>
          <ns3:TrackPointExtension>
            <ns3:hr>119</ns3:hr>
            <ns3:cad>0</ns3:cad>
          </ns3:TrackPointExtension>
        </extensions>
      </trkpt>
      <trkpt lat="37.94020584784448146820068359375" lon="-107.1557401120662689208984375">
        <ele>3378.199951171875</ele>
        <time>2026-01-06T14:59:18.000Z</time>
        <extensions>
          <ns3:TrackPointExtension>
            <ns3:hr>118</ns3:hr>
            <ns3:cad>0</ns3:cad>
          </ns3:TrackPointExtension>
        </extensions>
      </trkpt>
      <trkpt lat="37.94019587337970733642578125" lon="-107.1557199954986572265625">
        <ele>3378.39990234375</ele>
        <time>2026-01-06T14:59:21.000Z</time>
        <extensions>
          <ns3:TrackPointExtension>
            <ns3:hr>118</ns3:hr>
            <ns3:cad>0</ns3:cad>
          </ns3:TrackPointExtension>
        </extensions>
      </trkpt>
      <trkpt lat="37.940175421535968780517578125" lon="-107.15567984618246555328369140625">
        <ele>3378.800048828125</ele>
        <time>2026-01-06T14:59:26.000Z</time>
        <extensions>
          <ns3:TrackPointExtension>
            <ns3:hr>118</ns3:hr>
            <ns3:cad>0</ns3:cad>
          </ns3:TrackPointExtension>
        </extensions>
      </trkpt>
      <trkpt lat="37.9401601664721965789794921875" lon="-107.15562771074473857879638671875">
        <ele>3379</ele>
        <time>2026-01-06T14:59:32.000Z</time>
        <extensions>
          <ns3:TrackPointExtension>
            <ns3:hr>117</ns3:hr>
            <ns3:cad>0</ns3:cad>
          </ns3:TrackPointExtension>
        </extensions>
      </trkpt>
      <trkpt lat="37.94015790335834026336669921875" lon="-107.15561916120350360870361328125">
        <ele>3379.39990234375</ele>
        <time>2026-01-06T14:59:33.000Z</time>
        <extensions>
          <ns3:TrackPointExtension>
            <ns3:hr>116</ns3:hr>
            <ns3:cad>0</ns3:cad>
          </ns3:TrackPointExtension>
        </extensions>
      </trkpt>
      <trkpt lat="37.94015237130224704742431640625" lon="-107.1555684506893157958984375">
        <ele>3380.199951171875</ele>
        <time>2026-01-06T14:59:39.000Z</time>
        <extensions>
          <ns3:TrackPointExtension>
            <ns3:hr>115</ns3:hr>
            <ns3:cad>0</ns3:cad>
          </ns3:TrackPointExtension>
        </extensions>
      </trkpt>
      <trkpt lat="37.94015354476869106292724609375" lon="-107.15553634800016880035400390625">
        <ele>3380</ele>
        <time>2026-01-06T14:59:44.000Z</time>
        <extensions>
          <ns3:TrackPointExtension>
            <ns3:hr>114</ns3:hr>
            <ns3:cad>0</ns3:cad>
          </ns3:TrackPointExtension>
        </extensions>
      </trkpt>
      <trkpt lat="37.94015488587319850921630859375" lon="-107.1555250324308872222900390625">
        <ele>3380.39990234375</ele>
        <time>2026-01-06T14:59:46.000Z</time>
        <extensions>
          <ns3:TrackPointExtension>
            <ns3:hr>114</ns3:hr>
            <ns3:cad>0</ns3:cad>
          </ns3:TrackPointExtension>
        </extensions>
      </trkpt>
      <trkpt lat="37.94015170074999332427978515625" lon="-107.15548865497112274169921875">
        <ele>3380.800048828125</ele>
        <time>2026-01-06T14:59:49.000Z</time>
        <extensions>
          <ns3:TrackPointExtension>
            <ns3:hr>114</ns3:hr>
            <ns3:cad>0</ns3:cad>
          </ns3:TrackPointExtension>
        </extensions>
      </trkpt>
      <trkpt lat="37.940147928893566131591796875" lon="-107.155465185642242431640625">
        <ele>3381.60009765625</ele>
        <time>2026-01-06T14:59:53.000Z</time>
        <extensions>
          <ns3:TrackPointExtension>
            <ns3:hr>114</ns3:hr>
            <ns3:cad>0</ns3:cad>
          </ns3:TrackPointExtension>
        </extensions>
      </trkpt>
      <trkpt lat="37.940142564475536346435546875" lon="-107.15545906685292720794677734375">
        <ele>3381.60009765625</ele>
        <time>2026-01-06T14:59:54.000Z</time>
        <extensions>
          <ns3:TrackPointExtension>
            <ns3:hr>114</ns3:hr>
            <ns3:cad>0</ns3:cad>
          </ns3:TrackPointExtension>
        </extensions>
      </trkpt>
      <trkpt lat="37.94010593555867671966552734375" lon="-107.15539486147463321685791015625">
        <ele>3382.39990234375</ele>
        <time>2026-01-06T15:00:00.000Z</time>
        <extensions>
          <ns3:TrackPointExtension>
            <ns3:hr>113</ns3:hr>
            <ns3:cad>0</ns3:cad>
          </ns3:TrackPointExtension>
        </extensions>
      </trkpt>
      <trkpt lat="37.9400853998959064483642578125" lon="-107.15532747097313404083251953125">
        <ele>3381.800048828125</ele>
        <time>2026-01-06T15:00:06.000Z</time>
        <extensions>
          <ns3:TrackPointExtension>
            <ns3:hr>114</ns3:hr>
            <ns3:cad>0</ns3:cad>
          </ns3:TrackPointExtension>
        </extensions>
      </trkpt>
      <trkpt lat="37.940074838697910308837890625" lon="-107.1552739106118679046630859375">
        <ele>3382.60009765625</ele>
        <time>2026-01-06T15:00:12.000Z</time>
        <extensions>
          <ns3:TrackPointExtension>
            <ns3:hr>114</ns3:hr>
            <ns3:cad>0</ns3:cad>
          </ns3:TrackPointExtension>
        </extensions>
      </trkpt>
      <trkpt lat="37.9400693066418170928955078125" lon="-107.1552615053951740264892578125">
        <ele>3383</ele>
        <time>2026-01-06T15:00:13.000Z</time>
        <extensions>
          <ns3:TrackPointExtension>
            <ns3:hr>114</ns3:hr>
            <ns3:cad>0</ns3:cad>
          </ns3:TrackPointExtension>
        </extensions>
      </trkpt>
      <trkpt lat="37.940046004951000213623046875" lon="-107.15520693920552730560302734375">
        <ele>3383.39990234375</ele>
        <time>2026-01-06T15:00:19.000Z</time>
        <extensions>
          <ns3:TrackPointExtension>
            <ns3:hr>115</ns3:hr>
            <ns3:cad>0</ns3:cad>
          </ns3:TrackPointExtension>
        </extensions>
      </trkpt>
      <trkpt lat="37.94001759029924869537353515625" lon="-107.15515463612973690032958984375">
        <ele>3383.39990234375</ele>
        <time>2026-01-06T15:00:25.000Z</time>
        <extensions>
          <ns3:TrackPointExtension>
            <ns3:hr>116</ns3:hr>
            <ns3:cad>0</ns3:cad>
          </ns3:TrackPointExtension>
        </extensions>
      </trkpt>
      <trkpt lat="37.9400153271853923797607421875" lon="-107.1551491878926753997802734375">
        <ele>3383.39990234375</ele>
        <time>2026-01-06T15:00:26.000Z</time>
        <extensions>
          <ns3:TrackPointExtension>
            <ns3:hr>116</ns3:hr>
            <ns3:cad>0</ns3:cad>
          </ns3:TrackPointExtension>
        </extensions>
      </trkpt>
      <trkpt lat="37.93999177403748035430908203125" lon="-107.155096717178821563720703125">
        <ele>3383.60009765625</ele>
        <time>2026-01-06T15:00:32.000Z</time>
        <extensions>
          <ns3:TrackPointExtension>
            <ns3:hr>114</ns3:hr>
            <ns3:cad>0</ns3:cad>
          </ns3:TrackPointExtension>
        </extensions>
      </trkpt>
      <trkpt lat="37.9399900138378143310546875" lon="-107.155089676380157470703125">
        <ele>3383.800048828125</ele>
        <time>2026-01-06T15:00:33.000Z</time>
        <extensions>
          <ns3:TrackPointExtension>
            <ns3:hr>114</ns3:hr>
            <ns3:cad>45</ns3:cad>
          </ns3:TrackPointExtension>
        </extensions>
      </trkpt>
      <trkpt lat="37.93996880762279033660888671875" lon="-107.15503527782857418060302734375">
        <ele>3384.39990234375</ele>
        <time>2026-01-06T15:00:39.000Z</time>
        <extensions>
          <ns3:TrackPointExtension>
            <ns3:hr>113</ns3:hr>
            <ns3:cad>0</ns3:cad>
          </ns3:TrackPointExtension>
        </extensions>
      </trkpt>
      <trkpt lat="37.93996226973831653594970703125" lon="-107.15501734055578708648681640625">
        <ele>3384.800048828125</ele>
        <time>2026-01-06T15:00:41.000Z</time>
        <extensions>
          <ns3:TrackPointExtension>
            <ns3:hr>112</ns3:hr>
            <ns3:cad>0</ns3:cad>
          </ns3:TrackPointExtension>
        </extensions>
      </trkpt>
      <trkpt lat="37.9399512894451618194580078125" lon="-107.15496671386063098907470703125">
        <ele>3385.60009765625</ele>
        <time>2026-01-06T15:00:46.000Z</time>
        <extensions>
          <ns3:TrackPointExtension>
            <ns3:hr>112</ns3:hr>
            <ns3:cad>0</ns3:cad>
          </ns3:TrackPointExtension>
        </extensions>
      </trkpt>
      <trkpt lat="37.9399486072361469268798828125" lon="-107.15495623648166656494140625">
        <ele>3385.800048828125</ele>
        <time>2026-01-06T15:00:47.000Z</time>
        <extensions>
          <ns3:TrackPointExtension>
            <ns3:hr>113</ns3:hr>
            <ns3:cad>0</ns3:cad>
          </ns3:TrackPointExtension>
        </extensions>
      </trkpt>
      <trkpt lat="37.93993377126753330230712890625" lon="-107.15490586124360561370849609375">
        <ele>3386.199951171875</ele>
        <time>2026-01-06T15:00:51.000Z</time>
        <extensions>
          <ns3:TrackPointExtension>
            <ns3:hr>112</ns3:hr>
            <ns3:cad>48</ns3:cad>
          </ns3:TrackPointExtension>
        </extensions>
      </trkpt>
      <trkpt lat="37.93991767801344394683837890625" lon="-107.15484517626464366912841796875">
        <ele>3386.39990234375</ele>
        <time>2026-01-06T15:00:57.000Z</time>
        <extensions>
          <ns3:TrackPointExtension>
            <ns3:hr>113</ns3:hr>
            <ns3:cad>0</ns3:cad>
          </ns3:TrackPointExtension>
        </extensions>
      </trkpt>
      <trkpt lat="37.93989504687488079071044921875" lon="-107.154802344739437103271484375">
        <ele>3386</ele>
        <time>2026-01-06T15:01:03.000Z</time>
        <extensions>
          <ns3:TrackPointExtension>
            <ns3:hr>112</ns3:hr>
            <ns3:cad>0</ns3:cad>
          </ns3:TrackPointExtension>
        </extensions>
      </trkpt>
      <trkpt lat="37.93986956588923931121826171875" lon="-107.1547703258693218231201171875">
        <ele>3386.60009765625</ele>
        <time>2026-01-06T15:01:09.000Z</time>
        <extensions>
          <ns3:TrackPointExtension>
            <ns3:hr>111</ns3:hr>
            <ns3:cad>0</ns3:cad>
          </ns3:TrackPointExtension>
        </extensions>
      </trkpt>
      <trkpt lat="37.9398554004728794097900390625" lon="-107.15475196950137615203857421875">
        <ele>3387</ele>
        <time>2026-01-06T15:01:11.000Z</time>
        <extensions>
          <ns3:TrackPointExtension>
            <ns3:hr>111</ns3:hr>
            <ns3:cad>0</ns3:cad>
          </ns3:TrackPointExtension>
        </extensions>
      </trkpt>
      <trkpt lat="37.9398389719426631927490234375" lon="-107.15472313575446605682373046875">
        <ele>3387.60009765625</ele>
        <time>2026-01-06T15:01:14.000Z</time>
        <extensions>
          <ns3:TrackPointExtension>
            <ns3:hr>110</ns3:hr>
            <ns3:cad>69</ns3:cad>
          </ns3:TrackPointExtension>
        </extensions>
      </trkpt>
      <trkpt lat="37.93982748873531818389892578125" lon="-107.154687345027923583984375">
        <ele>3388</ele>
        <time>2026-01-06T15:01:20.000Z</time>
        <extensions>
          <ns3:TrackPointExtension>
            <ns3:hr>108</ns3:hr>
            <ns3:cad>0</ns3:cad>
          </ns3:TrackPointExtension>
        </extensions>
      </trkpt>
      <trkpt lat="37.9398346133530139923095703125" lon="-107.15464116074144840240478515625">
        <ele>3388.39990234375</ele>
        <time>2026-01-06T15:01:25.000Z</time>
        <extensions>
          <ns3:TrackPointExtension>
            <ns3:hr>107</ns3:hr>
            <ns3:cad>0</ns3:cad>
          </ns3:TrackPointExtension>
        </extensions>
      </trkpt>
      <trkpt lat="37.93983335606753826141357421875" lon="-107.15456823818385601043701171875">
        <ele>3388.60009765625</ele>
        <time>2026-01-06T15:01:30.000Z</time>
        <extensions>
          <ns3:TrackPointExtension>
            <ns3:hr>106</ns3:hr>
            <ns3:cad>0</ns3:cad>
          </ns3:TrackPointExtension>
        </extensions>
      </trkpt>
      <trkpt lat="37.93981793336570262908935546875" lon="-107.1545277535915374755859375">
        <ele>3389</ele>
        <time>2026-01-06T15:01:36.000Z</time>
        <extensions>
          <ns3:TrackPointExtension>
            <ns3:hr>108</ns3:hr>
            <ns3:cad>0</ns3:cad>
          </ns3:TrackPointExtension>
        </extensions>
      </trkpt>
      <trkpt lat="37.93980904854834079742431640625" lon="-107.15451098978519439697265625">
        <ele>3389</ele>
        <time>2026-01-06T15:01:38.000Z</time>
        <extensions>
          <ns3:TrackPointExtension>
            <ns3:hr>108</ns3:hr>
            <ns3:cad>0</ns3:cad>
          </ns3:TrackPointExtension>
        </extensions>
      </trkpt>
      <trkpt lat="37.93980251066386699676513671875" lon="-107.154484502971172332763671875">
        <ele>3389.60009765625</ele>
        <time>2026-01-06T15:01:42.000Z</time>
        <extensions>
          <ns3:TrackPointExtension>
            <ns3:hr>110</ns3:hr>
            <ns3:cad>0</ns3:cad>
          </ns3:TrackPointExtension>
        </extensions>
      </trkpt>
      <trkpt lat="37.93980401940643787384033203125" lon="-107.15444033034145832061767578125">
        <ele>3390.199951171875</ele>
        <time>2026-01-06T15:01:46.000Z</time>
        <extensions>
          <ns3:TrackPointExtension>
            <ns3:hr>111</ns3:hr>
            <ns3:cad>48</ns3:cad>
          </ns3:TrackPointExtension>
        </extensions>
      </trkpt>
      <trkpt lat="37.9397984035313129425048828125" lon="-107.1544129215180873870849609375">
        <ele>3390.199951171875</ele>
        <time>2026-01-06T15:01:48.000Z</time>
        <extensions>
          <ns3:TrackPointExtension>
            <ns3:hr>111</ns3:hr>
            <ns3:cad>45</ns3:cad>
          </ns3:TrackPointExtension>
        </extensions>
      </trkpt>
      <trkpt lat="37.9398084618151187896728515625" lon="-107.154365144670009613037109375">
        <ele>3390.800048828125</ele>
        <time>2026-01-06T15:01:54.000Z</time>
        <extensions>
          <ns3:TrackPointExtension>
            <ns3:hr>111</ns3:hr>
            <ns3:cad>0</ns3:cad>
          </ns3:TrackPointExtension>
        </extensions>
      </trkpt>
      <trkpt lat="37.93981240130960941314697265625" lon="-107.15433455072343349456787109375">
        <ele>3391.199951171875</ele>
        <time>2026-01-06T15:01:58.000Z</time>
        <extensions>
          <ns3:TrackPointExtension>
            <ns3:hr>112</ns3:hr>
            <ns3:cad>0</ns3:cad>
          </ns3:TrackPointExtension>
        </extensions>
      </trkpt>
      <trkpt lat="37.9398128204047679901123046875" lon="-107.1543223969638347625732421875">
        <ele>3391.39990234375</ele>
        <time>2026-01-06T15:02:00.000Z</time>
        <extensions>
          <ns3:TrackPointExtension>
            <ns3:hr>112</ns3:hr>
            <ns3:cad>0</ns3:cad>
          </ns3:TrackPointExtension>
        </extensions>
      </trkpt>
      <trkpt lat="37.9398074559867382049560546875" lon="-107.1542771346867084503173828125">
        <ele>3392.199951171875</ele>
        <time>2026-01-06T15:02:05.000Z</time>
        <extensions>
          <ns3:TrackPointExtension>
            <ns3:hr>111</ns3:hr>
            <ns3:cad>0</ns3:cad>
          </ns3:TrackPointExtension>
        </extensions>
      </trkpt>
      <trkpt lat="37.9398076236248016357421875" lon="-107.15426984243094921112060546875">
        <ele>3392.39990234375</ele>
        <time>2026-01-06T15:02:06.000Z</time>
        <extensions>
          <ns3:TrackPointExtension>
            <ns3:hr>110</ns3:hr>
            <ns3:cad>0</ns3:cad>
          </ns3:TrackPointExtension>
        </extensions>
      </trkpt>
      <trkpt lat="37.93981022201478481292724609375" lon="-107.1542365662753582000732421875">
        <ele>3393.39990234375</ele>
        <time>2026-01-06T15:02:11.000Z</time>
        <extensions>
          <ns3:TrackPointExtension>
            <ns3:hr>110</ns3:hr>
            <ns3:cad>0</ns3:cad>
          </ns3:TrackPointExtension>
        </extensions>
      </trkpt>
      <trkpt lat="37.9398201964795589447021484375" lon="-107.15419289655983448028564453125">
        <ele>3394</ele>
        <time>2026-01-06T15:02:16.000Z</time>
        <extensions>
          <ns3:TrackPointExtension>
            <ns3:hr>109</ns3:hr>
            <ns3:cad>0</ns3:cad>
          </ns3:TrackPointExtension>
        </extensions>
      </trkpt>
      <trkpt lat="37.93981072492897510528564453125" lon="-107.154154591262340545654296875">
        <ele>3394</ele>
        <time>2026-01-06T15:02:21.000Z</time>
        <extensions>
          <ns3:TrackPointExtension>
            <ns3:hr>110</ns3:hr>
            <ns3:cad>0</ns3:cad>
          </ns3:TrackPointExtension>
        </extensions>
      </trkpt>
      <trkpt lat="37.93981089256703853607177734375" lon="-107.154133133590221405029296875">
        <ele>3394.39990234375</ele>
        <time>2026-01-06T15:02:24.000Z</time>
        <extensions>
          <ns3:TrackPointExtension>
            <ns3:hr>111</ns3:hr>
            <ns3:cad>0</ns3:cad>
          </ns3:TrackPointExtension>
        </extensions>
      </trkpt>
      <trkpt lat="37.93981106020510196685791015625" lon="-107.154115028679370880126953125">
        <ele>3394.800048828125</ele>
        <time>2026-01-06T15:02:26.000Z</time>
        <extensions>
          <ns3:TrackPointExtension>
            <ns3:hr>111</ns3:hr>
            <ns3:cad>0</ns3:cad>
          </ns3:TrackPointExtension>
        </extensions>
      </trkpt>
      <trkpt lat="37.93981357477605342864990234375" lon="-107.15410253964364528656005859375">
        <ele>3395.60009765625</ele>
        <time>2026-01-06T15:02:28.000Z</time>
        <extensions>
          <ns3:TrackPointExtension>
            <ns3:hr>112</ns3:hr>
            <ns3:cad>0</ns3:cad>
          </ns3:TrackPointExtension>
        </extensions>
      </trkpt>
      <trkpt lat="37.9398156702518463134765625" lon="-107.15408309362828731536865234375">
        <ele>3395.60009765625</ele>
        <time>2026-01-06T15:02:31.000Z</time>
        <extensions>
          <ns3:TrackPointExtension>
            <ns3:hr>112</ns3:hr>
            <ns3:cad>0</ns3:cad>
          </ns3:TrackPointExtension>
        </extensions>
      </trkpt>
      <trkpt lat="37.939812652766704559326171875" lon="-107.15404160320758819580078125">
        <ele>3396.199951171875</ele>
        <time>2026-01-06T15:02:37.000Z</time>
        <extensions>
          <ns3:TrackPointExtension>
            <ns3:hr>113</ns3:hr>
            <ns3:cad>0</ns3:cad>
          </ns3:TrackPointExtension>
        </extensions>
      </trkpt>
      <trkpt lat="37.93980896472930908203125" lon="-107.1540015377104282379150390625">
        <ele>3396.60009765625</ele>
        <time>2026-01-06T15:02:41.000Z</time>
        <extensions>
          <ns3:TrackPointExtension>
            <ns3:hr>116</ns3:hr>
            <ns3:cad>0</ns3:cad>
          </ns3:TrackPointExtension>
        </extensions>
      </trkpt>
      <trkpt lat="37.93981491588056087493896484375" lon="-107.1539807505905628204345703125">
        <ele>3397</ele>
        <time>2026-01-06T15:02:45.000Z</time>
        <extensions>
          <ns3:TrackPointExtension>
            <ns3:hr>118</ns3:hr>
            <ns3:cad>66</ns3:cad>
          </ns3:TrackPointExtension>
        </extensions>
      </trkpt>
      <trkpt lat="37.93981994502246379852294921875" lon="-107.15394194237887859344482421875">
        <ele>3397.60009765625</ele>
        <time>2026-01-06T15:02:49.000Z</time>
        <extensions>
          <ns3:TrackPointExtension>
            <ns3:hr>120</ns3:hr>
            <ns3:cad>66</ns3:cad>
          </ns3:TrackPointExtension>
        </extensions>
      </trkpt>
      <trkpt lat="37.93980896472930908203125" lon="-107.15391151607036590576171875">
        <ele>3397.800048828125</ele>
        <time>2026-01-06T15:02:52.000Z</time>
        <extensions>
          <ns3:TrackPointExtension>
            <ns3:hr>121</ns3:hr>
            <ns3:cad>66</ns3:cad>
          </ns3:TrackPointExtension>
        </extensions>
      </trkpt>
      <trkpt lat="37.93980401940643787384033203125" lon="-107.153860218822956085205078125">
        <ele>3397.60009765625</ele>
        <time>2026-01-06T15:02:58.000Z</time>
        <extensions>
          <ns3:TrackPointExtension>
            <ns3:hr>121</ns3:hr>
            <ns3:cad>0</ns3:cad>
          </ns3:TrackPointExtension>
        </extensions>
      </trkpt>
      <trkpt lat="37.93979027308523654937744140625" lon="-107.15382560156285762786865234375">
        <ele>3398.39990234375</ele>
        <time>2026-01-06T15:03:03.000Z</time>
        <extensions>
          <ns3:TrackPointExtension>
            <ns3:hr>121</ns3:hr>
            <ns3:cad>0</ns3:cad>
          </ns3:TrackPointExtension>
        </extensions>
      </trkpt>
      <trkpt lat="37.93979094363749027252197265625" lon="-107.15380514971911907196044921875">
        <ele>3398.800048828125</ele>
        <time>2026-01-06T15:03:05.000Z</time>
        <extensions>
          <ns3:TrackPointExtension>
            <ns3:hr>121</ns3:hr>
            <ns3:cad>0</ns3:cad>
          </ns3:TrackPointExtension>
        </extensions>
      </trkpt>
      <trkpt lat="37.93979479931294918060302734375" lon="-107.15379408560693264007568359375">
        <ele>3399.199951171875</ele>
        <time>2026-01-06T15:03:06.000Z</time>
        <extensions>
          <ns3:TrackPointExtension>
            <ns3:hr>122</ns3:hr>
            <ns3:cad>0</ns3:cad>
          </ns3:TrackPointExtension>
        </extensions>
      </trkpt>
      <trkpt lat="37.9397923685610294342041015625" lon="-107.15377916581928730010986328125">
        <ele>3399.39990234375</ele>
        <time>2026-01-06T15:03:08.000Z</time>
        <extensions>
          <ns3:TrackPointExtension>
            <ns3:hr>122</ns3:hr>
            <ns3:cad>0</ns3:cad>
          </ns3:TrackPointExtension>
        </extensions>
      </trkpt>
      <trkpt lat="37.939789183437824249267578125" lon="-107.15375368483364582061767578125">
        <ele>3399.60009765625</ele>
        <time>2026-01-06T15:03:12.000Z</time>
        <extensions>
          <ns3:TrackPointExtension>
            <ns3:hr>122</ns3:hr>
            <ns3:cad>0</ns3:cad>
          </ns3:TrackPointExtension>
        </extensions>
      </trkpt>
      <trkpt lat="37.93978951871395111083984375" lon="-107.1537359990179538726806640625">
        <ele>3400</ele>
        <time>2026-01-06T15:03:14.000Z</time>
        <extensions>
          <ns3:TrackPointExtension>
            <ns3:hr>119</ns3:hr>
            <ns3:cad>0</ns3:cad>
          </ns3:TrackPointExtension>
        </extensions>
      </trkpt>
      <trkpt lat="37.93979194946587085723876953125" lon="-107.153731472790241241455078125">
        <ele>3400.199951171875</ele>
        <time>2026-01-06T15:03:15.000Z</time>
        <extensions>
          <ns3:TrackPointExtension>
            <ns3:hr>116</ns3:hr>
            <ns3:cad>0</ns3:cad>
          </ns3:TrackPointExtension>
        </extensions>
      </trkpt>
      <trkpt lat="37.9397928714752197265625" lon="-107.1537235938012599945068359375">
        <ele>3400.199951171875</ele>
        <time>2026-01-06T15:03:16.000Z</time>
        <extensions>
          <ns3:TrackPointExtension>
            <ns3:hr>116</ns3:hr>
            <ns3:cad>0</ns3:cad>
          </ns3:TrackPointExtension>
        </extensions>
      </trkpt>
      <trkpt lat="37.9397888481616973876953125" lon="-107.15370154939591884613037109375">
        <ele>3401</ele>
        <time>2026-01-06T15:03:19.000Z</time>
        <extensions>
          <ns3:TrackPointExtension>
            <ns3:hr>116</ns3:hr>
            <ns3:cad>0</ns3:cad>
          </ns3:TrackPointExtension>
        </extensions>
      </trkpt>
      <trkpt lat="37.939781807363033294677734375" lon="-107.15365041978657245635986328125">
        <ele>3400.60009765625</ele>
        <time>2026-01-06T15:03:25.000Z</time>
        <extensions>
          <ns3:TrackPointExtension>
            <ns3:hr>114</ns3:hr>
            <ns3:cad>0</ns3:cad>
          </ns3:TrackPointExtension>
        </extensions>
      </trkpt>
      <trkpt lat="37.939776442945003509521484375" lon="-107.15361739508807659149169921875">
        <ele>3401.39990234375</ele>
        <time>2026-01-06T15:03:30.000Z</time>
        <extensions>
          <ns3:TrackPointExtension>
            <ns3:hr>113</ns3:hr>
            <ns3:cad>0</ns3:cad>
          </ns3:TrackPointExtension>
        </extensions>
      </trkpt>
      <trkpt lat="37.93977451510727405548095703125" lon="-107.1535807661712169647216796875">
        <ele>3402.199951171875</ele>
        <time>2026-01-06T15:03:34.000Z</time>
        <extensions>
          <ns3:TrackPointExtension>
            <ns3:hr>114</ns3:hr>
            <ns3:cad>0</ns3:cad>
          </ns3:TrackPointExtension>
        </extensions>
      </trkpt>
      <trkpt lat="37.93977342545986175537109375" lon="-107.153557799756526947021484375">
        <ele>3402.39990234375</ele>
        <time>2026-01-06T15:03:37.000Z</time>
        <extensions>
          <ns3:TrackPointExtension>
            <ns3:hr>113</ns3:hr>
            <ns3:cad>0</ns3:cad>
          </ns3:TrackPointExtension>
        </extensions>
      </trkpt>
      <trkpt lat="37.93977250345051288604736328125" lon="-107.1535098552703857421875">
        <ele>3402.39990234375</ele>
        <time>2026-01-06T15:03:42.000Z</time>
        <extensions>
          <ns3:TrackPointExtension>
            <ns3:hr>111</ns3:hr>
            <ns3:cad>0</ns3:cad>
          </ns3:TrackPointExtension>
        </extensions>
      </trkpt>
      <trkpt lat="37.93977250345051288604736328125" lon="-107.15347766876220703125">
        <ele>3403</ele>
        <time>2026-01-06T15:03:48.000Z</time>
        <extensions>
          <ns3:TrackPointExtension>
            <ns3:hr>111</ns3:hr>
            <ns3:cad>0</ns3:cad>
          </ns3:TrackPointExtension>
        </extensions>
      </trkpt>
      <trkpt lat="37.939771078526973724365234375" lon="-107.15347020886838436126708984375">
        <ele>3403.199951171875</ele>
        <time>2026-01-06T15:03:49.000Z</time>
        <extensions>
          <ns3:TrackPointExtension>
            <ns3:hr>112</ns3:hr>
            <ns3:cad>0</ns3:cad>
          </ns3:TrackPointExtension>
        </extensions>
      </trkpt>
      <trkpt lat="37.93976998887956142425537109375" lon="-107.15344875119626522064208984375">
        <ele>3403.60009765625</ele>
        <time>2026-01-06T15:03:52.000Z</time>
        <extensions>
          <ns3:TrackPointExtension>
            <ns3:hr>115</ns3:hr>
            <ns3:cad>0</ns3:cad>
          </ns3:TrackPointExtension>
        </extensions>
      </trkpt>
      <trkpt lat="37.9397722519934177398681640625" lon="-107.153415977954864501953125">
        <ele>3403.60009765625</ele>
        <time>2026-01-06T15:03:56.000Z</time>
        <extensions>
          <ns3:TrackPointExtension>
            <ns3:hr>116</ns3:hr>
            <ns3:cad>50</ns3:cad>
          </ns3:TrackPointExtension>
        </extensions>
      </trkpt>
      <trkpt lat="37.93978105299174785614013671875" lon="-107.153361998498439788818359375">
        <ele>3404.39990234375</ele>
        <time>2026-01-06T15:04:01.000Z</time>
        <extensions>
          <ns3:TrackPointExtension>
            <ns3:hr>117</ns3:hr>
            <ns3:cad>0</ns3:cad>
          </ns3:TrackPointExtension>
        </extensions>
      </trkpt>
      <trkpt lat="37.93979429639875888824462890625" lon="-107.15331212617456912994384765625">
        <ele>3405.800048828125</ele>
        <time>2026-01-06T15:04:06.000Z</time>
        <extensions>
          <ns3:TrackPointExtension>
            <ns3:hr>115</ns3:hr>
            <ns3:cad>0</ns3:cad>
          </ns3:TrackPointExtension>
        </extensions>
      </trkpt>
      <trkpt lat="37.93979580514132976531982421875" lon="-107.1533068455755710601806640625">
        <ele>3406</ele>
        <time>2026-01-06T15:04:07.000Z</time>
        <extensions>
          <ns3:TrackPointExtension>
            <ns3:hr>115</ns3:hr>
            <ns3:cad>0</ns3:cad>
          </ns3:TrackPointExtension>
        </extensions>
      </trkpt>
      <trkpt lat="37.9397968947887420654296875" lon="-107.15326845645904541015625">
        <ele>3406.199951171875</ele>
        <time>2026-01-06T15:04:12.000Z</time>
        <extensions>
          <ns3:TrackPointExtension>
            <ns3:hr>115</ns3:hr>
            <ns3:cad>0</ns3:cad>
          </ns3:TrackPointExtension>
        </extensions>
      </trkpt>
      <trkpt lat="37.939804606139659881591796875" lon="-107.1532186679542064666748046875">
        <ele>3406.60009765625</ele>
        <time>2026-01-06T15:04:18.000Z</time>
        <extensions>
          <ns3:TrackPointExtension>
            <ns3:hr>115</ns3:hr>
            <ns3:cad>0</ns3:cad>
          </ns3:TrackPointExtension>
        </extensions>
      </trkpt>
      <trkpt lat="37.93980292975902557373046875" lon="-107.15321355499327182769775390625">
        <ele>3406.60009765625</ele>
        <time>2026-01-06T15:04:19.000Z</time>
        <extensions>
          <ns3:TrackPointExtension>
            <ns3:hr>115</ns3:hr>
            <ns3:cad>0</ns3:cad>
          </ns3:TrackPointExtension>
        </extensions>
      </trkpt>
      <trkpt lat="37.93979580514132976531982421875" lon="-107.15317483060061931610107421875">
        <ele>3407</ele>
        <time>2026-01-06T15:04:25.000Z</time>
        <extensions>
          <ns3:TrackPointExtension>
            <ns3:hr>116</ns3:hr>
            <ns3:cad>0</ns3:cad>
          </ns3:TrackPointExtension>
        </extensions>
      </trkpt>
      <trkpt lat="37.9397960565984249114990234375" lon="-107.1531544625759124755859375">
        <ele>3407</ele>
        <time>2026-01-06T15:04:27.000Z</time>
        <extensions>
          <ns3:TrackPointExtension>
            <ns3:hr>116</ns3:hr>
            <ns3:cad>0</ns3:cad>
          </ns3:TrackPointExtension>
        </extensions>
      </trkpt>
      <trkpt lat="37.9397953860461711883544921875" lon="-107.15310073457658290863037109375">
        <ele>3407.39990234375</ele>
        <time>2026-01-06T15:04:33.000Z</time>
        <extensions>
          <ns3:TrackPointExtension>
            <ns3:hr>117</ns3:hr>
            <ns3:cad>0</ns3:cad>
          </ns3:TrackPointExtension>
        </extensions>
      </trkpt>
      <trkpt lat="37.93979228474199771881103515625" lon="-107.15309210121631622314453125">
        <ele>3407.60009765625</ele>
        <time>2026-01-06T15:04:34.000Z</time>
        <extensions>
          <ns3:TrackPointExtension>
            <ns3:hr>117</ns3:hr>
            <ns3:cad>0</ns3:cad>
          </ns3:TrackPointExtension>
        </extensions>
      </trkpt>
      <trkpt lat="37.93978658504784107208251953125" lon="-107.15307324193418025970458984375">
        <ele>3408.199951171875</ele>
        <time>2026-01-06T15:04:37.000Z</time>
        <extensions>
          <ns3:TrackPointExtension>
            <ns3:hr>117</ns3:hr>
            <ns3:cad>77</ns3:cad>
          </ns3:TrackPointExtension>
        </extensions>
      </trkpt>
      <trkpt lat="37.9397883452475070953369140625" lon="-107.15305723249912261962890625">
        <ele>3408.60009765625</ele>
        <time>2026-01-06T15:04:39.000Z</time>
        <extensions>
          <ns3:TrackPointExtension>
            <ns3:hr>116</ns3:hr>
            <ns3:cad>77</ns3:cad>
          </ns3:TrackPointExtension>
        </extensions>
      </trkpt>
      <trkpt lat="37.939792536199092864990234375" lon="-107.15302730910480022430419921875">
        <ele>3409.199951171875</ele>
        <time>2026-01-06T15:04:43.000Z</time>
        <extensions>
          <ns3:TrackPointExtension>
            <ns3:hr>115</ns3:hr>
            <ns3:cad>0</ns3:cad>
          </ns3:TrackPointExtension>
        </extensions>
      </trkpt>
      <trkpt lat="37.93979379348456859588623046875" lon="-107.15302429161965847015380859375">
        <ele>3409.39990234375</ele>
        <time>2026-01-06T15:04:45.000Z</time>
        <extensions>
          <ns3:TrackPointExtension>
            <ns3:hr>115</ns3:hr>
            <ns3:cad>0</ns3:cad>
          </ns3:TrackPointExtension>
        </extensions>
      </trkpt>
      <trkpt lat="37.9398027621209621429443359375" lon="-107.15299109928309917449951171875">
        <ele>3409.39990234375</ele>
        <time>2026-01-06T15:04:49.000Z</time>
        <extensions>
          <ns3:TrackPointExtension>
            <ns3:hr>115</ns3:hr>
            <ns3:cad>0</ns3:cad>
          </ns3:TrackPointExtension>
        </extensions>
      </trkpt>
      <trkpt lat="37.9398108087480068206787109375" lon="-107.15295732021331787109375">
        <ele>3410.199951171875</ele>
        <time>2026-01-06T15:04:54.000Z</time>
        <extensions>
          <ns3:TrackPointExtension>
            <ns3:hr>117</ns3:hr>
            <ns3:cad>0</ns3:cad>
          </ns3:TrackPointExtension>
        </extensions>
      </trkpt>
      <trkpt lat="37.9398121498525142669677734375" lon="-107.1529373712837696075439453125">
        <ele>3410.39990234375</ele>
        <time>2026-01-06T15:04:56.000Z</time>
        <extensions>
          <ns3:TrackPointExtension>
            <ns3:hr>117</ns3:hr>
            <ns3:cad>0</ns3:cad>
          </ns3:TrackPointExtension>
        </extensions>
      </trkpt>
      <trkpt lat="37.93981675989925861358642578125" lon="-107.15289504267275333404541015625">
        <ele>3411</ele>
        <time>2026-01-06T15:05:02.000Z</time>
        <extensions>
          <ns3:TrackPointExtension>
            <ns3:hr>119</ns3:hr>
            <ns3:cad>0</ns3:cad>
          </ns3:TrackPointExtension>
        </extensions>
      </trkpt>
      <trkpt lat="37.93982329778373241424560546875" lon="-107.152870483696460723876953125">
        <ele>3411.39990234375</ele>
        <time>2026-01-06T15:05:04.000Z</time>
        <extensions>
          <ns3:TrackPointExtension>
            <ns3:hr>119</ns3:hr>
            <ns3:cad>69</ns3:cad>
          </ns3:TrackPointExtension>
        </extensions>
      </trkpt>
      <trkpt lat="37.93982162140309810638427734375" lon="-107.15284525416791439056396484375">
        <ele>3411.800048828125</ele>
        <time>2026-01-06T15:05:07.000Z</time>
        <extensions>
          <ns3:TrackPointExtension>
            <ns3:hr>118</ns3:hr>
            <ns3:cad>0</ns3:cad>
          </ns3:TrackPointExtension>
        </extensions>
      </trkpt>
      <trkpt lat="37.939827404916286468505859375" lon="-107.15282781980931758880615234375">
        <ele>3411.800048828125</ele>
        <time>2026-01-06T15:05:09.000Z</time>
        <extensions>
          <ns3:TrackPointExtension>
            <ns3:hr>119</ns3:hr>
            <ns3:cad>0</ns3:cad>
          </ns3:TrackPointExtension>
        </extensions>
      </trkpt>
      <trkpt lat="37.93983721174299716949462890625" lon="-107.15280083008110523223876953125">
        <ele>3412.39990234375</ele>
        <time>2026-01-06T15:05:13.000Z</time>
        <extensions>
          <ns3:TrackPointExtension>
            <ns3:hr>120</ns3:hr>
            <ns3:cad>0</ns3:cad>
          </ns3:TrackPointExtension>
        </extensions>
      </trkpt>
      <trkpt lat="37.93983821757137775421142578125" lon="-107.152796052396297454833984375">
        <ele>3412.39990234375</ele>
        <time>2026-01-06T15:05:14.000Z</time>
        <extensions>
          <ns3:TrackPointExtension>
            <ns3:hr>119</ns3:hr>
            <ns3:cad>0</ns3:cad>
          </ns3:TrackPointExtension>
        </extensions>
      </trkpt>
      <trkpt lat="37.93983620591461658477783203125" lon="-107.15276663191616535186767578125">
        <ele>3413</ele>
        <time>2026-01-06T15:05:20.000Z</time>
        <extensions>
          <ns3:TrackPointExtension>
            <ns3:hr>119</ns3:hr>
            <ns3:cad>0</ns3:cad>
          </ns3:TrackPointExtension>
        </extensions>
      </trkpt>
      <trkpt lat="37.9398389719426631927490234375" lon="-107.152736373245716094970703125">
        <ele>3413.60009765625</ele>
        <time>2026-01-06T15:05:24.000Z</time>
        <extensions>
          <ns3:TrackPointExtension>
            <ns3:hr>118</ns3:hr>
            <ns3:cad>0</ns3:cad>
          </ns3:TrackPointExtension>
        </extensions>
      </trkpt>
      <trkpt lat="37.93984408490359783172607421875" lon="-107.15271793305873870849609375">
        <ele>3413.800048828125</ele>
        <time>2026-01-06T15:05:26.000Z</time>
        <extensions>
          <ns3:TrackPointExtension>
            <ns3:hr>116</ns3:hr>
            <ns3:cad>77</ns3:cad>
          </ns3:TrackPointExtension>
        </extensions>
      </trkpt>
      <trkpt lat="37.9398419894278049468994140625" lon="-107.15266873128712177276611328125">
        <ele>3414.60009765625</ele>
        <time>2026-01-06T15:05:31.000Z</time>
        <extensions>
          <ns3:TrackPointExtension>
            <ns3:hr>115</ns3:hr>
            <ns3:cad>0</ns3:cad>
          </ns3:TrackPointExtension>
        </extensions>
      </trkpt>
      <trkpt lat="37.9398389719426631927490234375" lon="-107.152661941945552825927734375">
        <ele>3414.60009765625</ele>
        <time>2026-01-06T15:05:32.000Z</time>
        <extensions>
          <ns3:TrackPointExtension>
            <ns3:hr>115</ns3:hr>
            <ns3:cad>0</ns3:cad>
          </ns3:TrackPointExtension>
        </extensions>
      </trkpt>
      <trkpt lat="37.93982380069792270660400390625" lon="-107.15262816287577152252197265625">
        <ele>3414.800048828125</ele>
        <time>2026-01-06T15:05:37.000Z</time>
        <extensions>
          <ns3:TrackPointExtension>
            <ns3:hr>116</ns3:hr>
            <ns3:cad>0</ns3:cad>
          </ns3:TrackPointExtension>
        </extensions>
      </trkpt>
      <trkpt lat="37.93981290422379970550537109375" lon="-107.15259195305407047271728515625">
        <ele>3415.800048828125</ele>
        <time>2026-01-06T15:05:42.000Z</time>
        <extensions>
          <ns3:TrackPointExtension>
            <ns3:hr>115</ns3:hr>
            <ns3:cad>0</ns3:cad>
          </ns3:TrackPointExtension>
        </extensions>
      </trkpt>
      <trkpt lat="37.9398124851286411285400390625" lon="-107.15259186923503875732421875">
        <ele>3416</ele>
        <time>2026-01-06T15:05:43.000Z</time>
        <extensions>
          <ns3:TrackPointExtension>
            <ns3:hr>116</ns3:hr>
            <ns3:cad>0</ns3:cad>
          </ns3:TrackPointExtension>
        </extensions>
      </trkpt>
      <trkpt lat="37.9397940449416637420654296875" lon="-107.15255423448979854583740234375">
        <ele>3416</ele>
        <time>2026-01-06T15:05:49.000Z</time>
        <extensions>
          <ns3:TrackPointExtension>
            <ns3:hr>116</ns3:hr>
            <ns3:cad>0</ns3:cad>
          </ns3:TrackPointExtension>
        </extensions>
      </trkpt>
      <trkpt lat="37.93978641740977764129638671875" lon="-107.15253897942602634429931640625">
        <ele>3416.199951171875</ele>
        <time>2026-01-06T15:05:51.000Z</time>
        <extensions>
          <ns3:TrackPointExtension>
            <ns3:hr>117</ns3:hr>
            <ns3:cad>0</ns3:cad>
          </ns3:TrackPointExtension>
        </extensions>
      </trkpt>
      <trkpt lat="37.93977350927889347076416015625" lon="-107.15253126807510852813720703125">
        <ele>3416.800048828125</ele>
        <time>2026-01-06T15:05:55.000Z</time>
        <extensions>
          <ns3:TrackPointExtension>
            <ns3:hr>119</ns3:hr>
            <ns3:cad>77</ns3:cad>
          </ns3:TrackPointExtension>
        </extensions>
      </trkpt>
      <trkpt lat="37.93977283872663974761962890625" lon="-107.15252271853387355804443359375">
        <ele>3417.39990234375</ele>
        <time>2026-01-06T15:05:57.000Z</time>
        <extensions>
          <ns3:TrackPointExtension>
            <ns3:hr>121</ns3:hr>
            <ns3:cad>77</ns3:cad>
          </ns3:TrackPointExtension>
        </extensions>
      </trkpt>
      <trkpt lat="37.93977116234600543975830078125" lon="-107.15249924920499324798583984375">
        <ele>3418.199951171875</ele>
        <time>2026-01-06T15:06:00.000Z</time>
        <extensions>
          <ns3:TrackPointExtension>
            <ns3:hr>122</ns3:hr>
            <ns3:cad>0</ns3:cad>
          </ns3:TrackPointExtension>
        </extensions>
      </trkpt>
      <trkpt lat="37.9397631995379924774169921875" lon="-107.15247259475290775299072265625">
        <ele>3418.800048828125</ele>
        <time>2026-01-06T15:06:03.000Z</time>
        <extensions>
          <ns3:TrackPointExtension>
            <ns3:hr>122</ns3:hr>
            <ns3:cad>0</ns3:cad>
          </ns3:TrackPointExtension>
        </extensions>
      </trkpt>
      <trkpt lat="37.93974350206553936004638671875" lon="-107.15243018232285976409912109375">
        <ele>3419</ele>
        <time>2026-01-06T15:06:09.000Z</time>
        <extensions>
          <ns3:TrackPointExtension>
            <ns3:hr>122</ns3:hr>
            <ns3:cad>0</ns3:cad>
          </ns3:TrackPointExtension>
        </extensions>
      </trkpt>
      <trkpt lat="37.93973478488624095916748046875" lon="-107.15241543017327785491943359375">
        <ele>3418</ele>
        <time>2026-01-06T15:06:15.000Z</time>
        <extensions>
          <ns3:TrackPointExtension>
            <ns3:hr>121</ns3:hr>
            <ns3:cad>0</ns3:cad>
          </ns3:TrackPointExtension>
        </extensions>
      </trkpt>
      <trkpt lat="37.93973478488624095916748046875" lon="-107.15241543017327785491943359375">
        <ele>3418.199951171875</ele>
        <time>2026-01-06T15:06:17.000Z</time>
        <extensions>
          <ns3:TrackPointExtension>
            <ns3:hr>121</ns3:hr>
            <ns3:cad>0</ns3:cad>
          </ns3:TrackPointExtension>
        </extensions>
      </trkpt>
      <trkpt lat="37.93973478488624095916748046875" lon="-107.15241543017327785491943359375">
        <ele>3418.39990234375</ele>
        <time>2026-01-06T15:06:21.000Z</time>
        <extensions>
          <ns3:TrackPointExtension>
            <ns3:hr>115</ns3:hr>
            <ns3:cad>0</ns3:cad>
          </ns3:TrackPointExtension>
        </extensions>
      </trkpt>
      <trkpt lat="37.93973478488624095916748046875" lon="-107.15241543017327785491943359375">
        <ele>3418.39990234375</ele>
        <time>2026-01-06T15:06:22.000Z</time>
        <extensions>
          <ns3:TrackPointExtension>
            <ns3:hr>112</ns3:hr>
            <ns3:cad>0</ns3:cad>
          </ns3:TrackPointExtension>
        </extensions>
      </trkpt>
      <trkpt lat="37.93973478488624095916748046875" lon="-107.15241543017327785491943359375">
        <ele>3418.199951171875</ele>
        <time>2026-01-06T15:06:23.000Z</time>
        <extensions>
          <ns3:TrackPointExtension>
            <ns3:hr>112</ns3:hr>
            <ns3:cad>0</ns3:cad>
          </ns3:TrackPointExtension>
        </extensions>
      </trkpt>
      <trkpt lat="37.93973478488624095916748046875" lon="-107.15241543017327785491943359375">
        <ele>3418.199951171875</ele>
        <time>2026-01-06T15:06:28.000Z</time>
        <extensions>
          <ns3:TrackPointExtension>
            <ns3:hr>112</ns3:hr>
            <ns3:cad>0</ns3:cad>
          </ns3:TrackPointExtension>
        </extensions>
      </trkpt>
      <trkpt lat="37.93973478488624095916748046875" lon="-107.15241543017327785491943359375">
        <ele>3418.39990234375</ele>
        <time>2026-01-06T15:06:33.000Z</time>
        <extensions>
          <ns3:TrackPointExtension>
            <ns3:hr>109</ns3:hr>
            <ns3:cad>0</ns3:cad>
          </ns3:TrackPointExtension>
        </extensions>
      </trkpt>
      <trkpt lat="37.93973478488624095916748046875" lon="-107.15241543017327785491943359375">
        <ele>3418.39990234375</ele>
        <time>2026-01-06T15:06:38.000Z</time>
        <extensions>
          <ns3:TrackPointExtension>
            <ns3:hr>107</ns3:hr>
            <ns3:cad>0</ns3:cad>
          </ns3:TrackPointExtension>
        </extensions>
      </trkpt>
      <trkpt lat="37.93973478488624095916748046875" lon="-107.15241543017327785491943359375">
        <ele>3418.199951171875</ele>
        <time>2026-01-06T15:06:41.000Z</time>
        <extensions>
          <ns3:TrackPointExtension>
            <ns3:hr>104</ns3:hr>
            <ns3:cad>0</ns3:cad>
          </ns3:TrackPointExtension>
        </extensions>
      </trkpt>
      <trkpt lat="37.93973478488624095916748046875" lon="-107.15241543017327785491943359375">
        <ele>3418.39990234375</ele>
        <time>2026-01-06T15:06:46.000Z</time>
        <extensions>
          <ns3:TrackPointExtension>
            <ns3:hr>103</ns3:hr>
            <ns3:cad>0</ns3:cad>
          </ns3:TrackPointExtension>
        </extensions>
      </trkpt>
      <trkpt lat="37.93973478488624095916748046875" lon="-107.15241543017327785491943359375">
        <ele>3418.60009765625</ele>
        <time>2026-01-06T15:06:52.000Z</time>
        <extensions>
          <ns3:TrackPointExtension>
            <ns3:hr>102</ns3:hr>
            <ns3:cad>0</ns3:cad>
          </ns3:TrackPointExtension>
        </extensions>
      </trkpt>
      <trkpt lat="37.93973478488624095916748046875" lon="-107.15241543017327785491943359375">
        <ele>3418.199951171875</ele>
        <time>2026-01-06T15:06:55.000Z</time>
        <extensions>
          <ns3:TrackPointExtension>
            <ns3:hr>94</ns3:hr>
            <ns3:cad>0</ns3:cad>
          </ns3:TrackPointExtension>
        </extensions>
      </trkpt>
      <trkpt lat="37.93973478488624095916748046875" lon="-107.15241543017327785491943359375">
        <ele>3418.199951171875</ele>
        <time>2026-01-06T15:06:56.000Z</time>
        <extensions>
          <ns3:TrackPointExtension>
            <ns3:hr>92</ns3:hr>
            <ns3:cad>0</ns3:cad>
          </ns3:TrackPointExtension>
        </extensions>
      </trkpt>
      <trkpt lat="37.93973478488624095916748046875" lon="-107.15241543017327785491943359375">
        <ele>3417.800048828125</ele>
        <time>2026-01-06T15:07:02.000Z</time>
        <extensions>
          <ns3:TrackPointExtension>
            <ns3:hr>94</ns3:hr>
            <ns3:cad>0</ns3:cad>
          </ns3:TrackPointExtension>
        </extensions>
      </trkpt>
      <trkpt lat="37.93973478488624095916748046875" lon="-107.15241543017327785491943359375">
        <ele>3418.39990234375</ele>
        <time>2026-01-06T15:07:07.000Z</time>
        <extensions>
          <ns3:TrackPointExtension>
            <ns3:hr>93</ns3:hr>
            <ns3:cad>0</ns3:cad>
          </ns3:TrackPointExtension>
        </extensions>
      </trkpt>
      <trkpt lat="37.93973478488624095916748046875" lon="-107.15241543017327785491943359375">
        <ele>3418.60009765625</ele>
        <time>2026-01-06T15:07:11.000Z</time>
        <extensions>
          <ns3:TrackPointExtension>
            <ns3:hr>90</ns3:hr>
            <ns3:cad>0</ns3:cad>
          </ns3:TrackPointExtension>
        </extensions>
      </trkpt>
      <trkpt lat="37.93974132277071475982666015625" lon="-107.15242112986743450164794921875">
        <ele>3418.60009765625</ele>
        <time>2026-01-06T15:07:14.000Z</time>
        <extensions>
          <ns3:TrackPointExtension>
            <ns3:hr>90</ns3:hr>
            <ns3:cad>0</ns3:cad>
          </ns3:TrackPointExtension>
        </extensions>
      </trkpt>
      <trkpt lat="37.93973478488624095916748046875" lon="-107.15241543017327785491943359375">
        <ele>3418.199951171875</ele>
        <time>2026-01-06T15:07:20.000Z</time>
        <extensions>
          <ns3:TrackPointExtension>
            <ns3:hr>89</ns3:hr>
            <ns3:cad>0</ns3:cad>
          </ns3:TrackPointExtension>
        </extensions>
      </trkpt>
      <trkpt lat="37.93974123895168304443359375" lon="-107.15242498554289340972900390625">
        <ele>3418.199951171875</ele>
        <time>2026-01-06T15:07:26.000Z</time>
        <extensions>
          <ns3:TrackPointExtension>
            <ns3:hr>91</ns3:hr>
            <ns3:cad>0</ns3:cad>
          </ns3:TrackPointExtension>
        </extensions>
      </trkpt>
      <trkpt lat="37.93974417261779308319091796875" lon="-107.15242498554289340972900390625">
        <ele>3417.800048828125</ele>
        <time>2026-01-06T15:07:32.000Z</time>
        <extensions>
          <ns3:TrackPointExtension>
            <ns3:hr>91</ns3:hr>
            <ns3:cad>0</ns3:cad>
          </ns3:TrackPointExtension>
        </extensions>
      </trkpt>
      <trkpt lat="37.93974417261779308319091796875" lon="-107.15242498554289340972900390625">
        <ele>3417.60009765625</ele>
        <time>2026-01-06T15:07:34.000Z</time>
        <extensions>
          <ns3:TrackPointExtension>
            <ns3:hr>91</ns3:hr>
            <ns3:cad>0</ns3:cad>
          </ns3:TrackPointExtension>
        </extensions>
      </trkpt>
      <trkpt lat="37.93974417261779308319091796875" lon="-107.15242498554289340972900390625">
        <ele>3418</ele>
        <time>2026-01-06T15:07:40.000Z</time>
        <extensions>
          <ns3:TrackPointExtension>
            <ns3:hr>90</ns3:hr>
            <ns3:cad>0</ns3:cad>
          </ns3:TrackPointExtension>
        </extensions>
      </trkpt>
      <trkpt lat="37.93974417261779308319091796875" lon="-107.15242498554289340972900390625">
        <ele>3417.800048828125</ele>
        <time>2026-01-06T15:07:44.000Z</time>
        <extensions>
          <ns3:TrackPointExtension>
            <ns3:hr>88</ns3:hr>
            <ns3:cad>0</ns3:cad>
          </ns3:TrackPointExtension>
        </extensions>
      </trkpt>
      <trkpt lat="37.93974417261779308319091796875" lon="-107.15242498554289340972900390625">
        <ele>3417.60009765625</ele>
        <time>2026-01-06T15:07:50.000Z</time>
        <extensions>
          <ns3:TrackPointExtension>
            <ns3:hr>87</ns3:hr>
            <ns3:cad>0</ns3:cad>
          </ns3:TrackPointExtension>
        </extensions>
      </trkpt>
      <trkpt lat="37.93974417261779308319091796875" lon="-107.15242498554289340972900390625">
        <ele>3417.39990234375</ele>
        <time>2026-01-06T15:07:56.000Z</time>
        <extensions>
          <ns3:TrackPointExtension>
            <ns3:hr>87</ns3:hr>
            <ns3:cad>0</ns3:cad>
          </ns3:TrackPointExtension>
        </extensions>
      </trkpt>
      <trkpt lat="37.93974149040877819061279296875" lon="-107.15241962112486362457275390625">
        <ele>3417.60009765625</ele>
        <time>2026-01-06T15:08:00.000Z</time>
        <extensions>
          <ns3:TrackPointExtension>
            <ns3:hr>85</ns3:hr>
            <ns3:cad>0</ns3:cad>
          </ns3:TrackPointExtension>
        </extensions>
      </trkpt>
      <trkpt lat="37.93974417261779308319091796875" lon="-107.15242498554289340972900390625">
        <ele>3417.800048828125</ele>
        <time>2026-01-06T15:08:06.000Z</time>
        <extensions>
          <ns3:TrackPointExtension>
            <ns3:hr>87</ns3:hr>
            <ns3:cad>0</ns3:cad>
          </ns3:TrackPointExtension>
        </extensions>
      </trkpt>
      <trkpt lat="37.93974417261779308319091796875" lon="-107.15242498554289340972900390625">
        <ele>3417.800048828125</ele>
        <time>2026-01-06T15:08:07.000Z</time>
        <extensions>
          <ns3:TrackPointExtension>
            <ns3:hr>86</ns3:hr>
            <ns3:cad>0</ns3:cad>
          </ns3:TrackPointExtension>
        </extensions>
      </trkpt>
      <trkpt lat="37.93974417261779308319091796875" lon="-107.15242498554289340972900390625">
        <ele>3417.60009765625</ele>
        <time>2026-01-06T15:08:13.000Z</time>
        <extensions>
          <ns3:TrackPointExtension>
            <ns3:hr>84</ns3:hr>
            <ns3:cad>0</ns3:cad>
          </ns3:TrackPointExtension>
        </extensions>
      </trkpt>
      <trkpt lat="37.93974417261779308319091796875" lon="-107.15242498554289340972900390625">
        <ele>3417.800048828125</ele>
        <time>2026-01-06T15:08:16.000Z</time>
        <extensions>
          <ns3:TrackPointExtension>
            <ns3:hr>83</ns3:hr>
            <ns3:cad>0</ns3:cad>
          </ns3:TrackPointExtension>
        </extensions>
      </trkpt>
      <trkpt lat="37.93974417261779308319091796875" lon="-107.15242498554289340972900390625">
        <ele>3418.199951171875</ele>
        <time>2026-01-06T15:08:22.000Z</time>
        <extensions>
          <ns3:TrackPointExtension>
            <ns3:hr>83</ns3:hr>
            <ns3:cad>0</ns3:cad>
          </ns3:TrackPointExtension>
        </extensions>
      </trkpt>
      <trkpt lat="37.93974417261779308319091796875" lon="-107.15242498554289340972900390625">
        <ele>3418.199951171875</ele>
        <time>2026-01-06T15:08:24.000Z</time>
        <extensions>
          <ns3:TrackPointExtension>
            <ns3:hr>83</ns3:hr>
            <ns3:cad>0</ns3:cad>
          </ns3:TrackPointExtension>
        </extensions>
      </trkpt>
      <trkpt lat="37.93974417261779308319091796875" lon="-107.15242498554289340972900390625">
        <ele>3417.39990234375</ele>
        <time>2026-01-06T15:08:30.000Z</time>
        <extensions>
          <ns3:TrackPointExtension>
            <ns3:hr>83</ns3:hr>
            <ns3:cad>0</ns3:cad>
          </ns3:TrackPointExtension>
        </extensions>
      </trkpt>
      <trkpt lat="37.93974417261779308319091796875" lon="-107.15242498554289340972900390625">
        <ele>3417</ele>
        <time>2026-01-06T15:08:32.000Z</time>
        <extensions>
          <ns3:TrackPointExtension>
            <ns3:hr>83</ns3:hr>
            <ns3:cad>0</ns3:cad>
          </ns3:TrackPointExtension>
        </extensions>
      </trkpt>
      <trkpt lat="37.93974417261779308319091796875" lon="-107.15242498554289340972900390625">
        <ele>3417.199951171875</ele>
        <time>2026-01-06T15:08:38.000Z</time>
        <extensions>
          <ns3:TrackPointExtension>
            <ns3:hr>84</ns3:hr>
            <ns3:cad>0</ns3:cad>
          </ns3:TrackPointExtension>
        </extensions>
      </trkpt>
      <trkpt lat="37.93974417261779308319091796875" lon="-107.15242498554289340972900390625">
        <ele>3417.199951171875</ele>
        <time>2026-01-06T15:08:39.000Z</time>
        <extensions>
          <ns3:TrackPointExtension>
            <ns3:hr>84</ns3:hr>
            <ns3:cad>0</ns3:cad>
          </ns3:TrackPointExtension>
        </extensions>
      </trkpt>
      <trkpt lat="37.93974417261779308319091796875" lon="-107.15242498554289340972900390625">
        <ele>3418</ele>
        <time>2026-01-06T15:08:44.000Z</time>
        <extensions>
          <ns3:TrackPointExtension>
            <ns3:hr>86</ns3:hr>
            <ns3:cad>0</ns3:cad>
          </ns3:TrackPointExtension>
        </extensions>
      </trkpt>
      <trkpt lat="37.93974417261779308319091796875" lon="-107.15242498554289340972900390625">
        <ele>3417.800048828125</ele>
        <time>2026-01-06T15:08:47.000Z</time>
        <extensions>
          <ns3:TrackPointExtension>
            <ns3:hr>89</ns3:hr>
            <ns3:cad>0</ns3:cad>
          </ns3:TrackPointExtension>
        </extensions>
      </trkpt>
      <trkpt lat="37.93974417261779308319091796875" lon="-107.15242498554289340972900390625">
        <ele>3417.60009765625</ele>
        <time>2026-01-06T15:08:51.000Z</time>
        <extensions>
          <ns3:TrackPointExtension>
            <ns3:hr>91</ns3:hr>
            <ns3:cad>0</ns3:cad>
          </ns3:TrackPointExtension>
        </extensions>
      </trkpt>
      <trkpt lat="37.93974417261779308319091796875" lon="-107.15242498554289340972900390625">
        <ele>3417.39990234375</ele>
        <time>2026-01-06T15:08:57.000Z</time>
        <extensions>
          <ns3:TrackPointExtension>
            <ns3:hr>93</ns3:hr>
            <ns3:cad>0</ns3:cad>
          </ns3:TrackPointExtension>
        </extensions>
      </trkpt>
      <trkpt lat="37.93974417261779308319091796875" lon="-107.15242498554289340972900390625">
        <ele>3417.60009765625</ele>
        <time>2026-01-06T15:09:01.000Z</time>
        <extensions>
          <ns3:TrackPointExtension>
            <ns3:hr>93</ns3:hr>
            <ns3:cad>0</ns3:cad>
          </ns3:TrackPointExtension>
        </extensions>
      </trkpt>
      <trkpt lat="37.93974417261779308319091796875" lon="-107.15242498554289340972900390625">
        <ele>3417.800048828125</ele>
        <time>2026-01-06T15:09:06.000Z</time>
        <extensions>
          <ns3:TrackPointExtension>
            <ns3:hr>90</ns3:hr>
            <ns3:cad>0</ns3:cad>
          </ns3:TrackPointExtension>
        </extensions>
      </trkpt>
      <trkpt lat="37.93973461724817752838134765625" lon="-107.1524106524884700775146484375">
        <ele>3417.800048828125</ele>
        <time>2026-01-06T15:09:09.000Z</time>
        <extensions>
          <ns3:TrackPointExtension>
            <ns3:hr>87</ns3:hr>
            <ns3:cad>0</ns3:cad>
          </ns3:TrackPointExtension>
        </extensions>
      </trkpt>
      <trkpt lat="37.939725816249847412109375" lon="-107.152373604476451873779296875">
        <ele>3418.39990234375</ele>
        <time>2026-01-06T15:09:12.000Z</time>
        <extensions>
          <ns3:TrackPointExtension>
            <ns3:hr>84</ns3:hr>
            <ns3:cad>0</ns3:cad>
          </ns3:TrackPointExtension>
        </extensions>
      </trkpt>
      <trkpt lat="37.93972707353532314300537109375" lon="-107.15233446098864078521728515625">
        <ele>3418.800048828125</ele>
        <time>2026-01-06T15:09:15.000Z</time>
        <extensions>
          <ns3:TrackPointExtension>
            <ns3:hr>84</ns3:hr>
            <ns3:cad>0</ns3:cad>
          </ns3:TrackPointExtension>
        </extensions>
      </trkpt>
      <trkpt lat="37.93972380459308624267578125" lon="-107.152317948639392852783203125">
        <ele>3419.199951171875</ele>
        <time>2026-01-06T15:09:16.000Z</time>
        <extensions>
          <ns3:TrackPointExtension>
            <ns3:hr>85</ns3:hr>
            <ns3:cad>0</ns3:cad>
          </ns3:TrackPointExtension>
        </extensions>
      </trkpt>
      <trkpt lat="37.93972036801278591156005859375" lon="-107.1522638015449047088623046875">
        <ele>3419.60009765625</ele>
        <time>2026-01-06T15:09:20.000Z</time>
        <extensions>
          <ns3:TrackPointExtension>
            <ns3:hr>88</ns3:hr>
            <ns3:cad>56</ns3:cad>
          </ns3:TrackPointExtension>
        </extensions>
      </trkpt>
      <trkpt lat="37.93972053565084934234619140625" lon="-107.152241170406341552734375">
        <ele>3419.39990234375</ele>
        <time>2026-01-06T15:09:22.000Z</time>
        <extensions>
          <ns3:TrackPointExtension>
            <ns3:hr>89</ns3:hr>
            <ns3:cad>55</ns3:cad>
          </ns3:TrackPointExtension>
        </extensions>
      </trkpt>
      <trkpt lat="37.9397256486117839813232421875" lon="-107.15216581709682941436767578125">
        <ele>3419</ele>
        <time>2026-01-06T15:09:28.000Z</time>
        <extensions>
          <ns3:TrackPointExtension>
            <ns3:hr>91</ns3:hr>
            <ns3:cad>55</ns3:cad>
          </ns3:TrackPointExtension>
        </extensions>
      </trkpt>
      <trkpt lat="37.9397256486117839813232421875" lon="-107.1521602012217044830322265625">
        <ele>3419.199951171875</ele>
        <time>2026-01-06T15:09:29.000Z</time>
        <extensions>
          <ns3:TrackPointExtension>
            <ns3:hr>92</ns3:hr>
            <ns3:cad>55</ns3:cad>
          </ns3:TrackPointExtension>
        </extensions>
      </trkpt>
      <trkpt lat="37.93972657062113285064697265625" lon="-107.15211669914424419403076171875">
        <ele>3420.39990234375</ele>
        <time>2026-01-06T15:09:33.000Z</time>
        <extensions>
          <ns3:TrackPointExtension>
            <ns3:hr>95</ns3:hr>
            <ns3:cad>52</ns3:cad>
          </ns3:TrackPointExtension>
        </extensions>
      </trkpt>
      <trkpt lat="37.9397271573543548583984375" lon="-107.15208828449249267578125">
        <ele>3421</ele>
        <time>2026-01-06T15:09:35.000Z</time>
        <extensions>
          <ns3:TrackPointExtension>
            <ns3:hr>96</ns3:hr>
            <ns3:cad>52</ns3:cad>
          </ns3:TrackPointExtension>
        </extensions>
      </trkpt>
      <trkpt lat="37.9397310130298137664794921875" lon="-107.15206146240234375">
        <ele>3421.60009765625</ele>
        <time>2026-01-06T15:09:37.000Z</time>
        <extensions>
          <ns3:TrackPointExtension>
            <ns3:hr>97</ns3:hr>
            <ns3:cad>52</ns3:cad>
          </ns3:TrackPointExtension>
        </extensions>
      </trkpt>
      <trkpt lat="37.93974115513265132904052734375" lon="-107.15202198363840579986572265625">
        <ele>3421.800048828125</ele>
        <time>2026-01-06T15:09:41.000Z</time>
        <extensions>
          <ns3:TrackPointExtension>
            <ns3:hr>98</ns3:hr>
            <ns3:cad>0</ns3:cad>
          </ns3:TrackPointExtension>
        </extensions>
      </trkpt>
      <trkpt lat="37.93974928557872772216796875" lon="-107.1520056389272212982177734375">
        <ele>3422.39990234375</ele>
        <time>2026-01-06T15:09:45.000Z</time>
        <extensions>
          <ns3:TrackPointExtension>
            <ns3:hr>95</ns3:hr>
            <ns3:cad>0</ns3:cad>
          </ns3:TrackPointExtension>
        </extensions>
      </trkpt>
      <trkpt lat="37.939754985272884368896484375" lon="-107.15199314989149570465087890625">
        <ele>3423</ele>
        <time>2026-01-06T15:09:47.000Z</time>
        <extensions>
          <ns3:TrackPointExtension>
            <ns3:hr>95</ns3:hr>
            <ns3:cad>0</ns3:cad>
          </ns3:TrackPointExtension>
        </extensions>
      </trkpt>
      <trkpt lat="37.93977015651762485504150390625" lon="-107.15193363837897777557373046875">
        <ele>3423.60009765625</ele>
        <time>2026-01-06T15:09:53.000Z</time>
        <extensions>
          <ns3:TrackPointExtension>
            <ns3:hr>96</ns3:hr>
            <ns3:cad>0</ns3:cad>
          </ns3:TrackPointExtension>
        </extensions>
      </trkpt>
      <trkpt lat="37.93976940214633941650390625" lon="-107.15190631337463855743408203125">
        <ele>3424</ele>
        <time>2026-01-06T15:09:56.000Z</time>
        <extensions>
          <ns3:TrackPointExtension>
            <ns3:hr>96</ns3:hr>
            <ns3:cad>61</ns3:cad>
          </ns3:TrackPointExtension>
        </extensions>
      </trkpt>
      <trkpt lat="37.93976998887956142425537109375" lon="-107.15187714435160160064697265625">
        <ele>3424.60009765625</ele>
        <time>2026-01-06T15:09:59.000Z</time>
        <extensions>
          <ns3:TrackPointExtension>
            <ns3:hr>97</ns3:hr>
            <ns3:cad>61</ns3:cad>
          </ns3:TrackPointExtension>
        </extensions>
      </trkpt>
      <trkpt lat="37.939761690795421600341796875" lon="-107.15181629173457622528076171875">
        <ele>3424</ele>
        <time>2026-01-06T15:10:05.000Z</time>
        <extensions>
          <ns3:TrackPointExtension>
            <ns3:hr>98</ns3:hr>
            <ns3:cad>0</ns3:cad>
          </ns3:TrackPointExtension>
        </extensions>
      </trkpt>
      <trkpt lat="37.93973159976303577423095703125" lon="-107.15175577439367771148681640625">
        <ele>3424.60009765625</ele>
        <time>2026-01-06T15:10:11.000Z</time>
        <extensions>
          <ns3:TrackPointExtension>
            <ns3:hr>96</ns3:hr>
            <ns3:cad>0</ns3:cad>
          </ns3:TrackPointExtension>
        </extensions>
      </trkpt>
      <trkpt lat="37.93972925283014774322509765625" lon="-107.15169123373925685882568359375">
        <ele>3425.199951171875</ele>
        <time>2026-01-06T15:10:17.000Z</time>
        <extensions>
          <ns3:TrackPointExtension>
            <ns3:hr>96</ns3:hr>
            <ns3:cad>0</ns3:cad>
          </ns3:TrackPointExtension>
        </extensions>
      </trkpt>
      <trkpt lat="37.93974333442747592926025390625" lon="-107.15163423679769039154052734375">
        <ele>3425.800048828125</ele>
        <time>2026-01-06T15:10:23.000Z</time>
        <extensions>
          <ns3:TrackPointExtension>
            <ns3:hr>97</ns3:hr>
            <ns3:cad>45</ns3:cad>
          </ns3:TrackPointExtension>
        </extensions>
      </trkpt>
      <trkpt lat="37.93974651955068111419677734375" lon="-107.1516160480678081512451171875">
        <ele>3426</ele>
        <time>2026-01-06T15:10:25.000Z</time>
        <extensions>
          <ns3:TrackPointExtension>
            <ns3:hr>102</ns3:hr>
            <ns3:cad>45</ns3:cad>
          </ns3:TrackPointExtension>
        </extensions>
      </trkpt>
      <trkpt lat="37.9397454299032688140869140625" lon="-107.15160213410854339599609375">
        <ele>3426</ele>
        <time>2026-01-06T15:10:27.000Z</time>
        <extensions>
          <ns3:TrackPointExtension>
            <ns3:hr>106</ns3:hr>
            <ns3:cad>0</ns3:cad>
          </ns3:TrackPointExtension>
        </extensions>
      </trkpt>
      <trkpt lat="37.93975054286420345306396484375" lon="-107.15158243663609027862548828125">
        <ele>3426.199951171875</ele>
        <time>2026-01-06T15:10:29.000Z</time>
        <extensions>
          <ns3:TrackPointExtension>
            <ns3:hr>109</ns3:hr>
            <ns3:cad>0</ns3:cad>
          </ns3:TrackPointExtension>
        </extensions>
      </trkpt>
      <trkpt lat="37.93975205160677433013916015625" lon="-107.15157330036163330078125">
        <ele>3426.199951171875</ele>
        <time>2026-01-06T15:10:30.000Z</time>
        <extensions>
          <ns3:TrackPointExtension>
            <ns3:hr>109</ns3:hr>
            <ns3:cad>0</ns3:cad>
          </ns3:TrackPointExtension>
        </extensions>
      </trkpt>
      <trkpt lat="37.9397719167172908782958984375" lon="-107.15154471807181835174560546875">
        <ele>3427.199951171875</ele>
        <time>2026-01-06T15:10:35.000Z</time>
        <extensions>
          <ns3:TrackPointExtension>
            <ns3:hr>109</ns3:hr>
            <ns3:cad>0</ns3:cad>
          </ns3:TrackPointExtension>
        </extensions>
      </trkpt>
      <trkpt lat="37.9397739283740520477294921875" lon="-107.15153868310153484344482421875">
        <ele>3427.39990234375</ele>
        <time>2026-01-06T15:10:36.000Z</time>
        <extensions>
          <ns3:TrackPointExtension>
            <ns3:hr>108</ns3:hr>
            <ns3:cad>0</ns3:cad>
          </ns3:TrackPointExtension>
        </extensions>
      </trkpt>
      <trkpt lat="37.9397953860461711883544921875" lon="-107.1515087597072124481201171875">
        <ele>3428</ele>
        <time>2026-01-06T15:10:40.000Z</time>
        <extensions>
          <ns3:TrackPointExtension>
            <ns3:hr>108</ns3:hr>
            <ns3:cad>0</ns3:cad>
          </ns3:TrackPointExtension>
        </extensions>
      </trkpt>
      <trkpt lat="37.93979798443615436553955078125" lon="-107.15148453600704669952392578125">
        <ele>3428.60009765625</ele>
        <time>2026-01-06T15:10:43.000Z</time>
        <extensions>
          <ns3:TrackPointExtension>
            <ns3:hr>109</ns3:hr>
            <ns3:cad>0</ns3:cad>
          </ns3:TrackPointExtension>
        </extensions>
      </trkpt>
      <trkpt lat="37.9397900216281414031982421875" lon="-107.15146156959235668182373046875">
        <ele>3429</ele>
        <time>2026-01-06T15:10:46.000Z</time>
        <extensions>
          <ns3:TrackPointExtension>
            <ns3:hr>109</ns3:hr>
            <ns3:cad>0</ns3:cad>
          </ns3:TrackPointExtension>
        </extensions>
      </trkpt>
      <trkpt lat="37.93978977017104625701904296875" lon="-107.15141328983008861541748046875">
        <ele>3429.60009765625</ele>
        <time>2026-01-06T15:10:51.000Z</time>
        <extensions>
          <ns3:TrackPointExtension>
            <ns3:hr>108</ns3:hr>
            <ns3:cad>0</ns3:cad>
          </ns3:TrackPointExtension>
        </extensions>
      </trkpt>
      <trkpt lat="37.9397886805236339569091796875" lon="-107.1514078415930271148681640625">
        <ele>3429.800048828125</ele>
        <time>2026-01-06T15:10:52.000Z</time>
        <extensions>
          <ns3:TrackPointExtension>
            <ns3:hr>107</ns3:hr>
            <ns3:cad>0</ns3:cad>
          </ns3:TrackPointExtension>
        </extensions>
      </trkpt>
      <trkpt lat="37.93979245238006114959716796875" lon="-107.15137372724711894989013671875">
        <ele>3430.199951171875</ele>
        <time>2026-01-06T15:10:57.000Z</time>
        <extensions>
          <ns3:TrackPointExtension>
            <ns3:hr>106</ns3:hr>
            <ns3:cad>0</ns3:cad>
          </ns3:TrackPointExtension>
        </extensions>
      </trkpt>
      <trkpt lat="37.9398047737777233123779296875" lon="-107.15133299119770526885986328125">
        <ele>3430.39990234375</ele>
        <time>2026-01-06T15:11:01.000Z</time>
        <extensions>
          <ns3:TrackPointExtension>
            <ns3:hr>101</ns3:hr>
            <ns3:cad>0</ns3:cad>
          </ns3:TrackPointExtension>
        </extensions>
      </trkpt>
      <trkpt lat="37.93980552814900875091552734375" lon="-107.1513303928077220916748046875">
        <ele>3430.39990234375</ele>
        <time>2026-01-06T15:11:02.000Z</time>
        <extensions>
          <ns3:TrackPointExtension>
            <ns3:hr>100</ns3:hr>
            <ns3:cad>0</ns3:cad>
          </ns3:TrackPointExtension>
        </extensions>
      </trkpt>
      <trkpt lat="37.93980837799608707427978515625" lon="-107.15126861818134784698486328125">
        <ele>3430.60009765625</ele>
        <time>2026-01-06T15:11:08.000Z</time>
        <extensions>
          <ns3:TrackPointExtension>
            <ns3:hr>98</ns3:hr>
            <ns3:cad>0</ns3:cad>
          </ns3:TrackPointExtension>
        </extensions>
      </trkpt>
      <trkpt lat="37.93980829417705535888671875" lon="-107.15126685798168182373046875">
        <ele>3431</ele>
        <time>2026-01-06T15:11:09.000Z</time>
        <extensions>
          <ns3:TrackPointExtension>
            <ns3:hr>97</ns3:hr>
            <ns3:cad>0</ns3:cad>
          </ns3:TrackPointExtension>
        </extensions>
      </trkpt>
      <trkpt lat="37.939809300005435943603515625" lon="-107.15122771449387073516845703125">
        <ele>3431.800048828125</ele>
        <time>2026-01-06T15:11:13.000Z</time>
        <extensions>
          <ns3:TrackPointExtension>
            <ns3:hr>95</ns3:hr>
            <ns3:cad>47</ns3:cad>
          </ns3:TrackPointExtension>
        </extensions>
      </trkpt>
      <trkpt lat="37.93980653397738933563232421875" lon="-107.1512194164097309112548828125">
        <ele>3432</ele>
        <time>2026-01-06T15:11:14.000Z</time>
        <extensions>
          <ns3:TrackPointExtension>
            <ns3:hr>95</ns3:hr>
            <ns3:cad>47</ns3:cad>
          </ns3:TrackPointExtension>
        </extensions>
      </trkpt>
      <trkpt lat="37.939807288348674774169921875" lon="-107.1511815302073955535888671875">
        <ele>3432.39990234375</ele>
        <time>2026-01-06T15:11:19.000Z</time>
        <extensions>
          <ns3:TrackPointExtension>
            <ns3:hr>94</ns3:hr>
            <ns3:cad>0</ns3:cad>
          </ns3:TrackPointExtension>
        </extensions>
      </trkpt>
      <trkpt lat="37.9398124851286411285400390625" lon="-107.1511272154748439788818359375">
        <ele>3432.199951171875</ele>
        <time>2026-01-06T15:11:24.000Z</time>
        <extensions>
          <ns3:TrackPointExtension>
            <ns3:hr>94</ns3:hr>
            <ns3:cad>0</ns3:cad>
          </ns3:TrackPointExtension>
        </extensions>
      </trkpt>
      <trkpt lat="37.93980971910059452056884765625" lon="-107.15108019299805164337158203125">
        <ele>3432.800048828125</ele>
        <time>2026-01-06T15:11:28.000Z</time>
        <extensions>
          <ns3:TrackPointExtension>
            <ns3:hr>94</ns3:hr>
            <ns3:cad>0</ns3:cad>
          </ns3:TrackPointExtension>
        </extensions>
      </trkpt>
      <trkpt lat="37.93981022201478481292724609375" lon="-107.15104029513895511627197265625">
        <ele>3433.800048828125</ele>
        <time>2026-01-06T15:11:33.000Z</time>
        <extensions>
          <ns3:TrackPointExtension>
            <ns3:hr>95</ns3:hr>
            <ns3:cad>0</ns3:cad>
          </ns3:TrackPointExtension>
        </extensions>
      </trkpt>
      <trkpt lat="37.93981055729091167449951171875" lon="-107.1510333381593227386474609375">
        <ele>3434</ele>
        <time>2026-01-06T15:11:34.000Z</time>
        <extensions>
          <ns3:TrackPointExtension>
            <ns3:hr>95</ns3:hr>
            <ns3:cad>0</ns3:cad>
          </ns3:TrackPointExtension>
        </extensions>
      </trkpt>
      <trkpt lat="37.9398238845169544219970703125" lon="-107.1509907580912113189697265625">
        <ele>3434.39990234375</ele>
        <time>2026-01-06T15:11:40.000Z</time>
        <extensions>
          <ns3:TrackPointExtension>
            <ns3:hr>94</ns3:hr>
            <ns3:cad>0</ns3:cad>
          </ns3:TrackPointExtension>
        </extensions>
      </trkpt>
      <trkpt lat="37.9398416541516780853271484375" lon="-107.15096301399171352386474609375">
        <ele>3435</ele>
        <time>2026-01-06T15:11:45.000Z</time>
        <extensions>
          <ns3:TrackPointExtension>
            <ns3:hr>95</ns3:hr>
            <ns3:cad>43</ns3:cad>
          </ns3:TrackPointExtension>
        </extensions>
      </trkpt>
      <trkpt lat="37.9398433305323123931884765625" lon="-107.150956057012081146240234375">
        <ele>3435.199951171875</ele>
        <time>2026-01-06T15:11:46.000Z</time>
        <extensions>
          <ns3:TrackPointExtension>
            <ns3:hr>94</ns3:hr>
            <ns3:cad>43</ns3:cad>
          </ns3:TrackPointExtension>
        </extensions>
      </trkpt>
      <trkpt lat="37.93985682539641857147216796875" lon="-107.1509260497987270355224609375">
        <ele>3436.199951171875</ele>
        <time>2026-01-06T15:11:51.000Z</time>
        <extensions>
          <ns3:TrackPointExtension>
            <ns3:hr>95</ns3:hr>
            <ns3:cad>0</ns3:cad>
          </ns3:TrackPointExtension>
        </extensions>
      </trkpt>
      <trkpt lat="37.9398564063012599945068359375" lon="-107.15090475976467132568359375">
        <ele>3436.39990234375</ele>
        <time>2026-01-06T15:11:53.000Z</time>
        <extensions>
          <ns3:TrackPointExtension>
            <ns3:hr>99</ns3:hr>
            <ns3:cad>0</ns3:cad>
          </ns3:TrackPointExtension>
        </extensions>
      </trkpt>
      <trkpt lat="37.9398604296147823333740234375" lon="-107.15089227072894573211669921875">
        <ele>3436.800048828125</ele>
        <time>2026-01-06T15:11:54.000Z</time>
        <extensions>
          <ns3:TrackPointExtension>
            <ns3:hr>106</ns3:hr>
            <ns3:cad>0</ns3:cad>
          </ns3:TrackPointExtension>
        </extensions>
      </trkpt>
      <trkpt lat="37.93985900469124317169189453125" lon="-107.15088774450123310089111328125">
        <ele>3437</ele>
        <time>2026-01-06T15:11:55.000Z</time>
        <extensions>
          <ns3:TrackPointExtension>
            <ns3:hr>110</ns3:hr>
            <ns3:cad>0</ns3:cad>
          </ns3:TrackPointExtension>
        </extensions>
      </trkpt>
      <trkpt lat="37.9398587532341480255126953125" lon="-107.1508777700364589691162109375">
        <ele>3437.199951171875</ele>
        <time>2026-01-06T15:11:56.000Z</time>
        <extensions>
          <ns3:TrackPointExtension>
            <ns3:hr>112</ns3:hr>
            <ns3:cad>0</ns3:cad>
          </ns3:TrackPointExtension>
        </extensions>
      </trkpt>
      <trkpt lat="37.93985732831060886383056640625" lon="-107.1508673764765262603759765625">
        <ele>3437.60009765625</ele>
        <time>2026-01-06T15:11:57.000Z</time>
        <extensions>
          <ns3:TrackPointExtension>
            <ns3:hr>115</ns3:hr>
            <ns3:cad>0</ns3:cad>
          </ns3:TrackPointExtension>
        </extensions>
      </trkpt>
      <trkpt lat="37.9398637823760509490966796875" lon="-107.15081029571592807769775390625">
        <ele>3437.800048828125</ele>
        <time>2026-01-06T15:12:03.000Z</time>
        <extensions>
          <ns3:TrackPointExtension>
            <ns3:hr>116</ns3:hr>
            <ns3:cad>0</ns3:cad>
          </ns3:TrackPointExtension>
        </extensions>
      </trkpt>
      <trkpt lat="37.93987124226987361907958984375" lon="-107.1507646143436431884765625">
        <ele>3438</ele>
        <time>2026-01-06T15:12:09.000Z</time>
        <extensions>
          <ns3:TrackPointExtension>
            <ns3:hr>116</ns3:hr>
            <ns3:cad>0</ns3:cad>
          </ns3:TrackPointExtension>
        </extensions>
      </trkpt>
      <trkpt lat="37.93987409211695194244384765625" lon="-107.15075179003179073333740234375">
        <ele>3438.199951171875</ele>
        <time>2026-01-06T15:12:10.000Z</time>
        <extensions>
          <ns3:TrackPointExtension>
            <ns3:hr>116</ns3:hr>
            <ns3:cad>0</ns3:cad>
          </ns3:TrackPointExtension>
        </extensions>
      </trkpt>
      <trkpt lat="37.93987191282212734222412109375" lon="-107.15073888190090656280517578125">
        <ele>3438.60009765625</ele>
        <time>2026-01-06T15:12:12.000Z</time>
        <extensions>
          <ns3:TrackPointExtension>
            <ns3:hr>115</ns3:hr>
            <ns3:cad>0</ns3:cad>
          </ns3:TrackPointExtension>
        </extensions>
      </trkpt>
      <trkpt lat="37.93987409211695194244384765625" lon="-107.15071708895266056060791015625">
        <ele>3439</ele>
        <time>2026-01-06T15:12:15.000Z</time>
        <extensions>
          <ns3:TrackPointExtension>
            <ns3:hr>115</ns3:hr>
            <ns3:cad>0</ns3:cad>
          </ns3:TrackPointExtension>
        </extensions>
      </trkpt>
      <trkpt lat="37.9398781992495059967041015625" lon="-107.15068104676902294158935546875">
        <ele>3439.39990234375</ele>
        <time>2026-01-06T15:12:20.000Z</time>
        <extensions>
          <ns3:TrackPointExtension>
            <ns3:hr>114</ns3:hr>
            <ns3:cad>0</ns3:cad>
          </ns3:TrackPointExtension>
        </extensions>
      </trkpt>
      <trkpt lat="37.93987928889691829681396484375" lon="-107.15065799653530120849609375">
        <ele>3439.60009765625</ele>
        <time>2026-01-06T15:12:24.000Z</time>
        <extensions>
          <ns3:TrackPointExtension>
            <ns3:hr>113</ns3:hr>
            <ns3:cad>0</ns3:cad>
          </ns3:TrackPointExtension>
        </extensions>
      </trkpt>
      <trkpt lat="37.93987995944917201995849609375" lon="-107.1506454236805438995361328125">
        <ele>3439.800048828125</ele>
        <time>2026-01-06T15:12:25.000Z</time>
        <extensions>
          <ns3:TrackPointExtension>
            <ns3:hr>114</ns3:hr>
            <ns3:cad>0</ns3:cad>
          </ns3:TrackPointExtension>
        </extensions>
      </trkpt>
      <trkpt lat="37.93988515622913837432861328125" lon="-107.1505917795002460479736328125">
        <ele>3440.39990234375</ele>
        <time>2026-01-06T15:12:31.000Z</time>
        <extensions>
          <ns3:TrackPointExtension>
            <ns3:hr>114</ns3:hr>
            <ns3:cad>0</ns3:cad>
          </ns3:TrackPointExtension>
        </extensions>
      </trkpt>
      <trkpt lat="37.93988339602947235107421875" lon="-107.150573171675205230712890625">
        <ele>3440.800048828125</ele>
        <time>2026-01-06T15:12:35.000Z</time>
        <extensions>
          <ns3:TrackPointExtension>
            <ns3:hr>114</ns3:hr>
            <ns3:cad>0</ns3:cad>
          </ns3:TrackPointExtension>
        </extensions>
      </trkpt>
      <trkpt lat="37.939883060753345489501953125" lon="-107.1505636163055896759033203125">
        <ele>3440.800048828125</ele>
        <time>2026-01-06T15:12:36.000Z</time>
        <extensions>
          <ns3:TrackPointExtension>
            <ns3:hr>114</ns3:hr>
            <ns3:cad>0</ns3:cad>
          </ns3:TrackPointExtension>
        </extensions>
      </trkpt>
      <trkpt lat="37.939898483455181121826171875" lon="-107.15052765794098377227783203125">
        <ele>3441</ele>
        <time>2026-01-06T15:12:42.000Z</time>
        <extensions>
          <ns3:TrackPointExtension>
            <ns3:hr>114</ns3:hr>
            <ns3:cad>0</ns3:cad>
          </ns3:TrackPointExtension>
        </extensions>
      </trkpt>
      <trkpt lat="37.93990091420710086822509765625" lon="-107.1504932083189487457275390625">
        <ele>3442</ele>
        <time>2026-01-06T15:12:46.000Z</time>
        <extensions>
          <ns3:TrackPointExtension>
            <ns3:hr>114</ns3:hr>
            <ns3:cad>0</ns3:cad>
          </ns3:TrackPointExtension>
        </extensions>
      </trkpt>
      <trkpt lat="37.9399036802351474761962890625" lon="-107.150481976568698883056640625">
        <ele>3442.39990234375</ele>
        <time>2026-01-06T15:12:48.000Z</time>
        <extensions>
          <ns3:TrackPointExtension>
            <ns3:hr>114</ns3:hr>
            <ns3:cad>0</ns3:cad>
          </ns3:TrackPointExtension>
        </extensions>
      </trkpt>
      <trkpt lat="37.9398983158171176910400390625" lon="-107.15044249780476093292236328125">
        <ele>3442.800048828125</ele>
        <time>2026-01-06T15:12:54.000Z</time>
        <extensions>
          <ns3:TrackPointExtension>
            <ns3:hr>113</ns3:hr>
            <ns3:cad>0</ns3:cad>
          </ns3:TrackPointExtension>
        </extensions>
      </trkpt>
      <trkpt lat="37.93989839963614940643310546875" lon="-107.15043461881577968597412109375">
        <ele>3443.199951171875</ele>
        <time>2026-01-06T15:12:56.000Z</time>
        <extensions>
          <ns3:TrackPointExtension>
            <ns3:hr>113</ns3:hr>
            <ns3:cad>0</ns3:cad>
          </ns3:TrackPointExtension>
        </extensions>
      </trkpt>
      <trkpt lat="37.939913570880889892578125" lon="-107.150395810604095458984375">
        <ele>3443.39990234375</ele>
        <time>2026-01-06T15:13:01.000Z</time>
        <extensions>
          <ns3:TrackPointExtension>
            <ns3:hr>112</ns3:hr>
            <ns3:cad>0</ns3:cad>
          </ns3:TrackPointExtension>
        </extensions>
      </trkpt>
      <trkpt lat="37.93992270715534687042236328125" lon="-107.1503601036965847015380859375">
        <ele>3444.199951171875</ele>
        <time>2026-01-06T15:13:07.000Z</time>
        <extensions>
          <ns3:TrackPointExtension>
            <ns3:hr>110</ns3:hr>
            <ns3:cad>0</ns3:cad>
          </ns3:TrackPointExtension>
        </extensions>
      </trkpt>
      <trkpt lat="37.93992228806018829345703125" lon="-107.15035582892596721649169921875">
        <ele>3444.39990234375</ele>
        <time>2026-01-06T15:13:08.000Z</time>
        <extensions>
          <ns3:TrackPointExtension>
            <ns3:hr>110</ns3:hr>
            <ns3:cad>0</ns3:cad>
          </ns3:TrackPointExtension>
        </extensions>
      </trkpt>
      <trkpt lat="37.93992807157337665557861328125" lon="-107.1503208763897418975830078125">
        <ele>3445</ele>
        <time>2026-01-06T15:13:12.000Z</time>
        <extensions>
          <ns3:TrackPointExtension>
            <ns3:hr>111</ns3:hr>
            <ns3:cad>0</ns3:cad>
          </ns3:TrackPointExtension>
        </extensions>
      </trkpt>
      <trkpt lat="37.9399248026311397552490234375" lon="-107.1502806432545185089111328125">
        <ele>3445.39990234375</ele>
        <time>2026-01-06T15:13:18.000Z</time>
        <extensions>
          <ns3:TrackPointExtension>
            <ns3:hr>112</ns3:hr>
            <ns3:cad>0</ns3:cad>
          </ns3:TrackPointExtension>
        </extensions>
      </trkpt>
      <trkpt lat="37.939927317202091217041015625" lon="-107.15026983059942722320556640625">
        <ele>3445.60009765625</ele>
        <time>2026-01-06T15:13:19.000Z</time>
        <extensions>
          <ns3:TrackPointExtension>
            <ns3:hr>112</ns3:hr>
            <ns3:cad>0</ns3:cad>
          </ns3:TrackPointExtension>
        </extensions>
      </trkpt>
      <trkpt lat="37.9399363696575164794921875" lon="-107.15023420751094818115234375">
        <ele>3445.800048828125</ele>
        <time>2026-01-06T15:13:25.000Z</time>
        <extensions>
          <ns3:TrackPointExtension>
            <ns3:hr>111</ns3:hr>
            <ns3:cad>0</ns3:cad>
          </ns3:TrackPointExtension>
        </extensions>
      </trkpt>
      <trkpt lat="37.939938046038150787353515625" lon="-107.15022859163582324981689453125">
        <ele>3446</ele>
        <time>2026-01-06T15:13:26.000Z</time>
        <extensions>
          <ns3:TrackPointExtension>
            <ns3:hr>111</ns3:hr>
            <ns3:cad>0</ns3:cad>
          </ns3:TrackPointExtension>
        </extensions>
      </trkpt>
      <trkpt lat="37.93994315899908542633056640625" lon="-107.1501934714615345001220703125">
        <ele>3446.60009765625</ele>
        <time>2026-01-06T15:13:31.000Z</time>
        <extensions>
          <ns3:TrackPointExtension>
            <ns3:hr>111</ns3:hr>
            <ns3:cad>0</ns3:cad>
          </ns3:TrackPointExtension>
        </extensions>
      </trkpt>
      <trkpt lat="37.939944751560688018798828125" lon="-107.15015835128724575042724609375">
        <ele>3447.60009765625</ele>
        <time>2026-01-06T15:13:36.000Z</time>
        <extensions>
          <ns3:TrackPointExtension>
            <ns3:hr>110</ns3:hr>
            <ns3:cad>0</ns3:cad>
          </ns3:TrackPointExtension>
        </extensions>
      </trkpt>
      <trkpt lat="37.9399482719600200653076171875" lon="-107.15014980174601078033447265625">
        <ele>3447.60009765625</ele>
        <time>2026-01-06T15:13:37.000Z</time>
        <extensions>
          <ns3:TrackPointExtension>
            <ns3:hr>110</ns3:hr>
            <ns3:cad>0</ns3:cad>
          </ns3:TrackPointExtension>
        </extensions>
      </trkpt>
      <trkpt lat="37.939954139292240142822265625" lon="-107.1501146815717220306396484375">
        <ele>3448.39990234375</ele>
        <time>2026-01-06T15:13:42.000Z</time>
        <extensions>
          <ns3:TrackPointExtension>
            <ns3:hr>113</ns3:hr>
            <ns3:cad>0</ns3:cad>
          </ns3:TrackPointExtension>
        </extensions>
      </trkpt>
      <trkpt lat="37.9399613477289676666259765625" lon="-107.15010051615536212921142578125">
        <ele>3448.60009765625</ele>
        <time>2026-01-06T15:13:44.000Z</time>
        <extensions>
          <ns3:TrackPointExtension>
            <ns3:hr>113</ns3:hr>
            <ns3:cad>0</ns3:cad>
          </ns3:TrackPointExtension>
        </extensions>
      </trkpt>
      <trkpt lat="37.93996654450893402099609375" lon="-107.1500835008919239044189453125">
        <ele>3448.800048828125</ele>
        <time>2026-01-06T15:13:47.000Z</time>
        <extensions>
          <ns3:TrackPointExtension>
            <ns3:hr>112</ns3:hr>
            <ns3:cad>0</ns3:cad>
          </ns3:TrackPointExtension>
        </extensions>
      </trkpt>
      <trkpt lat="37.93996042571961879730224609375" lon="-107.1500412560999393463134765625">
        <ele>3449.39990234375</ele>
        <time>2026-01-06T15:13:53.000Z</time>
        <extensions>
          <ns3:TrackPointExtension>
            <ns3:hr>113</ns3:hr>
            <ns3:cad>0</ns3:cad>
          </ns3:TrackPointExtension>
        </extensions>
      </trkpt>
      <trkpt lat="37.93995715677738189697265625" lon="-107.1500197984278202056884765625">
        <ele>3449.800048828125</ele>
        <time>2026-01-06T15:13:55.000Z</time>
        <extensions>
          <ns3:TrackPointExtension>
            <ns3:hr>113</ns3:hr>
            <ns3:cad>0</ns3:cad>
          </ns3:TrackPointExtension>
        </extensions>
      </trkpt>
      <trkpt lat="37.9399536363780498504638671875" lon="-107.1499929763376712799072265625">
        <ele>3450</ele>
        <time>2026-01-06T15:13:59.000Z</time>
        <extensions>
          <ns3:TrackPointExtension>
            <ns3:hr>116</ns3:hr>
            <ns3:cad>0</ns3:cad>
          </ns3:TrackPointExtension>
        </extensions>
      </trkpt>
      <trkpt lat="37.93995070271193981170654296875" lon="-107.1499617956578731536865234375">
        <ele>3450.39990234375</ele>
        <time>2026-01-06T15:14:04.000Z</time>
        <extensions>
          <ns3:TrackPointExtension>
            <ns3:hr>115</ns3:hr>
            <ns3:cad>0</ns3:cad>
          </ns3:TrackPointExtension>
        </extensions>
      </trkpt>
      <trkpt lat="37.93994818814098834991455078125" lon="-107.14992868714034557342529296875">
        <ele>3450.800048828125</ele>
        <time>2026-01-06T15:14:07.000Z</time>
        <extensions>
          <ns3:TrackPointExtension>
            <ns3:hr>113</ns3:hr>
            <ns3:cad>0</ns3:cad>
          </ns3:TrackPointExtension>
        </extensions>
      </trkpt>
      <trkpt lat="37.93995304964482784271240234375" lon="-107.14991108514368534088134765625">
        <ele>3450.800048828125</ele>
        <time>2026-01-06T15:14:10.000Z</time>
        <extensions>
          <ns3:TrackPointExtension>
            <ns3:hr>112</ns3:hr>
            <ns3:cad>0</ns3:cad>
          </ns3:TrackPointExtension>
        </extensions>
      </trkpt>
      <trkpt lat="37.93995757587254047393798828125" lon="-107.14988191612064838409423828125">
        <ele>3451.199951171875</ele>
        <time>2026-01-06T15:14:16.000Z</time>
        <extensions>
          <ns3:TrackPointExtension>
            <ns3:hr>114</ns3:hr>
            <ns3:cad>0</ns3:cad>
          </ns3:TrackPointExtension>
        </extensions>
      </trkpt>
      <trkpt lat="37.93996461667120456695556640625" lon="-107.14984822086989879608154296875">
        <ele>3451.800048828125</ele>
        <time>2026-01-06T15:14:21.000Z</time>
        <extensions>
          <ns3:TrackPointExtension>
            <ns3:hr>115</ns3:hr>
            <ns3:cad>0</ns3:cad>
          </ns3:TrackPointExtension>
        </extensions>
      </trkpt>
      <trkpt lat="37.93996495194733142852783203125" lon="-107.14984419755637645721435546875">
        <ele>3452</ele>
        <time>2026-01-06T15:14:22.000Z</time>
        <extensions>
          <ns3:TrackPointExtension>
            <ns3:hr>115</ns3:hr>
            <ns3:cad>0</ns3:cad>
          </ns3:TrackPointExtension>
        </extensions>
      </trkpt>
      <trkpt lat="37.93997048400342464447021484375" lon="-107.1498146094381809234619140625">
        <ele>3452.39990234375</ele>
        <time>2026-01-06T15:14:26.000Z</time>
        <extensions>
          <ns3:TrackPointExtension>
            <ns3:hr>115</ns3:hr>
            <ns3:cad>0</ns3:cad>
          </ns3:TrackPointExtension>
        </extensions>
      </trkpt>
      <trkpt lat="37.93996713124215602874755859375" lon="-107.1497750468552112579345703125">
        <ele>3453.199951171875</ele>
        <time>2026-01-06T15:14:31.000Z</time>
        <extensions>
          <ns3:TrackPointExtension>
            <ns3:hr>113</ns3:hr>
            <ns3:cad>0</ns3:cad>
          </ns3:TrackPointExtension>
        </extensions>
      </trkpt>
      <trkpt lat="37.9399693943560123443603515625" lon="-107.14976641349494457244873046875">
        <ele>3453.199951171875</ele>
        <time>2026-01-06T15:14:33.000Z</time>
        <extensions>
          <ns3:TrackPointExtension>
            <ns3:hr>113</ns3:hr>
            <ns3:cad>0</ns3:cad>
          </ns3:TrackPointExtension>
        </extensions>
      </trkpt>
      <trkpt lat="37.93998925946652889251708984375" lon="-107.1497333049774169921875">
        <ele>3454</ele>
        <time>2026-01-06T15:14:39.000Z</time>
        <extensions>
          <ns3:TrackPointExtension>
            <ns3:hr>112</ns3:hr>
            <ns3:cad>0</ns3:cad>
          </ns3:TrackPointExtension>
        </extensions>
      </trkpt>
      <trkpt lat="37.9399978928267955780029296875" lon="-107.1497240848839282989501953125">
        <ele>3454.199951171875</ele>
        <time>2026-01-06T15:14:41.000Z</time>
        <extensions>
          <ns3:TrackPointExtension>
            <ns3:hr>111</ns3:hr>
            <ns3:cad>0</ns3:cad>
          </ns3:TrackPointExtension>
        </extensions>
      </trkpt>
      <trkpt lat="37.94000367633998394012451171875" lon="-107.1497160382568836212158203125">
        <ele>3455</ele>
        <time>2026-01-06T15:14:44.000Z</time>
        <extensions>
          <ns3:TrackPointExtension>
            <ns3:hr>112</ns3:hr>
            <ns3:cad>0</ns3:cad>
          </ns3:TrackPointExtension>
        </extensions>
      </trkpt>
      <trkpt lat="37.94001616537570953369140625" lon="-107.1496986038982868194580078125">
        <ele>3455.39990234375</ele>
        <time>2026-01-06T15:14:47.000Z</time>
        <extensions>
          <ns3:TrackPointExtension>
            <ns3:hr>111</ns3:hr>
            <ns3:cad>0</ns3:cad>
          </ns3:TrackPointExtension>
        </extensions>
      </trkpt>
      <trkpt lat="37.94001960195600986480712890625" lon="-107.1496808342635631561279296875">
        <ele>3455.60009765625</ele>
        <time>2026-01-06T15:14:50.000Z</time>
        <extensions>
          <ns3:TrackPointExtension>
            <ns3:hr>112</ns3:hr>
            <ns3:cad>0</ns3:cad>
          </ns3:TrackPointExtension>
        </extensions>
      </trkpt>
      <trkpt lat="37.9400297440588474273681640625" lon="-107.149626351892948150634765625">
        <ele>3456.199951171875</ele>
        <time>2026-01-06T15:14:56.000Z</time>
        <extensions>
          <ns3:TrackPointExtension>
            <ns3:hr>112</ns3:hr>
            <ns3:cad>0</ns3:cad>
          </ns3:TrackPointExtension>
        </extensions>
      </trkpt>
      <trkpt lat="37.94002848677337169647216796875" lon="-107.14961403049528598785400390625">
        <ele>3456.39990234375</ele>
        <time>2026-01-06T15:14:59.000Z</time>
        <extensions>
          <ns3:TrackPointExtension>
            <ns3:hr>112</ns3:hr>
            <ns3:cad>0</ns3:cad>
          </ns3:TrackPointExtension>
        </extensions>
      </trkpt>
      <trkpt lat="37.9400263912975788116455078125" lon="-107.14961453340947628021240234375">
        <ele>3456.60009765625</ele>
        <time>2026-01-06T15:15:00.000Z</time>
        <extensions>
          <ns3:TrackPointExtension>
            <ns3:hr>112</ns3:hr>
            <ns3:cad>0</ns3:cad>
          </ns3:TrackPointExtension>
        </extensions>
      </trkpt>
      <trkpt lat="37.9400250501930713653564453125" lon="-107.149577401578426361083984375">
        <ele>3457.39990234375</ele>
        <time>2026-01-06T15:15:05.000Z</time>
        <extensions>
          <ns3:TrackPointExtension>
            <ns3:hr>113</ns3:hr>
            <ns3:cad>0</ns3:cad>
          </ns3:TrackPointExtension>
        </extensions>
      </trkpt>
      <trkpt lat="37.94002555310726165771484375" lon="-107.14954496361315250396728515625">
        <ele>3457.60009765625</ele>
        <time>2026-01-06T15:15:09.000Z</time>
        <extensions>
          <ns3:TrackPointExtension>
            <ns3:hr>113</ns3:hr>
            <ns3:cad>0</ns3:cad>
          </ns3:TrackPointExtension>
        </extensions>
      </trkpt>
      <trkpt lat="37.9400260560214519500732421875" lon="-107.1495254337787628173828125">
        <ele>3458.199951171875</ele>
        <time>2026-01-06T15:15:12.000Z</time>
        <extensions>
          <ns3:TrackPointExtension>
            <ns3:hr>114</ns3:hr>
            <ns3:cad>0</ns3:cad>
          </ns3:TrackPointExtension>
        </extensions>
      </trkpt>
      <trkpt lat="37.940017841756343841552734375" lon="-107.14949928224086761474609375">
        <ele>3458.60009765625</ele>
        <time>2026-01-06T15:15:16.000Z</time>
        <extensions>
          <ns3:TrackPointExtension>
            <ns3:hr>115</ns3:hr>
            <ns3:cad>0</ns3:cad>
          </ns3:TrackPointExtension>
        </extensions>
      </trkpt>
      <trkpt lat="37.94001708738505840301513671875" lon="-107.1494910679757595062255859375">
        <ele>3458.800048828125</ele>
        <time>2026-01-06T15:15:17.000Z</time>
        <extensions>
          <ns3:TrackPointExtension>
            <ns3:hr>115</ns3:hr>
            <ns3:cad>0</ns3:cad>
          </ns3:TrackPointExtension>
        </extensions>
      </trkpt>
      <trkpt lat="37.94001122005283832550048828125" lon="-107.14946064166724681854248046875">
        <ele>3459</ele>
        <time>2026-01-06T15:15:21.000Z</time>
        <extensions>
          <ns3:TrackPointExtension>
            <ns3:hr>116</ns3:hr>
            <ns3:cad>0</ns3:cad>
          </ns3:TrackPointExtension>
        </extensions>
      </trkpt>
      <trkpt lat="37.94001339934766292572021484375" lon="-107.149412445724010467529296875">
        <ele>3458.800048828125</ele>
        <time>2026-01-06T15:15:27.000Z</time>
        <extensions>
          <ns3:TrackPointExtension>
            <ns3:hr>114</ns3:hr>
            <ns3:cad>0</ns3:cad>
          </ns3:TrackPointExtension>
        </extensions>
      </trkpt>
      <trkpt lat="37.9400062747299671173095703125" lon="-107.1493713743984699249267578125">
        <ele>3459.60009765625</ele>
        <time>2026-01-06T15:15:33.000Z</time>
        <extensions>
          <ns3:TrackPointExtension>
            <ns3:hr>117</ns3:hr>
            <ns3:cad>0</ns3:cad>
          </ns3:TrackPointExtension>
        </extensions>
      </trkpt>
      <trkpt lat="37.940005771815776824951171875" lon="-107.1493599750101566314697265625">
        <ele>3459.800048828125</ele>
        <time>2026-01-06T15:15:34.000Z</time>
        <extensions>
          <ns3:TrackPointExtension>
            <ns3:hr>117</ns3:hr>
            <ns3:cad>0</ns3:cad>
          </ns3:TrackPointExtension>
        </extensions>
      </trkpt>
      <trkpt lat="37.94000702910125255584716796875" lon="-107.14932334609329700469970703125">
        <ele>3460.39990234375</ele>
        <time>2026-01-06T15:15:39.000Z</time>
        <extensions>
          <ns3:TrackPointExtension>
            <ns3:hr>116</ns3:hr>
            <ns3:cad>0</ns3:cad>
          </ns3:TrackPointExtension>
        </extensions>
      </trkpt>
      <trkpt lat="37.9400096274912357330322265625" lon="-107.14931529946625232696533203125">
        <ele>3460.800048828125</ele>
        <time>2026-01-06T15:15:41.000Z</time>
        <extensions>
          <ns3:TrackPointExtension>
            <ns3:hr>116</ns3:hr>
            <ns3:cad>0</ns3:cad>
          </ns3:TrackPointExtension>
        </extensions>
      </trkpt>
      <trkpt lat="37.9400109685957431793212890625" lon="-107.14928462170064449310302734375">
        <ele>3461</ele>
        <time>2026-01-06T15:15:45.000Z</time>
        <extensions>
          <ns3:TrackPointExtension>
            <ns3:hr>115</ns3:hr>
            <ns3:cad>0</ns3:cad>
          </ns3:TrackPointExtension>
        </extensions>
      </trkpt>
      <trkpt lat="37.94001524336636066436767578125" lon="-107.14926593005657196044921875">
        <ele>3461.39990234375</ele>
        <time>2026-01-06T15:15:51.000Z</time>
        <extensions>
          <ns3:TrackPointExtension>
            <ns3:hr>116</ns3:hr>
            <ns3:cad>0</ns3:cad>
          </ns3:TrackPointExtension>
        </extensions>
      </trkpt>
      <trkpt lat="37.94001507572829723358154296875" lon="-107.14926584623754024505615234375">
        <ele>3461.60009765625</ele>
        <time>2026-01-06T15:15:52.000Z</time>
        <extensions>
          <ns3:TrackPointExtension>
            <ns3:hr>116</ns3:hr>
            <ns3:cad>0</ns3:cad>
          </ns3:TrackPointExtension>
        </extensions>
      </trkpt>
      <trkpt lat="37.94001691974699497222900390625" lon="-107.14920960366725921630859375">
        <ele>3461.800048828125</ele>
        <time>2026-01-06T15:15:57.000Z</time>
        <extensions>
          <ns3:TrackPointExtension>
            <ns3:hr>116</ns3:hr>
            <ns3:cad>0</ns3:cad>
          </ns3:TrackPointExtension>
        </extensions>
      </trkpt>
      <trkpt lat="37.940018177032470703125" lon="-107.14920449070632457733154296875">
        <ele>3461.800048828125</ele>
        <time>2026-01-06T15:15:58.000Z</time>
        <extensions>
          <ns3:TrackPointExtension>
            <ns3:hr>115</ns3:hr>
            <ns3:cad>0</ns3:cad>
          </ns3:TrackPointExtension>
        </extensions>
      </trkpt>
      <trkpt lat="37.94001826085150241851806640625" lon="-107.14920423924922943115234375">
        <ele>3462.800048828125</ele>
        <time>2026-01-06T15:16:02.000Z</time>
        <extensions>
          <ns3:TrackPointExtension>
            <ns3:hr>116</ns3:hr>
            <ns3:cad>0</ns3:cad>
          </ns3:TrackPointExtension>
        </extensions>
      </trkpt>
      <trkpt lat="37.9400196857750415802001953125" lon="-107.1491879783570766448974609375">
        <ele>3462.800048828125</ele>
        <time>2026-01-06T15:16:03.000Z</time>
        <extensions>
          <ns3:TrackPointExtension>
            <ns3:hr>117</ns3:hr>
            <ns3:cad>0</ns3:cad>
          </ns3:TrackPointExtension>
        </extensions>
      </trkpt>
      <trkpt lat="37.94002798385918140411376953125" lon="-107.14915671385824680328369140625">
        <ele>3463.199951171875</ele>
        <time>2026-01-06T15:16:08.000Z</time>
        <extensions>
          <ns3:TrackPointExtension>
            <ns3:hr>116</ns3:hr>
            <ns3:cad>0</ns3:cad>
          </ns3:TrackPointExtension>
        </extensions>
      </trkpt>
      <trkpt lat="37.9400277324020862579345703125" lon="-107.14913844130933284759521484375">
        <ele>3464</ele>
        <time>2026-01-06T15:16:12.000Z</time>
        <extensions>
          <ns3:TrackPointExtension>
            <ns3:hr>115</ns3:hr>
            <ns3:cad>0</ns3:cad>
          </ns3:TrackPointExtension>
        </extensions>
      </trkpt>
      <trkpt lat="37.94002228416502475738525390625" lon="-107.149119414389133453369140625">
        <ele>3464.39990234375</ele>
        <time>2026-01-06T15:16:14.000Z</time>
        <extensions>
          <ns3:TrackPointExtension>
            <ns3:hr>116</ns3:hr>
            <ns3:cad>0</ns3:cad>
          </ns3:TrackPointExtension>
        </extensions>
      </trkpt>
      <trkpt lat="37.9400141537189483642578125" lon="-107.14911044575273990631103515625">
        <ele>3465</ele>
        <time>2026-01-06T15:16:16.000Z</time>
        <extensions>
          <ns3:TrackPointExtension>
            <ns3:hr>116</ns3:hr>
            <ns3:cad>0</ns3:cad>
          </ns3:TrackPointExtension>
        </extensions>
      </trkpt>
      <trkpt lat="37.94000501744449138641357421875" lon="-107.14907607994973659515380859375">
        <ele>3465.199951171875</ele>
        <time>2026-01-06T15:16:20.000Z</time>
        <extensions>
          <ns3:TrackPointExtension>
            <ns3:hr>115</ns3:hr>
            <ns3:cad>0</ns3:cad>
          </ns3:TrackPointExtension>
        </extensions>
      </trkpt>
      <trkpt lat="37.94000568799674510955810546875" lon="-107.14903433807194232940673828125">
        <ele>3465</ele>
        <time>2026-01-06T15:16:26.000Z</time>
        <extensions>
          <ns3:TrackPointExtension>
            <ns3:hr>117</ns3:hr>
            <ns3:cad>0</ns3:cad>
          </ns3:TrackPointExtension>
        </extensions>
      </trkpt>
      <trkpt lat="37.94001792557537555694580078125" lon="-107.14899544604122638702392578125">
        <ele>3465.800048828125</ele>
        <time>2026-01-06T15:16:32.000Z</time>
        <extensions>
          <ns3:TrackPointExtension>
            <ns3:hr>118</ns3:hr>
            <ns3:cad>0</ns3:cad>
          </ns3:TrackPointExtension>
        </extensions>
      </trkpt>
      <trkpt lat="37.94001616537570953369140625" lon="-107.14899192564189434051513671875">
        <ele>3466</ele>
        <time>2026-01-06T15:16:33.000Z</time>
        <extensions>
          <ns3:TrackPointExtension>
            <ns3:hr>118</ns3:hr>
            <ns3:cad>0</ns3:cad>
          </ns3:TrackPointExtension>
        </extensions>
      </trkpt>
      <trkpt lat="37.94001616537570953369140625" lon="-107.1489915065467357635498046875">
        <ele>3466</ele>
        <time>2026-01-06T15:16:35.000Z</time>
        <extensions>
          <ns3:TrackPointExtension>
            <ns3:hr>119</ns3:hr>
            <ns3:cad>0</ns3:cad>
          </ns3:TrackPointExtension>
        </extensions>
      </trkpt>
      <trkpt lat="37.94002831913530826568603515625" lon="-107.14896024204790592193603515625">
        <ele>3466.800048828125</ele>
        <time>2026-01-06T15:16:41.000Z</time>
        <extensions>
          <ns3:TrackPointExtension>
            <ns3:hr>118</ns3:hr>
            <ns3:cad>0</ns3:cad>
          </ns3:TrackPointExtension>
        </extensions>
      </trkpt>
      <trkpt lat="37.9400290735065937042236328125" lon="-107.148964516818523406982421875">
        <ele>3467.199951171875</ele>
        <time>2026-01-06T15:16:42.000Z</time>
        <extensions>
          <ns3:TrackPointExtension>
            <ns3:hr>118</ns3:hr>
            <ns3:cad>0</ns3:cad>
          </ns3:TrackPointExtension>
        </extensions>
      </trkpt>
      <trkpt lat="37.94003049843013286590576171875" lon="-107.14893844909965991973876953125">
        <ele>3467.60009765625</ele>
        <time>2026-01-06T15:16:45.000Z</time>
        <extensions>
          <ns3:TrackPointExtension>
            <ns3:hr>118</ns3:hr>
            <ns3:cad>0</ns3:cad>
          </ns3:TrackPointExtension>
        </extensions>
      </trkpt>
      <trkpt lat="37.94003636576235294342041015625" lon="-107.148920595645904541015625">
        <ele>3468.199951171875</ele>
        <time>2026-01-06T15:16:49.000Z</time>
        <extensions>
          <ns3:TrackPointExtension>
            <ns3:hr>118</ns3:hr>
            <ns3:cad>0</ns3:cad>
          </ns3:TrackPointExtension>
        </extensions>
      </trkpt>
      <trkpt lat="37.94003251008689403533935546875" lon="-107.14890760369598865509033203125">
        <ele>3469</ele>
        <time>2026-01-06T15:16:51.000Z</time>
        <extensions>
          <ns3:TrackPointExtension>
            <ns3:hr>117</ns3:hr>
            <ns3:cad>0</ns3:cad>
          </ns3:TrackPointExtension>
        </extensions>
      </trkpt>
      <trkpt lat="37.94003100134432315826416015625" lon="-107.1488788537681102752685546875">
        <ele>3469.199951171875</ele>
        <time>2026-01-06T15:16:54.000Z</time>
        <extensions>
          <ns3:TrackPointExtension>
            <ns3:hr>115</ns3:hr>
            <ns3:cad>0</ns3:cad>
          </ns3:TrackPointExtension>
        </extensions>
      </trkpt>
      <trkpt lat="37.9400250501930713653564453125" lon="-107.14885463006794452667236328125">
        <ele>3469.199951171875</ele>
        <time>2026-01-06T15:16:57.000Z</time>
        <extensions>
          <ns3:TrackPointExtension>
            <ns3:hr>115</ns3:hr>
            <ns3:cad>0</ns3:cad>
          </ns3:TrackPointExtension>
        </extensions>
      </trkpt>
      <trkpt lat="37.94002044014632701873779296875" lon="-107.14881557039916515350341796875">
        <ele>3469.800048828125</ele>
        <time>2026-01-06T15:17:03.000Z</time>
        <extensions>
          <ns3:TrackPointExtension>
            <ns3:hr>116</ns3:hr>
            <ns3:cad>0</ns3:cad>
          </ns3:TrackPointExtension>
        </extensions>
      </trkpt>
      <trkpt lat="37.940019853413105010986328125" lon="-107.1487812884151935577392578125">
        <ele>3470.199951171875</ele>
        <time>2026-01-06T15:17:09.000Z</time>
        <extensions>
          <ns3:TrackPointExtension>
            <ns3:hr>116</ns3:hr>
            <ns3:cad>0</ns3:cad>
          </ns3:TrackPointExtension>
        </extensions>
      </trkpt>
      <trkpt lat="37.9400222003459930419921875" lon="-107.14877231977880001068115234375">
        <ele>3470.199951171875</ele>
        <time>2026-01-06T15:17:10.000Z</time>
        <extensions>
          <ns3:TrackPointExtension>
            <ns3:hr>116</ns3:hr>
            <ns3:cad>0</ns3:cad>
          </ns3:TrackPointExtension>
        </extensions>
      </trkpt>
      <trkpt lat="37.94002261944115161895751953125" lon="-107.14876234531402587890625">
        <ele>3470.39990234375</ele>
        <time>2026-01-06T15:17:11.000Z</time>
        <extensions>
          <ns3:TrackPointExtension>
            <ns3:hr>115</ns3:hr>
            <ns3:cad>0</ns3:cad>
          </ns3:TrackPointExtension>
        </extensions>
      </trkpt>
      <trkpt lat="37.94001759029924869537353515625" lon="-107.14871741831302642822265625">
        <ele>3470.60009765625</ele>
        <time>2026-01-06T15:17:17.000Z</time>
        <extensions>
          <ns3:TrackPointExtension>
            <ns3:hr>113</ns3:hr>
            <ns3:cad>0</ns3:cad>
          </ns3:TrackPointExtension>
        </extensions>
      </trkpt>
      <trkpt lat="37.94001440517604351043701171875" lon="-107.148692943155765533447265625">
        <ele>3471.39990234375</ele>
        <time>2026-01-06T15:17:21.000Z</time>
        <extensions>
          <ns3:TrackPointExtension>
            <ns3:hr>111</ns3:hr>
            <ns3:cad>0</ns3:cad>
          </ns3:TrackPointExtension>
        </extensions>
      </trkpt>
      <trkpt lat="37.94001557864248752593994140625" lon="-107.14867710135877132415771484375">
        <ele>3471.60009765625</ele>
        <time>2026-01-06T15:17:23.000Z</time>
        <extensions>
          <ns3:TrackPointExtension>
            <ns3:hr>111</ns3:hr>
            <ns3:cad>0</ns3:cad>
          </ns3:TrackPointExtension>
        </extensions>
      </trkpt>
      <trkpt lat="37.9400166682898998260498046875" lon="-107.1486461721360683441162109375">
        <ele>3472.39990234375</ele>
        <time>2026-01-06T15:17:28.000Z</time>
        <extensions>
          <ns3:TrackPointExtension>
            <ns3:hr>112</ns3:hr>
            <ns3:cad>0</ns3:cad>
          </ns3:TrackPointExtension>
        </extensions>
      </trkpt>
      <trkpt lat="37.9400173388421535491943359375" lon="-107.14864072389900684356689453125">
        <ele>3472.60009765625</ele>
        <time>2026-01-06T15:17:29.000Z</time>
        <extensions>
          <ns3:TrackPointExtension>
            <ns3:hr>113</ns3:hr>
            <ns3:cad>0</ns3:cad>
          </ns3:TrackPointExtension>
        </extensions>
      </trkpt>
      <trkpt lat="37.94001993723213672637939453125" lon="-107.1486173383891582489013671875">
        <ele>3472.60009765625</ele>
        <time>2026-01-06T15:17:35.000Z</time>
        <extensions>
          <ns3:TrackPointExtension>
            <ns3:hr>114</ns3:hr>
            <ns3:cad>0</ns3:cad>
          </ns3:TrackPointExtension>
        </extensions>
      </trkpt>
      <trkpt lat="37.94003653340041637420654296875" lon="-107.148582637310028076171875">
        <ele>3473</ele>
        <time>2026-01-06T15:17:40.000Z</time>
        <extensions>
          <ns3:TrackPointExtension>
            <ns3:hr>114</ns3:hr>
            <ns3:cad>0</ns3:cad>
          </ns3:TrackPointExtension>
        </extensions>
      </trkpt>
      <trkpt lat="37.94003494083881378173828125" lon="-107.1485690586268901824951171875">
        <ele>3473.800048828125</ele>
        <time>2026-01-06T15:17:42.000Z</time>
        <extensions>
          <ns3:TrackPointExtension>
            <ns3:hr>115</ns3:hr>
            <ns3:cad>0</ns3:cad>
          </ns3:TrackPointExtension>
        </extensions>
      </trkpt>
      <trkpt lat="37.940035946667194366455078125" lon="-107.148545421659946441650390625">
        <ele>3474.60009765625</ele>
        <time>2026-01-06T15:17:48.000Z</time>
        <extensions>
          <ns3:TrackPointExtension>
            <ns3:hr>115</ns3:hr>
            <ns3:cad>0</ns3:cad>
          </ns3:TrackPointExtension>
        </extensions>
      </trkpt>
      <trkpt lat="37.9400394670665264129638671875" lon="-107.1485375426709651947021484375">
        <ele>3474.800048828125</ele>
        <time>2026-01-06T15:17:49.000Z</time>
        <extensions>
          <ns3:TrackPointExtension>
            <ns3:hr>115</ns3:hr>
            <ns3:cad>0</ns3:cad>
          </ns3:TrackPointExtension>
        </extensions>
      </trkpt>
      <trkpt lat="37.9400508664548397064208984375" lon="-107.148512564599514007568359375">
        <ele>3475</ele>
        <time>2026-01-06T15:17:54.000Z</time>
        <extensions>
          <ns3:TrackPointExtension>
            <ns3:hr>115</ns3:hr>
            <ns3:cad>0</ns3:cad>
          </ns3:TrackPointExtension>
        </extensions>
      </trkpt>
      <trkpt lat="37.940055392682552337646484375" lon="-107.1484899334609508514404296875">
        <ele>3475.39990234375</ele>
        <time>2026-01-06T15:18:00.000Z</time>
        <extensions>
          <ns3:TrackPointExtension>
            <ns3:hr>115</ns3:hr>
            <ns3:cad>0</ns3:cad>
          </ns3:TrackPointExtension>
        </extensions>
      </trkpt>
      <trkpt lat="37.940055392682552337646484375" lon="-107.1484899334609508514404296875">
        <ele>3475.199951171875</ele>
        <time>2026-01-06T15:18:02.000Z</time>
        <extensions>
          <ns3:TrackPointExtension>
            <ns3:hr>119</ns3:hr>
            <ns3:cad>0</ns3:cad>
          </ns3:TrackPointExtension>
        </extensions>
      </trkpt>
      <trkpt lat="37.940055392682552337646484375" lon="-107.1484899334609508514404296875">
        <ele>3474.800048828125</ele>
        <time>2026-01-06T15:18:08.000Z</time>
        <extensions>
          <ns3:TrackPointExtension>
            <ns3:hr>117</ns3:hr>
            <ns3:cad>0</ns3:cad>
          </ns3:TrackPointExtension>
        </extensions>
      </trkpt>
      <trkpt lat="37.94006980955600738525390625" lon="-107.14847526513040065765380859375">
        <ele>3475.199951171875</ele>
        <time>2026-01-06T15:18:12.000Z</time>
        <extensions>
          <ns3:TrackPointExtension>
            <ns3:hr>115</ns3:hr>
            <ns3:cad>0</ns3:cad>
          </ns3:TrackPointExtension>
        </extensions>
      </trkpt>
      <trkpt lat="37.94008766300976276397705078125" lon="-107.14843176305294036865234375">
        <ele>3475.800048828125</ele>
        <time>2026-01-06T15:18:17.000Z</time>
        <extensions>
          <ns3:TrackPointExtension>
            <ns3:hr>113</ns3:hr>
            <ns3:cad>0</ns3:cad>
          </ns3:TrackPointExtension>
        </extensions>
      </trkpt>
      <trkpt lat="37.94009520672261714935302734375" lon="-107.14840829372406005859375">
        <ele>3476.800048828125</ele>
        <time>2026-01-06T15:18:23.000Z</time>
        <extensions>
          <ns3:TrackPointExtension>
            <ns3:hr>113</ns3:hr>
            <ns3:cad>0</ns3:cad>
          </ns3:TrackPointExtension>
        </extensions>
      </trkpt>
      <trkpt lat="37.94009520672261714935302734375" lon="-107.14840829372406005859375">
        <ele>3477</ele>
        <time>2026-01-06T15:18:24.000Z</time>
        <extensions>
          <ns3:TrackPointExtension>
            <ns3:hr>113</ns3:hr>
            <ns3:cad>0</ns3:cad>
          </ns3:TrackPointExtension>
        </extensions>
      </trkpt>
      <trkpt lat="37.94009788893163204193115234375" lon="-107.14838080108165740966796875">
        <ele>3477.800048828125</ele>
        <time>2026-01-06T15:18:29.000Z</time>
        <extensions>
          <ns3:TrackPointExtension>
            <ns3:hr>112</ns3:hr>
            <ns3:cad>0</ns3:cad>
          </ns3:TrackPointExtension>
        </extensions>
      </trkpt>
      <trkpt lat="37.940102331340312957763671875" lon="-107.14834459125995635986328125">
        <ele>3478</ele>
        <time>2026-01-06T15:18:35.000Z</time>
        <extensions>
          <ns3:TrackPointExtension>
            <ns3:hr>113</ns3:hr>
            <ns3:cad>0</ns3:cad>
          </ns3:TrackPointExtension>
        </extensions>
      </trkpt>
      <trkpt lat="37.94010392390191555023193359375" lon="-107.1483377180993556976318359375">
        <ele>3478</ele>
        <time>2026-01-06T15:18:36.000Z</time>
        <extensions>
          <ns3:TrackPointExtension>
            <ns3:hr>113</ns3:hr>
            <ns3:cad>0</ns3:cad>
          </ns3:TrackPointExtension>
        </extensions>
      </trkpt>
      <trkpt lat="37.94010560028254985809326171875" lon="-107.14833009056746959686279296875">
        <ele>3478.199951171875</ele>
        <time>2026-01-06T15:18:37.000Z</time>
        <extensions>
          <ns3:TrackPointExtension>
            <ns3:hr>112</ns3:hr>
            <ns3:cad>0</ns3:cad>
          </ns3:TrackPointExtension>
        </extensions>
      </trkpt>
      <trkpt lat="37.9401266388595104217529296875" lon="-107.14829756878316402435302734375">
        <ele>3479</ele>
        <time>2026-01-06T15:18:41.000Z</time>
        <extensions>
          <ns3:TrackPointExtension>
            <ns3:hr>113</ns3:hr>
            <ns3:cad>0</ns3:cad>
          </ns3:TrackPointExtension>
        </extensions>
      </trkpt>
      <trkpt lat="37.94012756086885929107666015625" lon="-107.14829220436513423919677734375">
        <ele>3479.199951171875</ele>
        <time>2026-01-06T15:18:42.000Z</time>
        <extensions>
          <ns3:TrackPointExtension>
            <ns3:hr>113</ns3:hr>
            <ns3:cad>0</ns3:cad>
          </ns3:TrackPointExtension>
        </extensions>
      </trkpt>
      <trkpt lat="37.94013175182044506072998046875" lon="-107.14825381524860858917236328125">
        <ele>3479.39990234375</ele>
        <time>2026-01-06T15:18:47.000Z</time>
        <extensions>
          <ns3:TrackPointExtension>
            <ns3:hr>113</ns3:hr>
            <ns3:cad>0</ns3:cad>
          </ns3:TrackPointExtension>
        </extensions>
      </trkpt>
      <trkpt lat="37.94013015925884246826171875" lon="-107.14822313748300075531005859375">
        <ele>3479.199951171875</ele>
        <time>2026-01-06T15:18:52.000Z</time>
        <extensions>
          <ns3:TrackPointExtension>
            <ns3:hr>114</ns3:hr>
            <ns3:cad>0</ns3:cad>
          </ns3:TrackPointExtension>
        </extensions>
      </trkpt>
      <trkpt lat="37.940112389624118804931640625" lon="-107.14820251800119876861572265625">
        <ele>3480</ele>
        <time>2026-01-06T15:18:58.000Z</time>
        <extensions>
          <ns3:TrackPointExtension>
            <ns3:hr>114</ns3:hr>
            <ns3:cad>0</ns3:cad>
          </ns3:TrackPointExtension>
        </extensions>
      </trkpt>
      <trkpt lat="37.94011398218572139739990234375" lon="-107.148190699517726898193359375">
        <ele>3480.39990234375</ele>
        <time>2026-01-06T15:19:00.000Z</time>
        <extensions>
          <ns3:TrackPointExtension>
            <ns3:hr>114</ns3:hr>
            <ns3:cad>0</ns3:cad>
          </ns3:TrackPointExtension>
        </extensions>
      </trkpt>
      <trkpt lat="37.94010962359607219696044921875" lon="-107.1481720916926860809326171875">
        <ele>3480.800048828125</ele>
        <time>2026-01-06T15:19:03.000Z</time>
        <extensions>
          <ns3:TrackPointExtension>
            <ns3:hr>113</ns3:hr>
            <ns3:cad>0</ns3:cad>
          </ns3:TrackPointExtension>
        </extensions>
      </trkpt>
      <trkpt lat="37.9401014931499958038330078125" lon="-107.14814904145896434783935546875">
        <ele>3481</ele>
        <time>2026-01-06T15:19:09.000Z</time>
        <extensions>
          <ns3:TrackPointExtension>
            <ns3:hr>113</ns3:hr>
            <ns3:cad>0</ns3:cad>
          </ns3:TrackPointExtension>
        </extensions>
      </trkpt>
      <trkpt lat="37.940100990235805511474609375" lon="-107.14813043363392353057861328125">
        <ele>3481.39990234375</ele>
        <time>2026-01-06T15:19:11.000Z</time>
        <extensions>
          <ns3:TrackPointExtension>
            <ns3:hr>112</ns3:hr>
            <ns3:cad>0</ns3:cad>
          </ns3:TrackPointExtension>
        </extensions>
      </trkpt>
      <trkpt lat="37.94010275043547153472900390625" lon="-107.1481030248105525970458984375">
        <ele>3482</ele>
        <time>2026-01-06T15:19:14.000Z</time>
        <extensions>
          <ns3:TrackPointExtension>
            <ns3:hr>112</ns3:hr>
            <ns3:cad>0</ns3:cad>
          </ns3:TrackPointExtension>
        </extensions>
      </trkpt>
      <trkpt lat="37.9401048459112644195556640625" lon="-107.14809439145028591156005859375">
        <ele>3482.39990234375</ele>
        <time>2026-01-06T15:19:16.000Z</time>
        <extensions>
          <ns3:TrackPointExtension>
            <ns3:hr>112</ns3:hr>
            <ns3:cad>0</ns3:cad>
          </ns3:TrackPointExtension>
        </extensions>
      </trkpt>
      <trkpt lat="37.94010199606418609619140625" lon="-107.1480587683618068695068359375">
        <ele>3483</ele>
        <time>2026-01-06T15:19:21.000Z</time>
        <extensions>
          <ns3:TrackPointExtension>
            <ns3:hr>113</ns3:hr>
            <ns3:cad>0</ns3:cad>
          </ns3:TrackPointExtension>
        </extensions>
      </trkpt>
      <trkpt lat="37.940110377967357635498046875" lon="-107.14801241643726825714111328125">
        <ele>3483.60009765625</ele>
        <time>2026-01-06T15:19:27.000Z</time>
        <extensions>
          <ns3:TrackPointExtension>
            <ns3:hr>114</ns3:hr>
            <ns3:cad>0</ns3:cad>
          </ns3:TrackPointExtension>
        </extensions>
      </trkpt>
      <trkpt lat="37.94010660611093044281005859375" lon="-107.14800369925796985626220703125">
        <ele>3483.800048828125</ele>
        <time>2026-01-06T15:19:28.000Z</time>
        <extensions>
          <ns3:TrackPointExtension>
            <ns3:hr>114</ns3:hr>
            <ns3:cad>0</ns3:cad>
          </ns3:TrackPointExtension>
        </extensions>
      </trkpt>
      <trkpt lat="37.940090596675872802734375" lon="-107.14797846972942352294921875">
        <ele>3484</ele>
        <time>2026-01-06T15:19:34.000Z</time>
        <extensions>
          <ns3:TrackPointExtension>
            <ns3:hr>114</ns3:hr>
            <ns3:cad>0</ns3:cad>
          </ns3:TrackPointExtension>
        </extensions>
      </trkpt>
      <trkpt lat="37.9400860704481601715087890625" lon="-107.14797444641590118408203125">
        <ele>3484</ele>
        <time>2026-01-06T15:19:35.000Z</time>
        <extensions>
          <ns3:TrackPointExtension>
            <ns3:hr>113</ns3:hr>
            <ns3:cad>0</ns3:cad>
          </ns3:TrackPointExtension>
        </extensions>
      </trkpt>
      <trkpt lat="37.94007358141243457794189453125" lon="-107.147939912974834442138671875">
        <ele>3484.800048828125</ele>
        <time>2026-01-06T15:19:40.000Z</time>
        <extensions>
          <ns3:TrackPointExtension>
            <ns3:hr>113</ns3:hr>
            <ns3:cad>0</ns3:cad>
          </ns3:TrackPointExtension>
        </extensions>
      </trkpt>
      <trkpt lat="37.9400704801082611083984375" lon="-107.14793865568935871124267578125">
        <ele>3484.800048828125</ele>
        <time>2026-01-06T15:19:41.000Z</time>
        <extensions>
          <ns3:TrackPointExtension>
            <ns3:hr>113</ns3:hr>
            <ns3:cad>0</ns3:cad>
          </ns3:TrackPointExtension>
        </extensions>
      </trkpt>
      <trkpt lat="37.94006285257637500762939453125" lon="-107.14790009893476963043212890625">
        <ele>3485.199951171875</ele>
        <time>2026-01-06T15:19:46.000Z</time>
        <extensions>
          <ns3:TrackPointExtension>
            <ns3:hr>113</ns3:hr>
            <ns3:cad>0</ns3:cad>
          </ns3:TrackPointExtension>
        </extensions>
      </trkpt>
      <trkpt lat="37.94006922282278537750244140625" lon="-107.14787746779620647430419921875">
        <ele>3485.800048828125</ele>
        <time>2026-01-06T15:19:50.000Z</time>
        <extensions>
          <ns3:TrackPointExtension>
            <ns3:hr>114</ns3:hr>
            <ns3:cad>0</ns3:cad>
          </ns3:TrackPointExtension>
        </extensions>
      </trkpt>
      <trkpt lat="37.940074503421783447265625" lon="-107.14786179363727569580078125">
        <ele>3485.800048828125</ele>
        <time>2026-01-06T15:19:52.000Z</time>
        <extensions>
          <ns3:TrackPointExtension>
            <ns3:hr>115</ns3:hr>
            <ns3:cad>0</ns3:cad>
          </ns3:TrackPointExtension>
        </extensions>
      </trkpt>
      <trkpt lat="37.94011515565216541290283203125" lon="-107.14782499708235263824462890625">
        <ele>3486.60009765625</ele>
        <time>2026-01-06T15:19:58.000Z</time>
        <extensions>
          <ns3:TrackPointExtension>
            <ns3:hr>118</ns3:hr>
            <ns3:cad>0</ns3:cad>
          </ns3:TrackPointExtension>
        </extensions>
      </trkpt>
      <trkpt lat="37.9401541315019130706787109375" lon="-107.147789709270000457763671875">
        <ele>3486.39990234375</ele>
        <time>2026-01-06T15:20:04.000Z</time>
        <extensions>
          <ns3:TrackPointExtension>
            <ns3:hr>119</ns3:hr>
            <ns3:cad>0</ns3:cad>
          </ns3:TrackPointExtension>
        </extensions>
      </trkpt>
      <trkpt lat="37.94016310013830661773681640625" lon="-107.1477570198476314544677734375">
        <ele>3486.800048828125</ele>
        <time>2026-01-06T15:20:08.000Z</time>
        <extensions>
          <ns3:TrackPointExtension>
            <ns3:hr>120</ns3:hr>
            <ns3:cad>0</ns3:cad>
          </ns3:TrackPointExtension>
        </extensions>
      </trkpt>
      <trkpt lat="37.94015924446284770965576171875" lon="-107.1477258391678333282470703125">
        <ele>3487.199951171875</ele>
        <time>2026-01-06T15:20:12.000Z</time>
        <extensions>
          <ns3:TrackPointExtension>
            <ns3:hr>121</ns3:hr>
            <ns3:cad>0</ns3:cad>
          </ns3:TrackPointExtension>
        </extensions>
      </trkpt>
      <trkpt lat="37.94015371240675449371337890625" lon="-107.1477147750556468963623046875">
        <ele>3487.60009765625</ele>
        <time>2026-01-06T15:20:16.000Z</time>
        <extensions>
          <ns3:TrackPointExtension>
            <ns3:hr>120</ns3:hr>
            <ns3:cad>0</ns3:cad>
          </ns3:TrackPointExtension>
        </extensions>
      </trkpt>
      <trkpt lat="37.94014885090291500091552734375" lon="-107.14769055135548114776611328125">
        <ele>3488</ele>
        <time>2026-01-06T15:20:19.000Z</time>
        <extensions>
          <ns3:TrackPointExtension>
            <ns3:hr>119</ns3:hr>
            <ns3:cad>0</ns3:cad>
          </ns3:TrackPointExtension>
        </extensions>
      </trkpt>
      <trkpt lat="37.9401511140167713165283203125" lon="-107.147660292685031890869140625">
        <ele>3488.39990234375</ele>
        <time>2026-01-06T15:20:23.000Z</time>
        <extensions>
          <ns3:TrackPointExtension>
            <ns3:hr>119</ns3:hr>
            <ns3:cad>0</ns3:cad>
          </ns3:TrackPointExtension>
        </extensions>
      </trkpt>
      <trkpt lat="37.9401467554271221160888671875" lon="-107.14764428324997425079345703125">
        <ele>3488.60009765625</ele>
        <time>2026-01-06T15:20:28.000Z</time>
        <extensions>
          <ns3:TrackPointExtension>
            <ns3:hr>118</ns3:hr>
            <ns3:cad>0</ns3:cad>
          </ns3:TrackPointExtension>
        </extensions>
      </trkpt>
      <trkpt lat="37.94014130719006061553955078125" lon="-107.14760019443929195404052734375">
        <ele>3489</ele>
        <time>2026-01-06T15:20:34.000Z</time>
        <extensions>
          <ns3:TrackPointExtension>
            <ns3:hr>118</ns3:hr>
            <ns3:cad>0</ns3:cad>
          </ns3:TrackPointExtension>
        </extensions>
      </trkpt>
      <trkpt lat="37.94013745151460170745849609375" lon="-107.14759181253612041473388671875">
        <ele>3489.199951171875</ele>
        <time>2026-01-06T15:20:35.000Z</time>
        <extensions>
          <ns3:TrackPointExtension>
            <ns3:hr>118</ns3:hr>
            <ns3:cad>0</ns3:cad>
          </ns3:TrackPointExtension>
        </extensions>
      </trkpt>
      <trkpt lat="37.94013309292495250701904296875" lon="-107.1475551836192607879638671875">
        <ele>3490</ele>
        <time>2026-01-06T15:20:41.000Z</time>
        <extensions>
          <ns3:TrackPointExtension>
            <ns3:hr>119</ns3:hr>
            <ns3:cad>0</ns3:cad>
          </ns3:TrackPointExtension>
        </extensions>
      </trkpt>
      <trkpt lat="37.9401333443820476531982421875" lon="-107.14755074121057987213134765625">
        <ele>3490.199951171875</ele>
        <time>2026-01-06T15:20:42.000Z</time>
        <extensions>
          <ns3:TrackPointExtension>
            <ns3:hr>119</ns3:hr>
            <ns3:cad>0</ns3:cad>
          </ns3:TrackPointExtension>
        </extensions>
      </trkpt>
      <trkpt lat="37.9401380382478237152099609375" lon="-107.147514782845973968505859375">
        <ele>3490.60009765625</ele>
        <time>2026-01-06T15:20:47.000Z</time>
        <extensions>
          <ns3:TrackPointExtension>
            <ns3:hr>119</ns3:hr>
            <ns3:cad>0</ns3:cad>
          </ns3:TrackPointExtension>
        </extensions>
      </trkpt>
      <trkpt lat="37.94014331884682178497314453125" lon="-107.1474884636700153350830078125">
        <ele>3491.199951171875</ele>
        <time>2026-01-06T15:20:49.000Z</time>
        <extensions>
          <ns3:TrackPointExtension>
            <ns3:hr>119</ns3:hr>
            <ns3:cad>0</ns3:cad>
          </ns3:TrackPointExtension>
        </extensions>
      </trkpt>
      <trkpt lat="37.9401454143226146697998046875" lon="-107.1474673412740230560302734375">
        <ele>3491.800048828125</ele>
        <time>2026-01-06T15:20:53.000Z</time>
        <extensions>
          <ns3:TrackPointExtension>
            <ns3:hr>120</ns3:hr>
            <ns3:cad>0</ns3:cad>
          </ns3:TrackPointExtension>
        </extensions>
      </trkpt>
      <trkpt lat="37.94014281593263149261474609375" lon="-107.1474574506282806396484375">
        <ele>3492.199951171875</ele>
        <time>2026-01-06T15:20:56.000Z</time>
        <extensions>
          <ns3:TrackPointExtension>
            <ns3:hr>119</ns3:hr>
            <ns3:cad>0</ns3:cad>
          </ns3:TrackPointExtension>
        </extensions>
      </trkpt>
      <trkpt lat="37.94014063663780689239501953125" lon="-107.147433646023273468017578125">
        <ele>3492.39990234375</ele>
        <time>2026-01-06T15:20:59.000Z</time>
        <extensions>
          <ns3:TrackPointExtension>
            <ns3:hr>119</ns3:hr>
            <ns3:cad>0</ns3:cad>
          </ns3:TrackPointExtension>
        </extensions>
      </trkpt>
      <trkpt lat="37.940131165087223052978515625" lon="-107.1473885513842105865478515625">
        <ele>3492.800048828125</ele>
        <time>2026-01-06T15:21:05.000Z</time>
        <extensions>
          <ns3:TrackPointExtension>
            <ns3:hr>119</ns3:hr>
            <ns3:cad>0</ns3:cad>
          </ns3:TrackPointExtension>
        </extensions>
      </trkpt>
      <trkpt lat="37.940129153430461883544921875" lon="-107.14738209731876850128173828125">
        <ele>3492.800048828125</ele>
        <time>2026-01-06T15:21:06.000Z</time>
        <extensions>
          <ns3:TrackPointExtension>
            <ns3:hr>119</ns3:hr>
            <ns3:cad>0</ns3:cad>
          </ns3:TrackPointExtension>
        </extensions>
      </trkpt>
      <trkpt lat="37.94012739323079586029052734375" lon="-107.147354185581207275390625">
        <ele>3493.199951171875</ele>
        <time>2026-01-06T15:21:09.000Z</time>
        <extensions>
          <ns3:TrackPointExtension>
            <ns3:hr>120</ns3:hr>
            <ns3:cad>0</ns3:cad>
          </ns3:TrackPointExtension>
        </extensions>
      </trkpt>
      <trkpt lat="37.94012487865984439849853515625" lon="-107.14732308872044086456298828125">
        <ele>3493.39990234375</ele>
        <time>2026-01-06T15:21:13.000Z</time>
        <extensions>
          <ns3:TrackPointExtension>
            <ns3:hr>120</ns3:hr>
            <ns3:cad>0</ns3:cad>
          </ns3:TrackPointExtension>
        </extensions>
      </trkpt>
      <trkpt lat="37.94011901132762432098388671875" lon="-107.147316299378871917724609375">
        <ele>3493.60009765625</ele>
        <time>2026-01-06T15:21:14.000Z</time>
        <extensions>
          <ns3:TrackPointExtension>
            <ns3:hr>120</ns3:hr>
            <ns3:cad>0</ns3:cad>
          </ns3:TrackPointExtension>
        </extensions>
      </trkpt>
      <trkpt lat="37.94010945595800876617431640625" lon="-107.14729090221226215362548828125">
        <ele>3493.800048828125</ele>
        <time>2026-01-06T15:21:19.000Z</time>
        <extensions>
          <ns3:TrackPointExtension>
            <ns3:hr>120</ns3:hr>
            <ns3:cad>77</ns3:cad>
          </ns3:TrackPointExtension>
        </extensions>
      </trkpt>
      <trkpt lat="37.94009805656969547271728515625" lon="-107.14727665297687053680419921875">
        <ele>3494.199951171875</ele>
        <time>2026-01-06T15:21:22.000Z</time>
        <extensions>
          <ns3:TrackPointExtension>
            <ns3:hr>121</ns3:hr>
            <ns3:cad>0</ns3:cad>
          </ns3:TrackPointExtension>
        </extensions>
      </trkpt>
      <trkpt lat="37.9400867410004138946533203125" lon="-107.14726441539824008941650390625">
        <ele>3494.60009765625</ele>
        <time>2026-01-06T15:21:25.000Z</time>
        <extensions>
          <ns3:TrackPointExtension>
            <ns3:hr>121</ns3:hr>
            <ns3:cad>0</ns3:cad>
          </ns3:TrackPointExtension>
        </extensions>
      </trkpt>
      <trkpt lat="37.940066792070865631103515625" lon="-107.14723189361393451690673828125">
        <ele>3494.800048828125</ele>
        <time>2026-01-06T15:21:31.000Z</time>
        <extensions>
          <ns3:TrackPointExtension>
            <ns3:hr>122</ns3:hr>
            <ns3:cad>0</ns3:cad>
          </ns3:TrackPointExtension>
        </extensions>
      </trkpt>
      <trkpt lat="37.940065450966358184814453125" lon="-107.14722770266234874725341796875">
        <ele>3495</ele>
        <time>2026-01-06T15:21:32.000Z</time>
        <extensions>
          <ns3:TrackPointExtension>
            <ns3:hr>119</ns3:hr>
            <ns3:cad>0</ns3:cad>
          </ns3:TrackPointExtension>
        </extensions>
      </trkpt>
      <trkpt lat="37.94006318785250186920166015625" lon="-107.1472212485969066619873046875">
        <ele>3495.199951171875</ele>
        <time>2026-01-06T15:21:33.000Z</time>
        <extensions>
          <ns3:TrackPointExtension>
            <ns3:hr>116</ns3:hr>
            <ns3:cad>0</ns3:cad>
          </ns3:TrackPointExtension>
        </extensions>
      </trkpt>
      <trkpt lat="37.94006033800542354583740234375" lon="-107.14721194468438625335693359375">
        <ele>3495.39990234375</ele>
        <time>2026-01-06T15:21:34.000Z</time>
        <extensions>
          <ns3:TrackPointExtension>
            <ns3:hr>114</ns3:hr>
            <ns3:cad>0</ns3:cad>
          </ns3:TrackPointExtension>
        </extensions>
      </trkpt>
      <trkpt lat="37.94005245901644229888916015625" lon="-107.14719417504966259002685546875">
        <ele>3495.800048828125</ele>
        <time>2026-01-06T15:21:36.000Z</time>
        <extensions>
          <ns3:TrackPointExtension>
            <ns3:hr>110</ns3:hr>
            <ns3:cad>0</ns3:cad>
          </ns3:TrackPointExtension>
        </extensions>
      </trkpt>
      <trkpt lat="37.94004038907587528228759765625" lon="-107.1471659280359745025634765625">
        <ele>3496.199951171875</ele>
        <time>2026-01-06T15:21:40.000Z</time>
        <extensions>
          <ns3:TrackPointExtension>
            <ns3:hr>109</ns3:hr>
            <ns3:cad>0</ns3:cad>
          </ns3:TrackPointExtension>
        </extensions>
      </trkpt>
      <trkpt lat="37.94003955088555812835693359375" lon="-107.14713416062295436859130859375">
        <ele>3496.39990234375</ele>
        <time>2026-01-06T15:21:43.000Z</time>
        <extensions>
          <ns3:TrackPointExtension>
            <ns3:hr>110</ns3:hr>
            <ns3:cad>0</ns3:cad>
          </ns3:TrackPointExtension>
        </extensions>
      </trkpt>
      <trkpt lat="37.9400361143052577972412109375" lon="-107.14710683561861515045166015625">
        <ele>3496.39990234375</ele>
        <time>2026-01-06T15:21:47.000Z</time>
        <extensions>
          <ns3:TrackPointExtension>
            <ns3:hr>110</ns3:hr>
            <ns3:cad>0</ns3:cad>
          </ns3:TrackPointExtension>
        </extensions>
      </trkpt>
      <trkpt lat="37.94002949260175228118896484375" lon="-107.14708034880459308624267578125">
        <ele>3497.199951171875</ele>
        <time>2026-01-06T15:21:52.000Z</time>
        <extensions>
          <ns3:TrackPointExtension>
            <ns3:hr>111</ns3:hr>
            <ns3:cad>0</ns3:cad>
          </ns3:TrackPointExtension>
        </extensions>
      </trkpt>
      <trkpt lat="37.9400240443646907806396484375" lon="-107.1470631659030914306640625">
        <ele>3497.39990234375</ele>
        <time>2026-01-06T15:21:54.000Z</time>
        <extensions>
          <ns3:TrackPointExtension>
            <ns3:hr>111</ns3:hr>
            <ns3:cad>0</ns3:cad>
          </ns3:TrackPointExtension>
        </extensions>
      </trkpt>
      <trkpt lat="37.9400159977376461029052734375" lon="-107.14704145677387714385986328125">
        <ele>3497.800048828125</ele>
        <time>2026-01-06T15:21:57.000Z</time>
        <extensions>
          <ns3:TrackPointExtension>
            <ns3:hr>114</ns3:hr>
            <ns3:cad>0</ns3:cad>
          </ns3:TrackPointExtension>
        </extensions>
      </trkpt>
      <trkpt lat="37.9400126449763774871826171875" lon="-107.14703458361327648162841796875">
        <ele>3497.800048828125</ele>
        <time>2026-01-06T15:21:58.000Z</time>
        <extensions>
          <ns3:TrackPointExtension>
            <ns3:hr>114</ns3:hr>
            <ns3:cad>0</ns3:cad>
          </ns3:TrackPointExtension>
        </extensions>
      </trkpt>
      <trkpt lat="37.9399982281029224395751953125" lon="-107.1470006369054317474365234375">
        <ele>3498.60009765625</ele>
        <time>2026-01-06T15:22:04.000Z</time>
        <extensions>
          <ns3:TrackPointExtension>
            <ns3:hr>115</ns3:hr>
            <ns3:cad>0</ns3:cad>
          </ns3:TrackPointExtension>
        </extensions>
      </trkpt>
      <trkpt lat="37.9399831406772136688232421875" lon="-107.14696182869374752044677734375">
        <ele>3498.800048828125</ele>
        <time>2026-01-06T15:22:10.000Z</time>
        <extensions>
          <ns3:TrackPointExtension>
            <ns3:hr>116</ns3:hr>
            <ns3:cad>0</ns3:cad>
          </ns3:TrackPointExtension>
        </extensions>
      </trkpt>
      <trkpt lat="37.93996310792863368988037109375" lon="-107.1469238586723804473876953125">
        <ele>3499.60009765625</ele>
        <time>2026-01-06T15:22:15.000Z</time>
        <extensions>
          <ns3:TrackPointExtension>
            <ns3:hr>114</ns3:hr>
            <ns3:cad>0</ns3:cad>
          </ns3:TrackPointExtension>
        </extensions>
      </trkpt>
      <trkpt lat="37.939947433769702911376953125" lon="-107.14688354171812534332275390625">
        <ele>3500</ele>
        <time>2026-01-06T15:22:21.000Z</time>
        <extensions>
          <ns3:TrackPointExtension>
            <ns3:hr>115</ns3:hr>
            <ns3:cad>0</ns3:cad>
          </ns3:TrackPointExtension>
        </extensions>
      </trkpt>
      <trkpt lat="37.93992991559207439422607421875" lon="-107.146845571696758270263671875">
        <ele>3500.199951171875</ele>
        <time>2026-01-06T15:22:27.000Z</time>
        <extensions>
          <ns3:TrackPointExtension>
            <ns3:hr>115</ns3:hr>
            <ns3:cad>0</ns3:cad>
          </ns3:TrackPointExtension>
        </extensions>
      </trkpt>
      <trkpt lat="37.93991482816636562347412109375" lon="-107.14680123142898082733154296875">
        <ele>3500.199951171875</ele>
        <time>2026-01-06T15:22:33.000Z</time>
        <extensions>
          <ns3:TrackPointExtension>
            <ns3:hr>114</ns3:hr>
            <ns3:cad>0</ns3:cad>
          </ns3:TrackPointExtension>
        </extensions>
      </trkpt>
      <trkpt lat="37.939914576709270477294921875" lon="-107.14679955504834651947021484375">
        <ele>3500.39990234375</ele>
        <time>2026-01-06T15:22:34.000Z</time>
        <extensions>
          <ns3:TrackPointExtension>
            <ns3:hr>114</ns3:hr>
            <ns3:cad>0</ns3:cad>
          </ns3:TrackPointExtension>
        </extensions>
      </trkpt>
      <trkpt lat="37.93990912847220897674560546875" lon="-107.1467867307364940643310546875">
        <ele>3500.800048828125</ele>
        <time>2026-01-06T15:22:36.000Z</time>
        <extensions>
          <ns3:TrackPointExtension>
            <ns3:hr>114</ns3:hr>
            <ns3:cad>0</ns3:cad>
          </ns3:TrackPointExtension>
        </extensions>
      </trkpt>
      <trkpt lat="37.9399026744067668914794921875" lon="-107.14677306823432445526123046875">
        <ele>3501</ele>
        <time>2026-01-06T15:22:40.000Z</time>
        <extensions>
          <ns3:TrackPointExtension>
            <ns3:hr>111</ns3:hr>
            <ns3:cad>0</ns3:cad>
          </ns3:TrackPointExtension>
        </extensions>
      </trkpt>
      <trkpt lat="37.93989278376102447509765625" lon="-107.146727554500102996826171875">
        <ele>3501.39990234375</ele>
        <time>2026-01-06T15:22:46.000Z</time>
        <extensions>
          <ns3:TrackPointExtension>
            <ns3:hr>111</ns3:hr>
            <ns3:cad>0</ns3:cad>
          </ns3:TrackPointExtension>
        </extensions>
      </trkpt>
      <trkpt lat="37.9399006627500057220458984375" lon="-107.1466764248907566070556640625">
        <ele>3501.800048828125</ele>
        <time>2026-01-06T15:22:52.000Z</time>
        <extensions>
          <ns3:TrackPointExtension>
            <ns3:hr>112</ns3:hr>
            <ns3:cad>0</ns3:cad>
          </ns3:TrackPointExtension>
        </extensions>
      </trkpt>
      <trkpt lat="37.93989269994199275970458984375" lon="-107.1466308273375034332275390625">
        <ele>3502.199951171875</ele>
        <time>2026-01-06T15:22:58.000Z</time>
        <extensions>
          <ns3:TrackPointExtension>
            <ns3:hr>113</ns3:hr>
            <ns3:cad>0</ns3:cad>
          </ns3:TrackPointExtension>
        </extensions>
      </trkpt>
      <trkpt lat="37.9398704878985881805419921875" lon="-107.1465991437435150146484375">
        <ele>3502.800048828125</ele>
        <time>2026-01-06T15:23:03.000Z</time>
        <extensions>
          <ns3:TrackPointExtension>
            <ns3:hr>114</ns3:hr>
            <ns3:cad>0</ns3:cad>
          </ns3:TrackPointExtension>
        </extensions>
      </trkpt>
      <trkpt lat="37.93986336328089237213134765625" lon="-107.14659252204000949859619140625">
        <ele>3503</ele>
        <time>2026-01-06T15:23:05.000Z</time>
        <extensions>
          <ns3:TrackPointExtension>
            <ns3:hr>114</ns3:hr>
            <ns3:cad>0</ns3:cad>
          </ns3:TrackPointExtension>
        </extensions>
      </trkpt>
      <trkpt lat="37.9398419894278049468994140625" lon="-107.14656469412147998809814453125">
        <ele>3504</ele>
        <time>2026-01-06T15:23:10.000Z</time>
        <extensions>
          <ns3:TrackPointExtension>
            <ns3:hr>114</ns3:hr>
            <ns3:cad>67</ns3:cad>
          </ns3:TrackPointExtension>
        </extensions>
      </trkpt>
      <trkpt lat="37.939822711050510406494140625" lon="-107.14654256589710712432861328125">
        <ele>3503.800048828125</ele>
        <time>2026-01-06T15:23:14.000Z</time>
        <extensions>
          <ns3:TrackPointExtension>
            <ns3:hr>113</ns3:hr>
            <ns3:cad>67</ns3:cad>
          </ns3:TrackPointExtension>
        </extensions>
      </trkpt>
      <trkpt lat="37.93980569578707218170166015625" lon="-107.14652446098625659942626953125">
        <ele>3503.39990234375</ele>
        <time>2026-01-06T15:23:17.000Z</time>
        <extensions>
          <ns3:TrackPointExtension>
            <ns3:hr>113</ns3:hr>
            <ns3:cad>41</ns3:cad>
          </ns3:TrackPointExtension>
        </extensions>
      </trkpt>
      <trkpt lat="37.939774431288242340087890625" lon="-107.1464823000133037567138671875">
        <ele>3503.800048828125</ele>
        <time>2026-01-06T15:23:23.000Z</time>
        <extensions>
          <ns3:TrackPointExtension>
            <ns3:hr>110</ns3:hr>
            <ns3:cad>0</ns3:cad>
          </ns3:TrackPointExtension>
        </extensions>
      </trkpt>
      <trkpt lat="37.93976428918540477752685546875" lon="-107.14646846987307071685791015625">
        <ele>3504</ele>
        <time>2026-01-06T15:23:25.000Z</time>
        <extensions>
          <ns3:TrackPointExtension>
            <ns3:hr>110</ns3:hr>
            <ns3:cad>0</ns3:cad>
          </ns3:TrackPointExtension>
        </extensions>
      </trkpt>
      <trkpt lat="37.93975171633064746856689453125" lon="-107.14644349180161952972412109375">
        <ele>3504.60009765625</ele>
        <time>2026-01-06T15:23:29.000Z</time>
        <extensions>
          <ns3:TrackPointExtension>
            <ns3:hr>110</ns3:hr>
            <ns3:cad>0</ns3:cad>
          </ns3:TrackPointExtension>
        </extensions>
      </trkpt>
      <trkpt lat="37.93972791172564029693603515625" lon="-107.14641214348375797271728515625">
        <ele>3505</ele>
        <time>2026-01-06T15:23:33.000Z</time>
        <extensions>
          <ns3:TrackPointExtension>
            <ns3:hr>110</ns3:hr>
            <ns3:cad>0</ns3:cad>
          </ns3:TrackPointExtension>
        </extensions>
      </trkpt>
      <trkpt lat="37.9397169314324855804443359375" lon="-107.1463941223919391632080078125">
        <ele>3505.39990234375</ele>
        <time>2026-01-06T15:23:36.000Z</time>
        <extensions>
          <ns3:TrackPointExtension>
            <ns3:hr>110</ns3:hr>
            <ns3:cad>0</ns3:cad>
          </ns3:TrackPointExtension>
        </extensions>
      </trkpt>
      <trkpt lat="37.9397159256041049957275390625" lon="-107.1463793702423572540283203125">
        <ele>3505.39990234375</ele>
        <time>2026-01-06T15:23:37.000Z</time>
        <extensions>
          <ns3:TrackPointExtension>
            <ns3:hr>111</ns3:hr>
            <ns3:cad>0</ns3:cad>
          </ns3:TrackPointExtension>
        </extensions>
      </trkpt>
      <trkpt lat="37.9397179372608661651611328125" lon="-107.146354056894779205322265625">
        <ele>3505.39990234375</ele>
        <time>2026-01-06T15:23:41.000Z</time>
        <extensions>
          <ns3:TrackPointExtension>
            <ns3:hr>111</ns3:hr>
            <ns3:cad>0</ns3:cad>
          </ns3:TrackPointExtension>
        </extensions>
      </trkpt>
      <trkpt lat="37.93971030972898006439208984375" lon="-107.14634709991514682769775390625">
        <ele>3505.39990234375</ele>
        <time>2026-01-06T15:23:42.000Z</time>
        <extensions>
          <ns3:TrackPointExtension>
            <ns3:hr>111</ns3:hr>
            <ns3:cad>0</ns3:cad>
          </ns3:TrackPointExtension>
        </extensions>
      </trkpt>
      <trkpt lat="37.9397008381783962249755859375" lon="-107.14631524868309497833251953125">
        <ele>3506</ele>
        <time>2026-01-06T15:23:46.000Z</time>
        <extensions>
          <ns3:TrackPointExtension>
            <ns3:hr>113</ns3:hr>
            <ns3:cad>0</ns3:cad>
          </ns3:TrackPointExtension>
        </extensions>
      </trkpt>
      <trkpt lat="37.9396991617977619171142578125" lon="-107.1463094651699066162109375">
        <ele>3506.199951171875</ele>
        <time>2026-01-06T15:23:47.000Z</time>
        <extensions>
          <ns3:TrackPointExtension>
            <ns3:hr>112</ns3:hr>
            <ns3:cad>0</ns3:cad>
          </ns3:TrackPointExtension>
        </extensions>
      </trkpt>
      <trkpt lat="37.939688600599765777587890625" lon="-107.1462797932326793670654296875">
        <ele>3506.39990234375</ele>
        <time>2026-01-06T15:23:51.000Z</time>
        <extensions>
          <ns3:TrackPointExtension>
            <ns3:hr>112</ns3:hr>
            <ns3:cad>0</ns3:cad>
          </ns3:TrackPointExtension>
        </extensions>
      </trkpt>
      <trkpt lat="37.93967426754534244537353515625" lon="-107.14624903164803981781005859375">
        <ele>3507.199951171875</ele>
        <time>2026-01-06T15:23:55.000Z</time>
        <extensions>
          <ns3:TrackPointExtension>
            <ns3:hr>111</ns3:hr>
            <ns3:cad>0</ns3:cad>
          </ns3:TrackPointExtension>
        </extensions>
      </trkpt>
      <trkpt lat="37.93965943157672882080078125" lon="-107.146238721907138824462890625">
        <ele>3507.39990234375</ele>
        <time>2026-01-06T15:23:57.000Z</time>
        <extensions>
          <ns3:TrackPointExtension>
            <ns3:hr>112</ns3:hr>
            <ns3:cad>0</ns3:cad>
          </ns3:TrackPointExtension>
        </extensions>
      </trkpt>
      <trkpt lat="37.939629592001438140869140625" lon="-107.1461887657642364501953125">
        <ele>3508.199951171875</ele>
        <time>2026-01-06T15:24:02.000Z</time>
        <extensions>
          <ns3:TrackPointExtension>
            <ns3:hr>112</ns3:hr>
            <ns3:cad>0</ns3:cad>
          </ns3:TrackPointExtension>
        </extensions>
      </trkpt>
      <trkpt lat="37.93962229974567890167236328125" lon="-107.1461845748126506805419921875">
        <ele>3508.199951171875</ele>
        <time>2026-01-06T15:24:03.000Z</time>
        <extensions>
          <ns3:TrackPointExtension>
            <ns3:hr>112</ns3:hr>
            <ns3:cad>0</ns3:cad>
          </ns3:TrackPointExtension>
        </extensions>
      </trkpt>
      <trkpt lat="37.93959262780845165252685546875" lon="-107.14613704942166805267333984375">
        <ele>3507.60009765625</ele>
        <time>2026-01-06T15:24:09.000Z</time>
        <extensions>
          <ns3:TrackPointExtension>
            <ns3:hr>112</ns3:hr>
            <ns3:cad>0</ns3:cad>
          </ns3:TrackPointExtension>
        </extensions>
      </trkpt>
      <trkpt lat="37.9395878501236438751220703125" lon="-107.146138139069080352783203125">
        <ele>3507.39990234375</ele>
        <time>2026-01-06T15:24:10.000Z</time>
        <extensions>
          <ns3:TrackPointExtension>
            <ns3:hr>112</ns3:hr>
            <ns3:cad>0</ns3:cad>
          </ns3:TrackPointExtension>
        </extensions>
      </trkpt>
      <trkpt lat="37.9395717568695545196533203125" lon="-107.14611567556858062744140625">
        <ele>3507.199951171875</ele>
        <time>2026-01-06T15:24:13.000Z</time>
        <extensions>
          <ns3:TrackPointExtension>
            <ns3:hr>110</ns3:hr>
            <ns3:cad>0</ns3:cad>
          </ns3:TrackPointExtension>
        </extensions>
      </trkpt>
      <trkpt lat="37.93955507688224315643310546875" lon="-107.14608273468911647796630859375">
        <ele>3507.199951171875</ele>
        <time>2026-01-06T15:24:16.000Z</time>
        <extensions>
          <ns3:TrackPointExtension>
            <ns3:hr>109</ns3:hr>
            <ns3:cad>0</ns3:cad>
          </ns3:TrackPointExtension>
        </extensions>
      </trkpt>
      <trkpt lat="37.9395114071667194366455078125" lon="-107.1460305154323577880859375">
        <ele>3506.800048828125</ele>
        <time>2026-01-06T15:24:22.000Z</time>
        <extensions>
          <ns3:TrackPointExtension>
            <ns3:hr>109</ns3:hr>
            <ns3:cad>68</ns3:cad>
          </ns3:TrackPointExtension>
        </extensions>
      </trkpt>
      <trkpt lat="37.93948835693299770355224609375" lon="-107.14600034058094024658203125">
        <ele>3506</ele>
        <time>2026-01-06T15:24:25.000Z</time>
        <extensions>
          <ns3:TrackPointExtension>
            <ns3:hr>109</ns3:hr>
            <ns3:cad>47</ns3:cad>
          </ns3:TrackPointExtension>
        </extensions>
      </trkpt>
      <trkpt lat="37.93947645463049411773681640625" lon="-107.14597846381366252899169921875">
        <ele>3505.60009765625</ele>
        <time>2026-01-06T15:24:27.000Z</time>
        <extensions>
          <ns3:TrackPointExtension>
            <ns3:hr>109</ns3:hr>
            <ns3:cad>47</ns3:cad>
          </ns3:TrackPointExtension>
        </extensions>
      </trkpt>
      <trkpt lat="37.93944627977907657623291015625" lon="-107.145936302840709686279296875">
        <ele>3505.800048828125</ele>
        <time>2026-01-06T15:24:32.000Z</time>
        <extensions>
          <ns3:TrackPointExtension>
            <ns3:hr>109</ns3:hr>
            <ns3:cad>0</ns3:cad>
          </ns3:TrackPointExtension>
        </extensions>
      </trkpt>
      <trkpt lat="37.9394084773957729339599609375" lon="-107.14590168558061122894287109375">
        <ele>3506.800048828125</ele>
        <time>2026-01-06T15:24:37.000Z</time>
        <extensions>
          <ns3:TrackPointExtension>
            <ns3:hr>104</ns3:hr>
            <ns3:cad>0</ns3:cad>
          </ns3:TrackPointExtension>
        </extensions>
      </trkpt>
      <trkpt lat="37.93940017931163311004638671875" lon="-107.1458945609629154205322265625">
        <ele>3507</ele>
        <time>2026-01-06T15:24:38.000Z</time>
        <extensions>
          <ns3:TrackPointExtension>
            <ns3:hr>103</ns3:hr>
            <ns3:cad>0</ns3:cad>
          </ns3:TrackPointExtension>
        </extensions>
      </trkpt>
      <trkpt lat="37.9393940605223178863525390625" lon="-107.1458875201642513275146484375">
        <ele>3507</ele>
        <time>2026-01-06T15:24:39.000Z</time>
        <extensions>
          <ns3:TrackPointExtension>
            <ns3:hr>102</ns3:hr>
            <ns3:cad>0</ns3:cad>
          </ns3:TrackPointExtension>
        </extensions>
      </trkpt>
      <trkpt lat="37.93937235139310359954833984375" lon="-107.14583228342235088348388671875">
        <ele>3507</ele>
        <time>2026-01-06T15:24:45.000Z</time>
        <extensions>
          <ns3:TrackPointExtension>
            <ns3:hr>101</ns3:hr>
            <ns3:cad>0</ns3:cad>
          </ns3:TrackPointExtension>
        </extensions>
      </trkpt>
      <trkpt lat="37.93936883099377155303955078125" lon="-107.1457866020500659942626953125">
        <ele>3507.39990234375</ele>
        <time>2026-01-06T15:24:51.000Z</time>
        <extensions>
          <ns3:TrackPointExtension>
            <ns3:hr>101</ns3:hr>
            <ns3:cad>0</ns3:cad>
          </ns3:TrackPointExtension>
        </extensions>
      </trkpt>
      <trkpt lat="37.939366064965724945068359375" lon="-107.145757265388965606689453125">
        <ele>3507.60009765625</ele>
        <time>2026-01-06T15:24:55.000Z</time>
        <extensions>
          <ns3:TrackPointExtension>
            <ns3:hr>104</ns3:hr>
            <ns3:cad>0</ns3:cad>
          </ns3:TrackPointExtension>
        </extensions>
      </trkpt>
      <trkpt lat="37.9393689148128032684326171875" lon="-107.14574578218162059783935546875">
        <ele>3507.800048828125</ele>
        <time>2026-01-06T15:24:57.000Z</time>
        <extensions>
          <ns3:TrackPointExtension>
            <ns3:hr>107</ns3:hr>
            <ns3:cad>0</ns3:cad>
          </ns3:TrackPointExtension>
        </extensions>
      </trkpt>
      <trkpt lat="37.93936816044151782989501953125" lon="-107.1457279287278652191162109375">
        <ele>3508.199951171875</ele>
        <time>2026-01-06T15:24:59.000Z</time>
        <extensions>
          <ns3:TrackPointExtension>
            <ns3:hr>108</ns3:hr>
            <ns3:cad>0</ns3:cad>
          </ns3:TrackPointExtension>
        </extensions>
      </trkpt>
      <trkpt lat="37.93936095200479030609130859375" lon="-107.14572608470916748046875">
        <ele>3508.199951171875</ele>
        <time>2026-01-06T15:25:00.000Z</time>
        <extensions>
          <ns3:TrackPointExtension>
            <ns3:hr>108</ns3:hr>
            <ns3:cad>0</ns3:cad>
          </ns3:TrackPointExtension>
        </extensions>
      </trkpt>
      <trkpt lat="37.93935458175837993621826171875" lon="-107.14570655487477779388427734375">
        <ele>3508.60009765625</ele>
        <time>2026-01-06T15:25:03.000Z</time>
        <extensions>
          <ns3:TrackPointExtension>
            <ns3:hr>108</ns3:hr>
            <ns3:cad>42</ns3:cad>
          </ns3:TrackPointExtension>
        </extensions>
      </trkpt>
      <trkpt lat="37.93934536166489124298095703125" lon="-107.14567353017628192901611328125">
        <ele>3509.199951171875</ele>
        <time>2026-01-06T15:25:08.000Z</time>
        <extensions>
          <ns3:TrackPointExtension>
            <ns3:hr>106</ns3:hr>
            <ns3:cad>0</ns3:cad>
          </ns3:TrackPointExtension>
        </extensions>
      </trkpt>
      <trkpt lat="37.93933915905654430389404296875" lon="-107.1456518210470676422119140625">
        <ele>3509.800048828125</ele>
        <time>2026-01-06T15:25:11.000Z</time>
        <extensions>
          <ns3:TrackPointExtension>
            <ns3:hr>105</ns3:hr>
            <ns3:cad>0</ns3:cad>
          </ns3:TrackPointExtension>
        </extensions>
      </trkpt>
      <trkpt lat="37.93932817876338958740234375" lon="-107.14561200700700283050537109375">
        <ele>3510.199951171875</ele>
        <time>2026-01-06T15:25:17.000Z</time>
        <extensions>
          <ns3:TrackPointExtension>
            <ns3:hr>103</ns3:hr>
            <ns3:cad>0</ns3:cad>
          </ns3:TrackPointExtension>
        </extensions>
      </trkpt>
      <trkpt lat="37.93932490982115268707275390625" lon="-107.1456032060086727142333984375">
        <ele>3510.199951171875</ele>
        <time>2026-01-06T15:25:18.000Z</time>
        <extensions>
          <ns3:TrackPointExtension>
            <ns3:hr>103</ns3:hr>
            <ns3:cad>0</ns3:cad>
          </ns3:TrackPointExtension>
        </extensions>
      </trkpt>
      <trkpt lat="37.93932138942182064056396484375" lon="-107.14559423737227916717529296875">
        <ele>3510.39990234375</ele>
        <time>2026-01-06T15:25:19.000Z</time>
        <extensions>
          <ns3:TrackPointExtension>
            <ns3:hr>103</ns3:hr>
            <ns3:cad>0</ns3:cad>
          </ns3:TrackPointExtension>
        </extensions>
      </trkpt>
      <trkpt lat="37.93929825536906719207763671875" lon="-107.1455638110637664794921875">
        <ele>3511.199951171875</ele>
        <time>2026-01-06T15:25:25.000Z</time>
        <extensions>
          <ns3:TrackPointExtension>
            <ns3:hr>105</ns3:hr>
            <ns3:cad>78</ns3:cad>
          </ns3:TrackPointExtension>
        </extensions>
      </trkpt>
      <trkpt lat="37.9392743669450283050537109375" lon="-107.14553103782236576080322265625">
        <ele>3511.199951171875</ele>
        <time>2026-01-06T15:25:29.000Z</time>
        <extensions>
          <ns3:TrackPointExtension>
            <ns3:hr>108</ns3:hr>
            <ns3:cad>0</ns3:cad>
          </ns3:TrackPointExtension>
        </extensions>
      </trkpt>
      <trkpt lat="37.939264811575412750244140625" lon="-107.14551494456827640533447265625">
        <ele>3511</ele>
        <time>2026-01-06T15:25:32.000Z</time>
        <extensions>
          <ns3:TrackPointExtension>
            <ns3:hr>108</ns3:hr>
            <ns3:cad>0</ns3:cad>
          </ns3:TrackPointExtension>
        </extensions>
      </trkpt>
      <trkpt lat="37.93925014324486255645751953125" lon="-107.1454955823719501495361328125">
        <ele>3511.39990234375</ele>
        <time>2026-01-06T15:25:35.000Z</time>
        <extensions>
          <ns3:TrackPointExtension>
            <ns3:hr>110</ns3:hr>
            <ns3:cad>0</ns3:cad>
          </ns3:TrackPointExtension>
        </extensions>
      </trkpt>
      <trkpt lat="37.9392378218472003936767578125" lon="-107.145470269024372100830078125">
        <ele>3511.800048828125</ele>
        <time>2026-01-06T15:25:38.000Z</time>
        <extensions>
          <ns3:TrackPointExtension>
            <ns3:hr>111</ns3:hr>
            <ns3:cad>0</ns3:cad>
          </ns3:TrackPointExtension>
        </extensions>
      </trkpt>
      <trkpt lat="37.93921477161347866058349609375" lon="-107.1454355679452419281005859375">
        <ele>3511.800048828125</ele>
        <time>2026-01-06T15:25:43.000Z</time>
        <extensions>
          <ns3:TrackPointExtension>
            <ns3:hr>110</ns3:hr>
            <ns3:cad>0</ns3:cad>
          </ns3:TrackPointExtension>
        </extensions>
      </trkpt>
      <trkpt lat="37.93917923234403133392333984375" lon="-107.14539810083806514739990234375">
        <ele>3511.800048828125</ele>
        <time>2026-01-06T15:25:49.000Z</time>
        <extensions>
          <ns3:TrackPointExtension>
            <ns3:hr>110</ns3:hr>
            <ns3:cad>0</ns3:cad>
          </ns3:TrackPointExtension>
        </extensions>
      </trkpt>
      <trkpt lat="37.93916313908994197845458984375" lon="-107.14538150466978549957275390625">
        <ele>3512.39990234375</ele>
        <time>2026-01-06T15:25:52.000Z</time>
        <extensions>
          <ns3:TrackPointExtension>
            <ns3:hr>111</ns3:hr>
            <ns3:cad>0</ns3:cad>
          </ns3:TrackPointExtension>
        </extensions>
      </trkpt>
      <trkpt lat="37.939146794378757476806640625" lon="-107.14536440558731555938720703125">
        <ele>3513.199951171875</ele>
        <time>2026-01-06T15:25:55.000Z</time>
        <extensions>
          <ns3:TrackPointExtension>
            <ns3:hr>110</ns3:hr>
            <ns3:cad>0</ns3:cad>
          </ns3:TrackPointExtension>
        </extensions>
      </trkpt>
      <trkpt lat="37.93914536945521831512451171875" lon="-107.1453597955405712127685546875">
        <ele>3513.60009765625</ele>
        <time>2026-01-06T15:25:56.000Z</time>
        <extensions>
          <ns3:TrackPointExtension>
            <ns3:hr>111</ns3:hr>
            <ns3:cad>0</ns3:cad>
          </ns3:TrackPointExtension>
        </extensions>
      </trkpt>
      <trkpt lat="37.939146459102630615234375" lon="-107.14532098732888698577880859375">
        <ele>3514.199951171875</ele>
        <time>2026-01-06T15:26:01.000Z</time>
        <extensions>
          <ns3:TrackPointExtension>
            <ns3:hr>110</ns3:hr>
            <ns3:cad>0</ns3:cad>
          </ns3:TrackPointExtension>
        </extensions>
      </trkpt>
      <trkpt lat="37.93914201669394969940185546875" lon="-107.14528561569750308990478515625">
        <ele>3514.39990234375</ele>
        <time>2026-01-06T15:26:07.000Z</time>
        <extensions>
          <ns3:TrackPointExtension>
            <ns3:hr>113</ns3:hr>
            <ns3:cad>0</ns3:cad>
          </ns3:TrackPointExtension>
        </extensions>
      </trkpt>
      <trkpt lat="37.9391415975987911224365234375" lon="-107.14528016746044158935546875">
        <ele>3514.800048828125</ele>
        <time>2026-01-06T15:26:08.000Z</time>
        <extensions>
          <ns3:TrackPointExtension>
            <ns3:hr>114</ns3:hr>
            <ns3:cad>0</ns3:cad>
          </ns3:TrackPointExtension>
        </extensions>
      </trkpt>
      <trkpt lat="37.9391395859420299530029296875" lon="-107.14524974115192890167236328125">
        <ele>3515.800048828125</ele>
        <time>2026-01-06T15:26:13.000Z</time>
        <extensions>
          <ns3:TrackPointExtension>
            <ns3:hr>114</ns3:hr>
            <ns3:cad>0</ns3:cad>
          </ns3:TrackPointExtension>
        </extensions>
      </trkpt>
      <trkpt lat="37.9391412623226642608642578125" lon="-107.14519676752388477325439453125">
        <ele>3515.800048828125</ele>
        <time>2026-01-06T15:26:19.000Z</time>
        <extensions>
          <ns3:TrackPointExtension>
            <ns3:hr>115</ns3:hr>
            <ns3:cad>0</ns3:cad>
          </ns3:TrackPointExtension>
        </extensions>
      </trkpt>
      <trkpt lat="37.93914067558944225311279296875" lon="-107.145174555480480194091796875">
        <ele>3516</ele>
        <time>2026-01-06T15:26:24.000Z</time>
        <extensions>
          <ns3:TrackPointExtension>
            <ns3:hr>115</ns3:hr>
            <ns3:cad>0</ns3:cad>
          </ns3:TrackPointExtension>
        </extensions>
      </trkpt>
      <trkpt lat="37.9391409270465373992919921875" lon="-107.1451251022517681121826171875">
        <ele>3516.60009765625</ele>
        <time>2026-01-06T15:26:30.000Z</time>
        <extensions>
          <ns3:TrackPointExtension>
            <ns3:hr>114</ns3:hr>
            <ns3:cad>0</ns3:cad>
          </ns3:TrackPointExtension>
        </extensions>
      </trkpt>
      <trkpt lat="37.93914168141782283782958984375" lon="-107.14511982165277004241943359375">
        <ele>3517</ele>
        <time>2026-01-06T15:26:31.000Z</time>
        <extensions>
          <ns3:TrackPointExtension>
            <ns3:hr>115</ns3:hr>
            <ns3:cad>0</ns3:cad>
          </ns3:TrackPointExtension>
        </extensions>
      </trkpt>
      <trkpt lat="37.93914201669394969940185546875" lon="-107.14511454105377197265625">
        <ele>3517.199951171875</ele>
        <time>2026-01-06T15:26:32.000Z</time>
        <extensions>
          <ns3:TrackPointExtension>
            <ns3:hr>116</ns3:hr>
            <ns3:cad>0</ns3:cad>
          </ns3:TrackPointExtension>
        </extensions>
      </trkpt>
      <trkpt lat="37.93914201669394969940185546875" lon="-107.14509551413357257843017578125">
        <ele>3517.800048828125</ele>
        <time>2026-01-06T15:26:38.000Z</time>
        <extensions>
          <ns3:TrackPointExtension>
            <ns3:hr>114</ns3:hr>
            <ns3:cad>0</ns3:cad>
          </ns3:TrackPointExtension>
        </extensions>
      </trkpt>
      <trkpt lat="37.93914369307458400726318359375" lon="-107.1450858749449253082275390625">
        <ele>3518</ele>
        <time>2026-01-06T15:26:39.000Z</time>
        <extensions>
          <ns3:TrackPointExtension>
            <ns3:hr>114</ns3:hr>
            <ns3:cad>0</ns3:cad>
          </ns3:TrackPointExtension>
        </extensions>
      </trkpt>
      <trkpt lat="37.93913505971431732177734375" lon="-107.14504145085811614990234375">
        <ele>3518.60009765625</ele>
        <time>2026-01-06T15:26:45.000Z</time>
        <extensions>
          <ns3:TrackPointExtension>
            <ns3:hr>114</ns3:hr>
            <ns3:cad>0</ns3:cad>
          </ns3:TrackPointExtension>
        </extensions>
      </trkpt>
      <trkpt lat="37.93912609107792377471923828125" lon="-107.14499811641871929168701171875">
        <ele>3518.800048828125</ele>
        <time>2026-01-06T15:26:51.000Z</time>
        <extensions>
          <ns3:TrackPointExtension>
            <ns3:hr>114</ns3:hr>
            <ns3:cad>0</ns3:cad>
          </ns3:TrackPointExtension>
        </extensions>
      </trkpt>
      <trkpt lat="37.9391275160014629364013671875" lon="-107.1449862979352474212646484375">
        <ele>3518.800048828125</ele>
        <time>2026-01-06T15:26:52.000Z</time>
        <extensions>
          <ns3:TrackPointExtension>
            <ns3:hr>113</ns3:hr>
            <ns3:cad>0</ns3:cad>
          </ns3:TrackPointExtension>
        </extensions>
      </trkpt>
      <trkpt lat="37.9391275160014629364013671875" lon="-107.14498252607882022857666015625">
        <ele>3519.199951171875</ele>
        <time>2026-01-06T15:26:53.000Z</time>
        <extensions>
          <ns3:TrackPointExtension>
            <ns3:hr>113</ns3:hr>
            <ns3:cad>0</ns3:cad>
          </ns3:TrackPointExtension>
        </extensions>
      </trkpt>
      <trkpt lat="37.93912173248827457427978515625" lon="-107.14494095183908939361572265625">
        <ele>3520.39990234375</ele>
        <time>2026-01-06T15:26:58.000Z</time>
        <extensions>
          <ns3:TrackPointExtension>
            <ns3:hr>113</ns3:hr>
            <ns3:cad>0</ns3:cad>
          </ns3:TrackPointExtension>
        </extensions>
      </trkpt>
      <trkpt lat="37.9391209781169891357421875" lon="-107.144915051758289337158203125">
        <ele>3520.800048828125</ele>
        <time>2026-01-06T15:27:04.000Z</time>
        <extensions>
          <ns3:TrackPointExtension>
            <ns3:hr>113</ns3:hr>
            <ns3:cad>0</ns3:cad>
          </ns3:TrackPointExtension>
        </extensions>
      </trkpt>
      <trkpt lat="37.939114272594451904296875" lon="-107.1448905766010284423828125">
        <ele>3521.39990234375</ele>
        <time>2026-01-06T15:27:08.000Z</time>
        <extensions>
          <ns3:TrackPointExtension>
            <ns3:hr>116</ns3:hr>
            <ns3:cad>0</ns3:cad>
          </ns3:TrackPointExtension>
        </extensions>
      </trkpt>
      <trkpt lat="37.93911360204219818115234375" lon="-107.14488294906914234161376953125">
        <ele>3521.39990234375</ele>
        <time>2026-01-06T15:27:09.000Z</time>
        <extensions>
          <ns3:TrackPointExtension>
            <ns3:hr>117</ns3:hr>
            <ns3:cad>0</ns3:cad>
          </ns3:TrackPointExtension>
        </extensions>
      </trkpt>
      <trkpt lat="37.93911083601415157318115234375" lon="-107.14486065320670604705810546875">
        <ele>3521.60009765625</ele>
        <time>2026-01-06T15:27:12.000Z</time>
        <extensions>
          <ns3:TrackPointExtension>
            <ns3:hr>117</ns3:hr>
            <ns3:cad>0</ns3:cad>
          </ns3:TrackPointExtension>
        </extensions>
      </trkpt>
      <trkpt lat="37.9390973411500453948974609375" lon="-107.14482813142240047454833984375">
        <ele>3522</ele>
        <time>2026-01-06T15:27:17.000Z</time>
        <extensions>
          <ns3:TrackPointExtension>
            <ns3:hr>116</ns3:hr>
            <ns3:cad>0</ns3:cad>
          </ns3:TrackPointExtension>
        </extensions>
      </trkpt>
      <trkpt lat="37.93909206055104732513427734375" lon="-107.14481748640537261962890625">
        <ele>3522.39990234375</ele>
        <time>2026-01-06T15:27:19.000Z</time>
        <extensions>
          <ns3:TrackPointExtension>
            <ns3:hr>115</ns3:hr>
            <ns3:cad>0</ns3:cad>
          </ns3:TrackPointExtension>
        </extensions>
      </trkpt>
      <trkpt lat="37.93908216990530490875244140625" lon="-107.1447847969830036163330078125">
        <ele>3522.800048828125</ele>
        <time>2026-01-06T15:27:23.000Z</time>
        <extensions>
          <ns3:TrackPointExtension>
            <ns3:hr>113</ns3:hr>
            <ns3:cad>0</ns3:cad>
          </ns3:TrackPointExtension>
        </extensions>
      </trkpt>
      <trkpt lat="37.9390641488134860992431640625" lon="-107.144736014306545257568359375">
        <ele>3523.60009765625</ele>
        <time>2026-01-06T15:27:29.000Z</time>
        <extensions>
          <ns3:TrackPointExtension>
            <ns3:hr>115</ns3:hr>
            <ns3:cad>0</ns3:cad>
          </ns3:TrackPointExtension>
        </extensions>
      </trkpt>
      <trkpt lat="37.9390611313283443450927734375" lon="-107.144704163074493408203125">
        <ele>3524.199951171875</ele>
        <time>2026-01-06T15:27:35.000Z</time>
        <extensions>
          <ns3:TrackPointExtension>
            <ns3:hr>116</ns3:hr>
            <ns3:cad>17</ns3:cad>
          </ns3:TrackPointExtension>
        </extensions>
      </trkpt>
      <trkpt lat="37.9390604607760906219482421875" lon="-107.14469519443809986114501953125">
        <ele>3524.39990234375</ele>
        <time>2026-01-06T15:27:36.000Z</time>
        <extensions>
          <ns3:TrackPointExtension>
            <ns3:hr>115</ns3:hr>
            <ns3:cad>17</ns3:cad>
          </ns3:TrackPointExtension>
        </extensions>
      </trkpt>
      <trkpt lat="37.93905861675739288330078125" lon="-107.1446855552494525909423828125">
        <ele>3524.60009765625</ele>
        <time>2026-01-06T15:27:37.000Z</time>
        <extensions>
          <ns3:TrackPointExtension>
            <ns3:hr>114</ns3:hr>
            <ns3:cad>70</ns3:cad>
          </ns3:TrackPointExtension>
        </extensions>
      </trkpt>
      <trkpt lat="37.9390440322458744049072265625" lon="-107.14464590884745121002197265625">
        <ele>3525.39990234375</ele>
        <time>2026-01-06T15:27:43.000Z</time>
        <extensions>
          <ns3:TrackPointExtension>
            <ns3:hr>114</ns3:hr>
            <ns3:cad>0</ns3:cad>
          </ns3:TrackPointExtension>
        </extensions>
      </trkpt>
      <trkpt lat="37.93904847465455532073974609375" lon="-107.14460349641740322113037109375">
        <ele>3525</ele>
        <time>2026-01-06T15:27:49.000Z</time>
        <extensions>
          <ns3:TrackPointExtension>
            <ns3:hr>113</ns3:hr>
            <ns3:cad>0</ns3:cad>
          </ns3:TrackPointExtension>
        </extensions>
      </trkpt>
      <trkpt lat="37.939044199883937835693359375" lon="-107.1445687115192413330078125">
        <ele>3525.60009765625</ele>
        <time>2026-01-06T15:27:55.000Z</time>
        <extensions>
          <ns3:TrackPointExtension>
            <ns3:hr>111</ns3:hr>
            <ns3:cad>0</ns3:cad>
          </ns3:TrackPointExtension>
        </extensions>
      </trkpt>
      <trkpt lat="37.93904445134103298187255859375" lon="-107.1445598267018795013427734375">
        <ele>3525.800048828125</ele>
        <time>2026-01-06T15:27:56.000Z</time>
        <extensions>
          <ns3:TrackPointExtension>
            <ns3:hr>111</ns3:hr>
            <ns3:cad>0</ns3:cad>
          </ns3:TrackPointExtension>
        </extensions>
      </trkpt>
      <trkpt lat="37.9390453733503818511962890625" lon="-107.14455773122608661651611328125">
        <ele>3525.800048828125</ele>
        <time>2026-01-06T15:27:57.000Z</time>
        <extensions>
          <ns3:TrackPointExtension>
            <ns3:hr>111</ns3:hr>
            <ns3:cad>0</ns3:cad>
          </ns3:TrackPointExtension>
        </extensions>
      </trkpt>
      <trkpt lat="37.9390410147607326507568359375" lon="-107.14453359134495258331298828125">
        <ele>3526.39990234375</ele>
        <time>2026-01-06T15:28:03.000Z</time>
        <extensions>
          <ns3:TrackPointExtension>
            <ns3:hr>110</ns3:hr>
            <ns3:cad>0</ns3:cad>
          </ns3:TrackPointExtension>
        </extensions>
      </trkpt>
      <trkpt lat="37.93902902863919734954833984375" lon="-107.1445226110517978668212890625">
        <ele>3526.800048828125</ele>
        <time>2026-01-06T15:28:06.000Z</time>
        <extensions>
          <ns3:TrackPointExtension>
            <ns3:hr>112</ns3:hr>
            <ns3:cad>0</ns3:cad>
          </ns3:TrackPointExtension>
        </extensions>
      </trkpt>
      <trkpt lat="37.93901704251766204833984375" lon="-107.14449671097099781036376953125">
        <ele>3527.60009765625</ele>
        <time>2026-01-06T15:28:09.000Z</time>
        <extensions>
          <ns3:TrackPointExtension>
            <ns3:hr>112</ns3:hr>
            <ns3:cad>0</ns3:cad>
          </ns3:TrackPointExtension>
        </extensions>
      </trkpt>
      <trkpt lat="37.93901436030864715576171875" lon="-107.14449067600071430206298828125">
        <ele>3528</ele>
        <time>2026-01-06T15:28:10.000Z</time>
        <extensions>
          <ns3:TrackPointExtension>
            <ns3:hr>113</ns3:hr>
            <ns3:cad>0</ns3:cad>
          </ns3:TrackPointExtension>
        </extensions>
      </trkpt>
      <trkpt lat="37.93899617157876491546630859375" lon="-107.14446879923343658447265625">
        <ele>3527.800048828125</ele>
        <time>2026-01-06T15:28:15.000Z</time>
        <extensions>
          <ns3:TrackPointExtension>
            <ns3:hr>114</ns3:hr>
            <ns3:cad>77</ns3:cad>
          </ns3:TrackPointExtension>
        </extensions>
      </trkpt>
      <trkpt lat="37.93897119350731372833251953125" lon="-107.14444440789520740509033203125">
        <ele>3528.39990234375</ele>
        <time>2026-01-06T15:28:21.000Z</time>
        <extensions>
          <ns3:TrackPointExtension>
            <ns3:hr>115</ns3:hr>
            <ns3:cad>0</ns3:cad>
          </ns3:TrackPointExtension>
        </extensions>
      </trkpt>
      <trkpt lat="37.938957028090953826904296875" lon="-107.14440853334963321685791015625">
        <ele>3528.800048828125</ele>
        <time>2026-01-06T15:28:27.000Z</time>
        <extensions>
          <ns3:TrackPointExtension>
            <ns3:hr>115</ns3:hr>
            <ns3:cad>0</ns3:cad>
          </ns3:TrackPointExtension>
        </extensions>
      </trkpt>
      <trkpt lat="37.9389546811580657958984375" lon="-107.14440233074128627777099609375">
        <ele>3528.800048828125</ele>
        <time>2026-01-06T15:28:28.000Z</time>
        <extensions>
          <ns3:TrackPointExtension>
            <ns3:hr>115</ns3:hr>
            <ns3:cad>0</ns3:cad>
          </ns3:TrackPointExtension>
        </extensions>
      </trkpt>
      <trkpt lat="37.93895493261516094207763671875" lon="-107.1443888358771800994873046875">
        <ele>3529</ele>
        <time>2026-01-06T15:28:30.000Z</time>
        <extensions>
          <ns3:TrackPointExtension>
            <ns3:hr>117</ns3:hr>
            <ns3:cad>0</ns3:cad>
          </ns3:TrackPointExtension>
        </extensions>
      </trkpt>
      <trkpt lat="37.93895375914871692657470703125" lon="-107.1443646959960460662841796875">
        <ele>3529.39990234375</ele>
        <time>2026-01-06T15:28:34.000Z</time>
        <extensions>
          <ns3:TrackPointExtension>
            <ns3:hr>117</ns3:hr>
            <ns3:cad>0</ns3:cad>
          </ns3:TrackPointExtension>
        </extensions>
      </trkpt>
      <trkpt lat="37.93894194066524505615234375" lon="-107.14432320557534694671630859375">
        <ele>3530.199951171875</ele>
        <time>2026-01-06T15:28:40.000Z</time>
        <extensions>
          <ns3:TrackPointExtension>
            <ns3:hr>115</ns3:hr>
            <ns3:cad>0</ns3:cad>
          </ns3:TrackPointExtension>
        </extensions>
      </trkpt>
      <trkpt lat="37.9389340616762638092041015625" lon="-107.14431281201541423797607421875">
        <ele>3530.199951171875</ele>
        <time>2026-01-06T15:28:45.000Z</time>
        <extensions>
          <ns3:TrackPointExtension>
            <ns3:hr>115</ns3:hr>
            <ns3:cad>0</ns3:cad>
          </ns3:TrackPointExtension>
        </extensions>
      </trkpt>
      <trkpt lat="37.93891838751733303070068359375" lon="-107.14427299797534942626953125">
        <ele>3531.199951171875</ele>
        <time>2026-01-06T15:28:51.000Z</time>
        <extensions>
          <ns3:TrackPointExtension>
            <ns3:hr>114</ns3:hr>
            <ns3:cad>0</ns3:cad>
          </ns3:TrackPointExtension>
        </extensions>
      </trkpt>
      <trkpt lat="37.938914783298969268798828125" lon="-107.1442657895386219024658203125">
        <ele>3531.39990234375</ele>
        <time>2026-01-06T15:28:52.000Z</time>
        <extensions>
          <ns3:TrackPointExtension>
            <ns3:hr>114</ns3:hr>
            <ns3:cad>0</ns3:cad>
          </ns3:TrackPointExtension>
        </extensions>
      </trkpt>
      <trkpt lat="37.93890162371098995208740234375" lon="-107.14424458332359790802001953125">
        <ele>3532</ele>
        <time>2026-01-06T15:28:55.000Z</time>
        <extensions>
          <ns3:TrackPointExtension>
            <ns3:hr>111</ns3:hr>
            <ns3:cad>0</ns3:cad>
          </ns3:TrackPointExtension>
        </extensions>
      </trkpt>
      <trkpt lat="37.93890162371098995208740234375" lon="-107.14424273930490016937255859375">
        <ele>3532.199951171875</ele>
        <time>2026-01-06T15:28:57.000Z</time>
        <extensions>
          <ns3:TrackPointExtension>
            <ns3:hr>111</ns3:hr>
            <ns3:cad>0</ns3:cad>
          </ns3:TrackPointExtension>
        </extensions>
      </trkpt>
      <trkpt lat="37.93889944441616535186767578125" lon="-107.144240476191043853759765625">
        <ele>3532.60009765625</ele>
        <time>2026-01-06T15:28:58.000Z</time>
        <extensions>
          <ns3:TrackPointExtension>
            <ns3:hr>111</ns3:hr>
            <ns3:cad>0</ns3:cad>
          </ns3:TrackPointExtension>
        </extensions>
      </trkpt>
      <trkpt lat="37.9388877935707569122314453125" lon="-107.14420954696834087371826171875">
        <ele>3532.39990234375</ele>
        <time>2026-01-06T15:29:03.000Z</time>
        <extensions>
          <ns3:TrackPointExtension>
            <ns3:hr>110</ns3:hr>
            <ns3:cad>0</ns3:cad>
          </ns3:TrackPointExtension>
        </extensions>
      </trkpt>
      <trkpt lat="37.938875220715999603271484375" lon="-107.1441866643726825714111328125">
        <ele>3532.199951171875</ele>
        <time>2026-01-06T15:29:07.000Z</time>
        <extensions>
          <ns3:TrackPointExtension>
            <ns3:hr>107</ns3:hr>
            <ns3:cad>0</ns3:cad>
          </ns3:TrackPointExtension>
        </extensions>
      </trkpt>
      <trkpt lat="37.93887413106858730316162109375" lon="-107.14418322779238224029541015625">
        <ele>3532.39990234375</ele>
        <time>2026-01-06T15:29:09.000Z</time>
        <extensions>
          <ns3:TrackPointExtension>
            <ns3:hr>105</ns3:hr>
            <ns3:cad>0</ns3:cad>
          </ns3:TrackPointExtension>
        </extensions>
      </trkpt>
      <trkpt lat="37.93885401450097560882568359375" lon="-107.14417216368019580841064453125">
        <ele>3533.800048828125</ele>
        <time>2026-01-06T15:29:14.000Z</time>
        <extensions>
          <ns3:TrackPointExtension>
            <ns3:hr>105</ns3:hr>
            <ns3:cad>0</ns3:cad>
          </ns3:TrackPointExtension>
        </extensions>
      </trkpt>
      <trkpt lat="37.93884160928428173065185546875" lon="-107.144164703786373138427734375">
        <ele>3534.199951171875</ele>
        <time>2026-01-06T15:29:16.000Z</time>
        <extensions>
          <ns3:TrackPointExtension>
            <ns3:hr>109</ns3:hr>
            <ns3:cad>0</ns3:cad>
          </ns3:TrackPointExtension>
        </extensions>
      </trkpt>
      <trkpt lat="37.93883205391466617584228515625" lon="-107.144162692129611968994140625">
        <ele>3535</ele>
        <time>2026-01-06T15:29:18.000Z</time>
        <extensions>
          <ns3:TrackPointExtension>
            <ns3:hr>111</ns3:hr>
            <ns3:cad>0</ns3:cad>
          </ns3:TrackPointExtension>
        </extensions>
      </trkpt>
      <trkpt lat="37.93880087323486804962158203125" lon="-107.14416344650089740753173828125">
        <ele>3535.199951171875</ele>
        <time>2026-01-06T15:29:22.000Z</time>
        <extensions>
          <ns3:TrackPointExtension>
            <ns3:hr>113</ns3:hr>
            <ns3:cad>0</ns3:cad>
          </ns3:TrackPointExtension>
        </extensions>
      </trkpt>
      <trkpt lat="37.9387888871133327484130859375" lon="-107.14415858499705791473388671875">
        <ele>3535</ele>
        <time>2026-01-06T15:29:28.000Z</time>
        <extensions>
          <ns3:TrackPointExtension>
            <ns3:hr>114</ns3:hr>
            <ns3:cad>0</ns3:cad>
          </ns3:TrackPointExtension>
        </extensions>
      </trkpt>
      <trkpt lat="37.93876298703253269195556640625" lon="-107.1441507898271083831787109375">
        <ele>3535</ele>
        <time>2026-01-06T15:29:34.000Z</time>
        <extensions>
          <ns3:TrackPointExtension>
            <ns3:hr>114</ns3:hr>
            <ns3:cad>0</ns3:cad>
          </ns3:TrackPointExtension>
        </extensions>
      </trkpt>
      <trkpt lat="37.93875125236809253692626953125" lon="-107.144148610532283782958984375">
        <ele>3535.800048828125</ele>
        <time>2026-01-06T15:29:36.000Z</time>
        <extensions>
          <ns3:TrackPointExtension>
            <ns3:hr>114</ns3:hr>
            <ns3:cad>0</ns3:cad>
          </ns3:TrackPointExtension>
        </extensions>
      </trkpt>
      <trkpt lat="37.93874437920749187469482421875" lon="-107.1441507898271083831787109375">
        <ele>3536.60009765625</ele>
        <time>2026-01-06T15:29:37.000Z</time>
        <extensions>
          <ns3:TrackPointExtension>
            <ns3:hr>114</ns3:hr>
            <ns3:cad>0</ns3:cad>
          </ns3:TrackPointExtension>
        </extensions>
      </trkpt>
      <trkpt lat="37.93872610665857791900634765625" lon="-107.14416160248219966888427734375">
        <ele>3537</ele>
        <time>2026-01-06T15:29:43.000Z</time>
        <extensions>
          <ns3:TrackPointExtension>
            <ns3:hr>115</ns3:hr>
            <ns3:cad>0</ns3:cad>
          </ns3:TrackPointExtension>
        </extensions>
      </trkpt>
      <trkpt lat="37.9386896453797817230224609375" lon="-107.14415489695966243743896484375">
        <ele>3537.199951171875</ele>
        <time>2026-01-06T15:29:49.000Z</time>
        <extensions>
          <ns3:TrackPointExtension>
            <ns3:hr>116</ns3:hr>
            <ns3:cad>0</ns3:cad>
          </ns3:TrackPointExtension>
        </extensions>
      </trkpt>
      <trkpt lat="37.938646562397480010986328125" lon="-107.14413779787719249725341796875">
        <ele>3537.199951171875</ele>
        <time>2026-01-06T15:29:55.000Z</time>
        <extensions>
          <ns3:TrackPointExtension>
            <ns3:hr>117</ns3:hr>
            <ns3:cad>0</ns3:cad>
          </ns3:TrackPointExtension>
        </extensions>
      </trkpt>
      <trkpt lat="37.938644550740718841552734375" lon="-107.144141234457492828369140625">
        <ele>3537.60009765625</ele>
        <time>2026-01-06T15:29:56.000Z</time>
        <extensions>
          <ns3:TrackPointExtension>
            <ns3:hr>118</ns3:hr>
            <ns3:cad>0</ns3:cad>
          </ns3:TrackPointExtension>
        </extensions>
      </trkpt>
      <trkpt lat="37.938625775277614593505859375" lon="-107.1441390551626682281494140625">
        <ele>3538</ele>
        <time>2026-01-06T15:30:00.000Z</time>
        <extensions>
          <ns3:TrackPointExtension>
            <ns3:hr>116</ns3:hr>
            <ns3:cad>0</ns3:cad>
          </ns3:TrackPointExtension>
        </extensions>
      </trkpt>
      <trkpt lat="37.93859518133103847503662109375" lon="-107.14413595385849475860595703125">
        <ele>3538.39990234375</ele>
        <time>2026-01-06T15:30:06.000Z</time>
        <extensions>
          <ns3:TrackPointExtension>
            <ns3:hr>114</ns3:hr>
            <ns3:cad>0</ns3:cad>
          </ns3:TrackPointExtension>
        </extensions>
      </trkpt>
      <trkpt lat="37.9385899007320404052734375" lon="-107.1441377140581607818603515625">
        <ele>3538.800048828125</ele>
        <time>2026-01-06T15:30:09.000Z</time>
        <extensions>
          <ns3:TrackPointExtension>
            <ns3:hr>114</ns3:hr>
            <ns3:cad>0</ns3:cad>
          </ns3:TrackPointExtension>
        </extensions>
      </trkpt>
      <trkpt lat="37.9385709576308727264404296875" lon="-107.1441368758678436279296875">
        <ele>3539</ele>
        <time>2026-01-06T15:30:11.000Z</time>
        <extensions>
          <ns3:TrackPointExtension>
            <ns3:hr>115</ns3:hr>
            <ns3:cad>0</ns3:cad>
          </ns3:TrackPointExtension>
        </extensions>
      </trkpt>
      <trkpt lat="37.9385411180555820465087890625" lon="-107.14413327164947986602783203125">
        <ele>3539.60009765625</ele>
        <time>2026-01-06T15:30:16.000Z</time>
        <extensions>
          <ns3:TrackPointExtension>
            <ns3:hr>114</ns3:hr>
            <ns3:cad>0</ns3:cad>
          </ns3:TrackPointExtension>
        </extensions>
      </trkpt>
      <trkpt lat="37.9385350830852985382080078125" lon="-107.14413193054497241973876953125">
        <ele>3539.800048828125</ele>
        <time>2026-01-06T15:30:17.000Z</time>
        <extensions>
          <ns3:TrackPointExtension>
            <ns3:hr>114</ns3:hr>
            <ns3:cad>0</ns3:cad>
          </ns3:TrackPointExtension>
        </extensions>
      </trkpt>
      <trkpt lat="37.93851236812770366668701171875" lon="-107.1441328525543212890625">
        <ele>3540.39990234375</ele>
        <time>2026-01-06T15:30:23.000Z</time>
        <extensions>
          <ns3:TrackPointExtension>
            <ns3:hr>115</ns3:hr>
            <ns3:cad>0</ns3:cad>
          </ns3:TrackPointExtension>
        </extensions>
      </trkpt>
      <trkpt lat="37.93849426321685314178466796875" lon="-107.14412924833595752716064453125">
        <ele>3540.60009765625</ele>
        <time>2026-01-06T15:30:28.000Z</time>
        <extensions>
          <ns3:TrackPointExtension>
            <ns3:hr>116</ns3:hr>
            <ns3:cad>0</ns3:cad>
          </ns3:TrackPointExtension>
        </extensions>
      </trkpt>
      <trkpt lat="37.938476242125034332275390625" lon="-107.14413394220173358917236328125">
        <ele>3541</ele>
        <time>2026-01-06T15:30:31.000Z</time>
        <extensions>
          <ns3:TrackPointExtension>
            <ns3:hr>116</ns3:hr>
            <ns3:cad>0</ns3:cad>
          </ns3:TrackPointExtension>
        </extensions>
      </trkpt>
      <trkpt lat="37.93844170868396759033203125" lon="-107.1441300027072429656982421875">
        <ele>3541</ele>
        <time>2026-01-06T15:30:36.000Z</time>
        <extensions>
          <ns3:TrackPointExtension>
            <ns3:hr>116</ns3:hr>
            <ns3:cad>0</ns3:cad>
          </ns3:TrackPointExtension>
        </extensions>
      </trkpt>
      <trkpt lat="37.9384231008589267730712890625" lon="-107.14413352310657501220703125">
        <ele>3541.60009765625</ele>
        <time>2026-01-06T15:30:40.000Z</time>
        <extensions>
          <ns3:TrackPointExtension>
            <ns3:hr>116</ns3:hr>
            <ns3:cad>0</ns3:cad>
          </ns3:TrackPointExtension>
        </extensions>
      </trkpt>
      <trkpt lat="37.938379012048244476318359375" lon="-107.144124470651149749755859375">
        <ele>3542</ele>
        <time>2026-01-06T15:30:45.000Z</time>
        <extensions>
          <ns3:TrackPointExtension>
            <ns3:hr>115</ns3:hr>
            <ns3:cad>0</ns3:cad>
          </ns3:TrackPointExtension>
        </extensions>
      </trkpt>
      <trkpt lat="37.9383741505444049835205078125" lon="-107.14412505738437175750732421875">
        <ele>3542</ele>
        <time>2026-01-06T15:30:46.000Z</time>
        <extensions>
          <ns3:TrackPointExtension>
            <ns3:hr>115</ns3:hr>
            <ns3:cad>0</ns3:cad>
          </ns3:TrackPointExtension>
        </extensions>
      </trkpt>
      <trkpt lat="37.93835696764290332794189453125" lon="-107.1441266499459743499755859375">
        <ele>3542</ele>
        <time>2026-01-06T15:30:51.000Z</time>
        <extensions>
          <ns3:TrackPointExtension>
            <ns3:hr>116</ns3:hr>
            <ns3:cad>73</ns3:cad>
          </ns3:TrackPointExtension>
        </extensions>
      </trkpt>
      <trkpt lat="37.938322015106678009033203125" lon="-107.14411281980574131011962890625">
        <ele>3542.199951171875</ele>
        <time>2026-01-06T15:30:57.000Z</time>
        <extensions>
          <ns3:TrackPointExtension>
            <ns3:hr>115</ns3:hr>
            <ns3:cad>0</ns3:cad>
          </ns3:TrackPointExtension>
        </extensions>
      </trkpt>
      <trkpt lat="37.93828253634274005889892578125" lon="-107.14409337379038333892822265625">
        <ele>3542.199951171875</ele>
        <time>2026-01-06T15:31:03.000Z</time>
        <extensions>
          <ns3:TrackPointExtension>
            <ns3:hr>117</ns3:hr>
            <ns3:cad>0</ns3:cad>
          </ns3:TrackPointExtension>
        </extensions>
      </trkpt>
      <trkpt lat="37.9382782615721225738525390625" lon="-107.1440907754004001617431640625">
        <ele>3542.199951171875</ele>
        <time>2026-01-06T15:31:04.000Z</time>
        <extensions>
          <ns3:TrackPointExtension>
            <ns3:hr>116</ns3:hr>
            <ns3:cad>0</ns3:cad>
          </ns3:TrackPointExtension>
        </extensions>
      </trkpt>
      <trkpt lat="37.93825663626194000244140625" lon="-107.14407853782176971435546875">
        <ele>3543</ele>
        <time>2026-01-06T15:31:09.000Z</time>
        <extensions>
          <ns3:TrackPointExtension>
            <ns3:hr>117</ns3:hr>
            <ns3:cad>0</ns3:cad>
          </ns3:TrackPointExtension>
        </extensions>
      </trkpt>
      <trkpt lat="37.938228137791156768798828125" lon="-107.14406370185315608978271484375">
        <ele>3543.800048828125</ele>
        <time>2026-01-06T15:31:15.000Z</time>
        <extensions>
          <ns3:TrackPointExtension>
            <ns3:hr>115</ns3:hr>
            <ns3:cad>0</ns3:cad>
          </ns3:TrackPointExtension>
        </extensions>
      </trkpt>
      <trkpt lat="37.9382117092609405517578125" lon="-107.144039310514926910400390625">
        <ele>3543.800048828125</ele>
        <time>2026-01-06T15:31:20.000Z</time>
        <extensions>
          <ns3:TrackPointExtension>
            <ns3:hr>114</ns3:hr>
            <ns3:cad>0</ns3:cad>
          </ns3:TrackPointExtension>
        </extensions>
      </trkpt>
      <trkpt lat="37.9382061772048473358154296875" lon="-107.14402413927018642425537109375">
        <ele>3544</ele>
        <time>2026-01-06T15:31:23.000Z</time>
        <extensions>
          <ns3:TrackPointExtension>
            <ns3:hr>114</ns3:hr>
            <ns3:cad>0</ns3:cad>
          </ns3:TrackPointExtension>
        </extensions>
      </trkpt>
      <trkpt lat="37.9381907545030117034912109375" lon="-107.143992371857166290283203125">
        <ele>3544.39990234375</ele>
        <time>2026-01-06T15:31:27.000Z</time>
        <extensions>
          <ns3:TrackPointExtension>
            <ns3:hr>113</ns3:hr>
            <ns3:cad>0</ns3:cad>
          </ns3:TrackPointExtension>
        </extensions>
      </trkpt>
      <trkpt lat="37.938185892999172210693359375" lon="-107.14397032745182514190673828125">
        <ele>3545.199951171875</ele>
        <time>2026-01-06T15:31:30.000Z</time>
        <extensions>
          <ns3:TrackPointExtension>
            <ns3:hr>113</ns3:hr>
            <ns3:cad>0</ns3:cad>
          </ns3:TrackPointExtension>
        </extensions>
      </trkpt>
      <trkpt lat="37.93818178586661815643310546875" lon="-107.14395171962678432464599609375">
        <ele>3545.199951171875</ele>
        <time>2026-01-06T15:31:34.000Z</time>
        <extensions>
          <ns3:TrackPointExtension>
            <ns3:hr>111</ns3:hr>
            <ns3:cad>0</ns3:cad>
          </ns3:TrackPointExtension>
        </extensions>
      </trkpt>
      <trkpt lat="37.93816837482154369354248046875" lon="-107.14391819201409816741943359375">
        <ele>3546</ele>
        <time>2026-01-06T15:31:40.000Z</time>
        <extensions>
          <ns3:TrackPointExtension>
            <ns3:hr>109</ns3:hr>
            <ns3:cad>0</ns3:cad>
          </ns3:TrackPointExtension>
        </extensions>
      </trkpt>
      <trkpt lat="37.93816619552671909332275390625" lon="-107.14390729553997516632080078125">
        <ele>3546.199951171875</ele>
        <time>2026-01-06T15:31:41.000Z</time>
        <extensions>
          <ns3:TrackPointExtension>
            <ns3:hr>109</ns3:hr>
            <ns3:cad>0</ns3:cad>
          </ns3:TrackPointExtension>
        </extensions>
      </trkpt>
      <trkpt lat="37.9381515271961688995361328125" lon="-107.1438560821115970611572265625">
        <ele>3546.39990234375</ele>
        <time>2026-01-06T15:31:46.000Z</time>
        <extensions>
          <ns3:TrackPointExtension>
            <ns3:hr>109</ns3:hr>
            <ns3:cad>45</ns3:cad>
          </ns3:TrackPointExtension>
        </extensions>
      </trkpt>
      <trkpt lat="37.93813786469399929046630859375" lon="-107.14382372796535491943359375">
        <ele>3546.199951171875</ele>
        <time>2026-01-06T15:31:51.000Z</time>
        <extensions>
          <ns3:TrackPointExtension>
            <ns3:hr>109</ns3:hr>
            <ns3:cad>0</ns3:cad>
          </ns3:TrackPointExtension>
        </extensions>
      </trkpt>
      <trkpt lat="37.93811774812638759613037109375" lon="-107.14376430027186870574951171875">
        <ele>3546.60009765625</ele>
        <time>2026-01-06T15:31:57.000Z</time>
        <extensions>
          <ns3:TrackPointExtension>
            <ns3:hr>111</ns3:hr>
            <ns3:cad>0</ns3:cad>
          </ns3:TrackPointExtension>
        </extensions>
      </trkpt>
      <trkpt lat="37.9381025768816471099853515625" lon="-107.14372959919273853302001953125">
        <ele>3546.800048828125</ele>
        <time>2026-01-06T15:32:02.000Z</time>
        <extensions>
          <ns3:TrackPointExtension>
            <ns3:hr>112</ns3:hr>
            <ns3:cad>0</ns3:cad>
          </ns3:TrackPointExtension>
        </extensions>
      </trkpt>
      <trkpt lat="37.9380814544856548309326171875" lon="-107.1436807326972484588623046875">
        <ele>3547.199951171875</ele>
        <time>2026-01-06T15:32:08.000Z</time>
        <extensions>
          <ns3:TrackPointExtension>
            <ns3:hr>113</ns3:hr>
            <ns3:cad>0</ns3:cad>
          </ns3:TrackPointExtension>
        </extensions>
      </trkpt>
      <trkpt lat="37.938078604638576507568359375" lon="-107.14367779903113842010498046875">
        <ele>3547.39990234375</ele>
        <time>2026-01-06T15:32:09.000Z</time>
        <extensions>
          <ns3:TrackPointExtension>
            <ns3:hr>113</ns3:hr>
            <ns3:cad>0</ns3:cad>
          </ns3:TrackPointExtension>
        </extensions>
      </trkpt>
      <trkpt lat="37.93805454857647418975830078125" lon="-107.14363169856369495391845703125">
        <ele>3548.199951171875</ele>
        <time>2026-01-06T15:32:15.000Z</time>
        <extensions>
          <ns3:TrackPointExtension>
            <ns3:hr>112</ns3:hr>
            <ns3:cad>0</ns3:cad>
          </ns3:TrackPointExtension>
        </extensions>
      </trkpt>
      <trkpt lat="37.9380449093878269195556640625" lon="-107.14361476711928844451904296875">
        <ele>3548.39990234375</ele>
        <time>2026-01-06T15:32:17.000Z</time>
        <extensions>
          <ns3:TrackPointExtension>
            <ns3:hr>112</ns3:hr>
            <ns3:cad>44</ns3:cad>
          </ns3:TrackPointExtension>
        </extensions>
      </trkpt>
      <trkpt lat="37.9380304925143718719482421875" lon="-107.14359431527554988861083984375">
        <ele>3548.60009765625</ele>
        <time>2026-01-06T15:32:20.000Z</time>
        <extensions>
          <ns3:TrackPointExtension>
            <ns3:hr>113</ns3:hr>
            <ns3:cad>0</ns3:cad>
          </ns3:TrackPointExtension>
        </extensions>
      </trkpt>
      <trkpt lat="37.93800861574709415435791015625" lon="-107.14355760253965854644775390625">
        <ele>3548</ele>
        <time>2026-01-06T15:32:26.000Z</time>
        <extensions>
          <ns3:TrackPointExtension>
            <ns3:hr>114</ns3:hr>
            <ns3:cad>42</ns3:cad>
          </ns3:TrackPointExtension>
        </extensions>
      </trkpt>
      <trkpt lat="37.93800425715744495391845703125" lon="-107.14354938827455043792724609375">
        <ele>3548.199951171875</ele>
        <time>2026-01-06T15:32:27.000Z</time>
        <extensions>
          <ns3:TrackPointExtension>
            <ns3:hr>114</ns3:hr>
            <ns3:cad>41</ns3:cad>
          </ns3:TrackPointExtension>
        </extensions>
      </trkpt>
      <trkpt lat="37.93799201957881450653076171875" lon="-107.1435117535293102264404296875">
        <ele>3549</ele>
        <time>2026-01-06T15:32:33.000Z</time>
        <extensions>
          <ns3:TrackPointExtension>
            <ns3:hr>113</ns3:hr>
            <ns3:cad>0</ns3:cad>
          </ns3:TrackPointExtension>
        </extensions>
      </trkpt>
      <trkpt lat="37.937977015972137451171875" lon="-107.1434678323566913604736328125">
        <ele>3549.39990234375</ele>
        <time>2026-01-06T15:32:38.000Z</time>
        <extensions>
          <ns3:TrackPointExtension>
            <ns3:hr>110</ns3:hr>
            <ns3:cad>0</ns3:cad>
          </ns3:TrackPointExtension>
        </extensions>
      </trkpt>
      <trkpt lat="37.9379677958786487579345703125" lon="-107.14344746433198451995849609375">
        <ele>3549.39990234375</ele>
        <time>2026-01-06T15:32:40.000Z</time>
        <extensions>
          <ns3:TrackPointExtension>
            <ns3:hr>109</ns3:hr>
            <ns3:cad>40</ns3:cad>
          </ns3:TrackPointExtension>
        </extensions>
      </trkpt>
      <trkpt lat="37.93796553276479244232177734375" lon="-107.14343254454433917999267578125">
        <ele>3549.60009765625</ele>
        <time>2026-01-06T15:32:42.000Z</time>
        <extensions>
          <ns3:TrackPointExtension>
            <ns3:hr>109</ns3:hr>
            <ns3:cad>0</ns3:cad>
          </ns3:TrackPointExtension>
        </extensions>
      </trkpt>
      <trkpt lat="37.9379515349864959716796875" lon="-107.14340857230126857757568359375">
        <ele>3549.60009765625</ele>
        <time>2026-01-06T15:32:45.000Z</time>
        <extensions>
          <ns3:TrackPointExtension>
            <ns3:hr>112</ns3:hr>
            <ns3:cad>0</ns3:cad>
          </ns3:TrackPointExtension>
        </extensions>
      </trkpt>
      <trkpt lat="37.93794642202556133270263671875" lon="-107.14340354315936565399169921875">
        <ele>3549.60009765625</ele>
        <time>2026-01-06T15:32:46.000Z</time>
        <extensions>
          <ns3:TrackPointExtension>
            <ns3:hr>112</ns3:hr>
            <ns3:cad>0</ns3:cad>
          </ns3:TrackPointExtension>
        </extensions>
      </trkpt>
      <trkpt lat="37.9379232041537761688232421875" lon="-107.143374793231487274169921875">
        <ele>3550</ele>
        <time>2026-01-06T15:32:51.000Z</time>
        <extensions>
          <ns3:TrackPointExtension>
            <ns3:hr>114</ns3:hr>
            <ns3:cad>0</ns3:cad>
          </ns3:TrackPointExtension>
        </extensions>
      </trkpt>
      <trkpt lat="37.937896549701690673828125" lon="-107.143341265618801116943359375">
        <ele>3550.39990234375</ele>
        <time>2026-01-06T15:32:57.000Z</time>
        <extensions>
          <ns3:TrackPointExtension>
            <ns3:hr>114</ns3:hr>
            <ns3:cad>0</ns3:cad>
          </ns3:TrackPointExtension>
        </extensions>
      </trkpt>
      <trkpt lat="37.9378923587501049041748046875" lon="-107.1433343924582004547119140625">
        <ele>3550.39990234375</ele>
        <time>2026-01-06T15:32:58.000Z</time>
        <extensions>
          <ns3:TrackPointExtension>
            <ns3:hr>113</ns3:hr>
            <ns3:cad>0</ns3:cad>
          </ns3:TrackPointExtension>
        </extensions>
      </trkpt>
      <trkpt lat="37.9378725774586200714111328125" lon="-107.1433015353977680206298828125">
        <ele>3550.199951171875</ele>
        <time>2026-01-06T15:33:04.000Z</time>
        <extensions>
          <ns3:TrackPointExtension>
            <ns3:hr>112</ns3:hr>
            <ns3:cad>0</ns3:cad>
          </ns3:TrackPointExtension>
        </extensions>
      </trkpt>
      <trkpt lat="37.9378578253090381622314453125" lon="-107.1432807482779026031494140625">
        <ele>3550.199951171875</ele>
        <time>2026-01-06T15:33:06.000Z</time>
        <extensions>
          <ns3:TrackPointExtension>
            <ns3:hr>112</ns3:hr>
            <ns3:cad>0</ns3:cad>
          </ns3:TrackPointExtension>
        </extensions>
      </trkpt>
      <trkpt lat="37.93782957829535007476806640625" lon="-107.1432435326278209686279296875">
        <ele>3550.60009765625</ele>
        <time>2026-01-06T15:33:12.000Z</time>
        <extensions>
          <ns3:TrackPointExtension>
            <ns3:hr>112</ns3:hr>
            <ns3:cad>0</ns3:cad>
          </ns3:TrackPointExtension>
        </extensions>
      </trkpt>
      <trkpt lat="37.93782270513474941253662109375" lon="-107.14323439635336399078369140625">
        <ele>3550.60009765625</ele>
        <time>2026-01-06T15:33:13.000Z</time>
        <extensions>
          <ns3:TrackPointExtension>
            <ns3:hr>112</ns3:hr>
            <ns3:cad>0</ns3:cad>
          </ns3:TrackPointExtension>
        </extensions>
      </trkpt>
      <trkpt lat="37.93780476786196231842041015625" lon="-107.1432140283286571502685546875">
        <ele>3551.199951171875</ele>
        <time>2026-01-06T15:33:17.000Z</time>
        <extensions>
          <ns3:TrackPointExtension>
            <ns3:hr>112</ns3:hr>
            <ns3:cad>0</ns3:cad>
          </ns3:TrackPointExtension>
        </extensions>
      </trkpt>
      <trkpt lat="37.93777962215244770050048828125" lon="-107.143187038600444793701171875">
        <ele>3551.199951171875</ele>
        <time>2026-01-06T15:33:22.000Z</time>
        <extensions>
          <ns3:TrackPointExtension>
            <ns3:hr>115</ns3:hr>
            <ns3:cad>0</ns3:cad>
          </ns3:TrackPointExtension>
        </extensions>
      </trkpt>
      <trkpt lat="37.937772832810878753662109375" lon="-107.143177650868892669677734375">
        <ele>3551.199951171875</ele>
        <time>2026-01-06T15:33:23.000Z</time>
        <extensions>
          <ns3:TrackPointExtension>
            <ns3:hr>115</ns3:hr>
            <ns3:cad>0</ns3:cad>
          </ns3:TrackPointExtension>
        </extensions>
      </trkpt>
      <trkpt lat="37.93776336126029491424560546875" lon="-107.14316390454769134521484375">
        <ele>3551</ele>
        <time>2026-01-06T15:33:29.000Z</time>
        <extensions>
          <ns3:TrackPointExtension>
            <ns3:hr>115</ns3:hr>
            <ns3:cad>0</ns3:cad>
          </ns3:TrackPointExtension>
        </extensions>
      </trkpt>
      <trkpt lat="37.93776336126029491424560546875" lon="-107.14316390454769134521484375">
        <ele>3551</ele>
        <time>2026-01-06T15:33:30.000Z</time>
        <extensions>
          <ns3:TrackPointExtension>
            <ns3:hr>115</ns3:hr>
            <ns3:cad>0</ns3:cad>
          </ns3:TrackPointExtension>
        </extensions>
      </trkpt>
      <trkpt lat="37.93776336126029491424560546875" lon="-107.14316390454769134521484375">
        <ele>3551.199951171875</ele>
        <time>2026-01-06T15:33:35.000Z</time>
        <extensions>
          <ns3:TrackPointExtension>
            <ns3:hr>112</ns3:hr>
            <ns3:cad>0</ns3:cad>
          </ns3:TrackPointExtension>
        </extensions>
      </trkpt>
      <trkpt lat="37.93776336126029491424560546875" lon="-107.14316390454769134521484375">
        <ele>3550.800048828125</ele>
        <time>2026-01-06T15:33:41.000Z</time>
        <extensions>
          <ns3:TrackPointExtension>
            <ns3:hr>109</ns3:hr>
            <ns3:cad>0</ns3:cad>
          </ns3:TrackPointExtension>
        </extensions>
      </trkpt>
      <trkpt lat="37.93776336126029491424560546875" lon="-107.14316390454769134521484375">
        <ele>3550.800048828125</ele>
        <time>2026-01-06T15:33:47.000Z</time>
        <extensions>
          <ns3:TrackPointExtension>
            <ns3:hr>106</ns3:hr>
            <ns3:cad>0</ns3:cad>
          </ns3:TrackPointExtension>
        </extensions>
      </trkpt>
      <trkpt lat="37.93776336126029491424560546875" lon="-107.14316390454769134521484375">
        <ele>3551</ele>
        <time>2026-01-06T15:33:48.000Z</time>
        <extensions>
          <ns3:TrackPointExtension>
            <ns3:hr>105</ns3:hr>
            <ns3:cad>0</ns3:cad>
          </ns3:TrackPointExtension>
        </extensions>
      </trkpt>
      <trkpt lat="37.93776336126029491424560546875" lon="-107.14316390454769134521484375">
        <ele>3550.800048828125</ele>
        <time>2026-01-06T15:33:54.000Z</time>
        <extensions>
          <ns3:TrackPointExtension>
            <ns3:hr>104</ns3:hr>
            <ns3:cad>0</ns3:cad>
          </ns3:TrackPointExtension>
        </extensions>
      </trkpt>
      <trkpt lat="37.93776403181254863739013671875" lon="-107.1431630663573741912841796875">
        <ele>3550.800048828125</ele>
        <time>2026-01-06T15:33:58.000Z</time>
        <extensions>
          <ns3:TrackPointExtension>
            <ns3:hr>103</ns3:hr>
            <ns3:cad>0</ns3:cad>
          </ns3:TrackPointExtension>
        </extensions>
      </trkpt>
      <trkpt lat="37.93776336126029491424560546875" lon="-107.14316390454769134521484375">
        <ele>3551.199951171875</ele>
        <time>2026-01-06T15:34:04.000Z</time>
        <extensions>
          <ns3:TrackPointExtension>
            <ns3:hr>104</ns3:hr>
            <ns3:cad>0</ns3:cad>
          </ns3:TrackPointExtension>
        </extensions>
      </trkpt>
      <trkpt lat="37.93776336126029491424560546875" lon="-107.14316390454769134521484375">
        <ele>3551.199951171875</ele>
        <time>2026-01-06T15:34:06.000Z</time>
        <extensions>
          <ns3:TrackPointExtension>
            <ns3:hr>103</ns3:hr>
            <ns3:cad>0</ns3:cad>
          </ns3:TrackPointExtension>
        </extensions>
      </trkpt>
      <trkpt lat="37.93776336126029491424560546875" lon="-107.14316390454769134521484375">
        <ele>3550.800048828125</ele>
        <time>2026-01-06T15:34:09.000Z</time>
        <extensions>
          <ns3:TrackPointExtension>
            <ns3:hr>99</ns3:hr>
            <ns3:cad>0</ns3:cad>
          </ns3:TrackPointExtension>
        </extensions>
      </trkpt>
      <trkpt lat="37.93776336126029491424560546875" lon="-107.14316390454769134521484375">
        <ele>3550.39990234375</ele>
        <time>2026-01-06T15:34:14.000Z</time>
        <extensions>
          <ns3:TrackPointExtension>
            <ns3:hr>96</ns3:hr>
            <ns3:cad>0</ns3:cad>
          </ns3:TrackPointExtension>
        </extensions>
      </trkpt>
      <trkpt lat="37.93776336126029491424560546875" lon="-107.14316390454769134521484375">
        <ele>3550.60009765625</ele>
        <time>2026-01-06T15:34:16.000Z</time>
        <extensions>
          <ns3:TrackPointExtension>
            <ns3:hr>95</ns3:hr>
            <ns3:cad>0</ns3:cad>
          </ns3:TrackPointExtension>
        </extensions>
      </trkpt>
      <trkpt lat="37.93776336126029491424560546875" lon="-107.14316390454769134521484375">
        <ele>3550.39990234375</ele>
        <time>2026-01-06T15:34:22.000Z</time>
        <extensions>
          <ns3:TrackPointExtension>
            <ns3:hr>94</ns3:hr>
            <ns3:cad>0</ns3:cad>
          </ns3:TrackPointExtension>
        </extensions>
      </trkpt>
      <trkpt lat="37.93776336126029491424560546875" lon="-107.14316390454769134521484375">
        <ele>3551</ele>
        <time>2026-01-06T15:34:28.000Z</time>
        <extensions>
          <ns3:TrackPointExtension>
            <ns3:hr>93</ns3:hr>
            <ns3:cad>0</ns3:cad>
          </ns3:TrackPointExtension>
        </extensions>
      </trkpt>
      <trkpt lat="37.93776336126029491424560546875" lon="-107.14316390454769134521484375">
        <ele>3551.199951171875</ele>
        <time>2026-01-06T15:34:30.000Z</time>
        <extensions>
          <ns3:TrackPointExtension>
            <ns3:hr>90</ns3:hr>
            <ns3:cad>0</ns3:cad>
          </ns3:TrackPointExtension>
        </extensions>
      </trkpt>
      <trkpt lat="37.93776336126029491424560546875" lon="-107.14316390454769134521484375">
        <ele>3551.800048828125</ele>
        <time>2026-01-06T15:34:33.000Z</time>
        <extensions>
          <ns3:TrackPointExtension>
            <ns3:hr>88</ns3:hr>
            <ns3:cad>0</ns3:cad>
          </ns3:TrackPointExtension>
        </extensions>
      </trkpt>
      <trkpt lat="37.93776336126029491424560546875" lon="-107.14316390454769134521484375">
        <ele>3551.39990234375</ele>
        <time>2026-01-06T15:34:37.000Z</time>
        <extensions>
          <ns3:TrackPointExtension>
            <ns3:hr>87</ns3:hr>
            <ns3:cad>0</ns3:cad>
          </ns3:TrackPointExtension>
        </extensions>
      </trkpt>
      <trkpt lat="37.93776336126029491424560546875" lon="-107.14316390454769134521484375">
        <ele>3550.60009765625</ele>
        <time>2026-01-06T15:34:42.000Z</time>
        <extensions>
          <ns3:TrackPointExtension>
            <ns3:hr>87</ns3:hr>
            <ns3:cad>0</ns3:cad>
          </ns3:TrackPointExtension>
        </extensions>
      </trkpt>
      <trkpt lat="37.93776336126029491424560546875" lon="-107.14316390454769134521484375">
        <ele>3550.60009765625</ele>
        <time>2026-01-06T15:34:45.000Z</time>
        <extensions>
          <ns3:TrackPointExtension>
            <ns3:hr>87</ns3:hr>
            <ns3:cad>0</ns3:cad>
          </ns3:TrackPointExtension>
        </extensions>
      </trkpt>
      <trkpt lat="37.93776336126029491424560546875" lon="-107.14316390454769134521484375">
        <ele>3551</ele>
        <time>2026-01-06T15:34:51.000Z</time>
        <extensions>
          <ns3:TrackPointExtension>
            <ns3:hr>86</ns3:hr>
            <ns3:cad>0</ns3:cad>
          </ns3:TrackPointExtension>
        </extensions>
      </trkpt>
      <trkpt lat="37.93776336126029491424560546875" lon="-107.14316390454769134521484375">
        <ele>3551</ele>
        <time>2026-01-06T15:34:54.000Z</time>
        <extensions>
          <ns3:TrackPointExtension>
            <ns3:hr>83</ns3:hr>
            <ns3:cad>0</ns3:cad>
          </ns3:TrackPointExtension>
        </extensions>
      </trkpt>
      <trkpt lat="37.93776336126029491424560546875" lon="-107.14316390454769134521484375">
        <ele>3550.800048828125</ele>
        <time>2026-01-06T15:34:56.000Z</time>
        <extensions>
          <ns3:TrackPointExtension>
            <ns3:hr>79</ns3:hr>
            <ns3:cad>0</ns3:cad>
          </ns3:TrackPointExtension>
        </extensions>
      </trkpt>
      <trkpt lat="37.93776336126029491424560546875" lon="-107.14316390454769134521484375">
        <ele>3550.800048828125</ele>
        <time>2026-01-06T15:35:02.000Z</time>
        <extensions>
          <ns3:TrackPointExtension>
            <ns3:hr>77</ns3:hr>
            <ns3:cad>0</ns3:cad>
          </ns3:TrackPointExtension>
        </extensions>
      </trkpt>
      <trkpt lat="37.93776336126029491424560546875" lon="-107.14316390454769134521484375">
        <ele>3550.60009765625</ele>
        <time>2026-01-06T15:35:04.000Z</time>
        <extensions>
          <ns3:TrackPointExtension>
            <ns3:hr>77</ns3:hr>
            <ns3:cad>0</ns3:cad>
          </ns3:TrackPointExtension>
        </extensions>
      </trkpt>
      <trkpt lat="37.9377652890980243682861328125" lon="-107.14315460063517093658447265625">
        <ele>3551</ele>
        <time>2026-01-06T15:35:10.000Z</time>
        <extensions>
          <ns3:TrackPointExtension>
            <ns3:hr>78</ns3:hr>
            <ns3:cad>0</ns3:cad>
          </ns3:TrackPointExtension>
        </extensions>
      </trkpt>
      <trkpt lat="37.93776336126029491424560546875" lon="-107.14316390454769134521484375">
        <ele>3550.800048828125</ele>
        <time>2026-01-06T15:35:16.000Z</time>
        <extensions>
          <ns3:TrackPointExtension>
            <ns3:hr>78</ns3:hr>
            <ns3:cad>0</ns3:cad>
          </ns3:TrackPointExtension>
        </extensions>
      </trkpt>
      <trkpt lat="37.93776336126029491424560546875" lon="-107.14316390454769134521484375">
        <ele>3551</ele>
        <time>2026-01-06T15:35:22.000Z</time>
        <extensions>
          <ns3:TrackPointExtension>
            <ns3:hr>79</ns3:hr>
            <ns3:cad>0</ns3:cad>
          </ns3:TrackPointExtension>
        </extensions>
      </trkpt>
      <trkpt lat="37.93776336126029491424560546875" lon="-107.14316390454769134521484375">
        <ele>3551</ele>
        <time>2026-01-06T15:35:24.000Z</time>
        <extensions>
          <ns3:TrackPointExtension>
            <ns3:hr>82</ns3:hr>
            <ns3:cad>0</ns3:cad>
          </ns3:TrackPointExtension>
        </extensions>
      </trkpt>
      <trkpt lat="37.93776336126029491424560546875" lon="-107.14316390454769134521484375">
        <ele>3551</ele>
        <time>2026-01-06T15:35:25.000Z</time>
        <extensions>
          <ns3:TrackPointExtension>
            <ns3:hr>83</ns3:hr>
            <ns3:cad>0</ns3:cad>
          </ns3:TrackPointExtension>
        </extensions>
      </trkpt>
      <trkpt lat="37.93776336126029491424560546875" lon="-107.14316390454769134521484375">
        <ele>3551.199951171875</ele>
        <time>2026-01-06T15:35:29.000Z</time>
        <extensions>
          <ns3:TrackPointExtension>
            <ns3:hr>86</ns3:hr>
            <ns3:cad>0</ns3:cad>
          </ns3:TrackPointExtension>
        </extensions>
      </trkpt>
      <trkpt lat="37.93776336126029491424560546875" lon="-107.14316390454769134521484375">
        <ele>3551.199951171875</ele>
        <time>2026-01-06T15:35:34.000Z</time>
        <extensions>
          <ns3:TrackPointExtension>
            <ns3:hr>91</ns3:hr>
            <ns3:cad>0</ns3:cad>
          </ns3:TrackPointExtension>
        </extensions>
      </trkpt>
      <trkpt lat="37.93776336126029491424560546875" lon="-107.14316390454769134521484375">
        <ele>3551</ele>
        <time>2026-01-06T15:35:36.000Z</time>
        <extensions>
          <ns3:TrackPointExtension>
            <ns3:hr>95</ns3:hr>
            <ns3:cad>0</ns3:cad>
          </ns3:TrackPointExtension>
        </extensions>
      </trkpt>
      <trkpt lat="37.93776336126029491424560546875" lon="-107.14316390454769134521484375">
        <ele>3550.800048828125</ele>
        <time>2026-01-06T15:35:37.000Z</time>
        <extensions>
          <ns3:TrackPointExtension>
            <ns3:hr>95</ns3:hr>
            <ns3:cad>0</ns3:cad>
          </ns3:TrackPointExtension>
        </extensions>
      </trkpt>
      <trkpt lat="37.93776336126029491424560546875" lon="-107.14316390454769134521484375">
        <ele>3550.60009765625</ele>
        <time>2026-01-06T15:35:40.000Z</time>
        <extensions>
          <ns3:TrackPointExtension>
            <ns3:hr>98</ns3:hr>
            <ns3:cad>0</ns3:cad>
          </ns3:TrackPointExtension>
        </extensions>
      </trkpt>
      <trkpt lat="37.93776336126029491424560546875" lon="-107.14316390454769134521484375">
        <ele>3550.60009765625</ele>
        <time>2026-01-06T15:35:43.000Z</time>
        <extensions>
          <ns3:TrackPointExtension>
            <ns3:hr>101</ns3:hr>
            <ns3:cad>0</ns3:cad>
          </ns3:TrackPointExtension>
        </extensions>
      </trkpt>
      <trkpt lat="37.93776336126029491424560546875" lon="-107.14316390454769134521484375">
        <ele>3551</ele>
        <time>2026-01-06T15:35:47.000Z</time>
        <extensions>
          <ns3:TrackPointExtension>
            <ns3:hr>101</ns3:hr>
            <ns3:cad>0</ns3:cad>
          </ns3:TrackPointExtension>
        </extensions>
      </trkpt>
      <trkpt lat="37.93776336126029491424560546875" lon="-107.14316390454769134521484375">
        <ele>3549.800048828125</ele>
        <time>2026-01-06T15:35:53.000Z</time>
        <extensions>
          <ns3:TrackPointExtension>
            <ns3:hr>98</ns3:hr>
            <ns3:cad>0</ns3:cad>
          </ns3:TrackPointExtension>
        </extensions>
      </trkpt>
      <trkpt lat="37.93776336126029491424560546875" lon="-107.14316390454769134521484375">
        <ele>3550.199951171875</ele>
        <time>2026-01-06T15:35:56.000Z</time>
        <extensions>
          <ns3:TrackPointExtension>
            <ns3:hr>96</ns3:hr>
            <ns3:cad>0</ns3:cad>
          </ns3:TrackPointExtension>
        </extensions>
      </trkpt>
      <trkpt lat="37.93776336126029491424560546875" lon="-107.14316390454769134521484375">
        <ele>3550.800048828125</ele>
        <time>2026-01-06T15:36:02.000Z</time>
        <extensions>
          <ns3:TrackPointExtension>
            <ns3:hr>97</ns3:hr>
            <ns3:cad>0</ns3:cad>
          </ns3:TrackPointExtension>
        </extensions>
      </trkpt>
      <trkpt lat="37.93776336126029491424560546875" lon="-107.14316390454769134521484375">
        <ele>3551</ele>
        <time>2026-01-06T15:36:05.000Z</time>
        <extensions>
          <ns3:TrackPointExtension>
            <ns3:hr>96</ns3:hr>
            <ns3:cad>0</ns3:cad>
          </ns3:TrackPointExtension>
        </extensions>
      </trkpt>
      <trkpt lat="37.93776336126029491424560546875" lon="-107.14316390454769134521484375">
        <ele>3550.39990234375</ele>
        <time>2026-01-06T15:36:11.000Z</time>
        <extensions>
          <ns3:TrackPointExtension>
            <ns3:hr>96</ns3:hr>
            <ns3:cad>0</ns3:cad>
          </ns3:TrackPointExtension>
        </extensions>
      </trkpt>
      <trkpt lat="37.93776336126029491424560546875" lon="-107.14316390454769134521484375">
        <ele>3550.60009765625</ele>
        <time>2026-01-06T15:36:17.000Z</time>
        <extensions>
          <ns3:TrackPointExtension>
            <ns3:hr>96</ns3:hr>
            <ns3:cad>0</ns3:cad>
          </ns3:TrackPointExtension>
        </extensions>
      </trkpt>
      <trkpt lat="37.93776336126029491424560546875" lon="-107.14316390454769134521484375">
        <ele>3550.60009765625</ele>
        <time>2026-01-06T15:36:18.000Z</time>
        <extensions>
          <ns3:TrackPointExtension>
            <ns3:hr>97</ns3:hr>
            <ns3:cad>0</ns3:cad>
          </ns3:TrackPointExtension>
        </extensions>
      </trkpt>
      <trkpt lat="37.93776336126029491424560546875" lon="-107.14316390454769134521484375">
        <ele>3550.199951171875</ele>
        <time>2026-01-06T15:36:22.000Z</time>
        <extensions>
          <ns3:TrackPointExtension>
            <ns3:hr>89</ns3:hr>
            <ns3:cad>0</ns3:cad>
          </ns3:TrackPointExtension>
        </extensions>
      </trkpt>
      <trkpt lat="37.93776336126029491424560546875" lon="-107.14316390454769134521484375">
        <ele>3550.199951171875</ele>
        <time>2026-01-06T15:36:23.000Z</time>
        <extensions>
          <ns3:TrackPointExtension>
            <ns3:hr>86</ns3:hr>
            <ns3:cad>0</ns3:cad>
          </ns3:TrackPointExtension>
        </extensions>
      </trkpt>
      <trkpt lat="37.93776336126029491424560546875" lon="-107.14316390454769134521484375">
        <ele>3550.199951171875</ele>
        <time>2026-01-06T15:36:27.000Z</time>
        <extensions>
          <ns3:TrackPointExtension>
            <ns3:hr>83</ns3:hr>
            <ns3:cad>0</ns3:cad>
          </ns3:TrackPointExtension>
        </extensions>
      </trkpt>
      <trkpt lat="37.93776336126029491424560546875" lon="-107.14316390454769134521484375">
        <ele>3550</ele>
        <time>2026-01-06T15:36:33.000Z</time>
        <extensions>
          <ns3:TrackPointExtension>
            <ns3:hr>84</ns3:hr>
            <ns3:cad>0</ns3:cad>
          </ns3:TrackPointExtension>
        </extensions>
      </trkpt>
      <trkpt lat="37.93776336126029491424560546875" lon="-107.14316390454769134521484375">
        <ele>3550.39990234375</ele>
        <time>2026-01-06T15:36:37.000Z</time>
        <extensions>
          <ns3:TrackPointExtension>
            <ns3:hr>86</ns3:hr>
            <ns3:cad>0</ns3:cad>
          </ns3:TrackPointExtension>
        </extensions>
      </trkpt>
      <trkpt lat="37.93776336126029491424560546875" lon="-107.14316390454769134521484375">
        <ele>3550.60009765625</ele>
        <time>2026-01-06T15:36:43.000Z</time>
        <extensions>
          <ns3:TrackPointExtension>
            <ns3:hr>88</ns3:hr>
            <ns3:cad>0</ns3:cad>
          </ns3:TrackPointExtension>
        </extensions>
      </trkpt>
      <trkpt lat="37.93776336126029491424560546875" lon="-107.14316390454769134521484375">
        <ele>3550.199951171875</ele>
        <time>2026-01-06T15:36:49.000Z</time>
        <extensions>
          <ns3:TrackPointExtension>
            <ns3:hr>88</ns3:hr>
            <ns3:cad>0</ns3:cad>
          </ns3:TrackPointExtension>
        </extensions>
      </trkpt>
      <trkpt lat="37.93776336126029491424560546875" lon="-107.14316390454769134521484375">
        <ele>3550.199951171875</ele>
        <time>2026-01-06T15:36:52.000Z</time>
        <extensions>
          <ns3:TrackPointExtension>
            <ns3:hr>89</ns3:hr>
            <ns3:cad>0</ns3:cad>
          </ns3:TrackPointExtension>
        </extensions>
      </trkpt>
      <trkpt lat="37.93776336126029491424560546875" lon="-107.14316390454769134521484375">
        <ele>3550.39990234375</ele>
        <time>2026-01-06T15:36:58.000Z</time>
        <extensions>
          <ns3:TrackPointExtension>
            <ns3:hr>89</ns3:hr>
            <ns3:cad>0</ns3:cad>
          </ns3:TrackPointExtension>
        </extensions>
      </trkpt>
      <trkpt lat="37.93776336126029491424560546875" lon="-107.14316390454769134521484375">
        <ele>3550.199951171875</ele>
        <time>2026-01-06T15:37:00.000Z</time>
        <extensions>
          <ns3:TrackPointExtension>
            <ns3:hr>92</ns3:hr>
            <ns3:cad>0</ns3:cad>
          </ns3:TrackPointExtension>
        </extensions>
      </trkpt>
      <trkpt lat="37.93776336126029491424560546875" lon="-107.14316390454769134521484375">
        <ele>3550</ele>
        <time>2026-01-06T15:37:01.000Z</time>
        <extensions>
          <ns3:TrackPointExtension>
            <ns3:hr>94</ns3:hr>
            <ns3:cad>0</ns3:cad>
          </ns3:TrackPointExtension>
        </extensions>
      </trkpt>
      <trkpt lat="37.937756069004535675048828125" lon="-107.14314705692231655120849609375">
        <ele>3550.39990234375</ele>
        <time>2026-01-06T15:37:07.000Z</time>
        <extensions>
          <ns3:TrackPointExtension>
            <ns3:hr>96</ns3:hr>
            <ns3:cad>0</ns3:cad>
          </ns3:TrackPointExtension>
        </extensions>
      </trkpt>
      <trkpt lat="37.93775648809969425201416015625" lon="-107.14314722456037998199462890625">
        <ele>3550</ele>
        <time>2026-01-06T15:37:10.000Z</time>
        <extensions>
          <ns3:TrackPointExtension>
            <ns3:hr>95</ns3:hr>
            <ns3:cad>0</ns3:cad>
          </ns3:TrackPointExtension>
        </extensions>
      </trkpt>
      <trkpt lat="37.93775648809969425201416015625" lon="-107.14314722456037998199462890625">
        <ele>3549.60009765625</ele>
        <time>2026-01-06T15:37:15.000Z</time>
        <extensions>
          <ns3:TrackPointExtension>
            <ns3:hr>94</ns3:hr>
            <ns3:cad>0</ns3:cad>
          </ns3:TrackPointExtension>
        </extensions>
      </trkpt>
      <trkpt lat="37.93774944730103015899658203125" lon="-107.1431476436555385589599609375">
        <ele>3550.39990234375</ele>
        <time>2026-01-06T15:37:21.000Z</time>
        <extensions>
          <ns3:TrackPointExtension>
            <ns3:hr>96</ns3:hr>
            <ns3:cad>0</ns3:cad>
          </ns3:TrackPointExtension>
        </extensions>
      </trkpt>
      <trkpt lat="37.93775648809969425201416015625" lon="-107.14314722456037998199462890625">
        <ele>3550.199951171875</ele>
        <time>2026-01-06T15:37:25.000Z</time>
        <extensions>
          <ns3:TrackPointExtension>
            <ns3:hr>99</ns3:hr>
            <ns3:cad>0</ns3:cad>
          </ns3:TrackPointExtension>
        </extensions>
      </trkpt>
      <trkpt lat="37.93775648809969425201416015625" lon="-107.14314722456037998199462890625">
        <ele>3549.60009765625</ele>
        <time>2026-01-06T15:37:31.000Z</time>
        <extensions>
          <ns3:TrackPointExtension>
            <ns3:hr>98</ns3:hr>
            <ns3:cad>0</ns3:cad>
          </ns3:TrackPointExtension>
        </extensions>
      </trkpt>
      <trkpt lat="37.93775648809969425201416015625" lon="-107.14314722456037998199462890625">
        <ele>3549.800048828125</ele>
        <time>2026-01-06T15:37:37.000Z</time>
        <extensions>
          <ns3:TrackPointExtension>
            <ns3:hr>98</ns3:hr>
            <ns3:cad>0</ns3:cad>
          </ns3:TrackPointExtension>
        </extensions>
      </trkpt>
      <trkpt lat="37.93775648809969425201416015625" lon="-107.14314722456037998199462890625">
        <ele>3550</ele>
        <time>2026-01-06T15:37:40.000Z</time>
        <extensions>
          <ns3:TrackPointExtension>
            <ns3:hr>95</ns3:hr>
            <ns3:cad>0</ns3:cad>
          </ns3:TrackPointExtension>
        </extensions>
      </trkpt>
      <trkpt lat="37.93775648809969425201416015625" lon="-107.14314722456037998199462890625">
        <ele>3550</ele>
        <time>2026-01-06T15:37:42.000Z</time>
        <extensions>
          <ns3:TrackPointExtension>
            <ns3:hr>92</ns3:hr>
            <ns3:cad>0</ns3:cad>
          </ns3:TrackPointExtension>
        </extensions>
      </trkpt>
      <trkpt lat="37.93775648809969425201416015625" lon="-107.14314722456037998199462890625">
        <ele>3549.800048828125</ele>
        <time>2026-01-06T15:37:44.000Z</time>
        <extensions>
          <ns3:TrackPointExtension>
            <ns3:hr>90</ns3:hr>
            <ns3:cad>0</ns3:cad>
          </ns3:TrackPointExtension>
        </extensions>
      </trkpt>
      <trkpt lat="37.93775648809969425201416015625" lon="-107.14314722456037998199462890625">
        <ele>3549.60009765625</ele>
        <time>2026-01-06T15:37:50.000Z</time>
        <extensions>
          <ns3:TrackPointExtension>
            <ns3:hr>90</ns3:hr>
            <ns3:cad>0</ns3:cad>
          </ns3:TrackPointExtension>
        </extensions>
      </trkpt>
      <trkpt lat="37.93775648809969425201416015625" lon="-107.14314722456037998199462890625">
        <ele>3549.60009765625</ele>
        <time>2026-01-06T15:37:56.000Z</time>
        <extensions>
          <ns3:TrackPointExtension>
            <ns3:hr>89</ns3:hr>
            <ns3:cad>0</ns3:cad>
          </ns3:TrackPointExtension>
        </extensions>
      </trkpt>
      <trkpt lat="37.93775648809969425201416015625" lon="-107.14314722456037998199462890625">
        <ele>3549.800048828125</ele>
        <time>2026-01-06T15:38:02.000Z</time>
        <extensions>
          <ns3:TrackPointExtension>
            <ns3:hr>91</ns3:hr>
            <ns3:cad>0</ns3:cad>
          </ns3:TrackPointExtension>
        </extensions>
      </trkpt>
      <trkpt lat="37.93775648809969425201416015625" lon="-107.14314722456037998199462890625">
        <ele>3550.39990234375</ele>
        <time>2026-01-06T15:38:04.000Z</time>
        <extensions>
          <ns3:TrackPointExtension>
            <ns3:hr>94</ns3:hr>
            <ns3:cad>0</ns3:cad>
          </ns3:TrackPointExtension>
        </extensions>
      </trkpt>
      <trkpt lat="37.93775648809969425201416015625" lon="-107.14314722456037998199462890625">
        <ele>3550.60009765625</ele>
        <time>2026-01-06T15:38:05.000Z</time>
        <extensions>
          <ns3:TrackPointExtension>
            <ns3:hr>96</ns3:hr>
            <ns3:cad>0</ns3:cad>
          </ns3:TrackPointExtension>
        </extensions>
      </trkpt>
      <trkpt lat="37.93775648809969425201416015625" lon="-107.14314722456037998199462890625">
        <ele>3550.60009765625</ele>
        <time>2026-01-06T15:38:10.000Z</time>
        <extensions>
          <ns3:TrackPointExtension>
            <ns3:hr>99</ns3:hr>
            <ns3:cad>0</ns3:cad>
          </ns3:TrackPointExtension>
        </extensions>
      </trkpt>
      <trkpt lat="37.93775648809969425201416015625" lon="-107.14314722456037998199462890625">
        <ele>3550.199951171875</ele>
        <time>2026-01-06T15:38:12.000Z</time>
        <extensions>
          <ns3:TrackPointExtension>
            <ns3:hr>99</ns3:hr>
            <ns3:cad>0</ns3:cad>
          </ns3:TrackPointExtension>
        </extensions>
      </trkpt>
      <trkpt lat="37.937756739556789398193359375" lon="-107.1431469731032848358154296875">
        <ele>3550</ele>
        <time>2026-01-06T15:38:17.000Z</time>
        <extensions>
          <ns3:TrackPointExtension>
            <ns3:hr>100</ns3:hr>
            <ns3:cad>0</ns3:cad>
          </ns3:TrackPointExtension>
        </extensions>
      </trkpt>
      <trkpt lat="37.93775112368166446685791015625" lon="-107.1431498229503631591796875">
        <ele>3550.199951171875</ele>
        <time>2026-01-06T15:38:23.000Z</time>
        <extensions>
          <ns3:TrackPointExtension>
            <ns3:hr>101</ns3:hr>
            <ns3:cad>0</ns3:cad>
          </ns3:TrackPointExtension>
        </extensions>
      </trkpt>
      <trkpt lat="37.93775699101388454437255859375" lon="-107.14314269833266735076904296875">
        <ele>3550.199951171875</ele>
        <time>2026-01-06T15:38:24.000Z</time>
        <extensions>
          <ns3:TrackPointExtension>
            <ns3:hr>100</ns3:hr>
            <ns3:cad>0</ns3:cad>
          </ns3:TrackPointExtension>
        </extensions>
      </trkpt>
      <trkpt lat="37.93775648809969425201416015625" lon="-107.14314722456037998199462890625">
        <ele>3550</ele>
        <time>2026-01-06T15:38:30.000Z</time>
        <extensions>
          <ns3:TrackPointExtension>
            <ns3:hr>100</ns3:hr>
            <ns3:cad>0</ns3:cad>
          </ns3:TrackPointExtension>
        </extensions>
      </trkpt>
      <trkpt lat="37.93775531463325023651123046875" lon="-107.1431463025510311126708984375">
        <ele>3549.800048828125</ele>
        <time>2026-01-06T15:38:35.000Z</time>
        <extensions>
          <ns3:TrackPointExtension>
            <ns3:hr>99</ns3:hr>
            <ns3:cad>0</ns3:cad>
          </ns3:TrackPointExtension>
        </extensions>
      </trkpt>
      <trkpt lat="37.93775648809969425201416015625" lon="-107.14314722456037998199462890625">
        <ele>3550.199951171875</ele>
        <time>2026-01-06T15:38:41.000Z</time>
        <extensions>
          <ns3:TrackPointExtension>
            <ns3:hr>97</ns3:hr>
            <ns3:cad>0</ns3:cad>
          </ns3:TrackPointExtension>
        </extensions>
      </trkpt>
      <trkpt lat="37.93775648809969425201416015625" lon="-107.14314722456037998199462890625">
        <ele>3550.199951171875</ele>
        <time>2026-01-06T15:38:42.000Z</time>
        <extensions>
          <ns3:TrackPointExtension>
            <ns3:hr>96</ns3:hr>
            <ns3:cad>0</ns3:cad>
          </ns3:TrackPointExtension>
        </extensions>
      </trkpt>
      <trkpt lat="37.93775648809969425201416015625" lon="-107.14314722456037998199462890625">
        <ele>3550</ele>
        <time>2026-01-06T15:38:48.000Z</time>
        <extensions>
          <ns3:TrackPointExtension>
            <ns3:hr>97</ns3:hr>
            <ns3:cad>0</ns3:cad>
          </ns3:TrackPointExtension>
        </extensions>
      </trkpt>
      <trkpt lat="37.93775648809969425201416015625" lon="-107.14314722456037998199462890625">
        <ele>3550</ele>
        <time>2026-01-06T15:38:52.000Z</time>
        <extensions>
          <ns3:TrackPointExtension>
            <ns3:hr>98</ns3:hr>
            <ns3:cad>0</ns3:cad>
          </ns3:TrackPointExtension>
        </extensions>
      </trkpt>
      <trkpt lat="37.93775648809969425201416015625" lon="-107.14314722456037998199462890625">
        <ele>3550</ele>
        <time>2026-01-06T15:38:58.000Z</time>
        <extensions>
          <ns3:TrackPointExtension>
            <ns3:hr>95</ns3:hr>
            <ns3:cad>0</ns3:cad>
          </ns3:TrackPointExtension>
        </extensions>
      </trkpt>
      <trkpt lat="37.93775648809969425201416015625" lon="-107.14314722456037998199462890625">
        <ele>3550</ele>
        <time>2026-01-06T15:39:01.000Z</time>
        <extensions>
          <ns3:TrackPointExtension>
            <ns3:hr>94</ns3:hr>
            <ns3:cad>0</ns3:cad>
          </ns3:TrackPointExtension>
        </extensions>
      </trkpt>
      <trkpt lat="37.93775648809969425201416015625" lon="-107.14314722456037998199462890625">
        <ele>3550.199951171875</ele>
        <time>2026-01-06T15:39:06.000Z</time>
        <extensions>
          <ns3:TrackPointExtension>
            <ns3:hr>91</ns3:hr>
            <ns3:cad>0</ns3:cad>
          </ns3:TrackPointExtension>
        </extensions>
      </trkpt>
      <trkpt lat="37.93775648809969425201416015625" lon="-107.14314722456037998199462890625">
        <ele>3549.800048828125</ele>
        <time>2026-01-06T15:39:10.000Z</time>
        <extensions>
          <ns3:TrackPointExtension>
            <ns3:hr>90</ns3:hr>
            <ns3:cad>0</ns3:cad>
          </ns3:TrackPointExtension>
        </extensions>
      </trkpt>
      <trkpt lat="37.93774693273007869720458984375" lon="-107.14314085431396961212158203125">
        <ele>3549.60009765625</ele>
        <time>2026-01-06T15:39:12.000Z</time>
        <extensions>
          <ns3:TrackPointExtension>
            <ns3:hr>88</ns3:hr>
            <ns3:cad>0</ns3:cad>
          </ns3:TrackPointExtension>
        </extensions>
      </trkpt>
      <trkpt lat="37.93775648809969425201416015625" lon="-107.14314722456037998199462890625">
        <ele>3549.60009765625</ele>
        <time>2026-01-06T15:39:16.000Z</time>
        <extensions>
          <ns3:TrackPointExtension>
            <ns3:hr>86</ns3:hr>
            <ns3:cad>0</ns3:cad>
          </ns3:TrackPointExtension>
        </extensions>
      </trkpt>
      <trkpt lat="37.93775648809969425201416015625" lon="-107.14314722456037998199462890625">
        <ele>3549.60009765625</ele>
        <time>2026-01-06T15:39:22.000Z</time>
        <extensions>
          <ns3:TrackPointExtension>
            <ns3:hr>86</ns3:hr>
            <ns3:cad>0</ns3:cad>
          </ns3:TrackPointExtension>
        </extensions>
      </trkpt>
      <trkpt lat="37.93775648809969425201416015625" lon="-107.14314722456037998199462890625">
        <ele>3549.39990234375</ele>
        <time>2026-01-06T15:39:25.000Z</time>
        <extensions>
          <ns3:TrackPointExtension>
            <ns3:hr>86</ns3:hr>
            <ns3:cad>0</ns3:cad>
          </ns3:TrackPointExtension>
        </extensions>
      </trkpt>
      <trkpt lat="37.93775648809969425201416015625" lon="-107.14314722456037998199462890625">
        <ele>3549.800048828125</ele>
        <time>2026-01-06T15:39:31.000Z</time>
        <extensions>
          <ns3:TrackPointExtension>
            <ns3:hr>84</ns3:hr>
            <ns3:cad>0</ns3:cad>
          </ns3:TrackPointExtension>
        </extensions>
      </trkpt>
      <trkpt lat="37.93775648809969425201416015625" lon="-107.14314722456037998199462890625">
        <ele>3549.800048828125</ele>
        <time>2026-01-06T15:39:34.000Z</time>
        <extensions>
          <ns3:TrackPointExtension>
            <ns3:hr>84</ns3:hr>
            <ns3:cad>0</ns3:cad>
          </ns3:TrackPointExtension>
        </extensions>
      </trkpt>
      <trkpt lat="37.93775648809969425201416015625" lon="-107.14314722456037998199462890625">
        <ele>3549.39990234375</ele>
        <time>2026-01-06T15:39:40.000Z</time>
        <extensions>
          <ns3:TrackPointExtension>
            <ns3:hr>85</ns3:hr>
            <ns3:cad>0</ns3:cad>
          </ns3:TrackPointExtension>
        </extensions>
      </trkpt>
      <trkpt lat="37.93775648809969425201416015625" lon="-107.14314722456037998199462890625">
        <ele>3549.39990234375</ele>
        <time>2026-01-06T15:39:41.000Z</time>
        <extensions>
          <ns3:TrackPointExtension>
            <ns3:hr>85</ns3:hr>
            <ns3:cad>0</ns3:cad>
          </ns3:TrackPointExtension>
        </extensions>
      </trkpt>
      <trkpt lat="37.93775238096714019775390625" lon="-107.14315988123416900634765625">
        <ele>3549.800048828125</ele>
        <time>2026-01-06T15:39:47.000Z</time>
        <extensions>
          <ns3:TrackPointExtension>
            <ns3:hr>86</ns3:hr>
            <ns3:cad>46</ns3:cad>
          </ns3:TrackPointExtension>
        </extensions>
      </trkpt>
      <trkpt lat="37.9377495311200618743896484375" lon="-107.14315879158675670623779296875">
        <ele>3550</ele>
        <time>2026-01-06T15:39:48.000Z</time>
        <extensions>
          <ns3:TrackPointExtension>
            <ns3:hr>86</ns3:hr>
            <ns3:cad>46</ns3:cad>
          </ns3:TrackPointExtension>
        </extensions>
      </trkpt>
      <trkpt lat="37.93774525634944438934326171875" lon="-107.14315116405487060546875">
        <ele>3549.800048828125</ele>
        <time>2026-01-06T15:39:54.000Z</time>
        <extensions>
          <ns3:TrackPointExtension>
            <ns3:hr>86</ns3:hr>
            <ns3:cad>0</ns3:cad>
          </ns3:TrackPointExtension>
        </extensions>
      </trkpt>
      <trkpt lat="37.93774592690169811248779296875" lon="-107.14314957149326801300048828125">
        <ele>3549.60009765625</ele>
        <time>2026-01-06T15:39:55.000Z</time>
        <extensions>
          <ns3:TrackPointExtension>
            <ns3:hr>86</ns3:hr>
            <ns3:cad>0</ns3:cad>
          </ns3:TrackPointExtension>
        </extensions>
      </trkpt>
      <trkpt lat="37.93775648809969425201416015625" lon="-107.14314722456037998199462890625">
        <ele>3550</ele>
        <time>2026-01-06T15:40:01.000Z</time>
        <extensions>
          <ns3:TrackPointExtension>
            <ns3:hr>86</ns3:hr>
            <ns3:cad>0</ns3:cad>
          </ns3:TrackPointExtension>
        </extensions>
      </trkpt>
      <trkpt lat="37.93775648809969425201416015625" lon="-107.14314722456037998199462890625">
        <ele>3550</ele>
        <time>2026-01-06T15:40:03.000Z</time>
        <extensions>
          <ns3:TrackPointExtension>
            <ns3:hr>87</ns3:hr>
            <ns3:cad>0</ns3:cad>
          </ns3:TrackPointExtension>
        </extensions>
      </trkpt>
      <trkpt lat="37.93775648809969425201416015625" lon="-107.14314722456037998199462890625">
        <ele>3548.60009765625</ele>
        <time>2026-01-06T15:40:09.000Z</time>
        <extensions>
          <ns3:TrackPointExtension>
            <ns3:hr>87</ns3:hr>
            <ns3:cad>0</ns3:cad>
          </ns3:TrackPointExtension>
        </extensions>
      </trkpt>
      <trkpt lat="37.93775648809969425201416015625" lon="-107.14314722456037998199462890625">
        <ele>3549</ele>
        <time>2026-01-06T15:40:13.000Z</time>
        <extensions>
          <ns3:TrackPointExtension>
            <ns3:hr>87</ns3:hr>
            <ns3:cad>0</ns3:cad>
          </ns3:TrackPointExtension>
        </extensions>
      </trkpt>
      <trkpt lat="37.93775648809969425201416015625" lon="-107.14314722456037998199462890625">
        <ele>3549.800048828125</ele>
        <time>2026-01-06T15:40:19.000Z</time>
        <extensions>
          <ns3:TrackPointExtension>
            <ns3:hr>89</ns3:hr>
            <ns3:cad>0</ns3:cad>
          </ns3:TrackPointExtension>
        </extensions>
      </trkpt>
      <trkpt lat="37.93775648809969425201416015625" lon="-107.14314722456037998199462890625">
        <ele>3549.800048828125</ele>
        <time>2026-01-06T15:40:20.000Z</time>
        <extensions>
          <ns3:TrackPointExtension>
            <ns3:hr>90</ns3:hr>
            <ns3:cad>0</ns3:cad>
          </ns3:TrackPointExtension>
        </extensions>
      </trkpt>
      <trkpt lat="37.93775648809969425201416015625" lon="-107.14314722456037998199462890625">
        <ele>3550</ele>
        <time>2026-01-06T15:40:26.000Z</time>
        <extensions>
          <ns3:TrackPointExtension>
            <ns3:hr>92</ns3:hr>
            <ns3:cad>0</ns3:cad>
          </ns3:TrackPointExtension>
        </extensions>
      </trkpt>
      <trkpt lat="37.93775648809969425201416015625" lon="-107.14314722456037998199462890625">
        <ele>3550</ele>
        <time>2026-01-06T15:40:27.000Z</time>
        <extensions>
          <ns3:TrackPointExtension>
            <ns3:hr>93</ns3:hr>
            <ns3:cad>0</ns3:cad>
          </ns3:TrackPointExtension>
        </extensions>
      </trkpt>
      <trkpt lat="37.93775648809969425201416015625" lon="-107.14314722456037998199462890625">
        <ele>3550</ele>
        <time>2026-01-06T15:40:33.000Z</time>
        <extensions>
          <ns3:TrackPointExtension>
            <ns3:hr>94</ns3:hr>
            <ns3:cad>0</ns3:cad>
          </ns3:TrackPointExtension>
        </extensions>
      </trkpt>
      <trkpt lat="37.93775648809969425201416015625" lon="-107.14314722456037998199462890625">
        <ele>3550.199951171875</ele>
        <time>2026-01-06T15:40:38.000Z</time>
        <extensions>
          <ns3:TrackPointExtension>
            <ns3:hr>91</ns3:hr>
            <ns3:cad>0</ns3:cad>
          </ns3:TrackPointExtension>
        </extensions>
      </trkpt>
      <trkpt lat="37.93775648809969425201416015625" lon="-107.14314722456037998199462890625">
        <ele>3550.199951171875</ele>
        <time>2026-01-06T15:40:40.000Z</time>
        <extensions>
          <ns3:TrackPointExtension>
            <ns3:hr>88</ns3:hr>
            <ns3:cad>0</ns3:cad>
          </ns3:TrackPointExtension>
        </extensions>
      </trkpt>
      <trkpt lat="37.93775648809969425201416015625" lon="-107.14314722456037998199462890625">
        <ele>3550</ele>
        <time>2026-01-06T15:40:42.000Z</time>
        <extensions>
          <ns3:TrackPointExtension>
            <ns3:hr>84</ns3:hr>
            <ns3:cad>0</ns3:cad>
          </ns3:TrackPointExtension>
        </extensions>
      </trkpt>
      <trkpt lat="37.93775648809969425201416015625" lon="-107.14314722456037998199462890625">
        <ele>3550.199951171875</ele>
        <time>2026-01-06T15:40:48.000Z</time>
        <extensions>
          <ns3:TrackPointExtension>
            <ns3:hr>84</ns3:hr>
            <ns3:cad>0</ns3:cad>
          </ns3:TrackPointExtension>
        </extensions>
      </trkpt>
      <trkpt lat="37.93775648809969425201416015625" lon="-107.14314722456037998199462890625">
        <ele>3550.199951171875</ele>
        <time>2026-01-06T15:40:54.000Z</time>
        <extensions>
          <ns3:TrackPointExtension>
            <ns3:hr>84</ns3:hr>
            <ns3:cad>0</ns3:cad>
          </ns3:TrackPointExtension>
        </extensions>
      </trkpt>
      <trkpt lat="37.93775648809969425201416015625" lon="-107.14314722456037998199462890625">
        <ele>3550.199951171875</ele>
        <time>2026-01-06T15:40:55.000Z</time>
        <extensions>
          <ns3:TrackPointExtension>
            <ns3:hr>83</ns3:hr>
            <ns3:cad>0</ns3:cad>
          </ns3:TrackPointExtension>
        </extensions>
      </trkpt>
      <trkpt lat="37.93775648809969425201416015625" lon="-107.14314722456037998199462890625">
        <ele>3550.199951171875</ele>
        <time>2026-01-06T15:41:01.000Z</time>
        <extensions>
          <ns3:TrackPointExtension>
            <ns3:hr>82</ns3:hr>
            <ns3:cad>0</ns3:cad>
          </ns3:TrackPointExtension>
        </extensions>
      </trkpt>
      <trkpt lat="37.93775975704193115234375" lon="-107.1431654132902622222900390625">
        <ele>3550</ele>
        <time>2026-01-06T15:41:07.000Z</time>
        <extensions>
          <ns3:TrackPointExtension>
            <ns3:hr>79</ns3:hr>
            <ns3:cad>0</ns3:cad>
          </ns3:TrackPointExtension>
        </extensions>
      </trkpt>
      <trkpt lat="37.93775975704193115234375" lon="-107.1431654132902622222900390625">
        <ele>3550.199951171875</ele>
        <time>2026-01-06T15:41:11.000Z</time>
        <extensions>
          <ns3:TrackPointExtension>
            <ns3:hr>77</ns3:hr>
            <ns3:cad>0</ns3:cad>
          </ns3:TrackPointExtension>
        </extensions>
      </trkpt>
      <trkpt lat="37.9377662949264049530029296875" lon="-107.14316382072865962982177734375">
        <ele>3550.39990234375</ele>
        <time>2026-01-06T15:41:17.000Z</time>
        <extensions>
          <ns3:TrackPointExtension>
            <ns3:hr>80</ns3:hr>
            <ns3:cad>107</ns3:cad>
          </ns3:TrackPointExtension>
        </extensions>
      </trkpt>
      <trkpt lat="37.93776285834610462188720703125" lon="-107.14317974634468555450439453125">
        <ele>3550.39990234375</ele>
        <time>2026-01-06T15:41:18.000Z</time>
        <extensions>
          <ns3:TrackPointExtension>
            <ns3:hr>80</ns3:hr>
            <ns3:cad>107</ns3:cad>
          </ns3:TrackPointExtension>
        </extensions>
      </trkpt>
      <trkpt lat="37.93775682337582111358642578125" lon="-107.14317991398274898529052734375">
        <ele>3550</ele>
        <time>2026-01-06T15:41:22.000Z</time>
        <extensions>
          <ns3:TrackPointExtension>
            <ns3:hr>79</ns3:hr>
            <ns3:cad>0</ns3:cad>
          </ns3:TrackPointExtension>
        </extensions>
      </trkpt>
      <trkpt lat="37.93775975704193115234375" lon="-107.1431654132902622222900390625">
        <ele>3550.199951171875</ele>
        <time>2026-01-06T15:41:28.000Z</time>
        <extensions>
          <ns3:TrackPointExtension>
            <ns3:hr>80</ns3:hr>
            <ns3:cad>0</ns3:cad>
          </ns3:TrackPointExtension>
        </extensions>
      </trkpt>
      <trkpt lat="37.93775975704193115234375" lon="-107.1431654132902622222900390625">
        <ele>3550.199951171875</ele>
        <time>2026-01-06T15:41:30.000Z</time>
        <extensions>
          <ns3:TrackPointExtension>
            <ns3:hr>80</ns3:hr>
            <ns3:cad>0</ns3:cad>
          </ns3:TrackPointExtension>
        </extensions>
      </trkpt>
      <trkpt lat="37.93775975704193115234375" lon="-107.1431654132902622222900390625">
        <ele>3550.39990234375</ele>
        <time>2026-01-06T15:41:36.000Z</time>
        <extensions>
          <ns3:TrackPointExtension>
            <ns3:hr>81</ns3:hr>
            <ns3:cad>0</ns3:cad>
          </ns3:TrackPointExtension>
        </extensions>
      </trkpt>
      <trkpt lat="37.93775975704193115234375" lon="-107.1431654132902622222900390625">
        <ele>3550.199951171875</ele>
        <time>2026-01-06T15:41:38.000Z</time>
        <extensions>
          <ns3:TrackPointExtension>
            <ns3:hr>82</ns3:hr>
            <ns3:cad>0</ns3:cad>
          </ns3:TrackPointExtension>
        </extensions>
      </trkpt>
      <trkpt lat="37.93775975704193115234375" lon="-107.1431654132902622222900390625">
        <ele>3549.800048828125</ele>
        <time>2026-01-06T15:41:44.000Z</time>
        <extensions>
          <ns3:TrackPointExtension>
            <ns3:hr>83</ns3:hr>
            <ns3:cad>0</ns3:cad>
          </ns3:TrackPointExtension>
        </extensions>
      </trkpt>
      <trkpt lat="37.93775975704193115234375" lon="-107.1431654132902622222900390625">
        <ele>3549.60009765625</ele>
        <time>2026-01-06T15:41:47.000Z</time>
        <extensions>
          <ns3:TrackPointExtension>
            <ns3:hr>83</ns3:hr>
            <ns3:cad>0</ns3:cad>
          </ns3:TrackPointExtension>
        </extensions>
      </trkpt>
      <trkpt lat="37.93775975704193115234375" lon="-107.1431654132902622222900390625">
        <ele>3549.60009765625</ele>
        <time>2026-01-06T15:41:53.000Z</time>
        <extensions>
          <ns3:TrackPointExtension>
            <ns3:hr>82</ns3:hr>
            <ns3:cad>0</ns3:cad>
          </ns3:TrackPointExtension>
        </extensions>
      </trkpt>
      <trkpt lat="37.93775975704193115234375" lon="-107.1431654132902622222900390625">
        <ele>3549.800048828125</ele>
        <time>2026-01-06T15:41:59.000Z</time>
        <extensions>
          <ns3:TrackPointExtension>
            <ns3:hr>82</ns3:hr>
            <ns3:cad>0</ns3:cad>
          </ns3:TrackPointExtension>
        </extensions>
      </trkpt>
      <trkpt lat="37.93775975704193115234375" lon="-107.1431654132902622222900390625">
        <ele>3549.800048828125</ele>
        <time>2026-01-06T15:42:03.000Z</time>
        <extensions>
          <ns3:TrackPointExtension>
            <ns3:hr>82</ns3:hr>
            <ns3:cad>0</ns3:cad>
          </ns3:TrackPointExtension>
        </extensions>
      </trkpt>
      <trkpt lat="37.93775975704193115234375" lon="-107.1431654132902622222900390625">
        <ele>3549.60009765625</ele>
        <time>2026-01-06T15:42:09.000Z</time>
        <extensions>
          <ns3:TrackPointExtension>
            <ns3:hr>82</ns3:hr>
            <ns3:cad>0</ns3:cad>
          </ns3:TrackPointExtension>
        </extensions>
      </trkpt>
      <trkpt lat="37.9377636127173900604248046875" lon="-107.14310850016772747039794921875">
        <ele>3550.199951171875</ele>
        <time>2026-01-06T15:42:15.000Z</time>
        <extensions>
          <ns3:TrackPointExtension>
            <ns3:hr>80</ns3:hr>
            <ns3:cad>47</ns3:cad>
          </ns3:TrackPointExtension>
        </extensions>
      </trkpt>
      <trkpt lat="37.93777643702924251556396484375" lon="-107.14309341274201869964599609375">
        <ele>3550.60009765625</ele>
        <time>2026-01-06T15:42:17.000Z</time>
        <extensions>
          <ns3:TrackPointExtension>
            <ns3:hr>80</ns3:hr>
            <ns3:cad>47</ns3:cad>
          </ns3:TrackPointExtension>
        </extensions>
      </trkpt>
      <trkpt lat="37.9377957992255687713623046875" lon="-107.1430532634258270263671875">
        <ele>3551</ele>
        <time>2026-01-06T15:42:22.000Z</time>
        <extensions>
          <ns3:TrackPointExtension>
            <ns3:hr>80</ns3:hr>
            <ns3:cad>0</ns3:cad>
          </ns3:TrackPointExtension>
        </extensions>
      </trkpt>
      <trkpt lat="37.93782572261989116668701171875" lon="-107.14300288818776607513427734375">
        <ele>3551.800048828125</ele>
        <time>2026-01-06T15:42:28.000Z</time>
        <extensions>
          <ns3:TrackPointExtension>
            <ns3:hr>82</ns3:hr>
            <ns3:cad>71</ns3:cad>
          </ns3:TrackPointExtension>
        </extensions>
      </trkpt>
      <trkpt lat="37.93782874010503292083740234375" lon="-107.142995931208133697509765625">
        <ele>3552</ele>
        <time>2026-01-06T15:42:29.000Z</time>
        <extensions>
          <ns3:TrackPointExtension>
            <ns3:hr>83</ns3:hr>
            <ns3:cad>0</ns3:cad>
          </ns3:TrackPointExtension>
        </extensions>
      </trkpt>
      <trkpt lat="37.93784164823591709136962890625" lon="-107.14295695535838603973388671875">
        <ele>3552</ele>
        <time>2026-01-06T15:42:34.000Z</time>
        <extensions>
          <ns3:TrackPointExtension>
            <ns3:hr>86</ns3:hr>
            <ns3:cad>0</ns3:cad>
          </ns3:TrackPointExtension>
        </extensions>
      </trkpt>
      <trkpt lat="37.9378658719360828399658203125" lon="-107.14292007498443126678466796875">
        <ele>3552.39990234375</ele>
        <time>2026-01-06T15:42:40.000Z</time>
        <extensions>
          <ns3:TrackPointExtension>
            <ns3:hr>88</ns3:hr>
            <ns3:cad>66</ns3:cad>
          </ns3:TrackPointExtension>
        </extensions>
      </trkpt>
      <trkpt lat="37.93788808397948741912841796875" lon="-107.1428770758211612701416015625">
        <ele>3552.60009765625</ele>
        <time>2026-01-06T15:42:45.000Z</time>
        <extensions>
          <ns3:TrackPointExtension>
            <ns3:hr>90</ns3:hr>
            <ns3:cad>51</ns3:cad>
          </ns3:TrackPointExtension>
        </extensions>
      </trkpt>
      <trkpt lat="37.9378970526158809661865234375" lon="-107.1428606472909450531005859375">
        <ele>3552.800048828125</ele>
        <time>2026-01-06T15:42:48.000Z</time>
        <extensions>
          <ns3:TrackPointExtension>
            <ns3:hr>91</ns3:hr>
            <ns3:cad>51</ns3:cad>
          </ns3:TrackPointExtension>
        </extensions>
      </trkpt>
      <trkpt lat="37.93790794909000396728515625" lon="-107.14284606277942657470703125">
        <ele>3553.199951171875</ele>
        <time>2026-01-06T15:42:51.000Z</time>
        <extensions>
          <ns3:TrackPointExtension>
            <ns3:hr>92</ns3:hr>
            <ns3:cad>0</ns3:cad>
          </ns3:TrackPointExtension>
        </extensions>
      </trkpt>
      <trkpt lat="37.9379040934145450592041015625" lon="-107.14284581132233142852783203125">
        <ele>3553.199951171875</ele>
        <time>2026-01-06T15:42:55.000Z</time>
        <extensions>
          <ns3:TrackPointExtension>
            <ns3:hr>95</ns3:hr>
            <ns3:cad>0</ns3:cad>
          </ns3:TrackPointExtension>
        </extensions>
      </trkpt>
      <trkpt lat="37.937912642955780029296875" lon="-107.14283131062984466552734375">
        <ele>3553.39990234375</ele>
        <time>2026-01-06T15:42:57.000Z</time>
        <extensions>
          <ns3:TrackPointExtension>
            <ns3:hr>96</ns3:hr>
            <ns3:cad>0</ns3:cad>
          </ns3:TrackPointExtension>
        </extensions>
      </trkpt>
      <trkpt lat="37.93792949058115482330322265625" lon="-107.1427942626178264617919921875">
        <ele>3554</ele>
        <time>2026-01-06T15:43:01.000Z</time>
        <extensions>
          <ns3:TrackPointExtension>
            <ns3:hr>96</ns3:hr>
            <ns3:cad>0</ns3:cad>
          </ns3:TrackPointExtension>
        </extensions>
      </trkpt>
      <trkpt lat="37.93793351389467716217041015625" lon="-107.1427842043340206146240234375">
        <ele>3554</ele>
        <time>2026-01-06T15:43:03.000Z</time>
        <extensions>
          <ns3:TrackPointExtension>
            <ns3:hr>98</ns3:hr>
            <ns3:cad>0</ns3:cad>
          </ns3:TrackPointExtension>
        </extensions>
      </trkpt>
      <trkpt lat="37.9379506967961788177490234375" lon="-107.14274858124554157257080078125">
        <ele>3554.60009765625</ele>
        <time>2026-01-06T15:43:08.000Z</time>
        <extensions>
          <ns3:TrackPointExtension>
            <ns3:hr>101</ns3:hr>
            <ns3:cad>0</ns3:cad>
          </ns3:TrackPointExtension>
        </extensions>
      </trkpt>
      <trkpt lat="37.9379590786993503570556640625" lon="-107.1427278779447078704833984375">
        <ele>3555</ele>
        <time>2026-01-06T15:43:10.000Z</time>
        <extensions>
          <ns3:TrackPointExtension>
            <ns3:hr>102</ns3:hr>
            <ns3:cad>0</ns3:cad>
          </ns3:TrackPointExtension>
        </extensions>
      </trkpt>
      <trkpt lat="37.93796234764158725738525390625" lon="-107.14272008277475833892822265625">
        <ele>3555</ele>
        <time>2026-01-06T15:43:11.000Z</time>
        <extensions>
          <ns3:TrackPointExtension>
            <ns3:hr>103</ns3:hr>
            <ns3:cad>0</ns3:cad>
          </ns3:TrackPointExtension>
        </extensions>
      </trkpt>
      <trkpt lat="37.93799671344459056854248046875" lon="-107.14269577525556087493896484375">
        <ele>3555.800048828125</ele>
        <time>2026-01-06T15:43:17.000Z</time>
        <extensions>
          <ns3:TrackPointExtension>
            <ns3:hr>102</ns3:hr>
            <ns3:cad>0</ns3:cad>
          </ns3:TrackPointExtension>
        </extensions>
      </trkpt>
      <trkpt lat="37.93803133070468902587890625" lon="-107.14267448522150516510009765625">
        <ele>3556</ele>
        <time>2026-01-06T15:43:23.000Z</time>
        <extensions>
          <ns3:TrackPointExtension>
            <ns3:hr>101</ns3:hr>
            <ns3:cad>0</ns3:cad>
          </ns3:TrackPointExtension>
        </extensions>
      </trkpt>
      <trkpt lat="37.9380553029477596282958984375" lon="-107.14264246635138988494873046875">
        <ele>3556.60009765625</ele>
        <time>2026-01-06T15:43:29.000Z</time>
        <extensions>
          <ns3:TrackPointExtension>
            <ns3:hr>98</ns3:hr>
            <ns3:cad>0</ns3:cad>
          </ns3:TrackPointExtension>
        </extensions>
      </trkpt>
      <trkpt lat="37.93806075118482112884521484375" lon="-107.142632491886615753173828125">
        <ele>3556.60009765625</ele>
        <time>2026-01-06T15:43:30.000Z</time>
        <extensions>
          <ns3:TrackPointExtension>
            <ns3:hr>98</ns3:hr>
            <ns3:cad>60</ns3:cad>
          </ns3:TrackPointExtension>
        </extensions>
      </trkpt>
      <trkpt lat="37.93808153830468654632568359375" lon="-107.14261061511933803558349609375">
        <ele>3557.199951171875</ele>
        <time>2026-01-06T15:43:35.000Z</time>
        <extensions>
          <ns3:TrackPointExtension>
            <ns3:hr>98</ns3:hr>
            <ns3:cad>0</ns3:cad>
          </ns3:TrackPointExtension>
        </extensions>
      </trkpt>
      <trkpt lat="37.938085310161113739013671875" lon="-107.142605669796466827392578125">
        <ele>3557.39990234375</ele>
        <time>2026-01-06T15:43:36.000Z</time>
        <extensions>
          <ns3:TrackPointExtension>
            <ns3:hr>98</ns3:hr>
            <ns3:cad>0</ns3:cad>
          </ns3:TrackPointExtension>
        </extensions>
      </trkpt>
      <trkpt lat="37.93811573646962642669677734375" lon="-107.14256132952868938446044921875">
        <ele>3557.800048828125</ele>
        <time>2026-01-06T15:43:42.000Z</time>
        <extensions>
          <ns3:TrackPointExtension>
            <ns3:hr>101</ns3:hr>
            <ns3:cad>0</ns3:cad>
          </ns3:TrackPointExtension>
        </extensions>
      </trkpt>
      <trkpt lat="37.93811992742121219635009765625" lon="-107.1425461582839488983154296875">
        <ele>3557.800048828125</ele>
        <time>2026-01-06T15:43:43.000Z</time>
        <extensions>
          <ns3:TrackPointExtension>
            <ns3:hr>101</ns3:hr>
            <ns3:cad>0</ns3:cad>
          </ns3:TrackPointExtension>
        </extensions>
      </trkpt>
      <trkpt lat="37.93814021162688732147216796875" lon="-107.14251673780381679534912109375">
        <ele>3558.199951171875</ele>
        <time>2026-01-06T15:43:48.000Z</time>
        <extensions>
          <ns3:TrackPointExtension>
            <ns3:hr>101</ns3:hr>
            <ns3:cad>0</ns3:cad>
          </ns3:TrackPointExtension>
        </extensions>
      </trkpt>
      <trkpt lat="37.9381468333303928375244140625" lon="-107.142506428062915802001953125">
        <ele>3558.199951171875</ele>
        <time>2026-01-06T15:43:50.000Z</time>
        <extensions>
          <ns3:TrackPointExtension>
            <ns3:hr>101</ns3:hr>
            <ns3:cad>0</ns3:cad>
          </ns3:TrackPointExtension>
        </extensions>
      </trkpt>
      <trkpt lat="37.93815865181386470794677734375" lon="-107.14249226264655590057373046875">
        <ele>3558.60009765625</ele>
        <time>2026-01-06T15:43:52.000Z</time>
        <extensions>
          <ns3:TrackPointExtension>
            <ns3:hr>101</ns3:hr>
            <ns3:cad>0</ns3:cad>
          </ns3:TrackPointExtension>
        </extensions>
      </trkpt>
      <trkpt lat="37.93817524798214435577392578125" lon="-107.14243845082819461822509765625">
        <ele>3559</ele>
        <time>2026-01-06T15:43:58.000Z</time>
        <extensions>
          <ns3:TrackPointExtension>
            <ns3:hr>101</ns3:hr>
            <ns3:cad>61</ns3:cad>
          </ns3:TrackPointExtension>
        </extensions>
      </trkpt>
      <trkpt lat="37.9381914250552654266357421875" lon="-107.14239276945590972900390625">
        <ele>3558.39990234375</ele>
        <time>2026-01-06T15:44:04.000Z</time>
        <extensions>
          <ns3:TrackPointExtension>
            <ns3:hr>100</ns3:hr>
            <ns3:cad>60</ns3:cad>
          </ns3:TrackPointExtension>
        </extensions>
      </trkpt>
      <trkpt lat="37.93819217942655086517333984375" lon="-107.14238463900983333587646484375">
        <ele>3558.39990234375</ele>
        <time>2026-01-06T15:44:05.000Z</time>
        <extensions>
          <ns3:TrackPointExtension>
            <ns3:hr>101</ns3:hr>
            <ns3:cad>60</ns3:cad>
          </ns3:TrackPointExtension>
        </extensions>
      </trkpt>
      <trkpt lat="37.938191592693328857421875" lon="-107.14231967926025390625">
        <ele>3558.800048828125</ele>
        <time>2026-01-06T15:44:11.000Z</time>
        <extensions>
          <ns3:TrackPointExtension>
            <ns3:hr>101</ns3:hr>
            <ns3:cad>0</ns3:cad>
          </ns3:TrackPointExtension>
        </extensions>
      </trkpt>
      <trkpt lat="37.938194610178470611572265625" lon="-107.1422698907554149627685546875">
        <ele>3558.60009765625</ele>
        <time>2026-01-06T15:44:17.000Z</time>
        <extensions>
          <ns3:TrackPointExtension>
            <ns3:hr>101</ns3:hr>
            <ns3:cad>0</ns3:cad>
          </ns3:TrackPointExtension>
        </extensions>
      </trkpt>
      <trkpt lat="37.93819494545459747314453125" lon="-107.1422578208148479461669921875">
        <ele>3558.800048828125</ele>
        <time>2026-01-06T15:44:18.000Z</time>
        <extensions>
          <ns3:TrackPointExtension>
            <ns3:hr>101</ns3:hr>
            <ns3:cad>0</ns3:cad>
          </ns3:TrackPointExtension>
        </extensions>
      </trkpt>
      <trkpt lat="37.93818748556077480316162109375" lon="-107.14221700094640254974365234375">
        <ele>3559.39990234375</ele>
        <time>2026-01-06T15:44:22.000Z</time>
        <extensions>
          <ns3:TrackPointExtension>
            <ns3:hr>101</ns3:hr>
            <ns3:cad>0</ns3:cad>
          </ns3:TrackPointExtension>
        </extensions>
      </trkpt>
      <trkpt lat="37.9381780140101909637451171875" lon="-107.14220711030066013336181640625">
        <ele>3559.60009765625</ele>
        <time>2026-01-06T15:44:24.000Z</time>
        <extensions>
          <ns3:TrackPointExtension>
            <ns3:hr>105</ns3:hr>
            <ns3:cad>0</ns3:cad>
          </ns3:TrackPointExtension>
        </extensions>
      </trkpt>
      <trkpt lat="37.938175164163112640380859375" lon="-107.14220023714005947113037109375">
        <ele>3559.60009765625</ele>
        <time>2026-01-06T15:44:25.000Z</time>
        <extensions>
          <ns3:TrackPointExtension>
            <ns3:hr>106</ns3:hr>
            <ns3:cad>0</ns3:cad>
          </ns3:TrackPointExtension>
        </extensions>
      </trkpt>
      <trkpt lat="37.93814289383590221405029296875" lon="-107.14216385968029499053955078125">
        <ele>3560</ele>
        <time>2026-01-06T15:44:31.000Z</time>
        <extensions>
          <ns3:TrackPointExtension>
            <ns3:hr>107</ns3:hr>
            <ns3:cad>0</ns3:cad>
          </ns3:TrackPointExtension>
        </extensions>
      </trkpt>
      <trkpt lat="37.93814373202621936798095703125" lon="-107.14216117747128009796142578125">
        <ele>3560</ele>
        <time>2026-01-06T15:44:32.000Z</time>
        <extensions>
          <ns3:TrackPointExtension>
            <ns3:hr>107</ns3:hr>
            <ns3:cad>0</ns3:cad>
          </ns3:TrackPointExtension>
        </extensions>
      </trkpt>
      <trkpt lat="37.938138954341411590576171875" lon="-107.14216209948062896728515625">
        <ele>3560.199951171875</ele>
        <time>2026-01-06T15:44:37.000Z</time>
        <extensions>
          <ns3:TrackPointExtension>
            <ns3:hr>110</ns3:hr>
            <ns3:cad>0</ns3:cad>
          </ns3:TrackPointExtension>
        </extensions>
      </trkpt>
      <trkpt lat="37.9381434805691242218017578125" lon="-107.14216117747128009796142578125">
        <ele>3560</ele>
        <time>2026-01-06T15:44:40.000Z</time>
        <extensions>
          <ns3:TrackPointExtension>
            <ns3:hr>109</ns3:hr>
            <ns3:cad>0</ns3:cad>
          </ns3:TrackPointExtension>
        </extensions>
      </trkpt>
      <trkpt lat="37.9381434805691242218017578125" lon="-107.14216117747128009796142578125">
        <ele>3559.800048828125</ele>
        <time>2026-01-06T15:44:46.000Z</time>
        <extensions>
          <ns3:TrackPointExtension>
            <ns3:hr>112</ns3:hr>
            <ns3:cad>0</ns3:cad>
          </ns3:TrackPointExtension>
        </extensions>
      </trkpt>
      <trkpt lat="37.9381434805691242218017578125" lon="-107.14216117747128009796142578125">
        <ele>3560</ele>
        <time>2026-01-06T15:44:50.000Z</time>
        <extensions>
          <ns3:TrackPointExtension>
            <ns3:hr>109</ns3:hr>
            <ns3:cad>0</ns3:cad>
          </ns3:TrackPointExtension>
        </extensions>
      </trkpt>
      <trkpt lat="37.9381434805691242218017578125" lon="-107.14216117747128009796142578125">
        <ele>3560</ele>
        <time>2026-01-06T15:44:55.000Z</time>
        <extensions>
          <ns3:TrackPointExtension>
            <ns3:hr>106</ns3:hr>
            <ns3:cad>0</ns3:cad>
          </ns3:TrackPointExtension>
        </extensions>
      </trkpt>
      <trkpt lat="37.9381434805691242218017578125" lon="-107.14216117747128009796142578125">
        <ele>3559.800048828125</ele>
        <time>2026-01-06T15:45:01.000Z</time>
        <extensions>
          <ns3:TrackPointExtension>
            <ns3:hr>103</ns3:hr>
            <ns3:cad>0</ns3:cad>
          </ns3:TrackPointExtension>
        </extensions>
      </trkpt>
      <trkpt lat="37.9381434805691242218017578125" lon="-107.14216117747128009796142578125">
        <ele>3560</ele>
        <time>2026-01-06T15:45:03.000Z</time>
        <extensions>
          <ns3:TrackPointExtension>
            <ns3:hr>103</ns3:hr>
            <ns3:cad>0</ns3:cad>
          </ns3:TrackPointExtension>
        </extensions>
      </trkpt>
      <trkpt lat="37.9381411336362361907958984375" lon="-107.14216411113739013671875">
        <ele>3560</ele>
        <time>2026-01-06T15:45:09.000Z</time>
        <extensions>
          <ns3:TrackPointExtension>
            <ns3:hr>103</ns3:hr>
            <ns3:cad>0</ns3:cad>
          </ns3:TrackPointExtension>
        </extensions>
      </trkpt>
      <trkpt lat="37.938128225505352020263671875" lon="-107.1421441622078418731689453125">
        <ele>3560</ele>
        <time>2026-01-06T15:45:12.000Z</time>
        <extensions>
          <ns3:TrackPointExtension>
            <ns3:hr>103</ns3:hr>
            <ns3:cad>0</ns3:cad>
          </ns3:TrackPointExtension>
        </extensions>
      </trkpt>
      <trkpt lat="37.93811841867864131927490234375" lon="-107.14212412945926189422607421875">
        <ele>3560.39990234375</ele>
        <time>2026-01-06T15:45:14.000Z</time>
        <extensions>
          <ns3:TrackPointExtension>
            <ns3:hr>103</ns3:hr>
            <ns3:cad>46</ns3:cad>
          </ns3:TrackPointExtension>
        </extensions>
      </trkpt>
      <trkpt lat="37.9380895011126995086669921875" lon="-107.142085991799831390380859375">
        <ele>3561</ele>
        <time>2026-01-06T15:45:19.000Z</time>
        <extensions>
          <ns3:TrackPointExtension>
            <ns3:hr>102</ns3:hr>
            <ns3:cad>0</ns3:cad>
          </ns3:TrackPointExtension>
        </extensions>
      </trkpt>
      <trkpt lat="37.9380740784108638763427734375" lon="-107.14202773757278919219970703125">
        <ele>3561.199951171875</ele>
        <time>2026-01-06T15:45:24.000Z</time>
        <extensions>
          <ns3:TrackPointExtension>
            <ns3:hr>103</ns3:hr>
            <ns3:cad>48</ns3:cad>
          </ns3:TrackPointExtension>
        </extensions>
      </trkpt>
      <trkpt lat="37.9380472563207149505615234375" lon="-107.1419815532863140106201171875">
        <ele>3561.39990234375</ele>
        <time>2026-01-06T15:45:30.000Z</time>
        <extensions>
          <ns3:TrackPointExtension>
            <ns3:hr>106</ns3:hr>
            <ns3:cad>0</ns3:cad>
          </ns3:TrackPointExtension>
        </extensions>
      </trkpt>
      <trkpt lat="37.93804164044559001922607421875" lon="-107.14197291992604732513427734375">
        <ele>3561.39990234375</ele>
        <time>2026-01-06T15:45:31.000Z</time>
        <extensions>
          <ns3:TrackPointExtension>
            <ns3:hr>106</ns3:hr>
            <ns3:cad>0</ns3:cad>
          </ns3:TrackPointExtension>
        </extensions>
      </trkpt>
      <trkpt lat="37.93800258077681064605712890625" lon="-107.1419383026659488677978515625">
        <ele>3561.60009765625</ele>
        <time>2026-01-06T15:45:36.000Z</time>
        <extensions>
          <ns3:TrackPointExtension>
            <ns3:hr>105</ns3:hr>
            <ns3:cad>0</ns3:cad>
          </ns3:TrackPointExtension>
        </extensions>
      </trkpt>
      <trkpt lat="37.9379671253263950347900390625" lon="-107.14189982973039150238037109375">
        <ele>3561.800048828125</ele>
        <time>2026-01-06T15:45:42.000Z</time>
        <extensions>
          <ns3:TrackPointExtension>
            <ns3:hr>104</ns3:hr>
            <ns3:cad>0</ns3:cad>
          </ns3:TrackPointExtension>
        </extensions>
      </trkpt>
      <trkpt lat="37.93795765377581119537353515625" lon="-107.14189924299716949462890625">
        <ele>3561.800048828125</ele>
        <time>2026-01-06T15:45:43.000Z</time>
        <extensions>
          <ns3:TrackPointExtension>
            <ns3:hr>104</ns3:hr>
            <ns3:cad>0</ns3:cad>
          </ns3:TrackPointExtension>
        </extensions>
      </trkpt>
      <trkpt lat="37.9379413090646266937255859375" lon="-107.141874767839908599853515625">
        <ele>3561.800048828125</ele>
        <time>2026-01-06T15:45:46.000Z</time>
        <extensions>
          <ns3:TrackPointExtension>
            <ns3:hr>104</ns3:hr>
            <ns3:cad>43</ns3:cad>
          </ns3:TrackPointExtension>
        </extensions>
      </trkpt>
      <trkpt lat="37.93794424273073673248291015625" lon="-107.141833193600177764892578125">
        <ele>3562.199951171875</ele>
        <time>2026-01-06T15:45:49.000Z</time>
        <extensions>
          <ns3:TrackPointExtension>
            <ns3:hr>102</ns3:hr>
            <ns3:cad>43</ns3:cad>
          </ns3:TrackPointExtension>
        </extensions>
      </trkpt>
      <trkpt lat="37.937949188053607940673828125" lon="-107.1418165974318981170654296875">
        <ele>3562.39990234375</ele>
        <time>2026-01-06T15:45:51.000Z</time>
        <extensions>
          <ns3:TrackPointExtension>
            <ns3:hr>100</ns3:hr>
            <ns3:cad>43</ns3:cad>
          </ns3:TrackPointExtension>
        </extensions>
      </trkpt>
      <trkpt lat="37.9379557259380817413330078125" lon="-107.14176555164158344268798828125">
        <ele>3562.60009765625</ele>
        <time>2026-01-06T15:45:56.000Z</time>
        <extensions>
          <ns3:TrackPointExtension>
            <ns3:hr>99</ns3:hr>
            <ns3:cad>0</ns3:cad>
          </ns3:TrackPointExtension>
        </extensions>
      </trkpt>
      <trkpt lat="37.9379500262439250946044921875" lon="-107.14173420332372188568115234375">
        <ele>3563.60009765625</ele>
        <time>2026-01-06T15:46:02.000Z</time>
        <extensions>
          <ns3:TrackPointExtension>
            <ns3:hr>100</ns3:hr>
            <ns3:cad>0</ns3:cad>
          </ns3:TrackPointExtension>
        </extensions>
      </trkpt>
      <trkpt lat="37.937946505844593048095703125" lon="-107.14168726466596126556396484375">
        <ele>3564.60009765625</ele>
        <time>2026-01-06T15:46:08.000Z</time>
        <extensions>
          <ns3:TrackPointExtension>
            <ns3:hr>100</ns3:hr>
            <ns3:cad>0</ns3:cad>
          </ns3:TrackPointExtension>
        </extensions>
      </trkpt>
      <trkpt lat="37.93795245699584484100341796875" lon="-107.14166815392673015594482421875">
        <ele>3565</ele>
        <time>2026-01-06T15:46:10.000Z</time>
        <extensions>
          <ns3:TrackPointExtension>
            <ns3:hr>101</ns3:hr>
            <ns3:cad>0</ns3:cad>
          </ns3:TrackPointExtension>
        </extensions>
      </trkpt>
      <trkpt lat="37.93797709979116916656494140625" lon="-107.14162808842957019805908203125">
        <ele>3565.60009765625</ele>
        <time>2026-01-06T15:46:16.000Z</time>
        <extensions>
          <ns3:TrackPointExtension>
            <ns3:hr>98</ns3:hr>
            <ns3:cad>0</ns3:cad>
          </ns3:TrackPointExtension>
        </extensions>
      </trkpt>
      <trkpt lat="37.93801523745059967041015625" lon="-107.14160646311938762664794921875">
        <ele>3566.60009765625</ele>
        <time>2026-01-06T15:46:22.000Z</time>
        <extensions>
          <ns3:TrackPointExtension>
            <ns3:hr>98</ns3:hr>
            <ns3:cad>0</ns3:cad>
          </ns3:TrackPointExtension>
        </extensions>
      </trkpt>
      <trkpt lat="37.93802051804959774017333984375" lon="-107.14160378091037273406982421875">
        <ele>3566.800048828125</ele>
        <time>2026-01-06T15:46:23.000Z</time>
        <extensions>
          <ns3:TrackPointExtension>
            <ns3:hr>98</ns3:hr>
            <ns3:cad>0</ns3:cad>
          </ns3:TrackPointExtension>
        </extensions>
      </trkpt>
      <trkpt lat="37.9380599968135356903076171875" lon="-107.14157679118216037750244140625">
        <ele>3567</ele>
        <time>2026-01-06T15:46:29.000Z</time>
        <extensions>
          <ns3:TrackPointExtension>
            <ns3:hr>102</ns3:hr>
            <ns3:cad>0</ns3:cad>
          </ns3:TrackPointExtension>
        </extensions>
      </trkpt>
      <trkpt lat="37.9380734078586101531982421875" lon="-107.14156262576580047607421875">
        <ele>3567.199951171875</ele>
        <time>2026-01-06T15:46:31.000Z</time>
        <extensions>
          <ns3:TrackPointExtension>
            <ns3:hr>104</ns3:hr>
            <ns3:cad>0</ns3:cad>
          </ns3:TrackPointExtension>
        </extensions>
      </trkpt>
      <trkpt lat="37.93810115195810794830322265625" lon="-107.14153110980987548828125">
        <ele>3567.39990234375</ele>
        <time>2026-01-06T15:46:36.000Z</time>
        <extensions>
          <ns3:TrackPointExtension>
            <ns3:hr>107</ns3:hr>
            <ns3:cad>0</ns3:cad>
          </ns3:TrackPointExtension>
        </extensions>
      </trkpt>
      <trkpt lat="37.93810517527163028717041015625" lon="-107.141528427600860595703125">
        <ele>3567.60009765625</ele>
        <time>2026-01-06T15:46:37.000Z</time>
        <extensions>
          <ns3:TrackPointExtension>
            <ns3:hr>107</ns3:hr>
            <ns3:cad>0</ns3:cad>
          </ns3:TrackPointExtension>
        </extensions>
      </trkpt>
      <trkpt lat="37.938110791146755218505859375" lon="-107.14151836931705474853515625">
        <ele>3567.800048828125</ele>
        <time>2026-01-06T15:46:38.000Z</time>
        <extensions>
          <ns3:TrackPointExtension>
            <ns3:hr>107</ns3:hr>
            <ns3:cad>0</ns3:cad>
          </ns3:TrackPointExtension>
        </extensions>
      </trkpt>
      <trkpt lat="37.93812864460051059722900390625" lon="-107.141495905816555023193359375">
        <ele>3568.800048828125</ele>
        <time>2026-01-06T15:46:42.000Z</time>
        <extensions>
          <ns3:TrackPointExtension>
            <ns3:hr>107</ns3:hr>
            <ns3:cad>0</ns3:cad>
          </ns3:TrackPointExtension>
        </extensions>
      </trkpt>
      <trkpt lat="37.938159070909023284912109375" lon="-107.14144938625395298004150390625">
        <ele>3569.199951171875</ele>
        <time>2026-01-06T15:46:48.000Z</time>
        <extensions>
          <ns3:TrackPointExtension>
            <ns3:hr>108</ns3:hr>
            <ns3:cad>0</ns3:cad>
          </ns3:TrackPointExtension>
        </extensions>
      </trkpt>
      <trkpt lat="37.9381659440696239471435546875" lon="-107.1414380706846714019775390625">
        <ele>3569.199951171875</ele>
        <time>2026-01-06T15:46:50.000Z</time>
        <extensions>
          <ns3:TrackPointExtension>
            <ns3:hr>108</ns3:hr>
            <ns3:cad>0</ns3:cad>
          </ns3:TrackPointExtension>
        </extensions>
      </trkpt>
      <trkpt lat="37.9381768405437469482421875" lon="-107.14139590971171855926513671875">
        <ele>3569.800048828125</ele>
        <time>2026-01-06T15:46:55.000Z</time>
        <extensions>
          <ns3:TrackPointExtension>
            <ns3:hr>112</ns3:hr>
            <ns3:cad>0</ns3:cad>
          </ns3:TrackPointExtension>
        </extensions>
      </trkpt>
      <trkpt lat="37.93818044476211071014404296875" lon="-107.14138870127499103546142578125">
        <ele>3569.800048828125</ele>
        <time>2026-01-06T15:46:56.000Z</time>
        <extensions>
          <ns3:TrackPointExtension>
            <ns3:hr>113</ns3:hr>
            <ns3:cad>0</ns3:cad>
          </ns3:TrackPointExtension>
        </extensions>
      </trkpt>
      <trkpt lat="37.938186563551425933837890625" lon="-107.1413797326385974884033203125">
        <ele>3570</ele>
        <time>2026-01-06T15:46:57.000Z</time>
        <extensions>
          <ns3:TrackPointExtension>
            <ns3:hr>114</ns3:hr>
            <ns3:cad>0</ns3:cad>
          </ns3:TrackPointExtension>
        </extensions>
      </trkpt>
      <trkpt lat="37.9382232762873172760009765625" lon="-107.14133924804627895355224609375">
        <ele>3570.39990234375</ele>
        <time>2026-01-06T15:47:03.000Z</time>
        <extensions>
          <ns3:TrackPointExtension>
            <ns3:hr>115</ns3:hr>
            <ns3:cad>0</ns3:cad>
          </ns3:TrackPointExtension>
        </extensions>
      </trkpt>
      <trkpt lat="37.9382306523621082305908203125" lon="-107.141326926648616790771484375">
        <ele>3571</ele>
        <time>2026-01-06T15:47:05.000Z</time>
        <extensions>
          <ns3:TrackPointExtension>
            <ns3:hr>114</ns3:hr>
            <ns3:cad>0</ns3:cad>
          </ns3:TrackPointExtension>
        </extensions>
      </trkpt>
      <trkpt lat="37.938231490552425384521484375" lon="-107.14128107763826847076416015625">
        <ele>3571.39990234375</ele>
        <time>2026-01-06T15:47:10.000Z</time>
        <extensions>
          <ns3:TrackPointExtension>
            <ns3:hr>115</ns3:hr>
            <ns3:cad>0</ns3:cad>
          </ns3:TrackPointExtension>
        </extensions>
      </trkpt>
      <trkpt lat="37.93821237981319427490234375" lon="-107.14125995524227619171142578125">
        <ele>3571.800048828125</ele>
        <time>2026-01-06T15:47:13.000Z</time>
        <extensions>
          <ns3:TrackPointExtension>
            <ns3:hr>118</ns3:hr>
            <ns3:cad>0</ns3:cad>
          </ns3:TrackPointExtension>
        </extensions>
      </trkpt>
      <trkpt lat="37.9381988011300563812255859375" lon="-107.14123832993209362030029296875">
        <ele>3571.800048828125</ele>
        <time>2026-01-06T15:47:16.000Z</time>
        <extensions>
          <ns3:TrackPointExtension>
            <ns3:hr>120</ns3:hr>
            <ns3:cad>0</ns3:cad>
          </ns3:TrackPointExtension>
        </extensions>
      </trkpt>
      <trkpt lat="37.93819234706461429595947265625" lon="-107.14122894220054149627685546875">
        <ele>3572</ele>
        <time>2026-01-06T15:47:18.000Z</time>
        <extensions>
          <ns3:TrackPointExtension>
            <ns3:hr>121</ns3:hr>
            <ns3:cad>66</ns3:cad>
          </ns3:TrackPointExtension>
        </extensions>
      </trkpt>
      <trkpt lat="37.93819637037813663482666015625" lon="-107.14120865799486637115478515625">
        <ele>3572.39990234375</ele>
        <time>2026-01-06T15:47:21.000Z</time>
        <extensions>
          <ns3:TrackPointExtension>
            <ns3:hr>122</ns3:hr>
            <ns3:cad>0</ns3:cad>
          </ns3:TrackPointExtension>
        </extensions>
      </trkpt>
      <trkpt lat="37.9382105357944965362548828125" lon="-107.14116205461323261260986328125">
        <ele>3572.800048828125</ele>
        <time>2026-01-06T15:47:27.000Z</time>
        <extensions>
          <ns3:TrackPointExtension>
            <ns3:hr>123</ns3:hr>
            <ns3:cad>0</ns3:cad>
          </ns3:TrackPointExtension>
        </extensions>
      </trkpt>
      <trkpt lat="37.93821380473673343658447265625" lon="-107.14115635491907596588134765625">
        <ele>3572.800048828125</ele>
        <time>2026-01-06T15:47:28.000Z</time>
        <extensions>
          <ns3:TrackPointExtension>
            <ns3:hr>124</ns3:hr>
            <ns3:cad>0</ns3:cad>
          </ns3:TrackPointExtension>
        </extensions>
      </trkpt>
      <trkpt lat="37.9382249526679515838623046875" lon="-107.141142189502716064453125">
        <ele>3573</ele>
        <time>2026-01-06T15:47:30.000Z</time>
        <extensions>
          <ns3:TrackPointExtension>
            <ns3:hr>124</ns3:hr>
            <ns3:cad>0</ns3:cad>
          </ns3:TrackPointExtension>
        </extensions>
      </trkpt>
      <trkpt lat="37.93824917636811733245849609375" lon="-107.14111603796482086181640625">
        <ele>3573.39990234375</ele>
        <time>2026-01-06T15:47:34.000Z</time>
        <extensions>
          <ns3:TrackPointExtension>
            <ns3:hr>123</ns3:hr>
            <ns3:cad>0</ns3:cad>
          </ns3:TrackPointExtension>
        </extensions>
      </trkpt>
      <trkpt lat="37.93828706257045269012451171875" lon="-107.14109131135046482086181640625">
        <ele>3573.60009765625</ele>
        <time>2026-01-06T15:47:39.000Z</time>
        <extensions>
          <ns3:TrackPointExtension>
            <ns3:hr>123</ns3:hr>
            <ns3:cad>0</ns3:cad>
          </ns3:TrackPointExtension>
        </extensions>
      </trkpt>
      <trkpt lat="37.9383262060582637786865234375" lon="-107.1410682611167430877685546875">
        <ele>3573.60009765625</ele>
        <time>2026-01-06T15:47:45.000Z</time>
        <extensions>
          <ns3:TrackPointExtension>
            <ns3:hr>122</ns3:hr>
            <ns3:cad>0</ns3:cad>
          </ns3:TrackPointExtension>
        </extensions>
      </trkpt>
      <trkpt lat="37.93836333788931369781494140625" lon="-107.141030542552471160888671875">
        <ele>3574</ele>
        <time>2026-01-06T15:47:51.000Z</time>
        <extensions>
          <ns3:TrackPointExtension>
            <ns3:hr>121</ns3:hr>
            <ns3:cad>77</ns3:cad>
          </ns3:TrackPointExtension>
        </extensions>
      </trkpt>
      <trkpt lat="37.93836987577378749847412109375" lon="-107.14101352728903293609619140625">
        <ele>3574.199951171875</ele>
        <time>2026-01-06T15:47:53.000Z</time>
        <extensions>
          <ns3:TrackPointExtension>
            <ns3:hr>121</ns3:hr>
            <ns3:cad>77</ns3:cad>
          </ns3:TrackPointExtension>
        </extensions>
      </trkpt>
      <trkpt lat="37.93838496319949626922607421875" lon="-107.140966840088367462158203125">
        <ele>3574.60009765625</ele>
        <time>2026-01-06T15:47:57.000Z</time>
        <extensions>
          <ns3:TrackPointExtension>
            <ns3:hr>119</ns3:hr>
            <ns3:cad>0</ns3:cad>
          </ns3:TrackPointExtension>
        </extensions>
      </trkpt>
      <trkpt lat="37.9383912496268749237060546875" lon="-107.140941359102725982666015625">
        <ele>3575</ele>
        <time>2026-01-06T15:48:01.000Z</time>
        <extensions>
          <ns3:TrackPointExtension>
            <ns3:hr>116</ns3:hr>
            <ns3:cad>0</ns3:cad>
          </ns3:TrackPointExtension>
        </extensions>
      </trkpt>
      <trkpt lat="37.9383942671120166778564453125" lon="-107.1409277804195880889892578125">
        <ele>3575.199951171875</ele>
        <time>2026-01-06T15:48:02.000Z</time>
        <extensions>
          <ns3:TrackPointExtension>
            <ns3:hr>116</ns3:hr>
            <ns3:cad>0</ns3:cad>
          </ns3:TrackPointExtension>
        </extensions>
      </trkpt>
      <trkpt lat="37.93839803896844387054443359375" lon="-107.14091663248836994171142578125">
        <ele>3575.199951171875</ele>
        <time>2026-01-06T15:48:03.000Z</time>
        <extensions>
          <ns3:TrackPointExtension>
            <ns3:hr>116</ns3:hr>
            <ns3:cad>0</ns3:cad>
          </ns3:TrackPointExtension>
        </extensions>
      </trkpt>
      <trkpt lat="37.9384026490151882171630859375" lon="-107.1408645808696746826171875">
        <ele>3575.39990234375</ele>
        <time>2026-01-06T15:48:09.000Z</time>
        <extensions>
          <ns3:TrackPointExtension>
            <ns3:hr>114</ns3:hr>
            <ns3:cad>67</ns3:cad>
          </ns3:TrackPointExtension>
        </extensions>
      </trkpt>
      <trkpt lat="37.93840072117745876312255859375" lon="-107.140824683010578155517578125">
        <ele>3576.39990234375</ele>
        <time>2026-01-06T15:48:14.000Z</time>
        <extensions>
          <ns3:TrackPointExtension>
            <ns3:hr>111</ns3:hr>
            <ns3:cad>67</ns3:cad>
          </ns3:TrackPointExtension>
        </extensions>
      </trkpt>
      <trkpt lat="37.93839870952069759368896484375" lon="-107.140811271965503692626953125">
        <ele>3576.39990234375</ele>
        <time>2026-01-06T15:48:15.000Z</time>
        <extensions>
          <ns3:TrackPointExtension>
            <ns3:hr>111</ns3:hr>
            <ns3:cad>0</ns3:cad>
          </ns3:TrackPointExtension>
        </extensions>
      </trkpt>
      <trkpt lat="37.93840415775775909423828125" lon="-107.1407765708863735198974609375">
        <ele>3577</ele>
        <time>2026-01-06T15:48:20.000Z</time>
        <extensions>
          <ns3:TrackPointExtension>
            <ns3:hr>110</ns3:hr>
            <ns3:cad>0</ns3:cad>
          </ns3:TrackPointExtension>
        </extensions>
      </trkpt>
      <trkpt lat="37.93842100538313388824462890625" lon="-107.14073005132377147674560546875">
        <ele>3577.39990234375</ele>
        <time>2026-01-06T15:48:25.000Z</time>
        <extensions>
          <ns3:TrackPointExtension>
            <ns3:hr>109</ns3:hr>
            <ns3:cad>0</ns3:cad>
          </ns3:TrackPointExtension>
        </extensions>
      </trkpt>
      <trkpt lat="37.938432656228542327880859375" lon="-107.1406867168843746185302734375">
        <ele>3577.60009765625</ele>
        <time>2026-01-06T15:48:31.000Z</time>
        <extensions>
          <ns3:TrackPointExtension>
            <ns3:hr>108</ns3:hr>
            <ns3:cad>0</ns3:cad>
          </ns3:TrackPointExtension>
        </extensions>
      </trkpt>
      <trkpt lat="37.9384539462625980377197265625" lon="-107.14063860476016998291015625">
        <ele>3578.199951171875</ele>
        <time>2026-01-06T15:48:36.000Z</time>
        <extensions>
          <ns3:TrackPointExtension>
            <ns3:hr>107</ns3:hr>
            <ns3:cad>0</ns3:cad>
          </ns3:TrackPointExtension>
        </extensions>
      </trkpt>
      <trkpt lat="37.93848470784723758697509765625" lon="-107.14059895835816860198974609375">
        <ele>3578.39990234375</ele>
        <time>2026-01-06T15:48:42.000Z</time>
        <extensions>
          <ns3:TrackPointExtension>
            <ns3:hr>110</ns3:hr>
            <ns3:cad>0</ns3:cad>
          </ns3:TrackPointExtension>
        </extensions>
      </trkpt>
      <trkpt lat="37.93848864734172821044921875" lon="-107.14059258811175823211669921875">
        <ele>3578.39990234375</ele>
        <time>2026-01-06T15:48:43.000Z</time>
        <extensions>
          <ns3:TrackPointExtension>
            <ns3:hr>111</ns3:hr>
            <ns3:cad>68</ns3:cad>
          </ns3:TrackPointExtension>
        </extensions>
      </trkpt>
      <trkpt lat="37.9385174810886383056640625" lon="-107.140557132661342620849609375">
        <ele>3578.60009765625</ele>
        <time>2026-01-06T15:48:48.000Z</time>
        <extensions>
          <ns3:TrackPointExtension>
            <ns3:hr>112</ns3:hr>
            <ns3:cad>0</ns3:cad>
          </ns3:TrackPointExtension>
        </extensions>
      </trkpt>
      <trkpt lat="37.93851622380316257476806640625" lon="-107.1405556239187717437744140625">
        <ele>3578.800048828125</ele>
        <time>2026-01-06T15:48:54.000Z</time>
        <extensions>
          <ns3:TrackPointExtension>
            <ns3:hr>112</ns3:hr>
            <ns3:cad>0</ns3:cad>
          </ns3:TrackPointExtension>
        </extensions>
      </trkpt>
      <trkpt lat="37.93851622380316257476806640625" lon="-107.1405556239187717437744140625">
        <ele>3579</ele>
        <time>2026-01-06T15:48:57.000Z</time>
        <extensions>
          <ns3:TrackPointExtension>
            <ns3:hr>108</ns3:hr>
            <ns3:cad>0</ns3:cad>
          </ns3:TrackPointExtension>
        </extensions>
      </trkpt>
      <trkpt lat="37.93851622380316257476806640625" lon="-107.1405556239187717437744140625">
        <ele>3579</ele>
        <time>2026-01-06T15:48:59.000Z</time>
        <extensions>
          <ns3:TrackPointExtension>
            <ns3:hr>108</ns3:hr>
            <ns3:cad>0</ns3:cad>
          </ns3:TrackPointExtension>
        </extensions>
      </trkpt>
      <trkpt lat="37.93851622380316257476806640625" lon="-107.1405556239187717437744140625">
        <ele>3578.800048828125</ele>
        <time>2026-01-06T15:49:05.000Z</time>
        <extensions>
          <ns3:TrackPointExtension>
            <ns3:hr>108</ns3:hr>
            <ns3:cad>0</ns3:cad>
          </ns3:TrackPointExtension>
        </extensions>
      </trkpt>
      <trkpt lat="37.93852351605892181396484375" lon="-107.140554450452327728271484375">
        <ele>3579.199951171875</ele>
        <time>2026-01-06T15:49:08.000Z</time>
        <extensions>
          <ns3:TrackPointExtension>
            <ns3:hr>107</ns3:hr>
            <ns3:cad>0</ns3:cad>
          </ns3:TrackPointExtension>
        </extensions>
      </trkpt>
      <trkpt lat="37.93853231705725193023681640625" lon="-107.140512205660343170166015625">
        <ele>3579</ele>
        <time>2026-01-06T15:49:13.000Z</time>
        <extensions>
          <ns3:TrackPointExtension>
            <ns3:hr>104</ns3:hr>
            <ns3:cad>0</ns3:cad>
          </ns3:TrackPointExtension>
        </extensions>
      </trkpt>
      <trkpt lat="37.93853751383721828460693359375" lon="-107.1404999680817127227783203125">
        <ele>3579.199951171875</ele>
        <time>2026-01-06T15:49:14.000Z</time>
        <extensions>
          <ns3:TrackPointExtension>
            <ns3:hr>104</ns3:hr>
            <ns3:cad>0</ns3:cad>
          </ns3:TrackPointExtension>
        </extensions>
      </trkpt>
      <trkpt lat="37.93854019604623317718505859375" lon="-107.14048999361693859100341796875">
        <ele>3579.39990234375</ele>
        <time>2026-01-06T15:49:15.000Z</time>
        <extensions>
          <ns3:TrackPointExtension>
            <ns3:hr>104</ns3:hr>
            <ns3:cad>0</ns3:cad>
          </ns3:TrackPointExtension>
        </extensions>
      </trkpt>
      <trkpt lat="37.93854773975908756256103515625" lon="-107.140475325286388397216796875">
        <ele>3579.800048828125</ele>
        <time>2026-01-06T15:49:18.000Z</time>
        <extensions>
          <ns3:TrackPointExtension>
            <ns3:hr>101</ns3:hr>
            <ns3:cad>0</ns3:cad>
          </ns3:TrackPointExtension>
        </extensions>
      </trkpt>
      <trkpt lat="37.93855042196810245513916015625" lon="-107.1404714696109294891357421875">
        <ele>3579.60009765625</ele>
        <time>2026-01-06T15:49:20.000Z</time>
        <extensions>
          <ns3:TrackPointExtension>
            <ns3:hr>101</ns3:hr>
            <ns3:cad>0</ns3:cad>
          </ns3:TrackPointExtension>
        </extensions>
      </trkpt>
      <trkpt lat="37.93856534175574779510498046875" lon="-107.1404335834085941314697265625">
        <ele>3580.39990234375</ele>
        <time>2026-01-06T15:49:26.000Z</time>
        <extensions>
          <ns3:TrackPointExtension>
            <ns3:hr>101</ns3:hr>
            <ns3:cad>0</ns3:cad>
          </ns3:TrackPointExtension>
        </extensions>
      </trkpt>
      <trkpt lat="37.9385649226605892181396484375" lon="-107.14043182320892810821533203125">
        <ele>3580.199951171875</ele>
        <time>2026-01-06T15:49:32.000Z</time>
        <extensions>
          <ns3:TrackPointExtension>
            <ns3:hr>102</ns3:hr>
            <ns3:cad>0</ns3:cad>
          </ns3:TrackPointExtension>
        </extensions>
      </trkpt>
      <trkpt lat="37.938566766679286956787109375" lon="-107.1404376067221164703369140625">
        <ele>3580.39990234375</ele>
        <time>2026-01-06T15:49:34.000Z</time>
        <extensions>
          <ns3:TrackPointExtension>
            <ns3:hr>103</ns3:hr>
            <ns3:cad>0</ns3:cad>
          </ns3:TrackPointExtension>
        </extensions>
      </trkpt>
      <trkpt lat="37.93856735341250896453857421875" lon="-107.14044238440692424774169921875">
        <ele>3580</ele>
        <time>2026-01-06T15:49:40.000Z</time>
        <extensions>
          <ns3:TrackPointExtension>
            <ns3:hr>101</ns3:hr>
            <ns3:cad>0</ns3:cad>
          </ns3:TrackPointExtension>
        </extensions>
      </trkpt>
      <trkpt lat="37.93856651522219181060791015625" lon="-107.14043769054114818572998046875">
        <ele>3579.800048828125</ele>
        <time>2026-01-06T15:49:42.000Z</time>
        <extensions>
          <ns3:TrackPointExtension>
            <ns3:hr>101</ns3:hr>
            <ns3:cad>0</ns3:cad>
          </ns3:TrackPointExtension>
        </extensions>
      </trkpt>
      <trkpt lat="37.93856651522219181060791015625" lon="-107.14043769054114818572998046875">
        <ele>3579.60009765625</ele>
        <time>2026-01-06T15:49:48.000Z</time>
        <extensions>
          <ns3:TrackPointExtension>
            <ns3:hr>100</ns3:hr>
            <ns3:cad>0</ns3:cad>
          </ns3:TrackPointExtension>
        </extensions>
      </trkpt>
      <trkpt lat="37.93856651522219181060791015625" lon="-107.14043769054114818572998046875">
        <ele>3580.199951171875</ele>
        <time>2026-01-06T15:49:54.000Z</time>
        <extensions>
          <ns3:TrackPointExtension>
            <ns3:hr>101</ns3:hr>
            <ns3:cad>0</ns3:cad>
          </ns3:TrackPointExtension>
        </extensions>
      </trkpt>
      <trkpt lat="37.93856752105057239532470703125" lon="-107.14043417014181613922119140625">
        <ele>3579.800048828125</ele>
        <time>2026-01-06T15:50:00.000Z</time>
        <extensions>
          <ns3:TrackPointExtension>
            <ns3:hr>102</ns3:hr>
            <ns3:cad>0</ns3:cad>
          </ns3:TrackPointExtension>
        </extensions>
      </trkpt>
      <trkpt lat="37.93857590295374393463134765625" lon="-107.140439115464687347412109375">
        <ele>3580</ele>
        <time>2026-01-06T15:50:02.000Z</time>
        <extensions>
          <ns3:TrackPointExtension>
            <ns3:hr>103</ns3:hr>
            <ns3:cad>0</ns3:cad>
          </ns3:TrackPointExtension>
        </extensions>
      </trkpt>
      <trkpt lat="37.93860004283487796783447265625" lon="-107.140392847359180450439453125">
        <ele>3580.60009765625</ele>
        <time>2026-01-06T15:50:07.000Z</time>
        <extensions>
          <ns3:TrackPointExtension>
            <ns3:hr>104</ns3:hr>
            <ns3:cad>0</ns3:cad>
          </ns3:TrackPointExtension>
        </extensions>
      </trkpt>
      <trkpt lat="37.93861663900315761566162109375" lon="-107.140353284776210784912109375">
        <ele>3581</ele>
        <time>2026-01-06T15:50:13.000Z</time>
        <extensions>
          <ns3:TrackPointExtension>
            <ns3:hr>102</ns3:hr>
            <ns3:cad>65</ns3:cad>
          </ns3:TrackPointExtension>
        </extensions>
      </trkpt>
      <trkpt lat="37.93861228041350841522216796875" lon="-107.1403457410633563995361328125">
        <ele>3581.199951171875</ele>
        <time>2026-01-06T15:50:14.000Z</time>
        <extensions>
          <ns3:TrackPointExtension>
            <ns3:hr>101</ns3:hr>
            <ns3:cad>0</ns3:cad>
          </ns3:TrackPointExtension>
        </extensions>
      </trkpt>
      <trkpt lat="37.93861613608896732330322265625" lon="-107.14034029282629489898681640625">
        <ele>3581.199951171875</ele>
        <time>2026-01-06T15:50:19.000Z</time>
        <extensions>
          <ns3:TrackPointExtension>
            <ns3:hr>106</ns3:hr>
            <ns3:cad>0</ns3:cad>
          </ns3:TrackPointExtension>
        </extensions>
      </trkpt>
      <trkpt lat="37.93861647136509418487548828125" lon="-107.14034020900726318359375">
        <ele>3581.39990234375</ele>
        <time>2026-01-06T15:50:20.000Z</time>
        <extensions>
          <ns3:TrackPointExtension>
            <ns3:hr>112</ns3:hr>
            <ns3:cad>0</ns3:cad>
          </ns3:TrackPointExtension>
        </extensions>
      </trkpt>
      <trkpt lat="37.93861932121217250823974609375" lon="-107.140336520969867706298828125">
        <ele>3581.39990234375</ele>
        <time>2026-01-06T15:50:21.000Z</time>
        <extensions>
          <ns3:TrackPointExtension>
            <ns3:hr>113</ns3:hr>
            <ns3:cad>0</ns3:cad>
          </ns3:TrackPointExtension>
        </extensions>
      </trkpt>
      <trkpt lat="37.9386235959827899932861328125" lon="-107.140327803790569305419921875">
        <ele>3581.60009765625</ele>
        <time>2026-01-06T15:50:22.000Z</time>
        <extensions>
          <ns3:TrackPointExtension>
            <ns3:hr>113</ns3:hr>
            <ns3:cad>0</ns3:cad>
          </ns3:TrackPointExtension>
        </extensions>
      </trkpt>
      <trkpt lat="37.938631474971771240234375" lon="-107.140272818505764007568359375">
        <ele>3582</ele>
        <time>2026-01-06T15:50:28.000Z</time>
        <extensions>
          <ns3:TrackPointExtension>
            <ns3:hr>115</ns3:hr>
            <ns3:cad>75</ns3:cad>
          </ns3:TrackPointExtension>
        </extensions>
      </trkpt>
      <trkpt lat="37.9386386834084987640380859375" lon="-107.14024289511144161224365234375">
        <ele>3582.800048828125</ele>
        <time>2026-01-06T15:50:31.000Z</time>
        <extensions>
          <ns3:TrackPointExtension>
            <ns3:hr>114</ns3:hr>
            <ns3:cad>75</ns3:cad>
          </ns3:TrackPointExtension>
        </extensions>
      </trkpt>
      <trkpt lat="37.93863457627594470977783203125" lon="-107.14022286236286163330078125">
        <ele>3583.39990234375</ele>
        <time>2026-01-06T15:50:33.000Z</time>
        <extensions>
          <ns3:TrackPointExtension>
            <ns3:hr>113</ns3:hr>
            <ns3:cad>0</ns3:cad>
          </ns3:TrackPointExtension>
        </extensions>
      </trkpt>
      <trkpt lat="37.9386259429156780242919921875" lon="-107.14019025675952434539794921875">
        <ele>3583.800048828125</ele>
        <time>2026-01-06T15:50:37.000Z</time>
        <extensions>
          <ns3:TrackPointExtension>
            <ns3:hr>112</ns3:hr>
            <ns3:cad>0</ns3:cad>
          </ns3:TrackPointExtension>
        </extensions>
      </trkpt>
      <trkpt lat="37.9386142082512378692626953125" lon="-107.14016293175518512725830078125">
        <ele>3584.199951171875</ele>
        <time>2026-01-06T15:50:40.000Z</time>
        <extensions>
          <ns3:TrackPointExtension>
            <ns3:hr>109</ns3:hr>
            <ns3:cad>0</ns3:cad>
          </ns3:TrackPointExtension>
        </extensions>
      </trkpt>
      <trkpt lat="37.93860708363354206085205078125" lon="-107.1401529572904109954833984375">
        <ele>3584.199951171875</ele>
        <time>2026-01-06T15:50:41.000Z</time>
        <extensions>
          <ns3:TrackPointExtension>
            <ns3:hr>108</ns3:hr>
            <ns3:cad>69</ns3:cad>
          </ns3:TrackPointExtension>
        </extensions>
      </trkpt>
      <trkpt lat="37.938610352575778961181640625" lon="-107.1401211060583591461181640625">
        <ele>3584.800048828125</ele>
        <time>2026-01-06T15:50:47.000Z</time>
        <extensions>
          <ns3:TrackPointExtension>
            <ns3:hr>110</ns3:hr>
            <ns3:cad>0</ns3:cad>
          </ns3:TrackPointExtension>
        </extensions>
      </trkpt>
      <trkpt lat="37.93861429207026958465576171875" lon="-107.14011289179325103759765625">
        <ele>3584.800048828125</ele>
        <time>2026-01-06T15:50:48.000Z</time>
        <extensions>
          <ns3:TrackPointExtension>
            <ns3:hr>111</ns3:hr>
            <ns3:cad>0</ns3:cad>
          </ns3:TrackPointExtension>
        </extensions>
      </trkpt>
      <trkpt lat="37.93861110694706439971923828125" lon="-107.14009570889174938201904296875">
        <ele>3585.199951171875</ele>
        <time>2026-01-06T15:50:52.000Z</time>
        <extensions>
          <ns3:TrackPointExtension>
            <ns3:hr>112</ns3:hr>
            <ns3:cad>0</ns3:cad>
          </ns3:TrackPointExtension>
        </extensions>
      </trkpt>
      <trkpt lat="37.93861605226993560791015625" lon="-107.14007173664867877960205078125">
        <ele>3585.199951171875</ele>
        <time>2026-01-06T15:50:56.000Z</time>
        <extensions>
          <ns3:TrackPointExtension>
            <ns3:hr>72</ns3:hr>
            <ns3:cad>0</ns3:cad>
          </ns3:TrackPointExtension>
        </extensions>
      </trkpt>
      <trkpt lat="37.938614375889301300048828125" lon="-107.14005882851779460906982421875">
        <ele>3585.60009765625</ele>
        <time>2026-01-06T15:50:58.000Z</time>
        <extensions>
          <ns3:TrackPointExtension>
            <ns3:hr>72</ns3:hr>
            <ns3:cad>0</ns3:cad>
          </ns3:TrackPointExtension>
        </extensions>
      </trkpt>
      <trkpt lat="37.93861110694706439971923828125" lon="-107.14003854431211948394775390625">
        <ele>3586</ele>
        <time>2026-01-06T15:51:00.000Z</time>
        <extensions>
          <ns3:TrackPointExtension>
            <ns3:hr>76</ns3:hr>
            <ns3:cad>0</ns3:cad>
          </ns3:TrackPointExtension>
        </extensions>
      </trkpt>
      <trkpt lat="37.9386098496615886688232421875" lon="-107.14002882130444049835205078125">
        <ele>3586.199951171875</ele>
        <time>2026-01-06T15:51:01.000Z</time>
        <extensions>
          <ns3:TrackPointExtension>
            <ns3:hr>80</ns3:hr>
            <ns3:cad>0</ns3:cad>
          </ns3:TrackPointExtension>
        </extensions>
      </trkpt>
      <trkpt lat="37.938614375889301300048828125" lon="-107.14001473970711231231689453125">
        <ele>3586.60009765625</ele>
        <time>2026-01-06T15:51:04.000Z</time>
        <extensions>
          <ns3:TrackPointExtension>
            <ns3:hr>83</ns3:hr>
            <ns3:cad>0</ns3:cad>
          </ns3:TrackPointExtension>
        </extensions>
      </trkpt>
      <trkpt lat="37.93861345387995243072509765625" lon="-107.14001624844968318939208984375">
        <ele>3586.800048828125</ele>
        <time>2026-01-06T15:51:07.000Z</time>
        <extensions>
          <ns3:TrackPointExtension>
            <ns3:hr>83</ns3:hr>
            <ns3:cad>0</ns3:cad>
          </ns3:TrackPointExtension>
        </extensions>
      </trkpt>
      <trkpt lat="37.93861345387995243072509765625" lon="-107.14001624844968318939208984375">
        <ele>3587</ele>
        <time>2026-01-06T15:51:10.000Z</time>
        <extensions>
          <ns3:TrackPointExtension>
            <ns3:hr>83</ns3:hr>
            <ns3:cad>0</ns3:cad>
          </ns3:TrackPointExtension>
        </extensions>
      </trkpt>
      <trkpt lat="37.93861345387995243072509765625" lon="-107.14001624844968318939208984375">
        <ele>3587.199951171875</ele>
        <time>2026-01-06T15:51:14.000Z</time>
        <extensions>
          <ns3:TrackPointExtension>
            <ns3:hr>86</ns3:hr>
            <ns3:cad>0</ns3:cad>
          </ns3:TrackPointExtension>
        </extensions>
      </trkpt>
      <trkpt lat="37.93861345387995243072509765625" lon="-107.14001624844968318939208984375">
        <ele>3587.199951171875</ele>
        <time>2026-01-06T15:51:17.000Z</time>
        <extensions>
          <ns3:TrackPointExtension>
            <ns3:hr>91</ns3:hr>
            <ns3:cad>0</ns3:cad>
          </ns3:TrackPointExtension>
        </extensions>
      </trkpt>
      <trkpt lat="37.93861345387995243072509765625" lon="-107.14001624844968318939208984375">
        <ele>3587.199951171875</ele>
        <time>2026-01-06T15:51:18.000Z</time>
        <extensions>
          <ns3:TrackPointExtension>
            <ns3:hr>101</ns3:hr>
            <ns3:cad>0</ns3:cad>
          </ns3:TrackPointExtension>
        </extensions>
      </trkpt>
      <trkpt lat="37.93861345387995243072509765625" lon="-107.14001624844968318939208984375">
        <ele>3587.199951171875</ele>
        <time>2026-01-06T15:51:19.000Z</time>
        <extensions>
          <ns3:TrackPointExtension>
            <ns3:hr>111</ns3:hr>
            <ns3:cad>0</ns3:cad>
          </ns3:TrackPointExtension>
        </extensions>
      </trkpt>
      <trkpt lat="37.93861345387995243072509765625" lon="-107.14001624844968318939208984375">
        <ele>3587.199951171875</ele>
        <time>2026-01-06T15:51:20.000Z</time>
        <extensions>
          <ns3:TrackPointExtension>
            <ns3:hr>113</ns3:hr>
            <ns3:cad>0</ns3:cad>
          </ns3:TrackPointExtension>
        </extensions>
      </trkpt>
      <trkpt lat="37.93861345387995243072509765625" lon="-107.14001624844968318939208984375">
        <ele>3586.800048828125</ele>
        <time>2026-01-06T15:51:26.000Z</time>
        <extensions>
          <ns3:TrackPointExtension>
            <ns3:hr>111</ns3:hr>
            <ns3:cad>0</ns3:cad>
          </ns3:TrackPointExtension>
        </extensions>
      </trkpt>
      <trkpt lat="37.93861898593604564666748046875" lon="-107.14001792483031749725341796875">
        <ele>3586.60009765625</ele>
        <time>2026-01-06T15:51:29.000Z</time>
        <extensions>
          <ns3:TrackPointExtension>
            <ns3:hr>110</ns3:hr>
            <ns3:cad>0</ns3:cad>
          </ns3:TrackPointExtension>
        </extensions>
      </trkpt>
      <trkpt lat="37.93864731676876544952392578125" lon="-107.139981128275394439697265625">
        <ele>3586.39990234375</ele>
        <time>2026-01-06T15:51:35.000Z</time>
        <extensions>
          <ns3:TrackPointExtension>
            <ns3:hr>109</ns3:hr>
            <ns3:cad>0</ns3:cad>
          </ns3:TrackPointExtension>
        </extensions>
      </trkpt>
      <trkpt lat="37.93865351937711238861083984375" lon="-107.1399742551147937774658203125">
        <ele>3586.60009765625</ele>
        <time>2026-01-06T15:51:36.000Z</time>
        <extensions>
          <ns3:TrackPointExtension>
            <ns3:hr>108</ns3:hr>
            <ns3:cad>0</ns3:cad>
          </ns3:TrackPointExtension>
        </extensions>
      </trkpt>
      <trkpt lat="37.93866693042218685150146484375" lon="-107.1399139054119586944580078125">
        <ele>3587</ele>
        <time>2026-01-06T15:51:42.000Z</time>
        <extensions>
          <ns3:TrackPointExtension>
            <ns3:hr>108</ns3:hr>
            <ns3:cad>59</ns3:cad>
          </ns3:TrackPointExtension>
        </extensions>
      </trkpt>
      <trkpt lat="37.938685454428195953369140625" lon="-107.13984861038625240325927734375">
        <ele>3587.39990234375</ele>
        <time>2026-01-06T15:51:48.000Z</time>
        <extensions>
          <ns3:TrackPointExtension>
            <ns3:hr>106</ns3:hr>
            <ns3:cad>0</ns3:cad>
          </ns3:TrackPointExtension>
        </extensions>
      </trkpt>
      <trkpt lat="37.93869056738913059234619140625" lon="-107.13984710164368152618408203125">
        <ele>3587.39990234375</ele>
        <time>2026-01-06T15:51:49.000Z</time>
        <extensions>
          <ns3:TrackPointExtension>
            <ns3:hr>106</ns3:hr>
            <ns3:cad>0</ns3:cad>
          </ns3:TrackPointExtension>
        </extensions>
      </trkpt>
      <trkpt lat="37.93871202506124973297119140625" lon="-107.139804102480411529541015625">
        <ele>3587.60009765625</ele>
        <time>2026-01-06T15:51:54.000Z</time>
        <extensions>
          <ns3:TrackPointExtension>
            <ns3:hr>107</ns3:hr>
            <ns3:cad>0</ns3:cad>
          </ns3:TrackPointExtension>
        </extensions>
      </trkpt>
      <trkpt lat="37.9387339018285274505615234375" lon="-107.1397499553859233856201171875">
        <ele>3588</ele>
        <time>2026-01-06T15:52:00.000Z</time>
        <extensions>
          <ns3:TrackPointExtension>
            <ns3:hr>106</ns3:hr>
            <ns3:cad>0</ns3:cad>
          </ns3:TrackPointExtension>
        </extensions>
      </trkpt>
      <trkpt lat="37.9387320578098297119140625" lon="-107.13973880745470523834228515625">
        <ele>3588.199951171875</ele>
        <time>2026-01-06T15:52:01.000Z</time>
        <extensions>
          <ns3:TrackPointExtension>
            <ns3:hr>107</ns3:hr>
            <ns3:cad>0</ns3:cad>
          </ns3:TrackPointExtension>
        </extensions>
      </trkpt>
      <trkpt lat="37.938709594309329986572265625" lon="-107.13972128927707672119140625">
        <ele>3588.60009765625</ele>
        <time>2026-01-06T15:52:05.000Z</time>
        <extensions>
          <ns3:TrackPointExtension>
            <ns3:hr>109</ns3:hr>
            <ns3:cad>0</ns3:cad>
          </ns3:TrackPointExtension>
        </extensions>
      </trkpt>
      <trkpt lat="37.9387137852609157562255859375" lon="-107.1396832354366779327392578125">
        <ele>3589.199951171875</ele>
        <time>2026-01-06T15:52:10.000Z</time>
        <extensions>
          <ns3:TrackPointExtension>
            <ns3:hr>112</ns3:hr>
            <ns3:cad>0</ns3:cad>
          </ns3:TrackPointExtension>
        </extensions>
      </trkpt>
      <trkpt lat="37.93872510083019733428955078125" lon="-107.1396419964730739593505859375">
        <ele>3589.60009765625</ele>
        <time>2026-01-06T15:52:15.000Z</time>
        <extensions>
          <ns3:TrackPointExtension>
            <ns3:hr>112</ns3:hr>
            <ns3:cad>0</ns3:cad>
          </ns3:TrackPointExtension>
        </extensions>
      </trkpt>
      <trkpt lat="37.93871923349797725677490234375" lon="-107.1396366320550441741943359375">
        <ele>3589.800048828125</ele>
        <time>2026-01-06T15:52:16.000Z</time>
        <extensions>
          <ns3:TrackPointExtension>
            <ns3:hr>113</ns3:hr>
            <ns3:cad>0</ns3:cad>
          </ns3:TrackPointExtension>
        </extensions>
      </trkpt>
      <trkpt lat="37.93871529400348663330078125" lon="-107.13959815911948680877685546875">
        <ele>3590.199951171875</ele>
        <time>2026-01-06T15:52:22.000Z</time>
        <extensions>
          <ns3:TrackPointExtension>
            <ns3:hr>114</ns3:hr>
            <ns3:cad>0</ns3:cad>
          </ns3:TrackPointExtension>
        </extensions>
      </trkpt>
      <trkpt lat="37.93872065842151641845703125" lon="-107.13959312997758388519287109375">
        <ele>3590.199951171875</ele>
        <time>2026-01-06T15:52:23.000Z</time>
        <extensions>
          <ns3:TrackPointExtension>
            <ns3:hr>114</ns3:hr>
            <ns3:cad>0</ns3:cad>
          </ns3:TrackPointExtension>
        </extensions>
      </trkpt>
      <trkpt lat="37.9387328960001468658447265625" lon="-107.13955692015588283538818359375">
        <ele>3591</ele>
        <time>2026-01-06T15:52:28.000Z</time>
        <extensions>
          <ns3:TrackPointExtension>
            <ns3:hr>113</ns3:hr>
            <ns3:cad>70</ns3:cad>
          </ns3:TrackPointExtension>
        </extensions>
      </trkpt>
      <trkpt lat="37.938744463026523590087890625" lon="-107.1395444311201572418212890625">
        <ele>3591.199951171875</ele>
        <time>2026-01-06T15:52:30.000Z</time>
        <extensions>
          <ns3:TrackPointExtension>
            <ns3:hr>113</ns3:hr>
            <ns3:cad>0</ns3:cad>
          </ns3:TrackPointExtension>
        </extensions>
      </trkpt>
      <trkpt lat="37.93876223266124725341796875" lon="-107.13952372781932353973388671875">
        <ele>3591.60009765625</ele>
        <time>2026-01-06T15:52:33.000Z</time>
        <extensions>
          <ns3:TrackPointExtension>
            <ns3:hr>113</ns3:hr>
            <ns3:cad>0</ns3:cad>
          </ns3:TrackPointExtension>
        </extensions>
      </trkpt>
      <trkpt lat="37.93879534117877483367919921875" lon="-107.1394832432270050048828125">
        <ele>3591.60009765625</ele>
        <time>2026-01-06T15:52:39.000Z</time>
        <extensions>
          <ns3:TrackPointExtension>
            <ns3:hr>115</ns3:hr>
            <ns3:cad>0</ns3:cad>
          </ns3:TrackPointExtension>
        </extensions>
      </trkpt>
      <trkpt lat="37.9388344846665859222412109375" lon="-107.1394626237452030181884765625">
        <ele>3591.60009765625</ele>
        <time>2026-01-06T15:52:45.000Z</time>
        <extensions>
          <ns3:TrackPointExtension>
            <ns3:hr>115</ns3:hr>
            <ns3:cad>62</ns3:cad>
          </ns3:TrackPointExtension>
        </extensions>
      </trkpt>
      <trkpt lat="37.9388670064508914947509765625" lon="-107.13941141031682491302490234375">
        <ele>3592</ele>
        <time>2026-01-06T15:52:51.000Z</time>
        <extensions>
          <ns3:TrackPointExtension>
            <ns3:hr>114</ns3:hr>
            <ns3:cad>43</ns3:cad>
          </ns3:TrackPointExtension>
        </extensions>
      </trkpt>
      <trkpt lat="37.9389062337577342987060546875" lon="-107.1393741108477115631103515625">
        <ele>3592</ele>
        <time>2026-01-06T15:52:57.000Z</time>
        <extensions>
          <ns3:TrackPointExtension>
            <ns3:hr>113</ns3:hr>
            <ns3:cad>0</ns3:cad>
          </ns3:TrackPointExtension>
        </extensions>
      </trkpt>
      <trkpt lat="37.9389152862131595611572265625" lon="-107.13932926766574382781982421875">
        <ele>3592.39990234375</ele>
        <time>2026-01-06T15:53:01.000Z</time>
        <extensions>
          <ns3:TrackPointExtension>
            <ns3:hr>112</ns3:hr>
            <ns3:cad>0</ns3:cad>
          </ns3:TrackPointExtension>
        </extensions>
      </trkpt>
      <trkpt lat="37.9389171302318572998046875" lon="-107.1393238194286823272705078125">
        <ele>3592.39990234375</ele>
        <time>2026-01-06T15:53:02.000Z</time>
        <extensions>
          <ns3:TrackPointExtension>
            <ns3:hr>114</ns3:hr>
            <ns3:cad>0</ns3:cad>
          </ns3:TrackPointExtension>
        </extensions>
      </trkpt>
      <trkpt lat="37.9389286972582340240478515625" lon="-107.139299176633358001708984375">
        <ele>3593</ele>
        <time>2026-01-06T15:53:05.000Z</time>
        <extensions>
          <ns3:TrackPointExtension>
            <ns3:hr>117</ns3:hr>
            <ns3:cad>0</ns3:cad>
          </ns3:TrackPointExtension>
        </extensions>
      </trkpt>
      <trkpt lat="37.93893448077142238616943359375" lon="-107.139284424483776092529296875">
        <ele>3593.39990234375</ele>
        <time>2026-01-06T15:53:07.000Z</time>
        <extensions>
          <ns3:TrackPointExtension>
            <ns3:hr>118</ns3:hr>
            <ns3:cad>0</ns3:cad>
          </ns3:TrackPointExtension>
        </extensions>
      </trkpt>
      <trkpt lat="37.93893716298043727874755859375" lon="-107.13927662931382656097412109375">
        <ele>3593.60009765625</ele>
        <time>2026-01-06T15:53:08.000Z</time>
        <extensions>
          <ns3:TrackPointExtension>
            <ns3:hr>119</ns3:hr>
            <ns3:cad>0</ns3:cad>
          </ns3:TrackPointExtension>
        </extensions>
      </trkpt>
      <trkpt lat="37.93894059956073760986328125" lon="-107.13922315277159214019775390625">
        <ele>3593.39990234375</ele>
        <time>2026-01-06T15:53:14.000Z</time>
        <extensions>
          <ns3:TrackPointExtension>
            <ns3:hr>121</ns3:hr>
            <ns3:cad>0</ns3:cad>
          </ns3:TrackPointExtension>
        </extensions>
      </trkpt>
      <trkpt lat="37.93891034089028835296630859375" lon="-107.13918694294989109039306640625">
        <ele>3594.39990234375</ele>
        <time>2026-01-06T15:53:20.000Z</time>
        <extensions>
          <ns3:TrackPointExtension>
            <ns3:hr>122</ns3:hr>
            <ns3:cad>0</ns3:cad>
          </ns3:TrackPointExtension>
        </extensions>
      </trkpt>
      <trkpt lat="37.93890028260648250579833984375" lon="-107.13918090797960758209228515625">
        <ele>3594.60009765625</ele>
        <time>2026-01-06T15:53:21.000Z</time>
        <extensions>
          <ns3:TrackPointExtension>
            <ns3:hr>122</ns3:hr>
            <ns3:cad>0</ns3:cad>
          </ns3:TrackPointExtension>
        </extensions>
      </trkpt>
      <trkpt lat="37.93887597508728504180908203125" lon="-107.1391571871936321258544921875">
        <ele>3595</ele>
        <time>2026-01-06T15:53:25.000Z</time>
        <extensions>
          <ns3:TrackPointExtension>
            <ns3:hr>122</ns3:hr>
            <ns3:cad>0</ns3:cad>
          </ns3:TrackPointExtension>
        </extensions>
      </trkpt>
      <trkpt lat="37.93885149993002414703369140625" lon="-107.13911988772451877593994140625">
        <ele>3595.800048828125</ele>
        <time>2026-01-06T15:53:31.000Z</time>
        <extensions>
          <ns3:TrackPointExtension>
            <ns3:hr>120</ns3:hr>
            <ns3:cad>0</ns3:cad>
          </ns3:TrackPointExtension>
        </extensions>
      </trkpt>
      <trkpt lat="37.93885015882551670074462890625" lon="-107.139101363718509674072265625">
        <ele>3596.199951171875</ele>
        <time>2026-01-06T15:53:34.000Z</time>
        <extensions>
          <ns3:TrackPointExtension>
            <ns3:hr>117</ns3:hr>
            <ns3:cad>0</ns3:cad>
          </ns3:TrackPointExtension>
        </extensions>
      </trkpt>
      <trkpt lat="37.9388482309877872467041015625" lon="-107.13908250443637371063232421875">
        <ele>3596.800048828125</ele>
        <time>2026-01-06T15:53:37.000Z</time>
        <extensions>
          <ns3:TrackPointExtension>
            <ns3:hr>117</ns3:hr>
            <ns3:cad>0</ns3:cad>
          </ns3:TrackPointExtension>
        </extensions>
      </trkpt>
      <trkpt lat="37.938845716416835784912109375" lon="-107.13907009921967983245849609375">
        <ele>3596.800048828125</ele>
        <time>2026-01-06T15:53:38.000Z</time>
        <extensions>
          <ns3:TrackPointExtension>
            <ns3:hr>117</ns3:hr>
            <ns3:cad>0</ns3:cad>
          </ns3:TrackPointExtension>
        </extensions>
      </trkpt>
      <trkpt lat="37.93883423320949077606201171875" lon="-107.1390353143215179443359375">
        <ele>3597.199951171875</ele>
        <time>2026-01-06T15:53:42.000Z</time>
        <extensions>
          <ns3:TrackPointExtension>
            <ns3:hr>117</ns3:hr>
            <ns3:cad>40</ns3:cad>
          </ns3:TrackPointExtension>
        </extensions>
      </trkpt>
      <trkpt lat="37.938816882669925689697265625" lon="-107.1390053071081638336181640625">
        <ele>3598</ele>
        <time>2026-01-06T15:53:46.000Z</time>
        <extensions>
          <ns3:TrackPointExtension>
            <ns3:hr>116</ns3:hr>
            <ns3:cad>0</ns3:cad>
          </ns3:TrackPointExtension>
        </extensions>
      </trkpt>
      <trkpt lat="37.93880238197743892669677734375" lon="-107.13899868540465831756591796875">
        <ele>3598.199951171875</ele>
        <time>2026-01-06T15:53:49.000Z</time>
        <extensions>
          <ns3:TrackPointExtension>
            <ns3:hr>117</ns3:hr>
            <ns3:cad>0</ns3:cad>
          </ns3:TrackPointExtension>
        </extensions>
      </trkpt>
      <trkpt lat="37.938778661191463470458984375" lon="-107.1389751322567462921142578125">
        <ele>3599</ele>
        <time>2026-01-06T15:53:55.000Z</time>
        <extensions>
          <ns3:TrackPointExtension>
            <ns3:hr>119</ns3:hr>
            <ns3:cad>0</ns3:cad>
          </ns3:TrackPointExtension>
        </extensions>
      </trkpt>
      <trkpt lat="37.93877170421183109283447265625" lon="-107.1389727853238582611083984375">
        <ele>3599.199951171875</ele>
        <time>2026-01-06T15:53:56.000Z</time>
        <extensions>
          <ns3:TrackPointExtension>
            <ns3:hr>119</ns3:hr>
            <ns3:cad>0</ns3:cad>
          </ns3:TrackPointExtension>
        </extensions>
      </trkpt>
      <trkpt lat="37.9387669265270233154296875" lon="-107.1389711089432239532470703125">
        <ele>3599.199951171875</ele>
        <time>2026-01-06T15:53:58.000Z</time>
        <extensions>
          <ns3:TrackPointExtension>
            <ns3:hr>122</ns3:hr>
            <ns3:cad>0</ns3:cad>
          </ns3:TrackPointExtension>
        </extensions>
      </trkpt>
      <trkpt lat="37.93875644914805889129638671875" lon="-107.13894621469080448150634765625">
        <ele>3599.60009765625</ele>
        <time>2026-01-06T15:54:01.000Z</time>
        <extensions>
          <ns3:TrackPointExtension>
            <ns3:hr>125</ns3:hr>
            <ns3:cad>0</ns3:cad>
          </ns3:TrackPointExtension>
        </extensions>
      </trkpt>
      <trkpt lat="37.9387469775974750518798828125" lon="-107.13893347419798374176025390625">
        <ele>3600.199951171875</ele>
        <time>2026-01-06T15:54:04.000Z</time>
        <extensions>
          <ns3:TrackPointExtension>
            <ns3:hr>126</ns3:hr>
            <ns3:cad>0</ns3:cad>
          </ns3:TrackPointExtension>
        </extensions>
      </trkpt>
      <trkpt lat="37.9387414455413818359375" lon="-107.13892475701868534088134765625">
        <ele>3601</ele>
        <time>2026-01-06T15:54:07.000Z</time>
        <extensions>
          <ns3:TrackPointExtension>
            <ns3:hr>125</ns3:hr>
            <ns3:cad>0</ns3:cad>
          </ns3:TrackPointExtension>
        </extensions>
      </trkpt>
      <trkpt lat="37.9387414455413818359375" lon="-107.13892475701868534088134765625">
        <ele>3601.199951171875</ele>
        <time>2026-01-06T15:54:08.000Z</time>
        <extensions>
          <ns3:TrackPointExtension>
            <ns3:hr>125</ns3:hr>
            <ns3:cad>0</ns3:cad>
          </ns3:TrackPointExtension>
        </extensions>
      </trkpt>
      <trkpt lat="37.9387414455413818359375" lon="-107.13890078477561473846435546875">
        <ele>3601.199951171875</ele>
        <time>2026-01-06T15:54:14.000Z</time>
        <extensions>
          <ns3:TrackPointExtension>
            <ns3:hr>126</ns3:hr>
            <ns3:cad>0</ns3:cad>
          </ns3:TrackPointExtension>
        </extensions>
      </trkpt>
      <trkpt lat="37.9387422837316989898681640625" lon="-107.13886910118162631988525390625">
        <ele>3601.60009765625</ele>
        <time>2026-01-06T15:54:19.000Z</time>
        <extensions>
          <ns3:TrackPointExtension>
            <ns3:hr>125</ns3:hr>
            <ns3:cad>0</ns3:cad>
          </ns3:TrackPointExtension>
        </extensions>
      </trkpt>
      <trkpt lat="37.938739098608493804931640625" lon="-107.13886574842035770416259765625">
        <ele>3602</ele>
        <time>2026-01-06T15:54:25.000Z</time>
        <extensions>
          <ns3:TrackPointExtension>
            <ns3:hr>123</ns3:hr>
            <ns3:cad>0</ns3:cad>
          </ns3:TrackPointExtension>
        </extensions>
      </trkpt>
      <trkpt lat="37.938739098608493804931640625" lon="-107.13886574842035770416259765625">
        <ele>3602</ele>
        <time>2026-01-06T15:54:29.000Z</time>
        <extensions>
          <ns3:TrackPointExtension>
            <ns3:hr>124</ns3:hr>
            <ns3:cad>0</ns3:cad>
          </ns3:TrackPointExtension>
        </extensions>
      </trkpt>
      <trkpt lat="37.938739098608493804931640625" lon="-107.13886574842035770416259765625">
        <ele>3601.60009765625</ele>
        <time>2026-01-06T15:54:35.000Z</time>
        <extensions>
          <ns3:TrackPointExtension>
            <ns3:hr>122</ns3:hr>
            <ns3:cad>0</ns3:cad>
          </ns3:TrackPointExtension>
        </extensions>
      </trkpt>
      <trkpt lat="37.938739098608493804931640625" lon="-107.13886574842035770416259765625">
        <ele>3601.39990234375</ele>
        <time>2026-01-06T15:54:41.000Z</time>
        <extensions>
          <ns3:TrackPointExtension>
            <ns3:hr>119</ns3:hr>
            <ns3:cad>0</ns3:cad>
          </ns3:TrackPointExtension>
        </extensions>
      </trkpt>
      <trkpt lat="37.9387342371046543121337890625" lon="-107.138870693743228912353515625">
        <ele>3601.800048828125</ele>
        <time>2026-01-06T15:54:45.000Z</time>
        <extensions>
          <ns3:TrackPointExtension>
            <ns3:hr>119</ns3:hr>
            <ns3:cad>0</ns3:cad>
          </ns3:TrackPointExtension>
        </extensions>
      </trkpt>
      <trkpt lat="37.93870096094906330108642578125" lon="-107.13887899182736873626708984375">
        <ele>3601.800048828125</ele>
        <time>2026-01-06T15:54:51.000Z</time>
        <extensions>
          <ns3:TrackPointExtension>
            <ns3:hr>118</ns3:hr>
            <ns3:cad>0</ns3:cad>
          </ns3:TrackPointExtension>
        </extensions>
      </trkpt>
      <trkpt lat="37.93868872337043285369873046875" lon="-107.138884775340557098388671875">
        <ele>3601.800048828125</ele>
        <time>2026-01-06T15:54:52.000Z</time>
        <extensions>
          <ns3:TrackPointExtension>
            <ns3:hr>118</ns3:hr>
            <ns3:cad>0</ns3:cad>
          </ns3:TrackPointExtension>
        </extensions>
      </trkpt>
      <trkpt lat="37.93866240419447422027587890625" lon="-107.13888536207377910614013671875">
        <ele>3602</ele>
        <time>2026-01-06T15:54:55.000Z</time>
        <extensions>
          <ns3:TrackPointExtension>
            <ns3:hr>115</ns3:hr>
            <ns3:cad>0</ns3:cad>
          </ns3:TrackPointExtension>
        </extensions>
      </trkpt>
      <trkpt lat="37.938642539083957672119140625" lon="-107.1388903073966503143310546875">
        <ele>3602</ele>
        <time>2026-01-06T15:54:58.000Z</time>
        <extensions>
          <ns3:TrackPointExtension>
            <ns3:hr>114</ns3:hr>
            <ns3:cad>0</ns3:cad>
          </ns3:TrackPointExtension>
        </extensions>
      </trkpt>
      <trkpt lat="37.938631474971771240234375" lon="-107.13888351805508136749267578125">
        <ele>3602.39990234375</ele>
        <time>2026-01-06T15:55:00.000Z</time>
        <extensions>
          <ns3:TrackPointExtension>
            <ns3:hr>114</ns3:hr>
            <ns3:cad>0</ns3:cad>
          </ns3:TrackPointExtension>
        </extensions>
      </trkpt>
      <trkpt lat="37.9386249370872974395751953125" lon="-107.1388822607696056365966796875">
        <ele>3603</ele>
        <time>2026-01-06T15:55:03.000Z</time>
        <extensions>
          <ns3:TrackPointExtension>
            <ns3:hr>113</ns3:hr>
            <ns3:cad>0</ns3:cad>
          </ns3:TrackPointExtension>
        </extensions>
      </trkpt>
      <trkpt lat="37.9386316426098346710205078125" lon="-107.13886692188680171966552734375">
        <ele>3603.199951171875</ele>
        <time>2026-01-06T15:55:09.000Z</time>
        <extensions>
          <ns3:TrackPointExtension>
            <ns3:hr>112</ns3:hr>
            <ns3:cad>0</ns3:cad>
          </ns3:TrackPointExtension>
        </extensions>
      </trkpt>
      <trkpt lat="37.93862233869731426239013671875" lon="-107.138856612145900726318359375">
        <ele>3603.199951171875</ele>
        <time>2026-01-06T15:55:13.000Z</time>
        <extensions>
          <ns3:TrackPointExtension>
            <ns3:hr>113</ns3:hr>
            <ns3:cad>0</ns3:cad>
          </ns3:TrackPointExtension>
        </extensions>
      </trkpt>
      <trkpt lat="37.9386021383106708526611328125" lon="-107.13885451667010784149169921875">
        <ele>3603.39990234375</ele>
        <time>2026-01-06T15:55:19.000Z</time>
        <extensions>
          <ns3:TrackPointExtension>
            <ns3:hr>110</ns3:hr>
            <ns3:cad>47</ns3:cad>
          </ns3:TrackPointExtension>
        </extensions>
      </trkpt>
      <trkpt lat="37.9385974444448947906494140625" lon="-107.1388520859181880950927734375">
        <ele>3603.39990234375</ele>
        <time>2026-01-06T15:55:20.000Z</time>
        <extensions>
          <ns3:TrackPointExtension>
            <ns3:hr>109</ns3:hr>
            <ns3:cad>0</ns3:cad>
          </ns3:TrackPointExtension>
        </extensions>
      </trkpt>
      <trkpt lat="37.938566766679286956787109375" lon="-107.1388507448136806488037109375">
        <ele>3604</ele>
        <time>2026-01-06T15:55:25.000Z</time>
        <extensions>
          <ns3:TrackPointExtension>
            <ns3:hr>108</ns3:hr>
            <ns3:cad>0</ns3:cad>
          </ns3:TrackPointExtension>
        </extensions>
      </trkpt>
      <trkpt lat="37.9385508410632610321044921875" lon="-107.13883750140666961669921875">
        <ele>3604.60009765625</ele>
        <time>2026-01-06T15:55:28.000Z</time>
        <extensions>
          <ns3:TrackPointExtension>
            <ns3:hr>108</ns3:hr>
            <ns3:cad>0</ns3:cad>
          </ns3:TrackPointExtension>
        </extensions>
      </trkpt>
      <trkpt lat="37.93854036368429660797119140625" lon="-107.13882786221802234649658203125">
        <ele>3604.60009765625</ele>
        <time>2026-01-06T15:55:30.000Z</time>
        <extensions>
          <ns3:TrackPointExtension>
            <ns3:hr>108</ns3:hr>
            <ns3:cad>0</ns3:cad>
          </ns3:TrackPointExtension>
        </extensions>
      </trkpt>
      <trkpt lat="37.938538603484630584716796875" lon="-107.13882283307611942291259765625">
        <ele>3605</ele>
        <time>2026-01-06T15:55:34.000Z</time>
        <extensions>
          <ns3:TrackPointExtension>
            <ns3:hr>108</ns3:hr>
            <ns3:cad>0</ns3:cad>
          </ns3:TrackPointExtension>
        </extensions>
      </trkpt>
      <trkpt lat="37.9385320656001567840576171875" lon="-107.13880707509815692901611328125">
        <ele>3605.39990234375</ele>
        <time>2026-01-06T15:55:37.000Z</time>
        <extensions>
          <ns3:TrackPointExtension>
            <ns3:hr>111</ns3:hr>
            <ns3:cad>0</ns3:cad>
          </ns3:TrackPointExtension>
        </extensions>
      </trkpt>
      <trkpt lat="37.93852561153471469879150390625" lon="-107.13879584334790706634521484375">
        <ele>3605.60009765625</ele>
        <time>2026-01-06T15:55:40.000Z</time>
        <extensions>
          <ns3:TrackPointExtension>
            <ns3:hr>112</ns3:hr>
            <ns3:cad>0</ns3:cad>
          </ns3:TrackPointExtension>
        </extensions>
      </trkpt>
      <trkpt lat="37.93851454742252826690673828125" lon="-107.13877824135124683380126953125">
        <ele>3606.60009765625</ele>
        <time>2026-01-06T15:55:46.000Z</time>
        <extensions>
          <ns3:TrackPointExtension>
            <ns3:hr>113</ns3:hr>
            <ns3:cad>0</ns3:cad>
          </ns3:TrackPointExtension>
        </extensions>
      </trkpt>
      <trkpt lat="37.93851018883287906646728515625" lon="-107.13876801542937755584716796875">
        <ele>3606.800048828125</ele>
        <time>2026-01-06T15:55:47.000Z</time>
        <extensions>
          <ns3:TrackPointExtension>
            <ns3:hr>113</ns3:hr>
            <ns3:cad>0</ns3:cad>
          </ns3:TrackPointExtension>
        </extensions>
      </trkpt>
      <trkpt lat="37.93850608170032501220703125" lon="-107.13875527493655681610107421875">
        <ele>3607.199951171875</ele>
        <time>2026-01-06T15:55:49.000Z</time>
        <extensions>
          <ns3:TrackPointExtension>
            <ns3:hr>113</ns3:hr>
            <ns3:cad>0</ns3:cad>
          </ns3:TrackPointExtension>
        </extensions>
      </trkpt>
      <trkpt lat="37.93850474059581756591796875" lon="-107.13873683474957942962646484375">
        <ele>3607.800048828125</ele>
        <time>2026-01-06T15:55:52.000Z</time>
        <extensions>
          <ns3:TrackPointExtension>
            <ns3:hr>116</ns3:hr>
            <ns3:cad>0</ns3:cad>
          </ns3:TrackPointExtension>
        </extensions>
      </trkpt>
      <trkpt lat="37.93849929235875606536865234375" lon="-107.13872711174190044403076171875">
        <ele>3608.199951171875</ele>
        <time>2026-01-06T15:55:53.000Z</time>
        <extensions>
          <ns3:TrackPointExtension>
            <ns3:hr>116</ns3:hr>
            <ns3:cad>0</ns3:cad>
          </ns3:TrackPointExtension>
        </extensions>
      </trkpt>
      <trkpt lat="37.93849267065525054931640625" lon="-107.1387256868183612823486328125">
        <ele>3608.60009765625</ele>
        <time>2026-01-06T15:55:55.000Z</time>
        <extensions>
          <ns3:TrackPointExtension>
            <ns3:hr>118</ns3:hr>
            <ns3:cad>0</ns3:cad>
          </ns3:TrackPointExtension>
        </extensions>
      </trkpt>
      <trkpt lat="37.938488982617855072021484375" lon="-107.13872409425675868988037109375">
        <ele>3609.199951171875</ele>
        <time>2026-01-06T15:55:59.000Z</time>
        <extensions>
          <ns3:TrackPointExtension>
            <ns3:hr>119</ns3:hr>
            <ns3:cad>0</ns3:cad>
          </ns3:TrackPointExtension>
        </extensions>
      </trkpt>
      <trkpt lat="37.93848571367561817169189453125" lon="-107.138712443411350250244140625">
        <ele>3609.199951171875</ele>
        <time>2026-01-06T15:56:01.000Z</time>
        <extensions>
          <ns3:TrackPointExtension>
            <ns3:hr>120</ns3:hr>
            <ns3:cad>0</ns3:cad>
          </ns3:TrackPointExtension>
        </extensions>
      </trkpt>
      <trkpt lat="37.938467524945735931396484375" lon="-107.138692326843738555908203125">
        <ele>3609.60009765625</ele>
        <time>2026-01-06T15:56:06.000Z</time>
        <extensions>
          <ns3:TrackPointExtension>
            <ns3:hr>119</ns3:hr>
            <ns3:cad>0</ns3:cad>
          </ns3:TrackPointExtension>
        </extensions>
      </trkpt>
      <trkpt lat="37.9384624958038330078125" lon="-107.138690315186977386474609375">
        <ele>3610</ele>
        <time>2026-01-06T15:56:12.000Z</time>
        <extensions>
          <ns3:TrackPointExtension>
            <ns3:hr>119</ns3:hr>
            <ns3:cad>0</ns3:cad>
          </ns3:TrackPointExtension>
        </extensions>
      </trkpt>
      <trkpt lat="37.9384624958038330078125" lon="-107.138690315186977386474609375">
        <ele>3610.199951171875</ele>
        <time>2026-01-06T15:56:13.000Z</time>
        <extensions>
          <ns3:TrackPointExtension>
            <ns3:hr>119</ns3:hr>
            <ns3:cad>0</ns3:cad>
          </ns3:TrackPointExtension>
        </extensions>
      </trkpt>
      <trkpt lat="37.9384599812328815460205078125" lon="-107.1386871300637722015380859375">
        <ele>3610.800048828125</ele>
        <time>2026-01-06T15:56:19.000Z</time>
        <extensions>
          <ns3:TrackPointExtension>
            <ns3:hr>117</ns3:hr>
            <ns3:cad>0</ns3:cad>
          </ns3:TrackPointExtension>
        </extensions>
      </trkpt>
      <trkpt lat="37.9384624958038330078125" lon="-107.138690315186977386474609375">
        <ele>3611.39990234375</ele>
        <time>2026-01-06T15:56:21.000Z</time>
        <extensions>
          <ns3:TrackPointExtension>
            <ns3:hr>117</ns3:hr>
            <ns3:cad>0</ns3:cad>
          </ns3:TrackPointExtension>
        </extensions>
      </trkpt>
      <trkpt lat="37.93845587410032749176025390625" lon="-107.13868059217929840087890625">
        <ele>3611.60009765625</ele>
        <time>2026-01-06T15:56:22.000Z</time>
        <extensions>
          <ns3:TrackPointExtension>
            <ns3:hr>117</ns3:hr>
            <ns3:cad>0</ns3:cad>
          </ns3:TrackPointExtension>
        </extensions>
      </trkpt>
      <trkpt lat="37.93845369480550289154052734375" lon="-107.1386737190186977386474609375">
        <ele>3611.800048828125</ele>
        <time>2026-01-06T15:56:24.000Z</time>
        <extensions>
          <ns3:TrackPointExtension>
            <ns3:hr>121</ns3:hr>
            <ns3:cad>0</ns3:cad>
          </ns3:TrackPointExtension>
        </extensions>
      </trkpt>
      <trkpt lat="37.93845436535775661468505859375" lon="-107.13866961188614368438720703125">
        <ele>3612</ele>
        <time>2026-01-06T15:56:26.000Z</time>
        <extensions>
          <ns3:TrackPointExtension>
            <ns3:hr>126</ns3:hr>
            <ns3:cad>0</ns3:cad>
          </ns3:TrackPointExtension>
        </extensions>
      </trkpt>
      <trkpt lat="37.93845335952937602996826171875" lon="-107.13865988887846469879150390625">
        <ele>3612.199951171875</ele>
        <time>2026-01-06T15:56:27.000Z</time>
        <extensions>
          <ns3:TrackPointExtension>
            <ns3:hr>128</ns3:hr>
            <ns3:cad>0</ns3:cad>
          </ns3:TrackPointExtension>
        </extensions>
      </trkpt>
      <trkpt lat="37.93845486827194690704345703125" lon="-107.13862803764641284942626953125">
        <ele>3612.60009765625</ele>
        <time>2026-01-06T15:56:30.000Z</time>
        <extensions>
          <ns3:TrackPointExtension>
            <ns3:hr>129</ns3:hr>
            <ns3:cad>0</ns3:cad>
          </ns3:TrackPointExtension>
        </extensions>
      </trkpt>
      <trkpt lat="37.938454449176788330078125" lon="-107.1385955996811389923095703125">
        <ele>3613</ele>
        <time>2026-01-06T15:56:34.000Z</time>
        <extensions>
          <ns3:TrackPointExtension>
            <ns3:hr>130</ns3:hr>
            <ns3:cad>0</ns3:cad>
          </ns3:TrackPointExtension>
        </extensions>
      </trkpt>
      <trkpt lat="37.9384509287774562835693359375" lon="-107.138585038483142852783203125">
        <ele>3613.800048828125</ele>
        <time>2026-01-06T15:56:38.000Z</time>
        <extensions>
          <ns3:TrackPointExtension>
            <ns3:hr>130</ns3:hr>
            <ns3:cad>0</ns3:cad>
          </ns3:TrackPointExtension>
        </extensions>
      </trkpt>
      <trkpt lat="37.9384515993297100067138671875" lon="-107.1385900676250457763671875">
        <ele>3614</ele>
        <time>2026-01-06T15:56:39.000Z</time>
        <extensions>
          <ns3:TrackPointExtension>
            <ns3:hr>131</ns3:hr>
            <ns3:cad>0</ns3:cad>
          </ns3:TrackPointExtension>
        </extensions>
      </trkpt>
      <trkpt lat="37.93843827210366725921630859375" lon="-107.1385654248297214508056640625">
        <ele>3614.60009765625</ele>
        <time>2026-01-06T15:56:44.000Z</time>
        <extensions>
          <ns3:TrackPointExtension>
            <ns3:hr>134</ns3:hr>
            <ns3:cad>0</ns3:cad>
          </ns3:TrackPointExtension>
        </extensions>
      </trkpt>
      <trkpt lat="37.938431985676288604736328125" lon="-107.13855922222137451171875">
        <ele>3614.800048828125</ele>
        <time>2026-01-06T15:56:46.000Z</time>
        <extensions>
          <ns3:TrackPointExtension>
            <ns3:hr>134</ns3:hr>
            <ns3:cad>0</ns3:cad>
          </ns3:TrackPointExtension>
        </extensions>
      </trkpt>
      <trkpt lat="37.93842586688697338104248046875" lon="-107.13854840956628322601318359375">
        <ele>3615.199951171875</ele>
        <time>2026-01-06T15:56:49.000Z</time>
        <extensions>
          <ns3:TrackPointExtension>
            <ns3:hr>135</ns3:hr>
            <ns3:cad>0</ns3:cad>
          </ns3:TrackPointExtension>
        </extensions>
      </trkpt>
      <trkpt lat="37.93842586688697338104248046875" lon="-107.1385540254414081573486328125">
        <ele>3614.800048828125</ele>
        <time>2026-01-06T15:56:55.000Z</time>
        <extensions>
          <ns3:TrackPointExtension>
            <ns3:hr>134</ns3:hr>
            <ns3:cad>0</ns3:cad>
          </ns3:TrackPointExtension>
        </extensions>
      </trkpt>
      <trkpt lat="37.93842586688697338104248046875" lon="-107.1385540254414081573486328125">
        <ele>3614.800048828125</ele>
        <time>2026-01-06T15:57:01.000Z</time>
        <extensions>
          <ns3:TrackPointExtension>
            <ns3:hr>134</ns3:hr>
            <ns3:cad>0</ns3:cad>
          </ns3:TrackPointExtension>
        </extensions>
      </trkpt>
      <trkpt lat="37.93842586688697338104248046875" lon="-107.1385540254414081573486328125">
        <ele>3615</ele>
        <time>2026-01-06T15:57:07.000Z</time>
        <extensions>
          <ns3:TrackPointExtension>
            <ns3:hr>134</ns3:hr>
            <ns3:cad>0</ns3:cad>
          </ns3:TrackPointExtension>
        </extensions>
      </trkpt>
      <trkpt lat="37.93842586688697338104248046875" lon="-107.1385540254414081573486328125">
        <ele>3614.800048828125</ele>
        <time>2026-01-06T15:57:11.000Z</time>
        <extensions>
          <ns3:TrackPointExtension>
            <ns3:hr>131</ns3:hr>
            <ns3:cad>0</ns3:cad>
          </ns3:TrackPointExtension>
        </extensions>
      </trkpt>
      <trkpt lat="37.93842586688697338104248046875" lon="-107.1385540254414081573486328125">
        <ele>3614.800048828125</ele>
        <time>2026-01-06T15:57:13.000Z</time>
        <extensions>
          <ns3:TrackPointExtension>
            <ns3:hr>127</ns3:hr>
            <ns3:cad>0</ns3:cad>
          </ns3:TrackPointExtension>
        </extensions>
      </trkpt>
      <trkpt lat="37.93842586688697338104248046875" lon="-107.1385540254414081573486328125">
        <ele>3615</ele>
        <time>2026-01-06T15:57:14.000Z</time>
        <extensions>
          <ns3:TrackPointExtension>
            <ns3:hr>126</ns3:hr>
            <ns3:cad>0</ns3:cad>
          </ns3:TrackPointExtension>
        </extensions>
      </trkpt>
      <trkpt lat="37.93842586688697338104248046875" lon="-107.1385540254414081573486328125">
        <ele>3615</ele>
        <time>2026-01-06T15:57:15.000Z</time>
        <extensions>
          <ns3:TrackPointExtension>
            <ns3:hr>123</ns3:hr>
            <ns3:cad>0</ns3:cad>
          </ns3:TrackPointExtension>
        </extensions>
      </trkpt>
      <trkpt lat="37.93842586688697338104248046875" lon="-107.1385540254414081573486328125">
        <ele>3615</ele>
        <time>2026-01-06T15:57:17.000Z</time>
        <extensions>
          <ns3:TrackPointExtension>
            <ns3:hr>120</ns3:hr>
            <ns3:cad>0</ns3:cad>
          </ns3:TrackPointExtension>
        </extensions>
      </trkpt>
      <trkpt lat="37.93842586688697338104248046875" lon="-107.1385540254414081573486328125">
        <ele>3614.800048828125</ele>
        <time>2026-01-06T15:57:23.000Z</time>
        <extensions>
          <ns3:TrackPointExtension>
            <ns3:hr>117</ns3:hr>
            <ns3:cad>0</ns3:cad>
          </ns3:TrackPointExtension>
        </extensions>
      </trkpt>
      <trkpt lat="37.93842586688697338104248046875" lon="-107.1385540254414081573486328125">
        <ele>3614.39990234375</ele>
        <time>2026-01-06T15:57:26.000Z</time>
        <extensions>
          <ns3:TrackPointExtension>
            <ns3:hr>115</ns3:hr>
            <ns3:cad>0</ns3:cad>
          </ns3:TrackPointExtension>
        </extensions>
      </trkpt>
      <trkpt lat="37.938419915735721588134765625" lon="-107.1385174803435802459716796875">
        <ele>3614.39990234375</ele>
        <time>2026-01-06T15:57:32.000Z</time>
        <extensions>
          <ns3:TrackPointExtension>
            <ns3:hr>114</ns3:hr>
            <ns3:cad>0</ns3:cad>
          </ns3:TrackPointExtension>
        </extensions>
      </trkpt>
      <trkpt lat="37.93839636258780956268310546875" lon="-107.1384886465966701507568359375">
        <ele>3615.199951171875</ele>
        <time>2026-01-06T15:57:37.000Z</time>
        <extensions>
          <ns3:TrackPointExtension>
            <ns3:hr>112</ns3:hr>
            <ns3:cad>0</ns3:cad>
          </ns3:TrackPointExtension>
        </extensions>
      </trkpt>
      <trkpt lat="37.93839485384523868560791015625" lon="-107.1384827792644500732421875">
        <ele>3615.800048828125</ele>
        <time>2026-01-06T15:57:43.000Z</time>
        <extensions>
          <ns3:TrackPointExtension>
            <ns3:hr>111</ns3:hr>
            <ns3:cad>0</ns3:cad>
          </ns3:TrackPointExtension>
        </extensions>
      </trkpt>
      <trkpt lat="37.93839217163622379302978515625" lon="-107.13847448118031024932861328125">
        <ele>3615.800048828125</ele>
        <time>2026-01-06T15:57:44.000Z</time>
        <extensions>
          <ns3:TrackPointExtension>
            <ns3:hr>110</ns3:hr>
            <ns3:cad>0</ns3:cad>
          </ns3:TrackPointExtension>
        </extensions>
      </trkpt>
      <trkpt lat="37.93839753605425357818603515625" lon="-107.1384279616177082061767578125">
        <ele>3616.39990234375</ele>
        <time>2026-01-06T15:57:50.000Z</time>
        <extensions>
          <ns3:TrackPointExtension>
            <ns3:hr>110</ns3:hr>
            <ns3:cad>0</ns3:cad>
          </ns3:TrackPointExtension>
        </extensions>
      </trkpt>
      <trkpt lat="37.9384003020823001861572265625" lon="-107.13842310011386871337890625">
        <ele>3616.60009765625</ele>
        <time>2026-01-06T15:57:51.000Z</time>
        <extensions>
          <ns3:TrackPointExtension>
            <ns3:hr>110</ns3:hr>
            <ns3:cad>0</ns3:cad>
          </ns3:TrackPointExtension>
        </extensions>
      </trkpt>
      <trkpt lat="37.93839099816977977752685546875" lon="-107.1383930929005146026611328125">
        <ele>3617</ele>
        <time>2026-01-06T15:57:56.000Z</time>
        <extensions>
          <ns3:TrackPointExtension>
            <ns3:hr>110</ns3:hr>
            <ns3:cad>0</ns3:cad>
          </ns3:TrackPointExtension>
        </extensions>
      </trkpt>
      <trkpt lat="37.93839083053171634674072265625" lon="-107.13838462717831134796142578125">
        <ele>3617.199951171875</ele>
        <time>2026-01-06T15:57:57.000Z</time>
        <extensions>
          <ns3:TrackPointExtension>
            <ns3:hr>111</ns3:hr>
            <ns3:cad>0</ns3:cad>
          </ns3:TrackPointExtension>
        </extensions>
      </trkpt>
      <trkpt lat="37.938395440578460693359375" lon="-107.138353697955608367919921875">
        <ele>3617.60009765625</ele>
        <time>2026-01-06T15:58:03.000Z</time>
        <extensions>
          <ns3:TrackPointExtension>
            <ns3:hr>111</ns3:hr>
            <ns3:cad>0</ns3:cad>
          </ns3:TrackPointExtension>
        </extensions>
      </trkpt>
      <trkpt lat="37.93839502148330211639404296875" lon="-107.13835009373724460601806640625">
        <ele>3617.60009765625</ele>
        <time>2026-01-06T15:58:04.000Z</time>
        <extensions>
          <ns3:TrackPointExtension>
            <ns3:hr>111</ns3:hr>
            <ns3:cad>0</ns3:cad>
          </ns3:TrackPointExtension>
        </extensions>
      </trkpt>
      <trkpt lat="37.93839921243488788604736328125" lon="-107.13832461275160312652587890625">
        <ele>3618</ele>
        <time>2026-01-06T15:58:07.000Z</time>
        <extensions>
          <ns3:TrackPointExtension>
            <ns3:hr>111</ns3:hr>
            <ns3:cad>0</ns3:cad>
          </ns3:TrackPointExtension>
        </extensions>
      </trkpt>
      <trkpt lat="37.93839401565492153167724609375" lon="-107.1383169852197170257568359375">
        <ele>3618</ele>
        <time>2026-01-06T15:58:10.000Z</time>
        <extensions>
          <ns3:TrackPointExtension>
            <ns3:hr>112</ns3:hr>
            <ns3:cad>0</ns3:cad>
          </ns3:TrackPointExtension>
        </extensions>
      </trkpt>
      <trkpt lat="37.93838781304657459259033203125" lon="-107.1382928453385829925537109375">
        <ele>3618.800048828125</ele>
        <time>2026-01-06T15:58:16.000Z</time>
        <extensions>
          <ns3:TrackPointExtension>
            <ns3:hr>113</ns3:hr>
            <ns3:cad>0</ns3:cad>
          </ns3:TrackPointExtension>
        </extensions>
      </trkpt>
      <trkpt lat="37.93839342892169952392578125" lon="-107.13825789280235767364501953125">
        <ele>3618.800048828125</ele>
        <time>2026-01-06T15:58:22.000Z</time>
        <extensions>
          <ns3:TrackPointExtension>
            <ns3:hr>113</ns3:hr>
            <ns3:cad>0</ns3:cad>
          </ns3:TrackPointExtension>
        </extensions>
      </trkpt>
      <trkpt lat="37.938396446406841278076171875" lon="-107.13825001381337642669677734375">
        <ele>3619</ele>
        <time>2026-01-06T15:58:24.000Z</time>
        <extensions>
          <ns3:TrackPointExtension>
            <ns3:hr>112</ns3:hr>
            <ns3:cad>0</ns3:cad>
          </ns3:TrackPointExtension>
        </extensions>
      </trkpt>
      <trkpt lat="37.9383976198732852935791015625" lon="-107.13824330829083919525146484375">
        <ele>3619</ele>
        <time>2026-01-06T15:58:25.000Z</time>
        <extensions>
          <ns3:TrackPointExtension>
            <ns3:hr>112</ns3:hr>
            <ns3:cad>0</ns3:cad>
          </ns3:TrackPointExtension>
        </extensions>
      </trkpt>
      <trkpt lat="37.9383996315300464630126953125" lon="-107.13822168298065662384033203125">
        <ele>3619.199951171875</ele>
        <time>2026-01-06T15:58:30.000Z</time>
        <extensions>
          <ns3:TrackPointExtension>
            <ns3:hr>111</ns3:hr>
            <ns3:cad>0</ns3:cad>
          </ns3:TrackPointExtension>
        </extensions>
      </trkpt>
      <trkpt lat="37.93840172700583934783935546875" lon="-107.13820843957364559173583984375">
        <ele>3619.39990234375</ele>
        <time>2026-01-06T15:58:35.000Z</time>
        <extensions>
          <ns3:TrackPointExtension>
            <ns3:hr>112</ns3:hr>
            <ns3:cad>0</ns3:cad>
          </ns3:TrackPointExtension>
        </extensions>
      </trkpt>
      <trkpt lat="37.93840172700583934783935546875" lon="-107.13820843957364559173583984375">
        <ele>3619.800048828125</ele>
        <time>2026-01-06T15:58:40.000Z</time>
        <extensions>
          <ns3:TrackPointExtension>
            <ns3:hr>113</ns3:hr>
            <ns3:cad>0</ns3:cad>
          </ns3:TrackPointExtension>
        </extensions>
      </trkpt>
      <trkpt lat="37.93840172700583934783935546875" lon="-107.13820843957364559173583984375">
        <ele>3620</ele>
        <time>2026-01-06T15:58:42.000Z</time>
        <extensions>
          <ns3:TrackPointExtension>
            <ns3:hr>114</ns3:hr>
            <ns3:cad>0</ns3:cad>
          </ns3:TrackPointExtension>
        </extensions>
      </trkpt>
      <trkpt lat="37.93840256519615650177001953125" lon="-107.1381765045225620269775390625">
        <ele>3620.199951171875</ele>
        <time>2026-01-06T15:58:46.000Z</time>
        <extensions>
          <ns3:TrackPointExtension>
            <ns3:hr>117</ns3:hr>
            <ns3:cad>0</ns3:cad>
          </ns3:TrackPointExtension>
        </extensions>
      </trkpt>
      <trkpt lat="37.93840122409164905548095703125" lon="-107.1381718106567859649658203125">
        <ele>3620.199951171875</ele>
        <time>2026-01-06T15:58:47.000Z</time>
        <extensions>
          <ns3:TrackPointExtension>
            <ns3:hr>118</ns3:hr>
            <ns3:cad>0</ns3:cad>
          </ns3:TrackPointExtension>
        </extensions>
      </trkpt>
      <trkpt lat="37.93840541504323482513427734375" lon="-107.13814859278500080108642578125">
        <ele>3620.39990234375</ele>
        <time>2026-01-06T15:58:53.000Z</time>
        <extensions>
          <ns3:TrackPointExtension>
            <ns3:hr>117</ns3:hr>
            <ns3:cad>0</ns3:cad>
          </ns3:TrackPointExtension>
        </extensions>
      </trkpt>
      <trkpt lat="37.938409857451915740966796875" lon="-107.138122357428073883056640625">
        <ele>3620.800048828125</ele>
        <time>2026-01-06T15:58:59.000Z</time>
        <extensions>
          <ns3:TrackPointExtension>
            <ns3:hr>116</ns3:hr>
            <ns3:cad>0</ns3:cad>
          </ns3:TrackPointExtension>
        </extensions>
      </trkpt>
      <trkpt lat="37.938409857451915740966796875" lon="-107.1381111256778240203857421875">
        <ele>3621</ele>
        <time>2026-01-06T15:59:04.000Z</time>
        <extensions>
          <ns3:TrackPointExtension>
            <ns3:hr>116</ns3:hr>
            <ns3:cad>0</ns3:cad>
          </ns3:TrackPointExtension>
        </extensions>
      </trkpt>
      <trkpt lat="37.93840675614774227142333984375" lon="-107.13811372406780719757080078125">
        <ele>3621.199951171875</ele>
        <time>2026-01-06T15:59:06.000Z</time>
        <extensions>
          <ns3:TrackPointExtension>
            <ns3:hr>117</ns3:hr>
            <ns3:cad>0</ns3:cad>
          </ns3:TrackPointExtension>
        </extensions>
      </trkpt>
      <trkpt lat="37.93840876780450344085693359375" lon="-107.13811464607715606689453125">
        <ele>3621.39990234375</ele>
        <time>2026-01-06T15:59:12.000Z</time>
        <extensions>
          <ns3:TrackPointExtension>
            <ns3:hr>118</ns3:hr>
            <ns3:cad>0</ns3:cad>
          </ns3:TrackPointExtension>
        </extensions>
      </trkpt>
      <trkpt lat="37.93840876780450344085693359375" lon="-107.13811464607715606689453125">
        <ele>3621.39990234375</ele>
        <time>2026-01-06T15:59:14.000Z</time>
        <extensions>
          <ns3:TrackPointExtension>
            <ns3:hr>118</ns3:hr>
            <ns3:cad>0</ns3:cad>
          </ns3:TrackPointExtension>
        </extensions>
      </trkpt>
      <trkpt lat="37.93839904479682445526123046875" lon="-107.138080112636089324951171875">
        <ele>3621.39990234375</ele>
        <time>2026-01-06T15:59:19.000Z</time>
        <extensions>
          <ns3:TrackPointExtension>
            <ns3:hr>118</ns3:hr>
            <ns3:cad>0</ns3:cad>
          </ns3:TrackPointExtension>
        </extensions>
      </trkpt>
      <trkpt lat="37.9383992962539196014404296875" lon="-107.138079106807708740234375">
        <ele>3621.800048828125</ele>
        <time>2026-01-06T15:59:25.000Z</time>
        <extensions>
          <ns3:TrackPointExtension>
            <ns3:hr>118</ns3:hr>
            <ns3:cad>0</ns3:cad>
          </ns3:TrackPointExtension>
        </extensions>
      </trkpt>
      <trkpt lat="37.9383992962539196014404296875" lon="-107.138079106807708740234375">
        <ele>3622.199951171875</ele>
        <time>2026-01-06T15:59:27.000Z</time>
        <extensions>
          <ns3:TrackPointExtension>
            <ns3:hr>117</ns3:hr>
            <ns3:cad>0</ns3:cad>
          </ns3:TrackPointExtension>
        </extensions>
      </trkpt>
      <trkpt lat="37.9383992962539196014404296875" lon="-107.138079106807708740234375">
        <ele>3621.800048828125</ele>
        <time>2026-01-06T15:59:33.000Z</time>
        <extensions>
          <ns3:TrackPointExtension>
            <ns3:hr>116</ns3:hr>
            <ns3:cad>0</ns3:cad>
          </ns3:TrackPointExtension>
        </extensions>
      </trkpt>
      <trkpt lat="37.9383992962539196014404296875" lon="-107.138079106807708740234375">
        <ele>3621.800048828125</ele>
        <time>2026-01-06T15:59:35.000Z</time>
        <extensions>
          <ns3:TrackPointExtension>
            <ns3:hr>117</ns3:hr>
            <ns3:cad>0</ns3:cad>
          </ns3:TrackPointExtension>
        </extensions>
      </trkpt>
      <trkpt lat="37.9383992962539196014404296875" lon="-107.138079106807708740234375">
        <ele>3621.800048828125</ele>
        <time>2026-01-06T15:59:41.000Z</time>
        <extensions>
          <ns3:TrackPointExtension>
            <ns3:hr>114</ns3:hr>
            <ns3:cad>0</ns3:cad>
          </ns3:TrackPointExtension>
        </extensions>
      </trkpt>
      <trkpt lat="37.93840122409164905548095703125" lon="-107.13806997053325176239013671875">
        <ele>3621.800048828125</ele>
        <time>2026-01-06T15:59:46.000Z</time>
        <extensions>
          <ns3:TrackPointExtension>
            <ns3:hr>112</ns3:hr>
            <ns3:cad>0</ns3:cad>
          </ns3:TrackPointExtension>
        </extensions>
      </trkpt>
      <trkpt lat="37.93840281665325164794921875" lon="-107.138063013553619384765625">
        <ele>3622</ele>
        <time>2026-01-06T15:59:50.000Z</time>
        <extensions>
          <ns3:TrackPointExtension>
            <ns3:hr>109</ns3:hr>
            <ns3:cad>0</ns3:cad>
          </ns3:TrackPointExtension>
        </extensions>
      </trkpt>
      <trkpt lat="37.9384075105190277099609375" lon="-107.13805136270821094512939453125">
        <ele>3622</ele>
        <time>2026-01-06T15:59:51.000Z</time>
        <extensions>
          <ns3:TrackPointExtension>
            <ns3:hr>107</ns3:hr>
            <ns3:cad>0</ns3:cad>
          </ns3:TrackPointExtension>
        </extensions>
      </trkpt>
      <trkpt lat="37.9384101927280426025390625" lon="-107.13803426362574100494384765625">
        <ele>3622.199951171875</ele>
        <time>2026-01-06T15:59:56.000Z</time>
        <extensions>
          <ns3:TrackPointExtension>
            <ns3:hr>106</ns3:hr>
            <ns3:cad>0</ns3:cad>
          </ns3:TrackPointExtension>
        </extensions>
      </trkpt>
      <trkpt lat="37.938409857451915740966796875" lon="-107.13803426362574100494384765625">
        <ele>3621.60009765625</ele>
        <time>2026-01-06T16:00:02.000Z</time>
        <extensions>
          <ns3:TrackPointExtension>
            <ns3:hr>104</ns3:hr>
            <ns3:cad>0</ns3:cad>
          </ns3:TrackPointExtension>
        </extensions>
      </trkpt>
      <trkpt lat="37.938409857451915740966796875" lon="-107.13803426362574100494384765625">
        <ele>3621.60009765625</ele>
        <time>2026-01-06T16:00:04.000Z</time>
        <extensions>
          <ns3:TrackPointExtension>
            <ns3:hr>104</ns3:hr>
            <ns3:cad>0</ns3:cad>
          </ns3:TrackPointExtension>
        </extensions>
      </trkpt>
      <trkpt lat="37.938409857451915740966796875" lon="-107.13803426362574100494384765625">
        <ele>3621.39990234375</ele>
        <time>2026-01-06T16:00:10.000Z</time>
        <extensions>
          <ns3:TrackPointExtension>
            <ns3:hr>103</ns3:hr>
            <ns3:cad>0</ns3:cad>
          </ns3:TrackPointExtension>
        </extensions>
      </trkpt>
      <trkpt lat="37.938409857451915740966796875" lon="-107.13803426362574100494384765625">
        <ele>3621.39990234375</ele>
        <time>2026-01-06T16:00:13.000Z</time>
        <extensions>
          <ns3:TrackPointExtension>
            <ns3:hr>100</ns3:hr>
            <ns3:cad>0</ns3:cad>
          </ns3:TrackPointExtension>
        </extensions>
      </trkpt>
      <trkpt lat="37.938409857451915740966796875" lon="-107.13803426362574100494384765625">
        <ele>3621.60009765625</ele>
        <time>2026-01-06T16:00:15.000Z</time>
        <extensions>
          <ns3:TrackPointExtension>
            <ns3:hr>97</ns3:hr>
            <ns3:cad>0</ns3:cad>
          </ns3:TrackPointExtension>
        </extensions>
      </trkpt>
      <trkpt lat="37.938409857451915740966796875" lon="-107.13803426362574100494384765625">
        <ele>3621.39990234375</ele>
        <time>2026-01-06T16:00:20.000Z</time>
        <extensions>
          <ns3:TrackPointExtension>
            <ns3:hr>96</ns3:hr>
            <ns3:cad>0</ns3:cad>
          </ns3:TrackPointExtension>
        </extensions>
      </trkpt>
      <trkpt lat="37.938409857451915740966796875" lon="-107.13803426362574100494384765625">
        <ele>3621.199951171875</ele>
        <time>2026-01-06T16:00:26.000Z</time>
        <extensions>
          <ns3:TrackPointExtension>
            <ns3:hr>97</ns3:hr>
            <ns3:cad>0</ns3:cad>
          </ns3:TrackPointExtension>
        </extensions>
      </trkpt>
      <trkpt lat="37.938409857451915740966796875" lon="-107.13803426362574100494384765625">
        <ele>3621.199951171875</ele>
        <time>2026-01-06T16:00:29.000Z</time>
        <extensions>
          <ns3:TrackPointExtension>
            <ns3:hr>98</ns3:hr>
            <ns3:cad>0</ns3:cad>
          </ns3:TrackPointExtension>
        </extensions>
      </trkpt>
      <trkpt lat="37.938409857451915740966796875" lon="-107.13803426362574100494384765625">
        <ele>3621.60009765625</ele>
        <time>2026-01-06T16:00:35.000Z</time>
        <extensions>
          <ns3:TrackPointExtension>
            <ns3:hr>96</ns3:hr>
            <ns3:cad>0</ns3:cad>
          </ns3:TrackPointExtension>
        </extensions>
      </trkpt>
      <trkpt lat="37.938409857451915740966796875" lon="-107.13803426362574100494384765625">
        <ele>3621.800048828125</ele>
        <time>2026-01-06T16:00:38.000Z</time>
        <extensions>
          <ns3:TrackPointExtension>
            <ns3:hr>96</ns3:hr>
            <ns3:cad>0</ns3:cad>
          </ns3:TrackPointExtension>
        </extensions>
      </trkpt>
      <trkpt lat="37.938409857451915740966796875" lon="-107.13803426362574100494384765625">
        <ele>3621.39990234375</ele>
        <time>2026-01-06T16:00:44.000Z</time>
        <extensions>
          <ns3:TrackPointExtension>
            <ns3:hr>96</ns3:hr>
            <ns3:cad>0</ns3:cad>
          </ns3:TrackPointExtension>
        </extensions>
      </trkpt>
      <trkpt lat="37.938409857451915740966796875" lon="-107.13803426362574100494384765625">
        <ele>3621.60009765625</ele>
        <time>2026-01-06T16:00:50.000Z</time>
        <extensions>
          <ns3:TrackPointExtension>
            <ns3:hr>97</ns3:hr>
            <ns3:cad>0</ns3:cad>
          </ns3:TrackPointExtension>
        </extensions>
      </trkpt>
      <trkpt lat="37.938409857451915740966796875" lon="-107.13803426362574100494384765625">
        <ele>3621.39990234375</ele>
        <time>2026-01-06T16:00:53.000Z</time>
        <extensions>
          <ns3:TrackPointExtension>
            <ns3:hr>96</ns3:hr>
            <ns3:cad>0</ns3:cad>
          </ns3:TrackPointExtension>
        </extensions>
      </trkpt>
      <trkpt lat="37.938409857451915740966796875" lon="-107.13803426362574100494384765625">
        <ele>3621.60009765625</ele>
        <time>2026-01-06T16:00:59.000Z</time>
        <extensions>
          <ns3:TrackPointExtension>
            <ns3:hr>95</ns3:hr>
            <ns3:cad>0</ns3:cad>
          </ns3:TrackPointExtension>
        </extensions>
      </trkpt>
      <trkpt lat="37.938409857451915740966796875" lon="-107.13803426362574100494384765625">
        <ele>3621.39990234375</ele>
        <time>2026-01-06T16:01:04.000Z</time>
        <extensions>
          <ns3:TrackPointExtension>
            <ns3:hr>94</ns3:hr>
            <ns3:cad>0</ns3:cad>
          </ns3:TrackPointExtension>
        </extensions>
      </trkpt>
      <trkpt lat="37.938409857451915740966796875" lon="-107.13803426362574100494384765625">
        <ele>3621.39990234375</ele>
        <time>2026-01-06T16:01:10.000Z</time>
        <extensions>
          <ns3:TrackPointExtension>
            <ns3:hr>94</ns3:hr>
            <ns3:cad>0</ns3:cad>
          </ns3:TrackPointExtension>
        </extensions>
      </trkpt>
      <trkpt lat="37.9384083487093448638916015625" lon="-107.1380169130861759185791015625">
        <ele>3622.199951171875</ele>
        <time>2026-01-06T16:01:15.000Z</time>
        <extensions>
          <ns3:TrackPointExtension>
            <ns3:hr>94</ns3:hr>
            <ns3:cad>0</ns3:cad>
          </ns3:TrackPointExtension>
        </extensions>
      </trkpt>
      <trkpt lat="37.93840189464390277862548828125" lon="-107.13799419812858104705810546875">
        <ele>3622.60009765625</ele>
        <time>2026-01-06T16:01:21.000Z</time>
        <extensions>
          <ns3:TrackPointExtension>
            <ns3:hr>97</ns3:hr>
            <ns3:cad>0</ns3:cad>
          </ns3:TrackPointExtension>
        </extensions>
      </trkpt>
      <trkpt lat="37.938402481377124786376953125" lon="-107.13799436576664447784423828125">
        <ele>3622.800048828125</ele>
        <time>2026-01-06T16:01:22.000Z</time>
        <extensions>
          <ns3:TrackPointExtension>
            <ns3:hr>97</ns3:hr>
            <ns3:cad>0</ns3:cad>
          </ns3:TrackPointExtension>
        </extensions>
      </trkpt>
      <trkpt lat="37.93840189464390277862548828125" lon="-107.13799419812858104705810546875">
        <ele>3623.199951171875</ele>
        <time>2026-01-06T16:01:28.000Z</time>
        <extensions>
          <ns3:TrackPointExtension>
            <ns3:hr>97</ns3:hr>
            <ns3:cad>0</ns3:cad>
          </ns3:TrackPointExtension>
        </extensions>
      </trkpt>
      <trkpt lat="37.93840189464390277862548828125" lon="-107.13799419812858104705810546875">
        <ele>3623.199951171875</ele>
        <time>2026-01-06T16:01:29.000Z</time>
        <extensions>
          <ns3:TrackPointExtension>
            <ns3:hr>97</ns3:hr>
            <ns3:cad>0</ns3:cad>
          </ns3:TrackPointExtension>
        </extensions>
      </trkpt>
      <trkpt lat="37.9384009726345539093017578125" lon="-107.13796938769519329071044921875">
        <ele>3623</ele>
        <time>2026-01-06T16:01:35.000Z</time>
        <extensions>
          <ns3:TrackPointExtension>
            <ns3:hr>101</ns3:hr>
            <ns3:cad>0</ns3:cad>
          </ns3:TrackPointExtension>
        </extensions>
      </trkpt>
      <trkpt lat="37.9384023137390613555908203125" lon="-107.137970142066478729248046875">
        <ele>3623</ele>
        <time>2026-01-06T16:01:36.000Z</time>
        <extensions>
          <ns3:TrackPointExtension>
            <ns3:hr>103</ns3:hr>
            <ns3:cad>0</ns3:cad>
          </ns3:TrackPointExtension>
        </extensions>
      </trkpt>
      <trkpt lat="37.93840239755809307098388671875" lon="-107.13797005824744701385498046875">
        <ele>3623.39990234375</ele>
        <time>2026-01-06T16:01:39.000Z</time>
        <extensions>
          <ns3:TrackPointExtension>
            <ns3:hr>105</ns3:hr>
            <ns3:cad>0</ns3:cad>
          </ns3:TrackPointExtension>
        </extensions>
      </trkpt>
      <trkpt lat="37.93840239755809307098388671875" lon="-107.13797005824744701385498046875">
        <ele>3623.39990234375</ele>
        <time>2026-01-06T16:01:43.000Z</time>
        <extensions>
          <ns3:TrackPointExtension>
            <ns3:hr>104</ns3:hr>
            <ns3:cad>0</ns3:cad>
          </ns3:TrackPointExtension>
        </extensions>
      </trkpt>
      <trkpt lat="37.93840239755809307098388671875" lon="-107.13797005824744701385498046875">
        <ele>3623.60009765625</ele>
        <time>2026-01-06T16:01:49.000Z</time>
        <extensions>
          <ns3:TrackPointExtension>
            <ns3:hr>104</ns3:hr>
            <ns3:cad>0</ns3:cad>
          </ns3:TrackPointExtension>
        </extensions>
      </trkpt>
      <trkpt lat="37.93840239755809307098388671875" lon="-107.13797005824744701385498046875">
        <ele>3624.199951171875</ele>
        <time>2026-01-06T16:01:51.000Z</time>
        <extensions>
          <ns3:TrackPointExtension>
            <ns3:hr>104</ns3:hr>
            <ns3:cad>0</ns3:cad>
          </ns3:TrackPointExtension>
        </extensions>
      </trkpt>
      <trkpt lat="37.93840323574841022491455078125" lon="-107.13794725947082042694091796875">
        <ele>3624.39990234375</ele>
        <time>2026-01-06T16:01:54.000Z</time>
        <extensions>
          <ns3:TrackPointExtension>
            <ns3:hr>105</ns3:hr>
            <ns3:cad>0</ns3:cad>
          </ns3:TrackPointExtension>
        </extensions>
      </trkpt>
      <trkpt lat="37.93840256519615650177001953125" lon="-107.13794709183275699615478515625">
        <ele>3624.39990234375</ele>
        <time>2026-01-06T16:01:58.000Z</time>
        <extensions>
          <ns3:TrackPointExtension>
            <ns3:hr>105</ns3:hr>
            <ns3:cad>0</ns3:cad>
          </ns3:TrackPointExtension>
        </extensions>
      </trkpt>
      <trkpt lat="37.9384006373584270477294921875" lon="-107.137918174266815185546875">
        <ele>3624.39990234375</ele>
        <time>2026-01-06T16:02:04.000Z</time>
        <extensions>
          <ns3:TrackPointExtension>
            <ns3:hr>106</ns3:hr>
            <ns3:cad>0</ns3:cad>
          </ns3:TrackPointExtension>
        </extensions>
      </trkpt>
      <trkpt lat="37.938399128615856170654296875" lon="-107.13791708461940288543701171875">
        <ele>3624.60009765625</ele>
        <time>2026-01-06T16:02:05.000Z</time>
        <extensions>
          <ns3:TrackPointExtension>
            <ns3:hr>106</ns3:hr>
            <ns3:cad>0</ns3:cad>
          </ns3:TrackPointExtension>
        </extensions>
      </trkpt>
      <trkpt lat="37.938399128615856170654296875" lon="-107.13791708461940288543701171875">
        <ele>3625</ele>
        <time>2026-01-06T16:02:10.000Z</time>
        <extensions>
          <ns3:TrackPointExtension>
            <ns3:hr>108</ns3:hr>
            <ns3:cad>0</ns3:cad>
          </ns3:TrackPointExtension>
        </extensions>
      </trkpt>
      <trkpt lat="37.938399128615856170654296875" lon="-107.13791708461940288543701171875">
        <ele>3625.39990234375</ele>
        <time>2026-01-06T16:02:16.000Z</time>
        <extensions>
          <ns3:TrackPointExtension>
            <ns3:hr>109</ns3:hr>
            <ns3:cad>0</ns3:cad>
          </ns3:TrackPointExtension>
        </extensions>
      </trkpt>
      <trkpt lat="37.93839066289365291595458984375" lon="-107.13790283538401126861572265625">
        <ele>3625.60009765625</ele>
        <time>2026-01-06T16:02:18.000Z</time>
        <extensions>
          <ns3:TrackPointExtension>
            <ns3:hr>110</ns3:hr>
            <ns3:cad>0</ns3:cad>
          </ns3:TrackPointExtension>
        </extensions>
      </trkpt>
      <trkpt lat="37.938385047018527984619140625" lon="-107.137901745736598968505859375">
        <ele>3625.800048828125</ele>
        <time>2026-01-06T16:02:24.000Z</time>
        <extensions>
          <ns3:TrackPointExtension>
            <ns3:hr>109</ns3:hr>
            <ns3:cad>0</ns3:cad>
          </ns3:TrackPointExtension>
        </extensions>
      </trkpt>
      <trkpt lat="37.93838513083755970001220703125" lon="-107.1379019133746623992919921875">
        <ele>3626</ele>
        <time>2026-01-06T16:02:30.000Z</time>
        <extensions>
          <ns3:TrackPointExtension>
            <ns3:hr>109</ns3:hr>
            <ns3:cad>0</ns3:cad>
          </ns3:TrackPointExtension>
        </extensions>
      </trkpt>
      <trkpt lat="37.93838513083755970001220703125" lon="-107.1379019133746623992919921875">
        <ele>3626.60009765625</ele>
        <time>2026-01-06T16:02:33.000Z</time>
        <extensions>
          <ns3:TrackPointExtension>
            <ns3:hr>110</ns3:hr>
            <ns3:cad>0</ns3:cad>
          </ns3:TrackPointExtension>
        </extensions>
      </trkpt>
      <trkpt lat="37.93838513083755970001220703125" lon="-107.1379019133746623992919921875">
        <ele>3626.800048828125</ele>
        <time>2026-01-06T16:02:37.000Z</time>
        <extensions>
          <ns3:TrackPointExtension>
            <ns3:hr>113</ns3:hr>
            <ns3:cad>0</ns3:cad>
          </ns3:TrackPointExtension>
        </extensions>
      </trkpt>
      <trkpt lat="37.93838513083755970001220703125" lon="-107.1379019133746623992919921875">
        <ele>3626.199951171875</ele>
        <time>2026-01-06T16:02:40.000Z</time>
        <extensions>
          <ns3:TrackPointExtension>
            <ns3:hr>113</ns3:hr>
            <ns3:cad>0</ns3:cad>
          </ns3:TrackPointExtension>
        </extensions>
      </trkpt>
      <trkpt lat="37.93838513083755970001220703125" lon="-107.1379019133746623992919921875">
        <ele>3626.39990234375</ele>
        <time>2026-01-06T16:02:41.000Z</time>
        <extensions>
          <ns3:TrackPointExtension>
            <ns3:hr>110</ns3:hr>
            <ns3:cad>0</ns3:cad>
          </ns3:TrackPointExtension>
        </extensions>
      </trkpt>
      <trkpt lat="37.93838513083755970001220703125" lon="-107.1379019133746623992919921875">
        <ele>3626.39990234375</ele>
        <time>2026-01-06T16:02:42.000Z</time>
        <extensions>
          <ns3:TrackPointExtension>
            <ns3:hr>106</ns3:hr>
            <ns3:cad>0</ns3:cad>
          </ns3:TrackPointExtension>
        </extensions>
      </trkpt>
      <trkpt lat="37.93837155215442180633544921875" lon="-107.13789470493793487548828125">
        <ele>3626.800048828125</ele>
        <time>2026-01-06T16:02:44.000Z</time>
        <extensions>
          <ns3:TrackPointExtension>
            <ns3:hr>103</ns3:hr>
            <ns3:cad>0</ns3:cad>
          </ns3:TrackPointExtension>
        </extensions>
      </trkpt>
      <trkpt lat="37.93836870230734348297119140625" lon="-107.13789411820471286773681640625">
        <ele>3626.39990234375</ele>
        <time>2026-01-06T16:02:48.000Z</time>
        <extensions>
          <ns3:TrackPointExtension>
            <ns3:hr>101</ns3:hr>
            <ns3:cad>0</ns3:cad>
          </ns3:TrackPointExtension>
        </extensions>
      </trkpt>
      <trkpt lat="37.93836870230734348297119140625" lon="-107.13789411820471286773681640625">
        <ele>3626.39990234375</ele>
        <time>2026-01-06T16:02:54.000Z</time>
        <extensions>
          <ns3:TrackPointExtension>
            <ns3:hr>101</ns3:hr>
            <ns3:cad>0</ns3:cad>
          </ns3:TrackPointExtension>
        </extensions>
      </trkpt>
      <trkpt lat="37.93836870230734348297119140625" lon="-107.13789411820471286773681640625">
        <ele>3626.39990234375</ele>
        <time>2026-01-06T16:02:57.000Z</time>
        <extensions>
          <ns3:TrackPointExtension>
            <ns3:hr>102</ns3:hr>
            <ns3:cad>0</ns3:cad>
          </ns3:TrackPointExtension>
        </extensions>
      </trkpt>
      <trkpt lat="37.93836819939315319061279296875" lon="-107.13789897970855236053466796875">
        <ele>3627</ele>
        <time>2026-01-06T16:03:02.000Z</time>
        <extensions>
          <ns3:TrackPointExtension>
            <ns3:hr>103</ns3:hr>
            <ns3:cad>0</ns3:cad>
          </ns3:TrackPointExtension>
        </extensions>
      </trkpt>
      <trkpt lat="37.93836870230734348297119140625" lon="-107.13789411820471286773681640625">
        <ele>3627</ele>
        <time>2026-01-06T16:03:06.000Z</time>
        <extensions>
          <ns3:TrackPointExtension>
            <ns3:hr>106</ns3:hr>
            <ns3:cad>0</ns3:cad>
          </ns3:TrackPointExtension>
        </extensions>
      </trkpt>
      <trkpt lat="37.93836870230734348297119140625" lon="-107.13789411820471286773681640625">
        <ele>3626.60009765625</ele>
        <time>2026-01-06T16:03:09.000Z</time>
        <extensions>
          <ns3:TrackPointExtension>
            <ns3:hr>105</ns3:hr>
            <ns3:cad>0</ns3:cad>
          </ns3:TrackPointExtension>
        </extensions>
      </trkpt>
      <trkpt lat="37.93836870230734348297119140625" lon="-107.13789411820471286773681640625">
        <ele>3626.60009765625</ele>
        <time>2026-01-06T16:03:12.000Z</time>
        <extensions>
          <ns3:TrackPointExtension>
            <ns3:hr>100</ns3:hr>
            <ns3:cad>0</ns3:cad>
          </ns3:TrackPointExtension>
        </extensions>
      </trkpt>
      <trkpt lat="37.93836870230734348297119140625" lon="-107.13789411820471286773681640625">
        <ele>3626.800048828125</ele>
        <time>2026-01-06T16:03:14.000Z</time>
        <extensions>
          <ns3:TrackPointExtension>
            <ns3:hr>97</ns3:hr>
            <ns3:cad>0</ns3:cad>
          </ns3:TrackPointExtension>
        </extensions>
      </trkpt>
      <trkpt lat="37.93836870230734348297119140625" lon="-107.13789411820471286773681640625">
        <ele>3626.800048828125</ele>
        <time>2026-01-06T16:03:20.000Z</time>
        <extensions>
          <ns3:TrackPointExtension>
            <ns3:hr>97</ns3:hr>
            <ns3:cad>0</ns3:cad>
          </ns3:TrackPointExtension>
        </extensions>
      </trkpt>
      <trkpt lat="37.93836870230734348297119140625" lon="-107.13789411820471286773681640625">
        <ele>3626.60009765625</ele>
        <time>2026-01-06T16:03:26.000Z</time>
        <extensions>
          <ns3:TrackPointExtension>
            <ns3:hr>99</ns3:hr>
            <ns3:cad>0</ns3:cad>
          </ns3:TrackPointExtension>
        </extensions>
      </trkpt>
      <trkpt lat="37.93836870230734348297119140625" lon="-107.13789411820471286773681640625">
        <ele>3626.60009765625</ele>
        <time>2026-01-06T16:03:32.000Z</time>
        <extensions>
          <ns3:TrackPointExtension>
            <ns3:hr>99</ns3:hr>
            <ns3:cad>0</ns3:cad>
          </ns3:TrackPointExtension>
        </extensions>
      </trkpt>
      <trkpt lat="37.93836870230734348297119140625" lon="-107.13789411820471286773681640625">
        <ele>3626.800048828125</ele>
        <time>2026-01-06T16:03:37.000Z</time>
        <extensions>
          <ns3:TrackPointExtension>
            <ns3:hr>99</ns3:hr>
            <ns3:cad>0</ns3:cad>
          </ns3:TrackPointExtension>
        </extensions>
      </trkpt>
      <trkpt lat="37.93836870230734348297119140625" lon="-107.13789411820471286773681640625">
        <ele>3626.39990234375</ele>
        <time>2026-01-06T16:03:43.000Z</time>
        <extensions>
          <ns3:TrackPointExtension>
            <ns3:hr>99</ns3:hr>
            <ns3:cad>0</ns3:cad>
          </ns3:TrackPointExtension>
        </extensions>
      </trkpt>
      <trkpt lat="37.93836870230734348297119140625" lon="-107.13789411820471286773681640625">
        <ele>3626.60009765625</ele>
        <time>2026-01-06T16:03:48.000Z</time>
        <extensions>
          <ns3:TrackPointExtension>
            <ns3:hr>99</ns3:hr>
            <ns3:cad>0</ns3:cad>
          </ns3:TrackPointExtension>
        </extensions>
      </trkpt>
      <trkpt lat="37.93836870230734348297119140625" lon="-107.13789411820471286773681640625">
        <ele>3626.39990234375</ele>
        <time>2026-01-06T16:03:54.000Z</time>
        <extensions>
          <ns3:TrackPointExtension>
            <ns3:hr>100</ns3:hr>
            <ns3:cad>0</ns3:cad>
          </ns3:TrackPointExtension>
        </extensions>
      </trkpt>
      <trkpt lat="37.93836870230734348297119140625" lon="-107.13789411820471286773681640625">
        <ele>3626.199951171875</ele>
        <time>2026-01-06T16:03:57.000Z</time>
        <extensions>
          <ns3:TrackPointExtension>
            <ns3:hr>101</ns3:hr>
            <ns3:cad>0</ns3:cad>
          </ns3:TrackPointExtension>
        </extensions>
      </trkpt>
      <trkpt lat="37.93836870230734348297119140625" lon="-107.13789411820471286773681640625">
        <ele>3626</ele>
        <time>2026-01-06T16:04:03.000Z</time>
        <extensions>
          <ns3:TrackPointExtension>
            <ns3:hr>101</ns3:hr>
            <ns3:cad>0</ns3:cad>
          </ns3:TrackPointExtension>
        </extensions>
      </trkpt>
      <trkpt lat="37.93836870230734348297119140625" lon="-107.13789411820471286773681640625">
        <ele>3626.199951171875</ele>
        <time>2026-01-06T16:04:05.000Z</time>
        <extensions>
          <ns3:TrackPointExtension>
            <ns3:hr>101</ns3:hr>
            <ns3:cad>0</ns3:cad>
          </ns3:TrackPointExtension>
        </extensions>
      </trkpt>
      <trkpt lat="37.9383667744696140289306640625" lon="-107.13789462111890316009521484375">
        <ele>3626</ele>
        <time>2026-01-06T16:04:11.000Z</time>
        <extensions>
          <ns3:TrackPointExtension>
            <ns3:hr>101</ns3:hr>
            <ns3:cad>0</ns3:cad>
          </ns3:TrackPointExtension>
        </extensions>
      </trkpt>
      <trkpt lat="37.9383667744696140289306640625" lon="-107.1378952078521251678466796875">
        <ele>3626.199951171875</ele>
        <time>2026-01-06T16:04:13.000Z</time>
        <extensions>
          <ns3:TrackPointExtension>
            <ns3:hr>101</ns3:hr>
            <ns3:cad>0</ns3:cad>
          </ns3:TrackPointExtension>
        </extensions>
      </trkpt>
      <trkpt lat="37.93837063014507293701171875" lon="-107.137892358005046844482421875">
        <ele>3626.39990234375</ele>
        <time>2026-01-06T16:04:19.000Z</time>
        <extensions>
          <ns3:TrackPointExtension>
            <ns3:hr>101</ns3:hr>
            <ns3:cad>0</ns3:cad>
          </ns3:TrackPointExtension>
        </extensions>
      </trkpt>
      <trkpt lat="37.93837063014507293701171875" lon="-107.137892358005046844482421875">
        <ele>3626.39990234375</ele>
        <time>2026-01-06T16:04:25.000Z</time>
        <extensions>
          <ns3:TrackPointExtension>
            <ns3:hr>101</ns3:hr>
            <ns3:cad>0</ns3:cad>
          </ns3:TrackPointExtension>
        </extensions>
      </trkpt>
      <trkpt lat="37.93836870230734348297119140625" lon="-107.13789411820471286773681640625">
        <ele>3626.39990234375</ele>
        <time>2026-01-06T16:04:27.000Z</time>
        <extensions>
          <ns3:TrackPointExtension>
            <ns3:hr>101</ns3:hr>
            <ns3:cad>0</ns3:cad>
          </ns3:TrackPointExtension>
        </extensions>
      </trkpt>
      <trkpt lat="37.93836870230734348297119140625" lon="-107.13789411820471286773681640625">
        <ele>3626.199951171875</ele>
        <time>2026-01-06T16:04:33.000Z</time>
        <extensions>
          <ns3:TrackPointExtension>
            <ns3:hr>101</ns3:hr>
            <ns3:cad>0</ns3:cad>
          </ns3:TrackPointExtension>
        </extensions>
      </trkpt>
      <trkpt lat="37.93836870230734348297119140625" lon="-107.13789411820471286773681640625">
        <ele>3626.39990234375</ele>
        <time>2026-01-06T16:04:39.000Z</time>
        <extensions>
          <ns3:TrackPointExtension>
            <ns3:hr>100</ns3:hr>
            <ns3:cad>0</ns3:cad>
          </ns3:TrackPointExtension>
        </extensions>
      </trkpt>
      <trkpt lat="37.9383681155741214752197265625" lon="-107.13789244182407855987548828125">
        <ele>3626.39990234375</ele>
        <time>2026-01-06T16:04:40.000Z</time>
        <extensions>
          <ns3:TrackPointExtension>
            <ns3:hr>100</ns3:hr>
            <ns3:cad>0</ns3:cad>
          </ns3:TrackPointExtension>
        </extensions>
      </trkpt>
      <trkpt lat="37.93836870230734348297119140625" lon="-107.13789411820471286773681640625">
        <ele>3626.39990234375</ele>
        <time>2026-01-06T16:04:46.000Z</time>
        <extensions>
          <ns3:TrackPointExtension>
            <ns3:hr>99</ns3:hr>
            <ns3:cad>0</ns3:cad>
          </ns3:TrackPointExtension>
        </extensions>
      </trkpt>
      <trkpt lat="37.93836870230734348297119140625" lon="-107.13789411820471286773681640625">
        <ele>3626.199951171875</ele>
        <time>2026-01-06T16:04:49.000Z</time>
        <extensions>
          <ns3:TrackPointExtension>
            <ns3:hr>99</ns3:hr>
            <ns3:cad>0</ns3:cad>
          </ns3:TrackPointExtension>
        </extensions>
      </trkpt>
      <trkpt lat="37.93837356381118297576904296875" lon="-107.13789470493793487548828125">
        <ele>3626.199951171875</ele>
        <time>2026-01-06T16:04:55.000Z</time>
        <extensions>
          <ns3:TrackPointExtension>
            <ns3:hr>99</ns3:hr>
            <ns3:cad>0</ns3:cad>
          </ns3:TrackPointExtension>
        </extensions>
      </trkpt>
      <trkpt lat="37.938368618488311767578125" lon="-107.137895040214061737060546875">
        <ele>3626</ele>
        <time>2026-01-06T16:04:56.000Z</time>
        <extensions>
          <ns3:TrackPointExtension>
            <ns3:hr>99</ns3:hr>
            <ns3:cad>0</ns3:cad>
          </ns3:TrackPointExtension>
        </extensions>
      </trkpt>
      <trkpt lat="37.93836870230734348297119140625" lon="-107.13789411820471286773681640625">
        <ele>3626</ele>
        <time>2026-01-06T16:05:01.000Z</time>
        <extensions>
          <ns3:TrackPointExtension>
            <ns3:hr>102</ns3:hr>
            <ns3:cad>0</ns3:cad>
          </ns3:TrackPointExtension>
        </extensions>
      </trkpt>
      <trkpt lat="37.93836870230734348297119140625" lon="-107.13789411820471286773681640625">
        <ele>3626.60009765625</ele>
        <time>2026-01-06T16:05:03.000Z</time>
        <extensions>
          <ns3:TrackPointExtension>
            <ns3:hr>102</ns3:hr>
            <ns3:cad>0</ns3:cad>
          </ns3:TrackPointExtension>
        </extensions>
      </trkpt>
      <trkpt lat="37.9383674450218677520751953125" lon="-107.13789738714694976806640625">
        <ele>3626.199951171875</ele>
        <time>2026-01-06T16:05:09.000Z</time>
        <extensions>
          <ns3:TrackPointExtension>
            <ns3:hr>102</ns3:hr>
            <ns3:cad>0</ns3:cad>
          </ns3:TrackPointExtension>
        </extensions>
      </trkpt>
      <trkpt lat="37.93836752884089946746826171875" lon="-107.13789797388017177581787109375">
        <ele>3625.800048828125</ele>
        <time>2026-01-06T16:05:10.000Z</time>
        <extensions>
          <ns3:TrackPointExtension>
            <ns3:hr>105</ns3:hr>
            <ns3:cad>0</ns3:cad>
          </ns3:TrackPointExtension>
        </extensions>
      </trkpt>
      <trkpt lat="37.93836870230734348297119140625" lon="-107.13789411820471286773681640625">
        <ele>3625.60009765625</ele>
        <time>2026-01-06T16:05:11.000Z</time>
        <extensions>
          <ns3:TrackPointExtension>
            <ns3:hr>105</ns3:hr>
            <ns3:cad>0</ns3:cad>
          </ns3:TrackPointExtension>
        </extensions>
      </trkpt>
      <trkpt lat="37.93836870230734348297119140625" lon="-107.13789411820471286773681640625">
        <ele>3625.39990234375</ele>
        <time>2026-01-06T16:05:12.000Z</time>
        <extensions>
          <ns3:TrackPointExtension>
            <ns3:hr>106</ns3:hr>
            <ns3:cad>0</ns3:cad>
          </ns3:TrackPointExtension>
        </extensions>
      </trkpt>
      <trkpt lat="37.93836870230734348297119140625" lon="-107.13789411820471286773681640625">
        <ele>3626</ele>
        <time>2026-01-06T16:05:17.000Z</time>
        <extensions>
          <ns3:TrackPointExtension>
            <ns3:hr>107</ns3:hr>
            <ns3:cad>0</ns3:cad>
          </ns3:TrackPointExtension>
        </extensions>
      </trkpt>
      <trkpt lat="37.9383617453277111053466796875" lon="-107.13790250010788440704345703125">
        <ele>3626.39990234375</ele>
        <time>2026-01-06T16:05:23.000Z</time>
        <extensions>
          <ns3:TrackPointExtension>
            <ns3:hr>109</ns3:hr>
            <ns3:cad>0</ns3:cad>
          </ns3:TrackPointExtension>
        </extensions>
      </trkpt>
      <trkpt lat="37.93836870230734348297119140625" lon="-107.13789411820471286773681640625">
        <ele>3626.39990234375</ele>
        <time>2026-01-06T16:05:24.000Z</time>
        <extensions>
          <ns3:TrackPointExtension>
            <ns3:hr>110</ns3:hr>
            <ns3:cad>0</ns3:cad>
          </ns3:TrackPointExtension>
        </extensions>
      </trkpt>
      <trkpt lat="37.93836870230734348297119140625" lon="-107.13789411820471286773681640625">
        <ele>3626.60009765625</ele>
        <time>2026-01-06T16:05:26.000Z</time>
        <extensions>
          <ns3:TrackPointExtension>
            <ns3:hr>109</ns3:hr>
            <ns3:cad>0</ns3:cad>
          </ns3:TrackPointExtension>
        </extensions>
      </trkpt>
      <trkpt lat="37.93836870230734348297119140625" lon="-107.13789411820471286773681640625">
        <ele>3627.39990234375</ele>
        <time>2026-01-06T16:05:32.000Z</time>
        <extensions>
          <ns3:TrackPointExtension>
            <ns3:hr>109</ns3:hr>
            <ns3:cad>0</ns3:cad>
          </ns3:TrackPointExtension>
        </extensions>
      </trkpt>
      <trkpt lat="37.93836870230734348297119140625" lon="-107.13789411820471286773681640625">
        <ele>3627.60009765625</ele>
        <time>2026-01-06T16:05:33.000Z</time>
        <extensions>
          <ns3:TrackPointExtension>
            <ns3:hr>110</ns3:hr>
            <ns3:cad>0</ns3:cad>
          </ns3:TrackPointExtension>
        </extensions>
      </trkpt>
      <trkpt lat="37.93836870230734348297119140625" lon="-107.13789411820471286773681640625">
        <ele>3628</ele>
        <time>2026-01-06T16:05:35.000Z</time>
        <extensions>
          <ns3:TrackPointExtension>
            <ns3:hr>110</ns3:hr>
            <ns3:cad>0</ns3:cad>
          </ns3:TrackPointExtension>
        </extensions>
      </trkpt>
      <trkpt lat="37.9383506812155246734619140625" lon="-107.13788104243576526641845703125">
        <ele>3627.39990234375</ele>
        <time>2026-01-06T16:05:40.000Z</time>
        <extensions>
          <ns3:TrackPointExtension>
            <ns3:hr>107</ns3:hr>
            <ns3:cad>0</ns3:cad>
          </ns3:TrackPointExtension>
        </extensions>
      </trkpt>
      <trkpt lat="37.9383506812155246734619140625" lon="-107.13788104243576526641845703125">
        <ele>3627.39990234375</ele>
        <time>2026-01-06T16:05:43.000Z</time>
        <extensions>
          <ns3:TrackPointExtension>
            <ns3:hr>106</ns3:hr>
            <ns3:cad>0</ns3:cad>
          </ns3:TrackPointExtension>
        </extensions>
      </trkpt>
      <trkpt lat="37.9383493401110172271728515625" lon="-107.13787986896932125091552734375">
        <ele>3628.60009765625</ele>
        <time>2026-01-06T16:05:48.000Z</time>
        <extensions>
          <ns3:TrackPointExtension>
            <ns3:hr>104</ns3:hr>
            <ns3:cad>0</ns3:cad>
          </ns3:TrackPointExtension>
        </extensions>
      </trkpt>
      <trkpt lat="37.9383469931781291961669921875" lon="-107.13787483982741832733154296875">
        <ele>3628.60009765625</ele>
        <time>2026-01-06T16:05:50.000Z</time>
        <extensions>
          <ns3:TrackPointExtension>
            <ns3:hr>104</ns3:hr>
            <ns3:cad>0</ns3:cad>
          </ns3:TrackPointExtension>
        </extensions>
      </trkpt>
      <trkpt lat="37.9383379407227039337158203125" lon="-107.1378683857619762420654296875">
        <ele>3628.39990234375</ele>
        <time>2026-01-06T16:05:55.000Z</time>
        <extensions>
          <ns3:TrackPointExtension>
            <ns3:hr>105</ns3:hr>
            <ns3:cad>0</ns3:cad>
          </ns3:TrackPointExtension>
        </extensions>
      </trkpt>
      <trkpt lat="37.93833550997078418731689453125" lon="-107.13786654174327850341796875">
        <ele>3629</ele>
        <time>2026-01-06T16:06:01.000Z</time>
        <extensions>
          <ns3:TrackPointExtension>
            <ns3:hr>106</ns3:hr>
            <ns3:cad>0</ns3:cad>
          </ns3:TrackPointExtension>
        </extensions>
      </trkpt>
      <trkpt lat="37.93833802454173564910888671875" lon="-107.1378683857619762420654296875">
        <ele>3629.199951171875</ele>
        <time>2026-01-06T16:06:07.000Z</time>
        <extensions>
          <ns3:TrackPointExtension>
            <ns3:hr>107</ns3:hr>
            <ns3:cad>0</ns3:cad>
          </ns3:TrackPointExtension>
        </extensions>
      </trkpt>
      <trkpt lat="37.9383292235434055328369140625" lon="-107.1378620155155658721923828125">
        <ele>3629.800048828125</ele>
        <time>2026-01-06T16:06:12.000Z</time>
        <extensions>
          <ns3:TrackPointExtension>
            <ns3:hr>108</ns3:hr>
            <ns3:cad>0</ns3:cad>
          </ns3:TrackPointExtension>
        </extensions>
      </trkpt>
      <trkpt lat="37.93833802454173564910888671875" lon="-107.1378683857619762420654296875">
        <ele>3630</ele>
        <time>2026-01-06T16:06:14.000Z</time>
        <extensions>
          <ns3:TrackPointExtension>
            <ns3:hr>111</ns3:hr>
            <ns3:cad>0</ns3:cad>
          </ns3:TrackPointExtension>
        </extensions>
      </trkpt>
      <trkpt lat="37.93833802454173564910888671875" lon="-107.1378683857619762420654296875">
        <ele>3630</ele>
        <time>2026-01-06T16:06:15.000Z</time>
        <extensions>
          <ns3:TrackPointExtension>
            <ns3:hr>113</ns3:hr>
            <ns3:cad>0</ns3:cad>
          </ns3:TrackPointExtension>
        </extensions>
      </trkpt>
      <trkpt lat="37.93833802454173564910888671875" lon="-107.1378683857619762420654296875">
        <ele>3630</ele>
        <time>2026-01-06T16:06:21.000Z</time>
        <extensions>
          <ns3:TrackPointExtension>
            <ns3:hr>114</ns3:hr>
            <ns3:cad>0</ns3:cad>
          </ns3:TrackPointExtension>
        </extensions>
      </trkpt>
      <trkpt lat="37.93833802454173564910888671875" lon="-107.1378683857619762420654296875">
        <ele>3630.199951171875</ele>
        <time>2026-01-06T16:06:23.000Z</time>
        <extensions>
          <ns3:TrackPointExtension>
            <ns3:hr>114</ns3:hr>
            <ns3:cad>0</ns3:cad>
          </ns3:TrackPointExtension>
        </extensions>
      </trkpt>
      <trkpt lat="37.93833802454173564910888671875" lon="-107.1378683857619762420654296875">
        <ele>3630.39990234375</ele>
        <time>2026-01-06T16:06:29.000Z</time>
        <extensions>
          <ns3:TrackPointExtension>
            <ns3:hr>114</ns3:hr>
            <ns3:cad>0</ns3:cad>
          </ns3:TrackPointExtension>
        </extensions>
      </trkpt>
      <trkpt lat="37.93833802454173564910888671875" lon="-107.1378683857619762420654296875">
        <ele>3630.39990234375</ele>
        <time>2026-01-06T16:06:35.000Z</time>
        <extensions>
          <ns3:TrackPointExtension>
            <ns3:hr>117</ns3:hr>
            <ns3:cad>0</ns3:cad>
          </ns3:TrackPointExtension>
        </extensions>
      </trkpt>
      <trkpt lat="37.93833802454173564910888671875" lon="-107.1378683857619762420654296875">
        <ele>3630</ele>
        <time>2026-01-06T16:06:41.000Z</time>
        <extensions>
          <ns3:TrackPointExtension>
            <ns3:hr>117</ns3:hr>
            <ns3:cad>0</ns3:cad>
          </ns3:TrackPointExtension>
        </extensions>
      </trkpt>
      <trkpt lat="37.93833802454173564910888671875" lon="-107.1378683857619762420654296875">
        <ele>3629.800048828125</ele>
        <time>2026-01-06T16:06:46.000Z</time>
        <extensions>
          <ns3:TrackPointExtension>
            <ns3:hr>114</ns3:hr>
            <ns3:cad>0</ns3:cad>
          </ns3:TrackPointExtension>
        </extensions>
      </trkpt>
      <trkpt lat="37.93833802454173564910888671875" lon="-107.1378683857619762420654296875">
        <ele>3629.800048828125</ele>
        <time>2026-01-06T16:06:49.000Z</time>
        <extensions>
          <ns3:TrackPointExtension>
            <ns3:hr>113</ns3:hr>
            <ns3:cad>0</ns3:cad>
          </ns3:TrackPointExtension>
        </extensions>
      </trkpt>
      <trkpt lat="37.93833802454173564910888671875" lon="-107.1378683857619762420654296875">
        <ele>3629.800048828125</ele>
        <time>2026-01-06T16:06:55.000Z</time>
        <extensions>
          <ns3:TrackPointExtension>
            <ns3:hr>111</ns3:hr>
            <ns3:cad>0</ns3:cad>
          </ns3:TrackPointExtension>
        </extensions>
      </trkpt>
      <trkpt lat="37.93833802454173564910888671875" lon="-107.1378683857619762420654296875">
        <ele>3629.800048828125</ele>
        <time>2026-01-06T16:06:57.000Z</time>
        <extensions>
          <ns3:TrackPointExtension>
            <ns3:hr>107</ns3:hr>
            <ns3:cad>0</ns3:cad>
          </ns3:TrackPointExtension>
        </extensions>
      </trkpt>
      <trkpt lat="37.93833802454173564910888671875" lon="-107.1378683857619762420654296875">
        <ele>3630</ele>
        <time>2026-01-06T16:06:58.000Z</time>
        <extensions>
          <ns3:TrackPointExtension>
            <ns3:hr>104</ns3:hr>
            <ns3:cad>0</ns3:cad>
          </ns3:TrackPointExtension>
        </extensions>
      </trkpt>
      <trkpt lat="37.93833802454173564910888671875" lon="-107.1378683857619762420654296875">
        <ele>3630.199951171875</ele>
        <time>2026-01-06T16:07:00.000Z</time>
        <extensions>
          <ns3:TrackPointExtension>
            <ns3:hr>99</ns3:hr>
            <ns3:cad>0</ns3:cad>
          </ns3:TrackPointExtension>
        </extensions>
      </trkpt>
      <trkpt lat="37.93833802454173564910888671875" lon="-107.1378683857619762420654296875">
        <ele>3630.199951171875</ele>
        <time>2026-01-06T16:07:04.000Z</time>
        <extensions>
          <ns3:TrackPointExtension>
            <ns3:hr>96</ns3:hr>
            <ns3:cad>0</ns3:cad>
          </ns3:TrackPointExtension>
        </extensions>
      </trkpt>
      <trkpt lat="37.93833802454173564910888671875" lon="-107.1378683857619762420654296875">
        <ele>3630</ele>
        <time>2026-01-06T16:07:07.000Z</time>
        <extensions>
          <ns3:TrackPointExtension>
            <ns3:hr>93</ns3:hr>
            <ns3:cad>0</ns3:cad>
          </ns3:TrackPointExtension>
        </extensions>
      </trkpt>
      <trkpt lat="37.93833802454173564910888671875" lon="-107.1378683857619762420654296875">
        <ele>3629.800048828125</ele>
        <time>2026-01-06T16:07:13.000Z</time>
        <extensions>
          <ns3:TrackPointExtension>
            <ns3:hr>94</ns3:hr>
            <ns3:cad>0</ns3:cad>
          </ns3:TrackPointExtension>
        </extensions>
      </trkpt>
      <trkpt lat="37.93833802454173564910888671875" lon="-107.1378683857619762420654296875">
        <ele>3629.199951171875</ele>
        <time>2026-01-06T16:07:17.000Z</time>
        <extensions>
          <ns3:TrackPointExtension>
            <ns3:hr>95</ns3:hr>
            <ns3:cad>0</ns3:cad>
          </ns3:TrackPointExtension>
        </extensions>
      </trkpt>
      <trkpt lat="37.9383278824388980865478515625" lon="-107.13784508407115936279296875">
        <ele>3629.800048828125</ele>
        <time>2026-01-06T16:07:23.000Z</time>
        <extensions>
          <ns3:TrackPointExtension>
            <ns3:hr>95</ns3:hr>
            <ns3:cad>0</ns3:cad>
          </ns3:TrackPointExtension>
        </extensions>
      </trkpt>
      <trkpt lat="37.9383278824388980865478515625" lon="-107.13784508407115936279296875">
        <ele>3629.800048828125</ele>
        <time>2026-01-06T16:07:27.000Z</time>
        <extensions>
          <ns3:TrackPointExtension>
            <ns3:hr>92</ns3:hr>
            <ns3:cad>0</ns3:cad>
          </ns3:TrackPointExtension>
        </extensions>
      </trkpt>
      <trkpt lat="37.9383278824388980865478515625" lon="-107.13784508407115936279296875">
        <ele>3630</ele>
        <time>2026-01-06T16:07:31.000Z</time>
        <extensions>
          <ns3:TrackPointExtension>
            <ns3:hr>89</ns3:hr>
            <ns3:cad>0</ns3:cad>
          </ns3:TrackPointExtension>
        </extensions>
      </trkpt>
      <trkpt lat="37.93832679279148578643798828125" lon="-107.1378063596785068511962890625">
        <ele>3630.199951171875</ele>
        <time>2026-01-06T16:07:35.000Z</time>
        <extensions>
          <ns3:TrackPointExtension>
            <ns3:hr>90</ns3:hr>
            <ns3:cad>0</ns3:cad>
          </ns3:TrackPointExtension>
        </extensions>
      </trkpt>
      <trkpt lat="37.93832679279148578643798828125" lon="-107.1378063596785068511962890625">
        <ele>3629.60009765625</ele>
        <time>2026-01-06T16:07:41.000Z</time>
        <extensions>
          <ns3:TrackPointExtension>
            <ns3:hr>91</ns3:hr>
            <ns3:cad>0</ns3:cad>
          </ns3:TrackPointExtension>
        </extensions>
      </trkpt>
      <trkpt lat="37.93832679279148578643798828125" lon="-107.1378063596785068511962890625">
        <ele>3629.800048828125</ele>
        <time>2026-01-06T16:07:47.000Z</time>
        <extensions>
          <ns3:TrackPointExtension>
            <ns3:hr>93</ns3:hr>
            <ns3:cad>0</ns3:cad>
          </ns3:TrackPointExtension>
        </extensions>
      </trkpt>
      <trkpt lat="37.93832679279148578643798828125" lon="-107.1378063596785068511962890625">
        <ele>3629.60009765625</ele>
        <time>2026-01-06T16:07:53.000Z</time>
        <extensions>
          <ns3:TrackPointExtension>
            <ns3:hr>95</ns3:hr>
            <ns3:cad>0</ns3:cad>
          </ns3:TrackPointExtension>
        </extensions>
      </trkpt>
      <trkpt lat="37.93832679279148578643798828125" lon="-107.1378063596785068511962890625">
        <ele>3629.800048828125</ele>
        <time>2026-01-06T16:07:59.000Z</time>
        <extensions>
          <ns3:TrackPointExtension>
            <ns3:hr>92</ns3:hr>
            <ns3:cad>0</ns3:cad>
          </ns3:TrackPointExtension>
        </extensions>
      </trkpt>
      <trkpt lat="37.93832679279148578643798828125" lon="-107.1378063596785068511962890625">
        <ele>3630</ele>
        <time>2026-01-06T16:08:02.000Z</time>
        <extensions>
          <ns3:TrackPointExtension>
            <ns3:hr>91</ns3:hr>
            <ns3:cad>0</ns3:cad>
          </ns3:TrackPointExtension>
        </extensions>
      </trkpt>
      <trkpt lat="37.93832679279148578643798828125" lon="-107.1378063596785068511962890625">
        <ele>3629.800048828125</ele>
        <time>2026-01-06T16:08:04.000Z</time>
        <extensions>
          <ns3:TrackPointExtension>
            <ns3:hr>88</ns3:hr>
            <ns3:cad>0</ns3:cad>
          </ns3:TrackPointExtension>
        </extensions>
      </trkpt>
      <trkpt lat="37.93832679279148578643798828125" lon="-107.1378063596785068511962890625">
        <ele>3629.800048828125</ele>
        <time>2026-01-06T16:08:06.000Z</time>
        <extensions>
          <ns3:TrackPointExtension>
            <ns3:hr>85</ns3:hr>
            <ns3:cad>0</ns3:cad>
          </ns3:TrackPointExtension>
        </extensions>
      </trkpt>
      <trkpt lat="37.93832612223923206329345703125" lon="-107.13778984732925891876220703125">
        <ele>3630.39990234375</ele>
        <time>2026-01-06T16:08:09.000Z</time>
        <extensions>
          <ns3:TrackPointExtension>
            <ns3:hr>91</ns3:hr>
            <ns3:cad>0</ns3:cad>
          </ns3:TrackPointExtension>
        </extensions>
      </trkpt>
      <trkpt lat="37.93832310475409030914306640625" lon="-107.13778674602508544921875">
        <ele>3630.60009765625</ele>
        <time>2026-01-06T16:08:10.000Z</time>
        <extensions>
          <ns3:TrackPointExtension>
            <ns3:hr>91</ns3:hr>
            <ns3:cad>0</ns3:cad>
          </ns3:TrackPointExtension>
        </extensions>
      </trkpt>
      <trkpt lat="37.93831991963088512420654296875" lon="-107.1377818845212459564208984375">
        <ele>3630.39990234375</ele>
        <time>2026-01-06T16:08:12.000Z</time>
        <extensions>
          <ns3:TrackPointExtension>
            <ns3:hr>91</ns3:hr>
            <ns3:cad>0</ns3:cad>
          </ns3:TrackPointExtension>
        </extensions>
      </trkpt>
      <trkpt lat="37.93831924907863140106201171875" lon="-107.137778699398040771484375">
        <ele>3630.800048828125</ele>
        <time>2026-01-06T16:08:17.000Z</time>
        <extensions>
          <ns3:TrackPointExtension>
            <ns3:hr>90</ns3:hr>
            <ns3:cad>0</ns3:cad>
          </ns3:TrackPointExtension>
        </extensions>
      </trkpt>
      <trkpt lat="37.93831924907863140106201171875" lon="-107.137778699398040771484375">
        <ele>3631.199951171875</ele>
        <time>2026-01-06T16:08:20.000Z</time>
        <extensions>
          <ns3:TrackPointExtension>
            <ns3:hr>93</ns3:hr>
            <ns3:cad>0</ns3:cad>
          </ns3:TrackPointExtension>
        </extensions>
      </trkpt>
      <trkpt lat="37.93831924907863140106201171875" lon="-107.137778699398040771484375">
        <ele>3630.800048828125</ele>
        <time>2026-01-06T16:08:21.000Z</time>
        <extensions>
          <ns3:TrackPointExtension>
            <ns3:hr>94</ns3:hr>
            <ns3:cad>0</ns3:cad>
          </ns3:TrackPointExtension>
        </extensions>
      </trkpt>
      <trkpt lat="37.93831924907863140106201171875" lon="-107.137778699398040771484375">
        <ele>3631.199951171875</ele>
        <time>2026-01-06T16:08:27.000Z</time>
        <extensions>
          <ns3:TrackPointExtension>
            <ns3:hr>96</ns3:hr>
            <ns3:cad>0</ns3:cad>
          </ns3:TrackPointExtension>
        </extensions>
      </trkpt>
      <trkpt lat="37.93831924907863140106201171875" lon="-107.137778699398040771484375">
        <ele>3631.199951171875</ele>
        <time>2026-01-06T16:08:28.000Z</time>
        <extensions>
          <ns3:TrackPointExtension>
            <ns3:hr>96</ns3:hr>
            <ns3:cad>0</ns3:cad>
          </ns3:TrackPointExtension>
        </extensions>
      </trkpt>
      <trkpt lat="37.93831857852637767791748046875" lon="-107.13777911849319934844970703125">
        <ele>3631.39990234375</ele>
        <time>2026-01-06T16:08:34.000Z</time>
        <extensions>
          <ns3:TrackPointExtension>
            <ns3:hr>95</ns3:hr>
            <ns3:cad>0</ns3:cad>
          </ns3:TrackPointExtension>
        </extensions>
      </trkpt>
      <trkpt lat="37.93831832706928253173828125" lon="-107.13777802884578704833984375">
        <ele>3631.39990234375</ele>
        <time>2026-01-06T16:08:35.000Z</time>
        <extensions>
          <ns3:TrackPointExtension>
            <ns3:hr>95</ns3:hr>
            <ns3:cad>0</ns3:cad>
          </ns3:TrackPointExtension>
        </extensions>
      </trkpt>
      <trkpt lat="37.93831924907863140106201171875" lon="-107.137778699398040771484375">
        <ele>3631.60009765625</ele>
        <time>2026-01-06T16:08:40.000Z</time>
        <extensions>
          <ns3:TrackPointExtension>
            <ns3:hr>93</ns3:hr>
            <ns3:cad>0</ns3:cad>
          </ns3:TrackPointExtension>
        </extensions>
      </trkpt>
      <trkpt lat="37.93831924907863140106201171875" lon="-107.137778699398040771484375">
        <ele>3631.800048828125</ele>
        <time>2026-01-06T16:08:42.000Z</time>
        <extensions>
          <ns3:TrackPointExtension>
            <ns3:hr>93</ns3:hr>
            <ns3:cad>0</ns3:cad>
          </ns3:TrackPointExtension>
        </extensions>
      </trkpt>
      <trkpt lat="37.93831924907863140106201171875" lon="-107.137778699398040771484375">
        <ele>3632.199951171875</ele>
        <time>2026-01-06T16:08:48.000Z</time>
        <extensions>
          <ns3:TrackPointExtension>
            <ns3:hr>91</ns3:hr>
            <ns3:cad>0</ns3:cad>
          </ns3:TrackPointExtension>
        </extensions>
      </trkpt>
      <trkpt lat="37.93831924907863140106201171875" lon="-107.137778699398040771484375">
        <ele>3631.800048828125</ele>
        <time>2026-01-06T16:08:53.000Z</time>
        <extensions>
          <ns3:TrackPointExtension>
            <ns3:hr>94</ns3:hr>
            <ns3:cad>0</ns3:cad>
          </ns3:TrackPointExtension>
        </extensions>
      </trkpt>
      <trkpt lat="37.93831924907863140106201171875" lon="-107.137778699398040771484375">
        <ele>3632.199951171875</ele>
        <time>2026-01-06T16:08:57.000Z</time>
        <extensions>
          <ns3:TrackPointExtension>
            <ns3:hr>96</ns3:hr>
            <ns3:cad>0</ns3:cad>
          </ns3:TrackPointExtension>
        </extensions>
      </trkpt>
      <trkpt lat="37.93831924907863140106201171875" lon="-107.137778699398040771484375">
        <ele>3632.199951171875</ele>
        <time>2026-01-06T16:09:03.000Z</time>
        <extensions>
          <ns3:TrackPointExtension>
            <ns3:hr>97</ns3:hr>
            <ns3:cad>0</ns3:cad>
          </ns3:TrackPointExtension>
        </extensions>
      </trkpt>
      <trkpt lat="37.93831304647028446197509765625" lon="-107.13776503689587116241455078125">
        <ele>3632.60009765625</ele>
        <time>2026-01-06T16:09:08.000Z</time>
        <extensions>
          <ns3:TrackPointExtension>
            <ns3:hr>97</ns3:hr>
            <ns3:cad>0</ns3:cad>
          </ns3:TrackPointExtension>
        </extensions>
      </trkpt>
      <trkpt lat="37.93830080889165401458740234375" lon="-107.137761600315570831298828125">
        <ele>3632.60009765625</ele>
        <time>2026-01-06T16:09:12.000Z</time>
        <extensions>
          <ns3:TrackPointExtension>
            <ns3:hr>96</ns3:hr>
            <ns3:cad>0</ns3:cad>
          </ns3:TrackPointExtension>
        </extensions>
      </trkpt>
      <trkpt lat="37.9382997192442417144775390625" lon="-107.137760929763317108154296875">
        <ele>3632.39990234375</ele>
        <time>2026-01-06T16:09:18.000Z</time>
        <extensions>
          <ns3:TrackPointExtension>
            <ns3:hr>96</ns3:hr>
            <ns3:cad>0</ns3:cad>
          </ns3:TrackPointExtension>
        </extensions>
      </trkpt>
      <trkpt lat="37.93830080889165401458740234375" lon="-107.137761600315570831298828125">
        <ele>3632.60009765625</ele>
        <time>2026-01-06T16:09:19.000Z</time>
        <extensions>
          <ns3:TrackPointExtension>
            <ns3:hr>96</ns3:hr>
            <ns3:cad>0</ns3:cad>
          </ns3:TrackPointExtension>
        </extensions>
      </trkpt>
      <trkpt lat="37.93830080889165401458740234375" lon="-107.137761600315570831298828125">
        <ele>3632.60009765625</ele>
        <time>2026-01-06T16:09:24.000Z</time>
        <extensions>
          <ns3:TrackPointExtension>
            <ns3:hr>100</ns3:hr>
            <ns3:cad>0</ns3:cad>
          </ns3:TrackPointExtension>
        </extensions>
      </trkpt>
      <trkpt lat="37.93830080889165401458740234375" lon="-107.137761600315570831298828125">
        <ele>3632.39990234375</ele>
        <time>2026-01-06T16:09:30.000Z</time>
        <extensions>
          <ns3:TrackPointExtension>
            <ns3:hr>101</ns3:hr>
            <ns3:cad>0</ns3:cad>
          </ns3:TrackPointExtension>
        </extensions>
      </trkpt>
      <trkpt lat="37.9383003897964954376220703125" lon="-107.137758918106555938720703125">
        <ele>3632.60009765625</ele>
        <time>2026-01-06T16:09:32.000Z</time>
        <extensions>
          <ns3:TrackPointExtension>
            <ns3:hr>101</ns3:hr>
            <ns3:cad>0</ns3:cad>
          </ns3:TrackPointExtension>
        </extensions>
      </trkpt>
      <trkpt lat="37.93830080889165401458740234375" lon="-107.137761600315570831298828125">
        <ele>3632.60009765625</ele>
        <time>2026-01-06T16:09:38.000Z</time>
        <extensions>
          <ns3:TrackPointExtension>
            <ns3:hr>101</ns3:hr>
            <ns3:cad>0</ns3:cad>
          </ns3:TrackPointExtension>
        </extensions>
      </trkpt>
      <trkpt lat="37.93830080889165401458740234375" lon="-107.137761600315570831298828125">
        <ele>3632.800048828125</ele>
        <time>2026-01-06T16:09:39.000Z</time>
        <extensions>
          <ns3:TrackPointExtension>
            <ns3:hr>101</ns3:hr>
            <ns3:cad>0</ns3:cad>
          </ns3:TrackPointExtension>
        </extensions>
      </trkpt>
      <trkpt lat="37.93830080889165401458740234375" lon="-107.137761600315570831298828125">
        <ele>3633</ele>
        <time>2026-01-06T16:09:40.000Z</time>
        <extensions>
          <ns3:TrackPointExtension>
            <ns3:hr>102</ns3:hr>
            <ns3:cad>0</ns3:cad>
          </ns3:TrackPointExtension>
        </extensions>
      </trkpt>
      <trkpt lat="37.9383007250726222991943359375" lon="-107.1377443335950374603271484375">
        <ele>3632.60009765625</ele>
        <time>2026-01-06T16:09:46.000Z</time>
        <extensions>
          <ns3:TrackPointExtension>
            <ns3:hr>100</ns3:hr>
            <ns3:cad>0</ns3:cad>
          </ns3:TrackPointExtension>
        </extensions>
      </trkpt>
      <trkpt lat="37.93830064125359058380126953125" lon="-107.13773704133927822113037109375">
        <ele>3632.800048828125</ele>
        <time>2026-01-06T16:09:48.000Z</time>
        <extensions>
          <ns3:TrackPointExtension>
            <ns3:hr>99</ns3:hr>
            <ns3:cad>0</ns3:cad>
          </ns3:TrackPointExtension>
        </extensions>
      </trkpt>
      <trkpt lat="37.93830466456711292266845703125" lon="-107.1377134881913661956787109375">
        <ele>3632.800048828125</ele>
        <time>2026-01-06T16:09:54.000Z</time>
        <extensions>
          <ns3:TrackPointExtension>
            <ns3:hr>98</ns3:hr>
            <ns3:cad>0</ns3:cad>
          </ns3:TrackPointExtension>
        </extensions>
      </trkpt>
      <trkpt lat="37.9383047483861446380615234375" lon="-107.13771340437233448028564453125">
        <ele>3633.199951171875</ele>
        <time>2026-01-06T16:10:00.000Z</time>
        <extensions>
          <ns3:TrackPointExtension>
            <ns3:hr>97</ns3:hr>
            <ns3:cad>0</ns3:cad>
          </ns3:TrackPointExtension>
        </extensions>
      </trkpt>
      <trkpt lat="37.9383050836622714996337890625" lon="-107.13770602829754352569580078125">
        <ele>3633.39990234375</ele>
        <time>2026-01-06T16:10:02.000Z</time>
        <extensions>
          <ns3:TrackPointExtension>
            <ns3:hr>97</ns3:hr>
            <ns3:cad>0</ns3:cad>
          </ns3:TrackPointExtension>
        </extensions>
      </trkpt>
      <trkpt lat="37.9383047483861446380615234375" lon="-107.13771340437233448028564453125">
        <ele>3633.800048828125</ele>
        <time>2026-01-06T16:10:07.000Z</time>
        <extensions>
          <ns3:TrackPointExtension>
            <ns3:hr>94</ns3:hr>
            <ns3:cad>0</ns3:cad>
          </ns3:TrackPointExtension>
        </extensions>
      </trkpt>
      <trkpt lat="37.9383047483861446380615234375" lon="-107.13771340437233448028564453125">
        <ele>3633.800048828125</ele>
        <time>2026-01-06T16:10:10.000Z</time>
        <extensions>
          <ns3:TrackPointExtension>
            <ns3:hr>93</ns3:hr>
            <ns3:cad>0</ns3:cad>
          </ns3:TrackPointExtension>
        </extensions>
      </trkpt>
      <trkpt lat="37.93830919079482555389404296875" lon="-107.1376930363476276397705078125">
        <ele>3632.800048828125</ele>
        <time>2026-01-06T16:10:16.000Z</time>
        <extensions>
          <ns3:TrackPointExtension>
            <ns3:hr>93</ns3:hr>
            <ns3:cad>0</ns3:cad>
          </ns3:TrackPointExtension>
        </extensions>
      </trkpt>
      <trkpt lat="37.93830919079482555389404296875" lon="-107.1376930363476276397705078125">
        <ele>3632.800048828125</ele>
        <time>2026-01-06T16:10:17.000Z</time>
        <extensions>
          <ns3:TrackPointExtension>
            <ns3:hr>93</ns3:hr>
            <ns3:cad>0</ns3:cad>
          </ns3:TrackPointExtension>
        </extensions>
      </trkpt>
      <trkpt lat="37.93831287883222103118896484375" lon="-107.13768306188285350799560546875">
        <ele>3633.60009765625</ele>
        <time>2026-01-06T16:10:22.000Z</time>
        <extensions>
          <ns3:TrackPointExtension>
            <ns3:hr>96</ns3:hr>
            <ns3:cad>0</ns3:cad>
          </ns3:TrackPointExtension>
        </extensions>
      </trkpt>
      <trkpt lat="37.9383138008415699005126953125" lon="-107.1376796253025531768798828125">
        <ele>3633.800048828125</ele>
        <time>2026-01-06T16:10:23.000Z</time>
        <extensions>
          <ns3:TrackPointExtension>
            <ns3:hr>98</ns3:hr>
            <ns3:cad>0</ns3:cad>
          </ns3:TrackPointExtension>
        </extensions>
      </trkpt>
      <trkpt lat="37.938322685658931732177734375" lon="-107.137674428522586822509765625">
        <ele>3634</ele>
        <time>2026-01-06T16:10:25.000Z</time>
        <extensions>
          <ns3:TrackPointExtension>
            <ns3:hr>99</ns3:hr>
            <ns3:cad>0</ns3:cad>
          </ns3:TrackPointExtension>
        </extensions>
      </trkpt>
      <trkpt lat="37.9383262060582637786865234375" lon="-107.13766965083777904510498046875">
        <ele>3634</ele>
        <time>2026-01-06T16:10:31.000Z</time>
        <extensions>
          <ns3:TrackPointExtension>
            <ns3:hr>99</ns3:hr>
            <ns3:cad>0</ns3:cad>
          </ns3:TrackPointExtension>
        </extensions>
      </trkpt>
      <trkpt lat="37.9383262060582637786865234375" lon="-107.13766965083777904510498046875">
        <ele>3634.199951171875</ele>
        <time>2026-01-06T16:10:36.000Z</time>
        <extensions>
          <ns3:TrackPointExtension>
            <ns3:hr>96</ns3:hr>
            <ns3:cad>0</ns3:cad>
          </ns3:TrackPointExtension>
        </extensions>
      </trkpt>
      <trkpt lat="37.9383262060582637786865234375" lon="-107.13766965083777904510498046875">
        <ele>3634.39990234375</ele>
        <time>2026-01-06T16:10:41.000Z</time>
        <extensions>
          <ns3:TrackPointExtension>
            <ns3:hr>99</ns3:hr>
            <ns3:cad>0</ns3:cad>
          </ns3:TrackPointExtension>
        </extensions>
      </trkpt>
      <trkpt lat="37.93833936564624309539794921875" lon="-107.13766076602041721343994140625">
        <ele>3634.60009765625</ele>
        <time>2026-01-06T16:10:42.000Z</time>
        <extensions>
          <ns3:TrackPointExtension>
            <ns3:hr>102</ns3:hr>
            <ns3:cad>0</ns3:cad>
          </ns3:TrackPointExtension>
        </extensions>
      </trkpt>
      <trkpt lat="37.9383396171033382415771484375" lon="-107.1376605145633220672607421875">
        <ele>3634.60009765625</ele>
        <time>2026-01-06T16:10:43.000Z</time>
        <extensions>
          <ns3:TrackPointExtension>
            <ns3:hr>105</ns3:hr>
            <ns3:cad>0</ns3:cad>
          </ns3:TrackPointExtension>
        </extensions>
      </trkpt>
      <trkpt lat="37.9383453167974948883056640625" lon="-107.137650959193706512451171875">
        <ele>3634.39990234375</ele>
        <time>2026-01-06T16:10:48.000Z</time>
        <extensions>
          <ns3:TrackPointExtension>
            <ns3:hr>106</ns3:hr>
            <ns3:cad>0</ns3:cad>
          </ns3:TrackPointExtension>
        </extensions>
      </trkpt>
      <trkpt lat="37.938348166644573211669921875" lon="-107.13764727115631103515625">
        <ele>3634.800048828125</ele>
        <time>2026-01-06T16:10:54.000Z</time>
        <extensions>
          <ns3:TrackPointExtension>
            <ns3:hr>106</ns3:hr>
            <ns3:cad>0</ns3:cad>
          </ns3:TrackPointExtension>
        </extensions>
      </trkpt>
      <trkpt lat="37.93835143558681011199951171875" lon="-107.13764165528118610382080078125">
        <ele>3635</ele>
        <time>2026-01-06T16:10:55.000Z</time>
        <extensions>
          <ns3:TrackPointExtension>
            <ns3:hr>106</ns3:hr>
            <ns3:cad>0</ns3:cad>
          </ns3:TrackPointExtension>
        </extensions>
      </trkpt>
      <trkpt lat="37.9383453167974948883056640625" lon="-107.137650959193706512451171875">
        <ele>3635</ele>
        <time>2026-01-06T16:11:01.000Z</time>
        <extensions>
          <ns3:TrackPointExtension>
            <ns3:hr>107</ns3:hr>
            <ns3:cad>0</ns3:cad>
          </ns3:TrackPointExtension>
        </extensions>
      </trkpt>
      <trkpt lat="37.9383526928722858428955078125" lon="-107.137635536491870880126953125">
        <ele>3635</ele>
        <time>2026-01-06T16:11:06.000Z</time>
        <extensions>
          <ns3:TrackPointExtension>
            <ns3:hr>106</ns3:hr>
            <ns3:cad>0</ns3:cad>
          </ns3:TrackPointExtension>
        </extensions>
      </trkpt>
      <trkpt lat="37.9383526928722858428955078125" lon="-107.137635536491870880126953125">
        <ele>3635</ele>
        <time>2026-01-06T16:11:12.000Z</time>
        <extensions>
          <ns3:TrackPointExtension>
            <ns3:hr>106</ns3:hr>
            <ns3:cad>0</ns3:cad>
          </ns3:TrackPointExtension>
        </extensions>
      </trkpt>
      <trkpt lat="37.9383526928722858428955078125" lon="-107.137635536491870880126953125">
        <ele>3635</ele>
        <time>2026-01-06T16:11:13.000Z</time>
        <extensions>
          <ns3:TrackPointExtension>
            <ns3:hr>106</ns3:hr>
            <ns3:cad>0</ns3:cad>
          </ns3:TrackPointExtension>
        </extensions>
      </trkpt>
      <trkpt lat="37.93835177086293697357177734375" lon="-107.13762019760906696319580078125">
        <ele>3634.800048828125</ele>
        <time>2026-01-06T16:11:17.000Z</time>
        <extensions>
          <ns3:TrackPointExtension>
            <ns3:hr>103</ns3:hr>
            <ns3:cad>0</ns3:cad>
          </ns3:TrackPointExtension>
        </extensions>
      </trkpt>
      <trkpt lat="37.93834238313138484954833984375" lon="-107.13762120343744754791259765625">
        <ele>3635</ele>
        <time>2026-01-06T16:11:20.000Z</time>
        <extensions>
          <ns3:TrackPointExtension>
            <ns3:hr>102</ns3:hr>
            <ns3:cad>0</ns3:cad>
          </ns3:TrackPointExtension>
        </extensions>
      </trkpt>
      <trkpt lat="37.938340790569782257080078125" lon="-107.137619443237781524658203125">
        <ele>3636.199951171875</ele>
        <time>2026-01-06T16:11:24.000Z</time>
        <extensions>
          <ns3:TrackPointExtension>
            <ns3:hr>102</ns3:hr>
            <ns3:cad>0</ns3:cad>
          </ns3:TrackPointExtension>
        </extensions>
      </trkpt>
      <trkpt lat="37.93833986856043338775634765625" lon="-107.1376191079616546630859375">
        <ele>3636.800048828125</ele>
        <time>2026-01-06T16:11:29.000Z</time>
        <extensions>
          <ns3:TrackPointExtension>
            <ns3:hr>103</ns3:hr>
            <ns3:cad>0</ns3:cad>
          </ns3:TrackPointExtension>
        </extensions>
      </trkpt>
      <trkpt lat="37.93833685107529163360595703125" lon="-107.137623131275177001953125">
        <ele>3637.199951171875</ele>
        <time>2026-01-06T16:11:33.000Z</time>
        <extensions>
          <ns3:TrackPointExtension>
            <ns3:hr>105</ns3:hr>
            <ns3:cad>0</ns3:cad>
          </ns3:TrackPointExtension>
        </extensions>
      </trkpt>
      <trkpt lat="37.9383379407227039337158203125" lon="-107.137614078819751739501953125">
        <ele>3636.800048828125</ele>
        <time>2026-01-06T16:11:38.000Z</time>
        <extensions>
          <ns3:TrackPointExtension>
            <ns3:hr>106</ns3:hr>
            <ns3:cad>0</ns3:cad>
          </ns3:TrackPointExtension>
        </extensions>
      </trkpt>
      <trkpt lat="37.938340790569782257080078125" lon="-107.137619443237781524658203125">
        <ele>3636.800048828125</ele>
        <time>2026-01-06T16:11:44.000Z</time>
        <extensions>
          <ns3:TrackPointExtension>
            <ns3:hr>107</ns3:hr>
            <ns3:cad>0</ns3:cad>
          </ns3:TrackPointExtension>
        </extensions>
      </trkpt>
      <trkpt lat="37.938340790569782257080078125" lon="-107.137619443237781524658203125">
        <ele>3636.60009765625</ele>
        <time>2026-01-06T16:11:45.000Z</time>
        <extensions>
          <ns3:TrackPointExtension>
            <ns3:hr>107</ns3:hr>
            <ns3:cad>0</ns3:cad>
          </ns3:TrackPointExtension>
        </extensions>
      </trkpt>
      <trkpt lat="37.93833869509398937225341796875" lon="-107.137585580348968505859375">
        <ele>3637.60009765625</ele>
        <time>2026-01-06T16:11:51.000Z</time>
        <extensions>
          <ns3:TrackPointExtension>
            <ns3:hr>108</ns3:hr>
            <ns3:cad>0</ns3:cad>
          </ns3:TrackPointExtension>
        </extensions>
      </trkpt>
      <trkpt lat="37.93833685107529163360595703125" lon="-107.13757007382810115814208984375">
        <ele>3637.60009765625</ele>
        <time>2026-01-06T16:11:54.000Z</time>
        <extensions>
          <ns3:TrackPointExtension>
            <ns3:hr>108</ns3:hr>
            <ns3:cad>0</ns3:cad>
          </ns3:TrackPointExtension>
        </extensions>
      </trkpt>
      <trkpt lat="37.938336767256259918212890625" lon="-107.137569822371006011962890625">
        <ele>3638.39990234375</ele>
        <time>2026-01-06T16:11:58.000Z</time>
        <extensions>
          <ns3:TrackPointExtension>
            <ns3:hr>110</ns3:hr>
            <ns3:cad>0</ns3:cad>
          </ns3:TrackPointExtension>
        </extensions>
      </trkpt>
      <trkpt lat="37.93834137730300426483154296875" lon="-107.13754978962242603302001953125">
        <ele>3638.800048828125</ele>
        <time>2026-01-06T16:12:01.000Z</time>
        <extensions>
          <ns3:TrackPointExtension>
            <ns3:hr>113</ns3:hr>
            <ns3:cad>0</ns3:cad>
          </ns3:TrackPointExtension>
        </extensions>
      </trkpt>
      <trkpt lat="37.93834514915943145751953125" lon="-107.1375414915382862091064453125">
        <ele>3638.800048828125</ele>
        <time>2026-01-06T16:12:02.000Z</time>
        <extensions>
          <ns3:TrackPointExtension>
            <ns3:hr>114</ns3:hr>
            <ns3:cad>0</ns3:cad>
          </ns3:TrackPointExtension>
        </extensions>
      </trkpt>
      <trkpt lat="37.93834322132170200347900390625" lon="-107.137538306415081024169921875">
        <ele>3639</ele>
        <time>2026-01-06T16:12:04.000Z</time>
        <extensions>
          <ns3:TrackPointExtension>
            <ns3:hr>115</ns3:hr>
            <ns3:cad>0</ns3:cad>
          </ns3:TrackPointExtension>
        </extensions>
      </trkpt>
      <trkpt lat="37.93834322132170200347900390625" lon="-107.137538306415081024169921875">
        <ele>3639.39990234375</ele>
        <time>2026-01-06T16:12:07.000Z</time>
        <extensions>
          <ns3:TrackPointExtension>
            <ns3:hr>114</ns3:hr>
            <ns3:cad>0</ns3:cad>
          </ns3:TrackPointExtension>
        </extensions>
      </trkpt>
      <trkpt lat="37.93834322132170200347900390625" lon="-107.137538306415081024169921875">
        <ele>3639.39990234375</ele>
        <time>2026-01-06T16:12:08.000Z</time>
        <extensions>
          <ns3:TrackPointExtension>
            <ns3:hr>114</ns3:hr>
            <ns3:cad>0</ns3:cad>
          </ns3:TrackPointExtension>
        </extensions>
      </trkpt>
      <trkpt lat="37.93835126794874668121337890625" lon="-107.13750402443110942840576171875">
        <ele>3639.800048828125</ele>
        <time>2026-01-06T16:12:14.000Z</time>
        <extensions>
          <ns3:TrackPointExtension>
            <ns3:hr>114</ns3:hr>
            <ns3:cad>0</ns3:cad>
          </ns3:TrackPointExtension>
        </extensions>
      </trkpt>
      <trkpt lat="37.93832905590534210205078125" lon="-107.1375046111643314361572265625">
        <ele>3640.199951171875</ele>
        <time>2026-01-06T16:12:19.000Z</time>
        <extensions>
          <ns3:TrackPointExtension>
            <ns3:hr>113</ns3:hr>
            <ns3:cad>0</ns3:cad>
          </ns3:TrackPointExtension>
        </extensions>
      </trkpt>
      <trkpt lat="37.938320674002170562744140625" lon="-107.1375052817165851593017578125">
        <ele>3640.39990234375</ele>
        <time>2026-01-06T16:12:22.000Z</time>
        <extensions>
          <ns3:TrackPointExtension>
            <ns3:hr>113</ns3:hr>
            <ns3:cad>0</ns3:cad>
          </ns3:TrackPointExtension>
        </extensions>
      </trkpt>
      <trkpt lat="37.938320674002170562744140625" lon="-107.13750486262142658233642578125">
        <ele>3641</ele>
        <time>2026-01-06T16:12:28.000Z</time>
        <extensions>
          <ns3:TrackPointExtension>
            <ns3:hr>112</ns3:hr>
            <ns3:cad>0</ns3:cad>
          </ns3:TrackPointExtension>
        </extensions>
      </trkpt>
      <trkpt lat="37.93831832706928253173828125" lon="-107.13750000111758708953857421875">
        <ele>3641.60009765625</ele>
        <time>2026-01-06T16:12:31.000Z</time>
        <extensions>
          <ns3:TrackPointExtension>
            <ns3:hr>112</ns3:hr>
            <ns3:cad>0</ns3:cad>
          </ns3:TrackPointExtension>
        </extensions>
      </trkpt>
      <trkpt lat="37.938320674002170562744140625" lon="-107.13750486262142658233642578125">
        <ele>3641.800048828125</ele>
        <time>2026-01-06T16:12:35.000Z</time>
        <extensions>
          <ns3:TrackPointExtension>
            <ns3:hr>110</ns3:hr>
            <ns3:cad>0</ns3:cad>
          </ns3:TrackPointExtension>
        </extensions>
      </trkpt>
      <trkpt lat="37.93831028044223785400390625" lon="-107.13749312795698642730712890625">
        <ele>3642.199951171875</ele>
        <time>2026-01-06T16:12:39.000Z</time>
        <extensions>
          <ns3:TrackPointExtension>
            <ns3:hr>113</ns3:hr>
            <ns3:cad>0</ns3:cad>
          </ns3:TrackPointExtension>
        </extensions>
      </trkpt>
      <trkpt lat="37.9383003897964954376220703125" lon="-107.13748608715832233428955078125">
        <ele>3642.800048828125</ele>
        <time>2026-01-06T16:12:41.000Z</time>
        <extensions>
          <ns3:TrackPointExtension>
            <ns3:hr>118</ns3:hr>
            <ns3:cad>0</ns3:cad>
          </ns3:TrackPointExtension>
        </extensions>
      </trkpt>
      <trkpt lat="37.9382866434752941131591796875" lon="-107.1374767832458019256591796875">
        <ele>3643.199951171875</ele>
        <time>2026-01-06T16:12:46.000Z</time>
        <extensions>
          <ns3:TrackPointExtension>
            <ns3:hr>120</ns3:hr>
            <ns3:cad>0</ns3:cad>
          </ns3:TrackPointExtension>
        </extensions>
      </trkpt>
      <trkpt lat="37.93828739784657955169677734375" lon="-107.1374670602381229400634765625">
        <ele>3643.800048828125</ele>
        <time>2026-01-06T16:12:50.000Z</time>
        <extensions>
          <ns3:TrackPointExtension>
            <ns3:hr>119</ns3:hr>
            <ns3:cad>0</ns3:cad>
          </ns3:TrackPointExtension>
        </extensions>
      </trkpt>
      <trkpt lat="37.9382866434752941131591796875" lon="-107.1374767832458019256591796875">
        <ele>3644.199951171875</ele>
        <time>2026-01-06T16:12:52.000Z</time>
        <extensions>
          <ns3:TrackPointExtension>
            <ns3:hr>120</ns3:hr>
            <ns3:cad>0</ns3:cad>
          </ns3:TrackPointExtension>
        </extensions>
      </trkpt>
      <trkpt lat="37.9382866434752941131591796875" lon="-107.1374767832458019256591796875">
        <ele>3644.800048828125</ele>
        <time>2026-01-06T16:12:58.000Z</time>
        <extensions>
          <ns3:TrackPointExtension>
            <ns3:hr>118</ns3:hr>
            <ns3:cad>0</ns3:cad>
          </ns3:TrackPointExtension>
        </extensions>
      </trkpt>
      <trkpt lat="37.9382866434752941131591796875" lon="-107.1374767832458019256591796875">
        <ele>3644.60009765625</ele>
        <time>2026-01-06T16:13:01.000Z</time>
        <extensions>
          <ns3:TrackPointExtension>
            <ns3:hr>119</ns3:hr>
            <ns3:cad>0</ns3:cad>
          </ns3:TrackPointExtension>
        </extensions>
      </trkpt>
      <trkpt lat="37.9382866434752941131591796875" lon="-107.1374767832458019256591796875">
        <ele>3644.60009765625</ele>
        <time>2026-01-06T16:13:05.000Z</time>
        <extensions>
          <ns3:TrackPointExtension>
            <ns3:hr>122</ns3:hr>
            <ns3:cad>0</ns3:cad>
          </ns3:TrackPointExtension>
        </extensions>
      </trkpt>
      <trkpt lat="37.9382866434752941131591796875" lon="-107.1374767832458019256591796875">
        <ele>3644</ele>
        <time>2026-01-06T16:13:11.000Z</time>
        <extensions>
          <ns3:TrackPointExtension>
            <ns3:hr>123</ns3:hr>
            <ns3:cad>0</ns3:cad>
          </ns3:TrackPointExtension>
        </extensions>
      </trkpt>
      <trkpt lat="37.9382866434752941131591796875" lon="-107.1374767832458019256591796875">
        <ele>3643.800048828125</ele>
        <time>2026-01-06T16:13:13.000Z</time>
        <extensions>
          <ns3:TrackPointExtension>
            <ns3:hr>122</ns3:hr>
            <ns3:cad>0</ns3:cad>
          </ns3:TrackPointExtension>
        </extensions>
      </trkpt>
      <trkpt lat="37.9382866434752941131591796875" lon="-107.1374767832458019256591796875">
        <ele>3643.800048828125</ele>
        <time>2026-01-06T16:13:17.000Z</time>
        <extensions>
          <ns3:TrackPointExtension>
            <ns3:hr>117</ns3:hr>
            <ns3:cad>0</ns3:cad>
          </ns3:TrackPointExtension>
        </extensions>
      </trkpt>
      <trkpt lat="37.9382866434752941131591796875" lon="-107.1374767832458019256591796875">
        <ele>3643.800048828125</ele>
        <time>2026-01-06T16:13:20.000Z</time>
        <extensions>
          <ns3:TrackPointExtension>
            <ns3:hr>113</ns3:hr>
            <ns3:cad>0</ns3:cad>
          </ns3:TrackPointExtension>
        </extensions>
      </trkpt>
      <trkpt lat="37.9382866434752941131591796875" lon="-107.1374767832458019256591796875">
        <ele>3643.800048828125</ele>
        <time>2026-01-06T16:13:22.000Z</time>
        <extensions>
          <ns3:TrackPointExtension>
            <ns3:hr>110</ns3:hr>
            <ns3:cad>0</ns3:cad>
          </ns3:TrackPointExtension>
        </extensions>
      </trkpt>
      <trkpt lat="37.9382866434752941131591796875" lon="-107.1374767832458019256591796875">
        <ele>3644</ele>
        <time>2026-01-06T16:13:25.000Z</time>
        <extensions>
          <ns3:TrackPointExtension>
            <ns3:hr>107</ns3:hr>
            <ns3:cad>0</ns3:cad>
          </ns3:TrackPointExtension>
        </extensions>
      </trkpt>
      <trkpt lat="37.9382866434752941131591796875" lon="-107.1374767832458019256591796875">
        <ele>3643.800048828125</ele>
        <time>2026-01-06T16:13:28.000Z</time>
        <extensions>
          <ns3:TrackPointExtension>
            <ns3:hr>104</ns3:hr>
            <ns3:cad>0</ns3:cad>
          </ns3:TrackPointExtension>
        </extensions>
      </trkpt>
      <trkpt lat="37.9382866434752941131591796875" lon="-107.1374767832458019256591796875">
        <ele>3643.800048828125</ele>
        <time>2026-01-06T16:13:30.000Z</time>
        <extensions>
          <ns3:TrackPointExtension>
            <ns3:hr>104</ns3:hr>
            <ns3:cad>0</ns3:cad>
          </ns3:TrackPointExtension>
        </extensions>
      </trkpt>
      <trkpt lat="37.9382866434752941131591796875" lon="-107.1374767832458019256591796875">
        <ele>3643.800048828125</ele>
        <time>2026-01-06T16:13:36.000Z</time>
        <extensions>
          <ns3:TrackPointExtension>
            <ns3:hr>102</ns3:hr>
            <ns3:cad>0</ns3:cad>
          </ns3:TrackPointExtension>
        </extensions>
      </trkpt>
      <trkpt lat="37.9382866434752941131591796875" lon="-107.1374767832458019256591796875">
        <ele>3643.39990234375</ele>
        <time>2026-01-06T16:13:42.000Z</time>
        <extensions>
          <ns3:TrackPointExtension>
            <ns3:hr>97</ns3:hr>
            <ns3:cad>0</ns3:cad>
          </ns3:TrackPointExtension>
        </extensions>
      </trkpt>
      <trkpt lat="37.9382866434752941131591796875" lon="-107.1374767832458019256591796875">
        <ele>3643.60009765625</ele>
        <time>2026-01-06T16:13:43.000Z</time>
        <extensions>
          <ns3:TrackPointExtension>
            <ns3:hr>94</ns3:hr>
            <ns3:cad>0</ns3:cad>
          </ns3:TrackPointExtension>
        </extensions>
      </trkpt>
      <trkpt lat="37.9382866434752941131591796875" lon="-107.1374767832458019256591796875">
        <ele>3643.60009765625</ele>
        <time>2026-01-06T16:13:44.000Z</time>
        <extensions>
          <ns3:TrackPointExtension>
            <ns3:hr>90</ns3:hr>
            <ns3:cad>0</ns3:cad>
          </ns3:TrackPointExtension>
        </extensions>
      </trkpt>
      <trkpt lat="37.9382866434752941131591796875" lon="-107.1374767832458019256591796875">
        <ele>3643.60009765625</ele>
        <time>2026-01-06T16:13:46.000Z</time>
        <extensions>
          <ns3:TrackPointExtension>
            <ns3:hr>87</ns3:hr>
            <ns3:cad>0</ns3:cad>
          </ns3:TrackPointExtension>
        </extensions>
      </trkpt>
      <trkpt lat="37.9382956959307193756103515625" lon="-107.13746395893394947052001953125">
        <ele>3643.800048828125</ele>
        <time>2026-01-06T16:13:52.000Z</time>
        <extensions>
          <ns3:TrackPointExtension>
            <ns3:hr>89</ns3:hr>
            <ns3:cad>0</ns3:cad>
          </ns3:TrackPointExtension>
        </extensions>
      </trkpt>
      <trkpt lat="37.93829561211168766021728515625" lon="-107.13746362365782260894775390625">
        <ele>3643.60009765625</ele>
        <time>2026-01-06T16:13:54.000Z</time>
        <extensions>
          <ns3:TrackPointExtension>
            <ns3:hr>89</ns3:hr>
            <ns3:cad>0</ns3:cad>
          </ns3:TrackPointExtension>
        </extensions>
      </trkpt>
      <trkpt lat="37.93830231763422489166259765625" lon="-107.13743311353027820587158203125">
        <ele>3643.800048828125</ele>
        <time>2026-01-06T16:14:00.000Z</time>
        <extensions>
          <ns3:TrackPointExtension>
            <ns3:hr>89</ns3:hr>
            <ns3:cad>0</ns3:cad>
          </ns3:TrackPointExtension>
        </extensions>
      </trkpt>
      <trkpt lat="37.93828639201819896697998046875" lon="-107.1373966522514820098876953125">
        <ele>3645</ele>
        <time>2026-01-06T16:14:06.000Z</time>
        <extensions>
          <ns3:TrackPointExtension>
            <ns3:hr>91</ns3:hr>
            <ns3:cad>0</ns3:cad>
          </ns3:TrackPointExtension>
        </extensions>
      </trkpt>
      <trkpt lat="37.938283123075962066650390625" lon="-107.13736874051392078399658203125">
        <ele>3646</ele>
        <time>2026-01-06T16:14:11.000Z</time>
        <extensions>
          <ns3:TrackPointExtension>
            <ns3:hr>92</ns3:hr>
            <ns3:cad>0</ns3:cad>
          </ns3:TrackPointExtension>
        </extensions>
      </trkpt>
      <trkpt lat="37.93828035704791545867919921875" lon="-107.137358598411083221435546875">
        <ele>3646.199951171875</ele>
        <time>2026-01-06T16:14:12.000Z</time>
        <extensions>
          <ns3:TrackPointExtension>
            <ns3:hr>93</ns3:hr>
            <ns3:cad>0</ns3:cad>
          </ns3:TrackPointExtension>
        </extensions>
      </trkpt>
      <trkpt lat="37.93827180750668048858642578125" lon="-107.1373443491756916046142578125">
        <ele>3647.199951171875</ele>
        <time>2026-01-06T16:14:16.000Z</time>
        <extensions>
          <ns3:TrackPointExtension>
            <ns3:hr>96</ns3:hr>
            <ns3:cad>0</ns3:cad>
          </ns3:TrackPointExtension>
        </extensions>
      </trkpt>
      <trkpt lat="37.9382692091166973114013671875" lon="-107.13733554817736148834228515625">
        <ele>3647.60009765625</ele>
        <time>2026-01-06T16:14:18.000Z</time>
        <extensions>
          <ns3:TrackPointExtension>
            <ns3:hr>102</ns3:hr>
            <ns3:cad>0</ns3:cad>
          </ns3:TrackPointExtension>
        </extensions>
      </trkpt>
      <trkpt lat="37.93826577253639698028564453125" lon="-107.13733739219605922698974609375">
        <ele>3647.800048828125</ele>
        <time>2026-01-06T16:14:19.000Z</time>
        <extensions>
          <ns3:TrackPointExtension>
            <ns3:hr>102</ns3:hr>
            <ns3:cad>0</ns3:cad>
          </ns3:TrackPointExtension>
        </extensions>
      </trkpt>
      <trkpt lat="37.93825604952871799468994140625" lon="-107.13732062838971614837646484375">
        <ele>3648.199951171875</ele>
        <time>2026-01-06T16:14:22.000Z</time>
        <extensions>
          <ns3:TrackPointExtension>
            <ns3:hr>104</ns3:hr>
            <ns3:cad>0</ns3:cad>
          </ns3:TrackPointExtension>
        </extensions>
      </trkpt>
      <trkpt lat="37.9382568039000034332275390625" lon="-107.13731610216200351715087890625">
        <ele>3648.39990234375</ele>
        <time>2026-01-06T16:14:24.000Z</time>
        <extensions>
          <ns3:TrackPointExtension>
            <ns3:hr>106</ns3:hr>
            <ns3:cad>69</ns3:cad>
          </ns3:TrackPointExtension>
        </extensions>
      </trkpt>
      <trkpt lat="37.938255630433559417724609375" lon="-107.13728710077702999114990234375">
        <ele>3648.800048828125</ele>
        <time>2026-01-06T16:14:29.000Z</time>
        <extensions>
          <ns3:TrackPointExtension>
            <ns3:hr>110</ns3:hr>
            <ns3:cad>0</ns3:cad>
          </ns3:TrackPointExtension>
        </extensions>
      </trkpt>
      <trkpt lat="37.9382504336535930633544921875" lon="-107.13728307746350765228271484375">
        <ele>3649.199951171875</ele>
        <time>2026-01-06T16:14:30.000Z</time>
        <extensions>
          <ns3:TrackPointExtension>
            <ns3:hr>110</ns3:hr>
            <ns3:cad>0</ns3:cad>
          </ns3:TrackPointExtension>
        </extensions>
      </trkpt>
      <trkpt lat="37.93824716471135616302490234375" lon="-107.13728156872093677520751953125">
        <ele>3649.199951171875</ele>
        <time>2026-01-06T16:14:31.000Z</time>
        <extensions>
          <ns3:TrackPointExtension>
            <ns3:hr>110</ns3:hr>
            <ns3:cad>0</ns3:cad>
          </ns3:TrackPointExtension>
        </extensions>
      </trkpt>
      <trkpt lat="37.9382390342652797698974609375" lon="-107.1372746117413043975830078125">
        <ele>3649.39990234375</ele>
        <time>2026-01-06T16:14:33.000Z</time>
        <extensions>
          <ns3:TrackPointExtension>
            <ns3:hr>107</ns3:hr>
            <ns3:cad>0</ns3:cad>
          </ns3:TrackPointExtension>
        </extensions>
      </trkpt>
      <trkpt lat="37.938239872455596923828125" lon="-107.1372736059129238128662109375">
        <ele>3649.60009765625</ele>
        <time>2026-01-06T16:14:35.000Z</time>
        <extensions>
          <ns3:TrackPointExtension>
            <ns3:hr>110</ns3:hr>
            <ns3:cad>0</ns3:cad>
          </ns3:TrackPointExtension>
        </extensions>
      </trkpt>
      <trkpt lat="37.93823928572237491607666015625" lon="-107.137270085513591766357421875">
        <ele>3649.60009765625</ele>
        <time>2026-01-06T16:14:36.000Z</time>
        <extensions>
          <ns3:TrackPointExtension>
            <ns3:hr>111</ns3:hr>
            <ns3:cad>0</ns3:cad>
          </ns3:TrackPointExtension>
        </extensions>
      </trkpt>
      <trkpt lat="37.938239537179470062255859375" lon="-107.13724954985082149505615234375">
        <ele>3650.39990234375</ele>
        <time>2026-01-06T16:14:41.000Z</time>
        <extensions>
          <ns3:TrackPointExtension>
            <ns3:hr>111</ns3:hr>
            <ns3:cad>0</ns3:cad>
          </ns3:TrackPointExtension>
        </extensions>
      </trkpt>
      <trkpt lat="37.9382403753697872161865234375" lon="-107.13724561035633087158203125">
        <ele>3650.800048828125</ele>
        <time>2026-01-06T16:14:43.000Z</time>
        <extensions>
          <ns3:TrackPointExtension>
            <ns3:hr>111</ns3:hr>
            <ns3:cad>0</ns3:cad>
          </ns3:TrackPointExtension>
        </extensions>
      </trkpt>
      <trkpt lat="37.9382410459220409393310546875" lon="-107.1372233144938945770263671875">
        <ele>3651.39990234375</ele>
        <time>2026-01-06T16:14:49.000Z</time>
        <extensions>
          <ns3:TrackPointExtension>
            <ns3:hr>114</ns3:hr>
            <ns3:cad>0</ns3:cad>
          </ns3:TrackPointExtension>
        </extensions>
      </trkpt>
      <trkpt lat="37.93824112974107265472412109375" lon="-107.13721744716167449951171875">
        <ele>3651.60009765625</ele>
        <time>2026-01-06T16:14:50.000Z</time>
        <extensions>
          <ns3:TrackPointExtension>
            <ns3:hr>114</ns3:hr>
            <ns3:cad>0</ns3:cad>
          </ns3:TrackPointExtension>
        </extensions>
      </trkpt>
      <trkpt lat="37.9382363520562648773193359375" lon="-107.137188948690891265869140625">
        <ele>3652.60009765625</ele>
        <time>2026-01-06T16:14:55.000Z</time>
        <extensions>
          <ns3:TrackPointExtension>
            <ns3:hr>113</ns3:hr>
            <ns3:cad>0</ns3:cad>
          </ns3:TrackPointExtension>
        </extensions>
      </trkpt>
      <trkpt lat="37.938218414783477783203125" lon="-107.13717184960842132568359375">
        <ele>3653.199951171875</ele>
        <time>2026-01-06T16:15:01.000Z</time>
        <extensions>
          <ns3:TrackPointExtension>
            <ns3:hr>113</ns3:hr>
            <ns3:cad>0</ns3:cad>
          </ns3:TrackPointExtension>
        </extensions>
      </trkpt>
      <trkpt lat="37.938216738402843475341796875" lon="-107.13715751655399799346923828125">
        <ele>3653.800048828125</ele>
        <time>2026-01-06T16:15:03.000Z</time>
        <extensions>
          <ns3:TrackPointExtension>
            <ns3:hr>114</ns3:hr>
            <ns3:cad>0</ns3:cad>
          </ns3:TrackPointExtension>
        </extensions>
      </trkpt>
      <trkpt lat="37.93819905258715152740478515625" lon="-107.13714041747152805328369140625">
        <ele>3654.39990234375</ele>
        <time>2026-01-06T16:15:09.000Z</time>
        <extensions>
          <ns3:TrackPointExtension>
            <ns3:hr>112</ns3:hr>
            <ns3:cad>0</ns3:cad>
          </ns3:TrackPointExtension>
        </extensions>
      </trkpt>
      <trkpt lat="37.9381934367120265960693359375" lon="-107.1371334604918956756591796875">
        <ele>3654.60009765625</ele>
        <time>2026-01-06T16:15:10.000Z</time>
        <extensions>
          <ns3:TrackPointExtension>
            <ns3:hr>112</ns3:hr>
            <ns3:cad>0</ns3:cad>
          </ns3:TrackPointExtension>
        </extensions>
      </trkpt>
      <trkpt lat="37.93819670565426349639892578125" lon="-107.1371327899396419525146484375">
        <ele>3655</ele>
        <time>2026-01-06T16:15:12.000Z</time>
        <extensions>
          <ns3:TrackPointExtension>
            <ns3:hr>111</ns3:hr>
            <ns3:cad>0</ns3:cad>
          </ns3:TrackPointExtension>
        </extensions>
      </trkpt>
      <trkpt lat="37.93819620274007320404052734375" lon="-107.13710940442979335784912109375">
        <ele>3655.199951171875</ele>
        <time>2026-01-06T16:15:15.000Z</time>
        <extensions>
          <ns3:TrackPointExtension>
            <ns3:hr>110</ns3:hr>
            <ns3:cad>0</ns3:cad>
          </ns3:TrackPointExtension>
        </extensions>
      </trkpt>
      <trkpt lat="37.9381900839507579803466796875" lon="-107.13709942996501922607421875">
        <ele>3655.199951171875</ele>
        <time>2026-01-06T16:15:18.000Z</time>
        <extensions>
          <ns3:TrackPointExtension>
            <ns3:hr>107</ns3:hr>
            <ns3:cad>0</ns3:cad>
          </ns3:TrackPointExtension>
        </extensions>
      </trkpt>
      <trkpt lat="37.938185892999172210693359375" lon="-107.137097083032131195068359375">
        <ele>3655.60009765625</ele>
        <time>2026-01-06T16:15:20.000Z</time>
        <extensions>
          <ns3:TrackPointExtension>
            <ns3:hr>106</ns3:hr>
            <ns3:cad>0</ns3:cad>
          </ns3:TrackPointExtension>
        </extensions>
      </trkpt>
      <trkpt lat="37.9381766729056835174560546875" lon="-107.137086354196071624755859375">
        <ele>3655.60009765625</ele>
        <time>2026-01-06T16:15:26.000Z</time>
        <extensions>
          <ns3:TrackPointExtension>
            <ns3:hr>105</ns3:hr>
            <ns3:cad>0</ns3:cad>
          </ns3:TrackPointExtension>
        </extensions>
      </trkpt>
      <trkpt lat="37.938175499439239501953125" lon="-107.13708593510091304779052734375">
        <ele>3655.800048828125</ele>
        <time>2026-01-06T16:15:27.000Z</time>
        <extensions>
          <ns3:TrackPointExtension>
            <ns3:hr>105</ns3:hr>
            <ns3:cad>0</ns3:cad>
          </ns3:TrackPointExtension>
        </extensions>
      </trkpt>
      <trkpt lat="37.93817541562020778656005859375" lon="-107.13708576746284961700439453125">
        <ele>3656.199951171875</ele>
        <time>2026-01-06T16:15:29.000Z</time>
        <extensions>
          <ns3:TrackPointExtension>
            <ns3:hr>104</ns3:hr>
            <ns3:cad>0</ns3:cad>
          </ns3:TrackPointExtension>
        </extensions>
      </trkpt>
      <trkpt lat="37.93816946446895599365234375" lon="-107.137072943150997161865234375">
        <ele>3657</ele>
        <time>2026-01-06T16:15:35.000Z</time>
        <extensions>
          <ns3:TrackPointExtension>
            <ns3:hr>105</ns3:hr>
            <ns3:cad>0</ns3:cad>
          </ns3:TrackPointExtension>
        </extensions>
      </trkpt>
      <trkpt lat="37.93816418386995792388916015625" lon="-107.1370647288858890533447265625">
        <ele>3657.39990234375</ele>
        <time>2026-01-06T16:15:41.000Z</time>
        <extensions>
          <ns3:TrackPointExtension>
            <ns3:hr>103</ns3:hr>
            <ns3:cad>0</ns3:cad>
          </ns3:TrackPointExtension>
        </extensions>
      </trkpt>
      <trkpt lat="37.93816418386995792388916015625" lon="-107.1370647288858890533447265625">
        <ele>3657.60009765625</ele>
        <time>2026-01-06T16:15:42.000Z</time>
        <extensions>
          <ns3:TrackPointExtension>
            <ns3:hr>101</ns3:hr>
            <ns3:cad>0</ns3:cad>
          </ns3:TrackPointExtension>
        </extensions>
      </trkpt>
      <trkpt lat="37.93816233985126018524169921875" lon="-107.13704989291727542877197265625">
        <ele>3658.199951171875</ele>
        <time>2026-01-06T16:15:47.000Z</time>
        <extensions>
          <ns3:TrackPointExtension>
            <ns3:hr>98</ns3:hr>
            <ns3:cad>0</ns3:cad>
          </ns3:TrackPointExtension>
        </extensions>
      </trkpt>
      <trkpt lat="37.93815999291837215423583984375" lon="-107.13704176247119903564453125">
        <ele>3658.39990234375</ele>
        <time>2026-01-06T16:15:48.000Z</time>
        <extensions>
          <ns3:TrackPointExtension>
            <ns3:hr>98</ns3:hr>
            <ns3:cad>0</ns3:cad>
          </ns3:TrackPointExtension>
        </extensions>
      </trkpt>
      <trkpt lat="37.9381607472896575927734375" lon="-107.13704218156635761260986328125">
        <ele>3658.39990234375</ele>
        <time>2026-01-06T16:15:49.000Z</time>
        <extensions>
          <ns3:TrackPointExtension>
            <ns3:hr>97</ns3:hr>
            <ns3:cad>0</ns3:cad>
          </ns3:TrackPointExtension>
        </extensions>
      </trkpt>
      <trkpt lat="37.93816066347062587738037109375" lon="-107.1370422653853893280029296875">
        <ele>3658.199951171875</ele>
        <time>2026-01-06T16:15:55.000Z</time>
        <extensions>
          <ns3:TrackPointExtension>
            <ns3:hr>99</ns3:hr>
            <ns3:cad>0</ns3:cad>
          </ns3:TrackPointExtension>
        </extensions>
      </trkpt>
      <trkpt lat="37.93816066347062587738037109375" lon="-107.1370422653853893280029296875">
        <ele>3658.199951171875</ele>
        <time>2026-01-06T16:15:59.000Z</time>
        <extensions>
          <ns3:TrackPointExtension>
            <ns3:hr>96</ns3:hr>
            <ns3:cad>0</ns3:cad>
          </ns3:TrackPointExtension>
        </extensions>
      </trkpt>
      <trkpt lat="37.93816066347062587738037109375" lon="-107.1370422653853893280029296875">
        <ele>3658.199951171875</ele>
        <time>2026-01-06T16:16:00.000Z</time>
        <extensions>
          <ns3:TrackPointExtension>
            <ns3:hr>96</ns3:hr>
            <ns3:cad>0</ns3:cad>
          </ns3:TrackPointExtension>
        </extensions>
      </trkpt>
      <trkpt lat="37.93816066347062587738037109375" lon="-107.1370422653853893280029296875">
        <ele>3658.199951171875</ele>
        <time>2026-01-06T16:16:04.000Z</time>
        <extensions>
          <ns3:TrackPointExtension>
            <ns3:hr>101</ns3:hr>
            <ns3:cad>0</ns3:cad>
          </ns3:TrackPointExtension>
        </extensions>
      </trkpt>
      <trkpt lat="37.93816066347062587738037109375" lon="-107.1370422653853893280029296875">
        <ele>3658.199951171875</ele>
        <time>2026-01-06T16:16:05.000Z</time>
        <extensions>
          <ns3:TrackPointExtension>
            <ns3:hr>127</ns3:hr>
            <ns3:cad>0</ns3:cad>
          </ns3:TrackPointExtension>
        </extensions>
      </trkpt>
      <trkpt lat="37.93816066347062587738037109375" lon="-107.1370422653853893280029296875">
        <ele>3658.199951171875</ele>
        <time>2026-01-06T16:16:06.000Z</time>
        <extensions>
          <ns3:TrackPointExtension>
            <ns3:hr>127</ns3:hr>
            <ns3:cad>0</ns3:cad>
          </ns3:TrackPointExtension>
        </extensions>
      </trkpt>
      <trkpt lat="37.93816066347062587738037109375" lon="-107.1370422653853893280029296875">
        <ele>3658.199951171875</ele>
        <time>2026-01-06T16:16:12.000Z</time>
        <extensions>
          <ns3:TrackPointExtension>
            <ns3:hr>126</ns3:hr>
            <ns3:cad>0</ns3:cad>
          </ns3:TrackPointExtension>
        </extensions>
      </trkpt>
      <trkpt lat="37.93816066347062587738037109375" lon="-107.1370422653853893280029296875">
        <ele>3658.199951171875</ele>
        <time>2026-01-06T16:16:14.000Z</time>
        <extensions>
          <ns3:TrackPointExtension>
            <ns3:hr>124</ns3:hr>
            <ns3:cad>0</ns3:cad>
          </ns3:TrackPointExtension>
        </extensions>
      </trkpt>
      <trkpt lat="37.93816066347062587738037109375" lon="-107.1370422653853893280029296875">
        <ele>3658.199951171875</ele>
        <time>2026-01-06T16:16:17.000Z</time>
        <extensions>
          <ns3:TrackPointExtension>
            <ns3:hr>121</ns3:hr>
            <ns3:cad>0</ns3:cad>
          </ns3:TrackPointExtension>
        </extensions>
      </trkpt>
      <trkpt lat="37.93816066347062587738037109375" lon="-107.1370422653853893280029296875">
        <ele>3658.39990234375</ele>
        <time>2026-01-06T16:16:22.000Z</time>
        <extensions>
          <ns3:TrackPointExtension>
            <ns3:hr>121</ns3:hr>
            <ns3:cad>0</ns3:cad>
          </ns3:TrackPointExtension>
        </extensions>
      </trkpt>
      <trkpt lat="37.93816066347062587738037109375" lon="-107.1370422653853893280029296875">
        <ele>3658.39990234375</ele>
        <time>2026-01-06T16:16:24.000Z</time>
        <extensions>
          <ns3:TrackPointExtension>
            <ns3:hr>118</ns3:hr>
            <ns3:cad>0</ns3:cad>
          </ns3:TrackPointExtension>
        </extensions>
      </trkpt>
      <trkpt lat="37.93816066347062587738037109375" lon="-107.1370422653853893280029296875">
        <ele>3658.39990234375</ele>
        <time>2026-01-06T16:16:25.000Z</time>
        <extensions>
          <ns3:TrackPointExtension>
            <ns3:hr>114</ns3:hr>
            <ns3:cad>0</ns3:cad>
          </ns3:TrackPointExtension>
        </extensions>
      </trkpt>
      <trkpt lat="37.93816066347062587738037109375" lon="-107.1370422653853893280029296875">
        <ele>3658.39990234375</ele>
        <time>2026-01-06T16:16:27.000Z</time>
        <extensions>
          <ns3:TrackPointExtension>
            <ns3:hr>110</ns3:hr>
            <ns3:cad>0</ns3:cad>
          </ns3:TrackPointExtension>
        </extensions>
      </trkpt>
      <trkpt lat="37.93816066347062587738037109375" lon="-107.1370422653853893280029296875">
        <ele>3658.39990234375</ele>
        <time>2026-01-06T16:16:28.000Z</time>
        <extensions>
          <ns3:TrackPointExtension>
            <ns3:hr>107</ns3:hr>
            <ns3:cad>0</ns3:cad>
          </ns3:TrackPointExtension>
        </extensions>
      </trkpt>
      <trkpt lat="37.93816066347062587738037109375" lon="-107.1370422653853893280029296875">
        <ele>3658.199951171875</ele>
        <time>2026-01-06T16:16:32.000Z</time>
        <extensions>
          <ns3:TrackPointExtension>
            <ns3:hr>105</ns3:hr>
            <ns3:cad>0</ns3:cad>
          </ns3:TrackPointExtension>
        </extensions>
      </trkpt>
      <trkpt lat="37.93816066347062587738037109375" lon="-107.1370422653853893280029296875">
        <ele>3658.199951171875</ele>
        <time>2026-01-06T16:16:36.000Z</time>
        <extensions>
          <ns3:TrackPointExtension>
            <ns3:hr>102</ns3:hr>
            <ns3:cad>0</ns3:cad>
          </ns3:TrackPointExtension>
        </extensions>
      </trkpt>
      <trkpt lat="37.93816066347062587738037109375" lon="-107.1370422653853893280029296875">
        <ele>3658</ele>
        <time>2026-01-06T16:16:42.000Z</time>
        <extensions>
          <ns3:TrackPointExtension>
            <ns3:hr>101</ns3:hr>
            <ns3:cad>0</ns3:cad>
          </ns3:TrackPointExtension>
        </extensions>
      </trkpt>
      <trkpt lat="37.93816066347062587738037109375" lon="-107.1370422653853893280029296875">
        <ele>3658.199951171875</ele>
        <time>2026-01-06T16:16:47.000Z</time>
        <extensions>
          <ns3:TrackPointExtension>
            <ns3:hr>97</ns3:hr>
            <ns3:cad>0</ns3:cad>
          </ns3:TrackPointExtension>
        </extensions>
      </trkpt>
      <trkpt lat="37.93816066347062587738037109375" lon="-107.1370422653853893280029296875">
        <ele>3658</ele>
        <time>2026-01-06T16:16:48.000Z</time>
        <extensions>
          <ns3:TrackPointExtension>
            <ns3:hr>94</ns3:hr>
            <ns3:cad>0</ns3:cad>
          </ns3:TrackPointExtension>
        </extensions>
      </trkpt>
      <trkpt lat="37.93816066347062587738037109375" lon="-107.1370422653853893280029296875">
        <ele>3658</ele>
        <time>2026-01-06T16:16:49.000Z</time>
        <extensions>
          <ns3:TrackPointExtension>
            <ns3:hr>94</ns3:hr>
            <ns3:cad>0</ns3:cad>
          </ns3:TrackPointExtension>
        </extensions>
      </trkpt>
      <trkpt lat="37.93816066347062587738037109375" lon="-107.1370422653853893280029296875">
        <ele>3657.60009765625</ele>
        <time>2026-01-06T16:16:51.000Z</time>
        <extensions>
          <ns3:TrackPointExtension>
            <ns3:hr>94</ns3:hr>
            <ns3:cad>0</ns3:cad>
          </ns3:TrackPointExtension>
        </extensions>
      </trkpt>
      <trkpt lat="37.938164435327053070068359375" lon="-107.13703413493931293487548828125">
        <ele>3657.800048828125</ele>
        <time>2026-01-06T16:16:57.000Z</time>
        <extensions>
          <ns3:TrackPointExtension>
            <ns3:hr>96</ns3:hr>
            <ns3:cad>0</ns3:cad>
          </ns3:TrackPointExtension>
        </extensions>
      </trkpt>
      <trkpt lat="37.93816703371703624725341796875" lon="-107.13701200671494007110595703125">
        <ele>3657.60009765625</ele>
        <time>2026-01-06T16:16:59.000Z</time>
        <extensions>
          <ns3:TrackPointExtension>
            <ns3:hr>97</ns3:hr>
            <ns3:cad>0</ns3:cad>
          </ns3:TrackPointExtension>
        </extensions>
      </trkpt>
      <trkpt lat="37.938155047595500946044921875" lon="-107.13700094260275363922119140625">
        <ele>3658</ele>
        <time>2026-01-06T16:17:01.000Z</time>
        <extensions>
          <ns3:TrackPointExtension>
            <ns3:hr>98</ns3:hr>
            <ns3:cad>0</ns3:cad>
          </ns3:TrackPointExtension>
        </extensions>
      </trkpt>
      <trkpt lat="37.938144318759441375732421875" lon="-107.13698317296802997589111328125">
        <ele>3658.60009765625</ele>
        <time>2026-01-06T16:17:04.000Z</time>
        <extensions>
          <ns3:TrackPointExtension>
            <ns3:hr>101</ns3:hr>
            <ns3:cad>0</ns3:cad>
          </ns3:TrackPointExtension>
        </extensions>
      </trkpt>
      <trkpt lat="37.93814440257847309112548828125" lon="-107.13696473278105258941650390625">
        <ele>3659.39990234375</ele>
        <time>2026-01-06T16:17:07.000Z</time>
        <extensions>
          <ns3:TrackPointExtension>
            <ns3:hr>102</ns3:hr>
            <ns3:cad>0</ns3:cad>
          </ns3:TrackPointExtension>
        </extensions>
      </trkpt>
      <trkpt lat="37.93813400901854038238525390625" lon="-107.1369500644505023956298828125">
        <ele>3660.39990234375</ele>
        <time>2026-01-06T16:17:11.000Z</time>
        <extensions>
          <ns3:TrackPointExtension>
            <ns3:hr>99</ns3:hr>
            <ns3:cad>0</ns3:cad>
          </ns3:TrackPointExtension>
        </extensions>
      </trkpt>
      <trkpt lat="37.93812663294374942779541015625" lon="-107.13694520294666290283203125">
        <ele>3660.60009765625</ele>
        <time>2026-01-06T16:17:13.000Z</time>
        <extensions>
          <ns3:TrackPointExtension>
            <ns3:hr>98</ns3:hr>
            <ns3:cad>0</ns3:cad>
          </ns3:TrackPointExtension>
        </extensions>
      </trkpt>
      <trkpt lat="37.93812059797346591949462890625" lon="-107.13692282326519489288330078125">
        <ele>3661</ele>
        <time>2026-01-06T16:17:17.000Z</time>
        <extensions>
          <ns3:TrackPointExtension>
            <ns3:hr>96</ns3:hr>
            <ns3:cad>0</ns3:cad>
          </ns3:TrackPointExtension>
        </extensions>
      </trkpt>
      <trkpt lat="37.938102744519710540771484375" lon="-107.13690957985818386077880859375">
        <ele>3661.60009765625</ele>
        <time>2026-01-06T16:17:20.000Z</time>
        <extensions>
          <ns3:TrackPointExtension>
            <ns3:hr>94</ns3:hr>
            <ns3:cad>0</ns3:cad>
          </ns3:TrackPointExtension>
        </extensions>
      </trkpt>
      <trkpt lat="37.93810064904391765594482421875" lon="-107.1369071491062641143798828125">
        <ele>3662</ele>
        <time>2026-01-06T16:17:22.000Z</time>
        <extensions>
          <ns3:TrackPointExtension>
            <ns3:hr>93</ns3:hr>
            <ns3:cad>0</ns3:cad>
          </ns3:TrackPointExtension>
        </extensions>
      </trkpt>
      <trkpt lat="37.9380935244262218475341796875" lon="-107.13689968921244144439697265625">
        <ele>3661.800048828125</ele>
        <time>2026-01-06T16:17:27.000Z</time>
        <extensions>
          <ns3:TrackPointExtension>
            <ns3:hr>95</ns3:hr>
            <ns3:cad>0</ns3:cad>
          </ns3:TrackPointExtension>
        </extensions>
      </trkpt>
      <trkpt lat="37.93808631598949432373046875" lon="-107.136890552937984466552734375">
        <ele>3662.60009765625</ele>
        <time>2026-01-06T16:17:30.000Z</time>
        <extensions>
          <ns3:TrackPointExtension>
            <ns3:hr>97</ns3:hr>
            <ns3:cad>0</ns3:cad>
          </ns3:TrackPointExtension>
        </extensions>
      </trkpt>
      <trkpt lat="37.938075251877307891845703125" lon="-107.1368595398962497711181640625">
        <ele>3663.800048828125</ele>
        <time>2026-01-06T16:17:35.000Z</time>
        <extensions>
          <ns3:TrackPointExtension>
            <ns3:hr>98</ns3:hr>
            <ns3:cad>0</ns3:cad>
          </ns3:TrackPointExtension>
        </extensions>
      </trkpt>
      <trkpt lat="37.938061840832233428955078125" lon="-107.136855684220790863037109375">
        <ele>3664.199951171875</ele>
        <time>2026-01-06T16:17:40.000Z</time>
        <extensions>
          <ns3:TrackPointExtension>
            <ns3:hr>99</ns3:hr>
            <ns3:cad>0</ns3:cad>
          </ns3:TrackPointExtension>
        </extensions>
      </trkpt>
      <trkpt lat="37.9380402155220508575439453125" lon="-107.1368198096752166748046875">
        <ele>3665</ele>
        <time>2026-01-06T16:17:46.000Z</time>
        <extensions>
          <ns3:TrackPointExtension>
            <ns3:hr>99</ns3:hr>
            <ns3:cad>0</ns3:cad>
          </ns3:TrackPointExtension>
        </extensions>
      </trkpt>
      <trkpt lat="37.93803459964692592620849609375" lon="-107.136810086667537689208984375">
        <ele>3665.60009765625</ele>
        <time>2026-01-06T16:17:51.000Z</time>
        <extensions>
          <ns3:TrackPointExtension>
            <ns3:hr>100</ns3:hr>
            <ns3:cad>0</ns3:cad>
          </ns3:TrackPointExtension>
        </extensions>
      </trkpt>
      <trkpt lat="37.93802462518215179443359375" lon="-107.13679709471762180328369140625">
        <ele>3666</ele>
        <time>2026-01-06T16:17:55.000Z</time>
        <extensions>
          <ns3:TrackPointExtension>
            <ns3:hr>99</ns3:hr>
            <ns3:cad>0</ns3:cad>
          </ns3:TrackPointExtension>
        </extensions>
      </trkpt>
      <trkpt lat="37.938022278249263763427734375" lon="-107.13679742999374866485595703125">
        <ele>3666.199951171875</ele>
        <time>2026-01-06T16:17:57.000Z</time>
        <extensions>
          <ns3:TrackPointExtension>
            <ns3:hr>99</ns3:hr>
            <ns3:cad>0</ns3:cad>
          </ns3:TrackPointExtension>
        </extensions>
      </trkpt>
      <trkpt lat="37.9380127228796482086181640625" lon="-107.136780582368373870849609375">
        <ele>3666.199951171875</ele>
        <time>2026-01-06T16:18:03.000Z</time>
        <extensions>
          <ns3:TrackPointExtension>
            <ns3:hr>102</ns3:hr>
            <ns3:cad>0</ns3:cad>
          </ns3:TrackPointExtension>
        </extensions>
      </trkpt>
      <trkpt lat="37.93801079504191875457763671875" lon="-107.13677890598773956298828125">
        <ele>3666.199951171875</ele>
        <time>2026-01-06T16:18:04.000Z</time>
        <extensions>
          <ns3:TrackPointExtension>
            <ns3:hr>102</ns3:hr>
            <ns3:cad>0</ns3:cad>
          </ns3:TrackPointExtension>
        </extensions>
      </trkpt>
      <trkpt lat="37.9380100406706333160400390625" lon="-107.1367787383496761322021484375">
        <ele>3667</ele>
        <time>2026-01-06T16:18:10.000Z</time>
        <extensions>
          <ns3:TrackPointExtension>
            <ns3:hr>100</ns3:hr>
            <ns3:cad>0</ns3:cad>
          </ns3:TrackPointExtension>
        </extensions>
      </trkpt>
      <trkpt lat="37.9380100406706333160400390625" lon="-107.1367787383496761322021484375">
        <ele>3667</ele>
        <time>2026-01-06T16:18:11.000Z</time>
        <extensions>
          <ns3:TrackPointExtension>
            <ns3:hr>100</ns3:hr>
            <ns3:cad>0</ns3:cad>
          </ns3:TrackPointExtension>
        </extensions>
      </trkpt>
      <trkpt lat="37.93800023384392261505126953125" lon="-107.13675702922046184539794921875">
        <ele>3667.39990234375</ele>
        <time>2026-01-06T16:18:17.000Z</time>
        <extensions>
          <ns3:TrackPointExtension>
            <ns3:hr>99</ns3:hr>
            <ns3:cad>0</ns3:cad>
          </ns3:TrackPointExtension>
        </extensions>
      </trkpt>
      <trkpt lat="37.93798648752272129058837890625" lon="-107.13672752492129802703857421875">
        <ele>3667.39990234375</ele>
        <time>2026-01-06T16:18:23.000Z</time>
        <extensions>
          <ns3:TrackPointExtension>
            <ns3:hr>98</ns3:hr>
            <ns3:cad>0</ns3:cad>
          </ns3:TrackPointExtension>
        </extensions>
      </trkpt>
      <trkpt lat="37.93798296712338924407958984375" lon="-107.1367170475423336029052734375">
        <ele>3667.800048828125</ele>
        <time>2026-01-06T16:18:25.000Z</time>
        <extensions>
          <ns3:TrackPointExtension>
            <ns3:hr>98</ns3:hr>
            <ns3:cad>0</ns3:cad>
          </ns3:TrackPointExtension>
        </extensions>
      </trkpt>
      <trkpt lat="37.93798045255243778228759765625" lon="-107.13671444915235042572021484375">
        <ele>3668</ele>
        <time>2026-01-06T16:18:26.000Z</time>
        <extensions>
          <ns3:TrackPointExtension>
            <ns3:hr>98</ns3:hr>
            <ns3:cad>0</ns3:cad>
          </ns3:TrackPointExtension>
        </extensions>
      </trkpt>
      <trkpt lat="37.93797559104859828948974609375" lon="-107.1366882137954235076904296875">
        <ele>3668.39990234375</ele>
        <time>2026-01-06T16:18:30.000Z</time>
        <extensions>
          <ns3:TrackPointExtension>
            <ns3:hr>99</ns3:hr>
            <ns3:cad>0</ns3:cad>
          </ns3:TrackPointExtension>
        </extensions>
      </trkpt>
      <trkpt lat="37.93796603567898273468017578125" lon="-107.13667639531195163726806640625">
        <ele>3668.60009765625</ele>
        <time>2026-01-06T16:18:36.000Z</time>
        <extensions>
          <ns3:TrackPointExtension>
            <ns3:hr>98</ns3:hr>
            <ns3:cad>0</ns3:cad>
          </ns3:TrackPointExtension>
        </extensions>
      </trkpt>
      <trkpt lat="37.937963940203189849853515625" lon="-107.13667036034166812896728515625">
        <ele>3668.60009765625</ele>
        <time>2026-01-06T16:18:37.000Z</time>
        <extensions>
          <ns3:TrackPointExtension>
            <ns3:hr>101</ns3:hr>
            <ns3:cad>0</ns3:cad>
          </ns3:TrackPointExtension>
        </extensions>
      </trkpt>
      <trkpt lat="37.9379595816135406494140625" lon="-107.13666482828557491302490234375">
        <ele>3668.800048828125</ele>
        <time>2026-01-06T16:18:38.000Z</time>
        <extensions>
          <ns3:TrackPointExtension>
            <ns3:hr>113</ns3:hr>
            <ns3:cad>52</ns3:cad>
          </ns3:TrackPointExtension>
        </extensions>
      </trkpt>
      <trkpt lat="37.93794658966362476348876953125" lon="-107.13664856739342212677001953125">
        <ele>3668.800048828125</ele>
        <time>2026-01-06T16:18:40.000Z</time>
        <extensions>
          <ns3:TrackPointExtension>
            <ns3:hr>117</ns3:hr>
            <ns3:cad>0</ns3:cad>
          </ns3:TrackPointExtension>
        </extensions>
      </trkpt>
      <trkpt lat="37.9379436559975147247314453125" lon="-107.13664085604250431060791015625">
        <ele>3669</ele>
        <time>2026-01-06T16:18:44.000Z</time>
        <extensions>
          <ns3:TrackPointExtension>
            <ns3:hr>119</ns3:hr>
            <ns3:cad>59</ns3:cad>
          </ns3:TrackPointExtension>
        </extensions>
      </trkpt>
      <trkpt lat="37.9379289038479328155517578125" lon="-107.13662778027355670928955078125">
        <ele>3669.60009765625</ele>
        <time>2026-01-06T16:18:49.000Z</time>
        <extensions>
          <ns3:TrackPointExtension>
            <ns3:hr>118</ns3:hr>
            <ns3:cad>0</ns3:cad>
          </ns3:TrackPointExtension>
        </extensions>
      </trkpt>
      <trkpt lat="37.93792597018182277679443359375" lon="-107.13662593625485897064208984375">
        <ele>3669.39990234375</ele>
        <time>2026-01-06T16:18:50.000Z</time>
        <extensions>
          <ns3:TrackPointExtension>
            <ns3:hr>118</ns3:hr>
            <ns3:cad>0</ns3:cad>
          </ns3:TrackPointExtension>
        </extensions>
      </trkpt>
      <trkpt lat="37.93791490606963634490966796875" lon="-107.13661269284784793853759765625">
        <ele>3670.199951171875</ele>
        <time>2026-01-06T16:18:54.000Z</time>
        <extensions>
          <ns3:TrackPointExtension>
            <ns3:hr>118</ns3:hr>
            <ns3:cad>0</ns3:cad>
          </ns3:TrackPointExtension>
        </extensions>
      </trkpt>
      <trkpt lat="37.93791457079350948333740234375" lon="-107.13660934008657932281494140625">
        <ele>3670.39990234375</ele>
        <time>2026-01-06T16:18:55.000Z</time>
        <extensions>
          <ns3:TrackPointExtension>
            <ns3:hr>119</ns3:hr>
            <ns3:cad>0</ns3:cad>
          </ns3:TrackPointExtension>
        </extensions>
      </trkpt>
      <trkpt lat="37.93791607953608036041259765625" lon="-107.13660632260143756866455078125">
        <ele>3670.60009765625</ele>
        <time>2026-01-06T16:18:58.000Z</time>
        <extensions>
          <ns3:TrackPointExtension>
            <ns3:hr>122</ns3:hr>
            <ns3:cad>0</ns3:cad>
          </ns3:TrackPointExtension>
        </extensions>
      </trkpt>
      <trkpt lat="37.93791607953608036041259765625" lon="-107.13660632260143756866455078125">
        <ele>3670.800048828125</ele>
        <time>2026-01-06T16:19:04.000Z</time>
        <extensions>
          <ns3:TrackPointExtension>
            <ns3:hr>123</ns3:hr>
            <ns3:cad>0</ns3:cad>
          </ns3:TrackPointExtension>
        </extensions>
      </trkpt>
      <trkpt lat="37.93791607953608036041259765625" lon="-107.13660632260143756866455078125">
        <ele>3671</ele>
        <time>2026-01-06T16:19:06.000Z</time>
        <extensions>
          <ns3:TrackPointExtension>
            <ns3:hr>123</ns3:hr>
            <ns3:cad>0</ns3:cad>
          </ns3:TrackPointExtension>
        </extensions>
      </trkpt>
      <trkpt lat="37.93791607953608036041259765625" lon="-107.13660632260143756866455078125">
        <ele>3670.800048828125</ele>
        <time>2026-01-06T16:19:12.000Z</time>
        <extensions>
          <ns3:TrackPointExtension>
            <ns3:hr>123</ns3:hr>
            <ns3:cad>0</ns3:cad>
          </ns3:TrackPointExtension>
        </extensions>
      </trkpt>
      <trkpt lat="37.93791607953608036041259765625" lon="-107.13660632260143756866455078125">
        <ele>3670.800048828125</ele>
        <time>2026-01-06T16:19:16.000Z</time>
        <extensions>
          <ns3:TrackPointExtension>
            <ns3:hr>119</ns3:hr>
            <ns3:cad>0</ns3:cad>
          </ns3:TrackPointExtension>
        </extensions>
      </trkpt>
      <trkpt lat="37.93791607953608036041259765625" lon="-107.13660632260143756866455078125">
        <ele>3670.60009765625</ele>
        <time>2026-01-06T16:19:18.000Z</time>
        <extensions>
          <ns3:TrackPointExtension>
            <ns3:hr>116</ns3:hr>
            <ns3:cad>0</ns3:cad>
          </ns3:TrackPointExtension>
        </extensions>
      </trkpt>
      <trkpt lat="37.93791607953608036041259765625" lon="-107.13660632260143756866455078125">
        <ele>3670.39990234375</ele>
        <time>2026-01-06T16:19:23.000Z</time>
        <extensions>
          <ns3:TrackPointExtension>
            <ns3:hr>113</ns3:hr>
            <ns3:cad>0</ns3:cad>
          </ns3:TrackPointExtension>
        </extensions>
      </trkpt>
      <trkpt lat="37.93791607953608036041259765625" lon="-107.13660632260143756866455078125">
        <ele>3670.60009765625</ele>
        <time>2026-01-06T16:19:25.000Z</time>
        <extensions>
          <ns3:TrackPointExtension>
            <ns3:hr>110</ns3:hr>
            <ns3:cad>0</ns3:cad>
          </ns3:TrackPointExtension>
        </extensions>
      </trkpt>
      <trkpt lat="37.93791607953608036041259765625" lon="-107.13660632260143756866455078125">
        <ele>3670.800048828125</ele>
        <time>2026-01-06T16:19:27.000Z</time>
        <extensions>
          <ns3:TrackPointExtension>
            <ns3:hr>106</ns3:hr>
            <ns3:cad>0</ns3:cad>
          </ns3:TrackPointExtension>
        </extensions>
      </trkpt>
      <trkpt lat="37.93791607953608036041259765625" lon="-107.13660632260143756866455078125">
        <ele>3670</ele>
        <time>2026-01-06T16:19:32.000Z</time>
        <extensions>
          <ns3:TrackPointExtension>
            <ns3:hr>103</ns3:hr>
            <ns3:cad>0</ns3:cad>
          </ns3:TrackPointExtension>
        </extensions>
      </trkpt>
      <trkpt lat="37.93791607953608036041259765625" lon="-107.13660632260143756866455078125">
        <ele>3669.800048828125</ele>
        <time>2026-01-06T16:19:33.000Z</time>
        <extensions>
          <ns3:TrackPointExtension>
            <ns3:hr>103</ns3:hr>
            <ns3:cad>0</ns3:cad>
          </ns3:TrackPointExtension>
        </extensions>
      </trkpt>
      <trkpt lat="37.93791121803224086761474609375" lon="-107.13660799898207187652587890625">
        <ele>3669.800048828125</ele>
        <time>2026-01-06T16:19:35.000Z</time>
        <extensions>
          <ns3:TrackPointExtension>
            <ns3:hr>100</ns3:hr>
            <ns3:cad>0</ns3:cad>
          </ns3:TrackPointExtension>
        </extensions>
      </trkpt>
      <trkpt lat="37.9378947056829929351806640625" lon="-107.13659559376537799835205078125">
        <ele>3670</ele>
        <time>2026-01-06T16:19:39.000Z</time>
        <extensions>
          <ns3:TrackPointExtension>
            <ns3:hr>100</ns3:hr>
            <ns3:cad>0</ns3:cad>
          </ns3:TrackPointExtension>
        </extensions>
      </trkpt>
      <trkpt lat="37.9378799535334110260009765625" lon="-107.1365698613226413726806640625">
        <ele>3671.39990234375</ele>
        <time>2026-01-06T16:19:43.000Z</time>
        <extensions>
          <ns3:TrackPointExtension>
            <ns3:hr>98</ns3:hr>
            <ns3:cad>0</ns3:cad>
          </ns3:TrackPointExtension>
        </extensions>
      </trkpt>
      <trkpt lat="37.93786830268800258636474609375" lon="-107.136568687856197357177734375">
        <ele>3671.60009765625</ele>
        <time>2026-01-06T16:19:45.000Z</time>
        <extensions>
          <ns3:TrackPointExtension>
            <ns3:hr>98</ns3:hr>
            <ns3:cad>0</ns3:cad>
          </ns3:TrackPointExtension>
        </extensions>
      </trkpt>
      <trkpt lat="37.93785137124359607696533203125" lon="-107.13654228486120700836181640625">
        <ele>3671.60009765625</ele>
        <time>2026-01-06T16:19:51.000Z</time>
        <extensions>
          <ns3:TrackPointExtension>
            <ns3:hr>97</ns3:hr>
            <ns3:cad>0</ns3:cad>
          </ns3:TrackPointExtension>
        </extensions>
      </trkpt>
      <trkpt lat="37.93784684501588344573974609375" lon="-107.13653926737606525421142578125">
        <ele>3671.60009765625</ele>
        <time>2026-01-06T16:19:55.000Z</time>
        <extensions>
          <ns3:TrackPointExtension>
            <ns3:hr>94</ns3:hr>
            <ns3:cad>0</ns3:cad>
          </ns3:TrackPointExtension>
        </extensions>
      </trkpt>
      <trkpt lat="37.93784089386463165283203125" lon="-107.1365302987396717071533203125">
        <ele>3672</ele>
        <time>2026-01-06T16:19:58.000Z</time>
        <extensions>
          <ns3:TrackPointExtension>
            <ns3:hr>93</ns3:hr>
            <ns3:cad>0</ns3:cad>
          </ns3:TrackPointExtension>
        </extensions>
      </trkpt>
      <trkpt lat="37.9378330148756504058837890625" lon="-107.1365249343216419219970703125">
        <ele>3672.39990234375</ele>
        <time>2026-01-06T16:20:01.000Z</time>
        <extensions>
          <ns3:TrackPointExtension>
            <ns3:hr>93</ns3:hr>
            <ns3:cad>0</ns3:cad>
          </ns3:TrackPointExtension>
        </extensions>
      </trkpt>
      <trkpt lat="37.9378226213157176971435546875" lon="-107.136516384780406951904296875">
        <ele>3672.39990234375</ele>
        <time>2026-01-06T16:20:07.000Z</time>
        <extensions>
          <ns3:TrackPointExtension>
            <ns3:hr>92</ns3:hr>
            <ns3:cad>0</ns3:cad>
          </ns3:TrackPointExtension>
        </extensions>
      </trkpt>
      <trkpt lat="37.9378226213157176971435546875" lon="-107.136516384780406951904296875">
        <ele>3672.800048828125</ele>
        <time>2026-01-06T16:20:13.000Z</time>
        <extensions>
          <ns3:TrackPointExtension>
            <ns3:hr>93</ns3:hr>
            <ns3:cad>0</ns3:cad>
          </ns3:TrackPointExtension>
        </extensions>
      </trkpt>
      <trkpt lat="37.937821112573146820068359375" lon="-107.1365113556385040283203125">
        <ele>3673.199951171875</ele>
        <time>2026-01-06T16:20:16.000Z</time>
        <extensions>
          <ns3:TrackPointExtension>
            <ns3:hr>93</ns3:hr>
            <ns3:cad>0</ns3:cad>
          </ns3:TrackPointExtension>
        </extensions>
      </trkpt>
      <trkpt lat="37.93780510313808917999267578125" lon="-107.1364950947463512420654296875">
        <ele>3673.39990234375</ele>
        <time>2026-01-06T16:20:18.000Z</time>
        <extensions>
          <ns3:TrackPointExtension>
            <ns3:hr>93</ns3:hr>
            <ns3:cad>0</ns3:cad>
          </ns3:TrackPointExtension>
        </extensions>
      </trkpt>
      <trkpt lat="37.9377679713070392608642578125" lon="-107.13648897595703601837158203125">
        <ele>3674.199951171875</ele>
        <time>2026-01-06T16:20:23.000Z</time>
        <extensions>
          <ns3:TrackPointExtension>
            <ns3:hr>94</ns3:hr>
            <ns3:cad>0</ns3:cad>
          </ns3:TrackPointExtension>
        </extensions>
      </trkpt>
      <trkpt lat="37.9377476871013641357421875" lon="-107.13647875003516674041748046875">
        <ele>3674.60009765625</ele>
        <time>2026-01-06T16:20:26.000Z</time>
        <extensions>
          <ns3:TrackPointExtension>
            <ns3:hr>95</ns3:hr>
            <ns3:cad>0</ns3:cad>
          </ns3:TrackPointExtension>
        </extensions>
      </trkpt>
      <trkpt lat="37.937729246914386749267578125" lon="-107.1364709548652172088623046875">
        <ele>3674.800048828125</ele>
        <time>2026-01-06T16:20:30.000Z</time>
        <extensions>
          <ns3:TrackPointExtension>
            <ns3:hr>96</ns3:hr>
            <ns3:cad>0</ns3:cad>
          </ns3:TrackPointExtension>
        </extensions>
      </trkpt>
      <trkpt lat="37.937708795070648193359375" lon="-107.13647053577005863189697265625">
        <ele>3675.60009765625</ele>
        <time>2026-01-06T16:20:35.000Z</time>
        <extensions>
          <ns3:TrackPointExtension>
            <ns3:hr>97</ns3:hr>
            <ns3:cad>0</ns3:cad>
          </ns3:TrackPointExtension>
        </extensions>
      </trkpt>
      <trkpt lat="37.93769161216914653778076171875" lon="-107.13645712472498416900634765625">
        <ele>3675.800048828125</ele>
        <time>2026-01-06T16:20:39.000Z</time>
        <extensions>
          <ns3:TrackPointExtension>
            <ns3:hr>100</ns3:hr>
            <ns3:cad>0</ns3:cad>
          </ns3:TrackPointExtension>
        </extensions>
      </trkpt>
      <trkpt lat="37.9376891814172267913818359375" lon="-107.1364575438201427459716796875">
        <ele>3675.800048828125</ele>
        <time>2026-01-06T16:20:40.000Z</time>
        <extensions>
          <ns3:TrackPointExtension>
            <ns3:hr>100</ns3:hr>
            <ns3:cad>0</ns3:cad>
          </ns3:TrackPointExtension>
        </extensions>
      </trkpt>
      <trkpt lat="37.9376667179167270660400390625" lon="-107.13642753660678863525390625">
        <ele>3676.39990234375</ele>
        <time>2026-01-06T16:20:46.000Z</time>
        <extensions>
          <ns3:TrackPointExtension>
            <ns3:hr>101</ns3:hr>
            <ns3:cad>0</ns3:cad>
          </ns3:TrackPointExtension>
        </extensions>
      </trkpt>
      <trkpt lat="37.93766319751739501953125" lon="-107.1364169754087924957275390625">
        <ele>3676.800048828125</ele>
        <time>2026-01-06T16:20:48.000Z</time>
        <extensions>
          <ns3:TrackPointExtension>
            <ns3:hr>101</ns3:hr>
            <ns3:cad>0</ns3:cad>
          </ns3:TrackPointExtension>
        </extensions>
      </trkpt>
      <trkpt lat="37.93764668516814708709716796875" lon="-107.13642644695937633514404296875">
        <ele>3677.39990234375</ele>
        <time>2026-01-06T16:20:52.000Z</time>
        <extensions>
          <ns3:TrackPointExtension>
            <ns3:hr>101</ns3:hr>
            <ns3:cad>0</ns3:cad>
          </ns3:TrackPointExtension>
        </extensions>
      </trkpt>
      <trkpt lat="37.93762053363025188446044921875" lon="-107.1364082582294940948486328125">
        <ele>3677.60009765625</ele>
        <time>2026-01-06T16:20:58.000Z</time>
        <extensions>
          <ns3:TrackPointExtension>
            <ns3:hr>102</ns3:hr>
            <ns3:cad>0</ns3:cad>
          </ns3:TrackPointExtension>
        </extensions>
      </trkpt>
      <trkpt lat="37.9376117326319217681884765625" lon="-107.13640599511563777923583984375">
        <ele>3677.800048828125</ele>
        <time>2026-01-06T16:21:00.000Z</time>
        <extensions>
          <ns3:TrackPointExtension>
            <ns3:hr>101</ns3:hr>
            <ns3:cad>0</ns3:cad>
          </ns3:TrackPointExtension>
        </extensions>
      </trkpt>
      <trkpt lat="37.9375885985791683197021484375" lon="-107.1363874711096286773681640625">
        <ele>3678</ele>
        <time>2026-01-06T16:21:04.000Z</time>
        <extensions>
          <ns3:TrackPointExtension>
            <ns3:hr>102</ns3:hr>
            <ns3:cad>0</ns3:cad>
          </ns3:TrackPointExtension>
        </extensions>
      </trkpt>
      <trkpt lat="37.9375684820115566253662109375" lon="-107.13635553605854511260986328125">
        <ele>3678.800048828125</ele>
        <time>2026-01-06T16:21:09.000Z</time>
        <extensions>
          <ns3:TrackPointExtension>
            <ns3:hr>105</ns3:hr>
            <ns3:cad>0</ns3:cad>
          </ns3:TrackPointExtension>
        </extensions>
      </trkpt>
      <trkpt lat="37.93756471015512943267822265625" lon="-107.13634614832699298858642578125">
        <ele>3678.800048828125</ele>
        <time>2026-01-06T16:21:10.000Z</time>
        <extensions>
          <ns3:TrackPointExtension>
            <ns3:hr>105</ns3:hr>
            <ns3:cad>0</ns3:cad>
          </ns3:TrackPointExtension>
        </extensions>
      </trkpt>
      <trkpt lat="37.93756403960287570953369140625" lon="-107.1363143809139728546142578125">
        <ele>3679.800048828125</ele>
        <time>2026-01-06T16:21:14.000Z</time>
        <extensions>
          <ns3:TrackPointExtension>
            <ns3:hr>107</ns3:hr>
            <ns3:cad>0</ns3:cad>
          </ns3:TrackPointExtension>
        </extensions>
      </trkpt>
      <trkpt lat="37.937563955783843994140625" lon="-107.13630608282983303070068359375">
        <ele>3680</ele>
        <time>2026-01-06T16:21:15.000Z</time>
        <extensions>
          <ns3:TrackPointExtension>
            <ns3:hr>108</ns3:hr>
            <ns3:cad>0</ns3:cad>
          </ns3:TrackPointExtension>
        </extensions>
      </trkpt>
      <trkpt lat="37.937548868358135223388671875" lon="-107.13629250414669513702392578125">
        <ele>3680.39990234375</ele>
        <time>2026-01-06T16:21:19.000Z</time>
        <extensions>
          <ns3:TrackPointExtension>
            <ns3:hr>109</ns3:hr>
            <ns3:cad>0</ns3:cad>
          </ns3:TrackPointExtension>
        </extensions>
      </trkpt>
      <trkpt lat="37.93752380646765232086181640625" lon="-107.1362726390361785888671875">
        <ele>3680.800048828125</ele>
        <time>2026-01-06T16:21:25.000Z</time>
        <extensions>
          <ns3:TrackPointExtension>
            <ns3:hr>110</ns3:hr>
            <ns3:cad>0</ns3:cad>
          </ns3:TrackPointExtension>
        </extensions>
      </trkpt>
      <trkpt lat="37.93751022778451442718505859375" lon="-107.1362593956291675567626953125">
        <ele>3681</ele>
        <time>2026-01-06T16:21:27.000Z</time>
        <extensions>
          <ns3:TrackPointExtension>
            <ns3:hr>110</ns3:hr>
            <ns3:cad>0</ns3:cad>
          </ns3:TrackPointExtension>
        </extensions>
      </trkpt>
      <trkpt lat="37.93749891221523284912109375" lon="-107.13624942116439342498779296875">
        <ele>3681.39990234375</ele>
        <time>2026-01-06T16:21:30.000Z</time>
        <extensions>
          <ns3:TrackPointExtension>
            <ns3:hr>111</ns3:hr>
            <ns3:cad>0</ns3:cad>
          </ns3:TrackPointExtension>
        </extensions>
      </trkpt>
      <trkpt lat="37.93748189695179462432861328125" lon="-107.1362404525279998779296875">
        <ele>3681.60009765625</ele>
        <time>2026-01-06T16:21:35.000Z</time>
        <extensions>
          <ns3:TrackPointExtension>
            <ns3:hr>111</ns3:hr>
            <ns3:cad>0</ns3:cad>
          </ns3:TrackPointExtension>
        </extensions>
      </trkpt>
      <trkpt lat="37.937481142580509185791015625" lon="-107.13624112308025360107421875">
        <ele>3681.800048828125</ele>
        <time>2026-01-06T16:21:41.000Z</time>
        <extensions>
          <ns3:TrackPointExtension>
            <ns3:hr>110</ns3:hr>
            <ns3:cad>0</ns3:cad>
          </ns3:TrackPointExtension>
        </extensions>
      </trkpt>
      <trkpt lat="37.937481142580509185791015625" lon="-107.13624112308025360107421875">
        <ele>3681.800048828125</ele>
        <time>2026-01-06T16:21:46.000Z</time>
        <extensions>
          <ns3:TrackPointExtension>
            <ns3:hr>114</ns3:hr>
            <ns3:cad>0</ns3:cad>
          </ns3:TrackPointExtension>
        </extensions>
      </trkpt>
      <trkpt lat="37.937481142580509185791015625" lon="-107.13624112308025360107421875">
        <ele>3681.800048828125</ele>
        <time>2026-01-06T16:21:47.000Z</time>
        <extensions>
          <ns3:TrackPointExtension>
            <ns3:hr>119</ns3:hr>
            <ns3:cad>0</ns3:cad>
          </ns3:TrackPointExtension>
        </extensions>
      </trkpt>
      <trkpt lat="37.937481142580509185791015625" lon="-107.13624112308025360107421875">
        <ele>3681.800048828125</ele>
        <time>2026-01-06T16:21:48.000Z</time>
        <extensions>
          <ns3:TrackPointExtension>
            <ns3:hr>124</ns3:hr>
            <ns3:cad>0</ns3:cad>
          </ns3:TrackPointExtension>
        </extensions>
      </trkpt>
      <trkpt lat="37.937481142580509185791015625" lon="-107.13624112308025360107421875">
        <ele>3681.800048828125</ele>
        <time>2026-01-06T16:21:49.000Z</time>
        <extensions>
          <ns3:TrackPointExtension>
            <ns3:hr>124</ns3:hr>
            <ns3:cad>0</ns3:cad>
          </ns3:TrackPointExtension>
        </extensions>
      </trkpt>
      <trkpt lat="37.937481142580509185791015625" lon="-107.13624112308025360107421875">
        <ele>3681.800048828125</ele>
        <time>2026-01-06T16:21:53.000Z</time>
        <extensions>
          <ns3:TrackPointExtension>
            <ns3:hr>121</ns3:hr>
            <ns3:cad>0</ns3:cad>
          </ns3:TrackPointExtension>
        </extensions>
      </trkpt>
      <trkpt lat="37.937481142580509185791015625" lon="-107.13624112308025360107421875">
        <ele>3681.800048828125</ele>
        <time>2026-01-06T16:21:58.000Z</time>
        <extensions>
          <ns3:TrackPointExtension>
            <ns3:hr>118</ns3:hr>
            <ns3:cad>0</ns3:cad>
          </ns3:TrackPointExtension>
        </extensions>
      </trkpt>
      <trkpt lat="37.937481142580509185791015625" lon="-107.13624112308025360107421875">
        <ele>3681.60009765625</ele>
        <time>2026-01-06T16:22:00.000Z</time>
        <extensions>
          <ns3:TrackPointExtension>
            <ns3:hr>117</ns3:hr>
            <ns3:cad>0</ns3:cad>
          </ns3:TrackPointExtension>
        </extensions>
      </trkpt>
      <trkpt lat="37.9374729283154010772705078125" lon="-107.136222012341022491455078125">
        <ele>3681.800048828125</ele>
        <time>2026-01-06T16:22:05.000Z</time>
        <extensions>
          <ns3:TrackPointExtension>
            <ns3:hr>117</ns3:hr>
            <ns3:cad>0</ns3:cad>
          </ns3:TrackPointExtension>
        </extensions>
      </trkpt>
      <trkpt lat="37.9374695755541324615478515625" lon="-107.13621907867491245269775390625">
        <ele>3682</ele>
        <time>2026-01-06T16:22:06.000Z</time>
        <extensions>
          <ns3:TrackPointExtension>
            <ns3:hr>118</ns3:hr>
            <ns3:cad>0</ns3:cad>
          </ns3:TrackPointExtension>
        </extensions>
      </trkpt>
      <trkpt lat="37.937446944415569305419921875" lon="-107.13618890382349491119384765625">
        <ele>3683</ele>
        <time>2026-01-06T16:22:11.000Z</time>
        <extensions>
          <ns3:TrackPointExtension>
            <ns3:hr>117</ns3:hr>
            <ns3:cad>0</ns3:cad>
          </ns3:TrackPointExtension>
        </extensions>
      </trkpt>
      <trkpt lat="37.9374256543815135955810546875" lon="-107.1361574716866016387939453125">
        <ele>3683.39990234375</ele>
        <time>2026-01-06T16:22:17.000Z</time>
        <extensions>
          <ns3:TrackPointExtension>
            <ns3:hr>115</ns3:hr>
            <ns3:cad>0</ns3:cad>
          </ns3:TrackPointExtension>
        </extensions>
      </trkpt>
      <trkpt lat="37.93740595690906047821044921875" lon="-107.13613341562449932098388671875">
        <ele>3683.800048828125</ele>
        <time>2026-01-06T16:22:23.000Z</time>
        <extensions>
          <ns3:TrackPointExtension>
            <ns3:hr>113</ns3:hr>
            <ns3:cad>0</ns3:cad>
          </ns3:TrackPointExtension>
        </extensions>
      </trkpt>
      <trkpt lat="37.9374015145003795623779296875" lon="-107.13612955994904041290283203125">
        <ele>3684</ele>
        <time>2026-01-06T16:22:24.000Z</time>
        <extensions>
          <ns3:TrackPointExtension>
            <ns3:hr>114</ns3:hr>
            <ns3:cad>0</ns3:cad>
          </ns3:TrackPointExtension>
        </extensions>
      </trkpt>
      <trkpt lat="37.93739774264395236968994140625" lon="-107.136115394532680511474609375">
        <ele>3684.199951171875</ele>
        <time>2026-01-06T16:22:26.000Z</time>
        <extensions>
          <ns3:TrackPointExtension>
            <ns3:hr>113</ns3:hr>
            <ns3:cad>0</ns3:cad>
          </ns3:TrackPointExtension>
        </extensions>
      </trkpt>
      <trkpt lat="37.93738382868468761444091796875" lon="-107.136096954345703125">
        <ele>3684.800048828125</ele>
        <time>2026-01-06T16:22:29.000Z</time>
        <extensions>
          <ns3:TrackPointExtension>
            <ns3:hr>110</ns3:hr>
            <ns3:cad>0</ns3:cad>
          </ns3:TrackPointExtension>
        </extensions>
      </trkpt>
      <trkpt lat="37.93737745843827724456787109375" lon="-107.1360910870134830474853515625">
        <ele>3685</ele>
        <time>2026-01-06T16:22:30.000Z</time>
        <extensions>
          <ns3:TrackPointExtension>
            <ns3:hr>109</ns3:hr>
            <ns3:cad>0</ns3:cad>
          </ns3:TrackPointExtension>
        </extensions>
      </trkpt>
      <trkpt lat="37.93737561441957950592041015625" lon="-107.13608530350029468536376953125">
        <ele>3685.199951171875</ele>
        <time>2026-01-06T16:22:31.000Z</time>
        <extensions>
          <ns3:TrackPointExtension>
            <ns3:hr>109</ns3:hr>
            <ns3:cad>0</ns3:cad>
          </ns3:TrackPointExtension>
        </extensions>
      </trkpt>
      <trkpt lat="37.93736287392675876617431640625" lon="-107.13605579920113086700439453125">
        <ele>3686</ele>
        <time>2026-01-06T16:22:37.000Z</time>
        <extensions>
          <ns3:TrackPointExtension>
            <ns3:hr>110</ns3:hr>
            <ns3:cad>0</ns3:cad>
          </ns3:TrackPointExtension>
        </extensions>
      </trkpt>
      <trkpt lat="37.93736387975513935089111328125" lon="-107.1360475011169910430908203125">
        <ele>3686.199951171875</ele>
        <time>2026-01-06T16:22:39.000Z</time>
        <extensions>
          <ns3:TrackPointExtension>
            <ns3:hr>113</ns3:hr>
            <ns3:cad>0</ns3:cad>
          </ns3:TrackPointExtension>
        </extensions>
      </trkpt>
      <trkpt lat="37.93736211955547332763671875" lon="-107.1360384486615657806396484375">
        <ele>3686.199951171875</ele>
        <time>2026-01-06T16:22:40.000Z</time>
        <extensions>
          <ns3:TrackPointExtension>
            <ns3:hr>114</ns3:hr>
            <ns3:cad>0</ns3:cad>
          </ns3:TrackPointExtension>
        </extensions>
      </trkpt>
      <trkpt lat="37.93735901825129985809326171875" lon="-107.13602864183485507965087890625">
        <ele>3686.60009765625</ele>
        <time>2026-01-06T16:22:42.000Z</time>
        <extensions>
          <ns3:TrackPointExtension>
            <ns3:hr>115</ns3:hr>
            <ns3:cad>0</ns3:cad>
          </ns3:TrackPointExtension>
        </extensions>
      </trkpt>
      <trkpt lat="37.9373552463948726654052734375" lon="-107.13600869290530681610107421875">
        <ele>3687.39990234375</ele>
        <time>2026-01-06T16:22:46.000Z</time>
        <extensions>
          <ns3:TrackPointExtension>
            <ns3:hr>118</ns3:hr>
            <ns3:cad>0</ns3:cad>
          </ns3:TrackPointExtension>
        </extensions>
      </trkpt>
      <trkpt lat="37.9373448528349399566650390625" lon="-107.1359931863844394683837890625">
        <ele>3687.39990234375</ele>
        <time>2026-01-06T16:22:48.000Z</time>
        <extensions>
          <ns3:TrackPointExtension>
            <ns3:hr>118</ns3:hr>
            <ns3:cad>0</ns3:cad>
          </ns3:TrackPointExtension>
        </extensions>
      </trkpt>
      <trkpt lat="37.93733940459787845611572265625" lon="-107.13596242479979991912841796875">
        <ele>3688</ele>
        <time>2026-01-06T16:22:54.000Z</time>
        <extensions>
          <ns3:TrackPointExtension>
            <ns3:hr>118</ns3:hr>
            <ns3:cad>0</ns3:cad>
          </ns3:TrackPointExtension>
        </extensions>
      </trkpt>
      <trkpt lat="37.9373428411781787872314453125" lon="-107.13592420332133769989013671875">
        <ele>3688.39990234375</ele>
        <time>2026-01-06T16:22:58.000Z</time>
        <extensions>
          <ns3:TrackPointExtension>
            <ns3:hr>118</ns3:hr>
            <ns3:cad>0</ns3:cad>
          </ns3:TrackPointExtension>
        </extensions>
      </trkpt>
      <trkpt lat="37.9373438470065593719482421875" lon="-107.1359147317707538604736328125">
        <ele>3689</ele>
        <time>2026-01-06T16:23:00.000Z</time>
        <extensions>
          <ns3:TrackPointExtension>
            <ns3:hr>118</ns3:hr>
            <ns3:cad>0</ns3:cad>
          </ns3:TrackPointExtension>
        </extensions>
      </trkpt>
      <trkpt lat="37.937336973845958709716796875" lon="-107.13589536957442760467529296875">
        <ele>3689.60009765625</ele>
        <time>2026-01-06T16:23:04.000Z</time>
        <extensions>
          <ns3:TrackPointExtension>
            <ns3:hr>119</ns3:hr>
            <ns3:cad>0</ns3:cad>
          </ns3:TrackPointExtension>
        </extensions>
      </trkpt>
      <trkpt lat="37.93733538128435611724853515625" lon="-107.13588665239512920379638671875">
        <ele>3689.60009765625</ele>
        <time>2026-01-06T16:23:05.000Z</time>
        <extensions>
          <ns3:TrackPointExtension>
            <ns3:hr>119</ns3:hr>
            <ns3:cad>0</ns3:cad>
          </ns3:TrackPointExtension>
        </extensions>
      </trkpt>
      <trkpt lat="37.9373294301331043243408203125" lon="-107.13586871512234210968017578125">
        <ele>3690.199951171875</ele>
        <time>2026-01-06T16:23:10.000Z</time>
        <extensions>
          <ns3:TrackPointExtension>
            <ns3:hr>118</ns3:hr>
            <ns3:cad>0</ns3:cad>
          </ns3:TrackPointExtension>
        </extensions>
      </trkpt>
      <trkpt lat="37.93732364661991596221923828125" lon="-107.13583753444254398345947265625">
        <ele>3690.39990234375</ele>
        <time>2026-01-06T16:23:16.000Z</time>
        <extensions>
          <ns3:TrackPointExtension>
            <ns3:hr>117</ns3:hr>
            <ns3:cad>0</ns3:cad>
          </ns3:TrackPointExtension>
        </extensions>
      </trkpt>
      <trkpt lat="37.937322892248630523681640625" lon="-107.135833092033863067626953125">
        <ele>3690.60009765625</ele>
        <time>2026-01-06T16:23:17.000Z</time>
        <extensions>
          <ns3:TrackPointExtension>
            <ns3:hr>117</ns3:hr>
            <ns3:cad>0</ns3:cad>
          </ns3:TrackPointExtension>
        </extensions>
      </trkpt>
      <trkpt lat="37.93733387254178524017333984375" lon="-107.135801576077938079833984375">
        <ele>3691.39990234375</ele>
        <time>2026-01-06T16:23:22.000Z</time>
        <extensions>
          <ns3:TrackPointExtension>
            <ns3:hr>113</ns3:hr>
            <ns3:cad>0</ns3:cad>
          </ns3:TrackPointExtension>
        </extensions>
      </trkpt>
      <trkpt lat="37.9373358003795146942138671875" lon="-107.1357883326709270477294921875">
        <ele>3691.39990234375</ele>
        <time>2026-01-06T16:23:24.000Z</time>
        <extensions>
          <ns3:TrackPointExtension>
            <ns3:hr>112</ns3:hr>
            <ns3:cad>0</ns3:cad>
          </ns3:TrackPointExtension>
        </extensions>
      </trkpt>
      <trkpt lat="37.937346361577510833740234375" lon="-107.1357655338943004608154296875">
        <ele>3691.60009765625</ele>
        <time>2026-01-06T16:23:28.000Z</time>
        <extensions>
          <ns3:TrackPointExtension>
            <ns3:hr>115</ns3:hr>
            <ns3:cad>0</ns3:cad>
          </ns3:TrackPointExtension>
        </extensions>
      </trkpt>
      <trkpt lat="37.93734795413911342620849609375" lon="-107.13574768044054508209228515625">
        <ele>3692</ele>
        <time>2026-01-06T16:23:31.000Z</time>
        <extensions>
          <ns3:TrackPointExtension>
            <ns3:hr>116</ns3:hr>
            <ns3:cad>0</ns3:cad>
          </ns3:TrackPointExtension>
        </extensions>
      </trkpt>
      <trkpt lat="37.93734376318752765655517578125" lon="-107.13574248366057872772216796875">
        <ele>3692.60009765625</ele>
        <time>2026-01-06T16:23:35.000Z</time>
        <extensions>
          <ns3:TrackPointExtension>
            <ns3:hr>118</ns3:hr>
            <ns3:cad>0</ns3:cad>
          </ns3:TrackPointExtension>
        </extensions>
      </trkpt>
      <trkpt lat="37.93733638711273670196533203125" lon="-107.13571432046592235565185546875">
        <ele>3693.199951171875</ele>
        <time>2026-01-06T16:23:39.000Z</time>
        <extensions>
          <ns3:TrackPointExtension>
            <ns3:hr>118</ns3:hr>
            <ns3:cad>0</ns3:cad>
          </ns3:TrackPointExtension>
        </extensions>
      </trkpt>
      <trkpt lat="37.93733705766499042510986328125" lon="-107.13569127023220062255859375">
        <ele>3693.800048828125</ele>
        <time>2026-01-06T16:23:44.000Z</time>
        <extensions>
          <ns3:TrackPointExtension>
            <ns3:hr>118</ns3:hr>
            <ns3:cad>0</ns3:cad>
          </ns3:TrackPointExtension>
        </extensions>
      </trkpt>
      <trkpt lat="37.937336303293704986572265625" lon="-107.13568028993904590606689453125">
        <ele>3693.800048828125</ele>
        <time>2026-01-06T16:23:45.000Z</time>
        <extensions>
          <ns3:TrackPointExtension>
            <ns3:hr>118</ns3:hr>
            <ns3:cad>0</ns3:cad>
          </ns3:TrackPointExtension>
        </extensions>
      </trkpt>
      <trkpt lat="37.93733529746532440185546875" lon="-107.135664112865924835205078125">
        <ele>3694.60009765625</ele>
        <time>2026-01-06T16:23:49.000Z</time>
        <extensions>
          <ns3:TrackPointExtension>
            <ns3:hr>121</ns3:hr>
            <ns3:cad>0</ns3:cad>
          </ns3:TrackPointExtension>
        </extensions>
      </trkpt>
      <trkpt lat="37.93733068741858005523681640625" lon="-107.1356626041233539581298828125">
        <ele>3694.60009765625</ele>
        <time>2026-01-06T16:23:50.000Z</time>
        <extensions>
          <ns3:TrackPointExtension>
            <ns3:hr>122</ns3:hr>
            <ns3:cad>0</ns3:cad>
          </ns3:TrackPointExtension>
        </extensions>
      </trkpt>
      <trkpt lat="37.93732381425797939300537109375" lon="-107.1356595866382122039794921875">
        <ele>3694.60009765625</ele>
        <time>2026-01-06T16:23:52.000Z</time>
        <extensions>
          <ns3:TrackPointExtension>
            <ns3:hr>125</ns3:hr>
            <ns3:cad>0</ns3:cad>
          </ns3:TrackPointExtension>
        </extensions>
      </trkpt>
      <trkpt lat="37.9373190365731716156005859375" lon="-107.13563720695674419403076171875">
        <ele>3694.60009765625</ele>
        <time>2026-01-06T16:23:56.000Z</time>
        <extensions>
          <ns3:TrackPointExtension>
            <ns3:hr>127</ns3:hr>
            <ns3:cad>0</ns3:cad>
          </ns3:TrackPointExtension>
        </extensions>
      </trkpt>
      <trkpt lat="37.93732079677283763885498046875" lon="-107.13562949560582637786865234375">
        <ele>3695</ele>
        <time>2026-01-06T16:23:58.000Z</time>
        <extensions>
          <ns3:TrackPointExtension>
            <ns3:hr>127</ns3:hr>
            <ns3:cad>0</ns3:cad>
          </ns3:TrackPointExtension>
        </extensions>
      </trkpt>
      <trkpt lat="37.937318868935108184814453125" lon="-107.1356109715998172760009765625">
        <ele>3695.199951171875</ele>
        <time>2026-01-06T16:24:01.000Z</time>
        <extensions>
          <ns3:TrackPointExtension>
            <ns3:hr>127</ns3:hr>
            <ns3:cad>0</ns3:cad>
          </ns3:TrackPointExtension>
        </extensions>
      </trkpt>
      <trkpt lat="37.9373200424015522003173828125" lon="-107.1355707384645938873291015625">
        <ele>3695.800048828125</ele>
        <time>2026-01-06T16:24:07.000Z</time>
        <extensions>
          <ns3:TrackPointExtension>
            <ns3:hr>127</ns3:hr>
            <ns3:cad>0</ns3:cad>
          </ns3:TrackPointExtension>
        </extensions>
      </trkpt>
      <trkpt lat="37.9373197071254253387451171875" lon="-107.13556914590299129486083984375">
        <ele>3696</ele>
        <time>2026-01-06T16:24:08.000Z</time>
        <extensions>
          <ns3:TrackPointExtension>
            <ns3:hr>127</ns3:hr>
            <ns3:cad>0</ns3:cad>
          </ns3:TrackPointExtension>
        </extensions>
      </trkpt>
      <trkpt lat="37.93731308542191982269287109375" lon="-107.13555715978145599365234375">
        <ele>3696.800048828125</ele>
        <time>2026-01-06T16:24:12.000Z</time>
        <extensions>
          <ns3:TrackPointExtension>
            <ns3:hr>124</ns3:hr>
            <ns3:cad>0</ns3:cad>
          </ns3:TrackPointExtension>
        </extensions>
      </trkpt>
      <trkpt lat="37.93731107376515865325927734375" lon="-107.135554812848567962646484375">
        <ele>3696.800048828125</ele>
        <time>2026-01-06T16:24:13.000Z</time>
        <extensions>
          <ns3:TrackPointExtension>
            <ns3:hr>124</ns3:hr>
            <ns3:cad>0</ns3:cad>
          </ns3:TrackPointExtension>
        </extensions>
      </trkpt>
      <trkpt lat="37.93730470351874828338623046875" lon="-107.13553360663354396820068359375">
        <ele>3697.199951171875</ele>
        <time>2026-01-06T16:24:16.000Z</time>
        <extensions>
          <ns3:TrackPointExtension>
            <ns3:hr>124</ns3:hr>
            <ns3:cad>0</ns3:cad>
          </ns3:TrackPointExtension>
        </extensions>
      </trkpt>
      <trkpt lat="37.93729783035814762115478515625" lon="-107.13550544343888759613037109375">
        <ele>3697.800048828125</ele>
        <time>2026-01-06T16:24:20.000Z</time>
        <extensions>
          <ns3:TrackPointExtension>
            <ns3:hr>124</ns3:hr>
            <ns3:cad>0</ns3:cad>
          </ns3:TrackPointExtension>
        </extensions>
      </trkpt>
      <trkpt lat="37.93730185367166996002197265625" lon="-107.1354652941226959228515625">
        <ele>3698.199951171875</ele>
        <time>2026-01-06T16:24:26.000Z</time>
        <extensions>
          <ns3:TrackPointExtension>
            <ns3:hr>124</ns3:hr>
            <ns3:cad>0</ns3:cad>
          </ns3:TrackPointExtension>
        </extensions>
      </trkpt>
      <trkpt lat="37.93730956502258777618408203125" lon="-107.13541894219815731048583984375">
        <ele>3699</ele>
        <time>2026-01-06T16:24:31.000Z</time>
        <extensions>
          <ns3:TrackPointExtension>
            <ns3:hr>127</ns3:hr>
            <ns3:cad>0</ns3:cad>
          </ns3:TrackPointExtension>
        </extensions>
      </trkpt>
      <trkpt lat="37.93730470351874828338623046875" lon="-107.135413326323032379150390625">
        <ele>3699.199951171875</ele>
        <time>2026-01-06T16:24:33.000Z</time>
        <extensions>
          <ns3:TrackPointExtension>
            <ns3:hr>126</ns3:hr>
            <ns3:cad>0</ns3:cad>
          </ns3:TrackPointExtension>
        </extensions>
      </trkpt>
      <trkpt lat="37.93730017729103565216064453125" lon="-107.13540469296276569366455078125">
        <ele>3699.39990234375</ele>
        <time>2026-01-06T16:24:35.000Z</time>
        <extensions>
          <ns3:TrackPointExtension>
            <ns3:hr>126</ns3:hr>
            <ns3:cad>66</ns3:cad>
          </ns3:TrackPointExtension>
        </extensions>
      </trkpt>
      <trkpt lat="37.93730688281357288360595703125" lon="-107.1353714168071746826171875">
        <ele>3700</ele>
        <time>2026-01-06T16:24:41.000Z</time>
        <extensions>
          <ns3:TrackPointExtension>
            <ns3:hr>128</ns3:hr>
            <ns3:cad>0</ns3:cad>
          </ns3:TrackPointExtension>
        </extensions>
      </trkpt>
      <trkpt lat="37.93730218894779682159423828125" lon="-107.13536404073238372802734375">
        <ele>3700</ele>
        <time>2026-01-06T16:24:47.000Z</time>
        <extensions>
          <ns3:TrackPointExtension>
            <ns3:hr>129</ns3:hr>
            <ns3:cad>0</ns3:cad>
          </ns3:TrackPointExtension>
        </extensions>
      </trkpt>
      <trkpt lat="37.93730151839554309844970703125" lon="-107.13536404073238372802734375">
        <ele>3699.800048828125</ele>
        <time>2026-01-06T16:24:53.000Z</time>
        <extensions>
          <ns3:TrackPointExtension>
            <ns3:hr>128</ns3:hr>
            <ns3:cad>0</ns3:cad>
          </ns3:TrackPointExtension>
        </extensions>
      </trkpt>
      <trkpt lat="37.93730151839554309844970703125" lon="-107.13536404073238372802734375">
        <ele>3699.800048828125</ele>
        <time>2026-01-06T16:24:55.000Z</time>
        <extensions>
          <ns3:TrackPointExtension>
            <ns3:hr>128</ns3:hr>
            <ns3:cad>0</ns3:cad>
          </ns3:TrackPointExtension>
        </extensions>
      </trkpt>
      <trkpt lat="37.93730151839554309844970703125" lon="-107.13536404073238372802734375">
        <ele>3700</ele>
        <time>2026-01-06T16:25:00.000Z</time>
        <extensions>
          <ns3:TrackPointExtension>
            <ns3:hr>125</ns3:hr>
            <ns3:cad>0</ns3:cad>
          </ns3:TrackPointExtension>
        </extensions>
      </trkpt>
      <trkpt lat="37.93730151839554309844970703125" lon="-107.13536404073238372802734375">
        <ele>3699.800048828125</ele>
        <time>2026-01-06T16:25:06.000Z</time>
        <extensions>
          <ns3:TrackPointExtension>
            <ns3:hr>122</ns3:hr>
            <ns3:cad>0</ns3:cad>
          </ns3:TrackPointExtension>
        </extensions>
      </trkpt>
      <trkpt lat="37.93730151839554309844970703125" lon="-107.13536404073238372802734375">
        <ele>3699.60009765625</ele>
        <time>2026-01-06T16:25:12.000Z</time>
        <extensions>
          <ns3:TrackPointExtension>
            <ns3:hr>120</ns3:hr>
            <ns3:cad>0</ns3:cad>
          </ns3:TrackPointExtension>
        </extensions>
      </trkpt>
      <trkpt lat="37.93730151839554309844970703125" lon="-107.13536404073238372802734375">
        <ele>3699.60009765625</ele>
        <time>2026-01-06T16:25:14.000Z</time>
        <extensions>
          <ns3:TrackPointExtension>
            <ns3:hr>117</ns3:hr>
            <ns3:cad>0</ns3:cad>
          </ns3:TrackPointExtension>
        </extensions>
      </trkpt>
      <trkpt lat="37.93730151839554309844970703125" lon="-107.13536404073238372802734375">
        <ele>3699.60009765625</ele>
        <time>2026-01-06T16:25:16.000Z</time>
        <extensions>
          <ns3:TrackPointExtension>
            <ns3:hr>114</ns3:hr>
            <ns3:cad>0</ns3:cad>
          </ns3:TrackPointExtension>
        </extensions>
      </trkpt>
      <trkpt lat="37.93730151839554309844970703125" lon="-107.13536404073238372802734375">
        <ele>3699.60009765625</ele>
        <time>2026-01-06T16:25:19.000Z</time>
        <extensions>
          <ns3:TrackPointExtension>
            <ns3:hr>110</ns3:hr>
            <ns3:cad>0</ns3:cad>
          </ns3:TrackPointExtension>
        </extensions>
      </trkpt>
      <trkpt lat="37.93730151839554309844970703125" lon="-107.13536404073238372802734375">
        <ele>3699.60009765625</ele>
        <time>2026-01-06T16:25:22.000Z</time>
        <extensions>
          <ns3:TrackPointExtension>
            <ns3:hr>107</ns3:hr>
            <ns3:cad>0</ns3:cad>
          </ns3:TrackPointExtension>
        </extensions>
      </trkpt>
      <trkpt lat="37.93730151839554309844970703125" lon="-107.13536404073238372802734375">
        <ele>3699.800048828125</ele>
        <time>2026-01-06T16:25:27.000Z</time>
        <extensions>
          <ns3:TrackPointExtension>
            <ns3:hr>104</ns3:hr>
            <ns3:cad>0</ns3:cad>
          </ns3:TrackPointExtension>
        </extensions>
      </trkpt>
      <trkpt lat="37.93730151839554309844970703125" lon="-107.13536404073238372802734375">
        <ele>3699.800048828125</ele>
        <time>2026-01-06T16:25:29.000Z</time>
        <extensions>
          <ns3:TrackPointExtension>
            <ns3:hr>100</ns3:hr>
            <ns3:cad>0</ns3:cad>
          </ns3:TrackPointExtension>
        </extensions>
      </trkpt>
      <trkpt lat="37.93730151839554309844970703125" lon="-107.13536404073238372802734375">
        <ele>3699.800048828125</ele>
        <time>2026-01-06T16:25:32.000Z</time>
        <extensions>
          <ns3:TrackPointExtension>
            <ns3:hr>97</ns3:hr>
            <ns3:cad>0</ns3:cad>
          </ns3:TrackPointExtension>
        </extensions>
      </trkpt>
      <trkpt lat="37.93730151839554309844970703125" lon="-107.13536404073238372802734375">
        <ele>3699.60009765625</ele>
        <time>2026-01-06T16:25:35.000Z</time>
        <extensions>
          <ns3:TrackPointExtension>
            <ns3:hr>94</ns3:hr>
            <ns3:cad>0</ns3:cad>
          </ns3:TrackPointExtension>
        </extensions>
      </trkpt>
      <trkpt lat="37.93730151839554309844970703125" lon="-107.13536404073238372802734375">
        <ele>3699.60009765625</ele>
        <time>2026-01-06T16:25:41.000Z</time>
        <extensions>
          <ns3:TrackPointExtension>
            <ns3:hr>93</ns3:hr>
            <ns3:cad>0</ns3:cad>
          </ns3:TrackPointExtension>
        </extensions>
      </trkpt>
      <trkpt lat="37.93730151839554309844970703125" lon="-107.13536404073238372802734375">
        <ele>3699.800048828125</ele>
        <time>2026-01-06T16:25:44.000Z</time>
        <extensions>
          <ns3:TrackPointExtension>
            <ns3:hr>92</ns3:hr>
            <ns3:cad>0</ns3:cad>
          </ns3:TrackPointExtension>
        </extensions>
      </trkpt>
      <trkpt lat="37.9372969083487987518310546875" lon="-107.1353588439524173736572265625">
        <ele>3700.39990234375</ele>
        <time>2026-01-06T16:25:47.000Z</time>
        <extensions>
          <ns3:TrackPointExtension>
            <ns3:hr>92</ns3:hr>
            <ns3:cad>0</ns3:cad>
          </ns3:TrackPointExtension>
        </extensions>
      </trkpt>
      <trkpt lat="37.93728726916015148162841796875" lon="-107.13533185422420501708984375">
        <ele>3701</ele>
        <time>2026-01-06T16:25:50.000Z</time>
        <extensions>
          <ns3:TrackPointExtension>
            <ns3:hr>92</ns3:hr>
            <ns3:cad>0</ns3:cad>
          </ns3:TrackPointExtension>
        </extensions>
      </trkpt>
      <trkpt lat="37.9372969083487987518310546875" lon="-107.13528449647128582000732421875">
        <ele>3701.60009765625</ele>
        <time>2026-01-06T16:25:56.000Z</time>
        <extensions>
          <ns3:TrackPointExtension>
            <ns3:hr>94</ns3:hr>
            <ns3:cad>0</ns3:cad>
          </ns3:TrackPointExtension>
        </extensions>
      </trkpt>
      <trkpt lat="37.9372917115688323974609375" lon="-107.13525230996310710906982421875">
        <ele>3702.199951171875</ele>
        <time>2026-01-06T16:26:02.000Z</time>
        <extensions>
          <ns3:TrackPointExtension>
            <ns3:hr>96</ns3:hr>
            <ns3:cad>0</ns3:cad>
          </ns3:TrackPointExtension>
        </extensions>
      </trkpt>
      <trkpt lat="37.93728978373110294342041015625" lon="-107.13525029830634593963623046875">
        <ele>3702.39990234375</ele>
        <time>2026-01-06T16:26:03.000Z</time>
        <extensions>
          <ns3:TrackPointExtension>
            <ns3:hr>96</ns3:hr>
            <ns3:cad>0</ns3:cad>
          </ns3:TrackPointExtension>
        </extensions>
      </trkpt>
      <trkpt lat="37.9372905381023883819580078125" lon="-107.13523621670901775360107421875">
        <ele>3702.60009765625</ele>
        <time>2026-01-06T16:26:05.000Z</time>
        <extensions>
          <ns3:TrackPointExtension>
            <ns3:hr>96</ns3:hr>
            <ns3:cad>0</ns3:cad>
          </ns3:TrackPointExtension>
        </extensions>
      </trkpt>
      <trkpt lat="37.937289364635944366455078125" lon="-107.135213501751422882080078125">
        <ele>3703.39990234375</ele>
        <time>2026-01-06T16:26:10.000Z</time>
        <extensions>
          <ns3:TrackPointExtension>
            <ns3:hr>98</ns3:hr>
            <ns3:cad>0</ns3:cad>
          </ns3:TrackPointExtension>
        </extensions>
      </trkpt>
      <trkpt lat="37.93728659860789775848388671875" lon="-107.13520972989499568939208984375">
        <ele>3703.60009765625</ele>
        <time>2026-01-06T16:26:11.000Z</time>
        <extensions>
          <ns3:TrackPointExtension>
            <ns3:hr>98</ns3:hr>
            <ns3:cad>0</ns3:cad>
          </ns3:TrackPointExtension>
        </extensions>
      </trkpt>
      <trkpt lat="37.9372767917811870574951171875" lon="-107.13517821393907070159912109375">
        <ele>3704.60009765625</ele>
        <time>2026-01-06T16:26:17.000Z</time>
        <extensions>
          <ns3:TrackPointExtension>
            <ns3:hr>98</ns3:hr>
            <ns3:cad>0</ns3:cad>
          </ns3:TrackPointExtension>
        </extensions>
      </trkpt>
      <trkpt lat="37.93727871961891651153564453125" lon="-107.135165221989154815673828125">
        <ele>3704.60009765625</ele>
        <time>2026-01-06T16:26:19.000Z</time>
        <extensions>
          <ns3:TrackPointExtension>
            <ns3:hr>100</ns3:hr>
            <ns3:cad>0</ns3:cad>
          </ns3:TrackPointExtension>
        </extensions>
      </trkpt>
      <trkpt lat="37.93728299438953399658203125" lon="-107.1351415850222110748291015625">
        <ele>3705</ele>
        <time>2026-01-06T16:26:22.000Z</time>
        <extensions>
          <ns3:TrackPointExtension>
            <ns3:hr>100</ns3:hr>
            <ns3:cad>0</ns3:cad>
          </ns3:TrackPointExtension>
        </extensions>
      </trkpt>
      <trkpt lat="37.937297411262989044189453125" lon="-107.1351003460586071014404296875">
        <ele>3705.39990234375</ele>
        <time>2026-01-06T16:26:28.000Z</time>
        <extensions>
          <ns3:TrackPointExtension>
            <ns3:hr>100</ns3:hr>
            <ns3:cad>0</ns3:cad>
          </ns3:TrackPointExtension>
        </extensions>
      </trkpt>
      <trkpt lat="37.93730436824262142181396484375" lon="-107.13507897220551967620849609375">
        <ele>3705.800048828125</ele>
        <time>2026-01-06T16:26:31.000Z</time>
        <extensions>
          <ns3:TrackPointExtension>
            <ns3:hr>99</ns3:hr>
            <ns3:cad>0</ns3:cad>
          </ns3:TrackPointExtension>
        </extensions>
      </trkpt>
      <trkpt lat="37.937310151755809783935546875" lon="-107.135051228106021881103515625">
        <ele>3705.800048828125</ele>
        <time>2026-01-06T16:26:34.000Z</time>
        <extensions>
          <ns3:TrackPointExtension>
            <ns3:hr>97</ns3:hr>
            <ns3:cad>0</ns3:cad>
          </ns3:TrackPointExtension>
        </extensions>
      </trkpt>
      <trkpt lat="37.93731115758419036865234375" lon="-107.135031782090663909912109375">
        <ele>3706.39990234375</ele>
        <time>2026-01-06T16:26:39.000Z</time>
        <extensions>
          <ns3:TrackPointExtension>
            <ns3:hr>95</ns3:hr>
            <ns3:cad>0</ns3:cad>
          </ns3:TrackPointExtension>
        </extensions>
      </trkpt>
      <trkpt lat="37.93730436824262142181396484375" lon="-107.13501443155109882354736328125">
        <ele>3706.39990234375</ele>
        <time>2026-01-06T16:26:45.000Z</time>
        <extensions>
          <ns3:TrackPointExtension>
            <ns3:hr>94</ns3:hr>
            <ns3:cad>0</ns3:cad>
          </ns3:TrackPointExtension>
        </extensions>
      </trkpt>
      <trkpt lat="37.937301099300384521484375" lon="-107.1350171975791454315185546875">
        <ele>3706.800048828125</ele>
        <time>2026-01-06T16:26:48.000Z</time>
        <extensions>
          <ns3:TrackPointExtension>
            <ns3:hr>93</ns3:hr>
            <ns3:cad>0</ns3:cad>
          </ns3:TrackPointExtension>
        </extensions>
      </trkpt>
      <trkpt lat="37.93729246594011783599853515625" lon="-107.134998254477977752685546875">
        <ele>3707.800048828125</ele>
        <time>2026-01-06T16:26:51.000Z</time>
        <extensions>
          <ns3:TrackPointExtension>
            <ns3:hr>94</ns3:hr>
            <ns3:cad>0</ns3:cad>
          </ns3:TrackPointExtension>
        </extensions>
      </trkpt>
      <trkpt lat="37.93729179538786411285400390625" lon="-107.134988196194171905517578125">
        <ele>3708</ele>
        <time>2026-01-06T16:26:52.000Z</time>
        <extensions>
          <ns3:TrackPointExtension>
            <ns3:hr>93</ns3:hr>
            <ns3:cad>0</ns3:cad>
          </ns3:TrackPointExtension>
        </extensions>
      </trkpt>
      <trkpt lat="37.9372912086546421051025390625" lon="-107.13496564887464046478271484375">
        <ele>3708.39990234375</ele>
        <time>2026-01-06T16:26:57.000Z</time>
        <extensions>
          <ns3:TrackPointExtension>
            <ns3:hr>93</ns3:hr>
            <ns3:cad>74</ns3:cad>
          </ns3:TrackPointExtension>
        </extensions>
      </trkpt>
      <trkpt lat="37.937288694083690643310546875" lon="-107.13493295945227146148681640625">
        <ele>3709</ele>
        <time>2026-01-06T16:27:01.000Z</time>
        <extensions>
          <ns3:TrackPointExtension>
            <ns3:hr>93</ns3:hr>
            <ns3:cad>0</ns3:cad>
          </ns3:TrackPointExtension>
        </extensions>
      </trkpt>
      <trkpt lat="37.937279306352138519287109375" lon="-107.1349315345287322998046875">
        <ele>3709.60009765625</ele>
        <time>2026-01-06T16:27:03.000Z</time>
        <extensions>
          <ns3:TrackPointExtension>
            <ns3:hr>93</ns3:hr>
            <ns3:cad>0</ns3:cad>
          </ns3:TrackPointExtension>
        </extensions>
      </trkpt>
      <trkpt lat="37.93727184645831584930419921875" lon="-107.1348886191844940185546875">
        <ele>3710</ele>
        <time>2026-01-06T16:27:08.000Z</time>
        <extensions>
          <ns3:TrackPointExtension>
            <ns3:hr>94</ns3:hr>
            <ns3:cad>0</ns3:cad>
          </ns3:TrackPointExtension>
        </extensions>
      </trkpt>
      <trkpt lat="37.9372707568109035491943359375" lon="-107.13488518260419368743896484375">
        <ele>3710.199951171875</ele>
        <time>2026-01-06T16:27:09.000Z</time>
        <extensions>
          <ns3:TrackPointExtension>
            <ns3:hr>93</ns3:hr>
            <ns3:cad>0</ns3:cad>
          </ns3:TrackPointExtension>
        </extensions>
      </trkpt>
      <trkpt lat="37.9372757859528064727783203125" lon="-107.13484746403992176055908203125">
        <ele>3710.60009765625</ele>
        <time>2026-01-06T16:27:13.000Z</time>
        <extensions>
          <ns3:TrackPointExtension>
            <ns3:hr>96</ns3:hr>
            <ns3:cad>0</ns3:cad>
          </ns3:TrackPointExtension>
        </extensions>
      </trkpt>
      <trkpt lat="37.9372757859528064727783203125" lon="-107.13484369218349456787109375">
        <ele>3710.60009765625</ele>
        <time>2026-01-06T16:27:14.000Z</time>
        <extensions>
          <ns3:TrackPointExtension>
            <ns3:hr>96</ns3:hr>
            <ns3:cad>0</ns3:cad>
          </ns3:TrackPointExtension>
        </extensions>
      </trkpt>
      <trkpt lat="37.9372865147888660430908203125" lon="-107.13482617400586605072021484375">
        <ele>3711.39990234375</ele>
        <time>2026-01-06T16:27:19.000Z</time>
        <extensions>
          <ns3:TrackPointExtension>
            <ns3:hr>99</ns3:hr>
            <ns3:cad>0</ns3:cad>
          </ns3:TrackPointExtension>
        </extensions>
      </trkpt>
      <trkpt lat="37.937286682426929473876953125" lon="-107.134817540645599365234375">
        <ele>3711.39990234375</ele>
        <time>2026-01-06T16:27:20.000Z</time>
        <extensions>
          <ns3:TrackPointExtension>
            <ns3:hr>99</ns3:hr>
            <ns3:cad>0</ns3:cad>
          </ns3:TrackPointExtension>
        </extensions>
      </trkpt>
      <trkpt lat="37.93728659860789775848388671875" lon="-107.13479717262089252471923828125">
        <ele>3712.199951171875</ele>
        <time>2026-01-06T16:27:25.000Z</time>
        <extensions>
          <ns3:TrackPointExtension>
            <ns3:hr>101</ns3:hr>
            <ns3:cad>0</ns3:cad>
          </ns3:TrackPointExtension>
        </extensions>
      </trkpt>
      <trkpt lat="37.9372918792068958282470703125" lon="-107.13477923534810543060302734375">
        <ele>3712.60009765625</ele>
        <time>2026-01-06T16:27:27.000Z</time>
        <extensions>
          <ns3:TrackPointExtension>
            <ns3:hr>101</ns3:hr>
            <ns3:cad>0</ns3:cad>
          </ns3:TrackPointExtension>
        </extensions>
      </trkpt>
      <trkpt lat="37.93729615397751331329345703125" lon="-107.13476632721722126007080078125">
        <ele>3713</ele>
        <time>2026-01-06T16:27:30.000Z</time>
        <extensions>
          <ns3:TrackPointExtension>
            <ns3:hr>101</ns3:hr>
            <ns3:cad>0</ns3:cad>
          </ns3:TrackPointExtension>
        </extensions>
      </trkpt>
      <trkpt lat="37.937298081815242767333984375" lon="-107.13475341908633708953857421875">
        <ele>3713.199951171875</ele>
        <time>2026-01-06T16:27:34.000Z</time>
        <extensions>
          <ns3:TrackPointExtension>
            <ns3:hr>104</ns3:hr>
            <ns3:cad>0</ns3:cad>
          </ns3:TrackPointExtension>
        </extensions>
      </trkpt>
      <trkpt lat="37.937301099300384521484375" lon="-107.1347389183938503265380859375">
        <ele>3713.800048828125</ele>
        <time>2026-01-06T16:27:36.000Z</time>
        <extensions>
          <ns3:TrackPointExtension>
            <ns3:hr>105</ns3:hr>
            <ns3:cad>0</ns3:cad>
          </ns3:TrackPointExtension>
        </extensions>
      </trkpt>
      <trkpt lat="37.937301099300384521484375" lon="-107.13473414070904254913330078125">
        <ele>3713.800048828125</ele>
        <time>2026-01-06T16:27:37.000Z</time>
        <extensions>
          <ns3:TrackPointExtension>
            <ns3:hr>106</ns3:hr>
            <ns3:cad>0</ns3:cad>
          </ns3:TrackPointExtension>
        </extensions>
      </trkpt>
      <trkpt lat="37.93729833327233791351318359375" lon="-107.134702205657958984375">
        <ele>3714.60009765625</ele>
        <time>2026-01-06T16:27:43.000Z</time>
        <extensions>
          <ns3:TrackPointExtension>
            <ns3:hr>105</ns3:hr>
            <ns3:cad>0</ns3:cad>
          </ns3:TrackPointExtension>
        </extensions>
      </trkpt>
      <trkpt lat="37.937302775681018829345703125" lon="-107.13468854315578937530517578125">
        <ele>3714.800048828125</ele>
        <time>2026-01-06T16:27:44.000Z</time>
        <extensions>
          <ns3:TrackPointExtension>
            <ns3:hr>106</ns3:hr>
            <ns3:cad>0</ns3:cad>
          </ns3:TrackPointExtension>
        </extensions>
      </trkpt>
      <trkpt lat="37.93730956502258777618408203125" lon="-107.13467077352106571197509765625">
        <ele>3715.199951171875</ele>
        <time>2026-01-06T16:27:47.000Z</time>
        <extensions>
          <ns3:TrackPointExtension>
            <ns3:hr>106</ns3:hr>
            <ns3:cad>0</ns3:cad>
          </ns3:TrackPointExtension>
        </extensions>
      </trkpt>
      <trkpt lat="37.937321551144123077392578125" lon="-107.134643532335758209228515625">
        <ele>3715.39990234375</ele>
        <time>2026-01-06T16:27:52.000Z</time>
        <extensions>
          <ns3:TrackPointExtension>
            <ns3:hr>109</ns3:hr>
            <ns3:cad>0</ns3:cad>
          </ns3:TrackPointExtension>
        </extensions>
      </trkpt>
      <trkpt lat="37.9373237304389476776123046875" lon="-107.13463624007999897003173828125">
        <ele>3715.60009765625</ele>
        <time>2026-01-06T16:27:53.000Z</time>
        <extensions>
          <ns3:TrackPointExtension>
            <ns3:hr>113</ns3:hr>
            <ns3:cad>0</ns3:cad>
          </ns3:TrackPointExtension>
        </extensions>
      </trkpt>
      <trkpt lat="37.937320880591869354248046875" lon="-107.13464076630771160125732421875">
        <ele>3715.60009765625</ele>
        <time>2026-01-06T16:27:54.000Z</time>
        <extensions>
          <ns3:TrackPointExtension>
            <ns3:hr>113</ns3:hr>
            <ns3:cad>0</ns3:cad>
          </ns3:TrackPointExtension>
        </extensions>
      </trkpt>
      <trkpt lat="37.9373193718492984771728515625" lon="-107.13463691063225269317626953125">
        <ele>3715.800048828125</ele>
        <time>2026-01-06T16:27:55.000Z</time>
        <extensions>
          <ns3:TrackPointExtension>
            <ns3:hr>114</ns3:hr>
            <ns3:cad>0</ns3:cad>
          </ns3:TrackPointExtension>
        </extensions>
      </trkpt>
      <trkpt lat="37.93732364661991596221923828125" lon="-107.13461436331272125244140625">
        <ele>3716</ele>
        <time>2026-01-06T16:27:58.000Z</time>
        <extensions>
          <ns3:TrackPointExtension>
            <ns3:hr>113</ns3:hr>
            <ns3:cad>0</ns3:cad>
          </ns3:TrackPointExtension>
        </extensions>
      </trkpt>
      <trkpt lat="37.9373210482299327850341796875" lon="-107.13459156453609466552734375">
        <ele>3716.800048828125</ele>
        <time>2026-01-06T16:28:03.000Z</time>
        <extensions>
          <ns3:TrackPointExtension>
            <ns3:hr>112</ns3:hr>
            <ns3:cad>0</ns3:cad>
          </ns3:TrackPointExtension>
        </extensions>
      </trkpt>
      <trkpt lat="37.937336303293704986572265625" lon="-107.13455191813409328460693359375">
        <ele>3717.800048828125</ele>
        <time>2026-01-06T16:28:09.000Z</time>
        <extensions>
          <ns3:TrackPointExtension>
            <ns3:hr>111</ns3:hr>
            <ns3:cad>0</ns3:cad>
          </ns3:TrackPointExtension>
        </extensions>
      </trkpt>
      <trkpt lat="37.93733672238886356353759765625" lon="-107.1345421113073825836181640625">
        <ele>3718</ele>
        <time>2026-01-06T16:28:11.000Z</time>
        <extensions>
          <ns3:TrackPointExtension>
            <ns3:hr>112</ns3:hr>
            <ns3:cad>0</ns3:cad>
          </ns3:TrackPointExtension>
        </extensions>
      </trkpt>
      <trkpt lat="37.93733320198953151702880859375" lon="-107.13453297503292560577392578125">
        <ele>3718.199951171875</ele>
        <time>2026-01-06T16:28:13.000Z</time>
        <extensions>
          <ns3:TrackPointExtension>
            <ns3:hr>115</ns3:hr>
            <ns3:cad>0</ns3:cad>
          </ns3:TrackPointExtension>
        </extensions>
      </trkpt>
      <trkpt lat="37.93734057806432247161865234375" lon="-107.1345166303217411041259765625">
        <ele>3718.199951171875</ele>
        <time>2026-01-06T16:28:15.000Z</time>
        <extensions>
          <ns3:TrackPointExtension>
            <ns3:hr>120</ns3:hr>
            <ns3:cad>0</ns3:cad>
          </ns3:TrackPointExtension>
        </extensions>
      </trkpt>
      <trkpt lat="37.9373364709317684173583984375" lon="-107.13451570831239223480224609375">
        <ele>3718.39990234375</ele>
        <time>2026-01-06T16:28:16.000Z</time>
        <extensions>
          <ns3:TrackPointExtension>
            <ns3:hr>123</ns3:hr>
            <ns3:cad>0</ns3:cad>
          </ns3:TrackPointExtension>
        </extensions>
      </trkpt>
      <trkpt lat="37.9373210482299327850341796875" lon="-107.1345050632953643798828125">
        <ele>3718.60009765625</ele>
        <time>2026-01-06T16:28:19.000Z</time>
        <extensions>
          <ns3:TrackPointExtension>
            <ns3:hr>126</ns3:hr>
            <ns3:cad>0</ns3:cad>
          </ns3:TrackPointExtension>
        </extensions>
      </trkpt>
      <trkpt lat="37.93731040321290493011474609375" lon="-107.134501375257968902587890625">
        <ele>3718.800048828125</ele>
        <time>2026-01-06T16:28:20.000Z</time>
        <extensions>
          <ns3:TrackPointExtension>
            <ns3:hr>126</ns3:hr>
            <ns3:cad>0</ns3:cad>
          </ns3:TrackPointExtension>
        </extensions>
      </trkpt>
      <trkpt lat="37.93729699216783046722412109375" lon="-107.1345050632953643798828125">
        <ele>3719</ele>
        <time>2026-01-06T16:28:24.000Z</time>
        <extensions>
          <ns3:TrackPointExtension>
            <ns3:hr>125</ns3:hr>
            <ns3:cad>0</ns3:cad>
          </ns3:TrackPointExtension>
        </extensions>
      </trkpt>
      <trkpt lat="37.93728056363761425018310546875" lon="-107.13450682349503040313720703125">
        <ele>3719.199951171875</ele>
        <time>2026-01-06T16:28:26.000Z</time>
        <extensions>
          <ns3:TrackPointExtension>
            <ns3:hr>124</ns3:hr>
            <ns3:cad>0</ns3:cad>
          </ns3:TrackPointExtension>
        </extensions>
      </trkpt>
      <trkpt lat="37.93723915703594684600830078125" lon="-107.13449123315513134002685546875">
        <ele>3719.800048828125</ele>
        <time>2026-01-06T16:28:32.000Z</time>
        <extensions>
          <ns3:TrackPointExtension>
            <ns3:hr>124</ns3:hr>
            <ns3:cad>0</ns3:cad>
          </ns3:TrackPointExtension>
        </extensions>
      </trkpt>
      <trkpt lat="37.93723027221858501434326171875" lon="-107.1344854496419429779052734375">
        <ele>3720</ele>
        <time>2026-01-06T16:28:33.000Z</time>
        <extensions>
          <ns3:TrackPointExtension>
            <ns3:hr>124</ns3:hr>
            <ns3:cad>0</ns3:cad>
          </ns3:TrackPointExtension>
        </extensions>
      </trkpt>
      <trkpt lat="37.937211580574512481689453125" lon="-107.1344784088432788848876953125">
        <ele>3720.800048828125</ele>
        <time>2026-01-06T16:28:39.000Z</time>
        <extensions>
          <ns3:TrackPointExtension>
            <ns3:hr>124</ns3:hr>
            <ns3:cad>0</ns3:cad>
          </ns3:TrackPointExtension>
        </extensions>
      </trkpt>
      <trkpt lat="37.93719724752008914947509765625" lon="-107.134468518197536468505859375">
        <ele>3721.199951171875</ele>
        <time>2026-01-06T16:28:42.000Z</time>
        <extensions>
          <ns3:TrackPointExtension>
            <ns3:hr>124</ns3:hr>
            <ns3:cad>0</ns3:cad>
          </ns3:TrackPointExtension>
        </extensions>
      </trkpt>
      <trkpt lat="37.93718048371374607086181640625" lon="-107.134459130465984344482421875">
        <ele>3721.39990234375</ele>
        <time>2026-01-06T16:28:45.000Z</time>
        <extensions>
          <ns3:TrackPointExtension>
            <ns3:hr>124</ns3:hr>
            <ns3:cad>0</ns3:cad>
          </ns3:TrackPointExtension>
        </extensions>
      </trkpt>
      <trkpt lat="37.9371513985097408294677734375" lon="-107.134434990584850311279296875">
        <ele>3722</ele>
        <time>2026-01-06T16:28:51.000Z</time>
        <extensions>
          <ns3:TrackPointExtension>
            <ns3:hr>123</ns3:hr>
            <ns3:cad>79</ns3:cad>
          </ns3:TrackPointExtension>
        </extensions>
      </trkpt>
      <trkpt lat="37.93714310042560100555419921875" lon="-107.1344314701855182647705078125">
        <ele>3722.199951171875</ele>
        <time>2026-01-06T16:28:52.000Z</time>
        <extensions>
          <ns3:TrackPointExtension>
            <ns3:hr>124</ns3:hr>
            <ns3:cad>0</ns3:cad>
          </ns3:TrackPointExtension>
        </extensions>
      </trkpt>
      <trkpt lat="37.9371393285691738128662109375" lon="-107.13443205691874027252197265625">
        <ele>3722.199951171875</ele>
        <time>2026-01-06T16:28:53.000Z</time>
        <extensions>
          <ns3:TrackPointExtension>
            <ns3:hr>123</ns3:hr>
            <ns3:cad>0</ns3:cad>
          </ns3:TrackPointExtension>
        </extensions>
      </trkpt>
      <trkpt lat="37.93711443431675434112548828125" lon="-107.13442954234778881072998046875">
        <ele>3723</ele>
        <time>2026-01-06T16:28:58.000Z</time>
        <extensions>
          <ns3:TrackPointExtension>
            <ns3:hr>122</ns3:hr>
            <ns3:cad>0</ns3:cad>
          </ns3:TrackPointExtension>
        </extensions>
      </trkpt>
      <trkpt lat="37.93709498830139636993408203125" lon="-107.13441713713109493255615234375">
        <ele>3723.39990234375</ele>
        <time>2026-01-06T16:29:03.000Z</time>
        <extensions>
          <ns3:TrackPointExtension>
            <ns3:hr>120</ns3:hr>
            <ns3:cad>0</ns3:cad>
          </ns3:TrackPointExtension>
        </extensions>
      </trkpt>
      <trkpt lat="37.93710320256650447845458984375" lon="-107.134380340576171875">
        <ele>3724.39990234375</ele>
        <time>2026-01-06T16:29:09.000Z</time>
        <extensions>
          <ns3:TrackPointExtension>
            <ns3:hr>117</ns3:hr>
            <ns3:cad>0</ns3:cad>
          </ns3:TrackPointExtension>
        </extensions>
      </trkpt>
      <trkpt lat="37.93710571713745594024658203125" lon="-107.13437455706298351287841796875">
        <ele>3724.39990234375</ele>
        <time>2026-01-06T16:29:10.000Z</time>
        <extensions>
          <ns3:TrackPointExtension>
            <ns3:hr>116</ns3:hr>
            <ns3:cad>0</ns3:cad>
          </ns3:TrackPointExtension>
        </extensions>
      </trkpt>
      <trkpt lat="37.93712985701858997344970703125" lon="-107.1343271993100643157958984375">
        <ele>3725.39990234375</ele>
        <time>2026-01-06T16:29:16.000Z</time>
        <extensions>
          <ns3:TrackPointExtension>
            <ns3:hr>113</ns3:hr>
            <ns3:cad>0</ns3:cad>
          </ns3:TrackPointExtension>
        </extensions>
      </trkpt>
      <trkpt lat="37.93713086284697055816650390625" lon="-107.13432309217751026153564453125">
        <ele>3725.60009765625</ele>
        <time>2026-01-06T16:29:17.000Z</time>
        <extensions>
          <ns3:TrackPointExtension>
            <ns3:hr>113</ns3:hr>
            <ns3:cad>0</ns3:cad>
          </ns3:TrackPointExtension>
        </extensions>
      </trkpt>
      <trkpt lat="37.93713605962693691253662109375" lon="-107.13428520597517490386962890625">
        <ele>3726.199951171875</ele>
        <time>2026-01-06T16:29:22.000Z</time>
        <extensions>
          <ns3:TrackPointExtension>
            <ns3:hr>112</ns3:hr>
            <ns3:cad>0</ns3:cad>
          </ns3:TrackPointExtension>
        </extensions>
      </trkpt>
      <trkpt lat="37.93714494444429874420166015625" lon="-107.13426626287400722503662109375">
        <ele>3726.60009765625</ele>
        <time>2026-01-06T16:29:24.000Z</time>
        <extensions>
          <ns3:TrackPointExtension>
            <ns3:hr>112</ns3:hr>
            <ns3:cad>0</ns3:cad>
          </ns3:TrackPointExtension>
        </extensions>
      </trkpt>
      <trkpt lat="37.93714963831007480621337890625" lon="-107.13423550128936767578125">
        <ele>3727.39990234375</ele>
        <time>2026-01-06T16:29:28.000Z</time>
        <extensions>
          <ns3:TrackPointExtension>
            <ns3:hr>111</ns3:hr>
            <ns3:cad>0</ns3:cad>
          </ns3:TrackPointExtension>
        </extensions>
      </trkpt>
      <trkpt lat="37.93715315870940685272216796875" lon="-107.13422946631908416748046875">
        <ele>3727.60009765625</ele>
        <time>2026-01-06T16:29:29.000Z</time>
        <extensions>
          <ns3:TrackPointExtension>
            <ns3:hr>111</ns3:hr>
            <ns3:cad>0</ns3:cad>
          </ns3:TrackPointExtension>
        </extensions>
      </trkpt>
      <trkpt lat="37.9371594451367855072021484375" lon="-107.1342018060386180877685546875">
        <ele>3728.39990234375</ele>
        <time>2026-01-06T16:29:34.000Z</time>
        <extensions>
          <ns3:TrackPointExtension>
            <ns3:hr>108</ns3:hr>
            <ns3:cad>0</ns3:cad>
          </ns3:TrackPointExtension>
        </extensions>
      </trkpt>
      <trkpt lat="37.93716053478419780731201171875" lon="-107.1341961063444614410400390625">
        <ele>3728.39990234375</ele>
        <time>2026-01-06T16:29:35.000Z</time>
        <extensions>
          <ns3:TrackPointExtension>
            <ns3:hr>109</ns3:hr>
            <ns3:cad>0</ns3:cad>
          </ns3:TrackPointExtension>
        </extensions>
      </trkpt>
      <trkpt lat="37.9371574334800243377685546875" lon="-107.1341536939144134521484375">
        <ele>3728.800048828125</ele>
        <time>2026-01-06T16:29:41.000Z</time>
        <extensions>
          <ns3:TrackPointExtension>
            <ns3:hr>108</ns3:hr>
            <ns3:cad>0</ns3:cad>
          </ns3:TrackPointExtension>
        </extensions>
      </trkpt>
      <trkpt lat="37.9371758736670017242431640625" lon="-107.13411723263561725616455078125">
        <ele>3729.60009765625</ele>
        <time>2026-01-06T16:29:47.000Z</time>
        <extensions>
          <ns3:TrackPointExtension>
            <ns3:hr>109</ns3:hr>
            <ns3:cad>0</ns3:cad>
          </ns3:TrackPointExtension>
        </extensions>
      </trkpt>
      <trkpt lat="37.93717796914279460906982421875" lon="-107.1341142989695072174072265625">
        <ele>3729.60009765625</ele>
        <time>2026-01-06T16:29:48.000Z</time>
        <extensions>
          <ns3:TrackPointExtension>
            <ns3:hr>109</ns3:hr>
            <ns3:cad>0</ns3:cad>
          </ns3:TrackPointExtension>
        </extensions>
      </trkpt>
      <trkpt lat="37.9371809028089046478271484375" lon="-107.13410583324730396270751953125">
        <ele>3729.800048828125</ele>
        <time>2026-01-06T16:29:49.000Z</time>
        <extensions>
          <ns3:TrackPointExtension>
            <ns3:hr>109</ns3:hr>
            <ns3:cad>0</ns3:cad>
          </ns3:TrackPointExtension>
        </extensions>
      </trkpt>
      <trkpt lat="37.9371855966746807098388671875" lon="-107.1340908296406269073486328125">
        <ele>3730</ele>
        <time>2026-01-06T16:29:54.000Z</time>
        <extensions>
          <ns3:TrackPointExtension>
            <ns3:hr>109</ns3:hr>
            <ns3:cad>0</ns3:cad>
          </ns3:TrackPointExtension>
        </extensions>
      </trkpt>
      <trkpt lat="37.93718383647501468658447265625" lon="-107.13409267365932464599609375">
        <ele>3729.800048828125</ele>
        <time>2026-01-06T16:30:00.000Z</time>
        <extensions>
          <ns3:TrackPointExtension>
            <ns3:hr>108</ns3:hr>
            <ns3:cad>0</ns3:cad>
          </ns3:TrackPointExtension>
        </extensions>
      </trkpt>
      <trkpt lat="37.93718383647501468658447265625" lon="-107.13409267365932464599609375">
        <ele>3729.800048828125</ele>
        <time>2026-01-06T16:30:02.000Z</time>
        <extensions>
          <ns3:TrackPointExtension>
            <ns3:hr>111</ns3:hr>
            <ns3:cad>0</ns3:cad>
          </ns3:TrackPointExtension>
        </extensions>
      </trkpt>
      <trkpt lat="37.93718383647501468658447265625" lon="-107.13409267365932464599609375">
        <ele>3729.800048828125</ele>
        <time>2026-01-06T16:30:03.000Z</time>
        <extensions>
          <ns3:TrackPointExtension>
            <ns3:hr>128</ns3:hr>
            <ns3:cad>0</ns3:cad>
          </ns3:TrackPointExtension>
        </extensions>
      </trkpt>
      <trkpt lat="37.93718383647501468658447265625" lon="-107.13409267365932464599609375">
        <ele>3729.60009765625</ele>
        <time>2026-01-06T16:30:04.000Z</time>
        <extensions>
          <ns3:TrackPointExtension>
            <ns3:hr>134</ns3:hr>
            <ns3:cad>0</ns3:cad>
          </ns3:TrackPointExtension>
        </extensions>
      </trkpt>
      <trkpt lat="37.93718383647501468658447265625" lon="-107.13409267365932464599609375">
        <ele>3729.60009765625</ele>
        <time>2026-01-06T16:30:05.000Z</time>
        <extensions>
          <ns3:TrackPointExtension>
            <ns3:hr>134</ns3:hr>
            <ns3:cad>0</ns3:cad>
          </ns3:TrackPointExtension>
        </extensions>
      </trkpt>
      <trkpt lat="37.93718383647501468658447265625" lon="-107.13409267365932464599609375">
        <ele>3730</ele>
        <time>2026-01-06T16:30:10.000Z</time>
        <extensions>
          <ns3:TrackPointExtension>
            <ns3:hr>131</ns3:hr>
            <ns3:cad>0</ns3:cad>
          </ns3:TrackPointExtension>
        </extensions>
      </trkpt>
      <trkpt lat="37.93718383647501468658447265625" lon="-107.13409267365932464599609375">
        <ele>3729.800048828125</ele>
        <time>2026-01-06T16:30:15.000Z</time>
        <extensions>
          <ns3:TrackPointExtension>
            <ns3:hr>128</ns3:hr>
            <ns3:cad>0</ns3:cad>
          </ns3:TrackPointExtension>
        </extensions>
      </trkpt>
      <trkpt lat="37.93718383647501468658447265625" lon="-107.13409267365932464599609375">
        <ele>3729.800048828125</ele>
        <time>2026-01-06T16:30:16.000Z</time>
        <extensions>
          <ns3:TrackPointExtension>
            <ns3:hr>128</ns3:hr>
            <ns3:cad>0</ns3:cad>
          </ns3:TrackPointExtension>
        </extensions>
      </trkpt>
      <trkpt lat="37.93718383647501468658447265625" lon="-107.13409267365932464599609375">
        <ele>3730</ele>
        <time>2026-01-06T16:30:22.000Z</time>
        <extensions>
          <ns3:TrackPointExtension>
            <ns3:hr>126</ns3:hr>
            <ns3:cad>0</ns3:cad>
          </ns3:TrackPointExtension>
        </extensions>
      </trkpt>
      <trkpt lat="37.93718383647501468658447265625" lon="-107.13409267365932464599609375">
        <ele>3730</ele>
        <time>2026-01-06T16:30:26.000Z</time>
        <extensions>
          <ns3:TrackPointExtension>
            <ns3:hr>126</ns3:hr>
            <ns3:cad>0</ns3:cad>
          </ns3:TrackPointExtension>
        </extensions>
      </trkpt>
      <trkpt lat="37.93718383647501468658447265625" lon="-107.13409267365932464599609375">
        <ele>3730</ele>
        <time>2026-01-06T16:30:29.000Z</time>
        <extensions>
          <ns3:TrackPointExtension>
            <ns3:hr>123</ns3:hr>
            <ns3:cad>0</ns3:cad>
          </ns3:TrackPointExtension>
        </extensions>
      </trkpt>
      <trkpt lat="37.93718383647501468658447265625" lon="-107.13409267365932464599609375">
        <ele>3730</ele>
        <time>2026-01-06T16:30:31.000Z</time>
        <extensions>
          <ns3:TrackPointExtension>
            <ns3:hr>119</ns3:hr>
            <ns3:cad>0</ns3:cad>
          </ns3:TrackPointExtension>
        </extensions>
      </trkpt>
      <trkpt lat="37.93718383647501468658447265625" lon="-107.13409267365932464599609375">
        <ele>3730</ele>
        <time>2026-01-06T16:30:33.000Z</time>
        <extensions>
          <ns3:TrackPointExtension>
            <ns3:hr>113</ns3:hr>
            <ns3:cad>0</ns3:cad>
          </ns3:TrackPointExtension>
        </extensions>
      </trkpt>
      <trkpt lat="37.93718383647501468658447265625" lon="-107.13409267365932464599609375">
        <ele>3730</ele>
        <time>2026-01-06T16:30:35.000Z</time>
        <extensions>
          <ns3:TrackPointExtension>
            <ns3:hr>109</ns3:hr>
            <ns3:cad>0</ns3:cad>
          </ns3:TrackPointExtension>
        </extensions>
      </trkpt>
      <trkpt lat="37.93718383647501468658447265625" lon="-107.13409267365932464599609375">
        <ele>3730</ele>
        <time>2026-01-06T16:30:37.000Z</time>
        <extensions>
          <ns3:TrackPointExtension>
            <ns3:hr>106</ns3:hr>
            <ns3:cad>0</ns3:cad>
          </ns3:TrackPointExtension>
        </extensions>
      </trkpt>
      <trkpt lat="37.93718383647501468658447265625" lon="-107.13409267365932464599609375">
        <ele>3730.60009765625</ele>
        <time>2026-01-06T16:30:43.000Z</time>
        <extensions>
          <ns3:TrackPointExtension>
            <ns3:hr>106</ns3:hr>
            <ns3:cad>0</ns3:cad>
          </ns3:TrackPointExtension>
        </extensions>
      </trkpt>
      <trkpt lat="37.93718383647501468658447265625" lon="-107.13409267365932464599609375">
        <ele>3729.800048828125</ele>
        <time>2026-01-06T16:30:47.000Z</time>
        <extensions>
          <ns3:TrackPointExtension>
            <ns3:hr>103</ns3:hr>
            <ns3:cad>0</ns3:cad>
          </ns3:TrackPointExtension>
        </extensions>
      </trkpt>
      <trkpt lat="37.93718383647501468658447265625" lon="-107.13409267365932464599609375">
        <ele>3729.800048828125</ele>
        <time>2026-01-06T16:30:48.000Z</time>
        <extensions>
          <ns3:TrackPointExtension>
            <ns3:hr>100</ns3:hr>
            <ns3:cad>0</ns3:cad>
          </ns3:TrackPointExtension>
        </extensions>
      </trkpt>
      <trkpt lat="37.93718383647501468658447265625" lon="-107.13409267365932464599609375">
        <ele>3730</ele>
        <time>2026-01-06T16:30:49.000Z</time>
        <extensions>
          <ns3:TrackPointExtension>
            <ns3:hr>98</ns3:hr>
            <ns3:cad>0</ns3:cad>
          </ns3:TrackPointExtension>
        </extensions>
      </trkpt>
      <trkpt lat="37.93718383647501468658447265625" lon="-107.13409267365932464599609375">
        <ele>3730.39990234375</ele>
        <time>2026-01-06T16:30:54.000Z</time>
        <extensions>
          <ns3:TrackPointExtension>
            <ns3:hr>94</ns3:hr>
            <ns3:cad>0</ns3:cad>
          </ns3:TrackPointExtension>
        </extensions>
      </trkpt>
      <trkpt lat="37.93718383647501468658447265625" lon="-107.13409267365932464599609375">
        <ele>3730.199951171875</ele>
        <time>2026-01-06T16:31:00.000Z</time>
        <extensions>
          <ns3:TrackPointExtension>
            <ns3:hr>94</ns3:hr>
            <ns3:cad>0</ns3:cad>
          </ns3:TrackPointExtension>
        </extensions>
      </trkpt>
      <trkpt lat="37.93718383647501468658447265625" lon="-107.13409267365932464599609375">
        <ele>3730.199951171875</ele>
        <time>2026-01-06T16:31:02.000Z</time>
        <extensions>
          <ns3:TrackPointExtension>
            <ns3:hr>97</ns3:hr>
            <ns3:cad>0</ns3:cad>
          </ns3:TrackPointExtension>
        </extensions>
      </trkpt>
      <trkpt lat="37.93718383647501468658447265625" lon="-107.13409267365932464599609375">
        <ele>3730.199951171875</ele>
        <time>2026-01-06T16:31:05.000Z</time>
        <extensions>
          <ns3:TrackPointExtension>
            <ns3:hr>94</ns3:hr>
            <ns3:cad>0</ns3:cad>
          </ns3:TrackPointExtension>
        </extensions>
      </trkpt>
      <trkpt lat="37.93718383647501468658447265625" lon="-107.13409267365932464599609375">
        <ele>3730.199951171875</ele>
        <time>2026-01-06T16:31:06.000Z</time>
        <extensions>
          <ns3:TrackPointExtension>
            <ns3:hr>91</ns3:hr>
            <ns3:cad>0</ns3:cad>
          </ns3:TrackPointExtension>
        </extensions>
      </trkpt>
      <trkpt lat="37.93718383647501468658447265625" lon="-107.13409267365932464599609375">
        <ele>3730.39990234375</ele>
        <time>2026-01-06T16:31:10.000Z</time>
        <extensions>
          <ns3:TrackPointExtension>
            <ns3:hr>88</ns3:hr>
            <ns3:cad>0</ns3:cad>
          </ns3:TrackPointExtension>
        </extensions>
      </trkpt>
      <trkpt lat="37.93718383647501468658447265625" lon="-107.13409267365932464599609375">
        <ele>3730.60009765625</ele>
        <time>2026-01-06T16:31:13.000Z</time>
        <extensions>
          <ns3:TrackPointExtension>
            <ns3:hr>91</ns3:hr>
            <ns3:cad>0</ns3:cad>
          </ns3:TrackPointExtension>
        </extensions>
      </trkpt>
      <trkpt lat="37.93718383647501468658447265625" lon="-107.13409267365932464599609375">
        <ele>3730.800048828125</ele>
        <time>2026-01-06T16:31:15.000Z</time>
        <extensions>
          <ns3:TrackPointExtension>
            <ns3:hr>94</ns3:hr>
            <ns3:cad>0</ns3:cad>
          </ns3:TrackPointExtension>
        </extensions>
      </trkpt>
      <trkpt lat="37.93718383647501468658447265625" lon="-107.13409267365932464599609375">
        <ele>3730.60009765625</ele>
        <time>2026-01-06T16:31:19.000Z</time>
        <extensions>
          <ns3:TrackPointExtension>
            <ns3:hr>94</ns3:hr>
            <ns3:cad>0</ns3:cad>
          </ns3:TrackPointExtension>
        </extensions>
      </trkpt>
      <trkpt lat="37.93718383647501468658447265625" lon="-107.13409267365932464599609375">
        <ele>3730</ele>
        <time>2026-01-06T16:31:23.000Z</time>
        <extensions>
          <ns3:TrackPointExtension>
            <ns3:hr>91</ns3:hr>
            <ns3:cad>0</ns3:cad>
          </ns3:TrackPointExtension>
        </extensions>
      </trkpt>
      <trkpt lat="37.93718383647501468658447265625" lon="-107.13409267365932464599609375">
        <ele>3730</ele>
        <time>2026-01-06T16:31:25.000Z</time>
        <extensions>
          <ns3:TrackPointExtension>
            <ns3:hr>86</ns3:hr>
            <ns3:cad>0</ns3:cad>
          </ns3:TrackPointExtension>
        </extensions>
      </trkpt>
      <trkpt lat="37.93718383647501468658447265625" lon="-107.13409267365932464599609375">
        <ele>3730</ele>
        <time>2026-01-06T16:31:30.000Z</time>
        <extensions>
          <ns3:TrackPointExtension>
            <ns3:hr>91</ns3:hr>
            <ns3:cad>0</ns3:cad>
          </ns3:TrackPointExtension>
        </extensions>
      </trkpt>
      <trkpt lat="37.93718383647501468658447265625" lon="-107.13409267365932464599609375">
        <ele>3730</ele>
        <time>2026-01-06T16:31:32.000Z</time>
        <extensions>
          <ns3:TrackPointExtension>
            <ns3:hr>94</ns3:hr>
            <ns3:cad>0</ns3:cad>
          </ns3:TrackPointExtension>
        </extensions>
      </trkpt>
      <trkpt lat="37.93718383647501468658447265625" lon="-107.13409267365932464599609375">
        <ele>3730.199951171875</ele>
        <time>2026-01-06T16:31:37.000Z</time>
        <extensions>
          <ns3:TrackPointExtension>
            <ns3:hr>95</ns3:hr>
            <ns3:cad>0</ns3:cad>
          </ns3:TrackPointExtension>
        </extensions>
      </trkpt>
      <trkpt lat="37.93718383647501468658447265625" lon="-107.13409267365932464599609375">
        <ele>3729.800048828125</ele>
        <time>2026-01-06T16:31:41.000Z</time>
        <extensions>
          <ns3:TrackPointExtension>
            <ns3:hr>91</ns3:hr>
            <ns3:cad>0</ns3:cad>
          </ns3:TrackPointExtension>
        </extensions>
      </trkpt>
      <trkpt lat="37.93718383647501468658447265625" lon="-107.13409267365932464599609375">
        <ele>3729.800048828125</ele>
        <time>2026-01-06T16:31:42.000Z</time>
        <extensions>
          <ns3:TrackPointExtension>
            <ns3:hr>89</ns3:hr>
            <ns3:cad>0</ns3:cad>
          </ns3:TrackPointExtension>
        </extensions>
      </trkpt>
      <trkpt lat="37.93718383647501468658447265625" lon="-107.13409267365932464599609375">
        <ele>3729.800048828125</ele>
        <time>2026-01-06T16:31:48.000Z</time>
        <extensions>
          <ns3:TrackPointExtension>
            <ns3:hr>87</ns3:hr>
            <ns3:cad>0</ns3:cad>
          </ns3:TrackPointExtension>
        </extensions>
      </trkpt>
      <trkpt lat="37.93718383647501468658447265625" lon="-107.13409267365932464599609375">
        <ele>3730.199951171875</ele>
        <time>2026-01-06T16:31:54.000Z</time>
        <extensions>
          <ns3:TrackPointExtension>
            <ns3:hr>89</ns3:hr>
            <ns3:cad>0</ns3:cad>
          </ns3:TrackPointExtension>
        </extensions>
      </trkpt>
      <trkpt lat="37.93718383647501468658447265625" lon="-107.13409267365932464599609375">
        <ele>3730.199951171875</ele>
        <time>2026-01-06T16:32:00.000Z</time>
        <extensions>
          <ns3:TrackPointExtension>
            <ns3:hr>89</ns3:hr>
            <ns3:cad>0</ns3:cad>
          </ns3:TrackPointExtension>
        </extensions>
      </trkpt>
      <trkpt lat="37.93718383647501468658447265625" lon="-107.13409267365932464599609375">
        <ele>3730</ele>
        <time>2026-01-06T16:32:06.000Z</time>
        <extensions>
          <ns3:TrackPointExtension>
            <ns3:hr>87</ns3:hr>
            <ns3:cad>0</ns3:cad>
          </ns3:TrackPointExtension>
        </extensions>
      </trkpt>
      <trkpt lat="37.93718383647501468658447265625" lon="-107.13409267365932464599609375">
        <ele>3730</ele>
        <time>2026-01-06T16:32:07.000Z</time>
        <extensions>
          <ns3:TrackPointExtension>
            <ns3:hr>86</ns3:hr>
            <ns3:cad>0</ns3:cad>
          </ns3:TrackPointExtension>
        </extensions>
      </trkpt>
      <trkpt lat="37.93718383647501468658447265625" lon="-107.13409267365932464599609375">
        <ele>3730.39990234375</ele>
        <time>2026-01-06T16:32:11.000Z</time>
        <extensions>
          <ns3:TrackPointExtension>
            <ns3:hr>89</ns3:hr>
            <ns3:cad>0</ns3:cad>
          </ns3:TrackPointExtension>
        </extensions>
      </trkpt>
      <trkpt lat="37.937185429036617279052734375" lon="-107.1340740658342838287353515625">
        <ele>3730.39990234375</ele>
        <time>2026-01-06T16:32:17.000Z</time>
        <extensions>
          <ns3:TrackPointExtension>
            <ns3:hr>84</ns3:hr>
            <ns3:cad>0</ns3:cad>
          </ns3:TrackPointExtension>
        </extensions>
      </trkpt>
      <trkpt lat="37.93719255365431308746337890625" lon="-107.13405839167535305023193359375">
        <ele>3731</ele>
        <time>2026-01-06T16:32:19.000Z</time>
        <extensions>
          <ns3:TrackPointExtension>
            <ns3:hr>83</ns3:hr>
            <ns3:cad>0</ns3:cad>
          </ns3:TrackPointExtension>
        </extensions>
      </trkpt>
      <trkpt lat="37.9372137598693370819091796875" lon="-107.13401346467435359954833984375">
        <ele>3731.800048828125</ele>
        <time>2026-01-06T16:32:23.000Z</time>
        <extensions>
          <ns3:TrackPointExtension>
            <ns3:hr>83</ns3:hr>
            <ns3:cad>0</ns3:cad>
          </ns3:TrackPointExtension>
        </extensions>
      </trkpt>
      <trkpt lat="37.93721728026866912841796875" lon="-107.134001813828945159912109375">
        <ele>3732</ele>
        <time>2026-01-06T16:32:24.000Z</time>
        <extensions>
          <ns3:TrackPointExtension>
            <ns3:hr>83</ns3:hr>
            <ns3:cad>0</ns3:cad>
          </ns3:TrackPointExtension>
        </extensions>
      </trkpt>
      <trkpt lat="37.93721334077417850494384765625" lon="-107.1340029872953891754150390625">
        <ele>3731.60009765625</ele>
        <time>2026-01-06T16:32:27.000Z</time>
        <extensions>
          <ns3:TrackPointExtension>
            <ns3:hr>83</ns3:hr>
            <ns3:cad>0</ns3:cad>
          </ns3:TrackPointExtension>
        </extensions>
      </trkpt>
      <trkpt lat="37.93721334077417850494384765625" lon="-107.1340029872953891754150390625">
        <ele>3731.60009765625</ele>
        <time>2026-01-06T16:32:28.000Z</time>
        <extensions>
          <ns3:TrackPointExtension>
            <ns3:hr>83</ns3:hr>
            <ns3:cad>0</ns3:cad>
          </ns3:TrackPointExtension>
        </extensions>
      </trkpt>
      <trkpt lat="37.93724787421524524688720703125" lon="-107.13395856320858001708984375">
        <ele>3732</ele>
        <time>2026-01-06T16:32:34.000Z</time>
        <extensions>
          <ns3:TrackPointExtension>
            <ns3:hr>83</ns3:hr>
            <ns3:cad>0</ns3:cad>
          </ns3:TrackPointExtension>
        </extensions>
      </trkpt>
      <trkpt lat="37.9372808150947093963623046875" lon="-107.1339034102857112884521484375">
        <ele>3732.39990234375</ele>
        <time>2026-01-06T16:32:40.000Z</time>
        <extensions>
          <ns3:TrackPointExtension>
            <ns3:hr>83</ns3:hr>
            <ns3:cad>0</ns3:cad>
          </ns3:TrackPointExtension>
        </extensions>
      </trkpt>
      <trkpt lat="37.9373076371848583221435546875" lon="-107.13384398259222507476806640625">
        <ele>3732.60009765625</ele>
        <time>2026-01-06T16:32:46.000Z</time>
        <extensions>
          <ns3:TrackPointExtension>
            <ns3:hr>83</ns3:hr>
            <ns3:cad>0</ns3:cad>
          </ns3:TrackPointExtension>
        </extensions>
      </trkpt>
      <trkpt lat="37.9373166896402835845947265625" lon="-107.133800983428955078125">
        <ele>3733</ele>
        <time>2026-01-06T16:32:50.000Z</time>
        <extensions>
          <ns3:TrackPointExtension>
            <ns3:hr>84</ns3:hr>
            <ns3:cad>0</ns3:cad>
          </ns3:TrackPointExtension>
        </extensions>
      </trkpt>
      <trkpt lat="37.93733269907534122467041015625" lon="-107.133771479129791259765625">
        <ele>3733.199951171875</ele>
        <time>2026-01-06T16:32:53.000Z</time>
        <extensions>
          <ns3:TrackPointExtension>
            <ns3:hr>85</ns3:hr>
            <ns3:cad>0</ns3:cad>
          </ns3:TrackPointExtension>
        </extensions>
      </trkpt>
      <trkpt lat="37.9373512230813503265380859375" lon="-107.13372529484331607818603515625">
        <ele>3733.39990234375</ele>
        <time>2026-01-06T16:32:58.000Z</time>
        <extensions>
          <ns3:TrackPointExtension>
            <ns3:hr>88</ns3:hr>
            <ns3:cad>0</ns3:cad>
          </ns3:TrackPointExtension>
        </extensions>
      </trkpt>
      <trkpt lat="37.93735180981457233428955078125" lon="-107.13370467536151409149169921875">
        <ele>3733.60009765625</ele>
        <time>2026-01-06T16:33:00.000Z</time>
        <extensions>
          <ns3:TrackPointExtension>
            <ns3:hr>88</ns3:hr>
            <ns3:cad>0</ns3:cad>
          </ns3:TrackPointExtension>
        </extensions>
      </trkpt>
      <trkpt lat="37.93736471794545650482177734375" lon="-107.1336546353995800018310546875">
        <ele>3734</ele>
        <time>2026-01-06T16:33:06.000Z</time>
        <extensions>
          <ns3:TrackPointExtension>
            <ns3:hr>91</ns3:hr>
            <ns3:cad>0</ns3:cad>
          </ns3:TrackPointExtension>
        </extensions>
      </trkpt>
      <trkpt lat="37.93737343512475490570068359375" lon="-107.1336211077868938446044921875">
        <ele>3734</ele>
        <time>2026-01-06T16:33:10.000Z</time>
        <extensions>
          <ns3:TrackPointExtension>
            <ns3:hr>93</ns3:hr>
            <ns3:cad>0</ns3:cad>
          </ns3:TrackPointExtension>
        </extensions>
      </trkpt>
      <trkpt lat="37.93737712316215038299560546875" lon="-107.1336167491972446441650390625">
        <ele>3734.199951171875</ele>
        <time>2026-01-06T16:33:11.000Z</time>
        <extensions>
          <ns3:TrackPointExtension>
            <ns3:hr>93</ns3:hr>
            <ns3:cad>0</ns3:cad>
          </ns3:TrackPointExtension>
        </extensions>
      </trkpt>
      <trkpt lat="37.93738265521824359893798828125" lon="-107.13359571062028408050537109375">
        <ele>3734.39990234375</ele>
        <time>2026-01-06T16:33:13.000Z</time>
        <extensions>
          <ns3:TrackPointExtension>
            <ns3:hr>96</ns3:hr>
            <ns3:cad>0</ns3:cad>
          </ns3:TrackPointExtension>
        </extensions>
      </trkpt>
      <trkpt lat="37.9373837448656558990478515625" lon="-107.1335701458156108856201171875">
        <ele>3734.39990234375</ele>
        <time>2026-01-06T16:33:17.000Z</time>
        <extensions>
          <ns3:TrackPointExtension>
            <ns3:hr>98</ns3:hr>
            <ns3:cad>0</ns3:cad>
          </ns3:TrackPointExtension>
        </extensions>
      </trkpt>
      <trkpt lat="37.93740360997617244720458984375" lon="-107.1335287392139434814453125">
        <ele>3734.60009765625</ele>
        <time>2026-01-06T16:33:23.000Z</time>
        <extensions>
          <ns3:TrackPointExtension>
            <ns3:hr>97</ns3:hr>
            <ns3:cad>0</ns3:cad>
          </ns3:TrackPointExtension>
        </extensions>
      </trkpt>
      <trkpt lat="37.93740796856582164764404296875" lon="-107.13349496014416217803955078125">
        <ele>3734.800048828125</ele>
        <time>2026-01-06T16:33:28.000Z</time>
        <extensions>
          <ns3:TrackPointExtension>
            <ns3:hr>94</ns3:hr>
            <ns3:cad>0</ns3:cad>
          </ns3:TrackPointExtension>
        </extensions>
      </trkpt>
      <trkpt lat="37.9374102316796779632568359375" lon="-107.13348448276519775390625">
        <ele>3735</ele>
        <time>2026-01-06T16:33:30.000Z</time>
        <extensions>
          <ns3:TrackPointExtension>
            <ns3:hr>93</ns3:hr>
            <ns3:cad>0</ns3:cad>
          </ns3:TrackPointExtension>
        </extensions>
      </trkpt>
      <trkpt lat="37.937411405146121978759765625" lon="-107.13348238728940486907958984375">
        <ele>3735.199951171875</ele>
        <time>2026-01-06T16:33:31.000Z</time>
        <extensions>
          <ns3:TrackPointExtension>
            <ns3:hr>92</ns3:hr>
            <ns3:cad>0</ns3:cad>
          </ns3:TrackPointExtension>
        </extensions>
      </trkpt>
      <trkpt lat="37.93741450645029544830322265625" lon="-107.13346025906503200531005859375">
        <ele>3735.60009765625</ele>
        <time>2026-01-06T16:33:35.000Z</time>
        <extensions>
          <ns3:TrackPointExtension>
            <ns3:hr>90</ns3:hr>
            <ns3:cad>0</ns3:cad>
          </ns3:TrackPointExtension>
        </extensions>
      </trkpt>
      <trkpt lat="37.93741517700254917144775390625" lon="-107.1334246359765529632568359375">
        <ele>3735.39990234375</ele>
        <time>2026-01-06T16:33:41.000Z</time>
        <extensions>
          <ns3:TrackPointExtension>
            <ns3:hr>90</ns3:hr>
            <ns3:cad>0</ns3:cad>
          </ns3:TrackPointExtension>
        </extensions>
      </trkpt>
      <trkpt lat="37.93742573820054531097412109375" lon="-107.13338063098490238189697265625">
        <ele>3735.60009765625</ele>
        <time>2026-01-06T16:33:47.000Z</time>
        <extensions>
          <ns3:TrackPointExtension>
            <ns3:hr>88</ns3:hr>
            <ns3:cad>0</ns3:cad>
          </ns3:TrackPointExtension>
        </extensions>
      </trkpt>
      <trkpt lat="37.9374293424189090728759765625" lon="-107.13336604647338390350341796875">
        <ele>3735.800048828125</ele>
        <time>2026-01-06T16:33:49.000Z</time>
        <extensions>
          <ns3:TrackPointExtension>
            <ns3:hr>89</ns3:hr>
            <ns3:cad>0</ns3:cad>
          </ns3:TrackPointExtension>
        </extensions>
      </trkpt>
      <trkpt lat="37.93743881396949291229248046875" lon="-107.13332547806203365325927734375">
        <ele>3736</ele>
        <time>2026-01-06T16:33:55.000Z</time>
        <extensions>
          <ns3:TrackPointExtension>
            <ns3:hr>89</ns3:hr>
            <ns3:cad>0</ns3:cad>
          </ns3:TrackPointExtension>
        </extensions>
      </trkpt>
      <trkpt lat="37.93744518421590328216552734375" lon="-107.13331156410276889801025390625">
        <ele>3736</ele>
        <time>2026-01-06T16:33:57.000Z</time>
        <extensions>
          <ns3:TrackPointExtension>
            <ns3:hr>89</ns3:hr>
            <ns3:cad>0</ns3:cad>
          </ns3:TrackPointExtension>
        </extensions>
      </trkpt>
      <trkpt lat="37.93745054863393306732177734375" lon="-107.13328063488006591796875">
        <ele>3736.199951171875</ele>
        <time>2026-01-06T16:34:02.000Z</time>
        <extensions>
          <ns3:TrackPointExtension>
            <ns3:hr>90</ns3:hr>
            <ns3:cad>0</ns3:cad>
          </ns3:TrackPointExtension>
        </extensions>
      </trkpt>
      <trkpt lat="37.9374511353671550750732421875" lon="-107.1332712471485137939453125">
        <ele>3736.39990234375</ele>
        <time>2026-01-06T16:34:04.000Z</time>
        <extensions>
          <ns3:TrackPointExtension>
            <ns3:hr>91</ns3:hr>
            <ns3:cad>0</ns3:cad>
          </ns3:TrackPointExtension>
        </extensions>
      </trkpt>
      <trkpt lat="37.9374551586806774139404296875" lon="-107.13324911892414093017578125">
        <ele>3737</ele>
        <time>2026-01-06T16:34:10.000Z</time>
        <extensions>
          <ns3:TrackPointExtension>
            <ns3:hr>91</ns3:hr>
            <ns3:cad>0</ns3:cad>
          </ns3:TrackPointExtension>
        </extensions>
      </trkpt>
      <trkpt lat="37.937457673251628875732421875" lon="-107.13323973119258880615234375">
        <ele>3737</ele>
        <time>2026-01-06T16:34:11.000Z</time>
        <extensions>
          <ns3:TrackPointExtension>
            <ns3:hr>91</ns3:hr>
            <ns3:cad>0</ns3:cad>
          </ns3:TrackPointExtension>
        </extensions>
      </trkpt>
      <trkpt lat="37.9374752752482891082763671875" lon="-107.13318499736487865447998046875">
        <ele>3736.60009765625</ele>
        <time>2026-01-06T16:34:17.000Z</time>
        <extensions>
          <ns3:TrackPointExtension>
            <ns3:hr>89</ns3:hr>
            <ns3:cad>0</ns3:cad>
          </ns3:TrackPointExtension>
        </extensions>
      </trkpt>
      <trkpt lat="37.93749161995947360992431640625" lon="-107.13313110172748565673828125">
        <ele>3737</ele>
        <time>2026-01-06T16:34:23.000Z</time>
        <extensions>
          <ns3:TrackPointExtension>
            <ns3:hr>88</ns3:hr>
            <ns3:cad>0</ns3:cad>
          </ns3:TrackPointExtension>
        </extensions>
      </trkpt>
      <trkpt lat="37.9375000856816768646240234375" lon="-107.133097238838672637939453125">
        <ele>3737</ele>
        <time>2026-01-06T16:34:28.000Z</time>
        <extensions>
          <ns3:TrackPointExtension>
            <ns3:hr>91</ns3:hr>
            <ns3:cad>73</ns3:cad>
          </ns3:TrackPointExtension>
        </extensions>
      </trkpt>
      <trkpt lat="37.937501259148120880126953125" lon="-107.133084833621978759765625">
        <ele>3737</ele>
        <time>2026-01-06T16:34:29.000Z</time>
        <extensions>
          <ns3:TrackPointExtension>
            <ns3:hr>92</ns3:hr>
            <ns3:cad>73</ns3:cad>
          </ns3:TrackPointExtension>
        </extensions>
      </trkpt>
      <trkpt lat="37.937517352402210235595703125" lon="-107.13302959688007831573486328125">
        <ele>3737.39990234375</ele>
        <time>2026-01-06T16:34:35.000Z</time>
        <extensions>
          <ns3:TrackPointExtension>
            <ns3:hr>93</ns3:hr>
            <ns3:cad>0</ns3:cad>
          </ns3:TrackPointExtension>
        </extensions>
      </trkpt>
      <trkpt lat="37.93751844204962253570556640625" lon="-107.13302339427173137664794921875">
        <ele>3737.39990234375</ele>
        <time>2026-01-06T16:34:36.000Z</time>
        <extensions>
          <ns3:TrackPointExtension>
            <ns3:hr>93</ns3:hr>
            <ns3:cad>0</ns3:cad>
          </ns3:TrackPointExtension>
        </extensions>
      </trkpt>
      <trkpt lat="37.9375275783240795135498046875" lon="-107.13296949863433837890625">
        <ele>3737.199951171875</ele>
        <time>2026-01-06T16:34:41.000Z</time>
        <extensions>
          <ns3:TrackPointExtension>
            <ns3:hr>93</ns3:hr>
            <ns3:cad>0</ns3:cad>
          </ns3:TrackPointExtension>
        </extensions>
      </trkpt>
      <trkpt lat="37.9375438392162322998046875" lon="-107.13291225023567676544189453125">
        <ele>3737.800048828125</ele>
        <time>2026-01-06T16:34:47.000Z</time>
        <extensions>
          <ns3:TrackPointExtension>
            <ns3:hr>94</ns3:hr>
            <ns3:cad>0</ns3:cad>
          </ns3:TrackPointExtension>
        </extensions>
      </trkpt>
      <trkpt lat="37.9375540651381015777587890625" lon="-107.13287469930946826934814453125">
        <ele>3737.60009765625</ele>
        <time>2026-01-06T16:34:52.000Z</time>
        <extensions>
          <ns3:TrackPointExtension>
            <ns3:hr>94</ns3:hr>
            <ns3:cad>0</ns3:cad>
          </ns3:TrackPointExtension>
        </extensions>
      </trkpt>
      <trkpt lat="37.9375545680522918701171875" lon="-107.1328271739184856414794921875">
        <ele>3737.60009765625</ele>
        <time>2026-01-06T16:34:58.000Z</time>
        <extensions>
          <ns3:TrackPointExtension>
            <ns3:hr>93</ns3:hr>
            <ns3:cad>0</ns3:cad>
          </ns3:TrackPointExtension>
        </extensions>
      </trkpt>
      <trkpt lat="37.93755951337516307830810546875" lon="-107.13281803764402866363525390625">
        <ele>3737.60009765625</ele>
        <time>2026-01-06T16:34:59.000Z</time>
        <extensions>
          <ns3:TrackPointExtension>
            <ns3:hr>93</ns3:hr>
            <ns3:cad>0</ns3:cad>
          </ns3:TrackPointExtension>
        </extensions>
      </trkpt>
      <trkpt lat="37.93756730854511260986328125" lon="-107.13276975788176059722900390625">
        <ele>3738</ele>
        <time>2026-01-06T16:35:05.000Z</time>
        <extensions>
          <ns3:TrackPointExtension>
            <ns3:hr>92</ns3:hr>
            <ns3:cad>0</ns3:cad>
          </ns3:TrackPointExtension>
        </extensions>
      </trkpt>
      <trkpt lat="37.9375792108476161956787109375" lon="-107.13270739652216434478759765625">
        <ele>3738</ele>
        <time>2026-01-06T16:35:11.000Z</time>
        <extensions>
          <ns3:TrackPointExtension>
            <ns3:hr>92</ns3:hr>
            <ns3:cad>0</ns3:cad>
          </ns3:TrackPointExtension>
        </extensions>
      </trkpt>
      <trkpt lat="37.9375865869224071502685546875" lon="-107.1326729469001293182373046875">
        <ele>3738</ele>
        <time>2026-01-06T16:35:15.000Z</time>
        <extensions>
          <ns3:TrackPointExtension>
            <ns3:hr>91</ns3:hr>
            <ns3:cad>0</ns3:cad>
          </ns3:TrackPointExtension>
        </extensions>
      </trkpt>
      <trkpt lat="37.937593795359134674072265625" lon="-107.1326182968914508819580078125">
        <ele>3738.199951171875</ele>
        <time>2026-01-06T16:35:21.000Z</time>
        <extensions>
          <ns3:TrackPointExtension>
            <ns3:hr>90</ns3:hr>
            <ns3:cad>76</ns3:cad>
          </ns3:TrackPointExtension>
        </extensions>
      </trkpt>
      <trkpt lat="37.9376028478145599365234375" lon="-107.13257026858627796173095703125">
        <ele>3737.60009765625</ele>
        <time>2026-01-06T16:35:27.000Z</time>
        <extensions>
          <ns3:TrackPointExtension>
            <ns3:hr>90</ns3:hr>
            <ns3:cad>0</ns3:cad>
          </ns3:TrackPointExtension>
        </extensions>
      </trkpt>
      <trkpt lat="37.937606535851955413818359375" lon="-107.13256574235856533050537109375">
        <ele>3737.60009765625</ele>
        <time>2026-01-06T16:35:28.000Z</time>
        <extensions>
          <ns3:TrackPointExtension>
            <ns3:hr>90</ns3:hr>
            <ns3:cad>0</ns3:cad>
          </ns3:TrackPointExtension>
        </extensions>
      </trkpt>
      <trkpt lat="37.9376137442886829376220703125" lon="-107.1325525827705860137939453125">
        <ele>3737.60009765625</ele>
        <time>2026-01-06T16:35:33.000Z</time>
        <extensions>
          <ns3:TrackPointExtension>
            <ns3:hr>88</ns3:hr>
            <ns3:cad>0</ns3:cad>
          </ns3:TrackPointExtension>
        </extensions>
      </trkpt>
      <trkpt lat="37.93762690387666225433349609375" lon="-107.13251243345439434051513671875">
        <ele>3737.60009765625</ele>
        <time>2026-01-06T16:35:39.000Z</time>
        <extensions>
          <ns3:TrackPointExtension>
            <ns3:hr>88</ns3:hr>
            <ns3:cad>0</ns3:cad>
          </ns3:TrackPointExtension>
        </extensions>
      </trkpt>
      <trkpt lat="37.93762925080955028533935546875" lon="-107.1324640698730945587158203125">
        <ele>3738</ele>
        <time>2026-01-06T16:35:45.000Z</time>
        <extensions>
          <ns3:TrackPointExtension>
            <ns3:hr>89</ns3:hr>
            <ns3:cad>0</ns3:cad>
          </ns3:TrackPointExtension>
        </extensions>
      </trkpt>
      <trkpt lat="37.93764081783592700958251953125" lon="-107.1324238367378711700439453125">
        <ele>3738.199951171875</ele>
        <time>2026-01-06T16:35:50.000Z</time>
        <extensions>
          <ns3:TrackPointExtension>
            <ns3:hr>89</ns3:hr>
            <ns3:cad>0</ns3:cad>
          </ns3:TrackPointExtension>
        </extensions>
      </trkpt>
      <trkpt lat="37.9376476071774959564208984375" lon="-107.13237999938428401947021484375">
        <ele>3738.199951171875</ele>
        <time>2026-01-06T16:35:55.000Z</time>
        <extensions>
          <ns3:TrackPointExtension>
            <ns3:hr>89</ns3:hr>
            <ns3:cad>0</ns3:cad>
          </ns3:TrackPointExtension>
        </extensions>
      </trkpt>
      <trkpt lat="37.937652133405208587646484375" lon="-107.1323537640273571014404296875">
        <ele>3738.39990234375</ele>
        <time>2026-01-06T16:35:58.000Z</time>
        <extensions>
          <ns3:TrackPointExtension>
            <ns3:hr>89</ns3:hr>
            <ns3:cad>0</ns3:cad>
          </ns3:TrackPointExtension>
        </extensions>
      </trkpt>
      <trkpt lat="37.9376556538045406341552734375" lon="-107.132332138717174530029296875">
        <ele>3738.60009765625</ele>
        <time>2026-01-06T16:36:00.000Z</time>
        <extensions>
          <ns3:TrackPointExtension>
            <ns3:hr>89</ns3:hr>
            <ns3:cad>0</ns3:cad>
          </ns3:TrackPointExtension>
        </extensions>
      </trkpt>
      <trkpt lat="37.937666885554790496826171875" lon="-107.1322739683091640472412109375">
        <ele>3738.39990234375</ele>
        <time>2026-01-06T16:36:06.000Z</time>
        <extensions>
          <ns3:TrackPointExtension>
            <ns3:hr>89</ns3:hr>
            <ns3:cad>0</ns3:cad>
          </ns3:TrackPointExtension>
        </extensions>
      </trkpt>
      <trkpt lat="37.9376833140850067138671875" lon="-107.132215462625026702880859375">
        <ele>3738.199951171875</ele>
        <time>2026-01-06T16:36:12.000Z</time>
        <extensions>
          <ns3:TrackPointExtension>
            <ns3:hr>89</ns3:hr>
            <ns3:cad>0</ns3:cad>
          </ns3:TrackPointExtension>
        </extensions>
      </trkpt>
      <trkpt lat="37.9376955516636371612548828125" lon="-107.13217715732753276824951171875">
        <ele>3738.60009765625</ele>
        <time>2026-01-06T16:36:18.000Z</time>
        <extensions>
          <ns3:TrackPointExtension>
            <ns3:hr>88</ns3:hr>
            <ns3:cad>0</ns3:cad>
          </ns3:TrackPointExtension>
        </extensions>
      </trkpt>
      <trkpt lat="37.9377049393951892852783203125" lon="-107.13215016759932041168212890625">
        <ele>3738.60009765625</ele>
        <time>2026-01-06T16:36:22.000Z</time>
        <extensions>
          <ns3:TrackPointExtension>
            <ns3:hr>87</ns3:hr>
            <ns3:cad>0</ns3:cad>
          </ns3:TrackPointExtension>
        </extensions>
      </trkpt>
      <trkpt lat="37.93770636431872844696044921875" lon="-107.132130302488803863525390625">
        <ele>3738.60009765625</ele>
        <time>2026-01-06T16:36:28.000Z</time>
        <extensions>
          <ns3:TrackPointExtension>
            <ns3:hr>87</ns3:hr>
            <ns3:cad>0</ns3:cad>
          </ns3:TrackPointExtension>
        </extensions>
      </trkpt>
      <trkpt lat="37.937718518078327178955078125" lon="-107.13207607157528400421142578125">
        <ele>3738.60009765625</ele>
        <time>2026-01-06T16:36:34.000Z</time>
        <extensions>
          <ns3:TrackPointExtension>
            <ns3:hr>87</ns3:hr>
            <ns3:cad>0</ns3:cad>
          </ns3:TrackPointExtension>
        </extensions>
      </trkpt>
      <trkpt lat="37.93773352168500423431396484375" lon="-107.132032401859760284423828125">
        <ele>3738.800048828125</ele>
        <time>2026-01-06T16:36:39.000Z</time>
        <extensions>
          <ns3:TrackPointExtension>
            <ns3:hr>87</ns3:hr>
            <ns3:cad>0</ns3:cad>
          </ns3:TrackPointExtension>
        </extensions>
      </trkpt>
      <trkpt lat="37.937734611332416534423828125" lon="-107.1320261992514133453369140625">
        <ele>3738.800048828125</ele>
        <time>2026-01-06T16:36:40.000Z</time>
        <extensions>
          <ns3:TrackPointExtension>
            <ns3:hr>90</ns3:hr>
            <ns3:cad>0</ns3:cad>
          </ns3:TrackPointExtension>
        </extensions>
      </trkpt>
      <trkpt lat="37.937736622989177703857421875" lon="-107.1320164762437343597412109375">
        <ele>3738.39990234375</ele>
        <time>2026-01-06T16:36:44.000Z</time>
        <extensions>
          <ns3:TrackPointExtension>
            <ns3:hr>91</ns3:hr>
            <ns3:cad>0</ns3:cad>
          </ns3:TrackPointExtension>
        </extensions>
      </trkpt>
      <trkpt lat="37.9377411492168903350830078125" lon="-107.1319665201008319854736328125">
        <ele>3738.60009765625</ele>
        <time>2026-01-06T16:36:50.000Z</time>
        <extensions>
          <ns3:TrackPointExtension>
            <ns3:hr>92</ns3:hr>
            <ns3:cad>0</ns3:cad>
          </ns3:TrackPointExtension>
        </extensions>
      </trkpt>
      <trkpt lat="37.9377495311200618743896484375" lon="-107.131925113499164581298828125">
        <ele>3739</ele>
        <time>2026-01-06T16:36:55.000Z</time>
        <extensions>
          <ns3:TrackPointExtension>
            <ns3:hr>92</ns3:hr>
            <ns3:cad>0</ns3:cad>
          </ns3:TrackPointExtension>
        </extensions>
      </trkpt>
      <trkpt lat="37.93775883503258228302001953125" lon="-107.1318850480020046234130859375">
        <ele>3739</ele>
        <time>2026-01-06T16:37:00.000Z</time>
        <extensions>
          <ns3:TrackPointExtension>
            <ns3:hr>91</ns3:hr>
            <ns3:cad>0</ns3:cad>
          </ns3:TrackPointExtension>
        </extensions>
      </trkpt>
      <trkpt lat="37.937764786183834075927734375" lon="-107.13183919899165630340576171875">
        <ele>3739</ele>
        <time>2026-01-06T16:37:05.000Z</time>
        <extensions>
          <ns3:TrackPointExtension>
            <ns3:hr>90</ns3:hr>
            <ns3:cad>40</ns3:cad>
          </ns3:TrackPointExtension>
        </extensions>
      </trkpt>
      <trkpt lat="37.93776973150670528411865234375" lon="-107.13179804384708404541015625">
        <ele>3738.800048828125</ele>
        <time>2026-01-06T16:37:11.000Z</time>
        <extensions>
          <ns3:TrackPointExtension>
            <ns3:hr>89</ns3:hr>
            <ns3:cad>40</ns3:cad>
          </ns3:TrackPointExtension>
        </extensions>
      </trkpt>
      <trkpt lat="37.9377703182399272918701171875" lon="-107.131793685257434844970703125">
        <ele>3738.800048828125</ele>
        <time>2026-01-06T16:37:12.000Z</time>
        <extensions>
          <ns3:TrackPointExtension>
            <ns3:hr>88</ns3:hr>
            <ns3:cad>0</ns3:cad>
          </ns3:TrackPointExtension>
        </extensions>
      </trkpt>
      <trkpt lat="37.9377753473818302154541015625" lon="-107.131759487092494964599609375">
        <ele>3738.800048828125</ele>
        <time>2026-01-06T16:37:17.000Z</time>
        <extensions>
          <ns3:TrackPointExtension>
            <ns3:hr>88</ns3:hr>
            <ns3:cad>0</ns3:cad>
          </ns3:TrackPointExtension>
        </extensions>
      </trkpt>
      <trkpt lat="37.9377771914005279541015625" lon="-107.13173023425042629241943359375">
        <ele>3738.800048828125</ele>
        <time>2026-01-06T16:37:22.000Z</time>
        <extensions>
          <ns3:TrackPointExtension>
            <ns3:hr>91</ns3:hr>
            <ns3:cad>0</ns3:cad>
          </ns3:TrackPointExtension>
        </extensions>
      </trkpt>
      <trkpt lat="37.9377766884863376617431640625" lon="-107.13172101415693759918212890625">
        <ele>3739</ele>
        <time>2026-01-06T16:37:24.000Z</time>
        <extensions>
          <ns3:TrackPointExtension>
            <ns3:hr>93</ns3:hr>
            <ns3:cad>0</ns3:cad>
          </ns3:TrackPointExtension>
        </extensions>
      </trkpt>
      <trkpt lat="37.93777777813374996185302734375" lon="-107.13171313516795635223388671875">
        <ele>3739</ele>
        <time>2026-01-06T16:37:25.000Z</time>
        <extensions>
          <ns3:TrackPointExtension>
            <ns3:hr>96</ns3:hr>
            <ns3:cad>0</ns3:cad>
          </ns3:TrackPointExtension>
        </extensions>
      </trkpt>
      <trkpt lat="37.93779437430202960968017578125" lon="-107.1316734887659549713134765625">
        <ele>3739</ele>
        <time>2026-01-06T16:37:31.000Z</time>
        <extensions>
          <ns3:TrackPointExtension>
            <ns3:hr>97</ns3:hr>
            <ns3:cad>57</ns3:cad>
          </ns3:TrackPointExtension>
        </extensions>
      </trkpt>
      <trkpt lat="37.93780141510069370269775390625" lon="-107.131639458239078521728515625">
        <ele>3739.199951171875</ele>
        <time>2026-01-06T16:37:36.000Z</time>
        <extensions>
          <ns3:TrackPointExtension>
            <ns3:hr>96</ns3:hr>
            <ns3:cad>0</ns3:cad>
          </ns3:TrackPointExtension>
        </extensions>
      </trkpt>
      <trkpt lat="37.937807030975818634033203125" lon="-107.1316109597682952880859375">
        <ele>3739.199951171875</ele>
        <time>2026-01-06T16:37:42.000Z</time>
        <extensions>
          <ns3:TrackPointExtension>
            <ns3:hr>96</ns3:hr>
            <ns3:cad>0</ns3:cad>
          </ns3:TrackPointExtension>
        </extensions>
      </trkpt>
      <trkpt lat="37.93782471679151058197021484375" lon="-107.13156200945377349853515625">
        <ele>3739.199951171875</ele>
        <time>2026-01-06T16:37:48.000Z</time>
        <extensions>
          <ns3:TrackPointExtension>
            <ns3:hr>95</ns3:hr>
            <ns3:cad>0</ns3:cad>
          </ns3:TrackPointExtension>
        </extensions>
      </trkpt>
      <trkpt lat="37.9378222860395908355712890625" lon="-107.13155806995928287506103515625">
        <ele>3739</ele>
        <time>2026-01-06T16:37:50.000Z</time>
        <extensions>
          <ns3:TrackPointExtension>
            <ns3:hr>95</ns3:hr>
            <ns3:cad>61</ns3:cad>
          </ns3:TrackPointExtension>
        </extensions>
      </trkpt>
      <trkpt lat="37.93782052583992481231689453125" lon="-107.1315581537783145904541015625">
        <ele>3739</ele>
        <time>2026-01-06T16:37:56.000Z</time>
        <extensions>
          <ns3:TrackPointExtension>
            <ns3:hr>95</ns3:hr>
            <ns3:cad>0</ns3:cad>
          </ns3:TrackPointExtension>
        </extensions>
      </trkpt>
      <trkpt lat="37.93782052583992481231689453125" lon="-107.1315581537783145904541015625">
        <ele>3739</ele>
        <time>2026-01-06T16:38:01.000Z</time>
        <extensions>
          <ns3:TrackPointExtension>
            <ns3:hr>96</ns3:hr>
            <ns3:cad>0</ns3:cad>
          </ns3:TrackPointExtension>
        </extensions>
      </trkpt>
      <trkpt lat="37.93782052583992481231689453125" lon="-107.1315581537783145904541015625">
        <ele>3739.199951171875</ele>
        <time>2026-01-06T16:38:03.000Z</time>
        <extensions>
          <ns3:TrackPointExtension>
            <ns3:hr>105</ns3:hr>
            <ns3:cad>0</ns3:cad>
          </ns3:TrackPointExtension>
        </extensions>
      </trkpt>
      <trkpt lat="37.93782052583992481231689453125" lon="-107.1315581537783145904541015625">
        <ele>3739.199951171875</ele>
        <time>2026-01-06T16:38:04.000Z</time>
        <extensions>
          <ns3:TrackPointExtension>
            <ns3:hr>112</ns3:hr>
            <ns3:cad>0</ns3:cad>
          </ns3:TrackPointExtension>
        </extensions>
      </trkpt>
      <trkpt lat="37.93782052583992481231689453125" lon="-107.1315581537783145904541015625">
        <ele>3739.39990234375</ele>
        <time>2026-01-06T16:38:10.000Z</time>
        <extensions>
          <ns3:TrackPointExtension>
            <ns3:hr>114</ns3:hr>
            <ns3:cad>0</ns3:cad>
          </ns3:TrackPointExtension>
        </extensions>
      </trkpt>
      <trkpt lat="37.93782052583992481231689453125" lon="-107.1315581537783145904541015625">
        <ele>3739.199951171875</ele>
        <time>2026-01-06T16:38:16.000Z</time>
        <extensions>
          <ns3:TrackPointExtension>
            <ns3:hr>112</ns3:hr>
            <ns3:cad>0</ns3:cad>
          </ns3:TrackPointExtension>
        </extensions>
      </trkpt>
      <trkpt lat="37.93782052583992481231689453125" lon="-107.1315581537783145904541015625">
        <ele>3739.199951171875</ele>
        <time>2026-01-06T16:38:17.000Z</time>
        <extensions>
          <ns3:TrackPointExtension>
            <ns3:hr>112</ns3:hr>
            <ns3:cad>0</ns3:cad>
          </ns3:TrackPointExtension>
        </extensions>
      </trkpt>
      <trkpt lat="37.93781884945929050445556640625" lon="-107.13155019097030162811279296875">
        <ele>3739</ele>
        <time>2026-01-06T16:38:23.000Z</time>
        <extensions>
          <ns3:TrackPointExtension>
            <ns3:hr>113</ns3:hr>
            <ns3:cad>0</ns3:cad>
          </ns3:TrackPointExtension>
        </extensions>
      </trkpt>
      <trkpt lat="37.93781809508800506591796875" lon="-107.13154583238065242767333984375">
        <ele>3739.199951171875</ele>
        <time>2026-01-06T16:38:24.000Z</time>
        <extensions>
          <ns3:TrackPointExtension>
            <ns3:hr>113</ns3:hr>
            <ns3:cad>0</ns3:cad>
          </ns3:TrackPointExtension>
        </extensions>
      </trkpt>
      <trkpt lat="37.9378226213157176971435546875" lon="-107.13149470277130603790283203125">
        <ele>3739.39990234375</ele>
        <time>2026-01-06T16:38:30.000Z</time>
        <extensions>
          <ns3:TrackPointExtension>
            <ns3:hr>112</ns3:hr>
            <ns3:cad>0</ns3:cad>
          </ns3:TrackPointExtension>
        </extensions>
      </trkpt>
      <trkpt lat="37.937822453677654266357421875" lon="-107.1314800344407558441162109375">
        <ele>3739.39990234375</ele>
        <time>2026-01-06T16:38:31.000Z</time>
        <extensions>
          <ns3:TrackPointExtension>
            <ns3:hr>111</ns3:hr>
            <ns3:cad>0</ns3:cad>
          </ns3:TrackPointExtension>
        </extensions>
      </trkpt>
      <trkpt lat="37.93782404623925685882568359375" lon="-107.13146603666245937347412109375">
        <ele>3739.39990234375</ele>
        <time>2026-01-06T16:38:33.000Z</time>
        <extensions>
          <ns3:TrackPointExtension>
            <ns3:hr>110</ns3:hr>
            <ns3:cad>0</ns3:cad>
          </ns3:TrackPointExtension>
        </extensions>
      </trkpt>
      <trkpt lat="37.9378330148756504058837890625" lon="-107.131440974771976470947265625">
        <ele>3739.39990234375</ele>
        <time>2026-01-06T16:38:36.000Z</time>
        <extensions>
          <ns3:TrackPointExtension>
            <ns3:hr>110</ns3:hr>
            <ns3:cad>0</ns3:cad>
          </ns3:TrackPointExtension>
        </extensions>
      </trkpt>
      <trkpt lat="37.93783812783658504486083984375" lon="-107.1314044296741485595703125">
        <ele>3739.199951171875</ele>
        <time>2026-01-06T16:38:41.000Z</time>
        <extensions>
          <ns3:TrackPointExtension>
            <ns3:hr>107</ns3:hr>
            <ns3:cad>0</ns3:cad>
          </ns3:TrackPointExtension>
        </extensions>
      </trkpt>
      <trkpt lat="37.93784089386463165283203125" lon="-107.13138456456363201141357421875">
        <ele>3739.199951171875</ele>
        <time>2026-01-06T16:38:43.000Z</time>
        <extensions>
          <ns3:TrackPointExtension>
            <ns3:hr>106</ns3:hr>
            <ns3:cad>0</ns3:cad>
          </ns3:TrackPointExtension>
        </extensions>
      </trkpt>
      <trkpt lat="37.93784969486296176910400390625" lon="-107.131339721381664276123046875">
        <ele>3739.60009765625</ele>
        <time>2026-01-06T16:38:49.000Z</time>
        <extensions>
          <ns3:TrackPointExtension>
            <ns3:hr>105</ns3:hr>
            <ns3:cad>0</ns3:cad>
          </ns3:TrackPointExtension>
        </extensions>
      </trkpt>
      <trkpt lat="37.93785019777715206146240234375" lon="-107.1313293278217315673828125">
        <ele>3739.60009765625</ele>
        <time>2026-01-06T16:38:50.000Z</time>
        <extensions>
          <ns3:TrackPointExtension>
            <ns3:hr>106</ns3:hr>
            <ns3:cad>0</ns3:cad>
          </ns3:TrackPointExtension>
        </extensions>
      </trkpt>
      <trkpt lat="37.93785162270069122314453125" lon="-107.13128783740103244781494140625">
        <ele>3739.39990234375</ele>
        <time>2026-01-06T16:38:56.000Z</time>
        <extensions>
          <ns3:TrackPointExtension>
            <ns3:hr>106</ns3:hr>
            <ns3:cad>0</ns3:cad>
          </ns3:TrackPointExtension>
        </extensions>
      </trkpt>
      <trkpt lat="37.93784894049167633056640625" lon="-107.1312805451452732086181640625">
        <ele>3739.39990234375</ele>
        <time>2026-01-06T16:38:57.000Z</time>
        <extensions>
          <ns3:TrackPointExtension>
            <ns3:hr>106</ns3:hr>
            <ns3:cad>0</ns3:cad>
          </ns3:TrackPointExtension>
        </extensions>
      </trkpt>
      <trkpt lat="37.93784416280686855316162109375" lon="-107.1312393061816692352294921875">
        <ele>3739.800048828125</ele>
        <time>2026-01-06T16:39:03.000Z</time>
        <extensions>
          <ns3:TrackPointExtension>
            <ns3:hr>106</ns3:hr>
            <ns3:cad>0</ns3:cad>
          </ns3:TrackPointExtension>
        </extensions>
      </trkpt>
      <trkpt lat="37.93784181587398052215576171875" lon="-107.1312198601663112640380859375">
        <ele>3739.800048828125</ele>
        <time>2026-01-06T16:39:05.000Z</time>
        <extensions>
          <ns3:TrackPointExtension>
            <ns3:hr>105</ns3:hr>
            <ns3:cad>0</ns3:cad>
          </ns3:TrackPointExtension>
        </extensions>
      </trkpt>
      <trkpt lat="37.93785237707197666168212890625" lon="-107.13116831146180629730224609375">
        <ele>3739.800048828125</ele>
        <time>2026-01-06T16:39:11.000Z</time>
        <extensions>
          <ns3:TrackPointExtension>
            <ns3:hr>106</ns3:hr>
            <ns3:cad>0</ns3:cad>
          </ns3:TrackPointExtension>
        </extensions>
      </trkpt>
      <trkpt lat="37.9378571547567844390869140625" lon="-107.131132185459136962890625">
        <ele>3739.800048828125</ele>
        <time>2026-01-06T16:39:17.000Z</time>
        <extensions>
          <ns3:TrackPointExtension>
            <ns3:hr>107</ns3:hr>
            <ns3:cad>0</ns3:cad>
          </ns3:TrackPointExtension>
        </extensions>
      </trkpt>
      <trkpt lat="37.9378591664135456085205078125" lon="-107.131125144660472869873046875">
        <ele>3740</ele>
        <time>2026-01-06T16:39:18.000Z</time>
        <extensions>
          <ns3:TrackPointExtension>
            <ns3:hr>107</ns3:hr>
            <ns3:cad>0</ns3:cad>
          </ns3:TrackPointExtension>
        </extensions>
      </trkpt>
      <trkpt lat="37.93786905705928802490234375" lon="-107.1310783736407756805419921875">
        <ele>3740</ele>
        <time>2026-01-06T16:39:24.000Z</time>
        <extensions>
          <ns3:TrackPointExtension>
            <ns3:hr>108</ns3:hr>
            <ns3:cad>41</ns3:cad>
          </ns3:TrackPointExtension>
        </extensions>
      </trkpt>
      <trkpt lat="37.93787299655377864837646484375" lon="-107.131035961210727691650390625">
        <ele>3740</ele>
        <time>2026-01-06T16:39:29.000Z</time>
        <extensions>
          <ns3:TrackPointExtension>
            <ns3:hr>111</ns3:hr>
            <ns3:cad>0</ns3:cad>
          </ns3:TrackPointExtension>
        </extensions>
      </trkpt>
      <trkpt lat="37.93787282891571521759033203125" lon="-107.13103353045880794525146484375">
        <ele>3740.199951171875</ele>
        <time>2026-01-06T16:39:30.000Z</time>
        <extensions>
          <ns3:TrackPointExtension>
            <ns3:hr>112</ns3:hr>
            <ns3:cad>0</ns3:cad>
          </ns3:TrackPointExtension>
        </extensions>
      </trkpt>
      <trkpt lat="37.93787308037281036376953125" lon="-107.1310156770050525665283203125">
        <ele>3740.39990234375</ele>
        <time>2026-01-06T16:39:32.000Z</time>
        <extensions>
          <ns3:TrackPointExtension>
            <ns3:hr>113</ns3:hr>
            <ns3:cad>0</ns3:cad>
          </ns3:TrackPointExtension>
        </extensions>
      </trkpt>
      <trkpt lat="37.93787551112473011016845703125" lon="-107.1309871785342693328857421875">
        <ele>3740.39990234375</ele>
        <time>2026-01-06T16:39:36.000Z</time>
        <extensions>
          <ns3:TrackPointExtension>
            <ns3:hr>114</ns3:hr>
            <ns3:cad>0</ns3:cad>
          </ns3:TrackPointExtension>
        </extensions>
      </trkpt>
      <trkpt lat="37.93788271956145763397216796875" lon="-107.13094401173293590545654296875">
        <ele>3740.39990234375</ele>
        <time>2026-01-06T16:39:42.000Z</time>
        <extensions>
          <ns3:TrackPointExtension>
            <ns3:hr>115</ns3:hr>
            <ns3:cad>79</ns3:cad>
          </ns3:TrackPointExtension>
        </extensions>
      </trkpt>
      <trkpt lat="37.93789051473140716552734375" lon="-107.130889780819416046142578125">
        <ele>3740.800048828125</ele>
        <time>2026-01-06T16:39:48.000Z</time>
        <extensions>
          <ns3:TrackPointExtension>
            <ns3:hr>115</ns3:hr>
            <ns3:cad>76</ns3:cad>
          </ns3:TrackPointExtension>
        </extensions>
      </trkpt>
      <trkpt lat="37.93789428658783435821533203125" lon="-107.1308762021362781524658203125">
        <ele>3740.800048828125</ele>
        <time>2026-01-06T16:39:50.000Z</time>
        <extensions>
          <ns3:TrackPointExtension>
            <ns3:hr>116</ns3:hr>
            <ns3:cad>76</ns3:cad>
          </ns3:TrackPointExtension>
        </extensions>
      </trkpt>
      <trkpt lat="37.937897555530071258544921875" lon="-107.1308161877095699310302734375">
        <ele>3741.199951171875</ele>
        <time>2026-01-06T16:39:56.000Z</time>
        <extensions>
          <ns3:TrackPointExtension>
            <ns3:hr>115</ns3:hr>
            <ns3:cad>77</ns3:cad>
          </ns3:TrackPointExtension>
        </extensions>
      </trkpt>
      <trkpt lat="37.93789361603558063507080078125" lon="-107.1307635493576526641845703125">
        <ele>3740.800048828125</ele>
        <time>2026-01-06T16:40:02.000Z</time>
        <extensions>
          <ns3:TrackPointExtension>
            <ns3:hr>115</ns3:hr>
            <ns3:cad>40</ns3:cad>
          </ns3:TrackPointExtension>
        </extensions>
      </trkpt>
      <trkpt lat="37.9378910176455974578857421875" lon="-107.1307642199099063873291015625">
        <ele>3740.800048828125</ele>
        <time>2026-01-06T16:40:03.000Z</time>
        <extensions>
          <ns3:TrackPointExtension>
            <ns3:hr>116</ns3:hr>
            <ns3:cad>40</ns3:cad>
          </ns3:TrackPointExtension>
        </extensions>
      </trkpt>
      <trkpt lat="37.937892191112041473388671875" lon="-107.13072574697434902191162109375">
        <ele>3741.199951171875</ele>
        <time>2026-01-06T16:40:08.000Z</time>
        <extensions>
          <ns3:TrackPointExtension>
            <ns3:hr>117</ns3:hr>
            <ns3:cad>0</ns3:cad>
          </ns3:TrackPointExtension>
        </extensions>
      </trkpt>
      <trkpt lat="37.93789126910269260406494140625" lon="-107.1307112462818622589111328125">
        <ele>3741.39990234375</ele>
        <time>2026-01-06T16:40:11.000Z</time>
        <extensions>
          <ns3:TrackPointExtension>
            <ns3:hr>117</ns3:hr>
            <ns3:cad>0</ns3:cad>
          </ns3:TrackPointExtension>
        </extensions>
      </trkpt>
      <trkpt lat="37.93788657523691654205322265625" lon="-107.13068350218236446380615234375">
        <ele>3741.60009765625</ele>
        <time>2026-01-06T16:40:14.000Z</time>
        <extensions>
          <ns3:TrackPointExtension>
            <ns3:hr>117</ns3:hr>
            <ns3:cad>0</ns3:cad>
          </ns3:TrackPointExtension>
        </extensions>
      </trkpt>
      <trkpt lat="37.93788858689367771148681640625" lon="-107.13068400509655475616455078125">
        <ele>3741.199951171875</ele>
        <time>2026-01-06T16:40:20.000Z</time>
        <extensions>
          <ns3:TrackPointExtension>
            <ns3:hr>116</ns3:hr>
            <ns3:cad>0</ns3:cad>
          </ns3:TrackPointExtension>
        </extensions>
      </trkpt>
      <trkpt lat="37.9378816299140453338623046875" lon="-107.13064846582710742950439453125">
        <ele>3741.39990234375</ele>
        <time>2026-01-06T16:40:25.000Z</time>
        <extensions>
          <ns3:TrackPointExtension>
            <ns3:hr>113</ns3:hr>
            <ns3:cad>0</ns3:cad>
          </ns3:TrackPointExtension>
        </extensions>
      </trkpt>
      <trkpt lat="37.93787668459117412567138671875" lon="-107.130634970963001251220703125">
        <ele>3741.39990234375</ele>
        <time>2026-01-06T16:40:27.000Z</time>
        <extensions>
          <ns3:TrackPointExtension>
            <ns3:hr>112</ns3:hr>
            <ns3:cad>0</ns3:cad>
          </ns3:TrackPointExtension>
        </extensions>
      </trkpt>
      <trkpt lat="37.9378737509250640869140625" lon="-107.13059918023645877838134765625">
        <ele>3741.800048828125</ele>
        <time>2026-01-06T16:40:33.000Z</time>
        <extensions>
          <ns3:TrackPointExtension>
            <ns3:hr>112</ns3:hr>
            <ns3:cad>0</ns3:cad>
          </ns3:TrackPointExtension>
        </extensions>
      </trkpt>
      <trkpt lat="37.93787467293441295623779296875" lon="-107.13058828376233577728271484375">
        <ele>3741.800048828125</ele>
        <time>2026-01-06T16:40:34.000Z</time>
        <extensions>
          <ns3:TrackPointExtension>
            <ns3:hr>112</ns3:hr>
            <ns3:cad>0</ns3:cad>
          </ns3:TrackPointExtension>
        </extensions>
      </trkpt>
      <trkpt lat="37.93787567876279354095458984375" lon="-107.1305405907332897186279296875">
        <ele>3742</ele>
        <time>2026-01-06T16:40:40.000Z</time>
        <extensions>
          <ns3:TrackPointExtension>
            <ns3:hr>113</ns3:hr>
            <ns3:cad>0</ns3:cad>
          </ns3:TrackPointExtension>
        </extensions>
      </trkpt>
      <trkpt lat="37.93787433765828609466552734375" lon="-107.13053145445883274078369140625">
        <ele>3742</ele>
        <time>2026-01-06T16:40:41.000Z</time>
        <extensions>
          <ns3:TrackPointExtension>
            <ns3:hr>114</ns3:hr>
            <ns3:cad>0</ns3:cad>
          </ns3:TrackPointExtension>
        </extensions>
      </trkpt>
      <trkpt lat="37.9378705658018589019775390625" lon="-107.1305047161877155303955078125">
        <ele>3742</ele>
        <time>2026-01-06T16:40:46.000Z</time>
        <extensions>
          <ns3:TrackPointExtension>
            <ns3:hr>114</ns3:hr>
            <ns3:cad>0</ns3:cad>
          </ns3:TrackPointExtension>
        </extensions>
      </trkpt>
      <trkpt lat="37.93786964379251003265380859375" lon="-107.130479402840137481689453125">
        <ele>3742.60009765625</ele>
        <time>2026-01-06T16:40:49.000Z</time>
        <extensions>
          <ns3:TrackPointExtension>
            <ns3:hr>113</ns3:hr>
            <ns3:cad>0</ns3:cad>
          </ns3:TrackPointExtension>
        </extensions>
      </trkpt>
      <trkpt lat="37.937875092029571533203125" lon="-107.13043506257236003875732421875">
        <ele>3742.800048828125</ele>
        <time>2026-01-06T16:40:54.000Z</time>
        <extensions>
          <ns3:TrackPointExtension>
            <ns3:hr>113</ns3:hr>
            <ns3:cad>0</ns3:cad>
          </ns3:TrackPointExtension>
        </extensions>
      </trkpt>
      <trkpt lat="37.937880121171474456787109375" lon="-107.13037890382111072540283203125">
        <ele>3743.39990234375</ele>
        <time>2026-01-06T16:41:00.000Z</time>
        <extensions>
          <ns3:TrackPointExtension>
            <ns3:hr>112</ns3:hr>
            <ns3:cad>42</ns3:cad>
          </ns3:TrackPointExtension>
        </extensions>
      </trkpt>
      <trkpt lat="37.93788070790469646453857421875" lon="-107.1303719468414783477783203125">
        <ele>3743.60009765625</ele>
        <time>2026-01-06T16:41:01.000Z</time>
        <extensions>
          <ns3:TrackPointExtension>
            <ns3:hr>113</ns3:hr>
            <ns3:cad>42</ns3:cad>
          </ns3:TrackPointExtension>
        </extensions>
      </trkpt>
      <trkpt lat="37.937886826694011688232421875" lon="-107.1303343959152698516845703125">
        <ele>3743.800048828125</ele>
        <time>2026-01-06T16:41:04.000Z</time>
        <extensions>
          <ns3:TrackPointExtension>
            <ns3:hr>112</ns3:hr>
            <ns3:cad>47</ns3:cad>
          </ns3:TrackPointExtension>
        </extensions>
      </trkpt>
      <trkpt lat="37.937893532216548919677734375" lon="-107.13027496822178363800048828125">
        <ele>3744</ele>
        <time>2026-01-06T16:41:10.000Z</time>
        <extensions>
          <ns3:TrackPointExtension>
            <ns3:hr>111</ns3:hr>
            <ns3:cad>0</ns3:cad>
          </ns3:TrackPointExtension>
        </extensions>
      </trkpt>
      <trkpt lat="37.937900908291339874267578125" lon="-107.1302224136888980865478515625">
        <ele>3744.199951171875</ele>
        <time>2026-01-06T16:41:15.000Z</time>
        <extensions>
          <ns3:TrackPointExtension>
            <ns3:hr>111</ns3:hr>
            <ns3:cad>0</ns3:cad>
          </ns3:TrackPointExtension>
        </extensions>
      </trkpt>
      <trkpt lat="37.93790954165160655975341796875" lon="-107.130185700953006744384765625">
        <ele>3744.60009765625</ele>
        <time>2026-01-06T16:41:19.000Z</time>
        <extensions>
          <ns3:TrackPointExtension>
            <ns3:hr>111</ns3:hr>
            <ns3:cad>48</ns3:cad>
          </ns3:TrackPointExtension>
        </extensions>
      </trkpt>
      <trkpt lat="37.93791373260319232940673828125" lon="-107.130165584385395050048828125">
        <ele>3744.800048828125</ele>
        <time>2026-01-06T16:41:21.000Z</time>
        <extensions>
          <ns3:TrackPointExtension>
            <ns3:hr>110</ns3:hr>
            <ns3:cad>48</ns3:cad>
          </ns3:TrackPointExtension>
        </extensions>
      </trkpt>
      <trkpt lat="37.9379193484783172607421875" lon="-107.13012711144983768463134765625">
        <ele>3744.800048828125</ele>
        <time>2026-01-06T16:41:27.000Z</time>
        <extensions>
          <ns3:TrackPointExtension>
            <ns3:hr>110</ns3:hr>
            <ns3:cad>0</ns3:cad>
          </ns3:TrackPointExtension>
        </extensions>
      </trkpt>
      <trkpt lat="37.937921695411205291748046875" lon="-107.13011671788990497589111328125">
        <ele>3744.800048828125</ele>
        <time>2026-01-06T16:41:28.000Z</time>
        <extensions>
          <ns3:TrackPointExtension>
            <ns3:hr>110</ns3:hr>
            <ns3:cad>0</ns3:cad>
          </ns3:TrackPointExtension>
        </extensions>
      </trkpt>
      <trkpt lat="37.93793468736112117767333984375" lon="-107.13007070124149322509765625">
        <ele>3745</ele>
        <time>2026-01-06T16:41:34.000Z</time>
        <extensions>
          <ns3:TrackPointExtension>
            <ns3:hr>112</ns3:hr>
            <ns3:cad>0</ns3:cad>
          </ns3:TrackPointExtension>
        </extensions>
      </trkpt>
      <trkpt lat="37.9379376210272312164306640625" lon="-107.13005955331027507781982421875">
        <ele>3745</ele>
        <time>2026-01-06T16:41:35.000Z</time>
        <extensions>
          <ns3:TrackPointExtension>
            <ns3:hr>113</ns3:hr>
            <ns3:cad>0</ns3:cad>
          </ns3:TrackPointExtension>
        </extensions>
      </trkpt>
      <trkpt lat="37.93794952332973480224609375" lon="-107.13000875897705554962158203125">
        <ele>3745.199951171875</ele>
        <time>2026-01-06T16:41:41.000Z</time>
        <extensions>
          <ns3:TrackPointExtension>
            <ns3:hr>115</ns3:hr>
            <ns3:cad>76</ns3:cad>
          </ns3:TrackPointExtension>
        </extensions>
      </trkpt>
      <trkpt lat="37.93796025216579437255859375" lon="-107.12995469570159912109375">
        <ele>3745.199951171875</ele>
        <time>2026-01-06T16:41:47.000Z</time>
        <extensions>
          <ns3:TrackPointExtension>
            <ns3:hr>116</ns3:hr>
            <ns3:cad>0</ns3:cad>
          </ns3:TrackPointExtension>
        </extensions>
      </trkpt>
      <trkpt lat="37.93796184472739696502685546875" lon="-107.1299377642571926116943359375">
        <ele>3745.39990234375</ele>
        <time>2026-01-06T16:41:48.000Z</time>
        <extensions>
          <ns3:TrackPointExtension>
            <ns3:hr>117</ns3:hr>
            <ns3:cad>0</ns3:cad>
          </ns3:TrackPointExtension>
        </extensions>
      </trkpt>
      <trkpt lat="37.93796737678349018096923828125" lon="-107.1298982016742229461669921875">
        <ele>3745.39990234375</ele>
        <time>2026-01-06T16:41:53.000Z</time>
        <extensions>
          <ns3:TrackPointExtension>
            <ns3:hr>117</ns3:hr>
            <ns3:cad>0</ns3:cad>
          </ns3:TrackPointExtension>
        </extensions>
      </trkpt>
      <trkpt lat="37.9379731602966785430908203125" lon="-107.12984531186521053314208984375">
        <ele>3745.199951171875</ele>
        <time>2026-01-06T16:41:58.000Z</time>
        <extensions>
          <ns3:TrackPointExtension>
            <ns3:hr>117</ns3:hr>
            <ns3:cad>0</ns3:cad>
          </ns3:TrackPointExtension>
        </extensions>
      </trkpt>
      <trkpt lat="37.93798196129500865936279296875" lon="-107.12979200296103954315185546875">
        <ele>3745.199951171875</ele>
        <time>2026-01-06T16:42:04.000Z</time>
        <extensions>
          <ns3:TrackPointExtension>
            <ns3:hr>116</ns3:hr>
            <ns3:cad>0</ns3:cad>
          </ns3:TrackPointExtension>
        </extensions>
      </trkpt>
      <trkpt lat="37.93799269013106822967529296875" lon="-107.12976166047155857086181640625">
        <ele>3745.199951171875</ele>
        <time>2026-01-06T16:42:06.000Z</time>
        <extensions>
          <ns3:TrackPointExtension>
            <ns3:hr>116</ns3:hr>
            <ns3:cad>0</ns3:cad>
          </ns3:TrackPointExtension>
        </extensions>
      </trkpt>
      <trkpt lat="37.93799621053040027618408203125" lon="-107.1297248639166355133056640625">
        <ele>3745.800048828125</ele>
        <time>2026-01-06T16:42:10.000Z</time>
        <extensions>
          <ns3:TrackPointExtension>
            <ns3:hr>114</ns3:hr>
            <ns3:cad>0</ns3:cad>
          </ns3:TrackPointExtension>
        </extensions>
      </trkpt>
      <trkpt lat="37.9379998147487640380859375" lon="-107.1297181583940982818603515625">
        <ele>3746</ele>
        <time>2026-01-06T16:42:11.000Z</time>
        <extensions>
          <ns3:TrackPointExtension>
            <ns3:hr>114</ns3:hr>
            <ns3:cad>0</ns3:cad>
          </ns3:TrackPointExtension>
        </extensions>
      </trkpt>
      <trkpt lat="37.93801347725093364715576171875" lon="-107.12965185754001140594482421875">
        <ele>3745.60009765625</ele>
        <time>2026-01-06T16:42:17.000Z</time>
        <extensions>
          <ns3:TrackPointExtension>
            <ns3:hr>112</ns3:hr>
            <ns3:cad>45</ns3:cad>
          </ns3:TrackPointExtension>
        </extensions>
      </trkpt>
      <trkpt lat="37.93801791965961456298828125" lon="-107.12964330799877643585205078125">
        <ele>3745.60009765625</ele>
        <time>2026-01-06T16:42:18.000Z</time>
        <extensions>
          <ns3:TrackPointExtension>
            <ns3:hr>112</ns3:hr>
            <ns3:cad>48</ns3:cad>
          </ns3:TrackPointExtension>
        </extensions>
      </trkpt>
      <trkpt lat="37.9380241222679615020751953125" lon="-107.12959603406488895416259765625">
        <ele>3745.800048828125</ele>
        <time>2026-01-06T16:42:24.000Z</time>
        <extensions>
          <ns3:TrackPointExtension>
            <ns3:hr>110</ns3:hr>
            <ns3:cad>0</ns3:cad>
          </ns3:TrackPointExtension>
        </extensions>
      </trkpt>
      <trkpt lat="37.9380244575440883636474609375" lon="-107.12959100492298603057861328125">
        <ele>3746</ele>
        <time>2026-01-06T16:42:25.000Z</time>
        <extensions>
          <ns3:TrackPointExtension>
            <ns3:hr>109</ns3:hr>
            <ns3:cad>0</ns3:cad>
          </ns3:TrackPointExtension>
        </extensions>
      </trkpt>
      <trkpt lat="37.938017584383487701416015625" lon="-107.12958413176238536834716796875">
        <ele>3746</ele>
        <time>2026-01-06T16:42:26.000Z</time>
        <extensions>
          <ns3:TrackPointExtension>
            <ns3:hr>109</ns3:hr>
            <ns3:cad>0</ns3:cad>
          </ns3:TrackPointExtension>
        </extensions>
      </trkpt>
      <trkpt lat="37.93801062740385532379150390625" lon="-107.129559405148029327392578125">
        <ele>3745.800048828125</ele>
        <time>2026-01-06T16:42:31.000Z</time>
        <extensions>
          <ns3:TrackPointExtension>
            <ns3:hr>108</ns3:hr>
            <ns3:cad>0</ns3:cad>
          </ns3:TrackPointExtension>
        </extensions>
      </trkpt>
      <trkpt lat="37.9380097053945064544677734375" lon="-107.12953333742916584014892578125">
        <ele>3745.60009765625</ele>
        <time>2026-01-06T16:42:37.000Z</time>
        <extensions>
          <ns3:TrackPointExtension>
            <ns3:hr>107</ns3:hr>
            <ns3:cad>0</ns3:cad>
          </ns3:TrackPointExtension>
        </extensions>
      </trkpt>
      <trkpt lat="37.938008196651935577392578125" lon="-107.12953048758208751678466796875">
        <ele>3745.39990234375</ele>
        <time>2026-01-06T16:42:39.000Z</time>
        <extensions>
          <ns3:TrackPointExtension>
            <ns3:hr>107</ns3:hr>
            <ns3:cad>0</ns3:cad>
          </ns3:TrackPointExtension>
        </extensions>
      </trkpt>
      <trkpt lat="37.93800878338515758514404296875" lon="-107.1294972114264965057373046875">
        <ele>3745.199951171875</ele>
        <time>2026-01-06T16:42:45.000Z</time>
        <extensions>
          <ns3:TrackPointExtension>
            <ns3:hr>107</ns3:hr>
            <ns3:cad>0</ns3:cad>
          </ns3:TrackPointExtension>
        </extensions>
      </trkpt>
      <trkpt lat="37.9379973001778125762939453125" lon="-107.12946359999477863311767578125">
        <ele>3745</ele>
        <time>2026-01-06T16:42:51.000Z</time>
        <extensions>
          <ns3:TrackPointExtension>
            <ns3:hr>106</ns3:hr>
            <ns3:cad>0</ns3:cad>
          </ns3:TrackPointExtension>
        </extensions>
      </trkpt>
      <trkpt lat="37.9379973001778125762939453125" lon="-107.12946359999477863311767578125">
        <ele>3744.800048828125</ele>
        <time>2026-01-06T16:42:52.000Z</time>
        <extensions>
          <ns3:TrackPointExtension>
            <ns3:hr>106</ns3:hr>
            <ns3:cad>0</ns3:cad>
          </ns3:TrackPointExtension>
        </extensions>
      </trkpt>
      <trkpt lat="37.9379979707300662994384765625" lon="-107.129460833966732025146484375">
        <ele>3744.60009765625</ele>
        <time>2026-01-06T16:42:58.000Z</time>
        <extensions>
          <ns3:TrackPointExtension>
            <ns3:hr>107</ns3:hr>
            <ns3:cad>0</ns3:cad>
          </ns3:TrackPointExtension>
        </extensions>
      </trkpt>
      <trkpt lat="37.9379973001778125762939453125" lon="-107.12946359999477863311767578125">
        <ele>3744.800048828125</ele>
        <time>2026-01-06T16:43:03.000Z</time>
        <extensions>
          <ns3:TrackPointExtension>
            <ns3:hr>110</ns3:hr>
            <ns3:cad>0</ns3:cad>
          </ns3:TrackPointExtension>
        </extensions>
      </trkpt>
      <trkpt lat="37.9379973001778125762939453125" lon="-107.12946359999477863311767578125">
        <ele>3745</ele>
        <time>2026-01-06T16:43:06.000Z</time>
        <extensions>
          <ns3:TrackPointExtension>
            <ns3:hr>111</ns3:hr>
            <ns3:cad>0</ns3:cad>
          </ns3:TrackPointExtension>
        </extensions>
      </trkpt>
      <trkpt lat="37.9379973001778125762939453125" lon="-107.12946359999477863311767578125">
        <ele>3744.199951171875</ele>
        <time>2026-01-06T16:43:12.000Z</time>
        <extensions>
          <ns3:TrackPointExtension>
            <ns3:hr>112</ns3:hr>
            <ns3:cad>0</ns3:cad>
          </ns3:TrackPointExtension>
        </extensions>
      </trkpt>
      <trkpt lat="37.9379973001778125762939453125" lon="-107.12946359999477863311767578125">
        <ele>3744.39990234375</ele>
        <time>2026-01-06T16:43:14.000Z</time>
        <extensions>
          <ns3:TrackPointExtension>
            <ns3:hr>109</ns3:hr>
            <ns3:cad>0</ns3:cad>
          </ns3:TrackPointExtension>
        </extensions>
      </trkpt>
      <trkpt lat="37.9379973001778125762939453125" lon="-107.12946359999477863311767578125">
        <ele>3744.800048828125</ele>
        <time>2026-01-06T16:43:17.000Z</time>
        <extensions>
          <ns3:TrackPointExtension>
            <ns3:hr>106</ns3:hr>
            <ns3:cad>0</ns3:cad>
          </ns3:TrackPointExtension>
        </extensions>
      </trkpt>
      <trkpt lat="37.9379973001778125762939453125" lon="-107.12946359999477863311767578125">
        <ele>3744.800048828125</ele>
        <time>2026-01-06T16:43:19.000Z</time>
        <extensions>
          <ns3:TrackPointExtension>
            <ns3:hr>103</ns3:hr>
            <ns3:cad>0</ns3:cad>
          </ns3:TrackPointExtension>
        </extensions>
      </trkpt>
      <trkpt lat="37.9379973001778125762939453125" lon="-107.12946359999477863311767578125">
        <ele>3744.60009765625</ele>
        <time>2026-01-06T16:43:21.000Z</time>
        <extensions>
          <ns3:TrackPointExtension>
            <ns3:hr>100</ns3:hr>
            <ns3:cad>0</ns3:cad>
          </ns3:TrackPointExtension>
        </extensions>
      </trkpt>
      <trkpt lat="37.9379973001778125762939453125" lon="-107.12946359999477863311767578125">
        <ele>3745</ele>
        <time>2026-01-06T16:43:24.000Z</time>
        <extensions>
          <ns3:TrackPointExtension>
            <ns3:hr>97</ns3:hr>
            <ns3:cad>0</ns3:cad>
          </ns3:TrackPointExtension>
        </extensions>
      </trkpt>
      <trkpt lat="37.9379973001778125762939453125" lon="-107.12946359999477863311767578125">
        <ele>3745</ele>
        <time>2026-01-06T16:43:30.000Z</time>
        <extensions>
          <ns3:TrackPointExtension>
            <ns3:hr>99</ns3:hr>
            <ns3:cad>0</ns3:cad>
          </ns3:TrackPointExtension>
        </extensions>
      </trkpt>
      <trkpt lat="37.9379973001778125762939453125" lon="-107.12946359999477863311767578125">
        <ele>3745</ele>
        <time>2026-01-06T16:43:36.000Z</time>
        <extensions>
          <ns3:TrackPointExtension>
            <ns3:hr>98</ns3:hr>
            <ns3:cad>0</ns3:cad>
          </ns3:TrackPointExtension>
        </extensions>
      </trkpt>
      <trkpt lat="37.9379973001778125762939453125" lon="-107.12946359999477863311767578125">
        <ele>3745</ele>
        <time>2026-01-06T16:43:42.000Z</time>
        <extensions>
          <ns3:TrackPointExtension>
            <ns3:hr>95</ns3:hr>
            <ns3:cad>0</ns3:cad>
          </ns3:TrackPointExtension>
        </extensions>
      </trkpt>
      <trkpt lat="37.9379973001778125762939453125" lon="-107.12946359999477863311767578125">
        <ele>3745.199951171875</ele>
        <time>2026-01-06T16:43:48.000Z</time>
        <extensions>
          <ns3:TrackPointExtension>
            <ns3:hr>96</ns3:hr>
            <ns3:cad>0</ns3:cad>
          </ns3:TrackPointExtension>
        </extensions>
      </trkpt>
      <trkpt lat="37.9379973001778125762939453125" lon="-107.12946359999477863311767578125">
        <ele>3745.199951171875</ele>
        <time>2026-01-06T16:43:54.000Z</time>
        <extensions>
          <ns3:TrackPointExtension>
            <ns3:hr>94</ns3:hr>
            <ns3:cad>0</ns3:cad>
          </ns3:TrackPointExtension>
        </extensions>
      </trkpt>
      <trkpt lat="37.9379973001778125762939453125" lon="-107.12946359999477863311767578125">
        <ele>3745.39990234375</ele>
        <time>2026-01-06T16:43:55.000Z</time>
        <extensions>
          <ns3:TrackPointExtension>
            <ns3:hr>89</ns3:hr>
            <ns3:cad>0</ns3:cad>
          </ns3:TrackPointExtension>
        </extensions>
      </trkpt>
      <trkpt lat="37.9379973001778125762939453125" lon="-107.12946359999477863311767578125">
        <ele>3745.39990234375</ele>
        <time>2026-01-06T16:43:57.000Z</time>
        <extensions>
          <ns3:TrackPointExtension>
            <ns3:hr>86</ns3:hr>
            <ns3:cad>0</ns3:cad>
          </ns3:TrackPointExtension>
        </extensions>
      </trkpt>
      <trkpt lat="37.9379973001778125762939453125" lon="-107.12946359999477863311767578125">
        <ele>3745.60009765625</ele>
        <time>2026-01-06T16:44:01.000Z</time>
        <extensions>
          <ns3:TrackPointExtension>
            <ns3:hr>83</ns3:hr>
            <ns3:cad>0</ns3:cad>
          </ns3:TrackPointExtension>
        </extensions>
      </trkpt>
      <trkpt lat="37.9379973001778125762939453125" lon="-107.12946359999477863311767578125">
        <ele>3745.60009765625</ele>
        <time>2026-01-06T16:44:03.000Z</time>
        <extensions>
          <ns3:TrackPointExtension>
            <ns3:hr>83</ns3:hr>
            <ns3:cad>0</ns3:cad>
          </ns3:TrackPointExtension>
        </extensions>
      </trkpt>
      <trkpt lat="37.9379973001778125762939453125" lon="-107.12946359999477863311767578125">
        <ele>3746</ele>
        <time>2026-01-06T16:44:08.000Z</time>
        <extensions>
          <ns3:TrackPointExtension>
            <ns3:hr>82</ns3:hr>
            <ns3:cad>0</ns3:cad>
          </ns3:TrackPointExtension>
        </extensions>
      </trkpt>
      <trkpt lat="37.9379973001778125762939453125" lon="-107.12946359999477863311767578125">
        <ele>3746.39990234375</ele>
        <time>2026-01-06T16:44:13.000Z</time>
        <extensions>
          <ns3:TrackPointExtension>
            <ns3:hr>82</ns3:hr>
            <ns3:cad>0</ns3:cad>
          </ns3:TrackPointExtension>
        </extensions>
      </trkpt>
      <trkpt lat="37.93799654580652713775634765625" lon="-107.129458822309970855712890625">
        <ele>3746</ele>
        <time>2026-01-06T16:44:19.000Z</time>
        <extensions>
          <ns3:TrackPointExtension>
            <ns3:hr>82</ns3:hr>
            <ns3:cad>0</ns3:cad>
          </ns3:TrackPointExtension>
        </extensions>
      </trkpt>
      <trkpt lat="37.93799855746328830718994140625" lon="-107.1294610016047954559326171875">
        <ele>3746</ele>
        <time>2026-01-06T16:44:22.000Z</time>
        <extensions>
          <ns3:TrackPointExtension>
            <ns3:hr>81</ns3:hr>
            <ns3:cad>0</ns3:cad>
          </ns3:TrackPointExtension>
        </extensions>
      </trkpt>
      <trkpt lat="37.9379973001778125762939453125" lon="-107.12946359999477863311767578125">
        <ele>3746</ele>
        <time>2026-01-06T16:44:28.000Z</time>
        <extensions>
          <ns3:TrackPointExtension>
            <ns3:hr>80</ns3:hr>
            <ns3:cad>0</ns3:cad>
          </ns3:TrackPointExtension>
        </extensions>
      </trkpt>
      <trkpt lat="37.9379973001778125762939453125" lon="-107.12946359999477863311767578125">
        <ele>3745.800048828125</ele>
        <time>2026-01-06T16:44:31.000Z</time>
        <extensions>
          <ns3:TrackPointExtension>
            <ns3:hr>81</ns3:hr>
            <ns3:cad>0</ns3:cad>
          </ns3:TrackPointExtension>
        </extensions>
      </trkpt>
      <trkpt lat="37.9379973001778125762939453125" lon="-107.12946359999477863311767578125">
        <ele>3745.39990234375</ele>
        <time>2026-01-06T16:44:37.000Z</time>
        <extensions>
          <ns3:TrackPointExtension>
            <ns3:hr>82</ns3:hr>
            <ns3:cad>0</ns3:cad>
          </ns3:TrackPointExtension>
        </extensions>
      </trkpt>
      <trkpt lat="37.9379973001778125762939453125" lon="-107.12946359999477863311767578125">
        <ele>3745.39990234375</ele>
        <time>2026-01-06T16:44:40.000Z</time>
        <extensions>
          <ns3:TrackPointExtension>
            <ns3:hr>83</ns3:hr>
            <ns3:cad>0</ns3:cad>
          </ns3:TrackPointExtension>
        </extensions>
      </trkpt>
      <trkpt lat="37.9379973001778125762939453125" lon="-107.12946359999477863311767578125">
        <ele>3745.39990234375</ele>
        <time>2026-01-06T16:44:46.000Z</time>
        <extensions>
          <ns3:TrackPointExtension>
            <ns3:hr>82</ns3:hr>
            <ns3:cad>0</ns3:cad>
          </ns3:TrackPointExtension>
        </extensions>
      </trkpt>
      <trkpt lat="37.9379973001778125762939453125" lon="-107.12946359999477863311767578125">
        <ele>3745.39990234375</ele>
        <time>2026-01-06T16:44:52.000Z</time>
        <extensions>
          <ns3:TrackPointExtension>
            <ns3:hr>82</ns3:hr>
            <ns3:cad>0</ns3:cad>
          </ns3:TrackPointExtension>
        </extensions>
      </trkpt>
      <trkpt lat="37.9379973001778125762939453125" lon="-107.12946359999477863311767578125">
        <ele>3745.60009765625</ele>
        <time>2026-01-06T16:44:54.000Z</time>
        <extensions>
          <ns3:TrackPointExtension>
            <ns3:hr>82</ns3:hr>
            <ns3:cad>0</ns3:cad>
          </ns3:TrackPointExtension>
        </extensions>
      </trkpt>
      <trkpt lat="37.9379973001778125762939453125" lon="-107.12946359999477863311767578125">
        <ele>3746</ele>
        <time>2026-01-06T16:44:57.000Z</time>
        <extensions>
          <ns3:TrackPointExtension>
            <ns3:hr>86</ns3:hr>
            <ns3:cad>0</ns3:cad>
          </ns3:TrackPointExtension>
        </extensions>
      </trkpt>
      <trkpt lat="37.9379973001778125762939453125" lon="-107.12946359999477863311767578125">
        <ele>3746.199951171875</ele>
        <time>2026-01-06T16:44:58.000Z</time>
        <extensions>
          <ns3:TrackPointExtension>
            <ns3:hr>89</ns3:hr>
            <ns3:cad>0</ns3:cad>
          </ns3:TrackPointExtension>
        </extensions>
      </trkpt>
      <trkpt lat="37.9379973001778125762939453125" lon="-107.12946359999477863311767578125">
        <ele>3746</ele>
        <time>2026-01-06T16:45:01.000Z</time>
        <extensions>
          <ns3:TrackPointExtension>
            <ns3:hr>92</ns3:hr>
            <ns3:cad>0</ns3:cad>
          </ns3:TrackPointExtension>
        </extensions>
      </trkpt>
      <trkpt lat="37.9379973001778125762939453125" lon="-107.12946359999477863311767578125">
        <ele>3745.800048828125</ele>
        <time>2026-01-06T16:45:02.000Z</time>
        <extensions>
          <ns3:TrackPointExtension>
            <ns3:hr>92</ns3:hr>
            <ns3:cad>0</ns3:cad>
          </ns3:TrackPointExtension>
        </extensions>
      </trkpt>
      <trkpt lat="37.9379973001778125762939453125" lon="-107.12946359999477863311767578125">
        <ele>3746</ele>
        <time>2026-01-06T16:45:08.000Z</time>
        <extensions>
          <ns3:TrackPointExtension>
            <ns3:hr>93</ns3:hr>
            <ns3:cad>0</ns3:cad>
          </ns3:TrackPointExtension>
        </extensions>
      </trkpt>
      <trkpt lat="37.9379973001778125762939453125" lon="-107.12946359999477863311767578125">
        <ele>3746.199951171875</ele>
        <time>2026-01-06T16:45:09.000Z</time>
        <extensions>
          <ns3:TrackPointExtension>
            <ns3:hr>94</ns3:hr>
            <ns3:cad>0</ns3:cad>
          </ns3:TrackPointExtension>
        </extensions>
      </trkpt>
      <trkpt lat="37.9379973001778125762939453125" lon="-107.12946359999477863311767578125">
        <ele>3745.60009765625</ele>
        <time>2026-01-06T16:45:15.000Z</time>
        <extensions>
          <ns3:TrackPointExtension>
            <ns3:hr>94</ns3:hr>
            <ns3:cad>0</ns3:cad>
          </ns3:TrackPointExtension>
        </extensions>
      </trkpt>
      <trkpt lat="37.9379973001778125762939453125" lon="-107.12946359999477863311767578125">
        <ele>3745.39990234375</ele>
        <time>2026-01-06T16:45:18.000Z</time>
        <extensions>
          <ns3:TrackPointExtension>
            <ns3:hr>93</ns3:hr>
            <ns3:cad>0</ns3:cad>
          </ns3:TrackPointExtension>
        </extensions>
      </trkpt>
      <trkpt lat="37.9379973001778125762939453125" lon="-107.12946359999477863311767578125">
        <ele>3745.60009765625</ele>
        <time>2026-01-06T16:45:24.000Z</time>
        <extensions>
          <ns3:TrackPointExtension>
            <ns3:hr>94</ns3:hr>
            <ns3:cad>0</ns3:cad>
          </ns3:TrackPointExtension>
        </extensions>
      </trkpt>
      <trkpt lat="37.9379973001778125762939453125" lon="-107.12946359999477863311767578125">
        <ele>3745.60009765625</ele>
        <time>2026-01-06T16:45:30.000Z</time>
        <extensions>
          <ns3:TrackPointExtension>
            <ns3:hr>94</ns3:hr>
            <ns3:cad>0</ns3:cad>
          </ns3:TrackPointExtension>
        </extensions>
      </trkpt>
      <trkpt lat="37.9379973001778125762939453125" lon="-107.12946359999477863311767578125">
        <ele>3745.60009765625</ele>
        <time>2026-01-06T16:45:36.000Z</time>
        <extensions>
          <ns3:TrackPointExtension>
            <ns3:hr>95</ns3:hr>
            <ns3:cad>0</ns3:cad>
          </ns3:TrackPointExtension>
        </extensions>
      </trkpt>
      <trkpt lat="37.9379973001778125762939453125" lon="-107.12946359999477863311767578125">
        <ele>3745.800048828125</ele>
        <time>2026-01-06T16:45:41.000Z</time>
        <extensions>
          <ns3:TrackPointExtension>
            <ns3:hr>95</ns3:hr>
            <ns3:cad>0</ns3:cad>
          </ns3:TrackPointExtension>
        </extensions>
      </trkpt>
      <trkpt lat="37.9379973001778125762939453125" lon="-107.12946359999477863311767578125">
        <ele>3745.60009765625</ele>
        <time>2026-01-06T16:45:47.000Z</time>
        <extensions>
          <ns3:TrackPointExtension>
            <ns3:hr>94</ns3:hr>
            <ns3:cad>0</ns3:cad>
          </ns3:TrackPointExtension>
        </extensions>
      </trkpt>
      <trkpt lat="37.9379973001778125762939453125" lon="-107.12946359999477863311767578125">
        <ele>3746</ele>
        <time>2026-01-06T16:45:51.000Z</time>
        <extensions>
          <ns3:TrackPointExtension>
            <ns3:hr>94</ns3:hr>
            <ns3:cad>0</ns3:cad>
          </ns3:TrackPointExtension>
        </extensions>
      </trkpt>
      <trkpt lat="37.9379973001778125762939453125" lon="-107.12946359999477863311767578125">
        <ele>3745.800048828125</ele>
        <time>2026-01-06T16:45:57.000Z</time>
        <extensions>
          <ns3:TrackPointExtension>
            <ns3:hr>94</ns3:hr>
            <ns3:cad>0</ns3:cad>
          </ns3:TrackPointExtension>
        </extensions>
      </trkpt>
      <trkpt lat="37.9379973001778125762939453125" lon="-107.12946359999477863311767578125">
        <ele>3746</ele>
        <time>2026-01-06T16:45:59.000Z</time>
        <extensions>
          <ns3:TrackPointExtension>
            <ns3:hr>94</ns3:hr>
            <ns3:cad>0</ns3:cad>
          </ns3:TrackPointExtension>
        </extensions>
      </trkpt>
      <trkpt lat="37.9379956237971782684326171875" lon="-107.1294656954705715179443359375">
        <ele>3745.199951171875</ele>
        <time>2026-01-06T16:46:05.000Z</time>
        <extensions>
          <ns3:TrackPointExtension>
            <ns3:hr>94</ns3:hr>
            <ns3:cad>44</ns3:cad>
          </ns3:TrackPointExtension>
        </extensions>
      </trkpt>
      <trkpt lat="37.9379973001778125762939453125" lon="-107.12946359999477863311767578125">
        <ele>3745</ele>
        <time>2026-01-06T16:46:07.000Z</time>
        <extensions>
          <ns3:TrackPointExtension>
            <ns3:hr>93</ns3:hr>
            <ns3:cad>0</ns3:cad>
          </ns3:TrackPointExtension>
        </extensions>
      </trkpt>
      <trkpt lat="37.9379973001778125762939453125" lon="-107.12946359999477863311767578125">
        <ele>3745</ele>
        <time>2026-01-06T16:46:13.000Z</time>
        <extensions>
          <ns3:TrackPointExtension>
            <ns3:hr>90</ns3:hr>
            <ns3:cad>0</ns3:cad>
          </ns3:TrackPointExtension>
        </extensions>
      </trkpt>
      <trkpt lat="37.9379973001778125762939453125" lon="-107.12946359999477863311767578125">
        <ele>3745.199951171875</ele>
        <time>2026-01-06T16:46:14.000Z</time>
        <extensions>
          <ns3:TrackPointExtension>
            <ns3:hr>90</ns3:hr>
            <ns3:cad>0</ns3:cad>
          </ns3:TrackPointExtension>
        </extensions>
      </trkpt>
      <trkpt lat="37.9379973001778125762939453125" lon="-107.12946359999477863311767578125">
        <ele>3746</ele>
        <time>2026-01-06T16:46:20.000Z</time>
        <extensions>
          <ns3:TrackPointExtension>
            <ns3:hr>89</ns3:hr>
            <ns3:cad>0</ns3:cad>
          </ns3:TrackPointExtension>
        </extensions>
      </trkpt>
      <trkpt lat="37.9379973001778125762939453125" lon="-107.12946359999477863311767578125">
        <ele>3745.800048828125</ele>
        <time>2026-01-06T16:46:26.000Z</time>
        <extensions>
          <ns3:TrackPointExtension>
            <ns3:hr>90</ns3:hr>
            <ns3:cad>0</ns3:cad>
          </ns3:TrackPointExtension>
        </extensions>
      </trkpt>
      <trkpt lat="37.9379973001778125762939453125" lon="-107.12946359999477863311767578125">
        <ele>3745.39990234375</ele>
        <time>2026-01-06T16:46:31.000Z</time>
        <extensions>
          <ns3:TrackPointExtension>
            <ns3:hr>90</ns3:hr>
            <ns3:cad>0</ns3:cad>
          </ns3:TrackPointExtension>
        </extensions>
      </trkpt>
      <trkpt lat="37.9379973001778125762939453125" lon="-107.12946359999477863311767578125">
        <ele>3745.199951171875</ele>
        <time>2026-01-06T16:46:37.000Z</time>
        <extensions>
          <ns3:TrackPointExtension>
            <ns3:hr>90</ns3:hr>
            <ns3:cad>0</ns3:cad>
          </ns3:TrackPointExtension>
        </extensions>
      </trkpt>
      <trkpt lat="37.9379973001778125762939453125" lon="-107.12946359999477863311767578125">
        <ele>3745.800048828125</ele>
        <time>2026-01-06T16:46:43.000Z</time>
        <extensions>
          <ns3:TrackPointExtension>
            <ns3:hr>90</ns3:hr>
            <ns3:cad>0</ns3:cad>
          </ns3:TrackPointExtension>
        </extensions>
      </trkpt>
      <trkpt lat="37.9379973001778125762939453125" lon="-107.12946359999477863311767578125">
        <ele>3746</ele>
        <time>2026-01-06T16:46:45.000Z</time>
        <extensions>
          <ns3:TrackPointExtension>
            <ns3:hr>90</ns3:hr>
            <ns3:cad>0</ns3:cad>
          </ns3:TrackPointExtension>
        </extensions>
      </trkpt>
      <trkpt lat="37.93800392188131809234619140625" lon="-107.1294599957764148712158203125">
        <ele>3746</ele>
        <time>2026-01-06T16:46:51.000Z</time>
        <extensions>
          <ns3:TrackPointExtension>
            <ns3:hr>91</ns3:hr>
            <ns3:cad>0</ns3:cad>
          </ns3:TrackPointExtension>
        </extensions>
      </trkpt>
      <trkpt lat="37.93800224550068378448486328125" lon="-107.12946343235671520233154296875">
        <ele>3746</ele>
        <time>2026-01-06T16:46:52.000Z</time>
        <extensions>
          <ns3:TrackPointExtension>
            <ns3:hr>90</ns3:hr>
            <ns3:cad>0</ns3:cad>
          </ns3:TrackPointExtension>
        </extensions>
      </trkpt>
      <trkpt lat="37.9379973001778125762939453125" lon="-107.12946359999477863311767578125">
        <ele>3745</ele>
        <time>2026-01-06T16:46:58.000Z</time>
        <extensions>
          <ns3:TrackPointExtension>
            <ns3:hr>91</ns3:hr>
            <ns3:cad>0</ns3:cad>
          </ns3:TrackPointExtension>
        </extensions>
      </trkpt>
      <trkpt lat="37.9379973001778125762939453125" lon="-107.12946359999477863311767578125">
        <ele>3745</ele>
        <time>2026-01-06T16:47:01.000Z</time>
        <extensions>
          <ns3:TrackPointExtension>
            <ns3:hr>92</ns3:hr>
            <ns3:cad>0</ns3:cad>
          </ns3:TrackPointExtension>
        </extensions>
      </trkpt>
      <trkpt lat="37.9379973001778125762939453125" lon="-107.12946359999477863311767578125">
        <ele>3745</ele>
        <time>2026-01-06T16:47:07.000Z</time>
        <extensions>
          <ns3:TrackPointExtension>
            <ns3:hr>92</ns3:hr>
            <ns3:cad>0</ns3:cad>
          </ns3:TrackPointExtension>
        </extensions>
      </trkpt>
      <trkpt lat="37.9379973001778125762939453125" lon="-107.12946359999477863311767578125">
        <ele>3744.800048828125</ele>
        <time>2026-01-06T16:47:11.000Z</time>
        <extensions>
          <ns3:TrackPointExtension>
            <ns3:hr>95</ns3:hr>
            <ns3:cad>0</ns3:cad>
          </ns3:TrackPointExtension>
        </extensions>
      </trkpt>
      <trkpt lat="37.9379973001778125762939453125" lon="-107.12946359999477863311767578125">
        <ele>3745.199951171875</ele>
        <time>2026-01-06T16:47:17.000Z</time>
        <extensions>
          <ns3:TrackPointExtension>
            <ns3:hr>97</ns3:hr>
            <ns3:cad>0</ns3:cad>
          </ns3:TrackPointExtension>
        </extensions>
      </trkpt>
      <trkpt lat="37.9380006529390811920166015625" lon="-107.129458822309970855712890625">
        <ele>3745.39990234375</ele>
        <time>2026-01-06T16:47:19.000Z</time>
        <extensions>
          <ns3:TrackPointExtension>
            <ns3:hr>97</ns3:hr>
            <ns3:cad>0</ns3:cad>
          </ns3:TrackPointExtension>
        </extensions>
      </trkpt>
      <trkpt lat="37.938004843890666961669921875" lon="-107.12945236824452877044677734375">
        <ele>3745.39990234375</ele>
        <time>2026-01-06T16:47:25.000Z</time>
        <extensions>
          <ns3:TrackPointExtension>
            <ns3:hr>97</ns3:hr>
            <ns3:cad>0</ns3:cad>
          </ns3:TrackPointExtension>
        </extensions>
      </trkpt>
      <trkpt lat="37.9380051791667938232421875" lon="-107.12945085950195789337158203125">
        <ele>3745.60009765625</ele>
        <time>2026-01-06T16:47:26.000Z</time>
        <extensions>
          <ns3:TrackPointExtension>
            <ns3:hr>97</ns3:hr>
            <ns3:cad>0</ns3:cad>
          </ns3:TrackPointExtension>
        </extensions>
      </trkpt>
      <trkpt lat="37.9379973001778125762939453125" lon="-107.12946359999477863311767578125">
        <ele>3745.199951171875</ele>
        <time>2026-01-06T16:47:32.000Z</time>
        <extensions>
          <ns3:TrackPointExtension>
            <ns3:hr>100</ns3:hr>
            <ns3:cad>0</ns3:cad>
          </ns3:TrackPointExtension>
        </extensions>
      </trkpt>
      <trkpt lat="37.9379973001778125762939453125" lon="-107.12946359999477863311767578125">
        <ele>3745</ele>
        <time>2026-01-06T16:47:35.000Z</time>
        <extensions>
          <ns3:TrackPointExtension>
            <ns3:hr>100</ns3:hr>
            <ns3:cad>0</ns3:cad>
          </ns3:TrackPointExtension>
        </extensions>
      </trkpt>
      <trkpt lat="37.938004843890666961669921875" lon="-107.129458151757717132568359375">
        <ele>3745.60009765625</ele>
        <time>2026-01-06T16:47:41.000Z</time>
        <extensions>
          <ns3:TrackPointExtension>
            <ns3:hr>99</ns3:hr>
            <ns3:cad>0</ns3:cad>
          </ns3:TrackPointExtension>
        </extensions>
      </trkpt>
      <trkpt lat="37.93800895102322101593017578125" lon="-107.129456140100955963134765625">
        <ele>3745.60009765625</ele>
        <time>2026-01-06T16:47:44.000Z</time>
        <extensions>
          <ns3:TrackPointExtension>
            <ns3:hr>96</ns3:hr>
            <ns3:cad>0</ns3:cad>
          </ns3:TrackPointExtension>
        </extensions>
      </trkpt>
      <trkpt lat="37.93800626881420612335205078125" lon="-107.12945320643484592437744140625">
        <ele>3745</ele>
        <time>2026-01-06T16:47:47.000Z</time>
        <extensions>
          <ns3:TrackPointExtension>
            <ns3:hr>100</ns3:hr>
            <ns3:cad>0</ns3:cad>
          </ns3:TrackPointExtension>
        </extensions>
      </trkpt>
      <trkpt lat="37.93799671344459056854248046875" lon="-107.12944708764553070068359375">
        <ele>3744.60009765625</ele>
        <time>2026-01-06T16:47:53.000Z</time>
        <extensions>
          <ns3:TrackPointExtension>
            <ns3:hr>98</ns3:hr>
            <ns3:cad>0</ns3:cad>
          </ns3:TrackPointExtension>
        </extensions>
      </trkpt>
      <trkpt lat="37.93799704872071743011474609375" lon="-107.12944331578910350799560546875">
        <ele>3744.60009765625</ele>
        <time>2026-01-06T16:47:54.000Z</time>
        <extensions>
          <ns3:TrackPointExtension>
            <ns3:hr>98</ns3:hr>
            <ns3:cad>0</ns3:cad>
          </ns3:TrackPointExtension>
        </extensions>
      </trkpt>
      <trkpt lat="37.937996797263622283935546875" lon="-107.12944348342716693878173828125">
        <ele>3745</ele>
        <time>2026-01-06T16:48:00.000Z</time>
        <extensions>
          <ns3:TrackPointExtension>
            <ns3:hr>96</ns3:hr>
            <ns3:cad>0</ns3:cad>
          </ns3:TrackPointExtension>
        </extensions>
      </trkpt>
      <trkpt lat="37.937996797263622283935546875" lon="-107.12944348342716693878173828125">
        <ele>3745.199951171875</ele>
        <time>2026-01-06T16:48:04.000Z</time>
        <extensions>
          <ns3:TrackPointExtension>
            <ns3:hr>96</ns3:hr>
            <ns3:cad>0</ns3:cad>
          </ns3:TrackPointExtension>
        </extensions>
      </trkpt>
      <trkpt lat="37.93801381252706050872802734375" lon="-107.12941112928092479705810546875">
        <ele>3745</ele>
        <time>2026-01-06T16:48:10.000Z</time>
        <extensions>
          <ns3:TrackPointExtension>
            <ns3:hr>96</ns3:hr>
            <ns3:cad>0</ns3:cad>
          </ns3:TrackPointExtension>
        </extensions>
      </trkpt>
      <trkpt lat="37.93801733292639255523681640625" lon="-107.12940040044486522674560546875">
        <ele>3745</ele>
        <time>2026-01-06T16:48:11.000Z</time>
        <extensions>
          <ns3:TrackPointExtension>
            <ns3:hr>96</ns3:hr>
            <ns3:cad>0</ns3:cad>
          </ns3:TrackPointExtension>
        </extensions>
      </trkpt>
      <trkpt lat="37.9380231164395809173583984375" lon="-107.12931356392800807952880859375">
        <ele>3744.60009765625</ele>
        <time>2026-01-06T16:48:17.000Z</time>
        <extensions>
          <ns3:TrackPointExtension>
            <ns3:hr>96</ns3:hr>
            <ns3:cad>49</ns3:cad>
          </ns3:TrackPointExtension>
        </extensions>
      </trkpt>
      <trkpt lat="37.9380257986485958099365234375" lon="-107.12930065579712390899658203125">
        <ele>3744.60009765625</ele>
        <time>2026-01-06T16:48:18.000Z</time>
        <extensions>
          <ns3:TrackPointExtension>
            <ns3:hr>96</ns3:hr>
            <ns3:cad>51</ns3:cad>
          </ns3:TrackPointExtension>
        </extensions>
      </trkpt>
      <trkpt lat="37.93802856467664241790771484375" lon="-107.12922773323953151702880859375">
        <ele>3744.199951171875</ele>
        <time>2026-01-06T16:48:24.000Z</time>
        <extensions>
          <ns3:TrackPointExtension>
            <ns3:hr>96</ns3:hr>
            <ns3:cad>50</ns3:cad>
          </ns3:TrackPointExtension>
        </extensions>
      </trkpt>
      <trkpt lat="37.93803401291370391845703125" lon="-107.12915883399546146392822265625">
        <ele>3743.800048828125</ele>
        <time>2026-01-06T16:48:29.000Z</time>
        <extensions>
          <ns3:TrackPointExtension>
            <ns3:hr>97</ns3:hr>
            <ns3:cad>45</ns3:cad>
          </ns3:TrackPointExtension>
        </extensions>
      </trkpt>
      <trkpt lat="37.93803493492305278778076171875" lon="-107.12914492003619670867919921875">
        <ele>3743.60009765625</ele>
        <time>2026-01-06T16:48:30.000Z</time>
        <extensions>
          <ns3:TrackPointExtension>
            <ns3:hr>97</ns3:hr>
            <ns3:cad>45</ns3:cad>
          </ns3:TrackPointExtension>
        </extensions>
      </trkpt>
      <trkpt lat="37.9380361922085285186767578125" lon="-107.1290593408048152923583984375">
        <ele>3743.39990234375</ele>
        <time>2026-01-06T16:48:36.000Z</time>
        <extensions>
          <ns3:TrackPointExtension>
            <ns3:hr>95</ns3:hr>
            <ns3:cad>51</ns3:cad>
          </ns3:TrackPointExtension>
        </extensions>
      </trkpt>
      <trkpt lat="37.93804180808365345001220703125" lon="-107.12904718704521656036376953125">
        <ele>3743.199951171875</ele>
        <time>2026-01-06T16:48:37.000Z</time>
        <extensions>
          <ns3:TrackPointExtension>
            <ns3:hr>95</ns3:hr>
            <ns3:cad>51</ns3:cad>
          </ns3:TrackPointExtension>
        </extensions>
      </trkpt>
      <trkpt lat="37.9380764253437519073486328125" lon="-107.12897493503987789154052734375">
        <ele>3743.199951171875</ele>
        <time>2026-01-06T16:48:43.000Z</time>
        <extensions>
          <ns3:TrackPointExtension>
            <ns3:hr>95</ns3:hr>
            <ns3:cad>0</ns3:cad>
          </ns3:TrackPointExtension>
        </extensions>
      </trkpt>
      <trkpt lat="37.93809310533106327056884765625" lon="-107.12895490229129791259765625">
        <ele>3743</ele>
        <time>2026-01-06T16:48:45.000Z</time>
        <extensions>
          <ns3:TrackPointExtension>
            <ns3:hr>96</ns3:hr>
            <ns3:cad>47</ns3:cad>
          </ns3:TrackPointExtension>
        </extensions>
      </trkpt>
      <trkpt lat="37.9381017386913299560546875" lon="-107.12894710712134838104248046875">
        <ele>3742.800048828125</ele>
        <time>2026-01-06T16:48:46.000Z</time>
        <extensions>
          <ns3:TrackPointExtension>
            <ns3:hr>96</ns3:hr>
            <ns3:cad>47</ns3:cad>
          </ns3:TrackPointExtension>
        </extensions>
      </trkpt>
      <trkpt lat="37.93814708478748798370361328125" lon="-107.128877453505992889404296875">
        <ele>3742.39990234375</ele>
        <time>2026-01-06T16:48:52.000Z</time>
        <extensions>
          <ns3:TrackPointExtension>
            <ns3:hr>95</ns3:hr>
            <ns3:cad>52</ns3:cad>
          </ns3:TrackPointExtension>
        </extensions>
      </trkpt>
      <trkpt lat="37.938155718147754669189453125" lon="-107.128868736326694488525390625">
        <ele>3742.199951171875</ele>
        <time>2026-01-06T16:48:53.000Z</time>
        <extensions>
          <ns3:TrackPointExtension>
            <ns3:hr>95</ns3:hr>
            <ns3:cad>52</ns3:cad>
          </ns3:TrackPointExtension>
        </extensions>
      </trkpt>
      <trkpt lat="37.938179187476634979248046875" lon="-107.12882942520081996917724609375">
        <ele>3741.60009765625</ele>
        <time>2026-01-06T16:48:56.000Z</time>
        <extensions>
          <ns3:TrackPointExtension>
            <ns3:hr>94</ns3:hr>
            <ns3:cad>55</ns3:cad>
          </ns3:TrackPointExtension>
        </extensions>
      </trkpt>
      <trkpt lat="37.938190586864948272705078125" lon="-107.12879807688295841217041015625">
        <ele>3741.60009765625</ele>
        <time>2026-01-06T16:48:58.000Z</time>
        <extensions>
          <ns3:TrackPointExtension>
            <ns3:hr>94</ns3:hr>
            <ns3:cad>0</ns3:cad>
          </ns3:TrackPointExtension>
        </extensions>
      </trkpt>
      <trkpt lat="37.93823190964758396148681640625" lon="-107.128713838756084442138671875">
        <ele>3741.199951171875</ele>
        <time>2026-01-06T16:49:04.000Z</time>
        <extensions>
          <ns3:TrackPointExtension>
            <ns3:hr>96</ns3:hr>
            <ns3:cad>57</ns3:cad>
          </ns3:TrackPointExtension>
        </extensions>
      </trkpt>
      <trkpt lat="37.9382531158626079559326171875" lon="-107.12865851819515228271484375">
        <ele>3741</ele>
        <time>2026-01-06T16:49:09.000Z</time>
        <extensions>
          <ns3:TrackPointExtension>
            <ns3:hr>98</ns3:hr>
            <ns3:cad>57</ns3:cad>
          </ns3:TrackPointExtension>
        </extensions>
      </trkpt>
      <trkpt lat="37.9382739029824733734130859375" lon="-107.128577716648578643798828125">
        <ele>3741.39990234375</ele>
        <time>2026-01-06T16:49:15.000Z</time>
        <extensions>
          <ns3:TrackPointExtension>
            <ns3:hr>99</ns3:hr>
            <ns3:cad>52</ns3:cad>
          </ns3:TrackPointExtension>
        </extensions>
      </trkpt>
      <trkpt lat="37.93827935121953487396240234375" lon="-107.1285634674131870269775390625">
        <ele>3741.39990234375</ele>
        <time>2026-01-06T16:49:16.000Z</time>
        <extensions>
          <ns3:TrackPointExtension>
            <ns3:hr>99</ns3:hr>
            <ns3:cad>52</ns3:cad>
          </ns3:TrackPointExtension>
        </extensions>
      </trkpt>
      <trkpt lat="37.93830114416778087615966796875" lon="-107.12849867530167102813720703125">
        <ele>3741</ele>
        <time>2026-01-06T16:49:22.000Z</time>
        <extensions>
          <ns3:TrackPointExtension>
            <ns3:hr>100</ns3:hr>
            <ns3:cad>0</ns3:cad>
          </ns3:TrackPointExtension>
        </extensions>
      </trkpt>
      <trkpt lat="37.93831908144056797027587890625" lon="-107.12843312881886959075927734375">
        <ele>3741.199951171875</ele>
        <time>2026-01-06T16:49:28.000Z</time>
        <extensions>
          <ns3:TrackPointExtension>
            <ns3:hr>99</ns3:hr>
            <ns3:cad>0</ns3:cad>
          </ns3:TrackPointExtension>
        </extensions>
      </trkpt>
      <trkpt lat="37.9383231885731220245361328125" lon="-107.1284192986786365509033203125">
        <ele>3741.199951171875</ele>
        <time>2026-01-06T16:49:29.000Z</time>
        <extensions>
          <ns3:TrackPointExtension>
            <ns3:hr>99</ns3:hr>
            <ns3:cad>0</ns3:cad>
          </ns3:TrackPointExtension>
        </extensions>
      </trkpt>
      <trkpt lat="37.9383453167974948883056640625" lon="-107.12836883962154388427734375">
        <ele>3741.199951171875</ele>
        <time>2026-01-06T16:49:34.000Z</time>
        <extensions>
          <ns3:TrackPointExtension>
            <ns3:hr>99</ns3:hr>
            <ns3:cad>50</ns3:cad>
          </ns3:TrackPointExtension>
        </extensions>
      </trkpt>
      <trkpt lat="37.93836015276610851287841796875" lon="-107.12830337695777416229248046875">
        <ele>3741.60009765625</ele>
        <time>2026-01-06T16:49:40.000Z</time>
        <extensions>
          <ns3:TrackPointExtension>
            <ns3:hr>98</ns3:hr>
            <ns3:cad>47</ns3:cad>
          </ns3:TrackPointExtension>
        </extensions>
      </trkpt>
      <trkpt lat="37.9383647628128528594970703125" lon="-107.1282932348549365997314453125">
        <ele>3741.60009765625</ele>
        <time>2026-01-06T16:49:41.000Z</time>
        <extensions>
          <ns3:TrackPointExtension>
            <ns3:hr>98</ns3:hr>
            <ns3:cad>47</ns3:cad>
          </ns3:TrackPointExtension>
        </extensions>
      </trkpt>
      <trkpt lat="37.93837775476276874542236328125" lon="-107.12823732756078243255615234375">
        <ele>3742</ele>
        <time>2026-01-06T16:49:47.000Z</time>
        <extensions>
          <ns3:TrackPointExtension>
            <ns3:hr>99</ns3:hr>
            <ns3:cad>0</ns3:cad>
          </ns3:TrackPointExtension>
        </extensions>
      </trkpt>
      <trkpt lat="37.93837557546794414520263671875" lon="-107.12822978384792804718017578125">
        <ele>3742</ele>
        <time>2026-01-06T16:49:48.000Z</time>
        <extensions>
          <ns3:TrackPointExtension>
            <ns3:hr>99</ns3:hr>
            <ns3:cad>0</ns3:cad>
          </ns3:TrackPointExtension>
        </extensions>
      </trkpt>
      <trkpt lat="37.93839653022587299346923828125" lon="-107.128165327012538909912109375">
        <ele>3742.199951171875</ele>
        <time>2026-01-06T16:49:54.000Z</time>
        <extensions>
          <ns3:TrackPointExtension>
            <ns3:hr>101</ns3:hr>
            <ns3:cad>0</ns3:cad>
          </ns3:TrackPointExtension>
        </extensions>
      </trkpt>
      <trkpt lat="37.93841815553605556488037109375" lon="-107.12811310775578022003173828125">
        <ele>3742.800048828125</ele>
        <time>2026-01-06T16:49:59.000Z</time>
        <extensions>
          <ns3:TrackPointExtension>
            <ns3:hr>102</ns3:hr>
            <ns3:cad>50</ns3:cad>
          </ns3:TrackPointExtension>
        </extensions>
      </trkpt>
      <trkpt lat="37.93842368759214878082275390625" lon="-107.1281038038432598114013671875">
        <ele>3742.800048828125</ele>
        <time>2026-01-06T16:50:00.000Z</time>
        <extensions>
          <ns3:TrackPointExtension>
            <ns3:hr>103</ns3:hr>
            <ns3:cad>50</ns3:cad>
          </ns3:TrackPointExtension>
        </extensions>
      </trkpt>
      <trkpt lat="37.93845520354807376861572265625" lon="-107.12805560790002346038818359375">
        <ele>3742.800048828125</ele>
        <time>2026-01-06T16:50:05.000Z</time>
        <extensions>
          <ns3:TrackPointExtension>
            <ns3:hr>106</ns3:hr>
            <ns3:cad>0</ns3:cad>
          </ns3:TrackPointExtension>
        </extensions>
      </trkpt>
      <trkpt lat="37.93846559710800647735595703125" lon="-107.128042280673980712890625">
        <ele>3743</ele>
        <time>2026-01-06T16:50:07.000Z</time>
        <extensions>
          <ns3:TrackPointExtension>
            <ns3:hr>106</ns3:hr>
            <ns3:cad>0</ns3:cad>
          </ns3:TrackPointExtension>
        </extensions>
      </trkpt>
      <trkpt lat="37.93850499205291271209716796875" lon="-107.12799576111137866973876953125">
        <ele>3742.800048828125</ele>
        <time>2026-01-06T16:50:13.000Z</time>
        <extensions>
          <ns3:TrackPointExtension>
            <ns3:hr>104</ns3:hr>
            <ns3:cad>0</ns3:cad>
          </ns3:TrackPointExtension>
        </extensions>
      </trkpt>
      <trkpt lat="37.93853550218045711517333984375" lon="-107.12795955128967761993408203125">
        <ele>3742.39990234375</ele>
        <time>2026-01-06T16:50:19.000Z</time>
        <extensions>
          <ns3:TrackPointExtension>
            <ns3:hr>102</ns3:hr>
            <ns3:cad>0</ns3:cad>
          </ns3:TrackPointExtension>
        </extensions>
      </trkpt>
      <trkpt lat="37.9385630786418914794921875" lon="-107.12791822850704193115234375">
        <ele>3742.39990234375</ele>
        <time>2026-01-06T16:50:25.000Z</time>
        <extensions>
          <ns3:TrackPointExtension>
            <ns3:hr>101</ns3:hr>
            <ns3:cad>0</ns3:cad>
          </ns3:TrackPointExtension>
        </extensions>
      </trkpt>
      <trkpt lat="37.9385699518024921417236328125" lon="-107.1279043145477771759033203125">
        <ele>3742.60009765625</ele>
        <time>2026-01-06T16:50:26.000Z</time>
        <extensions>
          <ns3:TrackPointExtension>
            <ns3:hr>101</ns3:hr>
            <ns3:cad>0</ns3:cad>
          </ns3:TrackPointExtension>
        </extensions>
      </trkpt>
      <trkpt lat="37.93860842473804950714111328125" lon="-107.12785779498517513275146484375">
        <ele>3742.800048828125</ele>
        <time>2026-01-06T16:50:32.000Z</time>
        <extensions>
          <ns3:TrackPointExtension>
            <ns3:hr>99</ns3:hr>
            <ns3:cad>41</ns3:cad>
          </ns3:TrackPointExtension>
        </extensions>
      </trkpt>
      <trkpt lat="37.93863910250365734100341796875" lon="-107.12782057933509349822998046875">
        <ele>3742.800048828125</ele>
        <time>2026-01-06T16:50:38.000Z</time>
        <extensions>
          <ns3:TrackPointExtension>
            <ns3:hr>99</ns3:hr>
            <ns3:cad>0</ns3:cad>
          </ns3:TrackPointExtension>
        </extensions>
      </trkpt>
      <trkpt lat="37.938643880188465118408203125" lon="-107.1278151310980319976806640625">
        <ele>3742.800048828125</ele>
        <time>2026-01-06T16:50:39.000Z</time>
        <extensions>
          <ns3:TrackPointExtension>
            <ns3:hr>99</ns3:hr>
            <ns3:cad>0</ns3:cad>
          </ns3:TrackPointExtension>
        </extensions>
      </trkpt>
      <trkpt lat="37.93868176639080047607421875" lon="-107.1277691982686519622802734375">
        <ele>3743</ele>
        <time>2026-01-06T16:50:45.000Z</time>
        <extensions>
          <ns3:TrackPointExtension>
            <ns3:hr>99</ns3:hr>
            <ns3:cad>0</ns3:cad>
          </ns3:TrackPointExtension>
        </extensions>
      </trkpt>
      <trkpt lat="37.93871554546058177947998046875" lon="-107.12772603146731853485107421875">
        <ele>3743.60009765625</ele>
        <time>2026-01-06T16:50:51.000Z</time>
        <extensions>
          <ns3:TrackPointExtension>
            <ns3:hr>100</ns3:hr>
            <ns3:cad>0</ns3:cad>
          </ns3:TrackPointExtension>
        </extensions>
      </trkpt>
      <trkpt lat="37.9387561976909637451171875" lon="-107.127689905464649200439453125">
        <ele>3743.39990234375</ele>
        <time>2026-01-06T16:50:57.000Z</time>
        <extensions>
          <ns3:TrackPointExtension>
            <ns3:hr>101</ns3:hr>
            <ns3:cad>0</ns3:cad>
          </ns3:TrackPointExtension>
        </extensions>
      </trkpt>
      <trkpt lat="37.9387613944709300994873046875" lon="-107.12768613360822200775146484375">
        <ele>3743.39990234375</ele>
        <time>2026-01-06T16:50:58.000Z</time>
        <extensions>
          <ns3:TrackPointExtension>
            <ns3:hr>101</ns3:hr>
            <ns3:cad>0</ns3:cad>
          </ns3:TrackPointExtension>
        </extensions>
      </trkpt>
      <trkpt lat="37.93880271725356578826904296875" lon="-107.12764539755880832672119140625">
        <ele>3743.60009765625</ele>
        <time>2026-01-06T16:51:04.000Z</time>
        <extensions>
          <ns3:TrackPointExtension>
            <ns3:hr>101</ns3:hr>
            <ns3:cad>0</ns3:cad>
          </ns3:TrackPointExtension>
        </extensions>
      </trkpt>
      <trkpt lat="37.9388227500021457672119140625" lon="-107.12762930430471897125244140625">
        <ele>3743.800048828125</ele>
        <time>2026-01-06T16:51:07.000Z</time>
        <extensions>
          <ns3:TrackPointExtension>
            <ns3:hr>102</ns3:hr>
            <ns3:cad>0</ns3:cad>
          </ns3:TrackPointExtension>
        </extensions>
      </trkpt>
      <trkpt lat="37.9388465546071529388427734375" lon="-107.12760298512876033782958984375">
        <ele>3744</ele>
        <time>2026-01-06T16:51:11.000Z</time>
        <extensions>
          <ns3:TrackPointExtension>
            <ns3:hr>102</ns3:hr>
            <ns3:cad>0</ns3:cad>
          </ns3:TrackPointExtension>
        </extensions>
      </trkpt>
      <trkpt lat="37.9388841055333614349365234375" lon="-107.12756325490772724151611328125">
        <ele>3744</ele>
        <time>2026-01-06T16:51:17.000Z</time>
        <extensions>
          <ns3:TrackPointExtension>
            <ns3:hr>101</ns3:hr>
            <ns3:cad>0</ns3:cad>
          </ns3:TrackPointExtension>
        </extensions>
      </trkpt>
      <trkpt lat="37.93889089487493038177490234375" lon="-107.12755420245230197906494140625">
        <ele>3744</ele>
        <time>2026-01-06T16:51:18.000Z</time>
        <extensions>
          <ns3:TrackPointExtension>
            <ns3:hr>101</ns3:hr>
            <ns3:cad>0</ns3:cad>
          </ns3:TrackPointExtension>
        </extensions>
      </trkpt>
      <trkpt lat="37.938908748328685760498046875" lon="-107.127521932125091552734375">
        <ele>3744.199951171875</ele>
        <time>2026-01-06T16:51:23.000Z</time>
        <extensions>
          <ns3:TrackPointExtension>
            <ns3:hr>101</ns3:hr>
            <ns3:cad>0</ns3:cad>
          </ns3:TrackPointExtension>
        </extensions>
      </trkpt>
      <trkpt lat="37.93892459012567996978759765625" lon="-107.12749821133911609649658203125">
        <ele>3744.800048828125</ele>
        <time>2026-01-06T16:51:28.000Z</time>
        <extensions>
          <ns3:TrackPointExtension>
            <ns3:hr>101</ns3:hr>
            <ns3:cad>0</ns3:cad>
          </ns3:TrackPointExtension>
        </extensions>
      </trkpt>
      <trkpt lat="37.93893121182918548583984375" lon="-107.1274922601878643035888671875">
        <ele>3745</ele>
        <time>2026-01-06T16:51:29.000Z</time>
        <extensions>
          <ns3:TrackPointExtension>
            <ns3:hr>102</ns3:hr>
            <ns3:cad>40</ns3:cad>
          </ns3:TrackPointExtension>
        </extensions>
      </trkpt>
      <trkpt lat="37.93897002004086971282958984375" lon="-107.12745177559554576873779296875">
        <ele>3745.800048828125</ele>
        <time>2026-01-06T16:51:35.000Z</time>
        <extensions>
          <ns3:TrackPointExtension>
            <ns3:hr>104</ns3:hr>
            <ns3:cad>72</ns3:cad>
          </ns3:TrackPointExtension>
        </extensions>
      </trkpt>
      <trkpt lat="37.93897387571632862091064453125" lon="-107.1274493448436260223388671875">
        <ele>3745.60009765625</ele>
        <time>2026-01-06T16:51:36.000Z</time>
        <extensions>
          <ns3:TrackPointExtension>
            <ns3:hr>104</ns3:hr>
            <ns3:cad>72</ns3:cad>
          </ns3:TrackPointExtension>
        </extensions>
      </trkpt>
      <trkpt lat="37.93900690041482448577880859375" lon="-107.127412296831607818603515625">
        <ele>3745.39990234375</ele>
        <time>2026-01-06T16:51:41.000Z</time>
        <extensions>
          <ns3:TrackPointExtension>
            <ns3:hr>107</ns3:hr>
            <ns3:cad>0</ns3:cad>
          </ns3:TrackPointExtension>
        </extensions>
      </trkpt>
      <trkpt lat="37.93902182020246982574462890625" lon="-107.1274017356336116790771484375">
        <ele>3745.39990234375</ele>
        <time>2026-01-06T16:51:43.000Z</time>
        <extensions>
          <ns3:TrackPointExtension>
            <ns3:hr>107</ns3:hr>
            <ns3:cad>42</ns3:cad>
          </ns3:TrackPointExtension>
        </extensions>
      </trkpt>
      <trkpt lat="37.93906054459512233734130859375" lon="-107.1273601613938808441162109375">
        <ele>3745.800048828125</ele>
        <time>2026-01-06T16:51:49.000Z</time>
        <extensions>
          <ns3:TrackPointExtension>
            <ns3:hr>106</ns3:hr>
            <ns3:cad>42</ns3:cad>
          </ns3:TrackPointExtension>
        </extensions>
      </trkpt>
      <trkpt lat="37.93906691484153270721435546875" lon="-107.127349935472011566162109375">
        <ele>3745.800048828125</ele>
        <time>2026-01-06T16:51:50.000Z</time>
        <extensions>
          <ns3:TrackPointExtension>
            <ns3:hr>106</ns3:hr>
            <ns3:cad>42</ns3:cad>
          </ns3:TrackPointExtension>
        </extensions>
      </trkpt>
      <trkpt lat="37.93907345272600650787353515625" lon="-107.12734289467334747314453125">
        <ele>3745.800048828125</ele>
        <time>2026-01-06T16:51:51.000Z</time>
        <extensions>
          <ns3:TrackPointExtension>
            <ns3:hr>106</ns3:hr>
            <ns3:cad>0</ns3:cad>
          </ns3:TrackPointExtension>
        </extensions>
      </trkpt>
      <trkpt lat="37.93911184184253215789794921875" lon="-107.12730442173779010772705078125">
        <ele>3746</ele>
        <time>2026-01-06T16:51:57.000Z</time>
        <extensions>
          <ns3:TrackPointExtension>
            <ns3:hr>105</ns3:hr>
            <ns3:cad>0</ns3:cad>
          </ns3:TrackPointExtension>
        </extensions>
      </trkpt>
      <trkpt lat="37.9391399212181568145751953125" lon="-107.1272753365337848663330078125">
        <ele>3746.39990234375</ele>
        <time>2026-01-06T16:52:02.000Z</time>
        <extensions>
          <ns3:TrackPointExtension>
            <ns3:hr>106</ns3:hr>
            <ns3:cad>41</ns3:cad>
          </ns3:TrackPointExtension>
        </extensions>
      </trkpt>
      <trkpt lat="37.93917353264987468719482421875" lon="-107.12723602540791034698486328125">
        <ele>3746.199951171875</ele>
        <time>2026-01-06T16:52:07.000Z</time>
        <extensions>
          <ns3:TrackPointExtension>
            <ns3:hr>109</ns3:hr>
            <ns3:cad>0</ns3:cad>
          </ns3:TrackPointExtension>
        </extensions>
      </trkpt>
      <trkpt lat="37.93917923234403133392333984375" lon="-107.12723116390407085418701171875">
        <ele>3746.39990234375</ele>
        <time>2026-01-06T16:52:08.000Z</time>
        <extensions>
          <ns3:TrackPointExtension>
            <ns3:hr>108</ns3:hr>
            <ns3:cad>0</ns3:cad>
          </ns3:TrackPointExtension>
        </extensions>
      </trkpt>
      <trkpt lat="37.9392175376415252685546875" lon="-107.12720283307135105133056640625">
        <ele>3747</ele>
        <time>2026-01-06T16:52:14.000Z</time>
        <extensions>
          <ns3:TrackPointExtension>
            <ns3:hr>107</ns3:hr>
            <ns3:cad>0</ns3:cad>
          </ns3:TrackPointExtension>
        </extensions>
      </trkpt>
      <trkpt lat="37.93923220597207546234130859375" lon="-107.12719579227268695831298828125">
        <ele>3747.199951171875</ele>
        <time>2026-01-06T16:52:16.000Z</time>
        <extensions>
          <ns3:TrackPointExtension>
            <ns3:hr>108</ns3:hr>
            <ns3:cad>0</ns3:cad>
          </ns3:TrackPointExtension>
        </extensions>
      </trkpt>
      <trkpt lat="37.93928501196205615997314453125" lon="-107.12715639732778072357177734375">
        <ele>3747</ele>
        <time>2026-01-06T16:52:22.000Z</time>
        <extensions>
          <ns3:TrackPointExtension>
            <ns3:hr>109</ns3:hr>
            <ns3:cad>45</ns3:cad>
          </ns3:TrackPointExtension>
        </extensions>
      </trkpt>
      <trkpt lat="37.93932155705988407135009765625" lon="-107.12710442952811717987060546875">
        <ele>3747.800048828125</ele>
        <time>2026-01-06T16:52:28.000Z</time>
        <extensions>
          <ns3:TrackPointExtension>
            <ns3:hr>110</ns3:hr>
            <ns3:cad>0</ns3:cad>
          </ns3:TrackPointExtension>
        </extensions>
      </trkpt>
      <trkpt lat="37.93932859785854816436767578125" lon="-107.12709604762494564056396484375">
        <ele>3747.800048828125</ele>
        <time>2026-01-06T16:52:29.000Z</time>
        <extensions>
          <ns3:TrackPointExtension>
            <ns3:hr>110</ns3:hr>
            <ns3:cad>0</ns3:cad>
          </ns3:TrackPointExtension>
        </extensions>
      </trkpt>
      <trkpt lat="37.93936346657574176788330078125" lon="-107.12705732323229312896728515625">
        <ele>3747.800048828125</ele>
        <time>2026-01-06T16:52:35.000Z</time>
        <extensions>
          <ns3:TrackPointExtension>
            <ns3:hr>111</ns3:hr>
            <ns3:cad>0</ns3:cad>
          </ns3:TrackPointExtension>
        </extensions>
      </trkpt>
      <trkpt lat="37.93939783237874507904052734375" lon="-107.12701591663062572479248046875">
        <ele>3747.800048828125</ele>
        <time>2026-01-06T16:52:41.000Z</time>
        <extensions>
          <ns3:TrackPointExtension>
            <ns3:hr>109</ns3:hr>
            <ns3:cad>0</ns3:cad>
          </ns3:TrackPointExtension>
        </extensions>
      </trkpt>
      <trkpt lat="37.93940596282482147216796875" lon="-107.12700988166034221649169921875">
        <ele>3747.800048828125</ele>
        <time>2026-01-06T16:52:42.000Z</time>
        <extensions>
          <ns3:TrackPointExtension>
            <ns3:hr>108</ns3:hr>
            <ns3:cad>0</ns3:cad>
          </ns3:TrackPointExtension>
        </extensions>
      </trkpt>
      <trkpt lat="37.9394084773957729339599609375" lon="-107.1270074509084224700927734375">
        <ele>3748</ele>
        <time>2026-01-06T16:52:43.000Z</time>
        <extensions>
          <ns3:TrackPointExtension>
            <ns3:hr>108</ns3:hr>
            <ns3:cad>0</ns3:cad>
          </ns3:TrackPointExtension>
        </extensions>
      </trkpt>
      <trkpt lat="37.93942934833467006683349609375" lon="-107.1269799582660198211669921875">
        <ele>3748.199951171875</ele>
        <time>2026-01-06T16:52:47.000Z</time>
        <extensions>
          <ns3:TrackPointExtension>
            <ns3:hr>107</ns3:hr>
            <ns3:cad>0</ns3:cad>
          </ns3:TrackPointExtension>
        </extensions>
      </trkpt>
      <trkpt lat="37.93946153484284877777099609375" lon="-107.1269370429217815399169921875">
        <ele>3748.39990234375</ele>
        <time>2026-01-06T16:52:53.000Z</time>
        <extensions>
          <ns3:TrackPointExtension>
            <ns3:hr>106</ns3:hr>
            <ns3:cad>0</ns3:cad>
          </ns3:TrackPointExtension>
        </extensions>
      </trkpt>
      <trkpt lat="37.93948768638074398040771484375" lon="-107.12690837681293487548828125">
        <ele>3748.800048828125</ele>
        <time>2026-01-06T16:52:58.000Z</time>
        <extensions>
          <ns3:TrackPointExtension>
            <ns3:hr>103</ns3:hr>
            <ns3:cad>0</ns3:cad>
          </ns3:TrackPointExtension>
        </extensions>
      </trkpt>
      <trkpt lat="37.93951735831797122955322265625" lon="-107.12687753140926361083984375">
        <ele>3749</ele>
        <time>2026-01-06T16:53:02.000Z</time>
        <extensions>
          <ns3:TrackPointExtension>
            <ns3:hr>103</ns3:hr>
            <ns3:cad>0</ns3:cad>
          </ns3:TrackPointExtension>
        </extensions>
      </trkpt>
      <trkpt lat="37.939526997506618499755859375" lon="-107.12687216699123382568359375">
        <ele>3749</ele>
        <time>2026-01-06T16:53:03.000Z</time>
        <extensions>
          <ns3:TrackPointExtension>
            <ns3:hr>103</ns3:hr>
            <ns3:cad>0</ns3:cad>
          </ns3:TrackPointExtension>
        </extensions>
      </trkpt>
      <trkpt lat="37.93957569636404514312744140625" lon="-107.126828916370868682861328125">
        <ele>3749.800048828125</ele>
        <time>2026-01-06T16:53:09.000Z</time>
        <extensions>
          <ns3:TrackPointExtension>
            <ns3:hr>104</ns3:hr>
            <ns3:cad>0</ns3:cad>
          </ns3:TrackPointExtension>
        </extensions>
      </trkpt>
      <trkpt lat="37.9395958967506885528564453125" lon="-107.12681307457387447357177734375">
        <ele>3749.60009765625</ele>
        <time>2026-01-06T16:53:13.000Z</time>
        <extensions>
          <ns3:TrackPointExtension>
            <ns3:hr>107</ns3:hr>
            <ns3:cad>0</ns3:cad>
          </ns3:TrackPointExtension>
        </extensions>
      </trkpt>
      <trkpt lat="37.93961576186120510101318359375" lon="-107.12679530493915081024169921875">
        <ele>3749.60009765625</ele>
        <time>2026-01-06T16:53:16.000Z</time>
        <extensions>
          <ns3:TrackPointExtension>
            <ns3:hr>108</ns3:hr>
            <ns3:cad>0</ns3:cad>
          </ns3:TrackPointExtension>
        </extensions>
      </trkpt>
      <trkpt lat="37.9396518878638744354248046875" lon="-107.1267606876790523529052734375">
        <ele>3750</ele>
        <time>2026-01-06T16:53:22.000Z</time>
        <extensions>
          <ns3:TrackPointExtension>
            <ns3:hr>108</ns3:hr>
            <ns3:cad>0</ns3:cad>
          </ns3:TrackPointExtension>
        </extensions>
      </trkpt>
      <trkpt lat="37.93965783901512622833251953125" lon="-107.12675322778522968292236328125">
        <ele>3750</ele>
        <time>2026-01-06T16:53:23.000Z</time>
        <extensions>
          <ns3:TrackPointExtension>
            <ns3:hr>109</ns3:hr>
            <ns3:cad>0</ns3:cad>
          </ns3:TrackPointExtension>
        </extensions>
      </trkpt>
      <trkpt lat="37.9396629519760608673095703125" lon="-107.12674601934850215911865234375">
        <ele>3750.199951171875</ele>
        <time>2026-01-06T16:53:24.000Z</time>
        <extensions>
          <ns3:TrackPointExtension>
            <ns3:hr>108</ns3:hr>
            <ns3:cad>0</ns3:cad>
          </ns3:TrackPointExtension>
        </extensions>
      </trkpt>
      <trkpt lat="37.93969421647489070892333984375" lon="-107.1267000027000904083251953125">
        <ele>3750.199951171875</ele>
        <time>2026-01-06T16:53:30.000Z</time>
        <extensions>
          <ns3:TrackPointExtension>
            <ns3:hr>108</ns3:hr>
            <ns3:cad>0</ns3:cad>
          </ns3:TrackPointExtension>
        </extensions>
      </trkpt>
      <trkpt lat="37.93972020037472248077392578125" lon="-107.1266557462513446807861328125">
        <ele>3750.39990234375</ele>
        <time>2026-01-06T16:53:36.000Z</time>
        <extensions>
          <ns3:TrackPointExtension>
            <ns3:hr>107</ns3:hr>
            <ns3:cad>42</ns3:cad>
          </ns3:TrackPointExtension>
        </extensions>
      </trkpt>
      <trkpt lat="37.93975523672997951507568359375" lon="-107.12660302408039569854736328125">
        <ele>3751</ele>
        <time>2026-01-06T16:53:42.000Z</time>
        <extensions>
          <ns3:TrackPointExtension>
            <ns3:hr>106</ns3:hr>
            <ns3:cad>41</ns3:cad>
          </ns3:TrackPointExtension>
        </extensions>
      </trkpt>
      <trkpt lat="37.93975733220577239990234375" lon="-107.126595564186573028564453125">
        <ele>3751</ele>
        <time>2026-01-06T16:53:43.000Z</time>
        <extensions>
          <ns3:TrackPointExtension>
            <ns3:hr>106</ns3:hr>
            <ns3:cad>41</ns3:cad>
          </ns3:TrackPointExtension>
        </extensions>
      </trkpt>
      <trkpt lat="37.93976680375635623931884765625" lon="-107.1265813149511814117431640625">
        <ele>3751</ele>
        <time>2026-01-06T16:53:45.000Z</time>
        <extensions>
          <ns3:TrackPointExtension>
            <ns3:hr>107</ns3:hr>
            <ns3:cad>0</ns3:cad>
          </ns3:TrackPointExtension>
        </extensions>
      </trkpt>
      <trkpt lat="37.9397994093596935272216796875" lon="-107.1265370585024356842041015625">
        <ele>3751.39990234375</ele>
        <time>2026-01-06T16:53:51.000Z</time>
        <extensions>
          <ns3:TrackPointExtension>
            <ns3:hr>106</ns3:hr>
            <ns3:cad>43</ns3:cad>
          </ns3:TrackPointExtension>
        </extensions>
      </trkpt>
      <trkpt lat="37.93983486481010913848876953125" lon="-107.12648785673081874847412109375">
        <ele>3751.60009765625</ele>
        <time>2026-01-06T16:53:57.000Z</time>
        <extensions>
          <ns3:TrackPointExtension>
            <ns3:hr>106</ns3:hr>
            <ns3:cad>44</ns3:cad>
          </ns3:TrackPointExtension>
        </extensions>
      </trkpt>
      <trkpt lat="37.9398403130471706390380859375" lon="-107.1264777146279811859130859375">
        <ele>3751.800048828125</ele>
        <time>2026-01-06T16:53:58.000Z</time>
        <extensions>
          <ns3:TrackPointExtension>
            <ns3:hr>106</ns3:hr>
            <ns3:cad>45</ns3:cad>
          </ns3:TrackPointExtension>
        </extensions>
      </trkpt>
      <trkpt lat="37.939854897558689117431640625" lon="-107.12646581232547760009765625">
        <ele>3752.199951171875</ele>
        <time>2026-01-06T16:54:00.000Z</time>
        <extensions>
          <ns3:TrackPointExtension>
            <ns3:hr>106</ns3:hr>
            <ns3:cad>45</ns3:cad>
          </ns3:TrackPointExtension>
        </extensions>
      </trkpt>
      <trkpt lat="37.93988079763948917388916015625" lon="-107.126438319683074951171875">
        <ele>3752.199951171875</ele>
        <time>2026-01-06T16:54:04.000Z</time>
        <extensions>
          <ns3:TrackPointExtension>
            <ns3:hr>106</ns3:hr>
            <ns3:cad>45</ns3:cad>
          </ns3:TrackPointExtension>
        </extensions>
      </trkpt>
      <trkpt lat="37.939897142350673675537109375" lon="-107.126391045749187469482421875">
        <ele>3752.800048828125</ele>
        <time>2026-01-06T16:54:10.000Z</time>
        <extensions>
          <ns3:TrackPointExtension>
            <ns3:hr>104</ns3:hr>
            <ns3:cad>0</ns3:cad>
          </ns3:TrackPointExtension>
        </extensions>
      </trkpt>
      <trkpt lat="37.93991264887154102325439453125" lon="-107.12637302465736865997314453125">
        <ele>3753.199951171875</ele>
        <time>2026-01-06T16:54:12.000Z</time>
        <extensions>
          <ns3:TrackPointExtension>
            <ns3:hr>105</ns3:hr>
            <ns3:cad>0</ns3:cad>
          </ns3:TrackPointExtension>
        </extensions>
      </trkpt>
      <trkpt lat="37.93991600163280963897705078125" lon="-107.126365564763545989990234375">
        <ele>3753.60009765625</ele>
        <time>2026-01-06T16:54:15.000Z</time>
        <extensions>
          <ns3:TrackPointExtension>
            <ns3:hr>104</ns3:hr>
            <ns3:cad>0</ns3:cad>
          </ns3:TrackPointExtension>
        </extensions>
      </trkpt>
      <trkpt lat="37.93991600163280963897705078125" lon="-107.126365564763545989990234375">
        <ele>3753.199951171875</ele>
        <time>2026-01-06T16:54:21.000Z</time>
        <extensions>
          <ns3:TrackPointExtension>
            <ns3:hr>105</ns3:hr>
            <ns3:cad>0</ns3:cad>
          </ns3:TrackPointExtension>
        </extensions>
      </trkpt>
      <trkpt lat="37.93991600163280963897705078125" lon="-107.126365564763545989990234375">
        <ele>3753.39990234375</ele>
        <time>2026-01-06T16:54:24.000Z</time>
        <extensions>
          <ns3:TrackPointExtension>
            <ns3:hr>110</ns3:hr>
            <ns3:cad>0</ns3:cad>
          </ns3:TrackPointExtension>
        </extensions>
      </trkpt>
      <trkpt lat="37.93991600163280963897705078125" lon="-107.126365564763545989990234375">
        <ele>3753.39990234375</ele>
        <time>2026-01-06T16:54:25.000Z</time>
        <extensions>
          <ns3:TrackPointExtension>
            <ns3:hr>120</ns3:hr>
            <ns3:cad>0</ns3:cad>
          </ns3:TrackPointExtension>
        </extensions>
      </trkpt>
      <trkpt lat="37.93991600163280963897705078125" lon="-107.126365564763545989990234375">
        <ele>3753.199951171875</ele>
        <time>2026-01-06T16:54:29.000Z</time>
        <extensions>
          <ns3:TrackPointExtension>
            <ns3:hr>120</ns3:hr>
            <ns3:cad>0</ns3:cad>
          </ns3:TrackPointExtension>
        </extensions>
      </trkpt>
      <trkpt lat="37.93991600163280963897705078125" lon="-107.126365564763545989990234375">
        <ele>3753.39990234375</ele>
        <time>2026-01-06T16:54:33.000Z</time>
        <extensions>
          <ns3:TrackPointExtension>
            <ns3:hr>117</ns3:hr>
            <ns3:cad>0</ns3:cad>
          </ns3:TrackPointExtension>
        </extensions>
      </trkpt>
      <trkpt lat="37.93991600163280963897705078125" lon="-107.126365564763545989990234375">
        <ele>3753.199951171875</ele>
        <time>2026-01-06T16:54:39.000Z</time>
        <extensions>
          <ns3:TrackPointExtension>
            <ns3:hr>115</ns3:hr>
            <ns3:cad>0</ns3:cad>
          </ns3:TrackPointExtension>
        </extensions>
      </trkpt>
      <trkpt lat="37.93991600163280963897705078125" lon="-107.126365564763545989990234375">
        <ele>3753.199951171875</ele>
        <time>2026-01-06T16:54:44.000Z</time>
        <extensions>
          <ns3:TrackPointExtension>
            <ns3:hr>112</ns3:hr>
            <ns3:cad>0</ns3:cad>
          </ns3:TrackPointExtension>
        </extensions>
      </trkpt>
      <trkpt lat="37.93991600163280963897705078125" lon="-107.126365564763545989990234375">
        <ele>3753</ele>
        <time>2026-01-06T16:54:46.000Z</time>
        <extensions>
          <ns3:TrackPointExtension>
            <ns3:hr>108</ns3:hr>
            <ns3:cad>0</ns3:cad>
          </ns3:TrackPointExtension>
        </extensions>
      </trkpt>
      <trkpt lat="37.93991600163280963897705078125" lon="-107.126365564763545989990234375">
        <ele>3753</ele>
        <time>2026-01-06T16:54:49.000Z</time>
        <extensions>
          <ns3:TrackPointExtension>
            <ns3:hr>106</ns3:hr>
            <ns3:cad>0</ns3:cad>
          </ns3:TrackPointExtension>
        </extensions>
      </trkpt>
      <trkpt lat="37.93991600163280963897705078125" lon="-107.126365564763545989990234375">
        <ele>3753</ele>
        <time>2026-01-06T16:54:55.000Z</time>
        <extensions>
          <ns3:TrackPointExtension>
            <ns3:hr>105</ns3:hr>
            <ns3:cad>0</ns3:cad>
          </ns3:TrackPointExtension>
        </extensions>
      </trkpt>
      <trkpt lat="37.93991600163280963897705078125" lon="-107.126365564763545989990234375">
        <ele>3753</ele>
        <time>2026-01-06T16:54:59.000Z</time>
        <extensions>
          <ns3:TrackPointExtension>
            <ns3:hr>104</ns3:hr>
            <ns3:cad>0</ns3:cad>
          </ns3:TrackPointExtension>
        </extensions>
      </trkpt>
      <trkpt lat="37.93995774351060390472412109375" lon="-107.12633715011179447174072265625">
        <ele>3753</ele>
        <time>2026-01-06T16:55:05.000Z</time>
        <extensions>
          <ns3:TrackPointExtension>
            <ns3:hr>101</ns3:hr>
            <ns3:cad>0</ns3:cad>
          </ns3:TrackPointExtension>
        </extensions>
      </trkpt>
      <trkpt lat="37.93995774351060390472412109375" lon="-107.12633715011179447174072265625">
        <ele>3753</ele>
        <time>2026-01-06T16:55:11.000Z</time>
        <extensions>
          <ns3:TrackPointExtension>
            <ns3:hr>101</ns3:hr>
            <ns3:cad>0</ns3:cad>
          </ns3:TrackPointExtension>
        </extensions>
      </trkpt>
      <trkpt lat="37.93997584842145442962646484375" lon="-107.12632306851446628570556640625">
        <ele>3752.800048828125</ele>
        <time>2026-01-06T16:55:15.000Z</time>
        <extensions>
          <ns3:TrackPointExtension>
            <ns3:hr>100</ns3:hr>
            <ns3:cad>0</ns3:cad>
          </ns3:TrackPointExtension>
        </extensions>
      </trkpt>
      <trkpt lat="37.94000417925417423248291015625" lon="-107.1263144351541996002197265625">
        <ele>3752.800048828125</ele>
        <time>2026-01-06T16:55:18.000Z</time>
        <extensions>
          <ns3:TrackPointExtension>
            <ns3:hr>97</ns3:hr>
            <ns3:cad>0</ns3:cad>
          </ns3:TrackPointExtension>
        </extensions>
      </trkpt>
      <trkpt lat="37.94003066606819629669189453125" lon="-107.12630219757556915283203125">
        <ele>3752.60009765625</ele>
        <time>2026-01-06T16:55:21.000Z</time>
        <extensions>
          <ns3:TrackPointExtension>
            <ns3:hr>95</ns3:hr>
            <ns3:cad>78</ns3:cad>
          </ns3:TrackPointExtension>
        </extensions>
      </trkpt>
      <trkpt lat="37.9400418139994144439697265625" lon="-107.1262973360717296600341796875">
        <ele>3752.199951171875</ele>
        <time>2026-01-06T16:55:23.000Z</time>
        <extensions>
          <ns3:TrackPointExtension>
            <ns3:hr>96</ns3:hr>
            <ns3:cad>41</ns3:cad>
          </ns3:TrackPointExtension>
        </extensions>
      </trkpt>
      <trkpt lat="37.94005027972161769866943359375" lon="-107.12629993446171283721923828125">
        <ele>3752</ele>
        <time>2026-01-06T16:55:24.000Z</time>
        <extensions>
          <ns3:TrackPointExtension>
            <ns3:hr>96</ns3:hr>
            <ns3:cad>41</ns3:cad>
          </ns3:TrackPointExtension>
        </extensions>
      </trkpt>
      <trkpt lat="37.94007743708789348602294921875" lon="-107.1262788958847522735595703125">
        <ele>3751.800048828125</ele>
        <time>2026-01-06T16:55:28.000Z</time>
        <extensions>
          <ns3:TrackPointExtension>
            <ns3:hr>96</ns3:hr>
            <ns3:cad>44</ns3:cad>
          </ns3:TrackPointExtension>
        </extensions>
      </trkpt>
      <trkpt lat="37.940094955265522003173828125" lon="-107.126255594193935394287109375">
        <ele>3751.800048828125</ele>
        <time>2026-01-06T16:55:31.000Z</time>
        <extensions>
          <ns3:TrackPointExtension>
            <ns3:hr>99</ns3:hr>
            <ns3:cad>45</ns3:cad>
          </ns3:TrackPointExtension>
        </extensions>
      </trkpt>
      <trkpt lat="37.94011163525283336639404296875" lon="-107.12620991282165050506591796875">
        <ele>3751.39990234375</ele>
        <time>2026-01-06T16:55:35.000Z</time>
        <extensions>
          <ns3:TrackPointExtension>
            <ns3:hr>99</ns3:hr>
            <ns3:cad>0</ns3:cad>
          </ns3:TrackPointExtension>
        </extensions>
      </trkpt>
      <trkpt lat="37.9401397146284580230712890625" lon="-107.1261333860456943511962890625">
        <ele>3751.60009765625</ele>
        <time>2026-01-06T16:55:41.000Z</time>
        <extensions>
          <ns3:TrackPointExtension>
            <ns3:hr>98</ns3:hr>
            <ns3:cad>46</ns3:cad>
          </ns3:TrackPointExtension>
        </extensions>
      </trkpt>
      <trkpt lat="37.940148599445819854736328125" lon="-107.12609834969043731689453125">
        <ele>3751</ele>
        <time>2026-01-06T16:55:44.000Z</time>
        <extensions>
          <ns3:TrackPointExtension>
            <ns3:hr>98</ns3:hr>
            <ns3:cad>45</ns3:cad>
          </ns3:TrackPointExtension>
        </extensions>
      </trkpt>
      <trkpt lat="37.9401594959199428558349609375" lon="-107.12607647292315959930419921875">
        <ele>3750.39990234375</ele>
        <time>2026-01-06T16:55:47.000Z</time>
        <extensions>
          <ns3:TrackPointExtension>
            <ns3:hr>99</ns3:hr>
            <ns3:cad>45</ns3:cad>
          </ns3:TrackPointExtension>
        </extensions>
      </trkpt>
      <trkpt lat="37.9401772655546665191650390625" lon="-107.12601562030613422393798828125">
        <ele>3751.39990234375</ele>
        <time>2026-01-06T16:55:53.000Z</time>
        <extensions>
          <ns3:TrackPointExtension>
            <ns3:hr>101</ns3:hr>
            <ns3:cad>0</ns3:cad>
          </ns3:TrackPointExtension>
        </extensions>
      </trkpt>
      <trkpt lat="37.94021037407219409942626953125" lon="-107.12594948709011077880859375">
        <ele>3751.39990234375</ele>
        <time>2026-01-06T16:55:59.000Z</time>
        <extensions>
          <ns3:TrackPointExtension>
            <ns3:hr>102</ns3:hr>
            <ns3:cad>0</ns3:cad>
          </ns3:TrackPointExtension>
        </extensions>
      </trkpt>
      <trkpt lat="37.94021196663379669189453125" lon="-107.12594755925238132476806640625">
        <ele>3751</ele>
        <time>2026-01-06T16:56:04.000Z</time>
        <extensions>
          <ns3:TrackPointExtension>
            <ns3:hr>102</ns3:hr>
            <ns3:cad>0</ns3:cad>
          </ns3:TrackPointExtension>
        </extensions>
      </trkpt>
      <trkpt lat="37.94023451395332813262939453125" lon="-107.125896178185939788818359375">
        <ele>3751.800048828125</ele>
        <time>2026-01-06T16:56:09.000Z</time>
        <extensions>
          <ns3:TrackPointExtension>
            <ns3:hr>105</ns3:hr>
            <ns3:cad>0</ns3:cad>
          </ns3:TrackPointExtension>
        </extensions>
      </trkpt>
      <trkpt lat="37.94023769907653331756591796875" lon="-107.12588519789278507232666015625">
        <ele>3752</ele>
        <time>2026-01-06T16:56:10.000Z</time>
        <extensions>
          <ns3:TrackPointExtension>
            <ns3:hr>104</ns3:hr>
            <ns3:cad>0</ns3:cad>
          </ns3:TrackPointExtension>
        </extensions>
      </trkpt>
      <trkpt lat="37.94024415314197540283203125" lon="-107.12587438523769378662109375">
        <ele>3752.199951171875</ele>
        <time>2026-01-06T16:56:11.000Z</time>
        <extensions>
          <ns3:TrackPointExtension>
            <ns3:hr>104</ns3:hr>
            <ns3:cad>0</ns3:cad>
          </ns3:TrackPointExtension>
        </extensions>
      </trkpt>
      <trkpt lat="37.94026871211826801300048828125" lon="-107.125833816826343536376953125">
        <ele>3751.800048828125</ele>
        <time>2026-01-06T16:56:15.000Z</time>
        <extensions>
          <ns3:TrackPointExtension>
            <ns3:hr>105</ns3:hr>
            <ns3:cad>45</ns3:cad>
          </ns3:TrackPointExtension>
        </extensions>
      </trkpt>
      <trkpt lat="37.940295450389385223388671875" lon="-107.1257905662059783935546875">
        <ele>3751.800048828125</ele>
        <time>2026-01-06T16:56:20.000Z</time>
        <extensions>
          <ns3:TrackPointExtension>
            <ns3:hr>105</ns3:hr>
            <ns3:cad>46</ns3:cad>
          </ns3:TrackPointExtension>
        </extensions>
      </trkpt>
      <trkpt lat="37.94033559970557689666748046875" lon="-107.12571236304938793182373046875">
        <ele>3752.199951171875</ele>
        <time>2026-01-06T16:56:26.000Z</time>
        <extensions>
          <ns3:TrackPointExtension>
            <ns3:hr>104</ns3:hr>
            <ns3:cad>43</ns3:cad>
          </ns3:TrackPointExtension>
        </extensions>
      </trkpt>
      <trkpt lat="37.9403797723352909088134765625" lon="-107.1256430447101593017578125">
        <ele>3752.199951171875</ele>
        <time>2026-01-06T16:56:32.000Z</time>
        <extensions>
          <ns3:TrackPointExtension>
            <ns3:hr>103</ns3:hr>
            <ns3:cad>49</ns3:cad>
          </ns3:TrackPointExtension>
        </extensions>
      </trkpt>
      <trkpt lat="37.9404236935079097747802734375" lon="-107.125587053596973419189453125">
        <ele>3753</ele>
        <time>2026-01-06T16:56:38.000Z</time>
        <extensions>
          <ns3:TrackPointExtension>
            <ns3:hr>103</ns3:hr>
            <ns3:cad>44</ns3:cad>
          </ns3:TrackPointExtension>
        </extensions>
      </trkpt>
      <trkpt lat="37.94043467380106449127197265625" lon="-107.12557590566575527191162109375">
        <ele>3753.199951171875</ele>
        <time>2026-01-06T16:56:40.000Z</time>
        <extensions>
          <ns3:TrackPointExtension>
            <ns3:hr>103</ns3:hr>
            <ns3:cad>44</ns3:cad>
          </ns3:TrackPointExtension>
        </extensions>
      </trkpt>
      <trkpt lat="37.94045529328286647796630859375" lon="-107.12553785182535648345947265625">
        <ele>3753.39990234375</ele>
        <time>2026-01-06T16:56:44.000Z</time>
        <extensions>
          <ns3:TrackPointExtension>
            <ns3:hr>103</ns3:hr>
            <ns3:cad>43</ns3:cad>
          </ns3:TrackPointExtension>
        </extensions>
      </trkpt>
      <trkpt lat="37.94049502350389957427978515625" lon="-107.125469036400318145751953125">
        <ele>3753.199951171875</ele>
        <time>2026-01-06T16:56:50.000Z</time>
        <extensions>
          <ns3:TrackPointExtension>
            <ns3:hr>104</ns3:hr>
            <ns3:cad>48</ns3:cad>
          </ns3:TrackPointExtension>
        </extensions>
      </trkpt>
      <trkpt lat="37.9405371844768524169921875" lon="-107.1254031546413898468017578125">
        <ele>3753.800048828125</ele>
        <time>2026-01-06T16:56:56.000Z</time>
        <extensions>
          <ns3:TrackPointExtension>
            <ns3:hr>106</ns3:hr>
            <ns3:cad>46</ns3:cad>
          </ns3:TrackPointExtension>
        </extensions>
      </trkpt>
      <trkpt lat="37.94057314284145832061767578125" lon="-107.12533517740666866302490234375">
        <ele>3753.60009765625</ele>
        <time>2026-01-06T16:57:02.000Z</time>
        <extensions>
          <ns3:TrackPointExtension>
            <ns3:hr>108</ns3:hr>
            <ns3:cad>0</ns3:cad>
          </ns3:TrackPointExtension>
        </extensions>
      </trkpt>
      <trkpt lat="37.94059409759938716888427734375" lon="-107.12530651129782199859619140625">
        <ele>3753.60009765625</ele>
        <time>2026-01-06T16:57:05.000Z</time>
        <extensions>
          <ns3:TrackPointExtension>
            <ns3:hr>109</ns3:hr>
            <ns3:cad>0</ns3:cad>
          </ns3:TrackPointExtension>
        </extensions>
      </trkpt>
      <trkpt lat="37.9406275413930416107177734375" lon="-107.1252435632050037384033203125">
        <ele>3753.39990234375</ele>
        <time>2026-01-06T16:57:11.000Z</time>
        <extensions>
          <ns3:TrackPointExtension>
            <ns3:hr>108</ns3:hr>
            <ns3:cad>0</ns3:cad>
          </ns3:TrackPointExtension>
        </extensions>
      </trkpt>
      <trkpt lat="37.94065578840672969818115234375" lon="-107.12517977692186832427978515625">
        <ele>3753.39990234375</ele>
        <time>2026-01-06T16:57:17.000Z</time>
        <extensions>
          <ns3:TrackPointExtension>
            <ns3:hr>109</ns3:hr>
            <ns3:cad>0</ns3:cad>
          </ns3:TrackPointExtension>
        </extensions>
      </trkpt>
      <trkpt lat="37.9406614042818546295166015625" lon="-107.12517164647579193115234375">
        <ele>3753.199951171875</ele>
        <time>2026-01-06T16:57:18.000Z</time>
        <extensions>
          <ns3:TrackPointExtension>
            <ns3:hr>109</ns3:hr>
            <ns3:cad>44</ns3:cad>
          </ns3:TrackPointExtension>
        </extensions>
      </trkpt>
      <trkpt lat="37.94069300405681133270263671875" lon="-107.12511523626744747161865234375">
        <ele>3753</ele>
        <time>2026-01-06T16:57:24.000Z</time>
        <extensions>
          <ns3:TrackPointExtension>
            <ns3:hr>108</ns3:hr>
            <ns3:cad>41</ns3:cad>
          </ns3:TrackPointExtension>
        </extensions>
      </trkpt>
      <trkpt lat="37.94069937430322170257568359375" lon="-107.12510668672621250152587890625">
        <ele>3753</ele>
        <time>2026-01-06T16:57:25.000Z</time>
        <extensions>
          <ns3:TrackPointExtension>
            <ns3:hr>108</ns3:hr>
            <ns3:cad>41</ns3:cad>
          </ns3:TrackPointExtension>
        </extensions>
      </trkpt>
      <trkpt lat="37.940734662115573883056640625" lon="-107.1250504441559314727783203125">
        <ele>3753</ele>
        <time>2026-01-06T16:57:31.000Z</time>
        <extensions>
          <ns3:TrackPointExtension>
            <ns3:hr>108</ns3:hr>
            <ns3:cad>79</ns3:cad>
          </ns3:TrackPointExtension>
        </extensions>
      </trkpt>
      <trkpt lat="37.94076290912926197052001953125" lon="-107.12500124238431453704833984375">
        <ele>3753.199951171875</ele>
        <time>2026-01-06T16:57:36.000Z</time>
        <extensions>
          <ns3:TrackPointExtension>
            <ns3:hr>108</ns3:hr>
            <ns3:cad>79</ns3:cad>
          </ns3:TrackPointExtension>
        </extensions>
      </trkpt>
      <trkpt lat="37.94079878367483615875244140625" lon="-107.1249418146908283233642578125">
        <ele>3753.39990234375</ele>
        <time>2026-01-06T16:57:42.000Z</time>
        <extensions>
          <ns3:TrackPointExtension>
            <ns3:hr>106</ns3:hr>
            <ns3:cad>43</ns3:cad>
          </ns3:TrackPointExtension>
        </extensions>
      </trkpt>
      <trkpt lat="37.94080548919737339019775390625" lon="-107.124931253492832183837890625">
        <ele>3753.199951171875</ele>
        <time>2026-01-06T16:57:43.000Z</time>
        <extensions>
          <ns3:TrackPointExtension>
            <ns3:hr>106</ns3:hr>
            <ns3:cad>41</ns3:cad>
          </ns3:TrackPointExtension>
        </extensions>
      </trkpt>
      <trkpt lat="37.94083633460104465484619140625" lon="-107.12486914359033107757568359375">
        <ele>3753</ele>
        <time>2026-01-06T16:57:49.000Z</time>
        <extensions>
          <ns3:TrackPointExtension>
            <ns3:hr>105</ns3:hr>
            <ns3:cad>0</ns3:cad>
          </ns3:TrackPointExtension>
        </extensions>
      </trkpt>
      <trkpt lat="37.94084689579904079437255859375" lon="-107.12485246360301971435546875">
        <ele>3753.199951171875</ele>
        <time>2026-01-06T16:57:51.000Z</time>
        <extensions>
          <ns3:TrackPointExtension>
            <ns3:hr>105</ns3:hr>
            <ns3:cad>0</ns3:cad>
          </ns3:TrackPointExtension>
        </extensions>
      </trkpt>
      <trkpt lat="37.94087220914661884307861328125" lon="-107.12480158545076847076416015625">
        <ele>3753.39990234375</ele>
        <time>2026-01-06T16:57:56.000Z</time>
        <extensions>
          <ns3:TrackPointExtension>
            <ns3:hr>105</ns3:hr>
            <ns3:cad>40</ns3:cad>
          </ns3:TrackPointExtension>
        </extensions>
      </trkpt>
      <trkpt lat="37.94090523384511470794677734375" lon="-107.12474274449050426483154296875">
        <ele>3753.199951171875</ele>
        <time>2026-01-06T16:58:02.000Z</time>
        <extensions>
          <ns3:TrackPointExtension>
            <ns3:hr>104</ns3:hr>
            <ns3:cad>75</ns3:cad>
          </ns3:TrackPointExtension>
        </extensions>
      </trkpt>
      <trkpt lat="37.9409115202724933624267578125" lon="-107.1247258968651294708251953125">
        <ele>3753.199951171875</ele>
        <time>2026-01-06T16:58:03.000Z</time>
        <extensions>
          <ns3:TrackPointExtension>
            <ns3:hr>105</ns3:hr>
            <ns3:cad>75</ns3:cad>
          </ns3:TrackPointExtension>
        </extensions>
      </trkpt>
      <trkpt lat="37.9409416951239109039306640625" lon="-107.12466529570519924163818359375">
        <ele>3753.60009765625</ele>
        <time>2026-01-06T16:58:09.000Z</time>
        <extensions>
          <ns3:TrackPointExtension>
            <ns3:hr>105</ns3:hr>
            <ns3:cad>76</ns3:cad>
          </ns3:TrackPointExtension>
        </extensions>
      </trkpt>
      <trkpt lat="37.940964661538600921630859375" lon="-107.1246186085045337677001953125">
        <ele>3753.60009765625</ele>
        <time>2026-01-06T16:58:14.000Z</time>
        <extensions>
          <ns3:TrackPointExtension>
            <ns3:hr>106</ns3:hr>
            <ns3:cad>0</ns3:cad>
          </ns3:TrackPointExtension>
        </extensions>
      </trkpt>
      <trkpt lat="37.940990142524242401123046875" lon="-107.1245592646300792694091796875">
        <ele>3753.60009765625</ele>
        <time>2026-01-06T16:58:20.000Z</time>
        <extensions>
          <ns3:TrackPointExtension>
            <ns3:hr>107</ns3:hr>
            <ns3:cad>73</ns3:cad>
          </ns3:TrackPointExtension>
        </extensions>
      </trkpt>
      <trkpt lat="37.94101738370954990386962890625" lon="-107.12451810948550701141357421875">
        <ele>3753.800048828125</ele>
        <time>2026-01-06T16:58:26.000Z</time>
        <extensions>
          <ns3:TrackPointExtension>
            <ns3:hr>108</ns3:hr>
            <ns3:cad>73</ns3:cad>
          </ns3:TrackPointExtension>
        </extensions>
      </trkpt>
      <trkpt lat="37.9410214908421039581298828125" lon="-107.12450511753559112548828125">
        <ele>3753.60009765625</ele>
        <time>2026-01-06T16:58:27.000Z</time>
        <extensions>
          <ns3:TrackPointExtension>
            <ns3:hr>107</ns3:hr>
            <ns3:cad>0</ns3:cad>
          </ns3:TrackPointExtension>
        </extensions>
      </trkpt>
      <trkpt lat="37.94104454107582569122314453125" lon="-107.12446010671555995941162109375">
        <ele>3753.60009765625</ele>
        <time>2026-01-06T16:58:33.000Z</time>
        <extensions>
          <ns3:TrackPointExtension>
            <ns3:hr>107</ns3:hr>
            <ns3:cad>70</ns3:cad>
          </ns3:TrackPointExtension>
        </extensions>
      </trkpt>
      <trkpt lat="37.9410493187606334686279296875" lon="-107.12444636039435863494873046875">
        <ele>3753.60009765625</ele>
        <time>2026-01-06T16:58:34.000Z</time>
        <extensions>
          <ns3:TrackPointExtension>
            <ns3:hr>107</ns3:hr>
            <ns3:cad>70</ns3:cad>
          </ns3:TrackPointExtension>
        </extensions>
      </trkpt>
      <trkpt lat="37.94107320718467235565185546875" lon="-107.12440243922173976898193359375">
        <ele>3753.800048828125</ele>
        <time>2026-01-06T16:58:40.000Z</time>
        <extensions>
          <ns3:TrackPointExtension>
            <ns3:hr>106</ns3:hr>
            <ns3:cad>68</ns3:cad>
          </ns3:TrackPointExtension>
        </extensions>
      </trkpt>
      <trkpt lat="37.9410774819552898406982421875" lon="-107.12439657188951969146728515625">
        <ele>3753.800048828125</ele>
        <time>2026-01-06T16:58:41.000Z</time>
        <extensions>
          <ns3:TrackPointExtension>
            <ns3:hr>106</ns3:hr>
            <ns3:cad>68</ns3:cad>
          </ns3:TrackPointExtension>
        </extensions>
      </trkpt>
      <trkpt lat="37.94109315611422061920166015625" lon="-107.12436824105679988861083984375">
        <ele>3753.60009765625</ele>
        <time>2026-01-06T16:58:46.000Z</time>
        <extensions>
          <ns3:TrackPointExtension>
            <ns3:hr>105</ns3:hr>
            <ns3:cad>0</ns3:cad>
          </ns3:TrackPointExtension>
        </extensions>
      </trkpt>
      <trkpt lat="37.94111914001405239105224609375" lon="-107.12433211505413055419921875">
        <ele>3753.800048828125</ele>
        <time>2026-01-06T16:58:51.000Z</time>
        <extensions>
          <ns3:TrackPointExtension>
            <ns3:hr>102</ns3:hr>
            <ns3:cad>70</ns3:cad>
          </ns3:TrackPointExtension>
        </extensions>
      </trkpt>
      <trkpt lat="37.9411351494491100311279296875" lon="-107.12430269457399845123291015625">
        <ele>3754.199951171875</ele>
        <time>2026-01-06T16:58:56.000Z</time>
        <extensions>
          <ns3:TrackPointExtension>
            <ns3:hr>102</ns3:hr>
            <ns3:cad>0</ns3:cad>
          </ns3:TrackPointExtension>
        </extensions>
      </trkpt>
      <trkpt lat="37.94114001095294952392578125" lon="-107.12429598905146121978759765625">
        <ele>3754.199951171875</ele>
        <time>2026-01-06T16:58:57.000Z</time>
        <extensions>
          <ns3:TrackPointExtension>
            <ns3:hr>101</ns3:hr>
            <ns3:cad>16</ns3:cad>
          </ns3:TrackPointExtension>
        </extensions>
      </trkpt>
      <trkpt lat="37.9411619715392589569091796875" lon="-107.12425491772592067718505859375">
        <ele>3754.199951171875</ele>
        <time>2026-01-06T16:59:03.000Z</time>
        <extensions>
          <ns3:TrackPointExtension>
            <ns3:hr>101</ns3:hr>
            <ns3:cad>61</ns3:cad>
          </ns3:TrackPointExtension>
        </extensions>
      </trkpt>
      <trkpt lat="37.9411659948527812957763671875" lon="-107.12425072677433490753173828125">
        <ele>3754.199951171875</ele>
        <time>2026-01-06T16:59:04.000Z</time>
        <extensions>
          <ns3:TrackPointExtension>
            <ns3:hr>101</ns3:hr>
            <ns3:cad>61</ns3:cad>
          </ns3:TrackPointExtension>
        </extensions>
      </trkpt>
      <trkpt lat="37.94118921272456645965576171875" lon="-107.12420462630689144134521484375">
        <ele>3754.199951171875</ele>
        <time>2026-01-06T16:59:10.000Z</time>
        <extensions>
          <ns3:TrackPointExtension>
            <ns3:hr>99</ns3:hr>
            <ns3:cad>66</ns3:cad>
          </ns3:TrackPointExtension>
        </extensions>
      </trkpt>
      <trkpt lat="37.941193319857120513916015625" lon="-107.12419456802308559417724609375">
        <ele>3754.39990234375</ele>
        <time>2026-01-06T16:59:11.000Z</time>
        <extensions>
          <ns3:TrackPointExtension>
            <ns3:hr>99</ns3:hr>
            <ns3:cad>65</ns3:cad>
          </ns3:TrackPointExtension>
        </extensions>
      </trkpt>
      <trkpt lat="37.94122005812823772430419921875" lon="-107.12414645589888095855712890625">
        <ele>3755.199951171875</ele>
        <time>2026-01-06T16:59:17.000Z</time>
        <extensions>
          <ns3:TrackPointExtension>
            <ns3:hr>100</ns3:hr>
            <ns3:cad>71</ns3:cad>
          </ns3:TrackPointExtension>
        </extensions>
      </trkpt>
      <trkpt lat="37.94122491963207721710205078125" lon="-107.1241351403295993804931640625">
        <ele>3755.199951171875</ele>
        <time>2026-01-06T16:59:18.000Z</time>
        <extensions>
          <ns3:TrackPointExtension>
            <ns3:hr>101</ns3:hr>
            <ns3:cad>70</ns3:cad>
          </ns3:TrackPointExtension>
        </extensions>
      </trkpt>
      <trkpt lat="37.94125559739768505096435546875" lon="-107.12408560328185558319091796875">
        <ele>3755.199951171875</ele>
        <time>2026-01-06T16:59:24.000Z</time>
        <extensions>
          <ns3:TrackPointExtension>
            <ns3:hr>104</ns3:hr>
            <ns3:cad>71</ns3:cad>
          </ns3:TrackPointExtension>
        </extensions>
      </trkpt>
      <trkpt lat="37.94127546250820159912109375" lon="-107.12405609898269176483154296875">
        <ele>3755</ele>
        <time>2026-01-06T16:59:28.000Z</time>
        <extensions>
          <ns3:TrackPointExtension>
            <ns3:hr>107</ns3:hr>
            <ns3:cad>0</ns3:cad>
          </ns3:TrackPointExtension>
        </extensions>
      </trkpt>
      <trkpt lat="37.94127571396529674530029296875" lon="-107.1240476332604885101318359375">
        <ele>3755</ele>
        <time>2026-01-06T16:59:29.000Z</time>
        <extensions>
          <ns3:TrackPointExtension>
            <ns3:hr>108</ns3:hr>
            <ns3:cad>0</ns3:cad>
          </ns3:TrackPointExtension>
        </extensions>
      </trkpt>
      <trkpt lat="37.94127521105110645294189453125" lon="-107.12404687888920307159423828125">
        <ele>3754.199951171875</ele>
        <time>2026-01-06T16:59:35.000Z</time>
        <extensions>
          <ns3:TrackPointExtension>
            <ns3:hr>108</ns3:hr>
            <ns3:cad>0</ns3:cad>
          </ns3:TrackPointExtension>
        </extensions>
      </trkpt>
      <trkpt lat="37.94127521105110645294189453125" lon="-107.12404687888920307159423828125">
        <ele>3754.199951171875</ele>
        <time>2026-01-06T16:59:36.000Z</time>
        <extensions>
          <ns3:TrackPointExtension>
            <ns3:hr>108</ns3:hr>
            <ns3:cad>0</ns3:cad>
          </ns3:TrackPointExtension>
        </extensions>
      </trkpt>
      <trkpt lat="37.94127521105110645294189453125" lon="-107.12404687888920307159423828125">
        <ele>3754.199951171875</ele>
        <time>2026-01-06T16:59:42.000Z</time>
        <extensions>
          <ns3:TrackPointExtension>
            <ns3:hr>108</ns3:hr>
            <ns3:cad>0</ns3:cad>
          </ns3:TrackPointExtension>
        </extensions>
      </trkpt>
      <trkpt lat="37.94127521105110645294189453125" lon="-107.12404687888920307159423828125">
        <ele>3754.199951171875</ele>
        <time>2026-01-06T16:59:46.000Z</time>
        <extensions>
          <ns3:TrackPointExtension>
            <ns3:hr>108</ns3:hr>
            <ns3:cad>0</ns3:cad>
          </ns3:TrackPointExtension>
        </extensions>
      </trkpt>
      <trkpt lat="37.94127521105110645294189453125" lon="-107.12404687888920307159423828125">
        <ele>3754.39990234375</ele>
        <time>2026-01-06T16:59:51.000Z</time>
        <extensions>
          <ns3:TrackPointExtension>
            <ns3:hr>112</ns3:hr>
            <ns3:cad>0</ns3:cad>
          </ns3:TrackPointExtension>
        </extensions>
      </trkpt>
      <trkpt lat="37.94127521105110645294189453125" lon="-107.12404687888920307159423828125">
        <ele>3754.39990234375</ele>
        <time>2026-01-06T16:59:52.000Z</time>
        <extensions>
          <ns3:TrackPointExtension>
            <ns3:hr>118</ns3:hr>
            <ns3:cad>0</ns3:cad>
          </ns3:TrackPointExtension>
        </extensions>
      </trkpt>
      <trkpt lat="37.94127521105110645294189453125" lon="-107.12404687888920307159423828125">
        <ele>3754.39990234375</ele>
        <time>2026-01-06T16:59:53.000Z</time>
        <extensions>
          <ns3:TrackPointExtension>
            <ns3:hr>118</ns3:hr>
            <ns3:cad>0</ns3:cad>
          </ns3:TrackPointExtension>
        </extensions>
      </trkpt>
      <trkpt lat="37.94127521105110645294189453125" lon="-107.12404687888920307159423828125">
        <ele>3754.199951171875</ele>
        <time>2026-01-06T16:59:55.000Z</time>
        <extensions>
          <ns3:TrackPointExtension>
            <ns3:hr>117</ns3:hr>
            <ns3:cad>0</ns3:cad>
          </ns3:TrackPointExtension>
        </extensions>
      </trkpt>
      <trkpt lat="37.94127521105110645294189453125" lon="-107.12404687888920307159423828125">
        <ele>3754</ele>
        <time>2026-01-06T17:00:00.000Z</time>
        <extensions>
          <ns3:TrackPointExtension>
            <ns3:hr>114</ns3:hr>
            <ns3:cad>0</ns3:cad>
          </ns3:TrackPointExtension>
        </extensions>
      </trkpt>
      <trkpt lat="37.94127521105110645294189453125" lon="-107.12404687888920307159423828125">
        <ele>3754</ele>
        <time>2026-01-06T17:00:01.000Z</time>
        <extensions>
          <ns3:TrackPointExtension>
            <ns3:hr>114</ns3:hr>
            <ns3:cad>0</ns3:cad>
          </ns3:TrackPointExtension>
        </extensions>
      </trkpt>
      <trkpt lat="37.94127521105110645294189453125" lon="-107.12404687888920307159423828125">
        <ele>3754.199951171875</ele>
        <time>2026-01-06T17:00:07.000Z</time>
        <extensions>
          <ns3:TrackPointExtension>
            <ns3:hr>115</ns3:hr>
            <ns3:cad>0</ns3:cad>
          </ns3:TrackPointExtension>
        </extensions>
      </trkpt>
      <trkpt lat="37.94127521105110645294189453125" lon="-107.12404687888920307159423828125">
        <ele>3754.199951171875</ele>
        <time>2026-01-06T17:00:09.000Z</time>
        <extensions>
          <ns3:TrackPointExtension>
            <ns3:hr>111</ns3:hr>
            <ns3:cad>0</ns3:cad>
          </ns3:TrackPointExtension>
        </extensions>
      </trkpt>
      <trkpt lat="37.94127521105110645294189453125" lon="-107.12404687888920307159423828125">
        <ele>3754</ele>
        <time>2026-01-06T17:00:15.000Z</time>
        <extensions>
          <ns3:TrackPointExtension>
            <ns3:hr>109</ns3:hr>
            <ns3:cad>0</ns3:cad>
          </ns3:TrackPointExtension>
        </extensions>
      </trkpt>
      <trkpt lat="37.94127521105110645294189453125" lon="-107.12404687888920307159423828125">
        <ele>3754</ele>
        <time>2026-01-06T17:00:17.000Z</time>
        <extensions>
          <ns3:TrackPointExtension>
            <ns3:hr>101</ns3:hr>
            <ns3:cad>0</ns3:cad>
          </ns3:TrackPointExtension>
        </extensions>
      </trkpt>
      <trkpt lat="37.94127521105110645294189453125" lon="-107.12404687888920307159423828125">
        <ele>3754</ele>
        <time>2026-01-06T17:00:18.000Z</time>
        <extensions>
          <ns3:TrackPointExtension>
            <ns3:hr>95</ns3:hr>
            <ns3:cad>0</ns3:cad>
          </ns3:TrackPointExtension>
        </extensions>
      </trkpt>
      <trkpt lat="37.94127521105110645294189453125" lon="-107.12404687888920307159423828125">
        <ele>3754</ele>
        <time>2026-01-06T17:00:19.000Z</time>
        <extensions>
          <ns3:TrackPointExtension>
            <ns3:hr>92</ns3:hr>
            <ns3:cad>0</ns3:cad>
          </ns3:TrackPointExtension>
        </extensions>
      </trkpt>
      <trkpt lat="37.94127521105110645294189453125" lon="-107.12404687888920307159423828125">
        <ele>3754</ele>
        <time>2026-01-06T17:00:24.000Z</time>
        <extensions>
          <ns3:TrackPointExtension>
            <ns3:hr>91</ns3:hr>
            <ns3:cad>0</ns3:cad>
          </ns3:TrackPointExtension>
        </extensions>
      </trkpt>
      <trkpt lat="37.94127521105110645294189453125" lon="-107.12404687888920307159423828125">
        <ele>3754</ele>
        <time>2026-01-06T17:00:30.000Z</time>
        <extensions>
          <ns3:TrackPointExtension>
            <ns3:hr>93</ns3:hr>
            <ns3:cad>0</ns3:cad>
          </ns3:TrackPointExtension>
        </extensions>
      </trkpt>
      <trkpt lat="37.94127521105110645294189453125" lon="-107.12404687888920307159423828125">
        <ele>3754</ele>
        <time>2026-01-06T17:00:36.000Z</time>
        <extensions>
          <ns3:TrackPointExtension>
            <ns3:hr>91</ns3:hr>
            <ns3:cad>0</ns3:cad>
          </ns3:TrackPointExtension>
        </extensions>
      </trkpt>
      <trkpt lat="37.94127521105110645294189453125" lon="-107.12404687888920307159423828125">
        <ele>3754</ele>
        <time>2026-01-06T17:00:38.000Z</time>
        <extensions>
          <ns3:TrackPointExtension>
            <ns3:hr>88</ns3:hr>
            <ns3:cad>0</ns3:cad>
          </ns3:TrackPointExtension>
        </extensions>
      </trkpt>
      <trkpt lat="37.94127521105110645294189453125" lon="-107.12404687888920307159423828125">
        <ele>3754.199951171875</ele>
        <time>2026-01-06T17:00:44.000Z</time>
        <extensions>
          <ns3:TrackPointExtension>
            <ns3:hr>88</ns3:hr>
            <ns3:cad>0</ns3:cad>
          </ns3:TrackPointExtension>
        </extensions>
      </trkpt>
      <trkpt lat="37.94127521105110645294189453125" lon="-107.12404687888920307159423828125">
        <ele>3754.199951171875</ele>
        <time>2026-01-06T17:00:45.000Z</time>
        <extensions>
          <ns3:TrackPointExtension>
            <ns3:hr>89</ns3:hr>
            <ns3:cad>0</ns3:cad>
          </ns3:TrackPointExtension>
        </extensions>
      </trkpt>
      <trkpt lat="37.94127521105110645294189453125" lon="-107.12404687888920307159423828125">
        <ele>3754.199951171875</ele>
        <time>2026-01-06T17:00:47.000Z</time>
        <extensions>
          <ns3:TrackPointExtension>
            <ns3:hr>92</ns3:hr>
            <ns3:cad>0</ns3:cad>
          </ns3:TrackPointExtension>
        </extensions>
      </trkpt>
      <trkpt lat="37.94127521105110645294189453125" lon="-107.12404687888920307159423828125">
        <ele>3753.800048828125</ele>
        <time>2026-01-06T17:00:49.000Z</time>
        <extensions>
          <ns3:TrackPointExtension>
            <ns3:hr>95</ns3:hr>
            <ns3:cad>0</ns3:cad>
          </ns3:TrackPointExtension>
        </extensions>
      </trkpt>
      <trkpt lat="37.94127521105110645294189453125" lon="-107.12404687888920307159423828125">
        <ele>3753.800048828125</ele>
        <time>2026-01-06T17:00:53.000Z</time>
        <extensions>
          <ns3:TrackPointExtension>
            <ns3:hr>96</ns3:hr>
            <ns3:cad>0</ns3:cad>
          </ns3:TrackPointExtension>
        </extensions>
      </trkpt>
      <trkpt lat="37.94127521105110645294189453125" lon="-107.12404687888920307159423828125">
        <ele>3754</ele>
        <time>2026-01-06T17:00:59.000Z</time>
        <extensions>
          <ns3:TrackPointExtension>
            <ns3:hr>97</ns3:hr>
            <ns3:cad>0</ns3:cad>
          </ns3:TrackPointExtension>
        </extensions>
      </trkpt>
      <trkpt lat="37.94127521105110645294189453125" lon="-107.12404687888920307159423828125">
        <ele>3754.199951171875</ele>
        <time>2026-01-06T17:01:04.000Z</time>
        <extensions>
          <ns3:TrackPointExtension>
            <ns3:hr>94</ns3:hr>
            <ns3:cad>0</ns3:cad>
          </ns3:TrackPointExtension>
        </extensions>
      </trkpt>
      <trkpt lat="37.94127521105110645294189453125" lon="-107.12404687888920307159423828125">
        <ele>3753.800048828125</ele>
        <time>2026-01-06T17:01:09.000Z</time>
        <extensions>
          <ns3:TrackPointExtension>
            <ns3:hr>95</ns3:hr>
            <ns3:cad>0</ns3:cad>
          </ns3:TrackPointExtension>
        </extensions>
      </trkpt>
      <trkpt lat="37.94127521105110645294189453125" lon="-107.12404687888920307159423828125">
        <ele>3754.199951171875</ele>
        <time>2026-01-06T17:01:15.000Z</time>
        <extensions>
          <ns3:TrackPointExtension>
            <ns3:hr>94</ns3:hr>
            <ns3:cad>0</ns3:cad>
          </ns3:TrackPointExtension>
        </extensions>
      </trkpt>
      <trkpt lat="37.94127521105110645294189453125" lon="-107.12404687888920307159423828125">
        <ele>3754.199951171875</ele>
        <time>2026-01-06T17:01:17.000Z</time>
        <extensions>
          <ns3:TrackPointExtension>
            <ns3:hr>95</ns3:hr>
            <ns3:cad>0</ns3:cad>
          </ns3:TrackPointExtension>
        </extensions>
      </trkpt>
      <trkpt lat="37.94127521105110645294189453125" lon="-107.12404687888920307159423828125">
        <ele>3754</ele>
        <time>2026-01-06T17:01:23.000Z</time>
        <extensions>
          <ns3:TrackPointExtension>
            <ns3:hr>96</ns3:hr>
            <ns3:cad>0</ns3:cad>
          </ns3:TrackPointExtension>
        </extensions>
      </trkpt>
      <trkpt lat="37.94128392823040485382080078125" lon="-107.12401871569454669952392578125">
        <ele>3754</ele>
        <time>2026-01-06T17:01:27.000Z</time>
        <extensions>
          <ns3:TrackPointExtension>
            <ns3:hr>96</ns3:hr>
            <ns3:cad>68</ns3:cad>
          </ns3:TrackPointExtension>
        </extensions>
      </trkpt>
      <trkpt lat="37.941318713128566741943359375" lon="-107.1239478886127471923828125">
        <ele>3754.39990234375</ele>
        <time>2026-01-06T17:01:33.000Z</time>
        <extensions>
          <ns3:TrackPointExtension>
            <ns3:hr>97</ns3:hr>
            <ns3:cad>41</ns3:cad>
          </ns3:TrackPointExtension>
        </extensions>
      </trkpt>
      <trkpt lat="37.9413483850657939910888671875" lon="-107.12388125248253345489501953125">
        <ele>3753.800048828125</ele>
        <time>2026-01-06T17:01:39.000Z</time>
        <extensions>
          <ns3:TrackPointExtension>
            <ns3:hr>99</ns3:hr>
            <ns3:cad>46</ns3:cad>
          </ns3:TrackPointExtension>
        </extensions>
      </trkpt>
      <trkpt lat="37.94135400094091892242431640625" lon="-107.12385795079171657562255859375">
        <ele>3753.60009765625</ele>
        <time>2026-01-06T17:01:41.000Z</time>
        <extensions>
          <ns3:TrackPointExtension>
            <ns3:hr>98</ns3:hr>
            <ns3:cad>48</ns3:cad>
          </ns3:TrackPointExtension>
        </extensions>
      </trkpt>
      <trkpt lat="37.94136774726212024688720703125" lon="-107.123812101781368255615234375">
        <ele>3753</ele>
        <time>2026-01-06T17:01:45.000Z</time>
        <extensions>
          <ns3:TrackPointExtension>
            <ns3:hr>98</ns3:hr>
            <ns3:cad>0</ns3:cad>
          </ns3:TrackPointExtension>
        </extensions>
      </trkpt>
      <trkpt lat="37.94137478806078433990478515625" lon="-107.1237898059189319610595703125">
        <ele>3753</ele>
        <time>2026-01-06T17:01:47.000Z</time>
        <extensions>
          <ns3:TrackPointExtension>
            <ns3:hr>97</ns3:hr>
            <ns3:cad>0</ns3:cad>
          </ns3:TrackPointExtension>
        </extensions>
      </trkpt>
      <trkpt lat="37.94140881858766078948974609375" lon="-107.12372333742678165435791015625">
        <ele>3752.60009765625</ele>
        <time>2026-01-06T17:01:53.000Z</time>
        <extensions>
          <ns3:TrackPointExtension>
            <ns3:hr>96</ns3:hr>
            <ns3:cad>0</ns3:cad>
          </ns3:TrackPointExtension>
        </extensions>
      </trkpt>
      <trkpt lat="37.94142072089016437530517578125" lon="-107.123706825077533721923828125">
        <ele>3752.199951171875</ele>
        <time>2026-01-06T17:01:55.000Z</time>
        <extensions>
          <ns3:TrackPointExtension>
            <ns3:hr>96</ns3:hr>
            <ns3:cad>0</ns3:cad>
          </ns3:TrackPointExtension>
        </extensions>
      </trkpt>
      <trkpt lat="37.9414315335452556610107421875" lon="-107.1236841939389705657958984375">
        <ele>3752</ele>
        <time>2026-01-06T17:01:57.000Z</time>
        <extensions>
          <ns3:TrackPointExtension>
            <ns3:hr>96</ns3:hr>
            <ns3:cad>52</ns3:cad>
          </ns3:TrackPointExtension>
        </extensions>
      </trkpt>
      <trkpt lat="37.941453494131565093994140625" lon="-107.12364253588020801544189453125">
        <ele>3751.800048828125</ele>
        <time>2026-01-06T17:02:01.000Z</time>
        <extensions>
          <ns3:TrackPointExtension>
            <ns3:hr>95</ns3:hr>
            <ns3:cad>48</ns3:cad>
          </ns3:TrackPointExtension>
        </extensions>
      </trkpt>
      <trkpt lat="37.94149012304842472076416015625" lon="-107.1235779114067554473876953125">
        <ele>3751.199951171875</ele>
        <time>2026-01-06T17:02:07.000Z</time>
        <extensions>
          <ns3:TrackPointExtension>
            <ns3:hr>96</ns3:hr>
            <ns3:cad>47</ns3:cad>
          </ns3:TrackPointExtension>
        </extensions>
      </trkpt>
      <trkpt lat="37.9414962418377399444580078125" lon="-107.12355251424014568328857421875">
        <ele>3751</ele>
        <time>2026-01-06T17:02:09.000Z</time>
        <extensions>
          <ns3:TrackPointExtension>
            <ns3:hr>97</ns3:hr>
            <ns3:cad>47</ns3:cad>
          </ns3:TrackPointExtension>
        </extensions>
      </trkpt>
      <trkpt lat="37.94152767397463321685791015625" lon="-107.12347841821610927581787109375">
        <ele>3750.39990234375</ele>
        <time>2026-01-06T17:02:15.000Z</time>
        <extensions>
          <ns3:TrackPointExtension>
            <ns3:hr>96</ns3:hr>
            <ns3:cad>48</ns3:cad>
          </ns3:TrackPointExtension>
        </extensions>
      </trkpt>
      <trkpt lat="37.94153940863907337188720703125" lon="-107.1234548650681972503662109375">
        <ele>3750.60009765625</ele>
        <time>2026-01-06T17:02:17.000Z</time>
        <extensions>
          <ns3:TrackPointExtension>
            <ns3:hr>95</ns3:hr>
            <ns3:cad>48</ns3:cad>
          </ns3:TrackPointExtension>
        </extensions>
      </trkpt>
      <trkpt lat="37.94155986048281192779541015625" lon="-107.12340004742145538330078125">
        <ele>3750</ele>
        <time>2026-01-06T17:02:22.000Z</time>
        <extensions>
          <ns3:TrackPointExtension>
            <ns3:hr>93</ns3:hr>
            <ns3:cad>0</ns3:cad>
          </ns3:TrackPointExtension>
        </extensions>
      </trkpt>
      <trkpt lat="37.94157427735626697540283203125" lon="-107.12337615899741649627685546875">
        <ele>3749.800048828125</ele>
        <time>2026-01-06T17:02:24.000Z</time>
        <extensions>
          <ns3:TrackPointExtension>
            <ns3:hr>92</ns3:hr>
            <ns3:cad>0</ns3:cad>
          </ns3:TrackPointExtension>
        </extensions>
      </trkpt>
      <trkpt lat="37.941607050597667694091796875" lon="-107.1233113668859004974365234375">
        <ele>3750</ele>
        <time>2026-01-06T17:02:30.000Z</time>
        <extensions>
          <ns3:TrackPointExtension>
            <ns3:hr>91</ns3:hr>
            <ns3:cad>42</ns3:cad>
          </ns3:TrackPointExtension>
        </extensions>
      </trkpt>
      <trkpt lat="37.9416300170123577117919921875" lon="-107.12328739464282989501953125">
        <ele>3749.60009765625</ele>
        <time>2026-01-06T17:02:34.000Z</time>
        <extensions>
          <ns3:TrackPointExtension>
            <ns3:hr>95</ns3:hr>
            <ns3:cad>42</ns3:cad>
          </ns3:TrackPointExtension>
        </extensions>
      </trkpt>
      <trkpt lat="37.94164971448481082916259765625" lon="-107.12327909655869007110595703125">
        <ele>3749.199951171875</ele>
        <time>2026-01-06T17:02:36.000Z</time>
        <extensions>
          <ns3:TrackPointExtension>
            <ns3:hr>96</ns3:hr>
            <ns3:cad>45</ns3:cad>
          </ns3:TrackPointExtension>
        </extensions>
      </trkpt>
      <trkpt lat="37.9417057894170284271240234375" lon="-107.1232456527650356292724609375">
        <ele>3749.60009765625</ele>
        <time>2026-01-06T17:02:42.000Z</time>
        <extensions>
          <ns3:TrackPointExtension>
            <ns3:hr>97</ns3:hr>
            <ns3:cad>45</ns3:cad>
          </ns3:TrackPointExtension>
        </extensions>
      </trkpt>
      <trkpt lat="37.94171945191919803619384765625" lon="-107.1232272125780582427978515625">
        <ele>3749.60009765625</ele>
        <time>2026-01-06T17:02:44.000Z</time>
        <extensions>
          <ns3:TrackPointExtension>
            <ns3:hr>97</ns3:hr>
            <ns3:cad>45</ns3:cad>
          </ns3:TrackPointExtension>
        </extensions>
      </trkpt>
      <trkpt lat="37.941765300929546356201171875" lon="-107.12320156395435333251953125">
        <ele>3749.199951171875</ele>
        <time>2026-01-06T17:02:50.000Z</time>
        <extensions>
          <ns3:TrackPointExtension>
            <ns3:hr>97</ns3:hr>
            <ns3:cad>46</ns3:cad>
          </ns3:TrackPointExtension>
        </extensions>
      </trkpt>
      <trkpt lat="37.94180779717862606048583984375" lon="-107.1231588162481784820556640625">
        <ele>3749.60009765625</ele>
        <time>2026-01-06T17:02:56.000Z</time>
        <extensions>
          <ns3:TrackPointExtension>
            <ns3:hr>98</ns3:hr>
            <ns3:cad>42</ns3:cad>
          </ns3:TrackPointExtension>
        </extensions>
      </trkpt>
      <trkpt lat="37.9418419115245342254638671875" lon="-107.12311916984617710113525390625">
        <ele>3749.199951171875</ele>
        <time>2026-01-06T17:03:02.000Z</time>
        <extensions>
          <ns3:TrackPointExtension>
            <ns3:hr>99</ns3:hr>
            <ns3:cad>43</ns3:cad>
          </ns3:TrackPointExtension>
        </extensions>
      </trkpt>
      <trkpt lat="37.94184744358062744140625" lon="-107.1231125481426715850830078125">
        <ele>3749.199951171875</ele>
        <time>2026-01-06T17:03:03.000Z</time>
        <extensions>
          <ns3:TrackPointExtension>
            <ns3:hr>99</ns3:hr>
            <ns3:cad>43</ns3:cad>
          </ns3:TrackPointExtension>
        </extensions>
      </trkpt>
      <trkpt lat="37.94187267310917377471923828125" lon="-107.1230941079556941986083984375">
        <ele>3749.39990234375</ele>
        <time>2026-01-06T17:03:06.000Z</time>
        <extensions>
          <ns3:TrackPointExtension>
            <ns3:hr>96</ns3:hr>
            <ns3:cad>43</ns3:cad>
          </ns3:TrackPointExtension>
        </extensions>
      </trkpt>
      <trkpt lat="37.9418945498764514923095703125" lon="-107.12306678295135498046875">
        <ele>3749.60009765625</ele>
        <time>2026-01-06T17:03:10.000Z</time>
        <extensions>
          <ns3:TrackPointExtension>
            <ns3:hr>96</ns3:hr>
            <ns3:cad>0</ns3:cad>
          </ns3:TrackPointExtension>
        </extensions>
      </trkpt>
      <trkpt lat="37.94193369336426258087158203125" lon="-107.12302730418741703033447265625">
        <ele>3749.800048828125</ele>
        <time>2026-01-06T17:03:16.000Z</time>
        <extensions>
          <ns3:TrackPointExtension>
            <ns3:hr>97</ns3:hr>
            <ns3:cad>0</ns3:cad>
          </ns3:TrackPointExtension>
        </extensions>
      </trkpt>
      <trkpt lat="37.941941320896148681640625" lon="-107.1230200119316577911376953125">
        <ele>3749.800048828125</ele>
        <time>2026-01-06T17:03:17.000Z</time>
        <extensions>
          <ns3:TrackPointExtension>
            <ns3:hr>97</ns3:hr>
            <ns3:cad>0</ns3:cad>
          </ns3:TrackPointExtension>
        </extensions>
      </trkpt>
      <trkpt lat="37.9419709928333759307861328125" lon="-107.12297550402581691741943359375">
        <ele>3749.60009765625</ele>
        <time>2026-01-06T17:03:23.000Z</time>
        <extensions>
          <ns3:TrackPointExtension>
            <ns3:hr>97</ns3:hr>
            <ns3:cad>41</ns3:cad>
          </ns3:TrackPointExtension>
        </extensions>
      </trkpt>
      <trkpt lat="37.94197283685207366943359375" lon="-107.122969888150691986083984375">
        <ele>3749.60009765625</ele>
        <time>2026-01-06T17:03:24.000Z</time>
        <extensions>
          <ns3:TrackPointExtension>
            <ns3:hr>97</ns3:hr>
            <ns3:cad>41</ns3:cad>
          </ns3:TrackPointExtension>
        </extensions>
      </trkpt>
      <trkpt lat="37.94199689291417598724365234375" lon="-107.12291951291263103485107421875">
        <ele>3749.60009765625</ele>
        <time>2026-01-06T17:03:29.000Z</time>
        <extensions>
          <ns3:TrackPointExtension>
            <ns3:hr>97</ns3:hr>
            <ns3:cad>77</ns3:cad>
          </ns3:TrackPointExtension>
        </extensions>
      </trkpt>
      <trkpt lat="37.94202941469848155975341796875" lon="-107.12286335416138172149658203125">
        <ele>3749.60009765625</ele>
        <time>2026-01-06T17:03:35.000Z</time>
        <extensions>
          <ns3:TrackPointExtension>
            <ns3:hr>97</ns3:hr>
            <ns3:cad>68</ns3:cad>
          </ns3:TrackPointExtension>
        </extensions>
      </trkpt>
      <trkpt lat="37.942052297294139862060546875" lon="-107.12281138636171817779541015625">
        <ele>3749.60009765625</ele>
        <time>2026-01-06T17:03:41.000Z</time>
        <extensions>
          <ns3:TrackPointExtension>
            <ns3:hr>99</ns3:hr>
            <ns3:cad>68</ns3:cad>
          </ns3:TrackPointExtension>
        </extensions>
      </trkpt>
      <trkpt lat="37.94206126593053340911865234375" lon="-107.1227943710982799530029296875">
        <ele>3749.39990234375</ele>
        <time>2026-01-06T17:03:43.000Z</time>
        <extensions>
          <ns3:TrackPointExtension>
            <ns3:hr>102</ns3:hr>
            <ns3:cad>70</ns3:cad>
          </ns3:TrackPointExtension>
        </extensions>
      </trkpt>
      <trkpt lat="37.942071743309497833251953125" lon="-107.12276897393167018890380859375">
        <ele>3749.39990234375</ele>
        <time>2026-01-06T17:03:47.000Z</time>
        <extensions>
          <ns3:TrackPointExtension>
            <ns3:hr>102</ns3:hr>
            <ns3:cad>0</ns3:cad>
          </ns3:TrackPointExtension>
        </extensions>
      </trkpt>
      <trkpt lat="37.94209244661033153533935546875" lon="-107.12272404693067073822021484375">
        <ele>3749.800048828125</ele>
        <time>2026-01-06T17:03:53.000Z</time>
        <extensions>
          <ns3:TrackPointExtension>
            <ns3:hr>102</ns3:hr>
            <ns3:cad>0</ns3:cad>
          </ns3:TrackPointExtension>
        </extensions>
      </trkpt>
      <trkpt lat="37.94209563173353672027587890625" lon="-107.1227068640291690826416015625">
        <ele>3749.800048828125</ele>
        <time>2026-01-06T17:03:55.000Z</time>
        <extensions>
          <ns3:TrackPointExtension>
            <ns3:hr>101</ns3:hr>
            <ns3:cad>50</ns3:cad>
          </ns3:TrackPointExtension>
        </extensions>
      </trkpt>
      <trkpt lat="37.9420967213809490203857421875" lon="-107.12270644493401050567626953125">
        <ele>3749.199951171875</ele>
        <time>2026-01-06T17:04:01.000Z</time>
        <extensions>
          <ns3:TrackPointExtension>
            <ns3:hr>101</ns3:hr>
            <ns3:cad>0</ns3:cad>
          </ns3:TrackPointExtension>
        </extensions>
      </trkpt>
      <trkpt lat="37.9420967213809490203857421875" lon="-107.12270644493401050567626953125">
        <ele>3749.199951171875</ele>
        <time>2026-01-06T17:04:07.000Z</time>
        <extensions>
          <ns3:TrackPointExtension>
            <ns3:hr>103</ns3:hr>
            <ns3:cad>0</ns3:cad>
          </ns3:TrackPointExtension>
        </extensions>
      </trkpt>
      <trkpt lat="37.9420967213809490203857421875" lon="-107.12270644493401050567626953125">
        <ele>3749.199951171875</ele>
        <time>2026-01-06T17:04:08.000Z</time>
        <extensions>
          <ns3:TrackPointExtension>
            <ns3:hr>110</ns3:hr>
            <ns3:cad>0</ns3:cad>
          </ns3:TrackPointExtension>
        </extensions>
      </trkpt>
      <trkpt lat="37.9420967213809490203857421875" lon="-107.12270644493401050567626953125">
        <ele>3749.199951171875</ele>
        <time>2026-01-06T17:04:09.000Z</time>
        <extensions>
          <ns3:TrackPointExtension>
            <ns3:hr>120</ns3:hr>
            <ns3:cad>0</ns3:cad>
          </ns3:TrackPointExtension>
        </extensions>
      </trkpt>
      <trkpt lat="37.9420967213809490203857421875" lon="-107.12270644493401050567626953125">
        <ele>3749.199951171875</ele>
        <time>2026-01-06T17:04:11.000Z</time>
        <extensions>
          <ns3:TrackPointExtension>
            <ns3:hr>123</ns3:hr>
            <ns3:cad>0</ns3:cad>
          </ns3:TrackPointExtension>
        </extensions>
      </trkpt>
      <trkpt lat="37.9420967213809490203857421875" lon="-107.12270644493401050567626953125">
        <ele>3749.39990234375</ele>
        <time>2026-01-06T17:04:17.000Z</time>
        <extensions>
          <ns3:TrackPointExtension>
            <ns3:hr>121</ns3:hr>
            <ns3:cad>0</ns3:cad>
          </ns3:TrackPointExtension>
        </extensions>
      </trkpt>
      <trkpt lat="37.94209755957126617431640625" lon="-107.12270543910562992095947265625">
        <ele>3749.199951171875</ele>
        <time>2026-01-06T17:04:21.000Z</time>
        <extensions>
          <ns3:TrackPointExtension>
            <ns3:hr>119</ns3:hr>
            <ns3:cad>0</ns3:cad>
          </ns3:TrackPointExtension>
        </extensions>
      </trkpt>
      <trkpt lat="37.9421037621796131134033203125" lon="-107.12269403971731662750244140625">
        <ele>3749</ele>
        <time>2026-01-06T17:04:23.000Z</time>
        <extensions>
          <ns3:TrackPointExtension>
            <ns3:hr>119</ns3:hr>
            <ns3:cad>0</ns3:cad>
          </ns3:TrackPointExtension>
        </extensions>
      </trkpt>
      <trkpt lat="37.942134439945220947265625" lon="-107.1226408146321773529052734375">
        <ele>3749.39990234375</ele>
        <time>2026-01-06T17:04:29.000Z</time>
        <extensions>
          <ns3:TrackPointExtension>
            <ns3:hr>121</ns3:hr>
            <ns3:cad>0</ns3:cad>
          </ns3:TrackPointExtension>
        </extensions>
      </trkpt>
      <trkpt lat="37.942148856818675994873046875" lon="-107.12261793203651905059814453125">
        <ele>3750</ele>
        <time>2026-01-06T17:04:32.000Z</time>
        <extensions>
          <ns3:TrackPointExtension>
            <ns3:hr>123</ns3:hr>
            <ns3:cad>71</ns3:cad>
          </ns3:TrackPointExtension>
        </extensions>
      </trkpt>
      <trkpt lat="37.942158244550228118896484375" lon="-107.12259882129728794097900390625">
        <ele>3750.199951171875</ele>
        <time>2026-01-06T17:04:34.000Z</time>
        <extensions>
          <ns3:TrackPointExtension>
            <ns3:hr>123</ns3:hr>
            <ns3:cad>71</ns3:cad>
          </ns3:TrackPointExtension>
        </extensions>
      </trkpt>
      <trkpt lat="37.9421882517635822296142578125" lon="-107.12255221791565418243408203125">
        <ele>3750</ele>
        <time>2026-01-06T17:04:40.000Z</time>
        <extensions>
          <ns3:TrackPointExtension>
            <ns3:hr>124</ns3:hr>
            <ns3:cad>0</ns3:cad>
          </ns3:TrackPointExtension>
        </extensions>
      </trkpt>
      <trkpt lat="37.9422189295291900634765625" lon="-107.12248616851866245269775390625">
        <ele>3750</ele>
        <time>2026-01-06T17:04:46.000Z</time>
        <extensions>
          <ns3:TrackPointExtension>
            <ns3:hr>125</ns3:hr>
            <ns3:cad>41</ns3:cad>
          </ns3:TrackPointExtension>
        </extensions>
      </trkpt>
      <trkpt lat="37.94221968390047550201416015625" lon="-107.1224795468151569366455078125">
        <ele>3750</ele>
        <time>2026-01-06T17:04:47.000Z</time>
        <extensions>
          <ns3:TrackPointExtension>
            <ns3:hr>125</ns3:hr>
            <ns3:cad>0</ns3:cad>
          </ns3:TrackPointExtension>
        </extensions>
      </trkpt>
      <trkpt lat="37.942243404686450958251953125" lon="-107.1224480308592319488525390625">
        <ele>3750</ele>
        <time>2026-01-06T17:04:51.000Z</time>
        <extensions>
          <ns3:TrackPointExtension>
            <ns3:hr>122</ns3:hr>
            <ns3:cad>0</ns3:cad>
          </ns3:TrackPointExtension>
        </extensions>
      </trkpt>
      <trkpt lat="37.94224667362868785858154296875" lon="-107.122441828250885009765625">
        <ele>3750</ele>
        <time>2026-01-06T17:04:52.000Z</time>
        <extensions>
          <ns3:TrackPointExtension>
            <ns3:hr>121</ns3:hr>
            <ns3:cad>0</ns3:cad>
          </ns3:TrackPointExtension>
        </extensions>
      </trkpt>
      <trkpt lat="37.94227584265172481536865234375" lon="-107.1223940514028072357177734375">
        <ele>3750.199951171875</ele>
        <time>2026-01-06T17:04:58.000Z</time>
        <extensions>
          <ns3:TrackPointExtension>
            <ns3:hr>119</ns3:hr>
            <ns3:cad>66</ns3:cad>
          </ns3:TrackPointExtension>
        </extensions>
      </trkpt>
      <trkpt lat="37.9422868229448795318603515625" lon="-107.12237167172133922576904296875">
        <ele>3750.199951171875</ele>
        <time>2026-01-06T17:05:00.000Z</time>
        <extensions>
          <ns3:TrackPointExtension>
            <ns3:hr>119</ns3:hr>
            <ns3:cad>0</ns3:cad>
          </ns3:TrackPointExtension>
        </extensions>
      </trkpt>
      <trkpt lat="37.94231624342501163482666015625" lon="-107.12230947799980640411376953125">
        <ele>3750.199951171875</ele>
        <time>2026-01-06T17:05:06.000Z</time>
        <extensions>
          <ns3:TrackPointExtension>
            <ns3:hr>118</ns3:hr>
            <ns3:cad>41</ns3:cad>
          </ns3:TrackPointExtension>
        </extensions>
      </trkpt>
      <trkpt lat="37.94232479296624660491943359375" lon="-107.122293971478939056396484375">
        <ele>3750.199951171875</ele>
        <time>2026-01-06T17:05:08.000Z</time>
        <extensions>
          <ns3:TrackPointExtension>
            <ns3:hr>118</ns3:hr>
            <ns3:cad>41</ns3:cad>
          </ns3:TrackPointExtension>
        </extensions>
      </trkpt>
      <trkpt lat="37.9423401318490505218505859375" lon="-107.1222679875791072845458984375">
        <ele>3750.199951171875</ele>
        <time>2026-01-06T17:05:11.000Z</time>
        <extensions>
          <ns3:TrackPointExtension>
            <ns3:hr>115</ns3:hr>
            <ns3:cad>79</ns3:cad>
          </ns3:TrackPointExtension>
        </extensions>
      </trkpt>
      <trkpt lat="37.942348681390285491943359375" lon="-107.1222512237727642059326171875">
        <ele>3750.199951171875</ele>
        <time>2026-01-06T17:05:13.000Z</time>
        <extensions>
          <ns3:TrackPointExtension>
            <ns3:hr>114</ns3:hr>
            <ns3:cad>0</ns3:cad>
          </ns3:TrackPointExtension>
        </extensions>
      </trkpt>
      <trkpt lat="37.94237256981432437896728515625" lon="-107.12220034562051296234130859375">
        <ele>3750.199951171875</ele>
        <time>2026-01-06T17:05:19.000Z</time>
        <extensions>
          <ns3:TrackPointExtension>
            <ns3:hr>112</ns3:hr>
            <ns3:cad>40</ns3:cad>
          </ns3:TrackPointExtension>
        </extensions>
      </trkpt>
      <trkpt lat="37.9423931054770946502685546875" lon="-107.12214955128729343414306640625">
        <ele>3750.199951171875</ele>
        <time>2026-01-06T17:05:25.000Z</time>
        <extensions>
          <ns3:TrackPointExtension>
            <ns3:hr>112</ns3:hr>
            <ns3:cad>0</ns3:cad>
          </ns3:TrackPointExtension>
        </extensions>
      </trkpt>
      <trkpt lat="37.9423957876861095428466796875" lon="-107.12213982827961444854736328125">
        <ele>3750.199951171875</ele>
        <time>2026-01-06T17:05:26.000Z</time>
        <extensions>
          <ns3:TrackPointExtension>
            <ns3:hr>112</ns3:hr>
            <ns3:cad>0</ns3:cad>
          </ns3:TrackPointExtension>
        </extensions>
      </trkpt>
      <trkpt lat="37.9424227774143218994140625" lon="-107.122082412242889404296875">
        <ele>3750.60009765625</ele>
        <time>2026-01-06T17:05:32.000Z</time>
        <extensions>
          <ns3:TrackPointExtension>
            <ns3:hr>111</ns3:hr>
            <ns3:cad>0</ns3:cad>
          </ns3:TrackPointExtension>
        </extensions>
      </trkpt>
      <trkpt lat="37.9424437321722507476806640625" lon="-107.122047878801822662353515625">
        <ele>3750.199951171875</ele>
        <time>2026-01-06T17:05:37.000Z</time>
        <extensions>
          <ns3:TrackPointExtension>
            <ns3:hr>111</ns3:hr>
            <ns3:cad>73</ns3:cad>
          </ns3:TrackPointExtension>
        </extensions>
      </trkpt>
      <trkpt lat="37.942477427423000335693359375" lon="-107.121986858546733856201171875">
        <ele>3750.60009765625</ele>
        <time>2026-01-06T17:05:43.000Z</time>
        <extensions>
          <ns3:TrackPointExtension>
            <ns3:hr>111</ns3:hr>
            <ns3:cad>73</ns3:cad>
          </ns3:TrackPointExtension>
        </extensions>
      </trkpt>
      <trkpt lat="37.94250483624637126922607421875" lon="-107.12193824350833892822265625">
        <ele>3750.39990234375</ele>
        <time>2026-01-06T17:05:49.000Z</time>
        <extensions>
          <ns3:TrackPointExtension>
            <ns3:hr>111</ns3:hr>
            <ns3:cad>0</ns3:cad>
          </ns3:TrackPointExtension>
        </extensions>
      </trkpt>
      <trkpt lat="37.94251539744436740875244140625" lon="-107.12191469036042690277099609375">
        <ele>3750.39990234375</ele>
        <time>2026-01-06T17:05:52.000Z</time>
        <extensions>
          <ns3:TrackPointExtension>
            <ns3:hr>110</ns3:hr>
            <ns3:cad>74</ns3:cad>
          </ns3:TrackPointExtension>
        </extensions>
      </trkpt>
      <trkpt lat="37.942533083260059356689453125" lon="-107.1218530833721160888671875">
        <ele>3750</ele>
        <time>2026-01-06T17:05:58.000Z</time>
        <extensions>
          <ns3:TrackPointExtension>
            <ns3:hr>110</ns3:hr>
            <ns3:cad>0</ns3:cad>
          </ns3:TrackPointExtension>
        </extensions>
      </trkpt>
      <trkpt lat="37.94255278073251247406005859375" lon="-107.12181025184690952301025390625">
        <ele>3750</ele>
        <time>2026-01-06T17:06:04.000Z</time>
        <extensions>
          <ns3:TrackPointExtension>
            <ns3:hr>111</ns3:hr>
            <ns3:cad>0</ns3:cad>
          </ns3:TrackPointExtension>
        </extensions>
      </trkpt>
      <trkpt lat="37.94257373549044132232666015625" lon="-107.1217533387243747711181640625">
        <ele>3750.199951171875</ele>
        <time>2026-01-06T17:06:10.000Z</time>
        <extensions>
          <ns3:TrackPointExtension>
            <ns3:hr>111</ns3:hr>
            <ns3:cad>70</ns3:cad>
          </ns3:TrackPointExtension>
        </extensions>
      </trkpt>
      <trkpt lat="37.94258748181164264678955078125" lon="-107.12172634899616241455078125">
        <ele>3750</ele>
        <time>2026-01-06T17:06:13.000Z</time>
        <extensions>
          <ns3:TrackPointExtension>
            <ns3:hr>110</ns3:hr>
            <ns3:cad>77</ns3:cad>
          </ns3:TrackPointExtension>
        </extensions>
      </trkpt>
      <trkpt lat="37.94259108603000640869140625" lon="-107.12166239507496356964111328125">
        <ele>3750</ele>
        <time>2026-01-06T17:06:19.000Z</time>
        <extensions>
          <ns3:TrackPointExtension>
            <ns3:hr>109</ns3:hr>
            <ns3:cad>80</ns3:cad>
          </ns3:TrackPointExtension>
        </extensions>
      </trkpt>
      <trkpt lat="37.9426143877208232879638671875" lon="-107.12160338647663593292236328125">
        <ele>3750.60009765625</ele>
        <time>2026-01-06T17:06:25.000Z</time>
        <extensions>
          <ns3:TrackPointExtension>
            <ns3:hr>108</ns3:hr>
            <ns3:cad>75</ns3:cad>
          </ns3:TrackPointExtension>
        </extensions>
      </trkpt>
      <trkpt lat="37.94262084178626537322998046875" lon="-107.12159316055476665496826171875">
        <ele>3750.39990234375</ele>
        <time>2026-01-06T17:06:26.000Z</time>
        <extensions>
          <ns3:TrackPointExtension>
            <ns3:hr>109</ns3:hr>
            <ns3:cad>75</ns3:cad>
          </ns3:TrackPointExtension>
        </extensions>
      </trkpt>
      <trkpt lat="37.94264464639127254486083984375" lon="-107.1215434558689594268798828125">
        <ele>3750.39990234375</ele>
        <time>2026-01-06T17:06:32.000Z</time>
        <extensions>
          <ns3:TrackPointExtension>
            <ns3:hr>108</ns3:hr>
            <ns3:cad>77</ns3:cad>
          </ns3:TrackPointExtension>
        </extensions>
      </trkpt>
      <trkpt lat="37.942662499845027923583984375" lon="-107.12148771621286869049072265625">
        <ele>3750</ele>
        <time>2026-01-06T17:06:38.000Z</time>
        <extensions>
          <ns3:TrackPointExtension>
            <ns3:hr>109</ns3:hr>
            <ns3:cad>0</ns3:cad>
          </ns3:TrackPointExtension>
        </extensions>
      </trkpt>
      <trkpt lat="37.9426636733114719390869140625" lon="-107.12147883139550685882568359375">
        <ele>3750.199951171875</ele>
        <time>2026-01-06T17:06:39.000Z</time>
        <extensions>
          <ns3:TrackPointExtension>
            <ns3:hr>110</ns3:hr>
            <ns3:cad>0</ns3:cad>
          </ns3:TrackPointExtension>
        </extensions>
      </trkpt>
      <trkpt lat="37.94267415069043636322021484375" lon="-107.12143859826028347015380859375">
        <ele>3750.39990234375</ele>
        <time>2026-01-06T17:06:45.000Z</time>
        <extensions>
          <ns3:TrackPointExtension>
            <ns3:hr>112</ns3:hr>
            <ns3:cad>73</ns3:cad>
          </ns3:TrackPointExtension>
        </extensions>
      </trkpt>
      <trkpt lat="37.942676246166229248046875" lon="-107.1214308030903339385986328125">
        <ele>3750.199951171875</ele>
        <time>2026-01-06T17:06:46.000Z</time>
        <extensions>
          <ns3:TrackPointExtension>
            <ns3:hr>113</ns3:hr>
            <ns3:cad>73</ns3:cad>
          </ns3:TrackPointExtension>
        </extensions>
      </trkpt>
      <trkpt lat="37.94268362224102020263671875" lon="-107.1214220859110355377197265625">
        <ele>3750.199951171875</ele>
        <time>2026-01-06T17:06:48.000Z</time>
        <extensions>
          <ns3:TrackPointExtension>
            <ns3:hr>116</ns3:hr>
            <ns3:cad>73</ns3:cad>
          </ns3:TrackPointExtension>
        </extensions>
      </trkpt>
      <trkpt lat="37.94268739409744739532470703125" lon="-107.12141362018883228302001953125">
        <ele>3750.199951171875</ele>
        <time>2026-01-06T17:06:50.000Z</time>
        <extensions>
          <ns3:TrackPointExtension>
            <ns3:hr>119</ns3:hr>
            <ns3:cad>73</ns3:cad>
          </ns3:TrackPointExtension>
        </extensions>
      </trkpt>
      <trkpt lat="37.94269032776355743408203125" lon="-107.12140456773340702056884765625">
        <ele>3750.39990234375</ele>
        <time>2026-01-06T17:06:52.000Z</time>
        <extensions>
          <ns3:TrackPointExtension>
            <ns3:hr>120</ns3:hr>
            <ns3:cad>0</ns3:cad>
          </ns3:TrackPointExtension>
        </extensions>
      </trkpt>
      <trkpt lat="37.942705415189266204833984375" lon="-107.12134815752506256103515625">
        <ele>3750.800048828125</ele>
        <time>2026-01-06T17:06:58.000Z</time>
        <extensions>
          <ns3:TrackPointExtension>
            <ns3:hr>121</ns3:hr>
            <ns3:cad>0</ns3:cad>
          </ns3:TrackPointExtension>
        </extensions>
      </trkpt>
      <trkpt lat="37.94271714985370635986328125" lon="-107.12131940759718418121337890625">
        <ele>3750.39990234375</ele>
        <time>2026-01-06T17:07:04.000Z</time>
        <extensions>
          <ns3:TrackPointExtension>
            <ns3:hr>120</ns3:hr>
            <ns3:cad>0</ns3:cad>
          </ns3:TrackPointExtension>
        </extensions>
      </trkpt>
      <trkpt lat="37.94271622784435749053955078125" lon="-107.12131856940686702728271484375">
        <ele>3750.39990234375</ele>
        <time>2026-01-06T17:07:05.000Z</time>
        <extensions>
          <ns3:TrackPointExtension>
            <ns3:hr>121</ns3:hr>
            <ns3:cad>0</ns3:cad>
          </ns3:TrackPointExtension>
        </extensions>
      </trkpt>
      <trkpt lat="37.9427283816039562225341796875" lon="-107.12127883918583393096923828125">
        <ele>3750.800048828125</ele>
        <time>2026-01-06T17:07:11.000Z</time>
        <extensions>
          <ns3:TrackPointExtension>
            <ns3:hr>121</ns3:hr>
            <ns3:cad>0</ns3:cad>
          </ns3:TrackPointExtension>
        </extensions>
      </trkpt>
      <trkpt lat="37.9427404515445232391357421875" lon="-107.1212457306683063507080078125">
        <ele>3750.60009765625</ele>
        <time>2026-01-06T17:07:17.000Z</time>
        <extensions>
          <ns3:TrackPointExtension>
            <ns3:hr>121</ns3:hr>
            <ns3:cad>0</ns3:cad>
          </ns3:TrackPointExtension>
        </extensions>
      </trkpt>
      <trkpt lat="37.9427568800747394561767578125" lon="-107.12120692245662212371826171875">
        <ele>3750.800048828125</ele>
        <time>2026-01-06T17:07:23.000Z</time>
        <extensions>
          <ns3:TrackPointExtension>
            <ns3:hr>120</ns3:hr>
            <ns3:cad>0</ns3:cad>
          </ns3:TrackPointExtension>
        </extensions>
      </trkpt>
      <trkpt lat="37.9427655972540378570556640625" lon="-107.12119015865027904510498046875">
        <ele>3750.60009765625</ele>
        <time>2026-01-06T17:07:28.000Z</time>
        <extensions>
          <ns3:TrackPointExtension>
            <ns3:hr>119</ns3:hr>
            <ns3:cad>0</ns3:cad>
          </ns3:TrackPointExtension>
        </extensions>
      </trkpt>
      <trkpt lat="37.94277892448008060455322265625" lon="-107.12116308510303497314453125">
        <ele>3750.39990234375</ele>
        <time>2026-01-06T17:07:34.000Z</time>
        <extensions>
          <ns3:TrackPointExtension>
            <ns3:hr>117</ns3:hr>
            <ns3:cad>0</ns3:cad>
          </ns3:TrackPointExtension>
        </extensions>
      </trkpt>
      <trkpt lat="37.94278378598392009735107421875" lon="-107.121154367923736572265625">
        <ele>3750.60009765625</ele>
        <time>2026-01-06T17:07:35.000Z</time>
        <extensions>
          <ns3:TrackPointExtension>
            <ns3:hr>117</ns3:hr>
            <ns3:cad>0</ns3:cad>
          </ns3:TrackPointExtension>
        </extensions>
      </trkpt>
      <trkpt lat="37.94280071742832660675048828125" lon="-107.1211223490536212921142578125">
        <ele>3750.39990234375</ele>
        <time>2026-01-06T17:07:41.000Z</time>
        <extensions>
          <ns3:TrackPointExtension>
            <ns3:hr>116</ns3:hr>
            <ns3:cad>0</ns3:cad>
          </ns3:TrackPointExtension>
        </extensions>
      </trkpt>
      <trkpt lat="37.9428038187325000762939453125" lon="-107.1211154758930206298828125">
        <ele>3750.39990234375</ele>
        <time>2026-01-06T17:07:42.000Z</time>
        <extensions>
          <ns3:TrackPointExtension>
            <ns3:hr>116</ns3:hr>
            <ns3:cad>0</ns3:cad>
          </ns3:TrackPointExtension>
        </extensions>
      </trkpt>
      <trkpt lat="37.94283156283199787139892578125" lon="-107.12108739651739597320556640625">
        <ele>3750.800048828125</ele>
        <time>2026-01-06T17:07:48.000Z</time>
        <extensions>
          <ns3:TrackPointExtension>
            <ns3:hr>117</ns3:hr>
            <ns3:cad>0</ns3:cad>
          </ns3:TrackPointExtension>
        </extensions>
      </trkpt>
      <trkpt lat="37.94283910654485225677490234375" lon="-107.1210787631571292877197265625">
        <ele>3750.800048828125</ele>
        <time>2026-01-06T17:07:50.000Z</time>
        <extensions>
          <ns3:TrackPointExtension>
            <ns3:hr>121</ns3:hr>
            <ns3:cad>0</ns3:cad>
          </ns3:TrackPointExtension>
        </extensions>
      </trkpt>
      <trkpt lat="37.9428433813154697418212890625" lon="-107.12107281200587749481201171875">
        <ele>3750.800048828125</ele>
        <time>2026-01-06T17:07:52.000Z</time>
        <extensions>
          <ns3:TrackPointExtension>
            <ns3:hr>124</ns3:hr>
            <ns3:cad>0</ns3:cad>
          </ns3:TrackPointExtension>
        </extensions>
      </trkpt>
      <trkpt lat="37.94285017065703868865966796875" lon="-107.1210640110075473785400390625">
        <ele>3750.39990234375</ele>
        <time>2026-01-06T17:07:55.000Z</time>
        <extensions>
          <ns3:TrackPointExtension>
            <ns3:hr>127</ns3:hr>
            <ns3:cad>0</ns3:cad>
          </ns3:TrackPointExtension>
        </extensions>
      </trkpt>
      <trkpt lat="37.94287833385169506072998046875" lon="-107.1210269629955291748046875">
        <ele>3750.60009765625</ele>
        <time>2026-01-06T17:08:01.000Z</time>
        <extensions>
          <ns3:TrackPointExtension>
            <ns3:hr>127</ns3:hr>
            <ns3:cad>47</ns3:cad>
          </ns3:TrackPointExtension>
        </extensions>
      </trkpt>
      <trkpt lat="37.94289551675319671630859375" lon="-107.1210028231143951416015625">
        <ele>3750.60009765625</ele>
        <time>2026-01-06T17:08:07.000Z</time>
        <extensions>
          <ns3:TrackPointExtension>
            <ns3:hr>126</ns3:hr>
            <ns3:cad>0</ns3:cad>
          </ns3:TrackPointExtension>
        </extensions>
      </trkpt>
      <trkpt lat="37.94289861805737018585205078125" lon="-107.120998799800872802734375">
        <ele>3750.60009765625</ele>
        <time>2026-01-06T17:08:08.000Z</time>
        <extensions>
          <ns3:TrackPointExtension>
            <ns3:hr>126</ns3:hr>
            <ns3:cad>0</ns3:cad>
          </ns3:TrackPointExtension>
        </extensions>
      </trkpt>
      <trkpt lat="37.94291739352047443389892578125" lon="-107.12095915339887142181396484375">
        <ele>3751</ele>
        <time>2026-01-06T17:08:14.000Z</time>
        <extensions>
          <ns3:TrackPointExtension>
            <ns3:hr>126</ns3:hr>
            <ns3:cad>0</ns3:cad>
          </ns3:TrackPointExtension>
        </extensions>
      </trkpt>
      <trkpt lat="37.9429221712052822113037109375" lon="-107.1209506876766681671142578125">
        <ele>3751</ele>
        <time>2026-01-06T17:08:15.000Z</time>
        <extensions>
          <ns3:TrackPointExtension>
            <ns3:hr>126</ns3:hr>
            <ns3:cad>0</ns3:cad>
          </ns3:TrackPointExtension>
        </extensions>
      </trkpt>
      <trkpt lat="37.942944131791591644287109375" lon="-107.12092227302491664886474609375">
        <ele>3751.39990234375</ele>
        <time>2026-01-06T17:08:20.000Z</time>
        <extensions>
          <ns3:TrackPointExtension>
            <ns3:hr>125</ns3:hr>
            <ns3:cad>0</ns3:cad>
          </ns3:TrackPointExtension>
        </extensions>
      </trkpt>
      <trkpt lat="37.94297137297689914703369140625" lon="-107.120890505611896514892578125">
        <ele>3751</ele>
        <time>2026-01-06T17:08:26.000Z</time>
        <extensions>
          <ns3:TrackPointExtension>
            <ns3:hr>124</ns3:hr>
            <ns3:cad>0</ns3:cad>
          </ns3:TrackPointExtension>
        </extensions>
      </trkpt>
      <trkpt lat="37.94297439046204090118408203125" lon="-107.12088421918451786041259765625">
        <ele>3750.800048828125</ele>
        <time>2026-01-06T17:08:27.000Z</time>
        <extensions>
          <ns3:TrackPointExtension>
            <ns3:hr>124</ns3:hr>
            <ns3:cad>0</ns3:cad>
          </ns3:TrackPointExtension>
        </extensions>
      </trkpt>
      <trkpt lat="37.942983023822307586669921875" lon="-107.1208631806075572967529296875">
        <ele>3750.60009765625</ele>
        <time>2026-01-06T17:08:33.000Z</time>
        <extensions>
          <ns3:TrackPointExtension>
            <ns3:hr>122</ns3:hr>
            <ns3:cad>0</ns3:cad>
          </ns3:TrackPointExtension>
        </extensions>
      </trkpt>
      <trkpt lat="37.943003475666046142578125" lon="-107.1208204329013824462890625">
        <ele>3750.60009765625</ele>
        <time>2026-01-06T17:08:39.000Z</time>
        <extensions>
          <ns3:TrackPointExtension>
            <ns3:hr>122</ns3:hr>
            <ns3:cad>0</ns3:cad>
          </ns3:TrackPointExtension>
        </extensions>
      </trkpt>
      <trkpt lat="37.94300682842731475830078125" lon="-107.12081649340689182281494140625">
        <ele>3750.60009765625</ele>
        <time>2026-01-06T17:08:40.000Z</time>
        <extensions>
          <ns3:TrackPointExtension>
            <ns3:hr>121</ns3:hr>
            <ns3:cad>0</ns3:cad>
          </ns3:TrackPointExtension>
        </extensions>
      </trkpt>
      <trkpt lat="37.9430261068046092987060546875" lon="-107.12078195996582508087158203125">
        <ele>3750.60009765625</ele>
        <time>2026-01-06T17:08:46.000Z</time>
        <extensions>
          <ns3:TrackPointExtension>
            <ns3:hr>119</ns3:hr>
            <ns3:cad>0</ns3:cad>
          </ns3:TrackPointExtension>
        </extensions>
      </trkpt>
      <trkpt lat="37.94302971102297306060791015625" lon="-107.12077659554779529571533203125">
        <ele>3750.39990234375</ele>
        <time>2026-01-06T17:08:47.000Z</time>
        <extensions>
          <ns3:TrackPointExtension>
            <ns3:hr>118</ns3:hr>
            <ns3:cad>0</ns3:cad>
          </ns3:TrackPointExtension>
        </extensions>
      </trkpt>
      <trkpt lat="37.94304706156253814697265625" lon="-107.12074759416282176971435546875">
        <ele>3750.800048828125</ele>
        <time>2026-01-06T17:08:52.000Z</time>
        <extensions>
          <ns3:TrackPointExtension>
            <ns3:hr>119</ns3:hr>
            <ns3:cad>0</ns3:cad>
          </ns3:TrackPointExtension>
        </extensions>
      </trkpt>
      <trkpt lat="37.9430522583425045013427734375" lon="-107.12074005044996738433837890625">
        <ele>3750.60009765625</ele>
        <time>2026-01-06T17:08:58.000Z</time>
        <extensions>
          <ns3:TrackPointExtension>
            <ns3:hr>118</ns3:hr>
            <ns3:cad>0</ns3:cad>
          </ns3:TrackPointExtension>
        </extensions>
      </trkpt>
      <trkpt lat="37.94305871240794658660888671875" lon="-107.1207257173955440521240234375">
        <ele>3750.60009765625</ele>
        <time>2026-01-06T17:09:00.000Z</time>
        <extensions>
          <ns3:TrackPointExtension>
            <ns3:hr>118</ns3:hr>
            <ns3:cad>0</ns3:cad>
          </ns3:TrackPointExtension>
        </extensions>
      </trkpt>
      <trkpt lat="37.9430750571191310882568359375" lon="-107.12069177068769931793212890625">
        <ele>3751</ele>
        <time>2026-01-06T17:09:06.000Z</time>
        <extensions>
          <ns3:TrackPointExtension>
            <ns3:hr>120</ns3:hr>
            <ns3:cad>0</ns3:cad>
          </ns3:TrackPointExtension>
        </extensions>
      </trkpt>
      <trkpt lat="37.94309576041996479034423828125" lon="-107.1206593327224254608154296875">
        <ele>3750.800048828125</ele>
        <time>2026-01-06T17:09:12.000Z</time>
        <extensions>
          <ns3:TrackPointExtension>
            <ns3:hr>121</ns3:hr>
            <ns3:cad>0</ns3:cad>
          </ns3:TrackPointExtension>
        </extensions>
      </trkpt>
      <trkpt lat="37.9431126080453395843505859375" lon="-107.1206325106322765350341796875">
        <ele>3751</ele>
        <time>2026-01-06T17:09:18.000Z</time>
        <extensions>
          <ns3:TrackPointExtension>
            <ns3:hr>121</ns3:hr>
            <ns3:cad>0</ns3:cad>
          </ns3:TrackPointExtension>
        </extensions>
      </trkpt>
      <trkpt lat="37.94312886893749237060546875" lon="-107.12061096914112567901611328125">
        <ele>3751</ele>
        <time>2026-01-06T17:09:23.000Z</time>
        <extensions>
          <ns3:TrackPointExtension>
            <ns3:hr>121</ns3:hr>
            <ns3:cad>0</ns3:cad>
          </ns3:TrackPointExtension>
        </extensions>
      </trkpt>
      <trkpt lat="37.94314303435385227203369140625" lon="-107.1205678023397922515869140625">
        <ele>3751</ele>
        <time>2026-01-06T17:09:29.000Z</time>
        <extensions>
          <ns3:TrackPointExtension>
            <ns3:hr>121</ns3:hr>
            <ns3:cad>52</ns3:cad>
          </ns3:TrackPointExtension>
        </extensions>
      </trkpt>
      <trkpt lat="37.94314496219158172607421875" lon="-107.120561264455318450927734375">
        <ele>3751</ele>
        <time>2026-01-06T17:09:30.000Z</time>
        <extensions>
          <ns3:TrackPointExtension>
            <ns3:hr>121</ns3:hr>
            <ns3:cad>54</ns3:cad>
          </ns3:TrackPointExtension>
        </extensions>
      </trkpt>
      <trkpt lat="37.94315694831311702728271484375" lon="-107.12050854228436946868896484375">
        <ele>3751.800048828125</ele>
        <time>2026-01-06T17:09:36.000Z</time>
        <extensions>
          <ns3:TrackPointExtension>
            <ns3:hr>121</ns3:hr>
            <ns3:cad>0</ns3:cad>
          </ns3:TrackPointExtension>
        </extensions>
      </trkpt>
      <trkpt lat="37.9431726224720478057861328125" lon="-107.12047518230974674224853515625">
        <ele>3752</ele>
        <time>2026-01-06T17:09:41.000Z</time>
        <extensions>
          <ns3:TrackPointExtension>
            <ns3:hr>123</ns3:hr>
            <ns3:cad>0</ns3:cad>
          </ns3:TrackPointExtension>
        </extensions>
      </trkpt>
      <trkpt lat="37.9431900568306446075439453125" lon="-107.1204333566129207611083984375">
        <ele>3752.800048828125</ele>
        <time>2026-01-06T17:09:46.000Z</time>
        <extensions>
          <ns3:TrackPointExtension>
            <ns3:hr>126</ns3:hr>
            <ns3:cad>17</ns3:cad>
          </ns3:TrackPointExtension>
        </extensions>
      </trkpt>
      <trkpt lat="37.94319885782897472381591796875" lon="-107.1204169280827045440673828125">
        <ele>3752.800048828125</ele>
        <time>2026-01-06T17:09:48.000Z</time>
        <extensions>
          <ns3:TrackPointExtension>
            <ns3:hr>126</ns3:hr>
            <ns3:cad>0</ns3:cad>
          </ns3:TrackPointExtension>
        </extensions>
      </trkpt>
      <trkpt lat="37.94322014786303043365478515625" lon="-107.12037459947168827056884765625">
        <ele>3753.199951171875</ele>
        <time>2026-01-06T17:09:52.000Z</time>
        <extensions>
          <ns3:TrackPointExtension>
            <ns3:hr>127</ns3:hr>
            <ns3:cad>0</ns3:cad>
          </ns3:TrackPointExtension>
        </extensions>
      </trkpt>
      <trkpt lat="37.9432212375104427337646484375" lon="-107.1203585900366306304931640625">
        <ele>3753.199951171875</ele>
        <time>2026-01-06T17:09:54.000Z</time>
        <extensions>
          <ns3:TrackPointExtension>
            <ns3:hr>128</ns3:hr>
            <ns3:cad>0</ns3:cad>
          </ns3:TrackPointExtension>
        </extensions>
      </trkpt>
      <trkpt lat="37.94324143789708614349365234375" lon="-107.1203129924833774566650390625">
        <ele>3753</ele>
        <time>2026-01-06T17:10:00.000Z</time>
        <extensions>
          <ns3:TrackPointExtension>
            <ns3:hr>131</ns3:hr>
            <ns3:cad>76</ns3:cad>
          </ns3:TrackPointExtension>
        </extensions>
      </trkpt>
      <trkpt lat="37.94325686059892177581787109375" lon="-107.1202576719224452972412109375">
        <ele>3753.60009765625</ele>
        <time>2026-01-06T17:10:06.000Z</time>
        <extensions>
          <ns3:TrackPointExtension>
            <ns3:hr>132</ns3:hr>
            <ns3:cad>62</ns3:cad>
          </ns3:TrackPointExtension>
        </extensions>
      </trkpt>
      <trkpt lat="37.94325987808406352996826171875" lon="-107.1202491223812103271484375">
        <ele>3753.60009765625</ele>
        <time>2026-01-06T17:10:07.000Z</time>
        <extensions>
          <ns3:TrackPointExtension>
            <ns3:hr>132</ns3:hr>
            <ns3:cad>62</ns3:cad>
          </ns3:TrackPointExtension>
        </extensions>
      </trkpt>
      <trkpt lat="37.9432762227952480316162109375" lon="-107.12020712904632091522216796875">
        <ele>3753.199951171875</ele>
        <time>2026-01-06T17:10:11.000Z</time>
        <extensions>
          <ns3:TrackPointExtension>
            <ns3:hr>135</ns3:hr>
            <ns3:cad>0</ns3:cad>
          </ns3:TrackPointExtension>
        </extensions>
      </trkpt>
      <trkpt lat="37.9432906396687030792236328125" lon="-107.12017678655683994293212890625">
        <ele>3753</ele>
        <time>2026-01-06T17:10:14.000Z</time>
        <extensions>
          <ns3:TrackPointExtension>
            <ns3:hr>134</ns3:hr>
            <ns3:cad>0</ns3:cad>
          </ns3:TrackPointExtension>
        </extensions>
      </trkpt>
      <trkpt lat="37.9433110915124416351318359375" lon="-107.120127417147159576416015625">
        <ele>3752.60009765625</ele>
        <time>2026-01-06T17:10:20.000Z</time>
        <extensions>
          <ns3:TrackPointExtension>
            <ns3:hr>134</ns3:hr>
            <ns3:cad>0</ns3:cad>
          </ns3:TrackPointExtension>
        </extensions>
      </trkpt>
      <trkpt lat="37.94331603683531284332275390625" lon="-107.12012012489140033721923828125">
        <ele>3752.60009765625</ele>
        <time>2026-01-06T17:10:21.000Z</time>
        <extensions>
          <ns3:TrackPointExtension>
            <ns3:hr>134</ns3:hr>
            <ns3:cad>0</ns3:cad>
          </ns3:TrackPointExtension>
        </extensions>
      </trkpt>
      <trkpt lat="37.94333011843264102935791015625" lon="-107.120073102414608001708984375">
        <ele>3752.800048828125</ele>
        <time>2026-01-06T17:10:26.000Z</time>
        <extensions>
          <ns3:TrackPointExtension>
            <ns3:hr>134</ns3:hr>
            <ns3:cad>0</ns3:cad>
          </ns3:TrackPointExtension>
        </extensions>
      </trkpt>
      <trkpt lat="37.94334017671644687652587890625" lon="-107.12002859450876712799072265625">
        <ele>3753.39990234375</ele>
        <time>2026-01-06T17:10:31.000Z</time>
        <extensions>
          <ns3:TrackPointExtension>
            <ns3:hr>134</ns3:hr>
            <ns3:cad>0</ns3:cad>
          </ns3:TrackPointExtension>
        </extensions>
      </trkpt>
      <trkpt lat="37.94337026774883270263671875" lon="-107.1199800632894039154052734375">
        <ele>3753.60009765625</ele>
        <time>2026-01-06T17:10:37.000Z</time>
        <extensions>
          <ns3:TrackPointExtension>
            <ns3:hr>133</ns3:hr>
            <ns3:cad>0</ns3:cad>
          </ns3:TrackPointExtension>
        </extensions>
      </trkpt>
      <trkpt lat="37.9433918930590152740478515625" lon="-107.119938321411609649658203125">
        <ele>3753.60009765625</ele>
        <time>2026-01-06T17:10:42.000Z</time>
        <extensions>
          <ns3:TrackPointExtension>
            <ns3:hr>132</ns3:hr>
            <ns3:cad>0</ns3:cad>
          </ns3:TrackPointExtension>
        </extensions>
      </trkpt>
      <trkpt lat="37.94342097826302051544189453125" lon="-107.1198932267725467681884765625">
        <ele>3754</ele>
        <time>2026-01-06T17:10:47.000Z</time>
        <extensions>
          <ns3:TrackPointExtension>
            <ns3:hr>135</ns3:hr>
            <ns3:cad>72</ns3:cad>
          </ns3:TrackPointExtension>
        </extensions>
      </trkpt>
      <trkpt lat="37.9434267617762088775634765625" lon="-107.1198835037648677825927734375">
        <ele>3754</ele>
        <time>2026-01-06T17:10:48.000Z</time>
        <extensions>
          <ns3:TrackPointExtension>
            <ns3:hr>136</ns3:hr>
            <ns3:cad>72</ns3:cad>
          </ns3:TrackPointExtension>
        </extensions>
      </trkpt>
      <trkpt lat="37.94344360940158367156982421875" lon="-107.1198593638837337493896484375">
        <ele>3753.800048828125</ele>
        <time>2026-01-06T17:10:51.000Z</time>
        <extensions>
          <ns3:TrackPointExtension>
            <ns3:hr>139</ns3:hr>
            <ns3:cad>72</ns3:cad>
          </ns3:TrackPointExtension>
        </extensions>
      </trkpt>
      <trkpt lat="37.94345785863697528839111328125" lon="-107.1198365651071071624755859375">
        <ele>3753.800048828125</ele>
        <time>2026-01-06T17:10:54.000Z</time>
        <extensions>
          <ns3:TrackPointExtension>
            <ns3:hr>141</ns3:hr>
            <ns3:cad>72</ns3:cad>
          </ns3:TrackPointExtension>
        </extensions>
      </trkpt>
      <trkpt lat="37.9434835910797119140625" lon="-107.119788788259029388427734375">
        <ele>3753.800048828125</ele>
        <time>2026-01-06T17:11:00.000Z</time>
        <extensions>
          <ns3:TrackPointExtension>
            <ns3:hr>144</ns3:hr>
            <ns3:cad>73</ns3:cad>
          </ns3:TrackPointExtension>
        </extensions>
      </trkpt>
      <trkpt lat="37.94349021278321743011474609375" lon="-107.11977680213749408721923828125">
        <ele>3753.60009765625</ele>
        <time>2026-01-06T17:11:01.000Z</time>
        <extensions>
          <ns3:TrackPointExtension>
            <ns3:hr>144</ns3:hr>
            <ns3:cad>73</ns3:cad>
          </ns3:TrackPointExtension>
        </extensions>
      </trkpt>
      <trkpt lat="37.94352114200592041015625" lon="-107.119722068309783935546875">
        <ele>3753.39990234375</ele>
        <time>2026-01-06T17:11:07.000Z</time>
        <extensions>
          <ns3:TrackPointExtension>
            <ns3:hr>143</ns3:hr>
            <ns3:cad>75</ns3:cad>
          </ns3:TrackPointExtension>
        </extensions>
      </trkpt>
      <trkpt lat="37.9435229860246181488037109375" lon="-107.11971226148307323455810546875">
        <ele>3753.39990234375</ele>
        <time>2026-01-06T17:11:08.000Z</time>
        <extensions>
          <ns3:TrackPointExtension>
            <ns3:hr>142</ns3:hr>
            <ns3:cad>75</ns3:cad>
          </ns3:TrackPointExtension>
        </extensions>
      </trkpt>
      <trkpt lat="37.94353044591844081878662109375" lon="-107.1196752972900867462158203125">
        <ele>3753.800048828125</ele>
        <time>2026-01-06T17:11:14.000Z</time>
        <extensions>
          <ns3:TrackPointExtension>
            <ns3:hr>140</ns3:hr>
            <ns3:cad>69</ns3:cad>
          </ns3:TrackPointExtension>
        </extensions>
      </trkpt>
      <trkpt lat="37.943545281887054443359375" lon="-107.11962886154651641845703125">
        <ele>3753.60009765625</ele>
        <time>2026-01-06T17:11:20.000Z</time>
        <extensions>
          <ns3:TrackPointExtension>
            <ns3:hr>137</ns3:hr>
            <ns3:cad>0</ns3:cad>
          </ns3:TrackPointExtension>
        </extensions>
      </trkpt>
      <trkpt lat="37.94356179423630237579345703125" lon="-107.11957362480461597442626953125">
        <ele>3753.800048828125</ele>
        <time>2026-01-06T17:11:26.000Z</time>
        <extensions>
          <ns3:TrackPointExtension>
            <ns3:hr>137</ns3:hr>
            <ns3:cad>0</ns3:cad>
          </ns3:TrackPointExtension>
        </extensions>
      </trkpt>
      <trkpt lat="37.94356430880725383758544921875" lon="-107.119553089141845703125">
        <ele>3753.800048828125</ele>
        <time>2026-01-06T17:11:28.000Z</time>
        <extensions>
          <ns3:TrackPointExtension>
            <ns3:hr>137</ns3:hr>
            <ns3:cad>0</ns3:cad>
          </ns3:TrackPointExtension>
        </extensions>
      </trkpt>
      <trkpt lat="37.94358174316585063934326171875" lon="-107.1195170469582080841064453125">
        <ele>3754</ele>
        <time>2026-01-06T17:11:32.000Z</time>
        <extensions>
          <ns3:TrackPointExtension>
            <ns3:hr>134</ns3:hr>
            <ns3:cad>46</ns3:cad>
          </ns3:TrackPointExtension>
        </extensions>
      </trkpt>
      <trkpt lat="37.94358844868838787078857421875" lon="-107.1194942481815814971923828125">
        <ele>3754</ele>
        <time>2026-01-06T17:11:34.000Z</time>
        <extensions>
          <ns3:TrackPointExtension>
            <ns3:hr>134</ns3:hr>
            <ns3:cad>46</ns3:cad>
          </ns3:TrackPointExtension>
        </extensions>
      </trkpt>
      <trkpt lat="37.94360496103763580322265625" lon="-107.1194439567625522613525390625">
        <ele>3753.800048828125</ele>
        <time>2026-01-06T17:11:40.000Z</time>
        <extensions>
          <ns3:TrackPointExtension>
            <ns3:hr>132</ns3:hr>
            <ns3:cad>0</ns3:cad>
          </ns3:TrackPointExtension>
        </extensions>
      </trkpt>
      <trkpt lat="37.94362549670040607452392578125" lon="-107.11940565146505832672119140625">
        <ele>3754</ele>
        <time>2026-01-06T17:11:46.000Z</time>
        <extensions>
          <ns3:TrackPointExtension>
            <ns3:hr>129</ns3:hr>
            <ns3:cad>0</ns3:cad>
          </ns3:TrackPointExtension>
        </extensions>
      </trkpt>
      <trkpt lat="37.94363035820424556732177734375" lon="-107.11939710192382335662841796875">
        <ele>3754</ele>
        <time>2026-01-06T17:11:47.000Z</time>
        <extensions>
          <ns3:TrackPointExtension>
            <ns3:hr>128</ns3:hr>
            <ns3:cad>0</ns3:cad>
          </ns3:TrackPointExtension>
        </extensions>
      </trkpt>
      <trkpt lat="37.943642847239971160888671875" lon="-107.11936759762465953826904296875">
        <ele>3754.199951171875</ele>
        <time>2026-01-06T17:11:51.000Z</time>
        <extensions>
          <ns3:TrackPointExtension>
            <ns3:hr>127</ns3:hr>
            <ns3:cad>0</ns3:cad>
          </ns3:TrackPointExtension>
        </extensions>
      </trkpt>
      <trkpt lat="37.94364653527736663818359375" lon="-107.119357623159885406494140625">
        <ele>3754.199951171875</ele>
        <time>2026-01-06T17:11:53.000Z</time>
        <extensions>
          <ns3:TrackPointExtension>
            <ns3:hr>126</ns3:hr>
            <ns3:cad>0</ns3:cad>
          </ns3:TrackPointExtension>
        </extensions>
      </trkpt>
      <trkpt lat="37.943665646016597747802734375" lon="-107.1193041466176509857177734375">
        <ele>3754.199951171875</ele>
        <time>2026-01-06T17:11:59.000Z</time>
        <extensions>
          <ns3:TrackPointExtension>
            <ns3:hr>126</ns3:hr>
            <ns3:cad>0</ns3:cad>
          </ns3:TrackPointExtension>
        </extensions>
      </trkpt>
      <trkpt lat="37.94366723857820034027099609375" lon="-107.11929450742900371551513671875">
        <ele>3754.199951171875</ele>
        <time>2026-01-06T17:12:00.000Z</time>
        <extensions>
          <ns3:TrackPointExtension>
            <ns3:hr>125</ns3:hr>
            <ns3:cad>69</ns3:cad>
          </ns3:TrackPointExtension>
        </extensions>
      </trkpt>
      <trkpt lat="37.94368031434714794158935546875" lon="-107.1192488260567188262939453125">
        <ele>3754</ele>
        <time>2026-01-06T17:12:06.000Z</time>
        <extensions>
          <ns3:TrackPointExtension>
            <ns3:hr>124</ns3:hr>
            <ns3:cad>0</ns3:cad>
          </ns3:TrackPointExtension>
        </extensions>
      </trkpt>
      <trkpt lat="37.94369674287736415863037109375" lon="-107.11920373141765594482421875">
        <ele>3753.800048828125</ele>
        <time>2026-01-06T17:12:12.000Z</time>
        <extensions>
          <ns3:TrackPointExtension>
            <ns3:hr>121</ns3:hr>
            <ns3:cad>0</ns3:cad>
          </ns3:TrackPointExtension>
        </extensions>
      </trkpt>
      <trkpt lat="37.9437140934169292449951171875" lon="-107.11916081607341766357421875">
        <ele>3754</ele>
        <time>2026-01-06T17:12:18.000Z</time>
        <extensions>
          <ns3:TrackPointExtension>
            <ns3:hr>119</ns3:hr>
            <ns3:cad>0</ns3:cad>
          </ns3:TrackPointExtension>
        </extensions>
      </trkpt>
      <trkpt lat="37.9437288455665111541748046875" lon="-107.11911848746240139007568359375">
        <ele>3754.199951171875</ele>
        <time>2026-01-06T17:12:23.000Z</time>
        <extensions>
          <ns3:TrackPointExtension>
            <ns3:hr>122</ns3:hr>
            <ns3:cad>62</ns3:cad>
          </ns3:TrackPointExtension>
        </extensions>
      </trkpt>
      <trkpt lat="37.9437311924993991851806640625" lon="-107.11911655962467193603515625">
        <ele>3754.199951171875</ele>
        <time>2026-01-06T17:12:24.000Z</time>
        <extensions>
          <ns3:TrackPointExtension>
            <ns3:hr>122</ns3:hr>
            <ns3:cad>65</ns3:cad>
          </ns3:TrackPointExtension>
        </extensions>
      </trkpt>
      <trkpt lat="37.94375918805599212646484375" lon="-107.1190702915191650390625">
        <ele>3754</ele>
        <time>2026-01-06T17:12:30.000Z</time>
        <extensions>
          <ns3:TrackPointExtension>
            <ns3:hr>124</ns3:hr>
            <ns3:cad>60</ns3:cad>
          </ns3:TrackPointExtension>
        </extensions>
      </trkpt>
      <trkpt lat="37.94377637095749378204345703125" lon="-107.11903349496424198150634765625">
        <ele>3754</ele>
        <time>2026-01-06T17:12:35.000Z</time>
        <extensions>
          <ns3:TrackPointExtension>
            <ns3:hr>123</ns3:hr>
            <ns3:cad>51</ns3:cad>
          </ns3:TrackPointExtension>
        </extensions>
      </trkpt>
      <trkpt lat="37.9437938891351222991943359375" lon="-107.11899208836257457733154296875">
        <ele>3754.199951171875</ele>
        <time>2026-01-06T17:12:41.000Z</time>
        <extensions>
          <ns3:TrackPointExtension>
            <ns3:hr>123</ns3:hr>
            <ns3:cad>57</ns3:cad>
          </ns3:TrackPointExtension>
        </extensions>
      </trkpt>
      <trkpt lat="37.94380587525665760040283203125" lon="-107.11894892156124114990234375">
        <ele>3754.199951171875</ele>
        <time>2026-01-06T17:12:47.000Z</time>
        <extensions>
          <ns3:TrackPointExtension>
            <ns3:hr>124</ns3:hr>
            <ns3:cad>0</ns3:cad>
          </ns3:TrackPointExtension>
        </extensions>
      </trkpt>
      <trkpt lat="37.943818867206573486328125" lon="-107.1189133822917938232421875">
        <ele>3754.800048828125</ele>
        <time>2026-01-06T17:12:51.000Z</time>
        <extensions>
          <ns3:TrackPointExtension>
            <ns3:hr>123</ns3:hr>
            <ns3:cad>68</ns3:cad>
          </ns3:TrackPointExtension>
        </extensions>
      </trkpt>
      <trkpt lat="37.94383889995515346527099609375" lon="-107.1188696287572383880615234375">
        <ele>3753.800048828125</ele>
        <time>2026-01-06T17:12:56.000Z</time>
        <extensions>
          <ns3:TrackPointExtension>
            <ns3:hr>123</ns3:hr>
            <ns3:cad>60</ns3:cad>
          </ns3:TrackPointExtension>
        </extensions>
      </trkpt>
      <trkpt lat="37.9438542388379573822021484375" lon="-107.1188342571258544921875">
        <ele>3754</ele>
        <time>2026-01-06T17:13:02.000Z</time>
        <extensions>
          <ns3:TrackPointExtension>
            <ns3:hr>122</ns3:hr>
            <ns3:cad>0</ns3:cad>
          </ns3:TrackPointExtension>
        </extensions>
      </trkpt>
      <trkpt lat="37.943858094513416290283203125" lon="-107.118826545774936676025390625">
        <ele>3754</ele>
        <time>2026-01-06T17:13:03.000Z</time>
        <extensions>
          <ns3:TrackPointExtension>
            <ns3:hr>121</ns3:hr>
            <ns3:cad>45</ns3:cad>
          </ns3:TrackPointExtension>
        </extensions>
      </trkpt>
      <trkpt lat="37.94386438094079494476318359375" lon="-107.11880165152251720428466796875">
        <ele>3753.800048828125</ele>
        <time>2026-01-06T17:13:08.000Z</time>
        <extensions>
          <ns3:TrackPointExtension>
            <ns3:hr>120</ns3:hr>
            <ns3:cad>45</ns3:cad>
          </ns3:TrackPointExtension>
        </extensions>
      </trkpt>
      <trkpt lat="37.94386438094079494476318359375" lon="-107.11879871785640716552734375">
        <ele>3753.60009765625</ele>
        <time>2026-01-06T17:13:14.000Z</time>
        <extensions>
          <ns3:TrackPointExtension>
            <ns3:hr>118</ns3:hr>
            <ns3:cad>0</ns3:cad>
          </ns3:TrackPointExtension>
        </extensions>
      </trkpt>
      <trkpt lat="37.94386438094079494476318359375" lon="-107.11879871785640716552734375">
        <ele>3753.800048828125</ele>
        <time>2026-01-06T17:13:15.000Z</time>
        <extensions>
          <ns3:TrackPointExtension>
            <ns3:hr>118</ns3:hr>
            <ns3:cad>0</ns3:cad>
          </ns3:TrackPointExtension>
        </extensions>
      </trkpt>
      <trkpt lat="37.94386438094079494476318359375" lon="-107.11879871785640716552734375">
        <ele>3753.60009765625</ele>
        <time>2026-01-06T17:13:21.000Z</time>
        <extensions>
          <ns3:TrackPointExtension>
            <ns3:hr>118</ns3:hr>
            <ns3:cad>0</ns3:cad>
          </ns3:TrackPointExtension>
        </extensions>
      </trkpt>
      <trkpt lat="37.94386438094079494476318359375" lon="-107.11879871785640716552734375">
        <ele>3753.800048828125</ele>
        <time>2026-01-06T17:13:27.000Z</time>
        <extensions>
          <ns3:TrackPointExtension>
            <ns3:hr>115</ns3:hr>
            <ns3:cad>0</ns3:cad>
          </ns3:TrackPointExtension>
        </extensions>
      </trkpt>
      <trkpt lat="37.94386438094079494476318359375" lon="-107.11879871785640716552734375">
        <ele>3753.60009765625</ele>
        <time>2026-01-06T17:13:30.000Z</time>
        <extensions>
          <ns3:TrackPointExtension>
            <ns3:hr>115</ns3:hr>
            <ns3:cad>0</ns3:cad>
          </ns3:TrackPointExtension>
        </extensions>
      </trkpt>
      <trkpt lat="37.94386438094079494476318359375" lon="-107.11879871785640716552734375">
        <ele>3753.60009765625</ele>
        <time>2026-01-06T17:13:36.000Z</time>
        <extensions>
          <ns3:TrackPointExtension>
            <ns3:hr>114</ns3:hr>
            <ns3:cad>0</ns3:cad>
          </ns3:TrackPointExtension>
        </extensions>
      </trkpt>
      <trkpt lat="37.94386438094079494476318359375" lon="-107.11879871785640716552734375">
        <ele>3753.39990234375</ele>
        <time>2026-01-06T17:13:42.000Z</time>
        <extensions>
          <ns3:TrackPointExtension>
            <ns3:hr>114</ns3:hr>
            <ns3:cad>0</ns3:cad>
          </ns3:TrackPointExtension>
        </extensions>
      </trkpt>
      <trkpt lat="37.94386438094079494476318359375" lon="-107.11879871785640716552734375">
        <ele>3753.60009765625</ele>
        <time>2026-01-06T17:13:46.000Z</time>
        <extensions>
          <ns3:TrackPointExtension>
            <ns3:hr>113</ns3:hr>
            <ns3:cad>0</ns3:cad>
          </ns3:TrackPointExtension>
        </extensions>
      </trkpt>
      <trkpt lat="37.9438726790249347686767578125" lon="-107.118792347609996795654296875">
        <ele>3753.800048828125</ele>
        <time>2026-01-06T17:13:52.000Z</time>
        <extensions>
          <ns3:TrackPointExtension>
            <ns3:hr>112</ns3:hr>
            <ns3:cad>0</ns3:cad>
          </ns3:TrackPointExtension>
        </extensions>
      </trkpt>
      <trkpt lat="37.9438803903758525848388671875" lon="-107.11877834983170032501220703125">
        <ele>3753.800048828125</ele>
        <time>2026-01-06T17:13:54.000Z</time>
        <extensions>
          <ns3:TrackPointExtension>
            <ns3:hr>111</ns3:hr>
            <ns3:cad>0</ns3:cad>
          </ns3:TrackPointExtension>
        </extensions>
      </trkpt>
      <trkpt lat="37.94389271177351474761962890625" lon="-107.11874775588512420654296875">
        <ele>3753.60009765625</ele>
        <time>2026-01-06T17:13:59.000Z</time>
        <extensions>
          <ns3:TrackPointExtension>
            <ns3:hr>111</ns3:hr>
            <ns3:cad>0</ns3:cad>
          </ns3:TrackPointExtension>
        </extensions>
      </trkpt>
      <trkpt lat="37.9439132474362850189208984375" lon="-107.1187055110931396484375">
        <ele>3753.60009765625</ele>
        <time>2026-01-06T17:14:05.000Z</time>
        <extensions>
          <ns3:TrackPointExtension>
            <ns3:hr>111</ns3:hr>
            <ns3:cad>0</ns3:cad>
          </ns3:TrackPointExtension>
        </extensions>
      </trkpt>
      <trkpt lat="37.9439306817948818206787109375" lon="-107.118669636547565460205078125">
        <ele>3753.60009765625</ele>
        <time>2026-01-06T17:14:11.000Z</time>
        <extensions>
          <ns3:TrackPointExtension>
            <ns3:hr>111</ns3:hr>
            <ns3:cad>0</ns3:cad>
          </ns3:TrackPointExtension>
        </extensions>
      </trkpt>
      <trkpt lat="37.9439437575638294219970703125" lon="-107.11862747557461261749267578125">
        <ele>3753.39990234375</ele>
        <time>2026-01-06T17:14:17.000Z</time>
        <extensions>
          <ns3:TrackPointExtension>
            <ns3:hr>112</ns3:hr>
            <ns3:cad>0</ns3:cad>
          </ns3:TrackPointExtension>
        </extensions>
      </trkpt>
      <trkpt lat="37.94396127574145793914794921875" lon="-107.1186030842363834381103515625">
        <ele>3753.199951171875</ele>
        <time>2026-01-06T17:14:21.000Z</time>
        <extensions>
          <ns3:TrackPointExtension>
            <ns3:hr>109</ns3:hr>
            <ns3:cad>0</ns3:cad>
          </ns3:TrackPointExtension>
        </extensions>
      </trkpt>
      <trkpt lat="37.9439588449895381927490234375" lon="-107.11860534735023975372314453125">
        <ele>3753.199951171875</ele>
        <time>2026-01-06T17:14:22.000Z</time>
        <extensions>
          <ns3:TrackPointExtension>
            <ns3:hr>108</ns3:hr>
            <ns3:cad>0</ns3:cad>
          </ns3:TrackPointExtension>
        </extensions>
      </trkpt>
      <trkpt lat="37.943964041769504547119140625" lon="-107.11859545670449733734130859375">
        <ele>3753</ele>
        <time>2026-01-06T17:14:23.000Z</time>
        <extensions>
          <ns3:TrackPointExtension>
            <ns3:hr>107</ns3:hr>
            <ns3:cad>0</ns3:cad>
          </ns3:TrackPointExtension>
        </extensions>
      </trkpt>
      <trkpt lat="37.9439695738255977630615234375" lon="-107.1185786090791225433349609375">
        <ele>3753</ele>
        <time>2026-01-06T17:14:27.000Z</time>
        <extensions>
          <ns3:TrackPointExtension>
            <ns3:hr>107</ns3:hr>
            <ns3:cad>54</ns3:cad>
          </ns3:TrackPointExtension>
        </extensions>
      </trkpt>
      <trkpt lat="37.94398558326065540313720703125" lon="-107.118547596037387847900390625">
        <ele>3753.199951171875</ele>
        <time>2026-01-06T17:14:33.000Z</time>
        <extensions>
          <ns3:TrackPointExtension>
            <ns3:hr>106</ns3:hr>
            <ns3:cad>0</ns3:cad>
          </ns3:TrackPointExtension>
        </extensions>
      </trkpt>
      <trkpt lat="37.94399010948836803436279296875" lon="-107.1185313351452350616455078125">
        <ele>3753.39990234375</ele>
        <time>2026-01-06T17:14:37.000Z</time>
        <extensions>
          <ns3:TrackPointExtension>
            <ns3:hr>109</ns3:hr>
            <ns3:cad>62</ns3:cad>
          </ns3:TrackPointExtension>
        </extensions>
      </trkpt>
      <trkpt lat="37.94399295933544635772705078125" lon="-107.118516750633716583251953125">
        <ele>3753</ele>
        <time>2026-01-06T17:14:40.000Z</time>
        <extensions>
          <ns3:TrackPointExtension>
            <ns3:hr>112</ns3:hr>
            <ns3:cad>0</ns3:cad>
          </ns3:TrackPointExtension>
        </extensions>
      </trkpt>
      <trkpt lat="37.9439945518970489501953125" lon="-107.118509374558925628662109375">
        <ele>3753</ele>
        <time>2026-01-06T17:14:41.000Z</time>
        <extensions>
          <ns3:TrackPointExtension>
            <ns3:hr>112</ns3:hr>
            <ns3:cad>0</ns3:cad>
          </ns3:TrackPointExtension>
        </extensions>
      </trkpt>
      <trkpt lat="37.94401207007467746734619140625" lon="-107.11846168152987957000732421875">
        <ele>3753.199951171875</ele>
        <time>2026-01-06T17:14:47.000Z</time>
        <extensions>
          <ns3:TrackPointExtension>
            <ns3:hr>112</ns3:hr>
            <ns3:cad>0</ns3:cad>
          </ns3:TrackPointExtension>
        </extensions>
      </trkpt>
      <trkpt lat="37.9440138302743434906005859375" lon="-107.118457742035388946533203125">
        <ele>3753.39990234375</ele>
        <time>2026-01-06T17:14:48.000Z</time>
        <extensions>
          <ns3:TrackPointExtension>
            <ns3:hr>112</ns3:hr>
            <ns3:cad>0</ns3:cad>
          </ns3:TrackPointExtension>
        </extensions>
      </trkpt>
      <trkpt lat="37.944019697606563568115234375" lon="-107.11844206787645816802978515625">
        <ele>3753.39990234375</ele>
        <time>2026-01-06T17:14:51.000Z</time>
        <extensions>
          <ns3:TrackPointExtension>
            <ns3:hr>109</ns3:hr>
            <ns3:cad>0</ns3:cad>
          </ns3:TrackPointExtension>
        </extensions>
      </trkpt>
      <trkpt lat="37.944024391472339630126953125" lon="-107.1184290759265422821044921875">
        <ele>3753.199951171875</ele>
        <time>2026-01-06T17:14:54.000Z</time>
        <extensions>
          <ns3:TrackPointExtension>
            <ns3:hr>109</ns3:hr>
            <ns3:cad>0</ns3:cad>
          </ns3:TrackPointExtension>
        </extensions>
      </trkpt>
      <trkpt lat="37.9440279118716716766357421875" lon="-107.11842312477529048919677734375">
        <ele>3753.199951171875</ele>
        <time>2026-01-06T17:14:57.000Z</time>
        <extensions>
          <ns3:TrackPointExtension>
            <ns3:hr>112</ns3:hr>
            <ns3:cad>0</ns3:cad>
          </ns3:TrackPointExtension>
        </extensions>
      </trkpt>
      <trkpt lat="37.94403386302292346954345703125" lon="-107.1184079535305500030517578125">
        <ele>3753</ele>
        <time>2026-01-06T17:15:00.000Z</time>
        <extensions>
          <ns3:TrackPointExtension>
            <ns3:hr>113</ns3:hr>
            <ns3:cad>0</ns3:cad>
          </ns3:TrackPointExtension>
        </extensions>
      </trkpt>
      <trkpt lat="37.94404576532542705535888671875" lon="-107.1183771081268787384033203125">
        <ele>3753</ele>
        <time>2026-01-06T17:15:06.000Z</time>
        <extensions>
          <ns3:TrackPointExtension>
            <ns3:hr>112</ns3:hr>
            <ns3:cad>0</ns3:cad>
          </ns3:TrackPointExtension>
        </extensions>
      </trkpt>
      <trkpt lat="37.94406068511307239532470703125" lon="-107.11834131740033626556396484375">
        <ele>3752.800048828125</ele>
        <time>2026-01-06T17:15:11.000Z</time>
        <extensions>
          <ns3:TrackPointExtension>
            <ns3:hr>111</ns3:hr>
            <ns3:cad>0</ns3:cad>
          </ns3:TrackPointExtension>
        </extensions>
      </trkpt>
      <trkpt lat="37.94407434761524200439453125" lon="-107.11831198073923587799072265625">
        <ele>3752.60009765625</ele>
        <time>2026-01-06T17:15:17.000Z</time>
        <extensions>
          <ns3:TrackPointExtension>
            <ns3:hr>109</ns3:hr>
            <ns3:cad>0</ns3:cad>
          </ns3:TrackPointExtension>
        </extensions>
      </trkpt>
      <trkpt lat="37.9440771974623203277587890625" lon="-107.11830393411219120025634765625">
        <ele>3752.60009765625</ele>
        <time>2026-01-06T17:15:18.000Z</time>
        <extensions>
          <ns3:TrackPointExtension>
            <ns3:hr>109</ns3:hr>
            <ns3:cad>0</ns3:cad>
          </ns3:TrackPointExtension>
        </extensions>
      </trkpt>
      <trkpt lat="37.9440942965447902679443359375" lon="-107.1182802133262157440185546875">
        <ele>3752.800048828125</ele>
        <time>2026-01-06T17:15:22.000Z</time>
        <extensions>
          <ns3:TrackPointExtension>
            <ns3:hr>112</ns3:hr>
            <ns3:cad>0</ns3:cad>
          </ns3:TrackPointExtension>
        </extensions>
      </trkpt>
      <trkpt lat="37.94409790076315402984619140625" lon="-107.11827166378498077392578125">
        <ele>3752.800048828125</ele>
        <time>2026-01-06T17:15:24.000Z</time>
        <extensions>
          <ns3:TrackPointExtension>
            <ns3:hr>113</ns3:hr>
            <ns3:cad>0</ns3:cad>
          </ns3:TrackPointExtension>
        </extensions>
      </trkpt>
      <trkpt lat="37.9440983198583126068115234375" lon="-107.1182711608707904815673828125">
        <ele>3752.800048828125</ele>
        <time>2026-01-06T17:15:25.000Z</time>
        <extensions>
          <ns3:TrackPointExtension>
            <ns3:hr>116</ns3:hr>
            <ns3:cad>0</ns3:cad>
          </ns3:TrackPointExtension>
        </extensions>
      </trkpt>
      <trkpt lat="37.94410921633243560791015625" lon="-107.11824794299900531768798828125">
        <ele>3753</ele>
        <time>2026-01-06T17:15:29.000Z</time>
        <extensions>
          <ns3:TrackPointExtension>
            <ns3:hr>119</ns3:hr>
            <ns3:cad>0</ns3:cad>
          </ns3:TrackPointExtension>
        </extensions>
      </trkpt>
      <trkpt lat="37.944122292101383209228515625" lon="-107.11821558885276317596435546875">
        <ele>3752.60009765625</ele>
        <time>2026-01-06T17:15:33.000Z</time>
        <extensions>
          <ns3:TrackPointExtension>
            <ns3:hr>122</ns3:hr>
            <ns3:cad>0</ns3:cad>
          </ns3:TrackPointExtension>
        </extensions>
      </trkpt>
      <trkpt lat="37.94412908144295215606689453125" lon="-107.1182007528841495513916015625">
        <ele>3752.60009765625</ele>
        <time>2026-01-06T17:15:35.000Z</time>
        <extensions>
          <ns3:TrackPointExtension>
            <ns3:hr>122</ns3:hr>
            <ns3:cad>0</ns3:cad>
          </ns3:TrackPointExtension>
        </extensions>
      </trkpt>
      <trkpt lat="37.94415137730538845062255859375" lon="-107.11814970709383487701416015625">
        <ele>3752.60009765625</ele>
        <time>2026-01-06T17:15:41.000Z</time>
        <extensions>
          <ns3:TrackPointExtension>
            <ns3:hr>120</ns3:hr>
            <ns3:cad>65</ns3:cad>
          </ns3:TrackPointExtension>
        </extensions>
      </trkpt>
      <trkpt lat="37.94416579417884349822998046875" lon="-107.118113078176975250244140625">
        <ele>3752.800048828125</ele>
        <time>2026-01-06T17:15:47.000Z</time>
        <extensions>
          <ns3:TrackPointExtension>
            <ns3:hr>120</ns3:hr>
            <ns3:cad>65</ns3:cad>
          </ns3:TrackPointExtension>
        </extensions>
      </trkpt>
      <trkpt lat="37.94418540783226490020751953125" lon="-107.1180663071572780609130859375">
        <ele>3752.60009765625</ele>
        <time>2026-01-06T17:15:53.000Z</time>
        <extensions>
          <ns3:TrackPointExtension>
            <ns3:hr>119</ns3:hr>
            <ns3:cad>0</ns3:cad>
          </ns3:TrackPointExtension>
        </extensions>
      </trkpt>
      <trkpt lat="37.9441885091364383697509765625" lon="-107.11806203238666057586669921875">
        <ele>3752.60009765625</ele>
        <time>2026-01-06T17:15:54.000Z</time>
        <extensions>
          <ns3:TrackPointExtension>
            <ns3:hr>118</ns3:hr>
            <ns3:cad>0</ns3:cad>
          </ns3:TrackPointExtension>
        </extensions>
      </trkpt>
      <trkpt lat="37.94420577585697174072265625" lon="-107.11802263744175434112548828125">
        <ele>3752.60009765625</ele>
        <time>2026-01-06T17:15:59.000Z</time>
        <extensions>
          <ns3:TrackPointExtension>
            <ns3:hr>117</ns3:hr>
            <ns3:cad>0</ns3:cad>
          </ns3:TrackPointExtension>
        </extensions>
      </trkpt>
      <trkpt lat="37.9442230425775051116943359375" lon="-107.1179719269275665283203125">
        <ele>3752.60009765625</ele>
        <time>2026-01-06T17:16:05.000Z</time>
        <extensions>
          <ns3:TrackPointExtension>
            <ns3:hr>116</ns3:hr>
            <ns3:cad>65</ns3:cad>
          </ns3:TrackPointExtension>
        </extensions>
      </trkpt>
      <trkpt lat="37.944242991507053375244140625" lon="-107.1179330348968505859375">
        <ele>3752.39990234375</ele>
        <time>2026-01-06T17:16:11.000Z</time>
        <extensions>
          <ns3:TrackPointExtension>
            <ns3:hr>116</ns3:hr>
            <ns3:cad>68</ns3:cad>
          </ns3:TrackPointExtension>
        </extensions>
      </trkpt>
      <trkpt lat="37.94424491934478282928466796875" lon="-107.11792306043207645416259765625">
        <ele>3752.39990234375</ele>
        <time>2026-01-06T17:16:13.000Z</time>
        <extensions>
          <ns3:TrackPointExtension>
            <ns3:hr>116</ns3:hr>
            <ns3:cad>0</ns3:cad>
          </ns3:TrackPointExtension>
        </extensions>
      </trkpt>
      <trkpt lat="37.94424458406865596771240234375" lon="-107.1179231442511081695556640625">
        <ele>3752.39990234375</ele>
        <time>2026-01-06T17:16:19.000Z</time>
        <extensions>
          <ns3:TrackPointExtension>
            <ns3:hr>115</ns3:hr>
            <ns3:cad>0</ns3:cad>
          </ns3:TrackPointExtension>
        </extensions>
      </trkpt>
      <trkpt lat="37.9442471824586391448974609375" lon="-107.11791048757731914520263671875">
        <ele>3752.39990234375</ele>
        <time>2026-01-06T17:16:22.000Z</time>
        <extensions>
          <ns3:TrackPointExtension>
            <ns3:hr>113</ns3:hr>
            <ns3:cad>0</ns3:cad>
          </ns3:TrackPointExtension>
        </extensions>
      </trkpt>
      <trkpt lat="37.94426000677049160003662109375" lon="-107.11786773987114429473876953125">
        <ele>3752.39990234375</ele>
        <time>2026-01-06T17:16:28.000Z</time>
        <extensions>
          <ns3:TrackPointExtension>
            <ns3:hr>110</ns3:hr>
            <ns3:cad>0</ns3:cad>
          </ns3:TrackPointExtension>
        </extensions>
      </trkpt>
      <trkpt lat="37.94427174143493175506591796875" lon="-107.11785055696964263916015625">
        <ele>3752.39990234375</ele>
        <time>2026-01-06T17:16:31.000Z</time>
        <extensions>
          <ns3:TrackPointExtension>
            <ns3:hr>110</ns3:hr>
            <ns3:cad>0</ns3:cad>
          </ns3:TrackPointExtension>
        </extensions>
      </trkpt>
      <trkpt lat="37.94429118745028972625732421875" lon="-107.11779448203742504119873046875">
        <ele>3752.199951171875</ele>
        <time>2026-01-06T17:16:37.000Z</time>
        <extensions>
          <ns3:TrackPointExtension>
            <ns3:hr>111</ns3:hr>
            <ns3:cad>0</ns3:cad>
          </ns3:TrackPointExtension>
        </extensions>
      </trkpt>
      <trkpt lat="37.94429487548768520355224609375" lon="-107.1177829988300800323486328125">
        <ele>3752.199951171875</ele>
        <time>2026-01-06T17:16:38.000Z</time>
        <extensions>
          <ns3:TrackPointExtension>
            <ns3:hr>113</ns3:hr>
            <ns3:cad>0</ns3:cad>
          </ns3:TrackPointExtension>
        </extensions>
      </trkpt>
      <trkpt lat="37.944295965135097503662109375" lon="-107.11777838878333568572998046875">
        <ele>3752</ele>
        <time>2026-01-06T17:16:39.000Z</time>
        <extensions>
          <ns3:TrackPointExtension>
            <ns3:hr>114</ns3:hr>
            <ns3:cad>0</ns3:cad>
          </ns3:TrackPointExtension>
        </extensions>
      </trkpt>
      <trkpt lat="37.94431038200855255126953125" lon="-107.117742933332920074462890625">
        <ele>3752.39990234375</ele>
        <time>2026-01-06T17:16:44.000Z</time>
        <extensions>
          <ns3:TrackPointExtension>
            <ns3:hr>115</ns3:hr>
            <ns3:cad>0</ns3:cad>
          </ns3:TrackPointExtension>
        </extensions>
      </trkpt>
      <trkpt lat="37.94432672671973705291748046875" lon="-107.117716111242771148681640625">
        <ele>3751.800048828125</ele>
        <time>2026-01-06T17:16:50.000Z</time>
        <extensions>
          <ns3:TrackPointExtension>
            <ns3:hr>114</ns3:hr>
            <ns3:cad>61</ns3:cad>
          </ns3:TrackPointExtension>
        </extensions>
      </trkpt>
      <trkpt lat="37.94434659183025360107421875" lon="-107.11766825057566165924072265625">
        <ele>3752</ele>
        <time>2026-01-06T17:16:56.000Z</time>
        <extensions>
          <ns3:TrackPointExtension>
            <ns3:hr>113</ns3:hr>
            <ns3:cad>71</ns3:cad>
          </ns3:TrackPointExtension>
        </extensions>
      </trkpt>
      <trkpt lat="37.94435036368668079376220703125" lon="-107.11765886284410953521728515625">
        <ele>3751.800048828125</ele>
        <time>2026-01-06T17:16:58.000Z</time>
        <extensions>
          <ns3:TrackPointExtension>
            <ns3:hr>113</ns3:hr>
            <ns3:cad>0</ns3:cad>
          </ns3:TrackPointExtension>
        </extensions>
      </trkpt>
      <trkpt lat="37.9443673789501190185546875" lon="-107.11762332357466220855712890625">
        <ele>3752</ele>
        <time>2026-01-06T17:17:04.000Z</time>
        <extensions>
          <ns3:TrackPointExtension>
            <ns3:hr>113</ns3:hr>
            <ns3:cad>0</ns3:cad>
          </ns3:TrackPointExtension>
        </extensions>
      </trkpt>
      <trkpt lat="37.94436578638851642608642578125" lon="-107.11762122809886932373046875">
        <ele>3752</ele>
        <time>2026-01-06T17:17:05.000Z</time>
        <extensions>
          <ns3:TrackPointExtension>
            <ns3:hr>112</ns3:hr>
            <ns3:cad>0</ns3:cad>
          </ns3:TrackPointExtension>
        </extensions>
      </trkpt>
      <trkpt lat="37.94438280165195465087890625" lon="-107.11759180761873722076416015625">
        <ele>3751.60009765625</ele>
        <time>2026-01-06T17:17:10.000Z</time>
        <extensions>
          <ns3:TrackPointExtension>
            <ns3:hr>111</ns3:hr>
            <ns3:cad>51</ns3:cad>
          </ns3:TrackPointExtension>
        </extensions>
      </trkpt>
      <trkpt lat="37.94440417550504207611083984375" lon="-107.1175503171980381011962890625">
        <ele>3751.800048828125</ele>
        <time>2026-01-06T17:17:16.000Z</time>
        <extensions>
          <ns3:TrackPointExtension>
            <ns3:hr>110</ns3:hr>
            <ns3:cad>0</ns3:cad>
          </ns3:TrackPointExtension>
        </extensions>
      </trkpt>
      <trkpt lat="37.9444044269621372222900390625" lon="-107.11754838936030864715576171875">
        <ele>3751.800048828125</ele>
        <time>2026-01-06T17:17:17.000Z</time>
        <extensions>
          <ns3:TrackPointExtension>
            <ns3:hr>110</ns3:hr>
            <ns3:cad>0</ns3:cad>
          </ns3:TrackPointExtension>
        </extensions>
      </trkpt>
      <trkpt lat="37.94441792182624340057373046875" lon="-107.11752123199403285980224609375">
        <ele>3751.39990234375</ele>
        <time>2026-01-06T17:17:23.000Z</time>
        <extensions>
          <ns3:TrackPointExtension>
            <ns3:hr>108</ns3:hr>
            <ns3:cad>0</ns3:cad>
          </ns3:TrackPointExtension>
        </extensions>
      </trkpt>
      <trkpt lat="37.9444389604032039642333984375" lon="-107.11746968328952789306640625">
        <ele>3751.39990234375</ele>
        <time>2026-01-06T17:17:29.000Z</time>
        <extensions>
          <ns3:TrackPointExtension>
            <ns3:hr>108</ns3:hr>
            <ns3:cad>0</ns3:cad>
          </ns3:TrackPointExtension>
        </extensions>
      </trkpt>
      <trkpt lat="37.9444424808025360107421875" lon="-107.11745895445346832275390625">
        <ele>3751.39990234375</ele>
        <time>2026-01-06T17:17:30.000Z</time>
        <extensions>
          <ns3:TrackPointExtension>
            <ns3:hr>110</ns3:hr>
            <ns3:cad>0</ns3:cad>
          </ns3:TrackPointExtension>
        </extensions>
      </trkpt>
      <trkpt lat="37.94446326792240142822265625" lon="-107.11742517538368701934814453125">
        <ele>3751.199951171875</ele>
        <time>2026-01-06T17:17:36.000Z</time>
        <extensions>
          <ns3:TrackPointExtension>
            <ns3:hr>111</ns3:hr>
            <ns3:cad>0</ns3:cad>
          </ns3:TrackPointExtension>
        </extensions>
      </trkpt>
      <trkpt lat="37.9444691352546215057373046875" lon="-107.11741260252892971038818359375">
        <ele>3751.199951171875</ele>
        <time>2026-01-06T17:17:38.000Z</time>
        <extensions>
          <ns3:TrackPointExtension>
            <ns3:hr>111</ns3:hr>
            <ns3:cad>0</ns3:cad>
          </ns3:TrackPointExtension>
        </extensions>
      </trkpt>
      <trkpt lat="37.9444899223744869232177734375" lon="-107.11735677905380725860595703125">
        <ele>3751.199951171875</ele>
        <time>2026-01-06T17:17:44.000Z</time>
        <extensions>
          <ns3:TrackPointExtension>
            <ns3:hr>112</ns3:hr>
            <ns3:cad>0</ns3:cad>
          </ns3:TrackPointExtension>
        </extensions>
      </trkpt>
      <trkpt lat="37.9444926045835018157958984375" lon="-107.1173496544361114501953125">
        <ele>3751.199951171875</ele>
        <time>2026-01-06T17:17:45.000Z</time>
        <extensions>
          <ns3:TrackPointExtension>
            <ns3:hr>111</ns3:hr>
            <ns3:cad>0</ns3:cad>
          </ns3:TrackPointExtension>
        </extensions>
      </trkpt>
      <trkpt lat="37.94449721463024616241455078125" lon="-107.117336578667163848876953125">
        <ele>3751</ele>
        <time>2026-01-06T17:17:47.000Z</time>
        <extensions>
          <ns3:TrackPointExtension>
            <ns3:hr>112</ns3:hr>
            <ns3:cad>0</ns3:cad>
          </ns3:TrackPointExtension>
        </extensions>
      </trkpt>
      <trkpt lat="37.944509200751781463623046875" lon="-107.11730631999671459197998046875">
        <ele>3750.39990234375</ele>
        <time>2026-01-06T17:17:52.000Z</time>
        <extensions>
          <ns3:TrackPointExtension>
            <ns3:hr>113</ns3:hr>
            <ns3:cad>0</ns3:cad>
          </ns3:TrackPointExtension>
        </extensions>
      </trkpt>
      <trkpt lat="37.94452638365328311920166015625" lon="-107.1172556094825267791748046875">
        <ele>3751</ele>
        <time>2026-01-06T17:17:58.000Z</time>
        <extensions>
          <ns3:TrackPointExtension>
            <ns3:hr>115</ns3:hr>
            <ns3:cad>0</ns3:cad>
          </ns3:TrackPointExtension>
        </extensions>
      </trkpt>
      <trkpt lat="37.944527976214885711669921875" lon="-107.11724848486483097076416015625">
        <ele>3751</ele>
        <time>2026-01-06T17:17:59.000Z</time>
        <extensions>
          <ns3:TrackPointExtension>
            <ns3:hr>114</ns3:hr>
            <ns3:cad>76</ns3:cad>
          </ns3:TrackPointExtension>
        </extensions>
      </trkpt>
      <trkpt lat="37.94453191570937633514404296875" lon="-107.11723607964813709259033203125">
        <ele>3750.199951171875</ele>
        <time>2026-01-06T17:18:04.000Z</time>
        <extensions>
          <ns3:TrackPointExtension>
            <ns3:hr>114</ns3:hr>
            <ns3:cad>0</ns3:cad>
          </ns3:TrackPointExtension>
        </extensions>
      </trkpt>
      <trkpt lat="37.94453778304159641265869140625" lon="-107.1172180585563182830810546875">
        <ele>3750.199951171875</ele>
        <time>2026-01-06T17:18:10.000Z</time>
        <extensions>
          <ns3:TrackPointExtension>
            <ns3:hr>115</ns3:hr>
            <ns3:cad>0</ns3:cad>
          </ns3:TrackPointExtension>
        </extensions>
      </trkpt>
      <trkpt lat="37.9445388726890087127685546875" lon="-107.117214538156986236572265625">
        <ele>3750</ele>
        <time>2026-01-06T17:18:11.000Z</time>
        <extensions>
          <ns3:TrackPointExtension>
            <ns3:hr>115</ns3:hr>
            <ns3:cad>0</ns3:cad>
          </ns3:TrackPointExtension>
        </extensions>
      </trkpt>
      <trkpt lat="37.9445388726890087127685546875" lon="-107.117214538156986236572265625">
        <ele>3750</ele>
        <time>2026-01-06T17:18:12.000Z</time>
        <extensions>
          <ns3:TrackPointExtension>
            <ns3:hr>114</ns3:hr>
            <ns3:cad>0</ns3:cad>
          </ns3:TrackPointExtension>
        </extensions>
      </trkpt>
      <trkpt lat="37.944549433887004852294921875" lon="-107.11718930862843990325927734375">
        <ele>3750.39990234375</ele>
        <time>2026-01-06T17:18:17.000Z</time>
        <extensions>
          <ns3:TrackPointExtension>
            <ns3:hr>110</ns3:hr>
            <ns3:cad>0</ns3:cad>
          </ns3:TrackPointExtension>
        </extensions>
      </trkpt>
      <trkpt lat="37.94455287046730518341064453125" lon="-107.11717925034463405609130859375">
        <ele>3750.60009765625</ele>
        <time>2026-01-06T17:18:19.000Z</time>
        <extensions>
          <ns3:TrackPointExtension>
            <ns3:hr>108</ns3:hr>
            <ns3:cad>0</ns3:cad>
          </ns3:TrackPointExtension>
        </extensions>
      </trkpt>
      <trkpt lat="37.9445650242269039154052734375" lon="-107.1171543560922145843505859375">
        <ele>3749.800048828125</ele>
        <time>2026-01-06T17:18:25.000Z</time>
        <extensions>
          <ns3:TrackPointExtension>
            <ns3:hr>108</ns3:hr>
            <ns3:cad>0</ns3:cad>
          </ns3:TrackPointExtension>
        </extensions>
      </trkpt>
      <trkpt lat="37.94456896372139453887939453125" lon="-107.1171499975025653839111328125">
        <ele>3750</ele>
        <time>2026-01-06T17:18:27.000Z</time>
        <extensions>
          <ns3:TrackPointExtension>
            <ns3:hr>108</ns3:hr>
            <ns3:cad>0</ns3:cad>
          </ns3:TrackPointExtension>
        </extensions>
      </trkpt>
      <trkpt lat="37.94458488933742046356201171875" lon="-107.11711152456700801849365234375">
        <ele>3750.199951171875</ele>
        <time>2026-01-06T17:18:33.000Z</time>
        <extensions>
          <ns3:TrackPointExtension>
            <ns3:hr>107</ns3:hr>
            <ns3:cad>0</ns3:cad>
          </ns3:TrackPointExtension>
        </extensions>
      </trkpt>
      <trkpt lat="37.9445884935557842254638671875" lon="-107.11710046045482158660888671875">
        <ele>3750.199951171875</ele>
        <time>2026-01-06T17:18:35.000Z</time>
        <extensions>
          <ns3:TrackPointExtension>
            <ns3:hr>105</ns3:hr>
            <ns3:cad>0</ns3:cad>
          </ns3:TrackPointExtension>
        </extensions>
      </trkpt>
      <trkpt lat="37.94459930621087551116943359375" lon="-107.117079086601734161376953125">
        <ele>3749.800048828125</ele>
        <time>2026-01-06T17:18:41.000Z</time>
        <extensions>
          <ns3:TrackPointExtension>
            <ns3:hr>102</ns3:hr>
            <ns3:cad>0</ns3:cad>
          </ns3:TrackPointExtension>
        </extensions>
      </trkpt>
      <trkpt lat="37.9446008987724781036376953125" lon="-107.11707699112594127655029296875">
        <ele>3749.800048828125</ele>
        <time>2026-01-06T17:18:42.000Z</time>
        <extensions>
          <ns3:TrackPointExtension>
            <ns3:hr>102</ns3:hr>
            <ns3:cad>0</ns3:cad>
          </ns3:TrackPointExtension>
        </extensions>
      </trkpt>
      <trkpt lat="37.94460064731538295745849609375" lon="-107.11707732640206813812255859375">
        <ele>3749.60009765625</ele>
        <time>2026-01-06T17:18:48.000Z</time>
        <extensions>
          <ns3:TrackPointExtension>
            <ns3:hr>100</ns3:hr>
            <ns3:cad>0</ns3:cad>
          </ns3:TrackPointExtension>
        </extensions>
      </trkpt>
      <trkpt lat="37.94460064731538295745849609375" lon="-107.11707732640206813812255859375">
        <ele>3749.60009765625</ele>
        <time>2026-01-06T17:18:54.000Z</time>
        <extensions>
          <ns3:TrackPointExtension>
            <ns3:hr>101</ns3:hr>
            <ns3:cad>0</ns3:cad>
          </ns3:TrackPointExtension>
        </extensions>
      </trkpt>
      <trkpt lat="37.94460064731538295745849609375" lon="-107.11707732640206813812255859375">
        <ele>3749.39990234375</ele>
        <time>2026-01-06T17:18:58.000Z</time>
        <extensions>
          <ns3:TrackPointExtension>
            <ns3:hr>101</ns3:hr>
            <ns3:cad>0</ns3:cad>
          </ns3:TrackPointExtension>
        </extensions>
      </trkpt>
      <trkpt lat="37.94460215605795383453369140625" lon="-107.1170661784708499908447265625">
        <ele>3749.60009765625</ele>
        <time>2026-01-06T17:19:04.000Z</time>
        <extensions>
          <ns3:TrackPointExtension>
            <ns3:hr>101</ns3:hr>
            <ns3:cad>0</ns3:cad>
          </ns3:TrackPointExtension>
        </extensions>
      </trkpt>
      <trkpt lat="37.94460550881922245025634765625" lon="-107.11705033667385578155517578125">
        <ele>3749.39990234375</ele>
        <time>2026-01-06T17:19:07.000Z</time>
        <extensions>
          <ns3:TrackPointExtension>
            <ns3:hr>103</ns3:hr>
            <ns3:cad>0</ns3:cad>
          </ns3:TrackPointExtension>
        </extensions>
      </trkpt>
      <trkpt lat="37.9446092806756496429443359375" lon="-107.1170386858284473419189453125">
        <ele>3749.199951171875</ele>
        <time>2026-01-06T17:19:09.000Z</time>
        <extensions>
          <ns3:TrackPointExtension>
            <ns3:hr>106</ns3:hr>
            <ns3:cad>0</ns3:cad>
          </ns3:TrackPointExtension>
        </extensions>
      </trkpt>
      <trkpt lat="37.9446153156459331512451171875" lon="-107.11699962615966796875">
        <ele>3749.39990234375</ele>
        <time>2026-01-06T17:19:13.000Z</time>
        <extensions>
          <ns3:TrackPointExtension>
            <ns3:hr>107</ns3:hr>
            <ns3:cad>0</ns3:cad>
          </ns3:TrackPointExtension>
        </extensions>
      </trkpt>
      <trkpt lat="37.94463358819484710693359375" lon="-107.11693818680942058563232421875">
        <ele>3749.60009765625</ele>
        <time>2026-01-06T17:19:19.000Z</time>
        <extensions>
          <ns3:TrackPointExtension>
            <ns3:hr>106</ns3:hr>
            <ns3:cad>0</ns3:cad>
          </ns3:TrackPointExtension>
        </extensions>
      </trkpt>
      <trkpt lat="37.94464163482189178466796875" lon="-107.1169025637209415435791015625">
        <ele>3749</ele>
        <time>2026-01-06T17:19:24.000Z</time>
        <extensions>
          <ns3:TrackPointExtension>
            <ns3:hr>105</ns3:hr>
            <ns3:cad>0</ns3:cad>
          </ns3:TrackPointExtension>
        </extensions>
      </trkpt>
      <trkpt lat="37.94465814717113971710205078125" lon="-107.1168643422424793243408203125">
        <ele>3748.800048828125</ele>
        <time>2026-01-06T17:19:28.000Z</time>
        <extensions>
          <ns3:TrackPointExtension>
            <ns3:hr>104</ns3:hr>
            <ns3:cad>75</ns3:cad>
          </ns3:TrackPointExtension>
        </extensions>
      </trkpt>
      <trkpt lat="37.94467323459684848785400390625" lon="-107.1168177388608455657958984375">
        <ele>3748.800048828125</ele>
        <time>2026-01-06T17:19:34.000Z</time>
        <extensions>
          <ns3:TrackPointExtension>
            <ns3:hr>103</ns3:hr>
            <ns3:cad>0</ns3:cad>
          </ns3:TrackPointExtension>
        </extensions>
      </trkpt>
      <trkpt lat="37.9446749947965145111083984375" lon="-107.11680776439607143402099609375">
        <ele>3748.60009765625</ele>
        <time>2026-01-06T17:19:35.000Z</time>
        <extensions>
          <ns3:TrackPointExtension>
            <ns3:hr>102</ns3:hr>
            <ns3:cad>0</ns3:cad>
          </ns3:TrackPointExtension>
        </extensions>
      </trkpt>
      <trkpt lat="37.94469703920185565948486328125" lon="-107.11677105166018009185791015625">
        <ele>3748.199951171875</ele>
        <time>2026-01-06T17:19:41.000Z</time>
        <extensions>
          <ns3:TrackPointExtension>
            <ns3:hr>103</ns3:hr>
            <ns3:cad>0</ns3:cad>
          </ns3:TrackPointExtension>
        </extensions>
      </trkpt>
      <trkpt lat="37.94469938613474369049072265625" lon="-107.11676468141376972198486328125">
        <ele>3748.199951171875</ele>
        <time>2026-01-06T17:19:42.000Z</time>
        <extensions>
          <ns3:TrackPointExtension>
            <ns3:hr>103</ns3:hr>
            <ns3:cad>0</ns3:cad>
          </ns3:TrackPointExtension>
        </extensions>
      </trkpt>
      <trkpt lat="37.94470332562923431396484375" lon="-107.1167537011206150054931640625">
        <ele>3747.800048828125</ele>
        <time>2026-01-06T17:19:44.000Z</time>
        <extensions>
          <ns3:TrackPointExtension>
            <ns3:hr>103</ns3:hr>
            <ns3:cad>0</ns3:cad>
          </ns3:TrackPointExtension>
        </extensions>
      </trkpt>
      <trkpt lat="37.9447162337601184844970703125" lon="-107.11672998033463954925537109375">
        <ele>3747.800048828125</ele>
        <time>2026-01-06T17:19:50.000Z</time>
        <extensions>
          <ns3:TrackPointExtension>
            <ns3:hr>103</ns3:hr>
            <ns3:cad>0</ns3:cad>
          </ns3:TrackPointExtension>
        </extensions>
      </trkpt>
      <trkpt lat="37.94473014771938323974609375" lon="-107.116688154637813568115234375">
        <ele>3748</ele>
        <time>2026-01-06T17:19:56.000Z</time>
        <extensions>
          <ns3:TrackPointExtension>
            <ns3:hr>103</ns3:hr>
            <ns3:cad>0</ns3:cad>
          </ns3:TrackPointExtension>
        </extensions>
      </trkpt>
      <trkpt lat="37.94473350048065185546875" lon="-107.1166796050965785980224609375">
        <ele>3748.199951171875</ele>
        <time>2026-01-06T17:19:57.000Z</time>
        <extensions>
          <ns3:TrackPointExtension>
            <ns3:hr>103</ns3:hr>
            <ns3:cad>0</ns3:cad>
          </ns3:TrackPointExtension>
        </extensions>
      </trkpt>
      <trkpt lat="37.944757640361785888671875" lon="-107.11663174442946910858154296875">
        <ele>3748.39990234375</ele>
        <time>2026-01-06T17:20:03.000Z</time>
        <extensions>
          <ns3:TrackPointExtension>
            <ns3:hr>103</ns3:hr>
            <ns3:cad>0</ns3:cad>
          </ns3:TrackPointExtension>
        </extensions>
      </trkpt>
      <trkpt lat="37.9447718895971775054931640625" lon="-107.116580195724964141845703125">
        <ele>3748.39990234375</ele>
        <time>2026-01-06T17:20:09.000Z</time>
        <extensions>
          <ns3:TrackPointExtension>
            <ns3:hr>103</ns3:hr>
            <ns3:cad>0</ns3:cad>
          </ns3:TrackPointExtension>
        </extensions>
      </trkpt>
      <trkpt lat="37.9447769187390804290771484375" lon="-107.1165718138217926025390625">
        <ele>3748.39990234375</ele>
        <time>2026-01-06T17:20:10.000Z</time>
        <extensions>
          <ns3:TrackPointExtension>
            <ns3:hr>103</ns3:hr>
            <ns3:cad>0</ns3:cad>
          </ns3:TrackPointExtension>
        </extensions>
      </trkpt>
      <trkpt lat="37.944798879325389862060546875" lon="-107.1165262162685394287109375">
        <ele>3748.60009765625</ele>
        <time>2026-01-06T17:20:16.000Z</time>
        <extensions>
          <ns3:TrackPointExtension>
            <ns3:hr>105</ns3:hr>
            <ns3:cad>65</ns3:cad>
          </ns3:TrackPointExtension>
        </extensions>
      </trkpt>
      <trkpt lat="37.9448010586202144622802734375" lon="-107.1165203489363193511962890625">
        <ele>3748.60009765625</ele>
        <time>2026-01-06T17:20:17.000Z</time>
        <extensions>
          <ns3:TrackPointExtension>
            <ns3:hr>106</ns3:hr>
            <ns3:cad>0</ns3:cad>
          </ns3:TrackPointExtension>
        </extensions>
      </trkpt>
      <trkpt lat="37.944821007549762725830078125" lon="-107.11646997369825839996337890625">
        <ele>3748.800048828125</ele>
        <time>2026-01-06T17:20:23.000Z</time>
        <extensions>
          <ns3:TrackPointExtension>
            <ns3:hr>108</ns3:hr>
            <ns3:cad>63</ns3:cad>
          </ns3:TrackPointExtension>
        </extensions>
      </trkpt>
      <trkpt lat="37.9448402859270572662353515625" lon="-107.11644080467522144317626953125">
        <ele>3748.800048828125</ele>
        <time>2026-01-06T17:20:27.000Z</time>
        <extensions>
          <ns3:TrackPointExtension>
            <ns3:hr>108</ns3:hr>
            <ns3:cad>50</ns3:cad>
          </ns3:TrackPointExtension>
        </extensions>
      </trkpt>
      <trkpt lat="37.9448466561734676361083984375" lon="-107.1164224483072757720947265625">
        <ele>3749</ele>
        <time>2026-01-06T17:20:29.000Z</time>
        <extensions>
          <ns3:TrackPointExtension>
            <ns3:hr>109</ns3:hr>
            <ns3:cad>50</ns3:cad>
          </ns3:TrackPointExtension>
        </extensions>
      </trkpt>
      <trkpt lat="37.94487674720585346221923828125" lon="-107.11636788211762905120849609375">
        <ele>3749.60009765625</ele>
        <time>2026-01-06T17:20:35.000Z</time>
        <extensions>
          <ns3:TrackPointExtension>
            <ns3:hr>110</ns3:hr>
            <ns3:cad>0</ns3:cad>
          </ns3:TrackPointExtension>
        </extensions>
      </trkpt>
      <trkpt lat="37.9448878951370716094970703125" lon="-107.11635564453899860382080078125">
        <ele>3749.60009765625</ele>
        <time>2026-01-06T17:20:36.000Z</time>
        <extensions>
          <ns3:TrackPointExtension>
            <ns3:hr>111</ns3:hr>
            <ns3:cad>0</ns3:cad>
          </ns3:TrackPointExtension>
        </extensions>
      </trkpt>
      <trkpt lat="37.9448969475924968719482421875" lon="-107.11632329039275646209716796875">
        <ele>3749.800048828125</ele>
        <time>2026-01-06T17:20:40.000Z</time>
        <extensions>
          <ns3:TrackPointExtension>
            <ns3:hr>112</ns3:hr>
            <ns3:cad>0</ns3:cad>
          </ns3:TrackPointExtension>
        </extensions>
      </trkpt>
      <trkpt lat="37.9449076764285564422607421875" lon="-107.11630049161612987518310546875">
        <ele>3750</ele>
        <time>2026-01-06T17:20:42.000Z</time>
        <extensions>
          <ns3:TrackPointExtension>
            <ns3:hr>112</ns3:hr>
            <ns3:cad>0</ns3:cad>
          </ns3:TrackPointExtension>
        </extensions>
      </trkpt>
      <trkpt lat="37.9449210874736309051513671875" lon="-107.1162766031920909881591796875">
        <ele>3750.60009765625</ele>
        <time>2026-01-06T17:20:45.000Z</time>
        <extensions>
          <ns3:TrackPointExtension>
            <ns3:hr>113</ns3:hr>
            <ns3:cad>41</ns3:cad>
          </ns3:TrackPointExtension>
        </extensions>
      </trkpt>
      <trkpt lat="37.944935671985149383544921875" lon="-107.1162655390799045562744140625">
        <ele>3751</ele>
        <time>2026-01-06T17:20:47.000Z</time>
        <extensions>
          <ns3:TrackPointExtension>
            <ns3:hr>114</ns3:hr>
            <ns3:cad>0</ns3:cad>
          </ns3:TrackPointExtension>
        </extensions>
      </trkpt>
      <trkpt lat="37.94495218433439731597900390625" lon="-107.11624081246554851531982421875">
        <ele>3750.800048828125</ele>
        <time>2026-01-06T17:20:50.000Z</time>
        <extensions>
          <ns3:TrackPointExtension>
            <ns3:hr>116</ns3:hr>
            <ns3:cad>0</ns3:cad>
          </ns3:TrackPointExtension>
        </extensions>
      </trkpt>
      <trkpt lat="37.9449720494449138641357421875" lon="-107.11621147580444812774658203125">
        <ele>3750.800048828125</ele>
        <time>2026-01-06T17:20:56.000Z</time>
        <extensions>
          <ns3:TrackPointExtension>
            <ns3:hr>117</ns3:hr>
            <ns3:cad>0</ns3:cad>
          </ns3:TrackPointExtension>
        </extensions>
      </trkpt>
      <trkpt lat="37.944972217082977294921875" lon="-107.11621181108057498931884765625">
        <ele>3751</ele>
        <time>2026-01-06T17:21:02.000Z</time>
        <extensions>
          <ns3:TrackPointExtension>
            <ns3:hr>117</ns3:hr>
            <ns3:cad>0</ns3:cad>
          </ns3:TrackPointExtension>
        </extensions>
      </trkpt>
      <trkpt lat="37.94497380964457988739013671875" lon="-107.11620477028191089630126953125">
        <ele>3750.800048828125</ele>
        <time>2026-01-06T17:21:05.000Z</time>
        <extensions>
          <ns3:TrackPointExtension>
            <ns3:hr>118</ns3:hr>
            <ns3:cad>0</ns3:cad>
          </ns3:TrackPointExtension>
        </extensions>
      </trkpt>
      <trkpt lat="37.9449901543557643890380859375" lon="-107.1161694824695587158203125">
        <ele>3750.60009765625</ele>
        <time>2026-01-06T17:21:09.000Z</time>
        <extensions>
          <ns3:TrackPointExtension>
            <ns3:hr>115</ns3:hr>
            <ns3:cad>0</ns3:cad>
          </ns3:TrackPointExtension>
        </extensions>
      </trkpt>
      <trkpt lat="37.9449958540499210357666015625" lon="-107.1161616034805774688720703125">
        <ele>3751</ele>
        <time>2026-01-06T17:21:11.000Z</time>
        <extensions>
          <ns3:TrackPointExtension>
            <ns3:hr>114</ns3:hr>
            <ns3:cad>0</ns3:cad>
          </ns3:TrackPointExtension>
        </extensions>
      </trkpt>
      <trkpt lat="37.9450310580432415008544921875" lon="-107.11612447164952754974365234375">
        <ele>3751.39990234375</ele>
        <time>2026-01-06T17:21:17.000Z</time>
        <extensions>
          <ns3:TrackPointExtension>
            <ns3:hr>114</ns3:hr>
            <ns3:cad>0</ns3:cad>
          </ns3:TrackPointExtension>
        </extensions>
      </trkpt>
      <trkpt lat="37.9450716264545917510986328125" lon="-107.11609982885420322418212890625">
        <ele>3751.60009765625</ele>
        <time>2026-01-06T17:21:23.000Z</time>
        <extensions>
          <ns3:TrackPointExtension>
            <ns3:hr>114</ns3:hr>
            <ns3:cad>0</ns3:cad>
          </ns3:TrackPointExtension>
        </extensions>
      </trkpt>
      <trkpt lat="37.94507539831101894378662109375" lon="-107.11609773337841033935546875">
        <ele>3751.60009765625</ele>
        <time>2026-01-06T17:21:24.000Z</time>
        <extensions>
          <ns3:TrackPointExtension>
            <ns3:hr>114</ns3:hr>
            <ns3:cad>0</ns3:cad>
          </ns3:TrackPointExtension>
        </extensions>
      </trkpt>
      <trkpt lat="37.94510507024824619293212890625" lon="-107.11605875752866268157958984375">
        <ele>3751.199951171875</ele>
        <time>2026-01-06T17:21:30.000Z</time>
        <extensions>
          <ns3:TrackPointExtension>
            <ns3:hr>116</ns3:hr>
            <ns3:cad>0</ns3:cad>
          </ns3:TrackPointExtension>
        </extensions>
      </trkpt>
      <trkpt lat="37.945114038884639739990234375" lon="-107.1160482801496982574462890625">
        <ele>3751</ele>
        <time>2026-01-06T17:21:32.000Z</time>
        <extensions>
          <ns3:TrackPointExtension>
            <ns3:hr>115</ns3:hr>
            <ns3:cad>0</ns3:cad>
          </ns3:TrackPointExtension>
        </extensions>
      </trkpt>
      <trkpt lat="37.9451383464038372039794921875" lon="-107.11601634509861469268798828125">
        <ele>3750</ele>
        <time>2026-01-06T17:21:38.000Z</time>
        <extensions>
          <ns3:TrackPointExtension>
            <ns3:hr>115</ns3:hr>
            <ns3:cad>0</ns3:cad>
          </ns3:TrackPointExtension>
        </extensions>
      </trkpt>
      <trkpt lat="37.94513826258480548858642578125" lon="-107.116016261279582977294921875">
        <ele>3750</ele>
        <time>2026-01-06T17:21:39.000Z</time>
        <extensions>
          <ns3:TrackPointExtension>
            <ns3:hr>115</ns3:hr>
            <ns3:cad>0</ns3:cad>
          </ns3:TrackPointExtension>
        </extensions>
      </trkpt>
      <trkpt lat="37.94513826258480548858642578125" lon="-107.11601617746055126190185546875">
        <ele>3750</ele>
        <time>2026-01-06T17:21:40.000Z</time>
        <extensions>
          <ns3:TrackPointExtension>
            <ns3:hr>115</ns3:hr>
            <ns3:cad>0</ns3:cad>
          </ns3:TrackPointExtension>
        </extensions>
      </trkpt>
      <trkpt lat="37.94516022317111492156982421875" lon="-107.11598801426589488983154296875">
        <ele>3749.39990234375</ele>
        <time>2026-01-06T17:21:45.000Z</time>
        <extensions>
          <ns3:TrackPointExtension>
            <ns3:hr>115</ns3:hr>
            <ns3:cad>0</ns3:cad>
          </ns3:TrackPointExtension>
        </extensions>
      </trkpt>
      <trkpt lat="37.94518117792904376983642578125" lon="-107.11596135981380939483642578125">
        <ele>3749.199951171875</ele>
        <time>2026-01-06T17:21:49.000Z</time>
        <extensions>
          <ns3:TrackPointExtension>
            <ns3:hr>115</ns3:hr>
            <ns3:cad>62</ns3:cad>
          </ns3:TrackPointExtension>
        </extensions>
      </trkpt>
      <trkpt lat="37.9451976902782917022705078125" lon="-107.11594241671264171600341796875">
        <ele>3749</ele>
        <time>2026-01-06T17:21:53.000Z</time>
        <extensions>
          <ns3:TrackPointExtension>
            <ns3:hr>115</ns3:hr>
            <ns3:cad>0</ns3:cad>
          </ns3:TrackPointExtension>
        </extensions>
      </trkpt>
      <trkpt lat="37.94520263560116291046142578125" lon="-107.1159361302852630615234375">
        <ele>3748.800048828125</ele>
        <time>2026-01-06T17:21:55.000Z</time>
        <extensions>
          <ns3:TrackPointExtension>
            <ns3:hr>114</ns3:hr>
            <ns3:cad>62</ns3:cad>
          </ns3:TrackPointExtension>
        </extensions>
      </trkpt>
      <trkpt lat="37.945211939513683319091796875" lon="-107.115929760038852691650390625">
        <ele>3749.199951171875</ele>
        <time>2026-01-06T17:22:01.000Z</time>
        <extensions>
          <ns3:TrackPointExtension>
            <ns3:hr>113</ns3:hr>
            <ns3:cad>0</ns3:cad>
          </ns3:TrackPointExtension>
        </extensions>
      </trkpt>
      <trkpt lat="37.9452149569988250732421875" lon="-107.11592665873467922210693359375">
        <ele>3749.39990234375</ele>
        <time>2026-01-06T17:22:02.000Z</time>
        <extensions>
          <ns3:TrackPointExtension>
            <ns3:hr>113</ns3:hr>
            <ns3:cad>0</ns3:cad>
          </ns3:TrackPointExtension>
        </extensions>
      </trkpt>
      <trkpt lat="37.9452256858348846435546875" lon="-107.1159145049750804901123046875">
        <ele>3749.199951171875</ele>
        <time>2026-01-06T17:22:08.000Z</time>
        <extensions>
          <ns3:TrackPointExtension>
            <ns3:hr>113</ns3:hr>
            <ns3:cad>0</ns3:cad>
          </ns3:TrackPointExtension>
        </extensions>
      </trkpt>
      <trkpt lat="37.9452256858348846435546875" lon="-107.1159145049750804901123046875">
        <ele>3749.199951171875</ele>
        <time>2026-01-06T17:22:10.000Z</time>
        <extensions>
          <ns3:TrackPointExtension>
            <ns3:hr>113</ns3:hr>
            <ns3:cad>0</ns3:cad>
          </ns3:TrackPointExtension>
        </extensions>
      </trkpt>
      <trkpt lat="37.94524068944156169891357421875" lon="-107.11589581333100795745849609375">
        <ele>3749.39990234375</ele>
        <time>2026-01-06T17:22:16.000Z</time>
        <extensions>
          <ns3:TrackPointExtension>
            <ns3:hr>114</ns3:hr>
            <ns3:cad>0</ns3:cad>
          </ns3:TrackPointExtension>
        </extensions>
      </trkpt>
      <trkpt lat="37.94524571858346462249755859375" lon="-107.1158905327320098876953125">
        <ele>3749.60009765625</ele>
        <time>2026-01-06T17:22:17.000Z</time>
        <extensions>
          <ns3:TrackPointExtension>
            <ns3:hr>115</ns3:hr>
            <ns3:cad>0</ns3:cad>
          </ns3:TrackPointExtension>
        </extensions>
      </trkpt>
      <trkpt lat="37.945256195962429046630859375" lon="-107.1158762834966182708740234375">
        <ele>3750</ele>
        <time>2026-01-06T17:22:21.000Z</time>
        <extensions>
          <ns3:TrackPointExtension>
            <ns3:hr>116</ns3:hr>
            <ns3:cad>0</ns3:cad>
          </ns3:TrackPointExtension>
        </extensions>
      </trkpt>
      <trkpt lat="37.9452632367610931396484375" lon="-107.11586379446089267730712890625">
        <ele>3750.39990234375</ele>
        <time>2026-01-06T17:22:23.000Z</time>
        <extensions>
          <ns3:TrackPointExtension>
            <ns3:hr>116</ns3:hr>
            <ns3:cad>0</ns3:cad>
          </ns3:TrackPointExtension>
        </extensions>
      </trkpt>
      <trkpt lat="37.94528746046125888824462890625" lon="-107.115831859409809112548828125">
        <ele>3750.800048828125</ele>
        <time>2026-01-06T17:22:29.000Z</time>
        <extensions>
          <ns3:TrackPointExtension>
            <ns3:hr>115</ns3:hr>
            <ns3:cad>0</ns3:cad>
          </ns3:TrackPointExtension>
        </extensions>
      </trkpt>
      <trkpt lat="37.94529651291668415069580078125" lon="-107.1158256568014621734619140625">
        <ele>3750.800048828125</ele>
        <time>2026-01-06T17:22:34.000Z</time>
        <extensions>
          <ns3:TrackPointExtension>
            <ns3:hr>116</ns3:hr>
            <ns3:cad>19</ns3:cad>
          </ns3:TrackPointExtension>
        </extensions>
      </trkpt>
      <trkpt lat="37.94530145823955535888671875" lon="-107.1158189512789249420166015625">
        <ele>3751</ele>
        <time>2026-01-06T17:22:36.000Z</time>
        <extensions>
          <ns3:TrackPointExtension>
            <ns3:hr>118</ns3:hr>
            <ns3:cad>0</ns3:cad>
          </ns3:TrackPointExtension>
        </extensions>
      </trkpt>
      <trkpt lat="37.945310175418853759765625" lon="-107.11580797098577022552490234375">
        <ele>3751.39990234375</ele>
        <time>2026-01-06T17:22:40.000Z</time>
        <extensions>
          <ns3:TrackPointExtension>
            <ns3:hr>119</ns3:hr>
            <ns3:cad>0</ns3:cad>
          </ns3:TrackPointExtension>
        </extensions>
      </trkpt>
      <trkpt lat="37.9453261010348796844482421875" lon="-107.1157907880842685699462890625">
        <ele>3751.39990234375</ele>
        <time>2026-01-06T17:22:46.000Z</time>
        <extensions>
          <ns3:TrackPointExtension>
            <ns3:hr>119</ns3:hr>
            <ns3:cad>48</ns3:cad>
          </ns3:TrackPointExtension>
        </extensions>
      </trkpt>
      <trkpt lat="37.94534110464155673980712890625" lon="-107.11577544920146465301513671875">
        <ele>3751.60009765625</ele>
        <time>2026-01-06T17:22:52.000Z</time>
        <extensions>
          <ns3:TrackPointExtension>
            <ns3:hr>119</ns3:hr>
            <ns3:cad>47</ns3:cad>
          </ns3:TrackPointExtension>
        </extensions>
      </trkpt>
      <trkpt lat="37.94533758424222469329833984375" lon="-107.1157793886959552764892578125">
        <ele>3751.60009765625</ele>
        <time>2026-01-06T17:22:53.000Z</time>
        <extensions>
          <ns3:TrackPointExtension>
            <ns3:hr>119</ns3:hr>
            <ns3:cad>0</ns3:cad>
          </ns3:TrackPointExtension>
        </extensions>
      </trkpt>
      <trkpt lat="37.94536449015140533447265625" lon="-107.11574862711131572723388671875">
        <ele>3751.800048828125</ele>
        <time>2026-01-06T17:22:59.000Z</time>
        <extensions>
          <ns3:TrackPointExtension>
            <ns3:hr>118</ns3:hr>
            <ns3:cad>0</ns3:cad>
          </ns3:TrackPointExtension>
        </extensions>
      </trkpt>
      <trkpt lat="37.9453800804913043975830078125" lon="-107.115729935467243194580078125">
        <ele>3752.199951171875</ele>
        <time>2026-01-06T17:23:02.000Z</time>
        <extensions>
          <ns3:TrackPointExtension>
            <ns3:hr>118</ns3:hr>
            <ns3:cad>0</ns3:cad>
          </ns3:TrackPointExtension>
        </extensions>
      </trkpt>
      <trkpt lat="37.94539458118379116058349609375" lon="-107.11571308784186840057373046875">
        <ele>3752.39990234375</ele>
        <time>2026-01-06T17:23:05.000Z</time>
        <extensions>
          <ns3:TrackPointExtension>
            <ns3:hr>118</ns3:hr>
            <ns3:cad>0</ns3:cad>
          </ns3:TrackPointExtension>
        </extensions>
      </trkpt>
      <trkpt lat="37.94541436247527599334716796875" lon="-107.11568475700914859771728515625">
        <ele>3752.800048828125</ele>
        <time>2026-01-06T17:23:11.000Z</time>
        <extensions>
          <ns3:TrackPointExtension>
            <ns3:hr>117</ns3:hr>
            <ns3:cad>0</ns3:cad>
          </ns3:TrackPointExtension>
        </extensions>
      </trkpt>
      <trkpt lat="37.945433892309665679931640625" lon="-107.11565743200480937957763671875">
        <ele>3753</ele>
        <time>2026-01-06T17:23:17.000Z</time>
        <extensions>
          <ns3:TrackPointExtension>
            <ns3:hr>117</ns3:hr>
            <ns3:cad>0</ns3:cad>
          </ns3:TrackPointExtension>
        </extensions>
      </trkpt>
      <trkpt lat="37.945443950593471527099609375" lon="-107.1156472899019718170166015625">
        <ele>3753.199951171875</ele>
        <time>2026-01-06T17:23:19.000Z</time>
        <extensions>
          <ns3:TrackPointExtension>
            <ns3:hr>117</ns3:hr>
            <ns3:cad>0</ns3:cad>
          </ns3:TrackPointExtension>
        </extensions>
      </trkpt>
      <trkpt lat="37.94545660726726055145263671875" lon="-107.11563312448561191558837890625">
        <ele>3753.199951171875</ele>
        <time>2026-01-06T17:23:22.000Z</time>
        <extensions>
          <ns3:TrackPointExtension>
            <ns3:hr>117</ns3:hr>
            <ns3:cad>0</ns3:cad>
          </ns3:TrackPointExtension>
        </extensions>
      </trkpt>
      <trkpt lat="37.94547253288328647613525390625" lon="-107.11561233736574649810791015625">
        <ele>3753.39990234375</ele>
        <time>2026-01-06T17:23:28.000Z</time>
        <extensions>
          <ns3:TrackPointExtension>
            <ns3:hr>114</ns3:hr>
            <ns3:cad>0</ns3:cad>
          </ns3:TrackPointExtension>
        </extensions>
      </trkpt>
      <trkpt lat="37.94547982513904571533203125" lon="-107.11560563184320926666259765625">
        <ele>3753.60009765625</ele>
        <time>2026-01-06T17:23:29.000Z</time>
        <extensions>
          <ns3:TrackPointExtension>
            <ns3:hr>113</ns3:hr>
            <ns3:cad>0</ns3:cad>
          </ns3:TrackPointExtension>
        </extensions>
      </trkpt>
      <trkpt lat="37.94550304301083087921142578125" lon="-107.1155691705644130706787109375">
        <ele>3753.800048828125</ele>
        <time>2026-01-06T17:23:35.000Z</time>
        <extensions>
          <ns3:TrackPointExtension>
            <ns3:hr>114</ns3:hr>
            <ns3:cad>0</ns3:cad>
          </ns3:TrackPointExtension>
        </extensions>
      </trkpt>
      <trkpt lat="37.9455098323523998260498046875" lon="-107.1155606210231781005859375">
        <ele>3754.199951171875</ele>
        <time>2026-01-06T17:23:38.000Z</time>
        <extensions>
          <ns3:TrackPointExtension>
            <ns3:hr>115</ns3:hr>
            <ns3:cad>0</ns3:cad>
          </ns3:TrackPointExtension>
        </extensions>
      </trkpt>
      <trkpt lat="37.94552064500749111175537109375" lon="-107.11554176174104213714599609375">
        <ele>3754.199951171875</ele>
        <time>2026-01-06T17:23:40.000Z</time>
        <extensions>
          <ns3:TrackPointExtension>
            <ns3:hr>115</ns3:hr>
            <ns3:cad>0</ns3:cad>
          </ns3:TrackPointExtension>
        </extensions>
      </trkpt>
      <trkpt lat="37.94553807936608791351318359375" lon="-107.1155081503093242645263671875">
        <ele>3754.39990234375</ele>
        <time>2026-01-06T17:23:46.000Z</time>
        <extensions>
          <ns3:TrackPointExtension>
            <ns3:hr>114</ns3:hr>
            <ns3:cad>0</ns3:cad>
          </ns3:TrackPointExtension>
        </extensions>
      </trkpt>
      <trkpt lat="37.94554176740348339080810546875" lon="-107.115505300462245941162109375">
        <ele>3754.39990234375</ele>
        <time>2026-01-06T17:23:47.000Z</time>
        <extensions>
          <ns3:TrackPointExtension>
            <ns3:hr>114</ns3:hr>
            <ns3:cad>0</ns3:cad>
          </ns3:TrackPointExtension>
        </extensions>
      </trkpt>
      <trkpt lat="37.9455644823610782623291015625" lon="-107.1154813282191753387451171875">
        <ele>3754.60009765625</ele>
        <time>2026-01-06T17:23:53.000Z</time>
        <extensions>
          <ns3:TrackPointExtension>
            <ns3:hr>112</ns3:hr>
            <ns3:cad>0</ns3:cad>
          </ns3:TrackPointExtension>
        </extensions>
      </trkpt>
      <trkpt lat="37.94558837078511714935302734375" lon="-107.1154586970806121826171875">
        <ele>3754.800048828125</ele>
        <time>2026-01-06T17:23:59.000Z</time>
        <extensions>
          <ns3:TrackPointExtension>
            <ns3:hr>112</ns3:hr>
            <ns3:cad>0</ns3:cad>
          </ns3:TrackPointExtension>
        </extensions>
      </trkpt>
      <trkpt lat="37.9455904662609100341796875" lon="-107.1154571883380413055419921875">
        <ele>3754.800048828125</ele>
        <time>2026-01-06T17:24:00.000Z</time>
        <extensions>
          <ns3:TrackPointExtension>
            <ns3:hr>112</ns3:hr>
            <ns3:cad>0</ns3:cad>
          </ns3:TrackPointExtension>
        </extensions>
      </trkpt>
      <trkpt lat="37.94559356756508350372314453125" lon="-107.11545073427259922027587890625">
        <ele>3754.800048828125</ele>
        <time>2026-01-06T17:24:06.000Z</time>
        <extensions>
          <ns3:TrackPointExtension>
            <ns3:hr>112</ns3:hr>
            <ns3:cad>0</ns3:cad>
          </ns3:TrackPointExtension>
        </extensions>
      </trkpt>
      <trkpt lat="37.94559356756508350372314453125" lon="-107.11545073427259922027587890625">
        <ele>3754.800048828125</ele>
        <time>2026-01-06T17:24:09.000Z</time>
        <extensions>
          <ns3:TrackPointExtension>
            <ns3:hr>118</ns3:hr>
            <ns3:cad>0</ns3:cad>
          </ns3:TrackPointExtension>
        </extensions>
      </trkpt>
      <trkpt lat="37.94559356756508350372314453125" lon="-107.11545073427259922027587890625">
        <ele>3754.800048828125</ele>
        <time>2026-01-06T17:24:10.000Z</time>
        <extensions>
          <ns3:TrackPointExtension>
            <ns3:hr>123</ns3:hr>
            <ns3:cad>0</ns3:cad>
          </ns3:TrackPointExtension>
        </extensions>
      </trkpt>
      <trkpt lat="37.94559356756508350372314453125" lon="-107.11545073427259922027587890625">
        <ele>3754.800048828125</ele>
        <time>2026-01-06T17:24:11.000Z</time>
        <extensions>
          <ns3:TrackPointExtension>
            <ns3:hr>123</ns3:hr>
            <ns3:cad>0</ns3:cad>
          </ns3:TrackPointExtension>
        </extensions>
      </trkpt>
      <trkpt lat="37.94559356756508350372314453125" lon="-107.11545073427259922027587890625">
        <ele>3754.800048828125</ele>
        <time>2026-01-06T17:24:15.000Z</time>
        <extensions>
          <ns3:TrackPointExtension>
            <ns3:hr>123</ns3:hr>
            <ns3:cad>0</ns3:cad>
          </ns3:TrackPointExtension>
        </extensions>
      </trkpt>
      <trkpt lat="37.94559356756508350372314453125" lon="-107.11545073427259922027587890625">
        <ele>3754.60009765625</ele>
        <time>2026-01-06T17:24:20.000Z</time>
        <extensions>
          <ns3:TrackPointExtension>
            <ns3:hr>127</ns3:hr>
            <ns3:cad>0</ns3:cad>
          </ns3:TrackPointExtension>
        </extensions>
      </trkpt>
      <trkpt lat="37.94559356756508350372314453125" lon="-107.11545073427259922027587890625">
        <ele>3754.39990234375</ele>
        <time>2026-01-06T17:24:24.000Z</time>
        <extensions>
          <ns3:TrackPointExtension>
            <ns3:hr>129</ns3:hr>
            <ns3:cad>0</ns3:cad>
          </ns3:TrackPointExtension>
        </extensions>
      </trkpt>
      <trkpt lat="37.94559356756508350372314453125" lon="-107.11545073427259922027587890625">
        <ele>3754.800048828125</ele>
        <time>2026-01-06T17:24:29.000Z</time>
        <extensions>
          <ns3:TrackPointExtension>
            <ns3:hr>121</ns3:hr>
            <ns3:cad>0</ns3:cad>
          </ns3:TrackPointExtension>
        </extensions>
      </trkpt>
      <trkpt lat="37.94559356756508350372314453125" lon="-107.11545073427259922027587890625">
        <ele>3754.800048828125</ele>
        <time>2026-01-06T17:24:31.000Z</time>
        <extensions>
          <ns3:TrackPointExtension>
            <ns3:hr>118</ns3:hr>
            <ns3:cad>0</ns3:cad>
          </ns3:TrackPointExtension>
        </extensions>
      </trkpt>
      <trkpt lat="37.94561033137142658233642578125" lon="-107.11543950252234935760498046875">
        <ele>3754.800048828125</ele>
        <time>2026-01-06T17:24:36.000Z</time>
        <extensions>
          <ns3:TrackPointExtension>
            <ns3:hr>118</ns3:hr>
            <ns3:cad>0</ns3:cad>
          </ns3:TrackPointExtension>
        </extensions>
      </trkpt>
      <trkpt lat="37.94562592171132564544677734375" lon="-107.1154260076582431793212890625">
        <ele>3755.199951171875</ele>
        <time>2026-01-06T17:24:40.000Z</time>
        <extensions>
          <ns3:TrackPointExtension>
            <ns3:hr>116</ns3:hr>
            <ns3:cad>0</ns3:cad>
          </ns3:TrackPointExtension>
        </extensions>
      </trkpt>
      <trkpt lat="37.945632375776767730712890625" lon="-107.11541519500315189361572265625">
        <ele>3755.39990234375</ele>
        <time>2026-01-06T17:24:42.000Z</time>
        <extensions>
          <ns3:TrackPointExtension>
            <ns3:hr>116</ns3:hr>
            <ns3:cad>0</ns3:cad>
          </ns3:TrackPointExtension>
        </extensions>
      </trkpt>
      <trkpt lat="37.94565592892467975616455078125" lon="-107.11538870818912982940673828125">
        <ele>3755.60009765625</ele>
        <time>2026-01-06T17:24:48.000Z</time>
        <extensions>
          <ns3:TrackPointExtension>
            <ns3:hr>115</ns3:hr>
            <ns3:cad>0</ns3:cad>
          </ns3:TrackPointExtension>
        </extensions>
      </trkpt>
      <trkpt lat="37.9456600360572338104248046875" lon="-107.1153827570378780364990234375">
        <ele>3755.800048828125</ele>
        <time>2026-01-06T17:24:49.000Z</time>
        <extensions>
          <ns3:TrackPointExtension>
            <ns3:hr>114</ns3:hr>
            <ns3:cad>0</ns3:cad>
          </ns3:TrackPointExtension>
        </extensions>
      </trkpt>
      <trkpt lat="37.9456751234829425811767578125" lon="-107.11535467766225337982177734375">
        <ele>3756</ele>
        <time>2026-01-06T17:24:55.000Z</time>
        <extensions>
          <ns3:TrackPointExtension>
            <ns3:hr>112</ns3:hr>
            <ns3:cad>0</ns3:cad>
          </ns3:TrackPointExtension>
        </extensions>
      </trkpt>
      <trkpt lat="37.94568107463419437408447265625" lon="-107.115342356264591217041015625">
        <ele>3756.199951171875</ele>
        <time>2026-01-06T17:24:57.000Z</time>
        <extensions>
          <ns3:TrackPointExtension>
            <ns3:hr>113</ns3:hr>
            <ns3:cad>0</ns3:cad>
          </ns3:TrackPointExtension>
        </extensions>
      </trkpt>
      <trkpt lat="37.9456932283937931060791015625" lon="-107.11532383225858211517333984375">
        <ele>3756.39990234375</ele>
        <time>2026-01-06T17:25:01.000Z</time>
        <extensions>
          <ns3:TrackPointExtension>
            <ns3:hr>114</ns3:hr>
            <ns3:cad>0</ns3:cad>
          </ns3:TrackPointExtension>
        </extensions>
      </trkpt>
      <trkpt lat="37.945716194808483123779296875" lon="-107.11529918946325778961181640625">
        <ele>3757.199951171875</ele>
        <time>2026-01-06T17:25:07.000Z</time>
        <extensions>
          <ns3:TrackPointExtension>
            <ns3:hr>116</ns3:hr>
            <ns3:cad>0</ns3:cad>
          </ns3:TrackPointExtension>
        </extensions>
      </trkpt>
      <trkpt lat="37.945718877017498016357421875" lon="-107.11529533378779888153076171875">
        <ele>3757.199951171875</ele>
        <time>2026-01-06T17:25:08.000Z</time>
        <extensions>
          <ns3:TrackPointExtension>
            <ns3:hr>116</ns3:hr>
            <ns3:cad>0</ns3:cad>
          </ns3:TrackPointExtension>
        </extensions>
      </trkpt>
      <trkpt lat="37.9457398317754268646240234375" lon="-107.1152617223560810089111328125">
        <ele>3758.199951171875</ele>
        <time>2026-01-06T17:25:13.000Z</time>
        <extensions>
          <ns3:TrackPointExtension>
            <ns3:hr>119</ns3:hr>
            <ns3:cad>0</ns3:cad>
          </ns3:TrackPointExtension>
        </extensions>
      </trkpt>
      <trkpt lat="37.9457468725740909576416015625" lon="-107.1152503229677677154541015625">
        <ele>3758.39990234375</ele>
        <time>2026-01-06T17:25:14.000Z</time>
        <extensions>
          <ns3:TrackPointExtension>
            <ns3:hr>119</ns3:hr>
            <ns3:cad>0</ns3:cad>
          </ns3:TrackPointExtension>
        </extensions>
      </trkpt>
      <trkpt lat="37.94575584121048450469970703125" lon="-107.11523230187594890594482421875">
        <ele>3758.39990234375</ele>
        <time>2026-01-06T17:25:17.000Z</time>
        <extensions>
          <ns3:TrackPointExtension>
            <ns3:hr>122</ns3:hr>
            <ns3:cad>19</ns3:cad>
          </ns3:TrackPointExtension>
        </extensions>
      </trkpt>
      <trkpt lat="37.9457589425146579742431640625" lon="-107.1152265183627605438232421875">
        <ele>3758.39990234375</ele>
        <time>2026-01-06T17:25:18.000Z</time>
        <extensions>
          <ns3:TrackPointExtension>
            <ns3:hr>122</ns3:hr>
            <ns3:cad>0</ns3:cad>
          </ns3:TrackPointExtension>
        </extensions>
      </trkpt>
      <trkpt lat="37.9457666538655757904052734375" lon="-107.11520967073738574981689453125">
        <ele>3758.800048828125</ele>
        <time>2026-01-06T17:25:20.000Z</time>
        <extensions>
          <ns3:TrackPointExtension>
            <ns3:hr>125</ns3:hr>
            <ns3:cad>0</ns3:cad>
          </ns3:TrackPointExtension>
        </extensions>
      </trkpt>
      <trkpt lat="37.94577662833034992218017578125" lon="-107.115194834768772125244140625">
        <ele>3758.800048828125</ele>
        <time>2026-01-06T17:25:22.000Z</time>
        <extensions>
          <ns3:TrackPointExtension>
            <ns3:hr>128</ns3:hr>
            <ns3:cad>0</ns3:cad>
          </ns3:TrackPointExtension>
        </extensions>
      </trkpt>
      <trkpt lat="37.9457807354629039764404296875" lon="-107.1151879616081714630126953125">
        <ele>3758.800048828125</ele>
        <time>2026-01-06T17:25:23.000Z</time>
        <extensions>
          <ns3:TrackPointExtension>
            <ns3:hr>129</ns3:hr>
            <ns3:cad>0</ns3:cad>
          </ns3:TrackPointExtension>
        </extensions>
      </trkpt>
      <trkpt lat="37.94579900801181793212890625" lon="-107.1151597984135150909423828125">
        <ele>3758.800048828125</ele>
        <time>2026-01-06T17:25:29.000Z</time>
        <extensions>
          <ns3:TrackPointExtension>
            <ns3:hr>131</ns3:hr>
            <ns3:cad>0</ns3:cad>
          </ns3:TrackPointExtension>
        </extensions>
      </trkpt>
      <trkpt lat="37.9458068870007991790771484375" lon="-107.11514160968363285064697265625">
        <ele>3759.39990234375</ele>
        <time>2026-01-06T17:25:33.000Z</time>
        <extensions>
          <ns3:TrackPointExtension>
            <ns3:hr>131</ns3:hr>
            <ns3:cad>0</ns3:cad>
          </ns3:TrackPointExtension>
        </extensions>
      </trkpt>
      <trkpt lat="37.94581552036106586456298828125" lon="-107.11512384004890918731689453125">
        <ele>3759.800048828125</ele>
        <time>2026-01-06T17:25:36.000Z</time>
        <extensions>
          <ns3:TrackPointExtension>
            <ns3:hr>129</ns3:hr>
            <ns3:cad>72</ns3:cad>
          </ns3:TrackPointExtension>
        </extensions>
      </trkpt>
      <trkpt lat="37.94583211652934551239013671875" lon="-107.115080170333385467529296875">
        <ele>3760.199951171875</ele>
        <time>2026-01-06T17:25:42.000Z</time>
        <extensions>
          <ns3:TrackPointExtension>
            <ns3:hr>126</ns3:hr>
            <ns3:cad>0</ns3:cad>
          </ns3:TrackPointExtension>
        </extensions>
      </trkpt>
      <trkpt lat="37.94583898968994617462158203125" lon="-107.1150679327547550201416015625">
        <ele>3760.39990234375</ele>
        <time>2026-01-06T17:25:44.000Z</time>
        <extensions>
          <ns3:TrackPointExtension>
            <ns3:hr>126</ns3:hr>
            <ns3:cad>0</ns3:cad>
          </ns3:TrackPointExtension>
        </extensions>
      </trkpt>
      <trkpt lat="37.945845611393451690673828125" lon="-107.1150536835193634033203125">
        <ele>3761</ele>
        <time>2026-01-06T17:25:46.000Z</time>
        <extensions>
          <ns3:TrackPointExtension>
            <ns3:hr>125</ns3:hr>
            <ns3:cad>0</ns3:cad>
          </ns3:TrackPointExtension>
        </extensions>
      </trkpt>
      <trkpt lat="37.94586111791431903839111328125" lon="-107.1150196529924869537353515625">
        <ele>3761.199951171875</ele>
        <time>2026-01-06T17:25:52.000Z</time>
        <extensions>
          <ns3:TrackPointExtension>
            <ns3:hr>124</ns3:hr>
            <ns3:cad>0</ns3:cad>
          </ns3:TrackPointExtension>
        </extensions>
      </trkpt>
      <trkpt lat="37.94588081538677215576171875" lon="-107.11498604156076908111572265625">
        <ele>3761.60009765625</ele>
        <time>2026-01-06T17:25:57.000Z</time>
        <extensions>
          <ns3:TrackPointExtension>
            <ns3:hr>124</ns3:hr>
            <ns3:cad>0</ns3:cad>
          </ns3:TrackPointExtension>
        </extensions>
      </trkpt>
      <trkpt lat="37.945883162319660186767578125" lon="-107.1149764023721218109130859375">
        <ele>3761.60009765625</ele>
        <time>2026-01-06T17:25:58.000Z</time>
        <extensions>
          <ns3:TrackPointExtension>
            <ns3:hr>124</ns3:hr>
            <ns3:cad>0</ns3:cad>
          </ns3:TrackPointExtension>
        </extensions>
      </trkpt>
      <trkpt lat="37.945895902812480926513671875" lon="-107.11494111455976963043212890625">
        <ele>3762</ele>
        <time>2026-01-06T17:26:03.000Z</time>
        <extensions>
          <ns3:TrackPointExtension>
            <ns3:hr>121</ns3:hr>
            <ns3:cad>0</ns3:cad>
          </ns3:TrackPointExtension>
        </extensions>
      </trkpt>
      <trkpt lat="37.9459044523537158966064453125" lon="-107.1149287931621074676513671875">
        <ele>3762</ele>
        <time>2026-01-06T17:26:05.000Z</time>
        <extensions>
          <ns3:TrackPointExtension>
            <ns3:hr>119</ns3:hr>
            <ns3:cad>0</ns3:cad>
          </ns3:TrackPointExtension>
        </extensions>
      </trkpt>
      <trkpt lat="37.94592532329261302947998046875" lon="-107.11488998495042324066162109375">
        <ele>3762.39990234375</ele>
        <time>2026-01-06T17:26:11.000Z</time>
        <extensions>
          <ns3:TrackPointExtension>
            <ns3:hr>117</ns3:hr>
            <ns3:cad>0</ns3:cad>
          </ns3:TrackPointExtension>
        </extensions>
      </trkpt>
      <trkpt lat="37.94593705795705318450927734375" lon="-107.11486584506928920745849609375">
        <ele>3762.60009765625</ele>
        <time>2026-01-06T17:26:14.000Z</time>
        <extensions>
          <ns3:TrackPointExtension>
            <ns3:hr>117</ns3:hr>
            <ns3:cad>0</ns3:cad>
          </ns3:TrackPointExtension>
        </extensions>
      </trkpt>
      <trkpt lat="37.94594694860279560089111328125" lon="-107.114840447902679443359375">
        <ele>3762.60009765625</ele>
        <time>2026-01-06T17:26:17.000Z</time>
        <extensions>
          <ns3:TrackPointExtension>
            <ns3:hr>116</ns3:hr>
            <ns3:cad>0</ns3:cad>
          </ns3:TrackPointExtension>
        </extensions>
      </trkpt>
      <trkpt lat="37.9459654726088047027587890625" lon="-107.11479543708264827728271484375">
        <ele>3763.199951171875</ele>
        <time>2026-01-06T17:26:23.000Z</time>
        <extensions>
          <ns3:TrackPointExtension>
            <ns3:hr>116</ns3:hr>
            <ns3:cad>0</ns3:cad>
          </ns3:TrackPointExtension>
        </extensions>
      </trkpt>
      <trkpt lat="37.945991456508636474609375" lon="-107.11474749259650707244873046875">
        <ele>3763.39990234375</ele>
        <time>2026-01-06T17:26:29.000Z</time>
        <extensions>
          <ns3:TrackPointExtension>
            <ns3:hr>116</ns3:hr>
            <ns3:cad>79</ns3:cad>
          </ns3:TrackPointExtension>
        </extensions>
      </trkpt>
      <trkpt lat="37.9459969885647296905517578125" lon="-107.114736177027225494384765625">
        <ele>3763.39990234375</ele>
        <time>2026-01-06T17:26:31.000Z</time>
        <extensions>
          <ns3:TrackPointExtension>
            <ns3:hr>116</ns3:hr>
            <ns3:cad>79</ns3:cad>
          </ns3:TrackPointExtension>
        </extensions>
      </trkpt>
      <trkpt lat="37.9460207931697368621826171875" lon="-107.11470608599483966827392578125">
        <ele>3763.39990234375</ele>
        <time>2026-01-06T17:26:37.000Z</time>
        <extensions>
          <ns3:TrackPointExtension>
            <ns3:hr>116</ns3:hr>
            <ns3:cad>0</ns3:cad>
          </ns3:TrackPointExtension>
        </extensions>
      </trkpt>
      <trkpt lat="37.9460305161774158477783203125" lon="-107.11469225585460662841796875">
        <ele>3763.60009765625</ele>
        <time>2026-01-06T17:26:40.000Z</time>
        <extensions>
          <ns3:TrackPointExtension>
            <ns3:hr>119</ns3:hr>
            <ns3:cad>0</ns3:cad>
          </ns3:TrackPointExtension>
        </extensions>
      </trkpt>
      <trkpt lat="37.94604568742215633392333984375" lon="-107.11467021144926548004150390625">
        <ele>3763.800048828125</ele>
        <time>2026-01-06T17:26:44.000Z</time>
        <extensions>
          <ns3:TrackPointExtension>
            <ns3:hr>122</ns3:hr>
            <ns3:cad>66</ns3:cad>
          </ns3:TrackPointExtension>
        </extensions>
      </trkpt>
      <trkpt lat="37.946060858666896820068359375" lon="-107.11465076543390750885009765625">
        <ele>3764</ele>
        <time>2026-01-06T17:26:48.000Z</time>
        <extensions>
          <ns3:TrackPointExtension>
            <ns3:hr>123</ns3:hr>
            <ns3:cad>0</ns3:cad>
          </ns3:TrackPointExtension>
        </extensions>
      </trkpt>
      <trkpt lat="37.9460844956338405609130859375" lon="-107.11462092585861682891845703125">
        <ele>3764.199951171875</ele>
        <time>2026-01-06T17:26:54.000Z</time>
        <extensions>
          <ns3:TrackPointExtension>
            <ns3:hr>122</ns3:hr>
            <ns3:cad>0</ns3:cad>
          </ns3:TrackPointExtension>
        </extensions>
      </trkpt>
      <trkpt lat="37.94609027914702892303466796875" lon="-107.1146143041551113128662109375">
        <ele>3764.39990234375</ele>
        <time>2026-01-06T17:26:55.000Z</time>
        <extensions>
          <ns3:TrackPointExtension>
            <ns3:hr>122</ns3:hr>
            <ns3:cad>0</ns3:cad>
          </ns3:TrackPointExtension>
        </extensions>
      </trkpt>
      <trkpt lat="37.9461066238582134246826171875" lon="-107.1145878173410892486572265625">
        <ele>3764.60009765625</ele>
        <time>2026-01-06T17:27:00.000Z</time>
        <extensions>
          <ns3:TrackPointExtension>
            <ns3:hr>122</ns3:hr>
            <ns3:cad>66</ns3:cad>
          </ns3:TrackPointExtension>
        </extensions>
      </trkpt>
      <trkpt lat="37.946114502847194671630859375" lon="-107.11457557976245880126953125">
        <ele>3765</ele>
        <time>2026-01-06T17:27:02.000Z</time>
        <extensions>
          <ns3:TrackPointExtension>
            <ns3:hr>122</ns3:hr>
            <ns3:cad>0</ns3:cad>
          </ns3:TrackPointExtension>
        </extensions>
      </trkpt>
      <trkpt lat="37.94613705016672611236572265625" lon="-107.114537693560123443603515625">
        <ele>3765.39990234375</ele>
        <time>2026-01-06T17:27:08.000Z</time>
        <extensions>
          <ns3:TrackPointExtension>
            <ns3:hr>121</ns3:hr>
            <ns3:cad>65</ns3:cad>
          </ns3:TrackPointExtension>
        </extensions>
      </trkpt>
      <trkpt lat="37.94614878483116626739501953125" lon="-107.11452084593474864959716796875">
        <ele>3765.60009765625</ele>
        <time>2026-01-06T17:27:12.000Z</time>
        <extensions>
          <ns3:TrackPointExtension>
            <ns3:hr>122</ns3:hr>
            <ns3:cad>65</ns3:cad>
          </ns3:TrackPointExtension>
        </extensions>
      </trkpt>
      <trkpt lat="37.94615616090595722198486328125" lon="-107.1145113743841648101806640625">
        <ele>3765.800048828125</ele>
        <time>2026-01-06T17:27:14.000Z</time>
        <extensions>
          <ns3:TrackPointExtension>
            <ns3:hr>123</ns3:hr>
            <ns3:cad>0</ns3:cad>
          </ns3:TrackPointExtension>
        </extensions>
      </trkpt>
      <trkpt lat="37.946180216968059539794921875" lon="-107.11446787230670452117919921875">
        <ele>3766.199951171875</ele>
        <time>2026-01-06T17:27:20.000Z</time>
        <extensions>
          <ns3:TrackPointExtension>
            <ns3:hr>121</ns3:hr>
            <ns3:cad>55</ns3:cad>
          </ns3:TrackPointExtension>
        </extensions>
      </trkpt>
      <trkpt lat="37.94619186781346797943115234375" lon="-107.1144493483006954193115234375">
        <ele>3766.39990234375</ele>
        <time>2026-01-06T17:27:23.000Z</time>
        <extensions>
          <ns3:TrackPointExtension>
            <ns3:hr>121</ns3:hr>
            <ns3:cad>61</ns3:cad>
          </ns3:TrackPointExtension>
        </extensions>
      </trkpt>
      <trkpt lat="37.94620309956371784210205078125" lon="-107.1144272200763225555419921875">
        <ele>3766.60009765625</ele>
        <time>2026-01-06T17:27:26.000Z</time>
        <extensions>
          <ns3:TrackPointExtension>
            <ns3:hr>120</ns3:hr>
            <ns3:cad>62</ns3:cad>
          </ns3:TrackPointExtension>
        </extensions>
      </trkpt>
      <trkpt lat="37.94621215201914310455322265625" lon="-107.1144131384789943695068359375">
        <ele>3766.800048828125</ele>
        <time>2026-01-06T17:27:28.000Z</time>
        <extensions>
          <ns3:TrackPointExtension>
            <ns3:hr>120</ns3:hr>
            <ns3:cad>62</ns3:cad>
          </ns3:TrackPointExtension>
        </extensions>
      </trkpt>
      <trkpt lat="37.94623813591897487640380859375" lon="-107.11437382735311985015869140625">
        <ele>3766.60009765625</ele>
        <time>2026-01-06T17:27:34.000Z</time>
        <extensions>
          <ns3:TrackPointExtension>
            <ns3:hr>120</ns3:hr>
            <ns3:cad>65</ns3:cad>
          </ns3:TrackPointExtension>
        </extensions>
      </trkpt>
      <trkpt lat="37.94626294635236263275146484375" lon="-107.11434147320687770843505859375">
        <ele>3766.800048828125</ele>
        <time>2026-01-06T17:27:40.000Z</time>
        <extensions>
          <ns3:TrackPointExtension>
            <ns3:hr>121</ns3:hr>
            <ns3:cad>16</ns3:cad>
          </ns3:TrackPointExtension>
        </extensions>
      </trkpt>
      <trkpt lat="37.946268729865550994873046875" lon="-107.11433007381856441497802734375">
        <ele>3766.800048828125</ele>
        <time>2026-01-06T17:27:42.000Z</time>
        <extensions>
          <ns3:TrackPointExtension>
            <ns3:hr>121</ns3:hr>
            <ns3:cad>16</ns3:cad>
          </ns3:TrackPointExtension>
        </extensions>
      </trkpt>
      <trkpt lat="37.946298904716968536376953125" lon="-107.114294953644275665283203125">
        <ele>3767.199951171875</ele>
        <time>2026-01-06T17:27:48.000Z</time>
        <extensions>
          <ns3:TrackPointExtension>
            <ns3:hr>120</ns3:hr>
            <ns3:cad>0</ns3:cad>
          </ns3:TrackPointExtension>
        </extensions>
      </trkpt>
      <trkpt lat="37.94631960801780223846435546875" lon="-107.1142642758786678314208984375">
        <ele>3767.39990234375</ele>
        <time>2026-01-06T17:27:53.000Z</time>
        <extensions>
          <ns3:TrackPointExtension>
            <ns3:hr>120</ns3:hr>
            <ns3:cad>0</ns3:cad>
          </ns3:TrackPointExtension>
        </extensions>
      </trkpt>
      <trkpt lat="37.94633620418608188629150390625" lon="-107.11423401720821857452392578125">
        <ele>3767.800048828125</ele>
        <time>2026-01-06T17:27:58.000Z</time>
        <extensions>
          <ns3:TrackPointExtension>
            <ns3:hr>120</ns3:hr>
            <ns3:cad>0</ns3:cad>
          </ns3:TrackPointExtension>
        </extensions>
      </trkpt>
      <trkpt lat="37.94634039513766765594482421875" lon="-107.1142300777137279510498046875">
        <ele>3767.800048828125</ele>
        <time>2026-01-06T17:27:59.000Z</time>
        <extensions>
          <ns3:TrackPointExtension>
            <ns3:hr>120</ns3:hr>
            <ns3:cad>0</ns3:cad>
          </ns3:TrackPointExtension>
        </extensions>
      </trkpt>
      <trkpt lat="37.9463607631623744964599609375" lon="-107.11419914849102497100830078125">
        <ele>3768.39990234375</ele>
        <time>2026-01-06T17:28:05.000Z</time>
        <extensions>
          <ns3:TrackPointExtension>
            <ns3:hr>120</ns3:hr>
            <ns3:cad>61</ns3:cad>
          </ns3:TrackPointExtension>
        </extensions>
      </trkpt>
      <trkpt lat="37.94636202044785022735595703125" lon="-107.114194370806217193603515625">
        <ele>3768.39990234375</ele>
        <time>2026-01-06T17:28:06.000Z</time>
        <extensions>
          <ns3:TrackPointExtension>
            <ns3:hr>119</ns3:hr>
            <ns3:cad>61</ns3:cad>
          </ns3:TrackPointExtension>
        </extensions>
      </trkpt>
      <trkpt lat="37.94637995772063732147216796875" lon="-107.11416654288768768310546875">
        <ele>3768.60009765625</ele>
        <time>2026-01-06T17:28:11.000Z</time>
        <extensions>
          <ns3:TrackPointExtension>
            <ns3:hr>120</ns3:hr>
            <ns3:cad>0</ns3:cad>
          </ns3:TrackPointExtension>
        </extensions>
      </trkpt>
      <trkpt lat="37.94639957137405872344970703125" lon="-107.1141452528536319732666015625">
        <ele>3769</ele>
        <time>2026-01-06T17:28:17.000Z</time>
        <extensions>
          <ns3:TrackPointExtension>
            <ns3:hr>120</ns3:hr>
            <ns3:cad>0</ns3:cad>
          </ns3:TrackPointExtension>
        </extensions>
      </trkpt>
      <trkpt lat="37.94640719890594482421875" lon="-107.11414030753076076507568359375">
        <ele>3769.199951171875</ele>
        <time>2026-01-06T17:28:19.000Z</time>
        <extensions>
          <ns3:TrackPointExtension>
            <ns3:hr>121</ns3:hr>
            <ns3:cad>0</ns3:cad>
          </ns3:TrackPointExtension>
        </extensions>
      </trkpt>
      <trkpt lat="37.94642790220677852630615234375" lon="-107.11410887539386749267578125">
        <ele>3769.60009765625</ele>
        <time>2026-01-06T17:28:25.000Z</time>
        <extensions>
          <ns3:TrackPointExtension>
            <ns3:hr>123</ns3:hr>
            <ns3:cad>0</ns3:cad>
          </ns3:TrackPointExtension>
        </extensions>
      </trkpt>
      <trkpt lat="37.94645346701145172119140625" lon="-107.11408146657049655914306640625">
        <ele>3769.800048828125</ele>
        <time>2026-01-06T17:28:31.000Z</time>
        <extensions>
          <ns3:TrackPointExtension>
            <ns3:hr>121</ns3:hr>
            <ns3:cad>62</ns3:cad>
          </ns3:TrackPointExtension>
        </extensions>
      </trkpt>
      <trkpt lat="37.9464556463062763214111328125" lon="-107.11407945491373538970947265625">
        <ele>3769.800048828125</ele>
        <time>2026-01-06T17:28:32.000Z</time>
        <extensions>
          <ns3:TrackPointExtension>
            <ns3:hr>121</ns3:hr>
            <ns3:cad>62</ns3:cad>
          </ns3:TrackPointExtension>
        </extensions>
      </trkpt>
      <trkpt lat="37.94646277092397212982177734375" lon="-107.11406956426799297332763671875">
        <ele>3770</ele>
        <time>2026-01-06T17:28:34.000Z</time>
        <extensions>
          <ns3:TrackPointExtension>
            <ns3:hr>121</ns3:hr>
            <ns3:cad>62</ns3:cad>
          </ns3:TrackPointExtension>
        </extensions>
      </trkpt>
      <trkpt lat="37.94647215865552425384521484375" lon="-107.114047519862651824951171875">
        <ele>3770.60009765625</ele>
        <time>2026-01-06T17:28:38.000Z</time>
        <extensions>
          <ns3:TrackPointExtension>
            <ns3:hr>120</ns3:hr>
            <ns3:cad>0</ns3:cad>
          </ns3:TrackPointExtension>
        </extensions>
      </trkpt>
      <trkpt lat="37.94648724608123302459716796875" lon="-107.11401122622191905975341796875">
        <ele>3770.800048828125</ele>
        <time>2026-01-06T17:28:44.000Z</time>
        <extensions>
          <ns3:TrackPointExtension>
            <ns3:hr>120</ns3:hr>
            <ns3:cad>0</ns3:cad>
          </ns3:TrackPointExtension>
        </extensions>
      </trkpt>
      <trkpt lat="37.9464968852698802947998046875" lon="-107.11399043910205364227294921875">
        <ele>3771</ele>
        <time>2026-01-06T17:28:48.000Z</time>
        <extensions>
          <ns3:TrackPointExtension>
            <ns3:hr>119</ns3:hr>
            <ns3:cad>0</ns3:cad>
          </ns3:TrackPointExtension>
        </extensions>
      </trkpt>
      <trkpt lat="37.946507446467876434326171875" lon="-107.1139685623347759246826171875">
        <ele>3771.60009765625</ele>
        <time>2026-01-06T17:28:52.000Z</time>
        <extensions>
          <ns3:TrackPointExtension>
            <ns3:hr>120</ns3:hr>
            <ns3:cad>0</ns3:cad>
          </ns3:TrackPointExtension>
        </extensions>
      </trkpt>
      <trkpt lat="37.94652848504483699798583984375" lon="-107.113932184875011444091796875">
        <ele>3771.800048828125</ele>
        <time>2026-01-06T17:28:58.000Z</time>
        <extensions>
          <ns3:TrackPointExtension>
            <ns3:hr>121</ns3:hr>
            <ns3:cad>0</ns3:cad>
          </ns3:TrackPointExtension>
        </extensions>
      </trkpt>
      <trkpt lat="37.94653703458607196807861328125" lon="-107.113926149904727935791015625">
        <ele>3772</ele>
        <time>2026-01-06T17:29:00.000Z</time>
        <extensions>
          <ns3:TrackPointExtension>
            <ns3:hr>122</ns3:hr>
            <ns3:cad>0</ns3:cad>
          </ns3:TrackPointExtension>
        </extensions>
      </trkpt>
      <trkpt lat="37.94656201265752315521240234375" lon="-107.113902010023593902587890625">
        <ele>3772.199951171875</ele>
        <time>2026-01-06T17:29:05.000Z</time>
        <extensions>
          <ns3:TrackPointExtension>
            <ns3:hr>122</ns3:hr>
            <ns3:cad>0</ns3:cad>
          </ns3:TrackPointExtension>
        </extensions>
      </trkpt>
      <trkpt lat="37.946581877768039703369140625" lon="-107.11387912742793560028076171875">
        <ele>3772.60009765625</ele>
        <time>2026-01-06T17:29:10.000Z</time>
        <extensions>
          <ns3:TrackPointExtension>
            <ns3:hr>122</ns3:hr>
            <ns3:cad>0</ns3:cad>
          </ns3:TrackPointExtension>
        </extensions>
      </trkpt>
      <trkpt lat="37.94660744257271289825439453125" lon="-107.11384727619588375091552734375">
        <ele>3773.199951171875</ele>
        <time>2026-01-06T17:29:16.000Z</time>
        <extensions>
          <ns3:TrackPointExtension>
            <ns3:hr>124</ns3:hr>
            <ns3:cad>0</ns3:cad>
          </ns3:TrackPointExtension>
        </extensions>
      </trkpt>
      <trkpt lat="37.94663074426352977752685546875" lon="-107.11382028646767139434814453125">
        <ele>3773.800048828125</ele>
        <time>2026-01-06T17:29:22.000Z</time>
        <extensions>
          <ns3:TrackPointExtension>
            <ns3:hr>124</ns3:hr>
            <ns3:cad>0</ns3:cad>
          </ns3:TrackPointExtension>
        </extensions>
      </trkpt>
      <trkpt lat="37.9466470889747142791748046875" lon="-107.11379614658653736114501953125">
        <ele>3774</ele>
        <time>2026-01-06T17:29:28.000Z</time>
        <extensions>
          <ns3:TrackPointExtension>
            <ns3:hr>123</ns3:hr>
            <ns3:cad>0</ns3:cad>
          </ns3:TrackPointExtension>
        </extensions>
      </trkpt>
      <trkpt lat="37.94665404595434665679931640625" lon="-107.11378592066466808319091796875">
        <ele>3774.199951171875</ele>
        <time>2026-01-06T17:29:31.000Z</time>
        <extensions>
          <ns3:TrackPointExtension>
            <ns3:hr>123</ns3:hr>
            <ns3:cad>0</ns3:cad>
          </ns3:TrackPointExtension>
        </extensions>
      </trkpt>
      <trkpt lat="37.94666594825685024261474609375" lon="-107.1137680672109127044677734375">
        <ele>3775</ele>
        <time>2026-01-06T17:29:35.000Z</time>
        <extensions>
          <ns3:TrackPointExtension>
            <ns3:hr>122</ns3:hr>
            <ns3:cad>0</ns3:cad>
          </ns3:TrackPointExtension>
        </extensions>
      </trkpt>
      <trkpt lat="37.946672402322292327880859375" lon="-107.1137553267180919647216796875">
        <ele>3775.199951171875</ele>
        <time>2026-01-06T17:29:37.000Z</time>
        <extensions>
          <ns3:TrackPointExtension>
            <ns3:hr>123</ns3:hr>
            <ns3:cad>0</ns3:cad>
          </ns3:TrackPointExtension>
        </extensions>
      </trkpt>
      <trkpt lat="37.946688830852508544921875" lon="-107.1137325279414653778076171875">
        <ele>3775.39990234375</ele>
        <time>2026-01-06T17:29:42.000Z</time>
        <extensions>
          <ns3:TrackPointExtension>
            <ns3:hr>123</ns3:hr>
            <ns3:cad>0</ns3:cad>
          </ns3:TrackPointExtension>
        </extensions>
      </trkpt>
      <trkpt lat="37.94669494964182376861572265625" lon="-107.11371802724897861480712890625">
        <ele>3775.800048828125</ele>
        <time>2026-01-06T17:29:48.000Z</time>
        <extensions>
          <ns3:TrackPointExtension>
            <ns3:hr>123</ns3:hr>
            <ns3:cad>0</ns3:cad>
          </ns3:TrackPointExtension>
        </extensions>
      </trkpt>
      <trkpt lat="37.9467089474201202392578125" lon="-107.11370059289038181304931640625">
        <ele>3776.199951171875</ele>
        <time>2026-01-06T17:29:53.000Z</time>
        <extensions>
          <ns3:TrackPointExtension>
            <ns3:hr>123</ns3:hr>
            <ns3:cad>0</ns3:cad>
          </ns3:TrackPointExtension>
        </extensions>
      </trkpt>
      <trkpt lat="37.94671808369457721710205078125" lon="-107.1136889420449733734130859375">
        <ele>3776.39990234375</ele>
        <time>2026-01-06T17:29:55.000Z</time>
        <extensions>
          <ns3:TrackPointExtension>
            <ns3:hr>120</ns3:hr>
            <ns3:cad>0</ns3:cad>
          </ns3:TrackPointExtension>
        </extensions>
      </trkpt>
      <trkpt lat="37.94674121774733066558837890625" lon="-107.11366765201091766357421875">
        <ele>3776.800048828125</ele>
        <time>2026-01-06T17:30:00.000Z</time>
        <extensions>
          <ns3:TrackPointExtension>
            <ns3:hr>120</ns3:hr>
            <ns3:cad>47</ns3:cad>
          </ns3:TrackPointExtension>
        </extensions>
      </trkpt>
      <trkpt lat="37.9467577300965785980224609375" lon="-107.1136399917304515838623046875">
        <ele>3777</ele>
        <time>2026-01-06T17:30:05.000Z</time>
        <extensions>
          <ns3:TrackPointExtension>
            <ns3:hr>120</ns3:hr>
            <ns3:cad>0</ns3:cad>
          </ns3:TrackPointExtension>
        </extensions>
      </trkpt>
      <trkpt lat="37.946766279637813568115234375" lon="-107.1136309392750263214111328125">
        <ele>3777.199951171875</ele>
        <time>2026-01-06T17:30:10.000Z</time>
        <extensions>
          <ns3:TrackPointExtension>
            <ns3:hr>122</ns3:hr>
            <ns3:cad>0</ns3:cad>
          </ns3:TrackPointExtension>
        </extensions>
      </trkpt>
      <trkpt lat="37.9467694647610187530517578125" lon="-107.1136265806853771209716796875">
        <ele>3777.39990234375</ele>
        <time>2026-01-06T17:30:12.000Z</time>
        <extensions>
          <ns3:TrackPointExtension>
            <ns3:hr>122</ns3:hr>
            <ns3:cad>0</ns3:cad>
          </ns3:TrackPointExtension>
        </extensions>
      </trkpt>
      <trkpt lat="37.94679150916635990142822265625" lon="-107.1136041171848773956298828125">
        <ele>3778</ele>
        <time>2026-01-06T17:30:18.000Z</time>
        <extensions>
          <ns3:TrackPointExtension>
            <ns3:hr>122</ns3:hr>
            <ns3:cad>0</ns3:cad>
          </ns3:TrackPointExtension>
        </extensions>
      </trkpt>
      <trkpt lat="37.9468060098588466644287109375" lon="-107.1135846711695194244384765625">
        <ele>3777.800048828125</ele>
        <time>2026-01-06T17:30:24.000Z</time>
        <extensions>
          <ns3:TrackPointExtension>
            <ns3:hr>122</ns3:hr>
            <ns3:cad>0</ns3:cad>
          </ns3:TrackPointExtension>
        </extensions>
      </trkpt>
      <trkpt lat="37.9468060098588466644287109375" lon="-107.1135846711695194244384765625">
        <ele>3777.39990234375</ele>
        <time>2026-01-06T17:30:26.000Z</time>
        <extensions>
          <ns3:TrackPointExtension>
            <ns3:hr>122</ns3:hr>
            <ns3:cad>0</ns3:cad>
          </ns3:TrackPointExtension>
        </extensions>
      </trkpt>
      <trkpt lat="37.9468060098588466644287109375" lon="-107.1135846711695194244384765625">
        <ele>3777.199951171875</ele>
        <time>2026-01-06T17:30:31.000Z</time>
        <extensions>
          <ns3:TrackPointExtension>
            <ns3:hr>125</ns3:hr>
            <ns3:cad>0</ns3:cad>
          </ns3:TrackPointExtension>
        </extensions>
      </trkpt>
      <trkpt lat="37.9468060098588466644287109375" lon="-107.1135846711695194244384765625">
        <ele>3778</ele>
        <time>2026-01-06T17:30:37.000Z</time>
        <extensions>
          <ns3:TrackPointExtension>
            <ns3:hr>125</ns3:hr>
            <ns3:cad>0</ns3:cad>
          </ns3:TrackPointExtension>
        </extensions>
      </trkpt>
      <trkpt lat="37.9468060098588466644287109375" lon="-107.1135846711695194244384765625">
        <ele>3778</ele>
        <time>2026-01-06T17:30:38.000Z</time>
        <extensions>
          <ns3:TrackPointExtension>
            <ns3:hr>125</ns3:hr>
            <ns3:cad>0</ns3:cad>
          </ns3:TrackPointExtension>
        </extensions>
      </trkpt>
      <trkpt lat="37.9468060098588466644287109375" lon="-107.1135846711695194244384765625">
        <ele>3778</ele>
        <time>2026-01-06T17:30:44.000Z</time>
        <extensions>
          <ns3:TrackPointExtension>
            <ns3:hr>123</ns3:hr>
            <ns3:cad>0</ns3:cad>
          </ns3:TrackPointExtension>
        </extensions>
      </trkpt>
      <trkpt lat="37.9468060098588466644287109375" lon="-107.1135846711695194244384765625">
        <ele>3777.800048828125</ele>
        <time>2026-01-06T17:30:45.000Z</time>
        <extensions>
          <ns3:TrackPointExtension>
            <ns3:hr>120</ns3:hr>
            <ns3:cad>0</ns3:cad>
          </ns3:TrackPointExtension>
        </extensions>
      </trkpt>
      <trkpt lat="37.9468060098588466644287109375" lon="-107.1135846711695194244384765625">
        <ele>3777.800048828125</ele>
        <time>2026-01-06T17:30:51.000Z</time>
        <extensions>
          <ns3:TrackPointExtension>
            <ns3:hr>118</ns3:hr>
            <ns3:cad>0</ns3:cad>
          </ns3:TrackPointExtension>
        </extensions>
      </trkpt>
      <trkpt lat="37.94680927880108356475830078125" lon="-107.11357804946601390838623046875">
        <ele>3778.199951171875</ele>
        <time>2026-01-06T17:30:56.000Z</time>
        <extensions>
          <ns3:TrackPointExtension>
            <ns3:hr>116</ns3:hr>
            <ns3:cad>0</ns3:cad>
          </ns3:TrackPointExtension>
        </extensions>
      </trkpt>
      <trkpt lat="37.94681020081043243408203125" lon="-107.11357503198087215423583984375">
        <ele>3778.39990234375</ele>
        <time>2026-01-06T17:30:57.000Z</time>
        <extensions>
          <ns3:TrackPointExtension>
            <ns3:hr>116</ns3:hr>
            <ns3:cad>0</ns3:cad>
          </ns3:TrackPointExtension>
        </extensions>
      </trkpt>
      <trkpt lat="37.9468210972845554351806640625" lon="-107.11356078274548053741455078125">
        <ele>3779</ele>
        <time>2026-01-06T17:31:03.000Z</time>
        <extensions>
          <ns3:TrackPointExtension>
            <ns3:hr>116</ns3:hr>
            <ns3:cad>56</ns3:cad>
          </ns3:TrackPointExtension>
        </extensions>
      </trkpt>
      <trkpt lat="37.9468438960611820220947265625" lon="-107.1135357208549976348876953125">
        <ele>3779</ele>
        <time>2026-01-06T17:31:08.000Z</time>
        <extensions>
          <ns3:TrackPointExtension>
            <ns3:hr>116</ns3:hr>
            <ns3:cad>0</ns3:cad>
          </ns3:TrackPointExtension>
        </extensions>
      </trkpt>
      <trkpt lat="37.94684766791760921478271484375" lon="-107.11353010497987270355224609375">
        <ele>3779.199951171875</ele>
        <time>2026-01-06T17:31:14.000Z</time>
        <extensions>
          <ns3:TrackPointExtension>
            <ns3:hr>115</ns3:hr>
            <ns3:cad>0</ns3:cad>
          </ns3:TrackPointExtension>
        </extensions>
      </trkpt>
      <trkpt lat="37.94684766791760921478271484375" lon="-107.11353010497987270355224609375">
        <ele>3779.199951171875</ele>
        <time>2026-01-06T17:31:15.000Z</time>
        <extensions>
          <ns3:TrackPointExtension>
            <ns3:hr>115</ns3:hr>
            <ns3:cad>0</ns3:cad>
          </ns3:TrackPointExtension>
        </extensions>
      </trkpt>
      <trkpt lat="37.9468680359423160552978515625" lon="-107.113513089716434478759765625">
        <ele>3779.39990234375</ele>
        <time>2026-01-06T17:31:21.000Z</time>
        <extensions>
          <ns3:TrackPointExtension>
            <ns3:hr>115</ns3:hr>
            <ns3:cad>0</ns3:cad>
          </ns3:TrackPointExtension>
        </extensions>
      </trkpt>
      <trkpt lat="37.94687281362712383270263671875" lon="-107.11350931786000728607177734375">
        <ele>3779.39990234375</ele>
        <time>2026-01-06T17:31:22.000Z</time>
        <extensions>
          <ns3:TrackPointExtension>
            <ns3:hr>116</ns3:hr>
            <ns3:cad>0</ns3:cad>
          </ns3:TrackPointExtension>
        </extensions>
      </trkpt>
      <trkpt lat="37.94688002206385135650634765625" lon="-107.113501690328121185302734375">
        <ele>3779.60009765625</ele>
        <time>2026-01-06T17:31:23.000Z</time>
        <extensions>
          <ns3:TrackPointExtension>
            <ns3:hr>116</ns3:hr>
            <ns3:cad>0</ns3:cad>
          </ns3:TrackPointExtension>
        </extensions>
      </trkpt>
      <trkpt lat="37.9469008930027484893798828125" lon="-107.11348593235015869140625">
        <ele>3780</ele>
        <time>2026-01-06T17:31:29.000Z</time>
        <extensions>
          <ns3:TrackPointExtension>
            <ns3:hr>116</ns3:hr>
            <ns3:cad>0</ns3:cad>
          </ns3:TrackPointExtension>
        </extensions>
      </trkpt>
      <trkpt lat="37.94691774062812328338623046875" lon="-107.11347176693379878997802734375">
        <ele>3780.60009765625</ele>
        <time>2026-01-06T17:31:35.000Z</time>
        <extensions>
          <ns3:TrackPointExtension>
            <ns3:hr>116</ns3:hr>
            <ns3:cad>0</ns3:cad>
          </ns3:TrackPointExtension>
        </extensions>
      </trkpt>
      <trkpt lat="37.946924529969692230224609375" lon="-107.11346422322094440460205078125">
        <ele>3780.800048828125</ele>
        <time>2026-01-06T17:31:37.000Z</time>
        <extensions>
          <ns3:TrackPointExtension>
            <ns3:hr>115</ns3:hr>
            <ns3:cad>0</ns3:cad>
          </ns3:TrackPointExtension>
        </extensions>
      </trkpt>
      <trkpt lat="37.94694892130792140960693359375" lon="-107.1134408377110958099365234375">
        <ele>3781.199951171875</ele>
        <time>2026-01-06T17:31:43.000Z</time>
        <extensions>
          <ns3:TrackPointExtension>
            <ns3:hr>115</ns3:hr>
            <ns3:cad>0</ns3:cad>
          </ns3:TrackPointExtension>
        </extensions>
      </trkpt>
      <trkpt lat="37.94695504009723663330078125" lon="-107.1134381555020809173583984375">
        <ele>3781.199951171875</ele>
        <time>2026-01-06T17:31:44.000Z</time>
        <extensions>
          <ns3:TrackPointExtension>
            <ns3:hr>114</ns3:hr>
            <ns3:cad>0</ns3:cad>
          </ns3:TrackPointExtension>
        </extensions>
      </trkpt>
      <trkpt lat="37.9469622485339641571044921875" lon="-107.11343354545533657073974609375">
        <ele>3781.800048828125</ele>
        <time>2026-01-06T17:31:47.000Z</time>
        <extensions>
          <ns3:TrackPointExtension>
            <ns3:hr>115</ns3:hr>
            <ns3:cad>0</ns3:cad>
          </ns3:TrackPointExtension>
        </extensions>
      </trkpt>
      <trkpt lat="37.94696652330458164215087890625" lon="-107.11342683993279933929443359375">
        <ele>3781.800048828125</ele>
        <time>2026-01-06T17:31:49.000Z</time>
        <extensions>
          <ns3:TrackPointExtension>
            <ns3:hr>117</ns3:hr>
            <ns3:cad>0</ns3:cad>
          </ns3:TrackPointExtension>
        </extensions>
      </trkpt>
      <trkpt lat="37.94697708450257778167724609375" lon="-107.1134029515087604522705078125">
        <ele>3781.800048828125</ele>
        <time>2026-01-06T17:31:53.000Z</time>
        <extensions>
          <ns3:TrackPointExtension>
            <ns3:hr>120</ns3:hr>
            <ns3:cad>0</ns3:cad>
          </ns3:TrackPointExtension>
        </extensions>
      </trkpt>
      <trkpt lat="37.94698429293930530548095703125" lon="-107.11339515633881092071533203125">
        <ele>3782</ele>
        <time>2026-01-06T17:31:55.000Z</time>
        <extensions>
          <ns3:TrackPointExtension>
            <ns3:hr>121</ns3:hr>
            <ns3:cad>0</ns3:cad>
          </ns3:TrackPointExtension>
        </extensions>
      </trkpt>
      <trkpt lat="37.94699200429022312164306640625" lon="-107.113386690616607666015625">
        <ele>3782.39990234375</ele>
        <time>2026-01-06T17:32:01.000Z</time>
        <extensions>
          <ns3:TrackPointExtension>
            <ns3:hr>121</ns3:hr>
            <ns3:cad>0</ns3:cad>
          </ns3:TrackPointExtension>
        </extensions>
      </trkpt>
      <trkpt lat="37.9469986259937286376953125" lon="-107.113377638161182403564453125">
        <ele>3782.60009765625</ele>
        <time>2026-01-06T17:32:02.000Z</time>
        <extensions>
          <ns3:TrackPointExtension>
            <ns3:hr>122</ns3:hr>
            <ns3:cad>0</ns3:cad>
          </ns3:TrackPointExtension>
        </extensions>
      </trkpt>
      <trkpt lat="37.94701010920107364654541015625" lon="-107.113357521593570709228515625">
        <ele>3782.800048828125</ele>
        <time>2026-01-06T17:32:06.000Z</time>
        <extensions>
          <ns3:TrackPointExtension>
            <ns3:hr>123</ns3:hr>
            <ns3:cad>0</ns3:cad>
          </ns3:TrackPointExtension>
        </extensions>
      </trkpt>
      <trkpt lat="37.947024442255496978759765625" lon="-107.11334670893847942352294921875">
        <ele>3783</ele>
        <time>2026-01-06T17:32:09.000Z</time>
        <extensions>
          <ns3:TrackPointExtension>
            <ns3:hr>123</ns3:hr>
            <ns3:cad>0</ns3:cad>
          </ns3:TrackPointExtension>
        </extensions>
      </trkpt>
      <trkpt lat="37.94703776948153972625732421875" lon="-107.11332910694181919097900390625">
        <ele>3783.800048828125</ele>
        <time>2026-01-06T17:32:13.000Z</time>
        <extensions>
          <ns3:TrackPointExtension>
            <ns3:hr>122</ns3:hr>
            <ns3:cad>0</ns3:cad>
          </ns3:TrackPointExtension>
        </extensions>
      </trkpt>
      <trkpt lat="37.94704447500407695770263671875" lon="-107.113321311771869659423828125">
        <ele>3784</ele>
        <time>2026-01-06T17:32:15.000Z</time>
        <extensions>
          <ns3:TrackPointExtension>
            <ns3:hr>123</ns3:hr>
            <ns3:cad>0</ns3:cad>
          </ns3:TrackPointExtension>
        </extensions>
      </trkpt>
      <trkpt lat="37.94706207700073719024658203125" lon="-107.1133097447454929351806640625">
        <ele>3783.60009765625</ele>
        <time>2026-01-06T17:32:19.000Z</time>
        <extensions>
          <ns3:TrackPointExtension>
            <ns3:hr>126</ns3:hr>
            <ns3:cad>0</ns3:cad>
          </ns3:TrackPointExtension>
        </extensions>
      </trkpt>
      <trkpt lat="37.94706727378070354461669921875" lon="-107.11330412887036800384521484375">
        <ele>3784</ele>
        <time>2026-01-06T17:32:22.000Z</time>
        <extensions>
          <ns3:TrackPointExtension>
            <ns3:hr>126</ns3:hr>
            <ns3:cad>0</ns3:cad>
          </ns3:TrackPointExtension>
        </extensions>
      </trkpt>
      <trkpt lat="37.9470795951783657073974609375" lon="-107.11329138837754726409912109375">
        <ele>3784</ele>
        <time>2026-01-06T17:32:28.000Z</time>
        <extensions>
          <ns3:TrackPointExtension>
            <ns3:hr>126</ns3:hr>
            <ns3:cad>0</ns3:cad>
          </ns3:TrackPointExtension>
        </extensions>
      </trkpt>
      <trkpt lat="37.947080098092555999755859375" lon="-107.11329105310142040252685546875">
        <ele>3784</ele>
        <time>2026-01-06T17:32:29.000Z</time>
        <extensions>
          <ns3:TrackPointExtension>
            <ns3:hr>126</ns3:hr>
            <ns3:cad>0</ns3:cad>
          </ns3:TrackPointExtension>
        </extensions>
      </trkpt>
      <trkpt lat="37.947080433368682861328125" lon="-107.11329105310142040252685546875">
        <ele>3784</ele>
        <time>2026-01-06T17:32:35.000Z</time>
        <extensions>
          <ns3:TrackPointExtension>
            <ns3:hr>125</ns3:hr>
            <ns3:cad>0</ns3:cad>
          </ns3:TrackPointExtension>
        </extensions>
      </trkpt>
      <trkpt lat="37.9470863007009029388427734375" lon="-107.113282419741153717041015625">
        <ele>3784.39990234375</ele>
        <time>2026-01-06T17:32:38.000Z</time>
        <extensions>
          <ns3:TrackPointExtension>
            <ns3:hr>125</ns3:hr>
            <ns3:cad>0</ns3:cad>
          </ns3:TrackPointExtension>
        </extensions>
      </trkpt>
      <trkpt lat="37.9470940120518207550048828125" lon="-107.11327026598155498504638671875">
        <ele>3785</ele>
        <time>2026-01-06T17:32:43.000Z</time>
        <extensions>
          <ns3:TrackPointExtension>
            <ns3:hr>124</ns3:hr>
            <ns3:cad>0</ns3:cad>
          </ns3:TrackPointExtension>
        </extensions>
      </trkpt>
      <trkpt lat="37.9470940120518207550048828125" lon="-107.1132700145244598388671875">
        <ele>3785</ele>
        <time>2026-01-06T17:32:44.000Z</time>
        <extensions>
          <ns3:TrackPointExtension>
            <ns3:hr>124</ns3:hr>
            <ns3:cad>0</ns3:cad>
          </ns3:TrackPointExtension>
        </extensions>
      </trkpt>
      <trkpt lat="37.94711731374263763427734375" lon="-107.113246880471706390380859375">
        <ele>3785.39990234375</ele>
        <time>2026-01-06T17:32:50.000Z</time>
        <extensions>
          <ns3:TrackPointExtension>
            <ns3:hr>123</ns3:hr>
            <ns3:cad>0</ns3:cad>
          </ns3:TrackPointExtension>
        </extensions>
      </trkpt>
      <trkpt lat="37.94711706228554248809814453125" lon="-107.1132463775575160980224609375">
        <ele>3785.39990234375</ele>
        <time>2026-01-06T17:32:51.000Z</time>
        <extensions>
          <ns3:TrackPointExtension>
            <ns3:hr>122</ns3:hr>
            <ns3:cad>0</ns3:cad>
          </ns3:TrackPointExtension>
        </extensions>
      </trkpt>
      <trkpt lat="37.9471275396645069122314453125" lon="-107.11323372088372707366943359375">
        <ele>3785.199951171875</ele>
        <time>2026-01-06T17:32:57.000Z</time>
        <extensions>
          <ns3:TrackPointExtension>
            <ns3:hr>120</ns3:hr>
            <ns3:cad>0</ns3:cad>
          </ns3:TrackPointExtension>
        </extensions>
      </trkpt>
      <trkpt lat="37.94713600538671016693115234375" lon="-107.11322751827538013458251953125">
        <ele>3785.39990234375</ele>
        <time>2026-01-06T17:33:03.000Z</time>
        <extensions>
          <ns3:TrackPointExtension>
            <ns3:hr>121</ns3:hr>
            <ns3:cad>0</ns3:cad>
          </ns3:TrackPointExtension>
        </extensions>
      </trkpt>
      <trkpt lat="37.9471275396645069122314453125" lon="-107.11323372088372707366943359375">
        <ele>3785.39990234375</ele>
        <time>2026-01-06T17:33:04.000Z</time>
        <extensions>
          <ns3:TrackPointExtension>
            <ns3:hr>122</ns3:hr>
            <ns3:cad>0</ns3:cad>
          </ns3:TrackPointExtension>
        </extensions>
      </trkpt>
      <trkpt lat="37.9471409507095813751220703125" lon="-107.11322600953280925750732421875">
        <ele>3785.60009765625</ele>
        <time>2026-01-06T17:33:10.000Z</time>
        <extensions>
          <ns3:TrackPointExtension>
            <ns3:hr>121</ns3:hr>
            <ns3:cad>0</ns3:cad>
          </ns3:TrackPointExtension>
        </extensions>
      </trkpt>
      <trkpt lat="37.94713986106216907501220703125" lon="-107.113225422799587249755859375">
        <ele>3785.60009765625</ele>
        <time>2026-01-06T17:33:12.000Z</time>
        <extensions>
          <ns3:TrackPointExtension>
            <ns3:hr>121</ns3:hr>
            <ns3:cad>0</ns3:cad>
          </ns3:TrackPointExtension>
        </extensions>
      </trkpt>
      <trkpt lat="37.94715763069689273834228515625" lon="-107.11320891045033931732177734375">
        <ele>3786</ele>
        <time>2026-01-06T17:33:18.000Z</time>
        <extensions>
          <ns3:TrackPointExtension>
            <ns3:hr>123</ns3:hr>
            <ns3:cad>0</ns3:cad>
          </ns3:TrackPointExtension>
        </extensions>
      </trkpt>
      <trkpt lat="37.947163246572017669677734375" lon="-107.1132054738700389862060546875">
        <ele>3786.199951171875</ele>
        <time>2026-01-06T17:33:19.000Z</time>
        <extensions>
          <ns3:TrackPointExtension>
            <ns3:hr>123</ns3:hr>
            <ns3:cad>0</ns3:cad>
          </ns3:TrackPointExtension>
        </extensions>
      </trkpt>
      <trkpt lat="37.94718160293996334075927734375" lon="-107.1131850220263004302978515625">
        <ele>3786.39990234375</ele>
        <time>2026-01-06T17:33:25.000Z</time>
        <extensions>
          <ns3:TrackPointExtension>
            <ns3:hr>120</ns3:hr>
            <ns3:cad>0</ns3:cad>
          </ns3:TrackPointExtension>
        </extensions>
      </trkpt>
      <trkpt lat="37.94719283469021320343017578125" lon="-107.1131732873618602752685546875">
        <ele>3787</ele>
        <time>2026-01-06T17:33:29.000Z</time>
        <extensions>
          <ns3:TrackPointExtension>
            <ns3:hr>120</ns3:hr>
            <ns3:cad>0</ns3:cad>
          </ns3:TrackPointExtension>
        </extensions>
      </trkpt>
      <trkpt lat="37.94719283469021320343017578125" lon="-107.1131732873618602752685546875">
        <ele>3787.199951171875</ele>
        <time>2026-01-06T17:33:32.000Z</time>
        <extensions>
          <ns3:TrackPointExtension>
            <ns3:hr>122</ns3:hr>
            <ns3:cad>0</ns3:cad>
          </ns3:TrackPointExtension>
        </extensions>
      </trkpt>
      <trkpt lat="37.94720557518303394317626953125" lon="-107.11314939893782138824462890625">
        <ele>3787</ele>
        <time>2026-01-06T17:33:38.000Z</time>
        <extensions>
          <ns3:TrackPointExtension>
            <ns3:hr>122</ns3:hr>
            <ns3:cad>0</ns3:cad>
          </ns3:TrackPointExtension>
        </extensions>
      </trkpt>
      <trkpt lat="37.9472059942781925201416015625" lon="-107.11314730346202850341796875">
        <ele>3787.199951171875</ele>
        <time>2026-01-06T17:33:41.000Z</time>
        <extensions>
          <ns3:TrackPointExtension>
            <ns3:hr>122</ns3:hr>
            <ns3:cad>0</ns3:cad>
          </ns3:TrackPointExtension>
        </extensions>
      </trkpt>
      <trkpt lat="37.9472059942781925201416015625" lon="-107.11314730346202850341796875">
        <ele>3787</ele>
        <time>2026-01-06T17:33:44.000Z</time>
        <extensions>
          <ns3:TrackPointExtension>
            <ns3:hr>119</ns3:hr>
            <ns3:cad>0</ns3:cad>
          </ns3:TrackPointExtension>
        </extensions>
      </trkpt>
      <trkpt lat="37.9472059942781925201416015625" lon="-107.11314730346202850341796875">
        <ele>3787.199951171875</ele>
        <time>2026-01-06T17:33:47.000Z</time>
        <extensions>
          <ns3:TrackPointExtension>
            <ns3:hr>117</ns3:hr>
            <ns3:cad>0</ns3:cad>
          </ns3:TrackPointExtension>
        </extensions>
      </trkpt>
      <trkpt lat="37.9472059942781925201416015625" lon="-107.11314730346202850341796875">
        <ele>3787.800048828125</ele>
        <time>2026-01-06T17:33:53.000Z</time>
        <extensions>
          <ns3:TrackPointExtension>
            <ns3:hr>116</ns3:hr>
            <ns3:cad>0</ns3:cad>
          </ns3:TrackPointExtension>
        </extensions>
      </trkpt>
      <trkpt lat="37.94722099788486957550048828125" lon="-107.11313498206436634063720703125">
        <ele>3787.800048828125</ele>
        <time>2026-01-06T17:33:56.000Z</time>
        <extensions>
          <ns3:TrackPointExtension>
            <ns3:hr>117</ns3:hr>
            <ns3:cad>0</ns3:cad>
          </ns3:TrackPointExtension>
        </extensions>
      </trkpt>
      <trkpt lat="37.94722183607518672943115234375" lon="-107.11313598789274692535400390625">
        <ele>3787.800048828125</ele>
        <time>2026-01-06T17:34:02.000Z</time>
        <extensions>
          <ns3:TrackPointExtension>
            <ns3:hr>117</ns3:hr>
            <ns3:cad>0</ns3:cad>
          </ns3:TrackPointExtension>
        </extensions>
      </trkpt>
      <trkpt lat="37.94722200371325016021728515625" lon="-107.1131354011595249176025390625">
        <ele>3788</ele>
        <time>2026-01-06T17:34:04.000Z</time>
        <extensions>
          <ns3:TrackPointExtension>
            <ns3:hr>118</ns3:hr>
            <ns3:cad>0</ns3:cad>
          </ns3:TrackPointExtension>
        </extensions>
      </trkpt>
      <trkpt lat="37.9472348280251026153564453125" lon="-107.113126181066036224365234375">
        <ele>3788</ele>
        <time>2026-01-06T17:34:07.000Z</time>
        <extensions>
          <ns3:TrackPointExtension>
            <ns3:hr>119</ns3:hr>
            <ns3:cad>0</ns3:cad>
          </ns3:TrackPointExtension>
        </extensions>
      </trkpt>
      <trkpt lat="37.947257459163665771484375" lon="-107.113110758364200592041015625">
        <ele>3788.60009765625</ele>
        <time>2026-01-06T17:34:12.000Z</time>
        <extensions>
          <ns3:TrackPointExtension>
            <ns3:hr>118</ns3:hr>
            <ns3:cad>0</ns3:cad>
          </ns3:TrackPointExtension>
        </extensions>
      </trkpt>
      <trkpt lat="37.94729358516633510589599609375" lon="-107.11308117024600505828857421875">
        <ele>3789</ele>
        <time>2026-01-06T17:34:18.000Z</time>
        <extensions>
          <ns3:TrackPointExtension>
            <ns3:hr>118</ns3:hr>
            <ns3:cad>0</ns3:cad>
          </ns3:TrackPointExtension>
        </extensions>
      </trkpt>
      <trkpt lat="37.94729827903211116790771484375" lon="-107.113077230751514434814453125">
        <ele>3789.199951171875</ele>
        <time>2026-01-06T17:34:19.000Z</time>
        <extensions>
          <ns3:TrackPointExtension>
            <ns3:hr>118</ns3:hr>
            <ns3:cad>0</ns3:cad>
          </ns3:TrackPointExtension>
        </extensions>
      </trkpt>
      <trkpt lat="37.9473082534968852996826171875" lon="-107.1130680106580257415771484375">
        <ele>3789.60009765625</ele>
        <time>2026-01-06T17:34:21.000Z</time>
        <extensions>
          <ns3:TrackPointExtension>
            <ns3:hr>118</ns3:hr>
            <ns3:cad>0</ns3:cad>
          </ns3:TrackPointExtension>
        </extensions>
      </trkpt>
      <trkpt lat="37.94733264483511447906494140625" lon="-107.11305015720427036285400390625">
        <ele>3789.800048828125</ele>
        <time>2026-01-06T17:34:25.000Z</time>
        <extensions>
          <ns3:TrackPointExtension>
            <ns3:hr>121</ns3:hr>
            <ns3:cad>62</ns3:cad>
          </ns3:TrackPointExtension>
        </extensions>
      </trkpt>
      <trkpt lat="37.94734035618603229522705078125" lon="-107.113043032586574554443359375">
        <ele>3790.199951171875</ele>
        <time>2026-01-06T17:34:27.000Z</time>
        <extensions>
          <ns3:TrackPointExtension>
            <ns3:hr>122</ns3:hr>
            <ns3:cad>0</ns3:cad>
          </ns3:TrackPointExtension>
        </extensions>
      </trkpt>
      <trkpt lat="37.947342284023761749267578125" lon="-107.11303909309208393096923828125">
        <ele>3790.199951171875</ele>
        <time>2026-01-06T17:34:28.000Z</time>
        <extensions>
          <ns3:TrackPointExtension>
            <ns3:hr>122</ns3:hr>
            <ns3:cad>0</ns3:cad>
          </ns3:TrackPointExtension>
        </extensions>
      </trkpt>
      <trkpt lat="37.94736248441040515899658203125" lon="-107.11302526295185089111328125">
        <ele>3790.800048828125</ele>
        <time>2026-01-06T17:34:33.000Z</time>
        <extensions>
          <ns3:TrackPointExtension>
            <ns3:hr>123</ns3:hr>
            <ns3:cad>61</ns3:cad>
          </ns3:TrackPointExtension>
        </extensions>
      </trkpt>
      <trkpt lat="37.947377823293209075927734375" lon="-107.1130183897912502288818359375">
        <ele>3791.199951171875</ele>
        <time>2026-01-06T17:34:35.000Z</time>
        <extensions>
          <ns3:TrackPointExtension>
            <ns3:hr>124</ns3:hr>
            <ns3:cad>0</ns3:cad>
          </ns3:TrackPointExtension>
        </extensions>
      </trkpt>
      <trkpt lat="37.9474170506000518798828125" lon="-107.1129996143281459808349609375">
        <ele>3791.39990234375</ele>
        <time>2026-01-06T17:34:40.000Z</time>
        <extensions>
          <ns3:TrackPointExtension>
            <ns3:hr>122</ns3:hr>
            <ns3:cad>61</ns3:cad>
          </ns3:TrackPointExtension>
        </extensions>
      </trkpt>
      <trkpt lat="37.947453595697879791259765625" lon="-107.1129714511334896087646484375">
        <ele>3792</ele>
        <time>2026-01-06T17:34:46.000Z</time>
        <extensions>
          <ns3:TrackPointExtension>
            <ns3:hr>121</ns3:hr>
            <ns3:cad>59</ns3:cad>
          </ns3:TrackPointExtension>
        </extensions>
      </trkpt>
      <trkpt lat="37.947463653981685638427734375" lon="-107.11296130903065204620361328125">
        <ele>3792.199951171875</ele>
        <time>2026-01-06T17:34:48.000Z</time>
        <extensions>
          <ns3:TrackPointExtension>
            <ns3:hr>121</ns3:hr>
            <ns3:cad>59</ns3:cad>
          </ns3:TrackPointExtension>
        </extensions>
      </trkpt>
      <trkpt lat="37.9474688507616519927978515625" lon="-107.1129570342600345611572265625">
        <ele>3792.199951171875</ele>
        <time>2026-01-06T17:34:49.000Z</time>
        <extensions>
          <ns3:TrackPointExtension>
            <ns3:hr>121</ns3:hr>
            <ns3:cad>59</ns3:cad>
          </ns3:TrackPointExtension>
        </extensions>
      </trkpt>
      <trkpt lat="37.94748871587216854095458984375" lon="-107.1129379235208034515380859375">
        <ele>3793</ele>
        <time>2026-01-06T17:34:55.000Z</time>
        <extensions>
          <ns3:TrackPointExtension>
            <ns3:hr>121</ns3:hr>
            <ns3:cad>0</ns3:cad>
          </ns3:TrackPointExtension>
        </extensions>
      </trkpt>
      <trkpt lat="37.9474899731576442718505859375" lon="-107.1129342354834079742431640625">
        <ele>3793</ele>
        <time>2026-01-06T17:34:57.000Z</time>
        <extensions>
          <ns3:TrackPointExtension>
            <ns3:hr>121</ns3:hr>
            <ns3:cad>0</ns3:cad>
          </ns3:TrackPointExtension>
        </extensions>
      </trkpt>
      <trkpt lat="37.94749475084245204925537109375" lon="-107.1129266917705535888671875">
        <ele>3792.800048828125</ele>
        <time>2026-01-06T17:35:03.000Z</time>
        <extensions>
          <ns3:TrackPointExtension>
            <ns3:hr>122</ns3:hr>
            <ns3:cad>0</ns3:cad>
          </ns3:TrackPointExtension>
        </extensions>
      </trkpt>
      <trkpt lat="37.94749475084245204925537109375" lon="-107.1129266917705535888671875">
        <ele>3793</ele>
        <time>2026-01-06T17:35:05.000Z</time>
        <extensions>
          <ns3:TrackPointExtension>
            <ns3:hr>122</ns3:hr>
            <ns3:cad>0</ns3:cad>
          </ns3:TrackPointExtension>
        </extensions>
      </trkpt>
      <trkpt lat="37.9474961757659912109375" lon="-107.11292560212314128875732421875">
        <ele>3793.39990234375</ele>
        <time>2026-01-06T17:35:08.000Z</time>
        <extensions>
          <ns3:TrackPointExtension>
            <ns3:hr>123</ns3:hr>
            <ns3:cad>0</ns3:cad>
          </ns3:TrackPointExtension>
        </extensions>
      </trkpt>
      <trkpt lat="37.94752190820872783660888671875" lon="-107.112893499433994293212890625">
        <ele>3794</ele>
        <time>2026-01-06T17:35:13.000Z</time>
        <extensions>
          <ns3:TrackPointExtension>
            <ns3:hr>123</ns3:hr>
            <ns3:cad>0</ns3:cad>
          </ns3:TrackPointExtension>
        </extensions>
      </trkpt>
      <trkpt lat="37.94753381051123142242431640625" lon="-107.11288444697856903076171875">
        <ele>3794.39990234375</ele>
        <time>2026-01-06T17:35:16.000Z</time>
        <extensions>
          <ns3:TrackPointExtension>
            <ns3:hr>125</ns3:hr>
            <ns3:cad>0</ns3:cad>
          </ns3:TrackPointExtension>
        </extensions>
      </trkpt>
      <trkpt lat="37.947537414729595184326171875" lon="-107.11287883110344409942626953125">
        <ele>3794.60009765625</ele>
        <time>2026-01-06T17:35:19.000Z</time>
        <extensions>
          <ns3:TrackPointExtension>
            <ns3:hr>125</ns3:hr>
            <ns3:cad>0</ns3:cad>
          </ns3:TrackPointExtension>
        </extensions>
      </trkpt>
      <trkpt lat="37.94755124486982822418212890625" lon="-107.112860977649688720703125">
        <ele>3795</ele>
        <time>2026-01-06T17:35:25.000Z</time>
        <extensions>
          <ns3:TrackPointExtension>
            <ns3:hr>125</ns3:hr>
            <ns3:cad>0</ns3:cad>
          </ns3:TrackPointExtension>
        </extensions>
      </trkpt>
      <trkpt lat="37.947565577924251556396484375" lon="-107.1128547750413417816162109375">
        <ele>3795.39990234375</ele>
        <time>2026-01-06T17:35:28.000Z</time>
        <extensions>
          <ns3:TrackPointExtension>
            <ns3:hr>123</ns3:hr>
            <ns3:cad>0</ns3:cad>
          </ns3:TrackPointExtension>
        </extensions>
      </trkpt>
      <trkpt lat="37.94758276082575321197509765625" lon="-107.11284647695720195770263671875">
        <ele>3796</ele>
        <time>2026-01-06T17:35:31.000Z</time>
        <extensions>
          <ns3:TrackPointExtension>
            <ns3:hr>124</ns3:hr>
            <ns3:cad>0</ns3:cad>
          </ns3:TrackPointExtension>
        </extensions>
      </trkpt>
      <trkpt lat="37.94759608805179595947265625" lon="-107.11283775977790355682373046875">
        <ele>3796.39990234375</ele>
        <time>2026-01-06T17:35:35.000Z</time>
        <extensions>
          <ns3:TrackPointExtension>
            <ns3:hr>125</ns3:hr>
            <ns3:cad>0</ns3:cad>
          </ns3:TrackPointExtension>
        </extensions>
      </trkpt>
      <trkpt lat="37.94761243276298046112060546875" lon="-107.1128219179809093475341796875">
        <ele>3796.199951171875</ele>
        <time>2026-01-06T17:35:39.000Z</time>
        <extensions>
          <ns3:TrackPointExtension>
            <ns3:hr>125</ns3:hr>
            <ns3:cad>0</ns3:cad>
          </ns3:TrackPointExtension>
        </extensions>
      </trkpt>
      <trkpt lat="37.94762534089386463165283203125" lon="-107.112803645431995391845703125">
        <ele>3796.800048828125</ele>
        <time>2026-01-06T17:35:45.000Z</time>
        <extensions>
          <ns3:TrackPointExtension>
            <ns3:hr>125</ns3:hr>
            <ns3:cad>0</ns3:cad>
          </ns3:TrackPointExtension>
        </extensions>
      </trkpt>
      <trkpt lat="37.94762534089386463165283203125" lon="-107.112803645431995391845703125">
        <ele>3796.800048828125</ele>
        <time>2026-01-06T17:35:46.000Z</time>
        <extensions>
          <ns3:TrackPointExtension>
            <ns3:hr>126</ns3:hr>
            <ns3:cad>0</ns3:cad>
          </ns3:TrackPointExtension>
        </extensions>
      </trkpt>
      <trkpt lat="37.94762534089386463165283203125" lon="-107.112803645431995391845703125">
        <ele>3796.60009765625</ele>
        <time>2026-01-06T17:35:52.000Z</time>
        <extensions>
          <ns3:TrackPointExtension>
            <ns3:hr>126</ns3:hr>
            <ns3:cad>0</ns3:cad>
          </ns3:TrackPointExtension>
        </extensions>
      </trkpt>
      <trkpt lat="37.94762534089386463165283203125" lon="-107.112803645431995391845703125">
        <ele>3796.60009765625</ele>
        <time>2026-01-06T17:35:55.000Z</time>
        <extensions>
          <ns3:TrackPointExtension>
            <ns3:hr>128</ns3:hr>
            <ns3:cad>0</ns3:cad>
          </ns3:TrackPointExtension>
        </extensions>
      </trkpt>
      <trkpt lat="37.94762534089386463165283203125" lon="-107.112803645431995391845703125">
        <ele>3796.800048828125</ele>
        <time>2026-01-06T17:36:01.000Z</time>
        <extensions>
          <ns3:TrackPointExtension>
            <ns3:hr>127</ns3:hr>
            <ns3:cad>0</ns3:cad>
          </ns3:TrackPointExtension>
        </extensions>
      </trkpt>
      <trkpt lat="37.94762534089386463165283203125" lon="-107.112803645431995391845703125">
        <ele>3796.800048828125</ele>
        <time>2026-01-06T17:36:05.000Z</time>
        <extensions>
          <ns3:TrackPointExtension>
            <ns3:hr>124</ns3:hr>
            <ns3:cad>0</ns3:cad>
          </ns3:TrackPointExtension>
        </extensions>
      </trkpt>
      <trkpt lat="37.94762534089386463165283203125" lon="-107.112803645431995391845703125">
        <ele>3796.800048828125</ele>
        <time>2026-01-06T17:36:08.000Z</time>
        <extensions>
          <ns3:TrackPointExtension>
            <ns3:hr>121</ns3:hr>
            <ns3:cad>0</ns3:cad>
          </ns3:TrackPointExtension>
        </extensions>
      </trkpt>
      <trkpt lat="37.94762534089386463165283203125" lon="-107.112803645431995391845703125">
        <ele>3797</ele>
        <time>2026-01-06T17:36:13.000Z</time>
        <extensions>
          <ns3:TrackPointExtension>
            <ns3:hr>118</ns3:hr>
            <ns3:cad>0</ns3:cad>
          </ns3:TrackPointExtension>
        </extensions>
      </trkpt>
      <trkpt lat="37.94762534089386463165283203125" lon="-107.112803645431995391845703125">
        <ele>3797</ele>
        <time>2026-01-06T17:36:15.000Z</time>
        <extensions>
          <ns3:TrackPointExtension>
            <ns3:hr>116</ns3:hr>
            <ns3:cad>0</ns3:cad>
          </ns3:TrackPointExtension>
        </extensions>
      </trkpt>
      <trkpt lat="37.94762534089386463165283203125" lon="-107.112803645431995391845703125">
        <ele>3796.800048828125</ele>
        <time>2026-01-06T17:36:21.000Z</time>
        <extensions>
          <ns3:TrackPointExtension>
            <ns3:hr>115</ns3:hr>
            <ns3:cad>0</ns3:cad>
          </ns3:TrackPointExtension>
        </extensions>
      </trkpt>
      <trkpt lat="37.94762534089386463165283203125" lon="-107.112803645431995391845703125">
        <ele>3797</ele>
        <time>2026-01-06T17:36:27.000Z</time>
        <extensions>
          <ns3:TrackPointExtension>
            <ns3:hr>113</ns3:hr>
            <ns3:cad>0</ns3:cad>
          </ns3:TrackPointExtension>
        </extensions>
      </trkpt>
      <trkpt lat="37.94762534089386463165283203125" lon="-107.112803645431995391845703125">
        <ele>3797</ele>
        <time>2026-01-06T17:36:31.000Z</time>
        <extensions>
          <ns3:TrackPointExtension>
            <ns3:hr>112</ns3:hr>
            <ns3:cad>0</ns3:cad>
          </ns3:TrackPointExtension>
        </extensions>
      </trkpt>
      <trkpt lat="37.94762534089386463165283203125" lon="-107.112803645431995391845703125">
        <ele>3796.800048828125</ele>
        <time>2026-01-06T17:36:37.000Z</time>
        <extensions>
          <ns3:TrackPointExtension>
            <ns3:hr>111</ns3:hr>
            <ns3:cad>0</ns3:cad>
          </ns3:TrackPointExtension>
        </extensions>
      </trkpt>
      <trkpt lat="37.94762534089386463165283203125" lon="-107.112803645431995391845703125">
        <ele>3796.800048828125</ele>
        <time>2026-01-06T17:36:42.000Z</time>
        <extensions>
          <ns3:TrackPointExtension>
            <ns3:hr>110</ns3:hr>
            <ns3:cad>0</ns3:cad>
          </ns3:TrackPointExtension>
        </extensions>
      </trkpt>
      <trkpt lat="37.94762534089386463165283203125" lon="-107.112803645431995391845703125">
        <ele>3796.60009765625</ele>
        <time>2026-01-06T17:36:45.000Z</time>
        <extensions>
          <ns3:TrackPointExtension>
            <ns3:hr>113</ns3:hr>
            <ns3:cad>0</ns3:cad>
          </ns3:TrackPointExtension>
        </extensions>
      </trkpt>
      <trkpt lat="37.94762534089386463165283203125" lon="-107.112803645431995391845703125">
        <ele>3797</ele>
        <time>2026-01-06T17:36:51.000Z</time>
        <extensions>
          <ns3:TrackPointExtension>
            <ns3:hr>113</ns3:hr>
            <ns3:cad>0</ns3:cad>
          </ns3:TrackPointExtension>
        </extensions>
      </trkpt>
      <trkpt lat="37.94762534089386463165283203125" lon="-107.112803645431995391845703125">
        <ele>3797</ele>
        <time>2026-01-06T17:36:52.000Z</time>
        <extensions>
          <ns3:TrackPointExtension>
            <ns3:hr>113</ns3:hr>
            <ns3:cad>0</ns3:cad>
          </ns3:TrackPointExtension>
        </extensions>
      </trkpt>
      <trkpt lat="37.94762534089386463165283203125" lon="-107.112803645431995391845703125">
        <ele>3797.39990234375</ele>
        <time>2026-01-06T17:36:54.000Z</time>
        <extensions>
          <ns3:TrackPointExtension>
            <ns3:hr>110</ns3:hr>
            <ns3:cad>0</ns3:cad>
          </ns3:TrackPointExtension>
        </extensions>
      </trkpt>
      <trkpt lat="37.94762534089386463165283203125" lon="-107.112803645431995391845703125">
        <ele>3797.60009765625</ele>
        <time>2026-01-06T17:36:55.000Z</time>
        <extensions>
          <ns3:TrackPointExtension>
            <ns3:hr>109</ns3:hr>
            <ns3:cad>0</ns3:cad>
          </ns3:TrackPointExtension>
        </extensions>
      </trkpt>
      <trkpt lat="37.94762534089386463165283203125" lon="-107.112803645431995391845703125">
        <ele>3797.800048828125</ele>
        <time>2026-01-06T17:36:56.000Z</time>
        <extensions>
          <ns3:TrackPointExtension>
            <ns3:hr>103</ns3:hr>
            <ns3:cad>0</ns3:cad>
          </ns3:TrackPointExtension>
        </extensions>
      </trkpt>
      <trkpt lat="37.94762534089386463165283203125" lon="-107.112803645431995391845703125">
        <ele>3797.800048828125</ele>
        <time>2026-01-06T17:36:57.000Z</time>
        <extensions>
          <ns3:TrackPointExtension>
            <ns3:hr>100</ns3:hr>
            <ns3:cad>0</ns3:cad>
          </ns3:TrackPointExtension>
        </extensions>
      </trkpt>
      <trkpt lat="37.94762534089386463165283203125" lon="-107.112803645431995391845703125">
        <ele>3797.60009765625</ele>
        <time>2026-01-06T17:36:58.000Z</time>
        <extensions>
          <ns3:TrackPointExtension>
            <ns3:hr>100</ns3:hr>
            <ns3:cad>0</ns3:cad>
          </ns3:TrackPointExtension>
        </extensions>
      </trkpt>
      <trkpt lat="37.94762534089386463165283203125" lon="-107.112803645431995391845703125">
        <ele>3797.199951171875</ele>
        <time>2026-01-06T17:37:01.000Z</time>
        <extensions>
          <ns3:TrackPointExtension>
            <ns3:hr>100</ns3:hr>
            <ns3:cad>0</ns3:cad>
          </ns3:TrackPointExtension>
        </extensions>
      </trkpt>
      <trkpt lat="37.9476249217987060546875" lon="-107.11277372203767299652099609375">
        <ele>3797.60009765625</ele>
        <time>2026-01-06T17:37:07.000Z</time>
        <extensions>
          <ns3:TrackPointExtension>
            <ns3:hr>99</ns3:hr>
            <ns3:cad>0</ns3:cad>
          </ns3:TrackPointExtension>
        </extensions>
      </trkpt>
      <trkpt lat="37.94762500561773777008056640625" lon="-107.1127568744122982025146484375">
        <ele>3798</ele>
        <time>2026-01-06T17:37:09.000Z</time>
        <extensions>
          <ns3:TrackPointExtension>
            <ns3:hr>99</ns3:hr>
            <ns3:cad>0</ns3:cad>
          </ns3:TrackPointExtension>
        </extensions>
      </trkpt>
      <trkpt lat="37.947631962597370147705078125" lon="-107.1127313934266567230224609375">
        <ele>3798.800048828125</ele>
        <time>2026-01-06T17:37:12.000Z</time>
        <extensions>
          <ns3:TrackPointExtension>
            <ns3:hr>99</ns3:hr>
            <ns3:cad>0</ns3:cad>
          </ns3:TrackPointExtension>
        </extensions>
      </trkpt>
      <trkpt lat="37.94763498008251190185546875" lon="-107.1127166412770748138427734375">
        <ele>3799</ele>
        <time>2026-01-06T17:37:14.000Z</time>
        <extensions>
          <ns3:TrackPointExtension>
            <ns3:hr>99</ns3:hr>
            <ns3:cad>0</ns3:cad>
          </ns3:TrackPointExtension>
        </extensions>
      </trkpt>
      <trkpt lat="37.947642691433429718017578125" lon="-107.11267867125570774078369140625">
        <ele>3799.800048828125</ele>
        <time>2026-01-06T17:37:20.000Z</time>
        <extensions>
          <ns3:TrackPointExtension>
            <ns3:hr>98</ns3:hr>
            <ns3:cad>0</ns3:cad>
          </ns3:TrackPointExtension>
        </extensions>
      </trkpt>
      <trkpt lat="37.94764746911823749542236328125" lon="-107.112660147249698638916015625">
        <ele>3800.60009765625</ele>
        <time>2026-01-06T17:37:24.000Z</time>
        <extensions>
          <ns3:TrackPointExtension>
            <ns3:hr>101</ns3:hr>
            <ns3:cad>0</ns3:cad>
          </ns3:TrackPointExtension>
        </extensions>
      </trkpt>
      <trkpt lat="37.9476509056985378265380859375" lon="-107.11264648474752902984619140625">
        <ele>3801</ele>
        <time>2026-01-06T17:37:26.000Z</time>
        <extensions>
          <ns3:TrackPointExtension>
            <ns3:hr>103</ns3:hr>
            <ns3:cad>0</ns3:cad>
          </ns3:TrackPointExtension>
        </extensions>
      </trkpt>
      <trkpt lat="37.9476582817733287811279296875" lon="-107.11262938566505908966064453125">
        <ele>3801</ele>
        <time>2026-01-06T17:37:28.000Z</time>
        <extensions>
          <ns3:TrackPointExtension>
            <ns3:hr>105</ns3:hr>
            <ns3:cad>0</ns3:cad>
          </ns3:TrackPointExtension>
        </extensions>
      </trkpt>
      <trkpt lat="37.9476669989526271820068359375" lon="-107.11260457523167133331298828125">
        <ele>3801.39990234375</ele>
        <time>2026-01-06T17:37:31.000Z</time>
        <extensions>
          <ns3:TrackPointExtension>
            <ns3:hr>108</ns3:hr>
            <ns3:cad>0</ns3:cad>
          </ns3:TrackPointExtension>
        </extensions>
      </trkpt>
      <trkpt lat="37.9476669989526271820068359375" lon="-107.11260222829878330230712890625">
        <ele>3801.60009765625</ele>
        <time>2026-01-06T17:37:33.000Z</time>
        <extensions>
          <ns3:TrackPointExtension>
            <ns3:hr>112</ns3:hr>
            <ns3:cad>0</ns3:cad>
          </ns3:TrackPointExtension>
        </extensions>
      </trkpt>
      <trkpt lat="37.94766792096197605133056640625" lon="-107.11260356940329074859619140625">
        <ele>3801.60009765625</ele>
        <time>2026-01-06T17:37:34.000Z</time>
        <extensions>
          <ns3:TrackPointExtension>
            <ns3:hr>114</ns3:hr>
            <ns3:cad>0</ns3:cad>
          </ns3:TrackPointExtension>
        </extensions>
      </trkpt>
      <trkpt lat="37.9476678371429443359375" lon="-107.11260356940329074859619140625">
        <ele>3801.199951171875</ele>
        <time>2026-01-06T17:37:40.000Z</time>
        <extensions>
          <ns3:TrackPointExtension>
            <ns3:hr>116</ns3:hr>
            <ns3:cad>0</ns3:cad>
          </ns3:TrackPointExtension>
        </extensions>
      </trkpt>
      <trkpt lat="37.9476678371429443359375" lon="-107.11260356940329074859619140625">
        <ele>3801.199951171875</ele>
        <time>2026-01-06T17:37:43.000Z</time>
        <extensions>
          <ns3:TrackPointExtension>
            <ns3:hr>122</ns3:hr>
            <ns3:cad>0</ns3:cad>
          </ns3:TrackPointExtension>
        </extensions>
      </trkpt>
      <trkpt lat="37.9476678371429443359375" lon="-107.11260356940329074859619140625">
        <ele>3801.199951171875</ele>
        <time>2026-01-06T17:37:49.000Z</time>
        <extensions>
          <ns3:TrackPointExtension>
            <ns3:hr>123</ns3:hr>
            <ns3:cad>0</ns3:cad>
          </ns3:TrackPointExtension>
        </extensions>
      </trkpt>
      <trkpt lat="37.9476678371429443359375" lon="-107.11260356940329074859619140625">
        <ele>3801.39990234375</ele>
        <time>2026-01-06T17:37:55.000Z</time>
        <extensions>
          <ns3:TrackPointExtension>
            <ns3:hr>123</ns3:hr>
            <ns3:cad>0</ns3:cad>
          </ns3:TrackPointExtension>
        </extensions>
      </trkpt>
      <trkpt lat="37.9476678371429443359375" lon="-107.11260356940329074859619140625">
        <ele>3801.199951171875</ele>
        <time>2026-01-06T17:38:00.000Z</time>
        <extensions>
          <ns3:TrackPointExtension>
            <ns3:hr>121</ns3:hr>
            <ns3:cad>0</ns3:cad>
          </ns3:TrackPointExtension>
        </extensions>
      </trkpt>
      <trkpt lat="37.9476678371429443359375" lon="-107.11260356940329074859619140625">
        <ele>3801.199951171875</ele>
        <time>2026-01-06T17:38:06.000Z</time>
        <extensions>
          <ns3:TrackPointExtension>
            <ns3:hr>118</ns3:hr>
            <ns3:cad>0</ns3:cad>
          </ns3:TrackPointExtension>
        </extensions>
      </trkpt>
      <trkpt lat="37.9476678371429443359375" lon="-107.11260356940329074859619140625">
        <ele>3801.199951171875</ele>
        <time>2026-01-06T17:38:07.000Z</time>
        <extensions>
          <ns3:TrackPointExtension>
            <ns3:hr>115</ns3:hr>
            <ns3:cad>0</ns3:cad>
          </ns3:TrackPointExtension>
        </extensions>
      </trkpt>
      <trkpt lat="37.9476678371429443359375" lon="-107.11260356940329074859619140625">
        <ele>3801.39990234375</ele>
        <time>2026-01-06T17:38:10.000Z</time>
        <extensions>
          <ns3:TrackPointExtension>
            <ns3:hr>112</ns3:hr>
            <ns3:cad>0</ns3:cad>
          </ns3:TrackPointExtension>
        </extensions>
      </trkpt>
      <trkpt lat="37.9476678371429443359375" lon="-107.11260356940329074859619140625">
        <ele>3801.39990234375</ele>
        <time>2026-01-06T17:38:15.000Z</time>
        <extensions>
          <ns3:TrackPointExtension>
            <ns3:hr>109</ns3:hr>
            <ns3:cad>0</ns3:cad>
          </ns3:TrackPointExtension>
        </extensions>
      </trkpt>
      <trkpt lat="37.9476678371429443359375" lon="-107.11260356940329074859619140625">
        <ele>3801.199951171875</ele>
        <time>2026-01-06T17:38:20.000Z</time>
        <extensions>
          <ns3:TrackPointExtension>
            <ns3:hr>111</ns3:hr>
            <ns3:cad>0</ns3:cad>
          </ns3:TrackPointExtension>
        </extensions>
      </trkpt>
      <trkpt lat="37.9476656578481197357177734375" lon="-107.1125966124236583709716796875">
        <ele>3801.199951171875</ele>
        <time>2026-01-06T17:38:26.000Z</time>
        <extensions>
          <ns3:TrackPointExtension>
            <ns3:hr>111</ns3:hr>
            <ns3:cad>0</ns3:cad>
          </ns3:TrackPointExtension>
        </extensions>
      </trkpt>
      <trkpt lat="37.94766490347683429718017578125" lon="-107.1125900745391845703125">
        <ele>3801.39990234375</ele>
        <time>2026-01-06T17:38:27.000Z</time>
        <extensions>
          <ns3:TrackPointExtension>
            <ns3:hr>111</ns3:hr>
            <ns3:cad>0</ns3:cad>
          </ns3:TrackPointExtension>
        </extensions>
      </trkpt>
      <trkpt lat="37.94766875915229320526123046875" lon="-107.1125694550573825836181640625">
        <ele>3802</ele>
        <time>2026-01-06T17:38:31.000Z</time>
        <extensions>
          <ns3:TrackPointExtension>
            <ns3:hr>112</ns3:hr>
            <ns3:cad>0</ns3:cad>
          </ns3:TrackPointExtension>
        </extensions>
      </trkpt>
      <trkpt lat="37.94767060317099094390869140625" lon="-107.11255931295454502105712890625">
        <ele>3802.39990234375</ele>
        <time>2026-01-06T17:38:33.000Z</time>
        <extensions>
          <ns3:TrackPointExtension>
            <ns3:hr>112</ns3:hr>
            <ns3:cad>62</ns3:cad>
          </ns3:TrackPointExtension>
        </extensions>
      </trkpt>
      <trkpt lat="37.947671525180339813232421875" lon="-107.1125342510640621185302734375">
        <ele>3802.800048828125</ele>
        <time>2026-01-06T17:38:39.000Z</time>
        <extensions>
          <ns3:TrackPointExtension>
            <ns3:hr>113</ns3:hr>
            <ns3:cad>0</ns3:cad>
          </ns3:TrackPointExtension>
        </extensions>
      </trkpt>
      <trkpt lat="37.94767320156097412109375" lon="-107.11252729408442974090576171875">
        <ele>3802.800048828125</ele>
        <time>2026-01-06T17:38:41.000Z</time>
        <extensions>
          <ns3:TrackPointExtension>
            <ns3:hr>113</ns3:hr>
            <ns3:cad>0</ns3:cad>
          </ns3:TrackPointExtension>
        </extensions>
      </trkpt>
      <trkpt lat="37.9476760514080524444580078125" lon="-107.1125010587275028228759765625">
        <ele>3803.199951171875</ele>
        <time>2026-01-06T17:38:45.000Z</time>
        <extensions>
          <ns3:TrackPointExtension>
            <ns3:hr>114</ns3:hr>
            <ns3:cad>0</ns3:cad>
          </ns3:TrackPointExtension>
        </extensions>
      </trkpt>
      <trkpt lat="37.9476745426654815673828125" lon="-107.11248102597892284393310546875">
        <ele>3803.39990234375</ele>
        <time>2026-01-06T17:38:48.000Z</time>
        <extensions>
          <ns3:TrackPointExtension>
            <ns3:hr>114</ns3:hr>
            <ns3:cad>0</ns3:cad>
          </ns3:TrackPointExtension>
        </extensions>
      </trkpt>
      <trkpt lat="37.94768669642508029937744140625" lon="-107.11244548670947551727294921875">
        <ele>3804</ele>
        <time>2026-01-06T17:38:54.000Z</time>
        <extensions>
          <ns3:TrackPointExtension>
            <ns3:hr>114</ns3:hr>
            <ns3:cad>0</ns3:cad>
          </ns3:TrackPointExtension>
        </extensions>
      </trkpt>
      <trkpt lat="37.94768820516765117645263671875" lon="-107.112436182796955108642578125">
        <ele>3804.199951171875</ele>
        <time>2026-01-06T17:38:56.000Z</time>
        <extensions>
          <ns3:TrackPointExtension>
            <ns3:hr>115</ns3:hr>
            <ns3:cad>0</ns3:cad>
          </ns3:TrackPointExtension>
        </extensions>
      </trkpt>
      <trkpt lat="37.94768921099603176116943359375" lon="-107.1124326623976230621337890625">
        <ele>3804.39990234375</ele>
        <time>2026-01-06T17:38:57.000Z</time>
        <extensions>
          <ns3:TrackPointExtension>
            <ns3:hr>115</ns3:hr>
            <ns3:cad>0</ns3:cad>
          </ns3:TrackPointExtension>
        </extensions>
      </trkpt>
      <trkpt lat="37.94769792817533016204833984375" lon="-107.112399637699127197265625">
        <ele>3805</ele>
        <time>2026-01-06T17:39:02.000Z</time>
        <extensions>
          <ns3:TrackPointExtension>
            <ns3:hr>118</ns3:hr>
            <ns3:cad>0</ns3:cad>
          </ns3:TrackPointExtension>
        </extensions>
      </trkpt>
      <trkpt lat="37.94770295731723308563232421875" lon="-107.11238295771181583404541015625">
        <ele>3805.39990234375</ele>
        <time>2026-01-06T17:39:05.000Z</time>
        <extensions>
          <ns3:TrackPointExtension>
            <ns3:hr>118</ns3:hr>
            <ns3:cad>67</ns3:cad>
          </ns3:TrackPointExtension>
        </extensions>
      </trkpt>
      <trkpt lat="37.94770882464945316314697265625" lon="-107.11235496215522289276123046875">
        <ele>3806.60009765625</ele>
        <time>2026-01-06T17:39:10.000Z</time>
        <extensions>
          <ns3:TrackPointExtension>
            <ns3:hr>118</ns3:hr>
            <ns3:cad>0</ns3:cad>
          </ns3:TrackPointExtension>
        </extensions>
      </trkpt>
      <trkpt lat="37.947707735002040863037109375" lon="-107.11235077120363712310791015625">
        <ele>3806.60009765625</ele>
        <time>2026-01-06T17:39:11.000Z</time>
        <extensions>
          <ns3:TrackPointExtension>
            <ns3:hr>118</ns3:hr>
            <ns3:cad>0</ns3:cad>
          </ns3:TrackPointExtension>
        </extensions>
      </trkpt>
      <trkpt lat="37.9477156139910221099853515625" lon="-107.11232311092317104339599609375">
        <ele>3807</ele>
        <time>2026-01-06T17:39:17.000Z</time>
        <extensions>
          <ns3:TrackPointExtension>
            <ns3:hr>117</ns3:hr>
            <ns3:cad>0</ns3:cad>
          </ns3:TrackPointExtension>
        </extensions>
      </trkpt>
      <trkpt lat="37.9477172903716564178466796875" lon="-107.11231791414320468902587890625">
        <ele>3807.39990234375</ele>
        <time>2026-01-06T17:39:18.000Z</time>
        <extensions>
          <ns3:TrackPointExtension>
            <ns3:hr>117</ns3:hr>
            <ns3:cad>0</ns3:cad>
          </ns3:TrackPointExtension>
        </extensions>
      </trkpt>
      <trkpt lat="37.94771921820938587188720703125" lon="-107.11230986751616001129150390625">
        <ele>3807.60009765625</ele>
        <time>2026-01-06T17:39:20.000Z</time>
        <extensions>
          <ns3:TrackPointExtension>
            <ns3:hr>118</ns3:hr>
            <ns3:cad>0</ns3:cad>
          </ns3:TrackPointExtension>
        </extensions>
      </trkpt>
      <trkpt lat="37.94772072695195674896240234375" lon="-107.11228421889245510101318359375">
        <ele>3808</ele>
        <time>2026-01-06T17:39:24.000Z</time>
        <extensions>
          <ns3:TrackPointExtension>
            <ns3:hr>118</ns3:hr>
            <ns3:cad>0</ns3:cad>
          </ns3:TrackPointExtension>
        </extensions>
      </trkpt>
      <trkpt lat="37.9477223195135593414306640625" lon="-107.11225722916424274444580078125">
        <ele>3808.39990234375</ele>
        <time>2026-01-06T17:39:30.000Z</time>
        <extensions>
          <ns3:TrackPointExtension>
            <ns3:hr>119</ns3:hr>
            <ns3:cad>0</ns3:cad>
          </ns3:TrackPointExtension>
        </extensions>
      </trkpt>
      <trkpt lat="37.94772726483643054962158203125" lon="-107.11225144565105438232421875">
        <ele>3808.800048828125</ele>
        <time>2026-01-06T17:39:32.000Z</time>
        <extensions>
          <ns3:TrackPointExtension>
            <ns3:hr>117</ns3:hr>
            <ns3:cad>0</ns3:cad>
          </ns3:TrackPointExtension>
        </extensions>
      </trkpt>
      <trkpt lat="37.94773078523576259613037109375" lon="-107.11223560385406017303466796875">
        <ele>3809.39990234375</ele>
        <time>2026-01-06T17:39:36.000Z</time>
        <extensions>
          <ns3:TrackPointExtension>
            <ns3:hr>115</ns3:hr>
            <ns3:cad>0</ns3:cad>
          </ns3:TrackPointExtension>
        </extensions>
      </trkpt>
      <trkpt lat="37.94774117879569530487060546875" lon="-107.11220291443169116973876953125">
        <ele>3809.60009765625</ele>
        <time>2026-01-06T17:39:42.000Z</time>
        <extensions>
          <ns3:TrackPointExtension>
            <ns3:hr>115</ns3:hr>
            <ns3:cad>0</ns3:cad>
          </ns3:TrackPointExtension>
        </extensions>
      </trkpt>
      <trkpt lat="37.947745285928249359130859375" lon="-107.11219352670013904571533203125">
        <ele>3809.800048828125</ele>
        <time>2026-01-06T17:39:45.000Z</time>
        <extensions>
          <ns3:TrackPointExtension>
            <ns3:hr>114</ns3:hr>
            <ns3:cad>0</ns3:cad>
          </ns3:TrackPointExtension>
        </extensions>
      </trkpt>
      <trkpt lat="37.947751320898532867431640625" lon="-107.11217659525573253631591796875">
        <ele>3810</ele>
        <time>2026-01-06T17:39:50.000Z</time>
        <extensions>
          <ns3:TrackPointExtension>
            <ns3:hr>117</ns3:hr>
            <ns3:cad>0</ns3:cad>
          </ns3:TrackPointExtension>
        </extensions>
      </trkpt>
      <trkpt lat="37.94775978662073612213134765625" lon="-107.11215413175523281097412109375">
        <ele>3811</ele>
        <time>2026-01-06T17:39:56.000Z</time>
        <extensions>
          <ns3:TrackPointExtension>
            <ns3:hr>116</ns3:hr>
            <ns3:cad>0</ns3:cad>
          </ns3:TrackPointExtension>
        </extensions>
      </trkpt>
      <trkpt lat="37.9477598704397678375244140625" lon="-107.11214818060398101806640625">
        <ele>3811.199951171875</ele>
        <time>2026-01-06T17:39:57.000Z</time>
        <extensions>
          <ns3:TrackPointExtension>
            <ns3:hr>116</ns3:hr>
            <ns3:cad>0</ns3:cad>
          </ns3:TrackPointExtension>
        </extensions>
      </trkpt>
      <trkpt lat="37.94776146300137042999267578125" lon="-107.11214608512818813323974609375">
        <ele>3810.39990234375</ele>
        <time>2026-01-06T17:40:03.000Z</time>
        <extensions>
          <ns3:TrackPointExtension>
            <ns3:hr>116</ns3:hr>
            <ns3:cad>0</ns3:cad>
          </ns3:TrackPointExtension>
        </extensions>
      </trkpt>
      <trkpt lat="37.94776146300137042999267578125" lon="-107.11214608512818813323974609375">
        <ele>3810.39990234375</ele>
        <time>2026-01-06T17:40:06.000Z</time>
        <extensions>
          <ns3:TrackPointExtension>
            <ns3:hr>119</ns3:hr>
            <ns3:cad>0</ns3:cad>
          </ns3:TrackPointExtension>
        </extensions>
      </trkpt>
      <trkpt lat="37.94776146300137042999267578125" lon="-107.11214608512818813323974609375">
        <ele>3810.39990234375</ele>
        <time>2026-01-06T17:40:07.000Z</time>
        <extensions>
          <ns3:TrackPointExtension>
            <ns3:hr>124</ns3:hr>
            <ns3:cad>0</ns3:cad>
          </ns3:TrackPointExtension>
        </extensions>
      </trkpt>
      <trkpt lat="37.94776146300137042999267578125" lon="-107.11214608512818813323974609375">
        <ele>3810.39990234375</ele>
        <time>2026-01-06T17:40:08.000Z</time>
        <extensions>
          <ns3:TrackPointExtension>
            <ns3:hr>131</ns3:hr>
            <ns3:cad>0</ns3:cad>
          </ns3:TrackPointExtension>
        </extensions>
      </trkpt>
      <trkpt lat="37.94775945134460926055908203125" lon="-107.11214256472885608673095703125">
        <ele>3810.60009765625</ele>
        <time>2026-01-06T17:40:10.000Z</time>
        <extensions>
          <ns3:TrackPointExtension>
            <ns3:hr>131</ns3:hr>
            <ns3:cad>0</ns3:cad>
          </ns3:TrackPointExtension>
        </extensions>
      </trkpt>
      <trkpt lat="37.9477642290294170379638671875" lon="-107.11212211288511753082275390625">
        <ele>3811.39990234375</ele>
        <time>2026-01-06T17:40:15.000Z</time>
        <extensions>
          <ns3:TrackPointExtension>
            <ns3:hr>130</ns3:hr>
            <ns3:cad>0</ns3:cad>
          </ns3:TrackPointExtension>
        </extensions>
      </trkpt>
      <trkpt lat="37.9477642290294170379638671875" lon="-107.11212211288511753082275390625">
        <ele>3811.199951171875</ele>
        <time>2026-01-06T17:40:21.000Z</time>
        <extensions>
          <ns3:TrackPointExtension>
            <ns3:hr>126</ns3:hr>
            <ns3:cad>0</ns3:cad>
          </ns3:TrackPointExtension>
        </extensions>
      </trkpt>
      <trkpt lat="37.9477642290294170379638671875" lon="-107.11212211288511753082275390625">
        <ele>3810.800048828125</ele>
        <time>2026-01-06T17:40:27.000Z</time>
        <extensions>
          <ns3:TrackPointExtension>
            <ns3:hr>125</ns3:hr>
            <ns3:cad>0</ns3:cad>
          </ns3:TrackPointExtension>
        </extensions>
      </trkpt>
      <trkpt lat="37.9477642290294170379638671875" lon="-107.11212211288511753082275390625">
        <ele>3810.800048828125</ele>
        <time>2026-01-06T17:40:28.000Z</time>
        <extensions>
          <ns3:TrackPointExtension>
            <ns3:hr>125</ns3:hr>
            <ns3:cad>0</ns3:cad>
          </ns3:TrackPointExtension>
        </extensions>
      </trkpt>
      <trkpt lat="37.9477642290294170379638671875" lon="-107.11212211288511753082275390625">
        <ele>3810.60009765625</ele>
        <time>2026-01-06T17:40:34.000Z</time>
        <extensions>
          <ns3:TrackPointExtension>
            <ns3:hr>122</ns3:hr>
            <ns3:cad>0</ns3:cad>
          </ns3:TrackPointExtension>
        </extensions>
      </trkpt>
      <trkpt lat="37.9477642290294170379638671875" lon="-107.11212211288511753082275390625">
        <ele>3810.800048828125</ele>
        <time>2026-01-06T17:40:37.000Z</time>
        <extensions>
          <ns3:TrackPointExtension>
            <ns3:hr>122</ns3:hr>
            <ns3:cad>0</ns3:cad>
          </ns3:TrackPointExtension>
        </extensions>
      </trkpt>
      <trkpt lat="37.9477642290294170379638671875" lon="-107.11212211288511753082275390625">
        <ele>3811</ele>
        <time>2026-01-06T17:40:40.000Z</time>
        <extensions>
          <ns3:TrackPointExtension>
            <ns3:hr>119</ns3:hr>
            <ns3:cad>0</ns3:cad>
          </ns3:TrackPointExtension>
        </extensions>
      </trkpt>
      <trkpt lat="37.9477642290294170379638671875" lon="-107.11212211288511753082275390625">
        <ele>3811</ele>
        <time>2026-01-06T17:40:42.000Z</time>
        <extensions>
          <ns3:TrackPointExtension>
            <ns3:hr>116</ns3:hr>
            <ns3:cad>0</ns3:cad>
          </ns3:TrackPointExtension>
        </extensions>
      </trkpt>
      <trkpt lat="37.9477642290294170379638671875" lon="-107.11212211288511753082275390625">
        <ele>3811</ele>
        <time>2026-01-06T17:40:43.000Z</time>
        <extensions>
          <ns3:TrackPointExtension>
            <ns3:hr>112</ns3:hr>
            <ns3:cad>0</ns3:cad>
          </ns3:TrackPointExtension>
        </extensions>
      </trkpt>
      <trkpt lat="37.9477642290294170379638671875" lon="-107.11212211288511753082275390625">
        <ele>3811.199951171875</ele>
        <time>2026-01-06T17:40:49.000Z</time>
        <extensions>
          <ns3:TrackPointExtension>
            <ns3:hr>109</ns3:hr>
            <ns3:cad>0</ns3:cad>
          </ns3:TrackPointExtension>
        </extensions>
      </trkpt>
      <trkpt lat="37.9477642290294170379638671875" lon="-107.11212211288511753082275390625">
        <ele>3811.199951171875</ele>
        <time>2026-01-06T17:40:51.000Z</time>
        <extensions>
          <ns3:TrackPointExtension>
            <ns3:hr>107</ns3:hr>
            <ns3:cad>0</ns3:cad>
          </ns3:TrackPointExtension>
        </extensions>
      </trkpt>
      <trkpt lat="37.94776682741940021514892578125" lon="-107.11212244816124439239501953125">
        <ele>3811.199951171875</ele>
        <time>2026-01-06T17:40:55.000Z</time>
        <extensions>
          <ns3:TrackPointExtension>
            <ns3:hr>110</ns3:hr>
            <ns3:cad>0</ns3:cad>
          </ns3:TrackPointExtension>
        </extensions>
      </trkpt>
      <trkpt lat="37.94778023846447467803955078125" lon="-107.11212127469480037689208984375">
        <ele>3811.39990234375</ele>
        <time>2026-01-06T17:40:57.000Z</time>
        <extensions>
          <ns3:TrackPointExtension>
            <ns3:hr>107</ns3:hr>
            <ns3:cad>0</ns3:cad>
          </ns3:TrackPointExtension>
        </extensions>
      </trkpt>
      <trkpt lat="37.947805635631084442138671875" lon="-107.1121181733906269073486328125">
        <ele>3811.60009765625</ele>
        <time>2026-01-06T17:41:00.000Z</time>
        <extensions>
          <ns3:TrackPointExtension>
            <ns3:hr>105</ns3:hr>
            <ns3:cad>0</ns3:cad>
          </ns3:TrackPointExtension>
        </extensions>
      </trkpt>
      <trkpt lat="37.94784343801438808441162109375" lon="-107.11209981702268123626708984375">
        <ele>3812.199951171875</ele>
        <time>2026-01-06T17:41:05.000Z</time>
        <extensions>
          <ns3:TrackPointExtension>
            <ns3:hr>106</ns3:hr>
            <ns3:cad>40</ns3:cad>
          </ns3:TrackPointExtension>
        </extensions>
      </trkpt>
      <trkpt lat="37.94785332866013050079345703125" lon="-107.1120997332036495208740234375">
        <ele>3812.39990234375</ele>
        <time>2026-01-06T17:41:06.000Z</time>
        <extensions>
          <ns3:TrackPointExtension>
            <ns3:hr>107</ns3:hr>
            <ns3:cad>40</ns3:cad>
          </ns3:TrackPointExtension>
        </extensions>
      </trkpt>
      <trkpt lat="37.94786925427615642547607421875" lon="-107.11208137683570384979248046875">
        <ele>3812.800048828125</ele>
        <time>2026-01-06T17:41:09.000Z</time>
        <extensions>
          <ns3:TrackPointExtension>
            <ns3:hr>110</ns3:hr>
            <ns3:cad>40</ns3:cad>
          </ns3:TrackPointExtension>
        </extensions>
      </trkpt>
      <trkpt lat="37.94788710772991180419921875" lon="-107.11207165382802486419677734375">
        <ele>3812.800048828125</ele>
        <time>2026-01-06T17:41:12.000Z</time>
        <extensions>
          <ns3:TrackPointExtension>
            <ns3:hr>112</ns3:hr>
            <ns3:cad>0</ns3:cad>
          </ns3:TrackPointExtension>
        </extensions>
      </trkpt>
      <trkpt lat="37.94789641164243221282958984375" lon="-107.11206662468612194061279296875">
        <ele>3813.199951171875</ele>
        <time>2026-01-06T17:41:14.000Z</time>
        <extensions>
          <ns3:TrackPointExtension>
            <ns3:hr>112</ns3:hr>
            <ns3:cad>0</ns3:cad>
          </ns3:TrackPointExtension>
        </extensions>
      </trkpt>
      <trkpt lat="37.94792457483708858489990234375" lon="-107.11204701103270053863525390625">
        <ele>3814.199951171875</ele>
        <time>2026-01-06T17:41:18.000Z</time>
        <extensions>
          <ns3:TrackPointExtension>
            <ns3:hr>113</ns3:hr>
            <ns3:cad>0</ns3:cad>
          </ns3:TrackPointExtension>
        </extensions>
      </trkpt>
      <trkpt lat="37.94793161563575267791748046875" lon="-107.112034857273101806640625">
        <ele>3814.39990234375</ele>
        <time>2026-01-06T17:41:20.000Z</time>
        <extensions>
          <ns3:TrackPointExtension>
            <ns3:hr>112</ns3:hr>
            <ns3:cad>0</ns3:cad>
          </ns3:TrackPointExtension>
        </extensions>
      </trkpt>
      <trkpt lat="37.94795022346079349517822265625" lon="-107.1120219491422176361083984375">
        <ele>3814.800048828125</ele>
        <time>2026-01-06T17:41:23.000Z</time>
        <extensions>
          <ns3:TrackPointExtension>
            <ns3:hr>110</ns3:hr>
            <ns3:cad>0</ns3:cad>
          </ns3:TrackPointExtension>
        </extensions>
      </trkpt>
      <trkpt lat="37.9479664005339145660400390625" lon="-107.11199822835624217987060546875">
        <ele>3815.39990234375</ele>
        <time>2026-01-06T17:41:28.000Z</time>
        <extensions>
          <ns3:TrackPointExtension>
            <ns3:hr>111</ns3:hr>
            <ns3:cad>0</ns3:cad>
          </ns3:TrackPointExtension>
        </extensions>
      </trkpt>
      <trkpt lat="37.9479878582060337066650390625" lon="-107.1119820512831211090087890625">
        <ele>3815.60009765625</ele>
        <time>2026-01-06T17:41:33.000Z</time>
        <extensions>
          <ns3:TrackPointExtension>
            <ns3:hr>112</ns3:hr>
            <ns3:cad>0</ns3:cad>
          </ns3:TrackPointExtension>
        </extensions>
      </trkpt>
      <trkpt lat="37.94801895506680011749267578125" lon="-107.11197325028479099273681640625">
        <ele>3816.39990234375</ele>
        <time>2026-01-06T17:41:39.000Z</time>
        <extensions>
          <ns3:TrackPointExtension>
            <ns3:hr>111</ns3:hr>
            <ns3:cad>0</ns3:cad>
          </ns3:TrackPointExtension>
        </extensions>
      </trkpt>
      <trkpt lat="37.94802549295127391815185546875" lon="-107.11197174154222011566162109375">
        <ele>3816.60009765625</ele>
        <time>2026-01-06T17:41:40.000Z</time>
        <extensions>
          <ns3:TrackPointExtension>
            <ns3:hr>111</ns3:hr>
            <ns3:cad>0</ns3:cad>
          </ns3:TrackPointExtension>
        </extensions>
      </trkpt>
      <trkpt lat="37.948061116039752960205078125" lon="-107.111939303576946258544921875">
        <ele>3816.60009765625</ele>
        <time>2026-01-06T17:41:46.000Z</time>
        <extensions>
          <ns3:TrackPointExtension>
            <ns3:hr>111</ns3:hr>
            <ns3:cad>0</ns3:cad>
          </ns3:TrackPointExtension>
        </extensions>
      </trkpt>
      <trkpt lat="37.94806673191487789154052734375" lon="-107.111935950815677642822265625">
        <ele>3816.60009765625</ele>
        <time>2026-01-06T17:41:47.000Z</time>
        <extensions>
          <ns3:TrackPointExtension>
            <ns3:hr>112</ns3:hr>
            <ns3:cad>0</ns3:cad>
          </ns3:TrackPointExtension>
        </extensions>
      </trkpt>
      <trkpt lat="37.94810570776462554931640625" lon="-107.111919187009334564208984375">
        <ele>3816.800048828125</ele>
        <time>2026-01-06T17:41:53.000Z</time>
        <extensions>
          <ns3:TrackPointExtension>
            <ns3:hr>112</ns3:hr>
            <ns3:cad>0</ns3:cad>
          </ns3:TrackPointExtension>
        </extensions>
      </trkpt>
      <trkpt lat="37.948107384145259857177734375" lon="-107.1119181811809539794921875">
        <ele>3816.800048828125</ele>
        <time>2026-01-06T17:41:54.000Z</time>
        <extensions>
          <ns3:TrackPointExtension>
            <ns3:hr>113</ns3:hr>
            <ns3:cad>0</ns3:cad>
          </ns3:TrackPointExtension>
        </extensions>
      </trkpt>
      <trkpt lat="37.94813445769250392913818359375" lon="-107.11190166883170604705810546875">
        <ele>3817.800048828125</ele>
        <time>2026-01-06T17:41:59.000Z</time>
        <extensions>
          <ns3:TrackPointExtension>
            <ns3:hr>115</ns3:hr>
            <ns3:cad>0</ns3:cad>
          </ns3:TrackPointExtension>
        </extensions>
      </trkpt>
      <trkpt lat="37.94814216904342174530029296875" lon="-107.11189806461334228515625">
        <ele>3817.800048828125</ele>
        <time>2026-01-06T17:42:00.000Z</time>
        <extensions>
          <ns3:TrackPointExtension>
            <ns3:hr>115</ns3:hr>
            <ns3:cad>0</ns3:cad>
          </ns3:TrackPointExtension>
        </extensions>
      </trkpt>
      <trkpt lat="37.94816077686846256256103515625" lon="-107.1118942089378833770751953125">
        <ele>3817.800048828125</ele>
        <time>2026-01-06T17:42:03.000Z</time>
        <extensions>
          <ns3:TrackPointExtension>
            <ns3:hr>118</ns3:hr>
            <ns3:cad>0</ns3:cad>
          </ns3:TrackPointExtension>
        </extensions>
      </trkpt>
      <trkpt lat="37.948169745504856109619140625" lon="-107.11188490502536296844482421875">
        <ele>3818.199951171875</ele>
        <time>2026-01-06T17:42:06.000Z</time>
        <extensions>
          <ns3:TrackPointExtension>
            <ns3:hr>119</ns3:hr>
            <ns3:cad>0</ns3:cad>
          </ns3:TrackPointExtension>
        </extensions>
      </trkpt>
      <trkpt lat="37.9481736011803150177001953125" lon="-107.1118791215121746063232421875">
        <ele>3818.39990234375</ele>
        <time>2026-01-06T17:42:12.000Z</time>
        <extensions>
          <ns3:TrackPointExtension>
            <ns3:hr>121</ns3:hr>
            <ns3:cad>0</ns3:cad>
          </ns3:TrackPointExtension>
        </extensions>
      </trkpt>
      <trkpt lat="37.9481863416731357574462890625" lon="-107.1118700690567493438720703125">
        <ele>3818.39990234375</ele>
        <time>2026-01-06T17:42:18.000Z</time>
        <extensions>
          <ns3:TrackPointExtension>
            <ns3:hr>122</ns3:hr>
            <ns3:cad>0</ns3:cad>
          </ns3:TrackPointExtension>
        </extensions>
      </trkpt>
      <trkpt lat="37.94819413684308528900146484375" lon="-107.11186428554356098175048828125">
        <ele>3818.800048828125</ele>
        <time>2026-01-06T17:42:20.000Z</time>
        <extensions>
          <ns3:TrackPointExtension>
            <ns3:hr>122</ns3:hr>
            <ns3:cad>0</ns3:cad>
          </ns3:TrackPointExtension>
        </extensions>
      </trkpt>
      <trkpt lat="37.9481975734233856201171875" lon="-107.11186294443905353546142578125">
        <ele>3818.800048828125</ele>
        <time>2026-01-06T17:42:21.000Z</time>
        <extensions>
          <ns3:TrackPointExtension>
            <ns3:hr>123</ns3:hr>
            <ns3:cad>0</ns3:cad>
          </ns3:TrackPointExtension>
        </extensions>
      </trkpt>
      <trkpt lat="37.9482004232704639434814453125" lon="-107.1118549816310405731201171875">
        <ele>3819</ele>
        <time>2026-01-06T17:42:22.000Z</time>
        <extensions>
          <ns3:TrackPointExtension>
            <ns3:hr>126</ns3:hr>
            <ns3:cad>0</ns3:cad>
          </ns3:TrackPointExtension>
        </extensions>
      </trkpt>
      <trkpt lat="37.948210649192333221435546875" lon="-107.11183226667344570159912109375">
        <ele>3819.60009765625</ele>
        <time>2026-01-06T17:42:26.000Z</time>
        <extensions>
          <ns3:TrackPointExtension>
            <ns3:hr>129</ns3:hr>
            <ns3:cad>0</ns3:cad>
          </ns3:TrackPointExtension>
        </extensions>
      </trkpt>
      <trkpt lat="37.9482393153011798858642578125" lon="-107.11181248538196086883544921875">
        <ele>3820</ele>
        <time>2026-01-06T17:42:32.000Z</time>
        <extensions>
          <ns3:TrackPointExtension>
            <ns3:hr>127</ns3:hr>
            <ns3:cad>0</ns3:cad>
          </ns3:TrackPointExtension>
        </extensions>
      </trkpt>
      <trkpt lat="37.94824476353824138641357421875" lon="-107.1118097193539142608642578125">
        <ele>3820</ele>
        <time>2026-01-06T17:42:33.000Z</time>
        <extensions>
          <ns3:TrackPointExtension>
            <ns3:hr>127</ns3:hr>
            <ns3:cad>0</ns3:cad>
          </ns3:TrackPointExtension>
        </extensions>
      </trkpt>
      <trkpt lat="37.94827326200902462005615234375" lon="-107.11178666912019252777099609375">
        <ele>3820.39990234375</ele>
        <time>2026-01-06T17:42:39.000Z</time>
        <extensions>
          <ns3:TrackPointExtension>
            <ns3:hr>128</ns3:hr>
            <ns3:cad>0</ns3:cad>
          </ns3:TrackPointExtension>
        </extensions>
      </trkpt>
      <trkpt lat="37.9482989944517612457275390625" lon="-107.111772336065769195556640625">
        <ele>3820.800048828125</ele>
        <time>2026-01-06T17:42:45.000Z</time>
        <extensions>
          <ns3:TrackPointExtension>
            <ns3:hr>128</ns3:hr>
            <ns3:cad>0</ns3:cad>
          </ns3:TrackPointExtension>
        </extensions>
      </trkpt>
      <trkpt lat="37.94831047765910625457763671875" lon="-107.11176588200032711029052734375">
        <ele>3821</ele>
        <time>2026-01-06T17:42:47.000Z</time>
        <extensions>
          <ns3:TrackPointExtension>
            <ns3:hr>128</ns3:hr>
            <ns3:cad>0</ns3:cad>
          </ns3:TrackPointExtension>
        </extensions>
      </trkpt>
      <trkpt lat="37.94832372106611728668212890625" lon="-107.11175364442169666290283203125">
        <ele>3821</ele>
        <time>2026-01-06T17:42:51.000Z</time>
        <extensions>
          <ns3:TrackPointExtension>
            <ns3:hr>128</ns3:hr>
            <ns3:cad>0</ns3:cad>
          </ns3:TrackPointExtension>
        </extensions>
      </trkpt>
      <trkpt lat="37.94834048487246036529541015625" lon="-107.1117411553859710693359375">
        <ele>3821.199951171875</ele>
        <time>2026-01-06T17:42:57.000Z</time>
        <extensions>
          <ns3:TrackPointExtension>
            <ns3:hr>126</ns3:hr>
            <ns3:cad>0</ns3:cad>
          </ns3:TrackPointExtension>
        </extensions>
      </trkpt>
      <trkpt lat="37.94834651984274387359619140625" lon="-107.1117329411208629608154296875">
        <ele>3821.39990234375</ele>
        <time>2026-01-06T17:42:59.000Z</time>
        <extensions>
          <ns3:TrackPointExtension>
            <ns3:hr>125</ns3:hr>
            <ns3:cad>0</ns3:cad>
          </ns3:TrackPointExtension>
        </extensions>
      </trkpt>
      <trkpt lat="37.94835272245109081268310546875" lon="-107.1117322705686092376708984375">
        <ele>3821.60009765625</ele>
        <time>2026-01-06T17:43:01.000Z</time>
        <extensions>
          <ns3:TrackPointExtension>
            <ns3:hr>128</ns3:hr>
            <ns3:cad>0</ns3:cad>
          </ns3:TrackPointExtension>
        </extensions>
      </trkpt>
      <trkpt lat="37.9483710788190364837646484375" lon="-107.1117252297699451446533203125">
        <ele>3821.800048828125</ele>
        <time>2026-01-06T17:43:05.000Z</time>
        <extensions>
          <ns3:TrackPointExtension>
            <ns3:hr>130</ns3:hr>
            <ns3:cad>0</ns3:cad>
          </ns3:TrackPointExtension>
        </extensions>
      </trkpt>
      <trkpt lat="37.948383651673793792724609375" lon="-107.11171022616326808929443359375">
        <ele>3822.199951171875</ele>
        <time>2026-01-06T17:43:09.000Z</time>
        <extensions>
          <ns3:TrackPointExtension>
            <ns3:hr>129</ns3:hr>
            <ns3:cad>0</ns3:cad>
          </ns3:TrackPointExtension>
        </extensions>
      </trkpt>
      <trkpt lat="37.94839614070951938629150390625" lon="-107.111703939735889434814453125">
        <ele>3822.60009765625</ele>
        <time>2026-01-06T17:43:12.000Z</time>
        <extensions>
          <ns3:TrackPointExtension>
            <ns3:hr>129</ns3:hr>
            <ns3:cad>0</ns3:cad>
          </ns3:TrackPointExtension>
        </extensions>
      </trkpt>
      <trkpt lat="37.9484223760664463043212890625" lon="-107.111686505377292633056640625">
        <ele>3822.39990234375</ele>
        <time>2026-01-06T17:43:17.000Z</time>
        <extensions>
          <ns3:TrackPointExtension>
            <ns3:hr>128</ns3:hr>
            <ns3:cad>0</ns3:cad>
          </ns3:TrackPointExtension>
        </extensions>
      </trkpt>
      <trkpt lat="37.9484508745372295379638671875" lon="-107.11166580207645893096923828125">
        <ele>3823</ele>
        <time>2026-01-06T17:43:23.000Z</time>
        <extensions>
          <ns3:TrackPointExtension>
            <ns3:hr>128</ns3:hr>
            <ns3:cad>58</ns3:cad>
          </ns3:TrackPointExtension>
        </extensions>
      </trkpt>
      <trkpt lat="37.9484555684030055999755859375" lon="-107.11166412569582462310791015625">
        <ele>3823.199951171875</ele>
        <time>2026-01-06T17:43:24.000Z</time>
        <extensions>
          <ns3:TrackPointExtension>
            <ns3:hr>127</ns3:hr>
            <ns3:cad>0</ns3:cad>
          </ns3:TrackPointExtension>
        </extensions>
      </trkpt>
      <trkpt lat="37.94846084900200366973876953125" lon="-107.1116618625819683074951171875">
        <ele>3823.199951171875</ele>
        <time>2026-01-06T17:43:25.000Z</time>
        <extensions>
          <ns3:TrackPointExtension>
            <ns3:hr>127</ns3:hr>
            <ns3:cad>0</ns3:cad>
          </ns3:TrackPointExtension>
        </extensions>
      </trkpt>
      <trkpt lat="37.9484991542994976043701171875" lon="-107.1116497926414012908935546875">
        <ele>3823.800048828125</ele>
        <time>2026-01-06T17:43:31.000Z</time>
        <extensions>
          <ns3:TrackPointExtension>
            <ns3:hr>129</ns3:hr>
            <ns3:cad>0</ns3:cad>
          </ns3:TrackPointExtension>
        </extensions>
      </trkpt>
      <trkpt lat="37.94851935468614101409912109375" lon="-107.11163881234824657440185546875">
        <ele>3824.199951171875</ele>
        <time>2026-01-06T17:43:35.000Z</time>
        <extensions>
          <ns3:TrackPointExtension>
            <ns3:hr>130</ns3:hr>
            <ns3:cad>0</ns3:cad>
          </ns3:TrackPointExtension>
        </extensions>
      </trkpt>
      <trkpt lat="37.94853863306343555450439453125" lon="-107.11162959225475788116455078125">
        <ele>3824.60009765625</ele>
        <time>2026-01-06T17:43:39.000Z</time>
        <extensions>
          <ns3:TrackPointExtension>
            <ns3:hr>129</ns3:hr>
            <ns3:cad>0</ns3:cad>
          </ns3:TrackPointExtension>
        </extensions>
      </trkpt>
      <trkpt lat="37.94857065193355083465576171875" lon="-107.11160595528781414031982421875">
        <ele>3824.800048828125</ele>
        <time>2026-01-06T17:43:44.000Z</time>
        <extensions>
          <ns3:TrackPointExtension>
            <ns3:hr>132</ns3:hr>
            <ns3:cad>0</ns3:cad>
          </ns3:TrackPointExtension>
        </extensions>
      </trkpt>
      <trkpt lat="37.94857467524707317352294921875" lon="-107.1116030216217041015625">
        <ele>3824.800048828125</ele>
        <time>2026-01-06T17:43:45.000Z</time>
        <extensions>
          <ns3:TrackPointExtension>
            <ns3:hr>133</ns3:hr>
            <ns3:cad>0</ns3:cad>
          </ns3:TrackPointExtension>
        </extensions>
      </trkpt>
      <trkpt lat="37.948583476245403289794921875" lon="-107.11160042323172092437744140625">
        <ele>3825.199951171875</ele>
        <time>2026-01-06T17:43:49.000Z</time>
        <extensions>
          <ns3:TrackPointExtension>
            <ns3:hr>134</ns3:hr>
            <ns3:cad>0</ns3:cad>
          </ns3:TrackPointExtension>
        </extensions>
      </trkpt>
      <trkpt lat="37.948588170111179351806640625" lon="-107.1115998364984989166259765625">
        <ele>3825.39990234375</ele>
        <time>2026-01-06T17:43:51.000Z</time>
        <extensions>
          <ns3:TrackPointExtension>
            <ns3:hr>134</ns3:hr>
            <ns3:cad>0</ns3:cad>
          </ns3:TrackPointExtension>
        </extensions>
      </trkpt>
      <trkpt lat="37.9486186802387237548828125" lon="-107.11157360114157199859619140625">
        <ele>3825.800048828125</ele>
        <time>2026-01-06T17:43:57.000Z</time>
        <extensions>
          <ns3:TrackPointExtension>
            <ns3:hr>134</ns3:hr>
            <ns3:cad>0</ns3:cad>
          </ns3:TrackPointExtension>
        </extensions>
      </trkpt>
      <trkpt lat="37.9486403055489063262939453125" lon="-107.111561782658100128173828125">
        <ele>3826.199951171875</ele>
        <time>2026-01-06T17:44:01.000Z</time>
        <extensions>
          <ns3:TrackPointExtension>
            <ns3:hr>131</ns3:hr>
            <ns3:cad>66</ns3:cad>
          </ns3:TrackPointExtension>
        </extensions>
      </trkpt>
      <trkpt lat="37.94864810071885585784912109375" lon="-107.1115572564303874969482421875">
        <ele>3826.199951171875</ele>
        <time>2026-01-06T17:44:02.000Z</time>
        <extensions>
          <ns3:TrackPointExtension>
            <ns3:hr>130</ns3:hr>
            <ns3:cad>0</ns3:cad>
          </ns3:TrackPointExtension>
        </extensions>
      </trkpt>
      <trkpt lat="37.94865312986075878143310546875" lon="-107.1115585975348949432373046875">
        <ele>3826.199951171875</ele>
        <time>2026-01-06T17:44:03.000Z</time>
        <extensions>
          <ns3:TrackPointExtension>
            <ns3:hr>126</ns3:hr>
            <ns3:cad>0</ns3:cad>
          </ns3:TrackPointExtension>
        </extensions>
      </trkpt>
      <trkpt lat="37.94865882955491542816162109375" lon="-107.1115532331168651580810546875">
        <ele>3826.39990234375</ele>
        <time>2026-01-06T17:44:04.000Z</time>
        <extensions>
          <ns3:TrackPointExtension>
            <ns3:hr>122</ns3:hr>
            <ns3:cad>0</ns3:cad>
          </ns3:TrackPointExtension>
        </extensions>
      </trkpt>
      <trkpt lat="37.9486734978854656219482421875" lon="-107.1115455217659473419189453125">
        <ele>3827</ele>
        <time>2026-01-06T17:44:07.000Z</time>
        <extensions>
          <ns3:TrackPointExtension>
            <ns3:hr>120</ns3:hr>
            <ns3:cad>0</ns3:cad>
          </ns3:TrackPointExtension>
        </extensions>
      </trkpt>
      <trkpt lat="37.94869244098663330078125" lon="-107.11153185926377773284912109375">
        <ele>3827.199951171875</ele>
        <time>2026-01-06T17:44:11.000Z</time>
        <extensions>
          <ns3:TrackPointExtension>
            <ns3:hr>120</ns3:hr>
            <ns3:cad>0</ns3:cad>
          </ns3:TrackPointExtension>
        </extensions>
      </trkpt>
      <trkpt lat="37.948710881173610687255859375" lon="-107.11151761002838611602783203125">
        <ele>3827.199951171875</ele>
        <time>2026-01-06T17:44:15.000Z</time>
        <extensions>
          <ns3:TrackPointExtension>
            <ns3:hr>121</ns3:hr>
            <ns3:cad>0</ns3:cad>
          </ns3:TrackPointExtension>
        </extensions>
      </trkpt>
      <trkpt lat="37.9487338475883007049560546875" lon="-107.11150855757296085357666015625">
        <ele>3828</ele>
        <time>2026-01-06T17:44:20.000Z</time>
        <extensions>
          <ns3:TrackPointExtension>
            <ns3:hr>120</ns3:hr>
            <ns3:cad>55</ns3:cad>
          </ns3:TrackPointExtension>
        </extensions>
      </trkpt>
      <trkpt lat="37.94874868355691432952880859375" lon="-107.11149229668080806732177734375">
        <ele>3828.39990234375</ele>
        <time>2026-01-06T17:44:23.000Z</time>
        <extensions>
          <ns3:TrackPointExtension>
            <ns3:hr>121</ns3:hr>
            <ns3:cad>0</ns3:cad>
          </ns3:TrackPointExtension>
        </extensions>
      </trkpt>
      <trkpt lat="37.9487673752009868621826171875" lon="-107.1114828251302242279052734375">
        <ele>3828.60009765625</ele>
        <time>2026-01-06T17:44:26.000Z</time>
        <extensions>
          <ns3:TrackPointExtension>
            <ns3:hr>121</ns3:hr>
            <ns3:cad>0</ns3:cad>
          </ns3:TrackPointExtension>
        </extensions>
      </trkpt>
      <trkpt lat="37.94878221116960048675537109375" lon="-107.111463882029056549072265625">
        <ele>3828.800048828125</ele>
        <time>2026-01-06T17:44:30.000Z</time>
        <extensions>
          <ns3:TrackPointExtension>
            <ns3:hr>124</ns3:hr>
            <ns3:cad>0</ns3:cad>
          </ns3:TrackPointExtension>
        </extensions>
      </trkpt>
      <trkpt lat="37.9487968795001506805419921875" lon="-107.11146027781069278717041015625">
        <ele>3829</ele>
        <time>2026-01-06T17:44:33.000Z</time>
        <extensions>
          <ns3:TrackPointExtension>
            <ns3:hr>124</ns3:hr>
            <ns3:cad>51</ns3:cad>
          </ns3:TrackPointExtension>
        </extensions>
      </trkpt>
      <trkpt lat="37.948814816772937774658203125" lon="-107.111455500125885009765625">
        <ele>3829.199951171875</ele>
        <time>2026-01-06T17:44:38.000Z</time>
        <extensions>
          <ns3:TrackPointExtension>
            <ns3:hr>126</ns3:hr>
            <ns3:cad>0</ns3:cad>
          </ns3:TrackPointExtension>
        </extensions>
      </trkpt>
      <trkpt lat="37.9488180018961429595947265625" lon="-107.11145390756428241729736328125">
        <ele>3829.39990234375</ele>
        <time>2026-01-06T17:44:39.000Z</time>
        <extensions>
          <ns3:TrackPointExtension>
            <ns3:hr>126</ns3:hr>
            <ns3:cad>0</ns3:cad>
          </ns3:TrackPointExtension>
        </extensions>
      </trkpt>
      <trkpt lat="37.9488458298146724700927734375" lon="-107.11144234053790569305419921875">
        <ele>3829.800048828125</ele>
        <time>2026-01-06T17:44:44.000Z</time>
        <extensions>
          <ns3:TrackPointExtension>
            <ns3:hr>128</ns3:hr>
            <ns3:cad>0</ns3:cad>
          </ns3:TrackPointExtension>
        </extensions>
      </trkpt>
      <trkpt lat="37.9488746635615825653076171875" lon="-107.1114328689873218536376953125">
        <ele>3830</ele>
        <time>2026-01-06T17:44:49.000Z</time>
        <extensions>
          <ns3:TrackPointExtension>
            <ns3:hr>131</ns3:hr>
            <ns3:cad>0</ns3:cad>
          </ns3:TrackPointExtension>
        </extensions>
      </trkpt>
      <trkpt lat="37.94888556003570556640625" lon="-107.1114224754273891448974609375">
        <ele>3830.199951171875</ele>
        <time>2026-01-06T17:44:51.000Z</time>
        <extensions>
          <ns3:TrackPointExtension>
            <ns3:hr>130</ns3:hr>
            <ns3:cad>0</ns3:cad>
          </ns3:TrackPointExtension>
        </extensions>
      </trkpt>
      <trkpt lat="37.9488909244537353515625" lon="-107.11141769774258136749267578125">
        <ele>3830.39990234375</ele>
        <time>2026-01-06T17:44:52.000Z</time>
        <extensions>
          <ns3:TrackPointExtension>
            <ns3:hr>130</ns3:hr>
            <ns3:cad>0</ns3:cad>
          </ns3:TrackPointExtension>
        </extensions>
      </trkpt>
      <trkpt lat="37.94890291057527065277099609375" lon="-107.11141451261937618255615234375">
        <ele>3830.800048828125</ele>
        <time>2026-01-06T17:44:57.000Z</time>
        <extensions>
          <ns3:TrackPointExtension>
            <ns3:hr>130</ns3:hr>
            <ns3:cad>0</ns3:cad>
          </ns3:TrackPointExtension>
        </extensions>
      </trkpt>
      <trkpt lat="37.94893174432218074798583984375" lon="-107.11139858700335025787353515625">
        <ele>3831.199951171875</ele>
        <time>2026-01-06T17:45:03.000Z</time>
        <extensions>
          <ns3:TrackPointExtension>
            <ns3:hr>130</ns3:hr>
            <ns3:cad>0</ns3:cad>
          </ns3:TrackPointExtension>
        </extensions>
      </trkpt>
      <trkpt lat="37.9489432275295257568359375" lon="-107.11139179766178131103515625">
        <ele>3831.39990234375</ele>
        <time>2026-01-06T17:45:05.000Z</time>
        <extensions>
          <ns3:TrackPointExtension>
            <ns3:hr>130</ns3:hr>
            <ns3:cad>0</ns3:cad>
          </ns3:TrackPointExtension>
        </extensions>
      </trkpt>
      <trkpt lat="37.94894389808177947998046875" lon="-107.11139020510017871856689453125">
        <ele>3831.39990234375</ele>
        <time>2026-01-06T17:45:06.000Z</time>
        <extensions>
          <ns3:TrackPointExtension>
            <ns3:hr>131</ns3:hr>
            <ns3:cad>0</ns3:cad>
          </ns3:TrackPointExtension>
        </extensions>
      </trkpt>
      <trkpt lat="37.9489608295261859893798828125" lon="-107.11139313876628875732421875">
        <ele>3831.800048828125</ele>
        <time>2026-01-06T17:45:10.000Z</time>
        <extensions>
          <ns3:TrackPointExtension>
            <ns3:hr>131</ns3:hr>
            <ns3:cad>0</ns3:cad>
          </ns3:TrackPointExtension>
        </extensions>
      </trkpt>
      <trkpt lat="37.94898170046508312225341796875" lon="-107.11137159727513790130615234375">
        <ele>3832.199951171875</ele>
        <time>2026-01-06T17:45:16.000Z</time>
        <extensions>
          <ns3:TrackPointExtension>
            <ns3:hr>130</ns3:hr>
            <ns3:cad>0</ns3:cad>
          </ns3:TrackPointExtension>
        </extensions>
      </trkpt>
      <trkpt lat="37.948993183672428131103515625" lon="-107.11136556230485439300537109375">
        <ele>3832.39990234375</ele>
        <time>2026-01-06T17:45:18.000Z</time>
        <extensions>
          <ns3:TrackPointExtension>
            <ns3:hr>130</ns3:hr>
            <ns3:cad>0</ns3:cad>
          </ns3:TrackPointExtension>
        </extensions>
      </trkpt>
      <trkpt lat="37.94900483451783657073974609375" lon="-107.11136438883841037750244140625">
        <ele>3832.39990234375</ele>
        <time>2026-01-06T17:45:20.000Z</time>
        <extensions>
          <ns3:TrackPointExtension>
            <ns3:hr>130</ns3:hr>
            <ns3:cad>0</ns3:cad>
          </ns3:TrackPointExtension>
        </extensions>
      </trkpt>
      <trkpt lat="37.9490263760089874267578125" lon="-107.11135852150619029998779296875">
        <ele>3833.199951171875</ele>
        <time>2026-01-06T17:45:25.000Z</time>
        <extensions>
          <ns3:TrackPointExtension>
            <ns3:hr>130</ns3:hr>
            <ns3:cad>0</ns3:cad>
          </ns3:TrackPointExtension>
        </extensions>
      </trkpt>
      <trkpt lat="37.94905663467943668365478515625" lon="-107.111340500414371490478515625">
        <ele>3833</ele>
        <time>2026-01-06T17:45:31.000Z</time>
        <extensions>
          <ns3:TrackPointExtension>
            <ns3:hr>130</ns3:hr>
            <ns3:cad>0</ns3:cad>
          </ns3:TrackPointExtension>
        </extensions>
      </trkpt>
      <trkpt lat="37.94907825998961925506591796875" lon="-107.1113232336938381195068359375">
        <ele>3833.60009765625</ele>
        <time>2026-01-06T17:45:35.000Z</time>
        <extensions>
          <ns3:TrackPointExtension>
            <ns3:hr>132</ns3:hr>
            <ns3:cad>0</ns3:cad>
          </ns3:TrackPointExtension>
        </extensions>
      </trkpt>
      <trkpt lat="37.9490925930440425872802734375" lon="-107.11131996475160121917724609375">
        <ele>3834.199951171875</ele>
        <time>2026-01-06T17:45:38.000Z</time>
        <extensions>
          <ns3:TrackPointExtension>
            <ns3:hr>131</ns3:hr>
            <ns3:cad>0</ns3:cad>
          </ns3:TrackPointExtension>
        </extensions>
      </trkpt>
      <trkpt lat="37.949118912220001220703125" lon="-107.11130739189684391021728515625">
        <ele>3834</ele>
        <time>2026-01-06T17:45:44.000Z</time>
        <extensions>
          <ns3:TrackPointExtension>
            <ns3:hr>131</ns3:hr>
            <ns3:cad>0</ns3:cad>
          </ns3:TrackPointExtension>
        </extensions>
      </trkpt>
      <trkpt lat="37.9491395317018032073974609375" lon="-107.11129180155694484710693359375">
        <ele>3834.39990234375</ele>
        <time>2026-01-06T17:45:50.000Z</time>
        <extensions>
          <ns3:TrackPointExtension>
            <ns3:hr>130</ns3:hr>
            <ns3:cad>0</ns3:cad>
          </ns3:TrackPointExtension>
        </extensions>
      </trkpt>
      <trkpt lat="37.94914774596691131591796875" lon="-107.111289538443088531494140625">
        <ele>3834.39990234375</ele>
        <time>2026-01-06T17:45:52.000Z</time>
        <extensions>
          <ns3:TrackPointExtension>
            <ns3:hr>130</ns3:hr>
            <ns3:cad>0</ns3:cad>
          </ns3:TrackPointExtension>
        </extensions>
      </trkpt>
      <trkpt lat="37.9491569660604000091552734375" lon="-107.1112910471856594085693359375">
        <ele>3834.60009765625</ele>
        <time>2026-01-06T17:45:54.000Z</time>
        <extensions>
          <ns3:TrackPointExtension>
            <ns3:hr>130</ns3:hr>
            <ns3:cad>75</ns3:cad>
          </ns3:TrackPointExtension>
        </extensions>
      </trkpt>
      <trkpt lat="37.94918890111148357391357421875" lon="-107.11127780377864837646484375">
        <ele>3835.199951171875</ele>
        <time>2026-01-06T17:45:59.000Z</time>
        <extensions>
          <ns3:TrackPointExtension>
            <ns3:hr>130</ns3:hr>
            <ns3:cad>0</ns3:cad>
          </ns3:TrackPointExtension>
        </extensions>
      </trkpt>
      <trkpt lat="37.949209772050380706787109375" lon="-107.11126481182873249053955078125">
        <ele>3835.800048828125</ele>
        <time>2026-01-06T17:46:05.000Z</time>
        <extensions>
          <ns3:TrackPointExtension>
            <ns3:hr>130</ns3:hr>
            <ns3:cad>0</ns3:cad>
          </ns3:TrackPointExtension>
        </extensions>
      </trkpt>
      <trkpt lat="37.94921589083969593048095703125" lon="-107.111264057457447052001953125">
        <ele>3835.800048828125</ele>
        <time>2026-01-06T17:46:06.000Z</time>
        <extensions>
          <ns3:TrackPointExtension>
            <ns3:hr>130</ns3:hr>
            <ns3:cad>0</ns3:cad>
          </ns3:TrackPointExtension>
        </extensions>
      </trkpt>
      <trkpt lat="37.94924623332917690277099609375" lon="-107.11124519817531108856201171875">
        <ele>3836</ele>
        <time>2026-01-06T17:46:12.000Z</time>
        <extensions>
          <ns3:TrackPointExtension>
            <ns3:hr>131</ns3:hr>
            <ns3:cad>0</ns3:cad>
          </ns3:TrackPointExtension>
        </extensions>
      </trkpt>
      <trkpt lat="37.9492535255849361419677734375" lon="-107.11123832501471042633056640625">
        <ele>3836</ele>
        <time>2026-01-06T17:46:14.000Z</time>
        <extensions>
          <ns3:TrackPointExtension>
            <ns3:hr>131</ns3:hr>
            <ns3:cad>0</ns3:cad>
          </ns3:TrackPointExtension>
        </extensions>
      </trkpt>
      <trkpt lat="37.949283532798290252685546875" lon="-107.11122793145477771759033203125">
        <ele>3836.800048828125</ele>
        <time>2026-01-06T17:46:19.000Z</time>
        <extensions>
          <ns3:TrackPointExtension>
            <ns3:hr>131</ns3:hr>
            <ns3:cad>0</ns3:cad>
          </ns3:TrackPointExtension>
        </extensions>
      </trkpt>
      <trkpt lat="37.949305661022663116455078125" lon="-107.1112196333706378936767578125">
        <ele>3837.39990234375</ele>
        <time>2026-01-06T17:46:22.000Z</time>
        <extensions>
          <ns3:TrackPointExtension>
            <ns3:hr>131</ns3:hr>
            <ns3:cad>0</ns3:cad>
          </ns3:TrackPointExtension>
        </extensions>
      </trkpt>
      <trkpt lat="37.94933139346539974212646484375" lon="-107.11120848543941974639892578125">
        <ele>3837.39990234375</ele>
        <time>2026-01-06T17:46:28.000Z</time>
        <extensions>
          <ns3:TrackPointExtension>
            <ns3:hr>130</ns3:hr>
            <ns3:cad>0</ns3:cad>
          </ns3:TrackPointExtension>
        </extensions>
      </trkpt>
      <trkpt lat="37.94933809898793697357177734375" lon="-107.1112095750868320465087890625">
        <ele>3837.39990234375</ele>
        <time>2026-01-06T17:46:29.000Z</time>
        <extensions>
          <ns3:TrackPointExtension>
            <ns3:hr>130</ns3:hr>
            <ns3:cad>0</ns3:cad>
          </ns3:TrackPointExtension>
        </extensions>
      </trkpt>
      <trkpt lat="37.94935000129044055938720703125" lon="-107.11120404303073883056640625">
        <ele>3837.60009765625</ele>
        <time>2026-01-06T17:46:35.000Z</time>
        <extensions>
          <ns3:TrackPointExtension>
            <ns3:hr>131</ns3:hr>
            <ns3:cad>0</ns3:cad>
          </ns3:TrackPointExtension>
        </extensions>
      </trkpt>
      <trkpt lat="37.94935033656656742095947265625" lon="-107.1112038753926753997802734375">
        <ele>3837.800048828125</ele>
        <time>2026-01-06T17:46:36.000Z</time>
        <extensions>
          <ns3:TrackPointExtension>
            <ns3:hr>133</ns3:hr>
            <ns3:cad>0</ns3:cad>
          </ns3:TrackPointExtension>
        </extensions>
      </trkpt>
      <trkpt lat="37.94935586862266063690185546875" lon="-107.11120043881237506866455078125">
        <ele>3838</ele>
        <time>2026-01-06T17:46:37.000Z</time>
        <extensions>
          <ns3:TrackPointExtension>
            <ns3:hr>136</ns3:hr>
            <ns3:cad>0</ns3:cad>
          </ns3:TrackPointExtension>
        </extensions>
      </trkpt>
      <trkpt lat="37.94936676509678363800048828125" lon="-107.11119465529918670654296875">
        <ele>3838.199951171875</ele>
        <time>2026-01-06T17:46:39.000Z</time>
        <extensions>
          <ns3:TrackPointExtension>
            <ns3:hr>139</ns3:hr>
            <ns3:cad>0</ns3:cad>
          </ns3:TrackPointExtension>
        </extensions>
      </trkpt>
      <trkpt lat="37.94939140789210796356201171875" lon="-107.1111832559108734130859375">
        <ele>3838</ele>
        <time>2026-01-06T17:46:44.000Z</time>
        <extensions>
          <ns3:TrackPointExtension>
            <ns3:hr>138</ns3:hr>
            <ns3:cad>0</ns3:cad>
          </ns3:TrackPointExtension>
        </extensions>
      </trkpt>
      <trkpt lat="37.9493997059762477874755859375" lon="-107.11117587983608245849609375">
        <ele>3838.39990234375</ele>
        <time>2026-01-06T17:46:46.000Z</time>
        <extensions>
          <ns3:TrackPointExtension>
            <ns3:hr>134</ns3:hr>
            <ns3:cad>0</ns3:cad>
          </ns3:TrackPointExtension>
        </extensions>
      </trkpt>
      <trkpt lat="37.94940314255654811859130859375" lon="-107.111174874007701873779296875">
        <ele>3838.39990234375</ele>
        <time>2026-01-06T17:46:47.000Z</time>
        <extensions>
          <ns3:TrackPointExtension>
            <ns3:hr>131</ns3:hr>
            <ns3:cad>0</ns3:cad>
          </ns3:TrackPointExtension>
        </extensions>
      </trkpt>
      <trkpt lat="37.94940582476556301116943359375" lon="-107.11117328144609928131103515625">
        <ele>3838.60009765625</ele>
        <time>2026-01-06T17:46:48.000Z</time>
        <extensions>
          <ns3:TrackPointExtension>
            <ns3:hr>127</ns3:hr>
            <ns3:cad>0</ns3:cad>
          </ns3:TrackPointExtension>
        </extensions>
      </trkpt>
      <trkpt lat="37.9494124464690685272216796875" lon="-107.11116758175194263458251953125">
        <ele>3838.800048828125</ele>
        <time>2026-01-06T17:46:52.000Z</time>
        <extensions>
          <ns3:TrackPointExtension>
            <ns3:hr>126</ns3:hr>
            <ns3:cad>41</ns3:cad>
          </ns3:TrackPointExtension>
        </extensions>
      </trkpt>
      <trkpt lat="37.94943348504602909088134765625" lon="-107.11115919984877109527587890625">
        <ele>3839</ele>
        <time>2026-01-06T17:46:56.000Z</time>
        <extensions>
          <ns3:TrackPointExtension>
            <ns3:hr>126</ns3:hr>
            <ns3:cad>0</ns3:cad>
          </ns3:TrackPointExtension>
        </extensions>
      </trkpt>
      <trkpt lat="37.949444465339183807373046875" lon="-107.11115735583007335662841796875">
        <ele>3839.199951171875</ele>
        <time>2026-01-06T17:46:58.000Z</time>
        <extensions>
          <ns3:TrackPointExtension>
            <ns3:hr>127</ns3:hr>
            <ns3:cad>0</ns3:cad>
          </ns3:TrackPointExtension>
        </extensions>
      </trkpt>
      <trkpt lat="37.9494734667241573333740234375" lon="-107.11114930920302867889404296875">
        <ele>3839.60009765625</ele>
        <time>2026-01-06T17:47:03.000Z</time>
        <extensions>
          <ns3:TrackPointExtension>
            <ns3:hr>126</ns3:hr>
            <ns3:cad>0</ns3:cad>
          </ns3:TrackPointExtension>
        </extensions>
      </trkpt>
      <trkpt lat="37.9494949243962764739990234375" lon="-107.111135981976985931396484375">
        <ele>3839.800048828125</ele>
        <time>2026-01-06T17:47:09.000Z</time>
        <extensions>
          <ns3:TrackPointExtension>
            <ns3:hr>127</ns3:hr>
            <ns3:cad>0</ns3:cad>
          </ns3:TrackPointExtension>
        </extensions>
      </trkpt>
      <trkpt lat="37.94951730407774448394775390625" lon="-107.11112500168383121490478515625">
        <ele>3840</ele>
        <time>2026-01-06T17:47:14.000Z</time>
        <extensions>
          <ns3:TrackPointExtension>
            <ns3:hr>125</ns3:hr>
            <ns3:cad>0</ns3:cad>
          </ns3:TrackPointExtension>
        </extensions>
      </trkpt>
      <trkpt lat="37.94952535070478916168212890625" lon="-107.1111220680177211761474609375">
        <ele>3840.199951171875</ele>
        <time>2026-01-06T17:47:16.000Z</time>
        <extensions>
          <ns3:TrackPointExtension>
            <ns3:hr>126</ns3:hr>
            <ns3:cad>0</ns3:cad>
          </ns3:TrackPointExtension>
        </extensions>
      </trkpt>
      <trkpt lat="37.94955770485103130340576171875" lon="-107.111101783812046051025390625">
        <ele>3840.60009765625</ele>
        <time>2026-01-06T17:47:22.000Z</time>
        <extensions>
          <ns3:TrackPointExtension>
            <ns3:hr>126</ns3:hr>
            <ns3:cad>0</ns3:cad>
          </ns3:TrackPointExtension>
        </extensions>
      </trkpt>
      <trkpt lat="37.94956390745937824249267578125" lon="-107.11109767667949199676513671875">
        <ele>3840.800048828125</ele>
        <time>2026-01-06T17:47:23.000Z</time>
        <extensions>
          <ns3:TrackPointExtension>
            <ns3:hr>126</ns3:hr>
            <ns3:cad>0</ns3:cad>
          </ns3:TrackPointExtension>
        </extensions>
      </trkpt>
      <trkpt lat="37.94957966543734073638916015625" lon="-107.1110888756811618804931640625">
        <ele>3841</ele>
        <time>2026-01-06T17:47:26.000Z</time>
        <extensions>
          <ns3:TrackPointExtension>
            <ns3:hr>127</ns3:hr>
            <ns3:cad>0</ns3:cad>
          </ns3:TrackPointExtension>
        </extensions>
      </trkpt>
      <trkpt lat="37.94959492050111293792724609375" lon="-107.1110781468451023101806640625">
        <ele>3841.199951171875</ele>
        <time>2026-01-06T17:47:30.000Z</time>
        <extensions>
          <ns3:TrackPointExtension>
            <ns3:hr>129</ns3:hr>
            <ns3:cad>0</ns3:cad>
          </ns3:TrackPointExtension>
        </extensions>
      </trkpt>
      <trkpt lat="37.94960908591747283935546875" lon="-107.111060880124568939208984375">
        <ele>3841.800048828125</ele>
        <time>2026-01-06T17:47:36.000Z</time>
        <extensions>
          <ns3:TrackPointExtension>
            <ns3:hr>129</ns3:hr>
            <ns3:cad>0</ns3:cad>
          </ns3:TrackPointExtension>
        </extensions>
      </trkpt>
      <trkpt lat="37.949608080089092254638671875" lon="-107.11105761118233203887939453125">
        <ele>3842</ele>
        <time>2026-01-06T17:47:38.000Z</time>
        <extensions>
          <ns3:TrackPointExtension>
            <ns3:hr>128</ns3:hr>
            <ns3:cad>0</ns3:cad>
          </ns3:TrackPointExtension>
        </extensions>
      </trkpt>
      <trkpt lat="37.9496072418987751007080078125" lon="-107.11105710826814174652099609375">
        <ele>3842</ele>
        <time>2026-01-06T17:47:41.000Z</time>
        <extensions>
          <ns3:TrackPointExtension>
            <ns3:hr>128</ns3:hr>
            <ns3:cad>0</ns3:cad>
          </ns3:TrackPointExtension>
        </extensions>
      </trkpt>
      <trkpt lat="37.9496072418987751007080078125" lon="-107.11105710826814174652099609375">
        <ele>3841.800048828125</ele>
        <time>2026-01-06T17:47:46.000Z</time>
        <extensions>
          <ns3:TrackPointExtension>
            <ns3:hr>129</ns3:hr>
            <ns3:cad>0</ns3:cad>
          </ns3:TrackPointExtension>
        </extensions>
      </trkpt>
      <trkpt lat="37.9496072418987751007080078125" lon="-107.11105710826814174652099609375">
        <ele>3842.199951171875</ele>
        <time>2026-01-06T17:47:52.000Z</time>
        <extensions>
          <ns3:TrackPointExtension>
            <ns3:hr>130</ns3:hr>
            <ns3:cad>0</ns3:cad>
          </ns3:TrackPointExtension>
        </extensions>
      </trkpt>
      <trkpt lat="37.9496072418987751007080078125" lon="-107.11105710826814174652099609375">
        <ele>3842</ele>
        <time>2026-01-06T17:47:57.000Z</time>
        <extensions>
          <ns3:TrackPointExtension>
            <ns3:hr>127</ns3:hr>
            <ns3:cad>0</ns3:cad>
          </ns3:TrackPointExtension>
        </extensions>
      </trkpt>
      <trkpt lat="37.9496072418987751007080078125" lon="-107.11105710826814174652099609375">
        <ele>3841.800048828125</ele>
        <time>2026-01-06T17:48:00.000Z</time>
        <extensions>
          <ns3:TrackPointExtension>
            <ns3:hr>126</ns3:hr>
            <ns3:cad>0</ns3:cad>
          </ns3:TrackPointExtension>
        </extensions>
      </trkpt>
      <trkpt lat="37.9496072418987751007080078125" lon="-107.11105710826814174652099609375">
        <ele>3841.60009765625</ele>
        <time>2026-01-06T17:48:06.000Z</time>
        <extensions>
          <ns3:TrackPointExtension>
            <ns3:hr>123</ns3:hr>
            <ns3:cad>0</ns3:cad>
          </ns3:TrackPointExtension>
        </extensions>
      </trkpt>
      <trkpt lat="37.9496072418987751007080078125" lon="-107.11105710826814174652099609375">
        <ele>3841.60009765625</ele>
        <time>2026-01-06T17:48:12.000Z</time>
        <extensions>
          <ns3:TrackPointExtension>
            <ns3:hr>121</ns3:hr>
            <ns3:cad>0</ns3:cad>
          </ns3:TrackPointExtension>
        </extensions>
      </trkpt>
      <trkpt lat="37.9496072418987751007080078125" lon="-107.11105710826814174652099609375">
        <ele>3841.60009765625</ele>
        <time>2026-01-06T17:48:16.000Z</time>
        <extensions>
          <ns3:TrackPointExtension>
            <ns3:hr>121</ns3:hr>
            <ns3:cad>0</ns3:cad>
          </ns3:TrackPointExtension>
        </extensions>
      </trkpt>
      <trkpt lat="37.9496072418987751007080078125" lon="-107.11105710826814174652099609375">
        <ele>3841.800048828125</ele>
        <time>2026-01-06T17:48:22.000Z</time>
        <extensions>
          <ns3:TrackPointExtension>
            <ns3:hr>120</ns3:hr>
            <ns3:cad>0</ns3:cad>
          </ns3:TrackPointExtension>
        </extensions>
      </trkpt>
      <trkpt lat="37.94961822219192981719970703125" lon="-107.11106213741004467010498046875">
        <ele>3842</ele>
        <time>2026-01-06T17:48:23.000Z</time>
        <extensions>
          <ns3:TrackPointExtension>
            <ns3:hr>116</ns3:hr>
            <ns3:cad>0</ns3:cad>
          </ns3:TrackPointExtension>
        </extensions>
      </trkpt>
      <trkpt lat="37.94963398016989231109619140625" lon="-107.11105593480169773101806640625">
        <ele>3841.800048828125</ele>
        <time>2026-01-06T17:48:25.000Z</time>
        <extensions>
          <ns3:TrackPointExtension>
            <ns3:hr>113</ns3:hr>
            <ns3:cad>0</ns3:cad>
          </ns3:TrackPointExtension>
        </extensions>
      </trkpt>
      <trkpt lat="37.94966700486838817596435546875" lon="-107.11103481240570545196533203125">
        <ele>3842.60009765625</ele>
        <time>2026-01-06T17:48:31.000Z</time>
        <extensions>
          <ns3:TrackPointExtension>
            <ns3:hr>113</ns3:hr>
            <ns3:cad>0</ns3:cad>
          </ns3:TrackPointExtension>
        </extensions>
      </trkpt>
      <trkpt lat="37.9496799968183040618896484375" lon="-107.11101603694260120391845703125">
        <ele>3843</ele>
        <time>2026-01-06T17:48:35.000Z</time>
        <extensions>
          <ns3:TrackPointExtension>
            <ns3:hr>112</ns3:hr>
            <ns3:cad>16</ns3:cad>
          </ns3:TrackPointExtension>
        </extensions>
      </trkpt>
      <trkpt lat="37.94969567097723484039306640625" lon="-107.11100555956363677978515625">
        <ele>3843.800048828125</ele>
        <time>2026-01-06T17:48:38.000Z</time>
        <extensions>
          <ns3:TrackPointExtension>
            <ns3:hr>110</ns3:hr>
            <ns3:cad>0</ns3:cad>
          </ns3:TrackPointExtension>
        </extensions>
      </trkpt>
      <trkpt lat="37.9497376643121242523193359375" lon="-107.11099994368851184844970703125">
        <ele>3844</ele>
        <time>2026-01-06T17:48:44.000Z</time>
        <extensions>
          <ns3:TrackPointExtension>
            <ns3:hr>110</ns3:hr>
            <ns3:cad>0</ns3:cad>
          </ns3:TrackPointExtension>
        </extensions>
      </trkpt>
      <trkpt lat="37.9497433640062808990478515625" lon="-107.110999189317226409912109375">
        <ele>3844.199951171875</ele>
        <time>2026-01-06T17:48:45.000Z</time>
        <extensions>
          <ns3:TrackPointExtension>
            <ns3:hr>110</ns3:hr>
            <ns3:cad>0</ns3:cad>
          </ns3:TrackPointExtension>
        </extensions>
      </trkpt>
      <trkpt lat="37.94974613003432750701904296875" lon="-107.110996507108211517333984375">
        <ele>3844.199951171875</ele>
        <time>2026-01-06T17:48:46.000Z</time>
        <extensions>
          <ns3:TrackPointExtension>
            <ns3:hr>110</ns3:hr>
            <ns3:cad>0</ns3:cad>
          </ns3:TrackPointExtension>
        </extensions>
      </trkpt>
      <trkpt lat="37.9497661627829074859619140625" lon="-107.11098066531121730804443359375">
        <ele>3844.800048828125</ele>
        <time>2026-01-06T17:48:52.000Z</time>
        <extensions>
          <ns3:TrackPointExtension>
            <ns3:hr>112</ns3:hr>
            <ns3:cad>0</ns3:cad>
          </ns3:TrackPointExtension>
        </extensions>
      </trkpt>
      <trkpt lat="37.9497970081865787506103515625" lon="-107.11095820181071758270263671875">
        <ele>3845.199951171875</ele>
        <time>2026-01-06T17:48:57.000Z</time>
        <extensions>
          <ns3:TrackPointExtension>
            <ns3:hr>114</ns3:hr>
            <ns3:cad>65</ns3:cad>
          </ns3:TrackPointExtension>
        </extensions>
      </trkpt>
      <trkpt lat="37.949808575212955474853515625" lon="-107.11094847880303859710693359375">
        <ele>3845.60009765625</ele>
        <time>2026-01-06T17:48:59.000Z</time>
        <extensions>
          <ns3:TrackPointExtension>
            <ns3:hr>114</ns3:hr>
            <ns3:cad>0</ns3:cad>
          </ns3:TrackPointExtension>
        </extensions>
      </trkpt>
      <trkpt lat="37.9498201422393321990966796875" lon="-107.11094252765178680419921875">
        <ele>3845.800048828125</ele>
        <time>2026-01-06T17:49:01.000Z</time>
        <extensions>
          <ns3:TrackPointExtension>
            <ns3:hr>111</ns3:hr>
            <ns3:cad>0</ns3:cad>
          </ns3:TrackPointExtension>
        </extensions>
      </trkpt>
      <trkpt lat="37.9498466290533542633056640625" lon="-107.11093448102474212646484375">
        <ele>3846</ele>
        <time>2026-01-06T17:49:06.000Z</time>
        <extensions>
          <ns3:TrackPointExtension>
            <ns3:hr>112</ns3:hr>
            <ns3:cad>0</ns3:cad>
          </ns3:TrackPointExtension>
        </extensions>
      </trkpt>
      <trkpt lat="37.94985375367105007171630859375" lon="-107.11092852987349033355712890625">
        <ele>3846.199951171875</ele>
        <time>2026-01-06T17:49:07.000Z</time>
        <extensions>
          <ns3:TrackPointExtension>
            <ns3:hr>112</ns3:hr>
            <ns3:cad>0</ns3:cad>
          </ns3:TrackPointExtension>
        </extensions>
      </trkpt>
      <trkpt lat="37.94987688772380352020263671875" lon="-107.11091411300003528594970703125">
        <ele>3846.199951171875</ele>
        <time>2026-01-06T17:49:12.000Z</time>
        <extensions>
          <ns3:TrackPointExtension>
            <ns3:hr>113</ns3:hr>
            <ns3:cad>0</ns3:cad>
          </ns3:TrackPointExtension>
        </extensions>
      </trkpt>
      <trkpt lat="37.9499034583568572998046875" lon="-107.11090765893459320068359375">
        <ele>3847.199951171875</ele>
        <time>2026-01-06T17:49:17.000Z</time>
        <extensions>
          <ns3:TrackPointExtension>
            <ns3:hr>114</ns3:hr>
            <ns3:cad>0</ns3:cad>
          </ns3:TrackPointExtension>
        </extensions>
      </trkpt>
      <trkpt lat="37.9499146901071071624755859375" lon="-107.1109043061733245849609375">
        <ele>3847.39990234375</ele>
        <time>2026-01-06T17:49:19.000Z</time>
        <extensions>
          <ns3:TrackPointExtension>
            <ns3:hr>115</ns3:hr>
            <ns3:cad>0</ns3:cad>
          </ns3:TrackPointExtension>
        </extensions>
      </trkpt>
      <trkpt lat="37.9499361477792263031005859375" lon="-107.1108954213559627532958984375">
        <ele>3847.199951171875</ele>
        <time>2026-01-06T17:49:23.000Z</time>
        <extensions>
          <ns3:TrackPointExtension>
            <ns3:hr>119</ns3:hr>
            <ns3:cad>0</ns3:cad>
          </ns3:TrackPointExtension>
        </extensions>
      </trkpt>
      <trkpt lat="37.9499512352049350738525390625" lon="-107.1108897216618061065673828125">
        <ele>3847.60009765625</ele>
        <time>2026-01-06T17:49:26.000Z</time>
        <extensions>
          <ns3:TrackPointExtension>
            <ns3:hr>122</ns3:hr>
            <ns3:cad>0</ns3:cad>
          </ns3:TrackPointExtension>
        </extensions>
      </trkpt>
      <trkpt lat="37.9499535821378231048583984375" lon="-107.11088879965245723724365234375">
        <ele>3847.800048828125</ele>
        <time>2026-01-06T17:49:27.000Z</time>
        <extensions>
          <ns3:TrackPointExtension>
            <ns3:hr>123</ns3:hr>
            <ns3:cad>0</ns3:cad>
          </ns3:TrackPointExtension>
        </extensions>
      </trkpt>
      <trkpt lat="37.94996473006904125213623046875" lon="-107.11088544689118862152099609375">
        <ele>3848.199951171875</ele>
        <time>2026-01-06T17:49:30.000Z</time>
        <extensions>
          <ns3:TrackPointExtension>
            <ns3:hr>124</ns3:hr>
            <ns3:cad>0</ns3:cad>
          </ns3:TrackPointExtension>
        </extensions>
      </trkpt>
      <trkpt lat="37.94997445307672023773193359375" lon="-107.11087790317833423614501953125">
        <ele>3848.39990234375</ele>
        <time>2026-01-06T17:49:32.000Z</time>
        <extensions>
          <ns3:TrackPointExtension>
            <ns3:hr>124</ns3:hr>
            <ns3:cad>0</ns3:cad>
          </ns3:TrackPointExtension>
        </extensions>
      </trkpt>
      <trkpt lat="37.94999842531979084014892578125" lon="-107.1108521707355976104736328125">
        <ele>3848.800048828125</ele>
        <time>2026-01-06T17:49:37.000Z</time>
        <extensions>
          <ns3:TrackPointExtension>
            <ns3:hr>124</ns3:hr>
            <ns3:cad>0</ns3:cad>
          </ns3:TrackPointExtension>
        </extensions>
      </trkpt>
      <trkpt lat="37.9500199668109416961669921875" lon="-107.11084018461406230926513671875">
        <ele>3849.199951171875</ele>
        <time>2026-01-06T17:49:41.000Z</time>
        <extensions>
          <ns3:TrackPointExtension>
            <ns3:hr>124</ns3:hr>
            <ns3:cad>0</ns3:cad>
          </ns3:TrackPointExtension>
        </extensions>
      </trkpt>
      <trkpt lat="37.95003010891377925872802734375" lon="-107.110828869044780731201171875">
        <ele>3849.39990234375</ele>
        <time>2026-01-06T17:49:45.000Z</time>
        <extensions>
          <ns3:TrackPointExtension>
            <ns3:hr>123</ns3:hr>
            <ns3:cad>0</ns3:cad>
          </ns3:TrackPointExtension>
        </extensions>
      </trkpt>
      <trkpt lat="37.95005005784332752227783203125" lon="-107.11081244051456451416015625">
        <ele>3849.800048828125</ele>
        <time>2026-01-06T17:49:51.000Z</time>
        <extensions>
          <ns3:TrackPointExtension>
            <ns3:hr>123</ns3:hr>
            <ns3:cad>0</ns3:cad>
          </ns3:TrackPointExtension>
        </extensions>
      </trkpt>
      <trkpt lat="37.9500541649758815765380859375" lon="-107.1108099259436130523681640625">
        <ele>3849.800048828125</ele>
        <time>2026-01-06T17:49:52.000Z</time>
        <extensions>
          <ns3:TrackPointExtension>
            <ns3:hr>123</ns3:hr>
            <ns3:cad>0</ns3:cad>
          </ns3:TrackPointExtension>
        </extensions>
      </trkpt>
      <trkpt lat="37.9500843398272991180419921875" lon="-107.11079659871757030487060546875">
        <ele>3850</ele>
        <time>2026-01-06T17:49:58.000Z</time>
        <extensions>
          <ns3:TrackPointExtension>
            <ns3:hr>125</ns3:hr>
            <ns3:cad>0</ns3:cad>
          </ns3:TrackPointExtension>
        </extensions>
      </trkpt>
      <trkpt lat="37.95009448193013668060302734375" lon="-107.11079106666147708892822265625">
        <ele>3850.39990234375</ele>
        <time>2026-01-06T17:50:00.000Z</time>
        <extensions>
          <ns3:TrackPointExtension>
            <ns3:hr>127</ns3:hr>
            <ns3:cad>0</ns3:cad>
          </ns3:TrackPointExtension>
        </extensions>
      </trkpt>
      <trkpt lat="37.9501306079328060150146484375" lon="-107.1107784099876880645751953125">
        <ele>3850.800048828125</ele>
        <time>2026-01-06T17:50:06.000Z</time>
        <extensions>
          <ns3:TrackPointExtension>
            <ns3:hr>127</ns3:hr>
            <ns3:cad>0</ns3:cad>
          </ns3:TrackPointExtension>
        </extensions>
      </trkpt>
      <trkpt lat="37.95015734620392322540283203125" lon="-107.11075284518301486968994140625">
        <ele>3851.39990234375</ele>
        <time>2026-01-06T17:50:12.000Z</time>
        <extensions>
          <ns3:TrackPointExtension>
            <ns3:hr>128</ns3:hr>
            <ns3:cad>0</ns3:cad>
          </ns3:TrackPointExtension>
        </extensions>
      </trkpt>
      <trkpt lat="37.95016765594482421875" lon="-107.11074613966047763824462890625">
        <ele>3851.39990234375</ele>
        <time>2026-01-06T17:50:14.000Z</time>
        <extensions>
          <ns3:TrackPointExtension>
            <ns3:hr>129</ns3:hr>
            <ns3:cad>0</ns3:cad>
          </ns3:TrackPointExtension>
        </extensions>
      </trkpt>
      <trkpt lat="37.9501845873892307281494140625" lon="-107.110737673938274383544921875">
        <ele>3851.800048828125</ele>
        <time>2026-01-06T17:50:19.000Z</time>
        <extensions>
          <ns3:TrackPointExtension>
            <ns3:hr>128</ns3:hr>
            <ns3:cad>0</ns3:cad>
          </ns3:TrackPointExtension>
        </extensions>
      </trkpt>
      <trkpt lat="37.95021300204098224639892578125" lon="-107.110723592340946197509765625">
        <ele>3852.60009765625</ele>
        <time>2026-01-06T17:50:25.000Z</time>
        <extensions>
          <ns3:TrackPointExtension>
            <ns3:hr>129</ns3:hr>
            <ns3:cad>56</ns3:cad>
          </ns3:TrackPointExtension>
        </extensions>
      </trkpt>
      <trkpt lat="37.9502264969050884246826171875" lon="-107.11071898229420185089111328125">
        <ele>3852.800048828125</ele>
        <time>2026-01-06T17:50:27.000Z</time>
        <extensions>
          <ns3:TrackPointExtension>
            <ns3:hr>129</ns3:hr>
            <ns3:cad>0</ns3:cad>
          </ns3:TrackPointExtension>
        </extensions>
      </trkpt>
      <trkpt lat="37.95025658793747425079345703125" lon="-107.1107004582881927490234375">
        <ele>3853.199951171875</ele>
        <time>2026-01-06T17:50:33.000Z</time>
        <extensions>
          <ns3:TrackPointExtension>
            <ns3:hr>130</ns3:hr>
            <ns3:cad>0</ns3:cad>
          </ns3:TrackPointExtension>
        </extensions>
      </trkpt>
      <trkpt lat="37.95025759376585483551025390625" lon="-107.11069886572659015655517578125">
        <ele>3853.199951171875</ele>
        <time>2026-01-06T17:50:34.000Z</time>
        <extensions>
          <ns3:TrackPointExtension>
            <ns3:hr>130</ns3:hr>
            <ns3:cad>0</ns3:cad>
          </ns3:TrackPointExtension>
        </extensions>
      </trkpt>
      <trkpt lat="37.95028634369373321533203125" lon="-107.11068009026348590850830078125">
        <ele>3853.60009765625</ele>
        <time>2026-01-06T17:50:39.000Z</time>
        <extensions>
          <ns3:TrackPointExtension>
            <ns3:hr>129</ns3:hr>
            <ns3:cad>0</ns3:cad>
          </ns3:TrackPointExtension>
        </extensions>
      </trkpt>
      <trkpt lat="37.950299084186553955078125" lon="-107.1106734685599803924560546875">
        <ele>3853.60009765625</ele>
        <time>2026-01-06T17:50:42.000Z</time>
        <extensions>
          <ns3:TrackPointExtension>
            <ns3:hr>128</ns3:hr>
            <ns3:cad>0</ns3:cad>
          </ns3:TrackPointExtension>
        </extensions>
      </trkpt>
      <trkpt lat="37.95030352659523487091064453125" lon="-107.11067221127450466156005859375">
        <ele>3854.199951171875</ele>
        <time>2026-01-06T17:50:46.000Z</time>
        <extensions>
          <ns3:TrackPointExtension>
            <ns3:hr>126</ns3:hr>
            <ns3:cad>0</ns3:cad>
          </ns3:TrackPointExtension>
        </extensions>
      </trkpt>
      <trkpt lat="37.95033319853246212005615234375" lon="-107.110663242638111114501953125">
        <ele>3854.60009765625</ele>
        <time>2026-01-06T17:50:52.000Z</time>
        <extensions>
          <ns3:TrackPointExtension>
            <ns3:hr>125</ns3:hr>
            <ns3:cad>0</ns3:cad>
          </ns3:TrackPointExtension>
        </extensions>
      </trkpt>
      <trkpt lat="37.9503379762172698974609375" lon="-107.11066232062876224517822265625">
        <ele>3854.60009765625</ele>
        <time>2026-01-06T17:50:53.000Z</time>
        <extensions>
          <ns3:TrackPointExtension>
            <ns3:hr>125</ns3:hr>
            <ns3:cad>0</ns3:cad>
          </ns3:TrackPointExtension>
        </extensions>
      </trkpt>
      <trkpt lat="37.9503642953932285308837890625" lon="-107.1106441318988800048828125">
        <ele>3855</ele>
        <time>2026-01-06T17:50:59.000Z</time>
        <extensions>
          <ns3:TrackPointExtension>
            <ns3:hr>126</ns3:hr>
            <ns3:cad>0</ns3:cad>
          </ns3:TrackPointExtension>
        </extensions>
      </trkpt>
      <trkpt lat="37.95038826763629913330078125" lon="-107.110628373920917510986328125">
        <ele>3855.60009765625</ele>
        <time>2026-01-06T17:51:04.000Z</time>
        <extensions>
          <ns3:TrackPointExtension>
            <ns3:hr>126</ns3:hr>
            <ns3:cad>0</ns3:cad>
          </ns3:TrackPointExtension>
        </extensions>
      </trkpt>
      <trkpt lat="37.95040008611977100372314453125" lon="-107.1106255240738391876220703125">
        <ele>3856</ele>
        <time>2026-01-06T17:51:06.000Z</time>
        <extensions>
          <ns3:TrackPointExtension>
            <ns3:hr>127</ns3:hr>
            <ns3:cad>0</ns3:cad>
          </ns3:TrackPointExtension>
        </extensions>
      </trkpt>
      <trkpt lat="37.95042908750474452972412109375" lon="-107.110605575144290924072265625">
        <ele>3856.39990234375</ele>
        <time>2026-01-06T17:51:12.000Z</time>
        <extensions>
          <ns3:TrackPointExtension>
            <ns3:hr>129</ns3:hr>
            <ns3:cad>54</ns3:cad>
          </ns3:TrackPointExtension>
        </extensions>
      </trkpt>
      <trkpt lat="37.95043118298053741455078125" lon="-107.1106047369539737701416015625">
        <ele>3856.39990234375</ele>
        <time>2026-01-06T17:51:13.000Z</time>
        <extensions>
          <ns3:TrackPointExtension>
            <ns3:hr>130</ns3:hr>
            <ns3:cad>0</ns3:cad>
          </ns3:TrackPointExtension>
        </extensions>
      </trkpt>
      <trkpt lat="37.950432188808917999267578125" lon="-107.11060465313494205474853515625">
        <ele>3856.39990234375</ele>
        <time>2026-01-06T17:51:19.000Z</time>
        <extensions>
          <ns3:TrackPointExtension>
            <ns3:hr>130</ns3:hr>
            <ns3:cad>0</ns3:cad>
          </ns3:TrackPointExtension>
        </extensions>
      </trkpt>
      <trkpt lat="37.950432188808917999267578125" lon="-107.11060465313494205474853515625">
        <ele>3856.199951171875</ele>
        <time>2026-01-06T17:51:25.000Z</time>
        <extensions>
          <ns3:TrackPointExtension>
            <ns3:hr>128</ns3:hr>
            <ns3:cad>0</ns3:cad>
          </ns3:TrackPointExtension>
        </extensions>
      </trkpt>
      <trkpt lat="37.950432188808917999267578125" lon="-107.11060465313494205474853515625">
        <ele>3856.39990234375</ele>
        <time>2026-01-06T17:51:28.000Z</time>
        <extensions>
          <ns3:TrackPointExtension>
            <ns3:hr>125</ns3:hr>
            <ns3:cad>0</ns3:cad>
          </ns3:TrackPointExtension>
        </extensions>
      </trkpt>
      <trkpt lat="37.950432188808917999267578125" lon="-107.11060465313494205474853515625">
        <ele>3856.60009765625</ele>
        <time>2026-01-06T17:51:34.000Z</time>
        <extensions>
          <ns3:TrackPointExtension>
            <ns3:hr>124</ns3:hr>
            <ns3:cad>0</ns3:cad>
          </ns3:TrackPointExtension>
        </extensions>
      </trkpt>
      <trkpt lat="37.950432188808917999267578125" lon="-107.11060465313494205474853515625">
        <ele>3856.800048828125</ele>
        <time>2026-01-06T17:51:36.000Z</time>
        <extensions>
          <ns3:TrackPointExtension>
            <ns3:hr>124</ns3:hr>
            <ns3:cad>0</ns3:cad>
          </ns3:TrackPointExtension>
        </extensions>
      </trkpt>
      <trkpt lat="37.950432188808917999267578125" lon="-107.11060465313494205474853515625">
        <ele>3856.800048828125</ele>
        <time>2026-01-06T17:51:38.000Z</time>
        <extensions>
          <ns3:TrackPointExtension>
            <ns3:hr>124</ns3:hr>
            <ns3:cad>0</ns3:cad>
          </ns3:TrackPointExtension>
        </extensions>
      </trkpt>
      <trkpt lat="37.950449623167514801025390625" lon="-107.1105873025953769683837890625">
        <ele>3857</ele>
        <time>2026-01-06T17:51:43.000Z</time>
        <extensions>
          <ns3:TrackPointExtension>
            <ns3:hr>124</ns3:hr>
            <ns3:cad>0</ns3:cad>
          </ns3:TrackPointExtension>
        </extensions>
      </trkpt>
      <trkpt lat="37.95046999119222164154052734375" lon="-107.11057548411190509796142578125">
        <ele>3857.39990234375</ele>
        <time>2026-01-06T17:51:49.000Z</time>
        <extensions>
          <ns3:TrackPointExtension>
            <ns3:hr>125</ns3:hr>
            <ns3:cad>0</ns3:cad>
          </ns3:TrackPointExtension>
        </extensions>
      </trkpt>
      <trkpt lat="37.95048172585666179656982421875" lon="-107.110568694770336151123046875">
        <ele>3857.800048828125</ele>
        <time>2026-01-06T17:51:52.000Z</time>
        <extensions>
          <ns3:TrackPointExtension>
            <ns3:hr>125</ns3:hr>
            <ns3:cad>0</ns3:cad>
          </ns3:TrackPointExtension>
        </extensions>
      </trkpt>
      <trkpt lat="37.9504977352917194366455078125" lon="-107.11055670864880084991455078125">
        <ele>3858.199951171875</ele>
        <time>2026-01-06T17:51:55.000Z</time>
        <extensions>
          <ns3:TrackPointExtension>
            <ns3:hr>125</ns3:hr>
            <ns3:cad>0</ns3:cad>
          </ns3:TrackPointExtension>
        </extensions>
      </trkpt>
      <trkpt lat="37.95051567256450653076171875" lon="-107.11054287850856781005859375">
        <ele>3858.800048828125</ele>
        <time>2026-01-06T17:52:00.000Z</time>
        <extensions>
          <ns3:TrackPointExtension>
            <ns3:hr>124</ns3:hr>
            <ns3:cad>0</ns3:cad>
          </ns3:TrackPointExtension>
        </extensions>
      </trkpt>
      <trkpt lat="37.9505225457251071929931640625" lon="-107.11054380051791667938232421875">
        <ele>3859</ele>
        <time>2026-01-06T17:52:01.000Z</time>
        <extensions>
          <ns3:TrackPointExtension>
            <ns3:hr>125</ns3:hr>
            <ns3:cad>0</ns3:cad>
          </ns3:TrackPointExtension>
        </extensions>
      </trkpt>
      <trkpt lat="37.95055414550006389617919921875" lon="-107.11052837781608104705810546875">
        <ele>3859.39990234375</ele>
        <time>2026-01-06T17:52:07.000Z</time>
        <extensions>
          <ns3:TrackPointExtension>
            <ns3:hr>125</ns3:hr>
            <ns3:cad>0</ns3:cad>
          </ns3:TrackPointExtension>
        </extensions>
      </trkpt>
      <trkpt lat="37.95056034810841083526611328125" lon="-107.11052301339805126190185546875">
        <ele>3859.60009765625</ele>
        <time>2026-01-06T17:52:09.000Z</time>
        <extensions>
          <ns3:TrackPointExtension>
            <ns3:hr>126</ns3:hr>
            <ns3:cad>0</ns3:cad>
          </ns3:TrackPointExtension>
        </extensions>
      </trkpt>
      <trkpt lat="37.95056839473545551300048828125" lon="-107.1105192415416240692138671875">
        <ele>3860</ele>
        <time>2026-01-06T17:52:12.000Z</time>
        <extensions>
          <ns3:TrackPointExtension>
            <ns3:hr>127</ns3:hr>
            <ns3:cad>0</ns3:cad>
          </ns3:TrackPointExtension>
        </extensions>
      </trkpt>
      <trkpt lat="37.950577028095722198486328125" lon="-107.11051337420940399169921875">
        <ele>3860</ele>
        <time>2026-01-06T17:52:14.000Z</time>
        <extensions>
          <ns3:TrackPointExtension>
            <ns3:hr>127</ns3:hr>
            <ns3:cad>0</ns3:cad>
          </ns3:TrackPointExtension>
        </extensions>
      </trkpt>
      <trkpt lat="37.9505906067788600921630859375" lon="-107.11049099452793598175048828125">
        <ele>3860.199951171875</ele>
        <time>2026-01-06T17:52:20.000Z</time>
        <extensions>
          <ns3:TrackPointExtension>
            <ns3:hr>128</ns3:hr>
            <ns3:cad>0</ns3:cad>
          </ns3:TrackPointExtension>
        </extensions>
      </trkpt>
      <trkpt lat="37.95059286989271640777587890625" lon="-107.110486887395381927490234375">
        <ele>3860.39990234375</ele>
        <time>2026-01-06T17:52:21.000Z</time>
        <extensions>
          <ns3:TrackPointExtension>
            <ns3:hr>127</ns3:hr>
            <ns3:cad>0</ns3:cad>
          </ns3:TrackPointExtension>
        </extensions>
      </trkpt>
      <trkpt lat="37.95061131007969379425048828125" lon="-107.11048210971057415008544921875">
        <ele>3860.39990234375</ele>
        <time>2026-01-06T17:52:26.000Z</time>
        <extensions>
          <ns3:TrackPointExtension>
            <ns3:hr>124</ns3:hr>
            <ns3:cad>0</ns3:cad>
          </ns3:TrackPointExtension>
        </extensions>
      </trkpt>
      <trkpt lat="37.9506281577050685882568359375" lon="-107.1104749850928783416748046875">
        <ele>3860.800048828125</ele>
        <time>2026-01-06T17:52:29.000Z</time>
        <extensions>
          <ns3:TrackPointExtension>
            <ns3:hr>121</ns3:hr>
            <ns3:cad>0</ns3:cad>
          </ns3:TrackPointExtension>
        </extensions>
      </trkpt>
      <trkpt lat="37.950636036694049835205078125" lon="-107.110468447208404541015625">
        <ele>3861</ele>
        <time>2026-01-06T17:52:30.000Z</time>
        <extensions>
          <ns3:TrackPointExtension>
            <ns3:hr>119</ns3:hr>
            <ns3:cad>0</ns3:cad>
          </ns3:TrackPointExtension>
        </extensions>
      </trkpt>
      <trkpt lat="37.9506517946720123291015625" lon="-107.11045780219137668609619140625">
        <ele>3861.60009765625</ele>
        <time>2026-01-06T17:52:34.000Z</time>
        <extensions>
          <ns3:TrackPointExtension>
            <ns3:hr>120</ns3:hr>
            <ns3:cad>0</ns3:cad>
          </ns3:TrackPointExtension>
        </extensions>
      </trkpt>
      <trkpt lat="37.9506657086312770843505859375" lon="-107.11044975556433200836181640625">
        <ele>3861.60009765625</ele>
        <time>2026-01-06T17:52:37.000Z</time>
        <extensions>
          <ns3:TrackPointExtension>
            <ns3:hr>123</ns3:hr>
            <ns3:cad>0</ns3:cad>
          </ns3:TrackPointExtension>
        </extensions>
      </trkpt>
      <trkpt lat="37.95067819766700267791748046875" lon="-107.110441625118255615234375">
        <ele>3861.800048828125</ele>
        <time>2026-01-06T17:52:40.000Z</time>
        <extensions>
          <ns3:TrackPointExtension>
            <ns3:hr>123</ns3:hr>
            <ns3:cad>0</ns3:cad>
          </ns3:TrackPointExtension>
        </extensions>
      </trkpt>
      <trkpt lat="37.95068121515214443206787109375" lon="-107.11043751798570156097412109375">
        <ele>3862</ele>
        <time>2026-01-06T17:52:41.000Z</time>
        <extensions>
          <ns3:TrackPointExtension>
            <ns3:hr>123</ns3:hr>
            <ns3:cad>0</ns3:cad>
          </ns3:TrackPointExtension>
        </extensions>
      </trkpt>
      <trkpt lat="37.95069579966366291046142578125" lon="-107.1104287169873714447021484375">
        <ele>3862.60009765625</ele>
        <time>2026-01-06T17:52:46.000Z</time>
        <extensions>
          <ns3:TrackPointExtension>
            <ns3:hr>125</ns3:hr>
            <ns3:cad>0</ns3:cad>
          </ns3:TrackPointExtension>
        </extensions>
      </trkpt>
      <trkpt lat="37.95071206055581569671630859375" lon="-107.1104139648377895355224609375">
        <ele>3862.800048828125</ele>
        <time>2026-01-06T17:52:52.000Z</time>
        <extensions>
          <ns3:TrackPointExtension>
            <ns3:hr>126</ns3:hr>
            <ns3:cad>0</ns3:cad>
          </ns3:TrackPointExtension>
        </extensions>
      </trkpt>
      <trkpt lat="37.9507173411548137664794921875" lon="-107.1104112826287746429443359375">
        <ele>3863</ele>
        <time>2026-01-06T17:52:53.000Z</time>
        <extensions>
          <ns3:TrackPointExtension>
            <ns3:hr>126</ns3:hr>
            <ns3:cad>0</ns3:cad>
          </ns3:TrackPointExtension>
        </extensions>
      </trkpt>
      <trkpt lat="37.95072077773511409759521484375" lon="-107.1104045771062374114990234375">
        <ele>3863.199951171875</ele>
        <time>2026-01-06T17:52:55.000Z</time>
        <extensions>
          <ns3:TrackPointExtension>
            <ns3:hr>127</ns3:hr>
            <ns3:cad>0</ns3:cad>
          </ns3:TrackPointExtension>
        </extensions>
      </trkpt>
      <trkpt lat="37.95073888264596462249755859375" lon="-107.11038722656667232513427734375">
        <ele>3863.800048828125</ele>
        <time>2026-01-06T17:53:00.000Z</time>
        <extensions>
          <ns3:TrackPointExtension>
            <ns3:hr>126</ns3:hr>
            <ns3:cad>0</ns3:cad>
          </ns3:TrackPointExtension>
        </extensions>
      </trkpt>
      <trkpt lat="37.9507569037377834320068359375" lon="-107.11036928929388523101806640625">
        <ele>3864.199951171875</ele>
        <time>2026-01-06T17:53:04.000Z</time>
        <extensions>
          <ns3:TrackPointExtension>
            <ns3:hr>126</ns3:hr>
            <ns3:cad>0</ns3:cad>
          </ns3:TrackPointExtension>
        </extensions>
      </trkpt>
      <trkpt lat="37.95078012160956859588623046875" lon="-107.1103499270975589752197265625">
        <ele>3864.39990234375</ele>
        <time>2026-01-06T17:53:09.000Z</time>
        <extensions>
          <ns3:TrackPointExtension>
            <ns3:hr>127</ns3:hr>
            <ns3:cad>0</ns3:cad>
          </ns3:TrackPointExtension>
        </extensions>
      </trkpt>
      <trkpt lat="37.9508006572723388671875" lon="-107.11033307947218418121337890625">
        <ele>3865.39990234375</ele>
        <time>2026-01-06T17:53:14.000Z</time>
        <extensions>
          <ns3:TrackPointExtension>
            <ns3:hr>128</ns3:hr>
            <ns3:cad>0</ns3:cad>
          </ns3:TrackPointExtension>
        </extensions>
      </trkpt>
      <trkpt lat="37.9508019983768463134765625" lon="-107.11032872088253498077392578125">
        <ele>3865.800048828125</ele>
        <time>2026-01-06T17:53:16.000Z</time>
        <extensions>
          <ns3:TrackPointExtension>
            <ns3:hr>128</ns3:hr>
            <ns3:cad>0</ns3:cad>
          </ns3:TrackPointExtension>
        </extensions>
      </trkpt>
      <trkpt lat="37.9508413933217525482177734375" lon="-107.11031950078904628753662109375">
        <ele>3866</ele>
        <time>2026-01-06T17:53:22.000Z</time>
        <extensions>
          <ns3:TrackPointExtension>
            <ns3:hr>126</ns3:hr>
            <ns3:cad>0</ns3:cad>
          </ns3:TrackPointExtension>
        </extensions>
      </trkpt>
      <trkpt lat="37.95087181963026523590087890625" lon="-107.11031480692327022552490234375">
        <ele>3866.39990234375</ele>
        <time>2026-01-06T17:53:27.000Z</time>
        <extensions>
          <ns3:TrackPointExtension>
            <ns3:hr>129</ns3:hr>
            <ns3:cad>0</ns3:cad>
          </ns3:TrackPointExtension>
        </extensions>
      </trkpt>
      <trkpt lat="37.9508853144943714141845703125" lon="-107.11030391044914722442626953125">
        <ele>3867</ele>
        <time>2026-01-06T17:53:31.000Z</time>
        <extensions>
          <ns3:TrackPointExtension>
            <ns3:hr>130</ns3:hr>
            <ns3:cad>0</ns3:cad>
          </ns3:TrackPointExtension>
        </extensions>
      </trkpt>
      <trkpt lat="37.95091976411640644073486328125" lon="-107.110307179391384124755859375">
        <ele>3867.39990234375</ele>
        <time>2026-01-06T17:53:37.000Z</time>
        <extensions>
          <ns3:TrackPointExtension>
            <ns3:hr>130</ns3:hr>
            <ns3:cad>0</ns3:cad>
          </ns3:TrackPointExtension>
        </extensions>
      </trkpt>
      <trkpt lat="37.950931750237941741943359375" lon="-107.1103013120591640472412109375">
        <ele>3867.60009765625</ele>
        <time>2026-01-06T17:53:40.000Z</time>
        <extensions>
          <ns3:TrackPointExtension>
            <ns3:hr>130</ns3:hr>
            <ns3:cad>0</ns3:cad>
          </ns3:TrackPointExtension>
        </extensions>
      </trkpt>
      <trkpt lat="37.9509667865931987762451171875" lon="-107.11028295569121837615966796875">
        <ele>3868</ele>
        <time>2026-01-06T17:53:46.000Z</time>
        <extensions>
          <ns3:TrackPointExtension>
            <ns3:hr>130</ns3:hr>
            <ns3:cad>0</ns3:cad>
          </ns3:TrackPointExtension>
        </extensions>
      </trkpt>
      <trkpt lat="37.95098816044628620147705078125" lon="-107.11027926765382289886474609375">
        <ele>3868.60009765625</ele>
        <time>2026-01-06T17:53:51.000Z</time>
        <extensions>
          <ns3:TrackPointExtension>
            <ns3:hr>130</ns3:hr>
            <ns3:cad>0</ns3:cad>
          </ns3:TrackPointExtension>
        </extensions>
      </trkpt>
      <trkpt lat="37.95099570415914058685302734375" lon="-107.11027038283646106719970703125">
        <ele>3868.800048828125</ele>
        <time>2026-01-06T17:53:53.000Z</time>
        <extensions>
          <ns3:TrackPointExtension>
            <ns3:hr>129</ns3:hr>
            <ns3:cad>0</ns3:cad>
          </ns3:TrackPointExtension>
        </extensions>
      </trkpt>
      <trkpt lat="37.95102286152541637420654296875" lon="-107.110253535211086273193359375">
        <ele>3869.60009765625</ele>
        <time>2026-01-06T17:53:59.000Z</time>
        <extensions>
          <ns3:TrackPointExtension>
            <ns3:hr>130</ns3:hr>
            <ns3:cad>0</ns3:cad>
          </ns3:TrackPointExtension>
        </extensions>
      </trkpt>
      <trkpt lat="37.951026968657970428466796875" lon="-107.1102486737072467803955078125">
        <ele>3869.60009765625</ele>
        <time>2026-01-06T17:54:00.000Z</time>
        <extensions>
          <ns3:TrackPointExtension>
            <ns3:hr>130</ns3:hr>
            <ns3:cad>61</ns3:cad>
          </ns3:TrackPointExtension>
        </extensions>
      </trkpt>
      <trkpt lat="37.95105068944394588470458984375" lon="-107.1102231927216053009033203125">
        <ele>3870.199951171875</ele>
        <time>2026-01-06T17:54:06.000Z</time>
        <extensions>
          <ns3:TrackPointExtension>
            <ns3:hr>130</ns3:hr>
            <ns3:cad>0</ns3:cad>
          </ns3:TrackPointExtension>
        </extensions>
      </trkpt>
      <trkpt lat="37.95108371414244174957275390625" lon="-107.1102117933332920074462890625">
        <ele>3870.39990234375</ele>
        <time>2026-01-06T17:54:12.000Z</time>
        <extensions>
          <ns3:TrackPointExtension>
            <ns3:hr>131</ns3:hr>
            <ns3:cad>0</ns3:cad>
          </ns3:TrackPointExtension>
        </extensions>
      </trkpt>
      <trkpt lat="37.95108740217983722686767578125" lon="-107.11021053604781627655029296875">
        <ele>3870.60009765625</ele>
        <time>2026-01-06T17:54:13.000Z</time>
        <extensions>
          <ns3:TrackPointExtension>
            <ns3:hr>131</ns3:hr>
            <ns3:cad>0</ns3:cad>
          </ns3:TrackPointExtension>
        </extensions>
      </trkpt>
      <trkpt lat="37.95111179351806640625" lon="-107.1101962029933929443359375">
        <ele>3871.199951171875</ele>
        <time>2026-01-06T17:54:19.000Z</time>
        <extensions>
          <ns3:TrackPointExtension>
            <ns3:hr>131</ns3:hr>
            <ns3:cad>0</ns3:cad>
          </ns3:TrackPointExtension>
        </extensions>
      </trkpt>
      <trkpt lat="37.95114087872207164764404296875" lon="-107.11018840782344341278076171875">
        <ele>3871.39990234375</ele>
        <time>2026-01-06T17:54:25.000Z</time>
        <extensions>
          <ns3:TrackPointExtension>
            <ns3:hr>131</ns3:hr>
            <ns3:cad>0</ns3:cad>
          </ns3:TrackPointExtension>
        </extensions>
      </trkpt>
      <trkpt lat="37.95115462504327297210693359375" lon="-107.11018220521509647369384765625">
        <ele>3871.199951171875</ele>
        <time>2026-01-06T17:54:31.000Z</time>
        <extensions>
          <ns3:TrackPointExtension>
            <ns3:hr>131</ns3:hr>
            <ns3:cad>0</ns3:cad>
          </ns3:TrackPointExtension>
        </extensions>
      </trkpt>
      <trkpt lat="37.95115898363292217254638671875" lon="-107.11017784662544727325439453125">
        <ele>3871.199951171875</ele>
        <time>2026-01-06T17:54:33.000Z</time>
        <extensions>
          <ns3:TrackPointExtension>
            <ns3:hr>131</ns3:hr>
            <ns3:cad>0</ns3:cad>
          </ns3:TrackPointExtension>
        </extensions>
      </trkpt>
      <trkpt lat="37.95117809437215328216552734375" lon="-107.1101732365787029266357421875">
        <ele>3871.800048828125</ele>
        <time>2026-01-06T17:54:38.000Z</time>
        <extensions>
          <ns3:TrackPointExtension>
            <ns3:hr>131</ns3:hr>
            <ns3:cad>0</ns3:cad>
          </ns3:TrackPointExtension>
        </extensions>
      </trkpt>
      <trkpt lat="37.95118681155145168304443359375" lon="-107.110168039798736572265625">
        <ele>3872</ele>
        <time>2026-01-06T17:54:40.000Z</time>
        <extensions>
          <ns3:TrackPointExtension>
            <ns3:hr>131</ns3:hr>
            <ns3:cad>0</ns3:cad>
          </ns3:TrackPointExtension>
        </extensions>
      </trkpt>
      <trkpt lat="37.95121246017515659332275390625" lon="-107.11016946472227573394775390625">
        <ele>3872.199951171875</ele>
        <time>2026-01-06T17:54:46.000Z</time>
        <extensions>
          <ns3:TrackPointExtension>
            <ns3:hr>129</ns3:hr>
            <ns3:cad>0</ns3:cad>
          </ns3:TrackPointExtension>
        </extensions>
      </trkpt>
      <trkpt lat="37.9512175731360912322998046875" lon="-107.1101708896458148956298828125">
        <ele>3872.199951171875</ele>
        <time>2026-01-06T17:54:47.000Z</time>
        <extensions>
          <ns3:TrackPointExtension>
            <ns3:hr>129</ns3:hr>
            <ns3:cad>0</ns3:cad>
          </ns3:TrackPointExtension>
        </extensions>
      </trkpt>
      <trkpt lat="37.9512311518192291259765625" lon="-107.1101658605039119720458984375">
        <ele>3872.800048828125</ele>
        <time>2026-01-06T17:54:52.000Z</time>
        <extensions>
          <ns3:TrackPointExtension>
            <ns3:hr>127</ns3:hr>
            <ns3:cad>0</ns3:cad>
          </ns3:TrackPointExtension>
        </extensions>
      </trkpt>
      <trkpt lat="37.951237522065639495849609375" lon="-107.110165022313594818115234375">
        <ele>3872.800048828125</ele>
        <time>2026-01-06T17:54:53.000Z</time>
        <extensions>
          <ns3:TrackPointExtension>
            <ns3:hr>127</ns3:hr>
            <ns3:cad>0</ns3:cad>
          </ns3:TrackPointExtension>
        </extensions>
      </trkpt>
      <trkpt lat="37.95126694254577159881591796875" lon="-107.1101527847349643707275390625">
        <ele>3873.199951171875</ele>
        <time>2026-01-06T17:54:59.000Z</time>
        <extensions>
          <ns3:TrackPointExtension>
            <ns3:hr>128</ns3:hr>
            <ns3:cad>0</ns3:cad>
          </ns3:TrackPointExtension>
        </extensions>
      </trkpt>
      <trkpt lat="37.95127280987799167633056640625" lon="-107.1101504378020763397216796875">
        <ele>3873.39990234375</ele>
        <time>2026-01-06T17:55:01.000Z</time>
        <extensions>
          <ns3:TrackPointExtension>
            <ns3:hr>128</ns3:hr>
            <ns3:cad>0</ns3:cad>
          </ns3:TrackPointExtension>
        </extensions>
      </trkpt>
      <trkpt lat="37.95128856785595417022705078125" lon="-107.11014331318438053131103515625">
        <ele>3873.800048828125</ele>
        <time>2026-01-06T17:55:05.000Z</time>
        <extensions>
          <ns3:TrackPointExtension>
            <ns3:hr>129</ns3:hr>
            <ns3:cad>43</ns3:cad>
          </ns3:TrackPointExtension>
        </extensions>
      </trkpt>
      <trkpt lat="37.951307259500026702880859375" lon="-107.11013359017670154571533203125">
        <ele>3874.199951171875</ele>
        <time>2026-01-06T17:55:09.000Z</time>
        <extensions>
          <ns3:TrackPointExtension>
            <ns3:hr>129</ns3:hr>
            <ns3:cad>0</ns3:cad>
          </ns3:TrackPointExtension>
        </extensions>
      </trkpt>
      <trkpt lat="37.9513277113437652587890625" lon="-107.11011506617069244384765625">
        <ele>3874.800048828125</ele>
        <time>2026-01-06T17:55:15.000Z</time>
        <extensions>
          <ns3:TrackPointExtension>
            <ns3:hr>130</ns3:hr>
            <ns3:cad>0</ns3:cad>
          </ns3:TrackPointExtension>
        </extensions>
      </trkpt>
      <trkpt lat="37.95132930390536785125732421875" lon="-107.11011531762778759002685546875">
        <ele>3874.800048828125</ele>
        <time>2026-01-06T17:55:16.000Z</time>
        <extensions>
          <ns3:TrackPointExtension>
            <ns3:hr>130</ns3:hr>
            <ns3:cad>0</ns3:cad>
          </ns3:TrackPointExtension>
        </extensions>
      </trkpt>
      <trkpt lat="37.951332069933414459228515625" lon="-107.1101157367229461669921875">
        <ele>3874.800048828125</ele>
        <time>2026-01-06T17:55:17.000Z</time>
        <extensions>
          <ns3:TrackPointExtension>
            <ns3:hr>131</ns3:hr>
            <ns3:cad>0</ns3:cad>
          </ns3:TrackPointExtension>
        </extensions>
      </trkpt>
      <trkpt lat="37.95136165805160999298095703125" lon="-107.110095955431461334228515625">
        <ele>3875</ele>
        <time>2026-01-06T17:55:23.000Z</time>
        <extensions>
          <ns3:TrackPointExtension>
            <ns3:hr>130</ns3:hr>
            <ns3:cad>0</ns3:cad>
          </ns3:TrackPointExtension>
        </extensions>
      </trkpt>
      <trkpt lat="37.95138378627598285675048828125" lon="-107.11007055826485157012939453125">
        <ele>3875.800048828125</ele>
        <time>2026-01-06T17:55:29.000Z</time>
        <extensions>
          <ns3:TrackPointExtension>
            <ns3:hr>131</ns3:hr>
            <ns3:cad>0</ns3:cad>
          </ns3:TrackPointExtension>
        </extensions>
      </trkpt>
      <trkpt lat="37.95138780958950519561767578125" lon="-107.110064439475536346435546875">
        <ele>3875.800048828125</ele>
        <time>2026-01-06T17:55:30.000Z</time>
        <extensions>
          <ns3:TrackPointExtension>
            <ns3:hr>131</ns3:hr>
            <ns3:cad>0</ns3:cad>
          </ns3:TrackPointExtension>
        </extensions>
      </trkpt>
      <trkpt lat="37.95139233581721782684326171875" lon="-107.1100582368671894073486328125">
        <ele>3876</ele>
        <time>2026-01-06T17:55:31.000Z</time>
        <extensions>
          <ns3:TrackPointExtension>
            <ns3:hr>130</ns3:hr>
            <ns3:cad>0</ns3:cad>
          </ns3:TrackPointExtension>
        </extensions>
      </trkpt>
      <trkpt lat="37.9514033161103725433349609375" lon="-107.11004524491727352142333984375">
        <ele>3876.60009765625</ele>
        <time>2026-01-06T17:55:36.000Z</time>
        <extensions>
          <ns3:TrackPointExtension>
            <ns3:hr>130</ns3:hr>
            <ns3:cad>0</ns3:cad>
          </ns3:TrackPointExtension>
        </extensions>
      </trkpt>
      <trkpt lat="37.9514308087527751922607421875" lon="-107.1100220270454883575439453125">
        <ele>3877</ele>
        <time>2026-01-06T17:55:40.000Z</time>
        <extensions>
          <ns3:TrackPointExtension>
            <ns3:hr>131</ns3:hr>
            <ns3:cad>0</ns3:cad>
          </ns3:TrackPointExtension>
        </extensions>
      </trkpt>
      <trkpt lat="37.95144011266529560089111328125" lon="-107.11001557298004627227783203125">
        <ele>3877.39990234375</ele>
        <time>2026-01-06T17:55:43.000Z</time>
        <extensions>
          <ns3:TrackPointExtension>
            <ns3:hr>132</ns3:hr>
            <ns3:cad>0</ns3:cad>
          </ns3:TrackPointExtension>
        </extensions>
      </trkpt>
      <trkpt lat="37.95144933275878429412841796875" lon="-107.11001087911427021026611328125">
        <ele>3878</ele>
        <time>2026-01-06T17:55:47.000Z</time>
        <extensions>
          <ns3:TrackPointExtension>
            <ns3:hr>133</ns3:hr>
            <ns3:cad>0</ns3:cad>
          </ns3:TrackPointExtension>
        </extensions>
      </trkpt>
      <trkpt lat="37.95146592892706394195556640625" lon="-107.11000065319240093231201171875">
        <ele>3878.199951171875</ele>
        <time>2026-01-06T17:55:52.000Z</time>
        <extensions>
          <ns3:TrackPointExtension>
            <ns3:hr>133</ns3:hr>
            <ns3:cad>0</ns3:cad>
          </ns3:TrackPointExtension>
        </extensions>
      </trkpt>
      <trkpt lat="37.951491661369800567626953125" lon="-107.1099871583282947540283203125">
        <ele>3879</ele>
        <time>2026-01-06T17:55:58.000Z</time>
        <extensions>
          <ns3:TrackPointExtension>
            <ns3:hr>134</ns3:hr>
            <ns3:cad>0</ns3:cad>
          </ns3:TrackPointExtension>
        </extensions>
      </trkpt>
      <trkpt lat="37.95149375684559345245361328125" lon="-107.10998791269958019256591796875">
        <ele>3879.199951171875</ele>
        <time>2026-01-06T17:55:59.000Z</time>
        <extensions>
          <ns3:TrackPointExtension>
            <ns3:hr>134</ns3:hr>
            <ns3:cad>0</ns3:cad>
          </ns3:TrackPointExtension>
        </extensions>
      </trkpt>
      <trkpt lat="37.951511107385158538818359375" lon="-107.10997919552028179168701171875">
        <ele>3879.60009765625</ele>
        <time>2026-01-06T17:56:04.000Z</time>
        <extensions>
          <ns3:TrackPointExtension>
            <ns3:hr>133</ns3:hr>
            <ns3:cad>0</ns3:cad>
          </ns3:TrackPointExtension>
        </extensions>
      </trkpt>
      <trkpt lat="37.951531894505023956298828125" lon="-107.1099760942161083221435546875">
        <ele>3879.60009765625</ele>
        <time>2026-01-06T17:56:10.000Z</time>
        <extensions>
          <ns3:TrackPointExtension>
            <ns3:hr>133</ns3:hr>
            <ns3:cad>0</ns3:cad>
          </ns3:TrackPointExtension>
        </extensions>
      </trkpt>
      <trkpt lat="37.9515484906733036041259765625" lon="-107.1099640242755413055419921875">
        <ele>3880.199951171875</ele>
        <time>2026-01-06T17:56:15.000Z</time>
        <extensions>
          <ns3:TrackPointExtension>
            <ns3:hr>133</ns3:hr>
            <ns3:cad>0</ns3:cad>
          </ns3:TrackPointExtension>
        </extensions>
      </trkpt>
      <trkpt lat="37.951558046042919158935546875" lon="-107.1099543012678623199462890625">
        <ele>3880.39990234375</ele>
        <time>2026-01-06T17:56:17.000Z</time>
        <extensions>
          <ns3:TrackPointExtension>
            <ns3:hr>132</ns3:hr>
            <ns3:cad>0</ns3:cad>
          </ns3:TrackPointExtension>
        </extensions>
      </trkpt>
      <trkpt lat="37.95157916843891143798828125" lon="-107.10994767956435680389404296875">
        <ele>3880.60009765625</ele>
        <time>2026-01-06T17:56:23.000Z</time>
        <extensions>
          <ns3:TrackPointExtension>
            <ns3:hr>129</ns3:hr>
            <ns3:cad>0</ns3:cad>
          </ns3:TrackPointExtension>
        </extensions>
      </trkpt>
      <trkpt lat="37.95158989727497100830078125" lon="-107.10994265042245388031005859375">
        <ele>3881</ele>
        <time>2026-01-06T17:56:25.000Z</time>
        <extensions>
          <ns3:TrackPointExtension>
            <ns3:hr>130</ns3:hr>
            <ns3:cad>0</ns3:cad>
          </ns3:TrackPointExtension>
        </extensions>
      </trkpt>
      <trkpt lat="37.95160456560552120208740234375" lon="-107.10993468761444091796875">
        <ele>3881.39990234375</ele>
        <time>2026-01-06T17:56:30.000Z</time>
        <extensions>
          <ns3:TrackPointExtension>
            <ns3:hr>129</ns3:hr>
            <ns3:cad>0</ns3:cad>
          </ns3:TrackPointExtension>
        </extensions>
      </trkpt>
      <trkpt lat="37.95160473324358463287353515625" lon="-107.10993460379540920257568359375">
        <ele>3881.60009765625</ele>
        <time>2026-01-06T17:56:31.000Z</time>
        <extensions>
          <ns3:TrackPointExtension>
            <ns3:hr>129</ns3:hr>
            <ns3:cad>0</ns3:cad>
          </ns3:TrackPointExtension>
        </extensions>
      </trkpt>
      <trkpt lat="37.9516276158392429351806640625" lon="-107.10991499014198780059814453125">
        <ele>3881.60009765625</ele>
        <time>2026-01-06T17:56:37.000Z</time>
        <extensions>
          <ns3:TrackPointExtension>
            <ns3:hr>131</ns3:hr>
            <ns3:cad>0</ns3:cad>
          </ns3:TrackPointExtension>
        </extensions>
      </trkpt>
      <trkpt lat="37.9516276158392429351806640625" lon="-107.10991482250392436981201171875">
        <ele>3881.60009765625</ele>
        <time>2026-01-06T17:56:38.000Z</time>
        <extensions>
          <ns3:TrackPointExtension>
            <ns3:hr>131</ns3:hr>
            <ns3:cad>0</ns3:cad>
          </ns3:TrackPointExtension>
        </extensions>
      </trkpt>
      <trkpt lat="37.9516388475894927978515625" lon="-107.1099040098488330841064453125">
        <ele>3882</ele>
        <time>2026-01-06T17:56:43.000Z</time>
        <extensions>
          <ns3:TrackPointExtension>
            <ns3:hr>130</ns3:hr>
            <ns3:cad>0</ns3:cad>
          </ns3:TrackPointExtension>
        </extensions>
      </trkpt>
      <trkpt lat="37.95166608877480030059814453125" lon="-107.1098855696618556976318359375">
        <ele>3882.39990234375</ele>
        <time>2026-01-06T17:56:49.000Z</time>
        <extensions>
          <ns3:TrackPointExtension>
            <ns3:hr>130</ns3:hr>
            <ns3:cad>0</ns3:cad>
          </ns3:TrackPointExtension>
        </extensions>
      </trkpt>
      <trkpt lat="37.95169458724558353424072265625" lon="-107.10986872203648090362548828125">
        <ele>3883</ele>
        <time>2026-01-06T17:56:55.000Z</time>
        <extensions>
          <ns3:TrackPointExtension>
            <ns3:hr>130</ns3:hr>
            <ns3:cad>0</ns3:cad>
          </ns3:TrackPointExtension>
        </extensions>
      </trkpt>
      <trkpt lat="37.9516963474452495574951171875" lon="-107.1098691411316394805908203125">
        <ele>3883.199951171875</ele>
        <time>2026-01-06T17:56:56.000Z</time>
        <extensions>
          <ns3:TrackPointExtension>
            <ns3:hr>130</ns3:hr>
            <ns3:cad>0</ns3:cad>
          </ns3:TrackPointExtension>
        </extensions>
      </trkpt>
      <trkpt lat="37.9517141170799732208251953125" lon="-107.109853886067867279052734375">
        <ele>3883.39990234375</ele>
        <time>2026-01-06T17:57:00.000Z</time>
        <extensions>
          <ns3:TrackPointExtension>
            <ns3:hr>131</ns3:hr>
            <ns3:cad>0</ns3:cad>
          </ns3:TrackPointExtension>
        </extensions>
      </trkpt>
      <trkpt lat="37.9517224989831447601318359375" lon="-107.109847180545330047607421875">
        <ele>3883.60009765625</ele>
        <time>2026-01-06T17:57:02.000Z</time>
        <extensions>
          <ns3:TrackPointExtension>
            <ns3:hr>130</ns3:hr>
            <ns3:cad>0</ns3:cad>
          </ns3:TrackPointExtension>
        </extensions>
      </trkpt>
      <trkpt lat="37.95175443403422832489013671875" lon="-107.10983603261411190032958984375">
        <ele>3884</ele>
        <time>2026-01-06T17:57:08.000Z</time>
        <extensions>
          <ns3:TrackPointExtension>
            <ns3:hr>131</ns3:hr>
            <ns3:cad>0</ns3:cad>
          </ns3:TrackPointExtension>
        </extensions>
      </trkpt>
      <trkpt lat="37.9517550207674503326416015625" lon="-107.10983368568122386932373046875">
        <ele>3884.199951171875</ele>
        <time>2026-01-06T17:57:09.000Z</time>
        <extensions>
          <ns3:TrackPointExtension>
            <ns3:hr>131</ns3:hr>
            <ns3:cad>0</ns3:cad>
          </ns3:TrackPointExtension>
        </extensions>
      </trkpt>
      <trkpt lat="37.95176499523222446441650390625" lon="-107.1098305843770503997802734375">
        <ele>3884.60009765625</ele>
        <time>2026-01-06T17:57:11.000Z</time>
        <extensions>
          <ns3:TrackPointExtension>
            <ns3:hr>131</ns3:hr>
            <ns3:cad>0</ns3:cad>
          </ns3:TrackPointExtension>
        </extensions>
      </trkpt>
      <trkpt lat="37.951782010495662689208984375" lon="-107.1098305843770503997802734375">
        <ele>3884.800048828125</ele>
        <time>2026-01-06T17:57:14.000Z</time>
        <extensions>
          <ns3:TrackPointExtension>
            <ns3:hr>130</ns3:hr>
            <ns3:cad>0</ns3:cad>
          </ns3:TrackPointExtension>
        </extensions>
      </trkpt>
      <trkpt lat="37.95180447399616241455078125" lon="-107.1098211966454982757568359375">
        <ele>3885</ele>
        <time>2026-01-06T17:57:20.000Z</time>
        <extensions>
          <ns3:TrackPointExtension>
            <ns3:hr>130</ns3:hr>
            <ns3:cad>0</ns3:cad>
          </ns3:TrackPointExtension>
        </extensions>
      </trkpt>
      <trkpt lat="37.95182685367763042449951171875" lon="-107.1098144911229610443115234375">
        <ele>3885</ele>
        <time>2026-01-06T17:57:26.000Z</time>
        <extensions>
          <ns3:TrackPointExtension>
            <ns3:hr>130</ns3:hr>
            <ns3:cad>65</ns3:cad>
          </ns3:TrackPointExtension>
        </extensions>
      </trkpt>
      <trkpt lat="37.95185543596744537353515625" lon="-107.1098000742495059967041015625">
        <ele>3885.39990234375</ele>
        <time>2026-01-06T17:57:32.000Z</time>
        <extensions>
          <ns3:TrackPointExtension>
            <ns3:hr>129</ns3:hr>
            <ns3:cad>0</ns3:cad>
          </ns3:TrackPointExtension>
        </extensions>
      </trkpt>
      <trkpt lat="37.951861135661602020263671875" lon="-107.109798230230808258056640625">
        <ele>3885.60009765625</ele>
        <time>2026-01-06T17:57:33.000Z</time>
        <extensions>
          <ns3:TrackPointExtension>
            <ns3:hr>128</ns3:hr>
            <ns3:cad>0</ns3:cad>
          </ns3:TrackPointExtension>
        </extensions>
      </trkpt>
      <trkpt lat="37.95187530107796192169189453125" lon="-107.10979278199374675750732421875">
        <ele>3885.800048828125</ele>
        <time>2026-01-06T17:57:35.000Z</time>
        <extensions>
          <ns3:TrackPointExtension>
            <ns3:hr>129</ns3:hr>
            <ns3:cad>0</ns3:cad>
          </ns3:TrackPointExtension>
        </extensions>
      </trkpt>
      <trkpt lat="37.951896674931049346923828125" lon="-107.10978523828089237213134765625">
        <ele>3886.800048828125</ele>
        <time>2026-01-06T17:57:40.000Z</time>
        <extensions>
          <ns3:TrackPointExtension>
            <ns3:hr>129</ns3:hr>
            <ns3:cad>57</ns3:cad>
          </ns3:TrackPointExtension>
        </extensions>
      </trkpt>
      <trkpt lat="37.9519012011587619781494140625" lon="-107.10978255607187747955322265625">
        <ele>3886.800048828125</ele>
        <time>2026-01-06T17:57:41.000Z</time>
        <extensions>
          <ns3:TrackPointExtension>
            <ns3:hr>129</ns3:hr>
            <ns3:cad>57</ns3:cad>
          </ns3:TrackPointExtension>
        </extensions>
      </trkpt>
      <trkpt lat="37.95190966688096523284912109375" lon="-107.10977844893932342529296875">
        <ele>3886.60009765625</ele>
        <time>2026-01-06T17:57:47.000Z</time>
        <extensions>
          <ns3:TrackPointExtension>
            <ns3:hr>129</ns3:hr>
            <ns3:cad>0</ns3:cad>
          </ns3:TrackPointExtension>
        </extensions>
      </trkpt>
      <trkpt lat="37.9519193060696125030517578125" lon="-107.10976445116102695465087890625">
        <ele>3887.60009765625</ele>
        <time>2026-01-06T17:57:53.000Z</time>
        <extensions>
          <ns3:TrackPointExtension>
            <ns3:hr>128</ns3:hr>
            <ns3:cad>0</ns3:cad>
          </ns3:TrackPointExtension>
        </extensions>
      </trkpt>
      <trkpt lat="37.9519193060696125030517578125" lon="-107.10976445116102695465087890625">
        <ele>3887.60009765625</ele>
        <time>2026-01-06T17:57:56.000Z</time>
        <extensions>
          <ns3:TrackPointExtension>
            <ns3:hr>128</ns3:hr>
            <ns3:cad>0</ns3:cad>
          </ns3:TrackPointExtension>
        </extensions>
      </trkpt>
      <trkpt lat="37.9519193060696125030517578125" lon="-107.10976445116102695465087890625">
        <ele>3887.39990234375</ele>
        <time>2026-01-06T17:58:02.000Z</time>
        <extensions>
          <ns3:TrackPointExtension>
            <ns3:hr>127</ns3:hr>
            <ns3:cad>0</ns3:cad>
          </ns3:TrackPointExtension>
        </extensions>
      </trkpt>
      <trkpt lat="37.9519193060696125030517578125" lon="-107.10976445116102695465087890625">
        <ele>3887.39990234375</ele>
        <time>2026-01-06T17:58:08.000Z</time>
        <extensions>
          <ns3:TrackPointExtension>
            <ns3:hr>126</ns3:hr>
            <ns3:cad>0</ns3:cad>
          </ns3:TrackPointExtension>
        </extensions>
      </trkpt>
      <trkpt lat="37.9519193060696125030517578125" lon="-107.10976445116102695465087890625">
        <ele>3887.60009765625</ele>
        <time>2026-01-06T17:58:13.000Z</time>
        <extensions>
          <ns3:TrackPointExtension>
            <ns3:hr>124</ns3:hr>
            <ns3:cad>0</ns3:cad>
          </ns3:TrackPointExtension>
        </extensions>
      </trkpt>
      <trkpt lat="37.9519193060696125030517578125" lon="-107.10976445116102695465087890625">
        <ele>3887.60009765625</ele>
        <time>2026-01-06T17:58:19.000Z</time>
        <extensions>
          <ns3:TrackPointExtension>
            <ns3:hr>122</ns3:hr>
            <ns3:cad>0</ns3:cad>
          </ns3:TrackPointExtension>
        </extensions>
      </trkpt>
      <trkpt lat="37.9519193060696125030517578125" lon="-107.10976445116102695465087890625">
        <ele>3887.800048828125</ele>
        <time>2026-01-06T17:58:20.000Z</time>
        <extensions>
          <ns3:TrackPointExtension>
            <ns3:hr>122</ns3:hr>
            <ns3:cad>0</ns3:cad>
          </ns3:TrackPointExtension>
        </extensions>
      </trkpt>
      <trkpt lat="37.9519193060696125030517578125" lon="-107.10976445116102695465087890625">
        <ele>3887.800048828125</ele>
        <time>2026-01-06T17:58:24.000Z</time>
        <extensions>
          <ns3:TrackPointExtension>
            <ns3:hr>123</ns3:hr>
            <ns3:cad>0</ns3:cad>
          </ns3:TrackPointExtension>
        </extensions>
      </trkpt>
      <trkpt lat="37.9519193060696125030517578125" lon="-107.10976445116102695465087890625">
        <ele>3888.199951171875</ele>
        <time>2026-01-06T17:58:30.000Z</time>
        <extensions>
          <ns3:TrackPointExtension>
            <ns3:hr>123</ns3:hr>
            <ns3:cad>0</ns3:cad>
          </ns3:TrackPointExtension>
        </extensions>
      </trkpt>
      <trkpt lat="37.9519193060696125030517578125" lon="-107.10976445116102695465087890625">
        <ele>3888.39990234375</ele>
        <time>2026-01-06T17:58:34.000Z</time>
        <extensions>
          <ns3:TrackPointExtension>
            <ns3:hr>124</ns3:hr>
            <ns3:cad>0</ns3:cad>
          </ns3:TrackPointExtension>
        </extensions>
      </trkpt>
      <trkpt lat="37.9519193060696125030517578125" lon="-107.10976445116102695465087890625">
        <ele>3888</ele>
        <time>2026-01-06T17:58:40.000Z</time>
        <extensions>
          <ns3:TrackPointExtension>
            <ns3:hr>124</ns3:hr>
            <ns3:cad>0</ns3:cad>
          </ns3:TrackPointExtension>
        </extensions>
      </trkpt>
      <trkpt lat="37.9519193060696125030517578125" lon="-107.10976445116102695465087890625">
        <ele>3888</ele>
        <time>2026-01-06T17:58:43.000Z</time>
        <extensions>
          <ns3:TrackPointExtension>
            <ns3:hr>127</ns3:hr>
            <ns3:cad>0</ns3:cad>
          </ns3:TrackPointExtension>
        </extensions>
      </trkpt>
      <trkpt lat="37.9519193060696125030517578125" lon="-107.10976445116102695465087890625">
        <ele>3888.800048828125</ele>
        <time>2026-01-06T17:58:47.000Z</time>
        <extensions>
          <ns3:TrackPointExtension>
            <ns3:hr>122</ns3:hr>
            <ns3:cad>0</ns3:cad>
          </ns3:TrackPointExtension>
        </extensions>
      </trkpt>
      <trkpt lat="37.9519193060696125030517578125" lon="-107.10976445116102695465087890625">
        <ele>3888</ele>
        <time>2026-01-06T17:58:51.000Z</time>
        <extensions>
          <ns3:TrackPointExtension>
            <ns3:hr>119</ns3:hr>
            <ns3:cad>0</ns3:cad>
          </ns3:TrackPointExtension>
        </extensions>
      </trkpt>
      <trkpt lat="37.9519276879727840423583984375" lon="-107.10976813919842243194580078125">
        <ele>3887.60009765625</ele>
        <time>2026-01-06T17:58:53.000Z</time>
        <extensions>
          <ns3:TrackPointExtension>
            <ns3:hr>118</ns3:hr>
            <ns3:cad>0</ns3:cad>
          </ns3:TrackPointExtension>
        </extensions>
      </trkpt>
      <trkpt lat="37.9519193060696125030517578125" lon="-107.10976445116102695465087890625">
        <ele>3888.60009765625</ele>
        <time>2026-01-06T17:58:59.000Z</time>
        <extensions>
          <ns3:TrackPointExtension>
            <ns3:hr>116</ns3:hr>
            <ns3:cad>0</ns3:cad>
          </ns3:TrackPointExtension>
        </extensions>
      </trkpt>
      <trkpt lat="37.9519193060696125030517578125" lon="-107.10976445116102695465087890625">
        <ele>3888.800048828125</ele>
        <time>2026-01-06T17:59:01.000Z</time>
        <extensions>
          <ns3:TrackPointExtension>
            <ns3:hr>116</ns3:hr>
            <ns3:cad>0</ns3:cad>
          </ns3:TrackPointExtension>
        </extensions>
      </trkpt>
      <trkpt lat="37.95192777179181575775146484375" lon="-107.10977517999708652496337890625">
        <ele>3889</ele>
        <time>2026-01-06T17:59:07.000Z</time>
        <extensions>
          <ns3:TrackPointExtension>
            <ns3:hr>117</ns3:hr>
            <ns3:cad>0</ns3:cad>
          </ns3:TrackPointExtension>
        </extensions>
      </trkpt>
      <trkpt lat="37.95192827470600605010986328125" lon="-107.1097766049206256866455078125">
        <ele>3889</ele>
        <time>2026-01-06T17:59:08.000Z</time>
        <extensions>
          <ns3:TrackPointExtension>
            <ns3:hr>117</ns3:hr>
            <ns3:cad>0</ns3:cad>
          </ns3:TrackPointExtension>
        </extensions>
      </trkpt>
      <trkpt lat="37.9519193060696125030517578125" lon="-107.10976445116102695465087890625">
        <ele>3888.39990234375</ele>
        <time>2026-01-06T17:59:13.000Z</time>
        <extensions>
          <ns3:TrackPointExtension>
            <ns3:hr>114</ns3:hr>
            <ns3:cad>0</ns3:cad>
          </ns3:TrackPointExtension>
        </extensions>
      </trkpt>
      <trkpt lat="37.9519193060696125030517578125" lon="-107.10976445116102695465087890625">
        <ele>3888.60009765625</ele>
        <time>2026-01-06T17:59:19.000Z</time>
        <extensions>
          <ns3:TrackPointExtension>
            <ns3:hr>113</ns3:hr>
            <ns3:cad>0</ns3:cad>
          </ns3:TrackPointExtension>
        </extensions>
      </trkpt>
      <trkpt lat="37.9519193060696125030517578125" lon="-107.10976445116102695465087890625">
        <ele>3888.60009765625</ele>
        <time>2026-01-06T17:59:21.000Z</time>
        <extensions>
          <ns3:TrackPointExtension>
            <ns3:hr>116</ns3:hr>
            <ns3:cad>0</ns3:cad>
          </ns3:TrackPointExtension>
        </extensions>
      </trkpt>
      <trkpt lat="37.9519193060696125030517578125" lon="-107.10976445116102695465087890625">
        <ele>3888.60009765625</ele>
        <time>2026-01-06T17:59:22.000Z</time>
        <extensions>
          <ns3:TrackPointExtension>
            <ns3:hr>120</ns3:hr>
            <ns3:cad>0</ns3:cad>
          </ns3:TrackPointExtension>
        </extensions>
      </trkpt>
      <trkpt lat="37.9519193060696125030517578125" lon="-107.10976445116102695465087890625">
        <ele>3888.60009765625</ele>
        <time>2026-01-06T17:59:24.000Z</time>
        <extensions>
          <ns3:TrackPointExtension>
            <ns3:hr>124</ns3:hr>
            <ns3:cad>0</ns3:cad>
          </ns3:TrackPointExtension>
        </extensions>
      </trkpt>
      <trkpt lat="37.9519193060696125030517578125" lon="-107.10976445116102695465087890625">
        <ele>3888.60009765625</ele>
        <time>2026-01-06T17:59:30.000Z</time>
        <extensions>
          <ns3:TrackPointExtension>
            <ns3:hr>124</ns3:hr>
            <ns3:cad>0</ns3:cad>
          </ns3:TrackPointExtension>
        </extensions>
      </trkpt>
      <trkpt lat="37.9519193060696125030517578125" lon="-107.10976445116102695465087890625">
        <ele>3888.60009765625</ele>
        <time>2026-01-06T17:59:31.000Z</time>
        <extensions>
          <ns3:TrackPointExtension>
            <ns3:hr>123</ns3:hr>
            <ns3:cad>0</ns3:cad>
          </ns3:TrackPointExtension>
        </extensions>
      </trkpt>
      <trkpt lat="37.9519193060696125030517578125" lon="-107.10976445116102695465087890625">
        <ele>3888.60009765625</ele>
        <time>2026-01-06T17:59:35.000Z</time>
        <extensions>
          <ns3:TrackPointExtension>
            <ns3:hr>120</ns3:hr>
            <ns3:cad>0</ns3:cad>
          </ns3:TrackPointExtension>
        </extensions>
      </trkpt>
      <trkpt lat="37.9519193060696125030517578125" lon="-107.10976445116102695465087890625">
        <ele>3888.199951171875</ele>
        <time>2026-01-06T17:59:40.000Z</time>
        <extensions>
          <ns3:TrackPointExtension>
            <ns3:hr>119</ns3:hr>
            <ns3:cad>0</ns3:cad>
          </ns3:TrackPointExtension>
        </extensions>
      </trkpt>
      <trkpt lat="37.95192291028797626495361328125" lon="-107.10977886803448200225830078125">
        <ele>3889.199951171875</ele>
        <time>2026-01-06T17:59:46.000Z</time>
        <extensions>
          <ns3:TrackPointExtension>
            <ns3:hr>117</ns3:hr>
            <ns3:cad>0</ns3:cad>
          </ns3:TrackPointExtension>
        </extensions>
      </trkpt>
      <trkpt lat="37.9519226588308811187744140625" lon="-107.10977802984416484832763671875">
        <ele>3889.39990234375</ele>
        <time>2026-01-06T17:59:47.000Z</time>
        <extensions>
          <ns3:TrackPointExtension>
            <ns3:hr>117</ns3:hr>
            <ns3:cad>0</ns3:cad>
          </ns3:TrackPointExtension>
        </extensions>
      </trkpt>
      <trkpt lat="37.95191712677478790283203125" lon="-107.1097997389733791351318359375">
        <ele>3889.39990234375</ele>
        <time>2026-01-06T17:59:51.000Z</time>
        <extensions>
          <ns3:TrackPointExtension>
            <ns3:hr>113</ns3:hr>
            <ns3:cad>0</ns3:cad>
          </ns3:TrackPointExtension>
        </extensions>
      </trkpt>
      <trkpt lat="37.95191905461251735687255859375" lon="-107.109803594648838043212890625">
        <ele>3888.800048828125</ele>
        <time>2026-01-06T17:59:53.000Z</time>
        <extensions>
          <ns3:TrackPointExtension>
            <ns3:hr>111</ns3:hr>
            <ns3:cad>79</ns3:cad>
          </ns3:TrackPointExtension>
        </extensions>
      </trkpt>
      <trkpt lat="37.9519164562225341796875" lon="-107.109804935753345489501953125">
        <ele>3888.199951171875</ele>
        <time>2026-01-06T17:59:57.000Z</time>
        <extensions>
          <ns3:TrackPointExtension>
            <ns3:hr>108</ns3:hr>
            <ns3:cad>0</ns3:cad>
          </ns3:TrackPointExtension>
        </extensions>
      </trkpt>
      <trkpt lat="37.9519164562225341796875" lon="-107.109804935753345489501953125">
        <ele>3888.39990234375</ele>
        <time>2026-01-06T18:00:03.000Z</time>
        <extensions>
          <ns3:TrackPointExtension>
            <ns3:hr>107</ns3:hr>
            <ns3:cad>0</ns3:cad>
          </ns3:TrackPointExtension>
        </extensions>
      </trkpt>
      <trkpt lat="37.9519164562225341796875" lon="-107.109804935753345489501953125">
        <ele>3888.199951171875</ele>
        <time>2026-01-06T18:00:04.000Z</time>
        <extensions>
          <ns3:TrackPointExtension>
            <ns3:hr>106</ns3:hr>
            <ns3:cad>0</ns3:cad>
          </ns3:TrackPointExtension>
        </extensions>
      </trkpt>
      <trkpt lat="37.9519164562225341796875" lon="-107.109804935753345489501953125">
        <ele>3889</ele>
        <time>2026-01-06T18:00:10.000Z</time>
        <extensions>
          <ns3:TrackPointExtension>
            <ns3:hr>106</ns3:hr>
            <ns3:cad>0</ns3:cad>
          </ns3:TrackPointExtension>
        </extensions>
      </trkpt>
      <trkpt lat="37.9519164562225341796875" lon="-107.109804935753345489501953125">
        <ele>3889</ele>
        <time>2026-01-06T18:00:13.000Z</time>
        <extensions>
          <ns3:TrackPointExtension>
            <ns3:hr>106</ns3:hr>
            <ns3:cad>0</ns3:cad>
          </ns3:TrackPointExtension>
        </extensions>
      </trkpt>
      <trkpt lat="37.9519164562225341796875" lon="-107.109804935753345489501953125">
        <ele>3888.800048828125</ele>
        <time>2026-01-06T18:00:18.000Z</time>
        <extensions>
          <ns3:TrackPointExtension>
            <ns3:hr>109</ns3:hr>
            <ns3:cad>0</ns3:cad>
          </ns3:TrackPointExtension>
        </extensions>
      </trkpt>
      <trkpt lat="37.95191578567028045654296875" lon="-107.10980736650526523590087890625">
        <ele>3888.800048828125</ele>
        <time>2026-01-06T18:00:23.000Z</time>
        <extensions>
          <ns3:TrackPointExtension>
            <ns3:hr>112</ns3:hr>
            <ns3:cad>0</ns3:cad>
          </ns3:TrackPointExtension>
        </extensions>
      </trkpt>
      <trkpt lat="37.9519164562225341796875" lon="-107.109804935753345489501953125">
        <ele>3888.60009765625</ele>
        <time>2026-01-06T18:00:25.000Z</time>
        <extensions>
          <ns3:TrackPointExtension>
            <ns3:hr>112</ns3:hr>
            <ns3:cad>0</ns3:cad>
          </ns3:TrackPointExtension>
        </extensions>
      </trkpt>
      <trkpt lat="37.9519164562225341796875" lon="-107.109804935753345489501953125">
        <ele>3888</ele>
        <time>2026-01-06T18:00:31.000Z</time>
        <extensions>
          <ns3:TrackPointExtension>
            <ns3:hr>113</ns3:hr>
            <ns3:cad>0</ns3:cad>
          </ns3:TrackPointExtension>
        </extensions>
      </trkpt>
      <trkpt lat="37.9519164562225341796875" lon="-107.109804935753345489501953125">
        <ele>3888.199951171875</ele>
        <time>2026-01-06T18:00:33.000Z</time>
        <extensions>
          <ns3:TrackPointExtension>
            <ns3:hr>114</ns3:hr>
            <ns3:cad>0</ns3:cad>
          </ns3:TrackPointExtension>
        </extensions>
      </trkpt>
      <trkpt lat="37.9519164562225341796875" lon="-107.109804935753345489501953125">
        <ele>3888.39990234375</ele>
        <time>2026-01-06T18:00:39.000Z</time>
        <extensions>
          <ns3:TrackPointExtension>
            <ns3:hr>113</ns3:hr>
            <ns3:cad>0</ns3:cad>
          </ns3:TrackPointExtension>
        </extensions>
      </trkpt>
      <trkpt lat="37.9519164562225341796875" lon="-107.109804935753345489501953125">
        <ele>3888.39990234375</ele>
        <time>2026-01-06T18:00:41.000Z</time>
        <extensions>
          <ns3:TrackPointExtension>
            <ns3:hr>114</ns3:hr>
            <ns3:cad>0</ns3:cad>
          </ns3:TrackPointExtension>
        </extensions>
      </trkpt>
      <trkpt lat="37.9519164562225341796875" lon="-107.109804935753345489501953125">
        <ele>3888.39990234375</ele>
        <time>2026-01-06T18:00:47.000Z</time>
        <extensions>
          <ns3:TrackPointExtension>
            <ns3:hr>115</ns3:hr>
            <ns3:cad>0</ns3:cad>
          </ns3:TrackPointExtension>
        </extensions>
      </trkpt>
      <trkpt lat="37.9519124329090118408203125" lon="-107.109806947410106658935546875">
        <ele>3888.199951171875</ele>
        <time>2026-01-06T18:00:52.000Z</time>
        <extensions>
          <ns3:TrackPointExtension>
            <ns3:hr>115</ns3:hr>
            <ns3:cad>0</ns3:cad>
          </ns3:TrackPointExtension>
        </extensions>
      </trkpt>
      <trkpt lat="37.9519164562225341796875" lon="-107.109804935753345489501953125">
        <ele>3889</ele>
        <time>2026-01-06T18:00:58.000Z</time>
        <extensions>
          <ns3:TrackPointExtension>
            <ns3:hr>115</ns3:hr>
            <ns3:cad>0</ns3:cad>
          </ns3:TrackPointExtension>
        </extensions>
      </trkpt>
      <trkpt lat="37.9519164562225341796875" lon="-107.109804935753345489501953125">
        <ele>3888.60009765625</ele>
        <time>2026-01-06T18:01:01.000Z</time>
        <extensions>
          <ns3:TrackPointExtension>
            <ns3:hr>111</ns3:hr>
            <ns3:cad>0</ns3:cad>
          </ns3:TrackPointExtension>
        </extensions>
      </trkpt>
      <trkpt lat="37.9519164562225341796875" lon="-107.109804935753345489501953125">
        <ele>3888.39990234375</ele>
        <time>2026-01-06T18:01:02.000Z</time>
        <extensions>
          <ns3:TrackPointExtension>
            <ns3:hr>106</ns3:hr>
            <ns3:cad>0</ns3:cad>
          </ns3:TrackPointExtension>
        </extensions>
      </trkpt>
      <trkpt lat="37.9519164562225341796875" lon="-107.109804935753345489501953125">
        <ele>3888.199951171875</ele>
        <time>2026-01-06T18:01:04.000Z</time>
        <extensions>
          <ns3:TrackPointExtension>
            <ns3:hr>103</ns3:hr>
            <ns3:cad>0</ns3:cad>
          </ns3:TrackPointExtension>
        </extensions>
      </trkpt>
      <trkpt lat="37.9519164562225341796875" lon="-107.109804935753345489501953125">
        <ele>3888.60009765625</ele>
        <time>2026-01-06T18:01:10.000Z</time>
        <extensions>
          <ns3:TrackPointExtension>
            <ns3:hr>102</ns3:hr>
            <ns3:cad>0</ns3:cad>
          </ns3:TrackPointExtension>
        </extensions>
      </trkpt>
      <trkpt lat="37.9519164562225341796875" lon="-107.109804935753345489501953125">
        <ele>3888.60009765625</ele>
        <time>2026-01-06T18:01:13.000Z</time>
        <extensions>
          <ns3:TrackPointExtension>
            <ns3:hr>103</ns3:hr>
            <ns3:cad>0</ns3:cad>
          </ns3:TrackPointExtension>
        </extensions>
      </trkpt>
      <trkpt lat="37.9519164562225341796875" lon="-107.109804935753345489501953125">
        <ele>3888.39990234375</ele>
        <time>2026-01-06T18:01:19.000Z</time>
        <extensions>
          <ns3:TrackPointExtension>
            <ns3:hr>105</ns3:hr>
            <ns3:cad>0</ns3:cad>
          </ns3:TrackPointExtension>
        </extensions>
      </trkpt>
      <trkpt lat="37.9519164562225341796875" lon="-107.109804935753345489501953125">
        <ele>3888.39990234375</ele>
        <time>2026-01-06T18:01:22.000Z</time>
        <extensions>
          <ns3:TrackPointExtension>
            <ns3:hr>106</ns3:hr>
            <ns3:cad>0</ns3:cad>
          </ns3:TrackPointExtension>
        </extensions>
      </trkpt>
      <trkpt lat="37.9519164562225341796875" lon="-107.109804935753345489501953125">
        <ele>3888.60009765625</ele>
        <time>2026-01-06T18:01:26.000Z</time>
        <extensions>
          <ns3:TrackPointExtension>
            <ns3:hr>103</ns3:hr>
            <ns3:cad>0</ns3:cad>
          </ns3:TrackPointExtension>
        </extensions>
      </trkpt>
      <trkpt lat="37.9519164562225341796875" lon="-107.109804935753345489501953125">
        <ele>3888.800048828125</ele>
        <time>2026-01-06T18:01:31.000Z</time>
        <extensions>
          <ns3:TrackPointExtension>
            <ns3:hr>101</ns3:hr>
            <ns3:cad>0</ns3:cad>
          </ns3:TrackPointExtension>
        </extensions>
      </trkpt>
      <trkpt lat="37.9519164562225341796875" lon="-107.109804935753345489501953125">
        <ele>3888.60009765625</ele>
        <time>2026-01-06T18:01:37.000Z</time>
        <extensions>
          <ns3:TrackPointExtension>
            <ns3:hr>102</ns3:hr>
            <ns3:cad>0</ns3:cad>
          </ns3:TrackPointExtension>
        </extensions>
      </trkpt>
      <trkpt lat="37.9519164562225341796875" lon="-107.109804935753345489501953125">
        <ele>3888.39990234375</ele>
        <time>2026-01-06T18:01:43.000Z</time>
        <extensions>
          <ns3:TrackPointExtension>
            <ns3:hr>101</ns3:hr>
            <ns3:cad>0</ns3:cad>
          </ns3:TrackPointExtension>
        </extensions>
      </trkpt>
      <trkpt lat="37.9519164562225341796875" lon="-107.109804935753345489501953125">
        <ele>3888.800048828125</ele>
        <time>2026-01-06T18:01:45.000Z</time>
        <extensions>
          <ns3:TrackPointExtension>
            <ns3:hr>100</ns3:hr>
            <ns3:cad>0</ns3:cad>
          </ns3:TrackPointExtension>
        </extensions>
      </trkpt>
      <trkpt lat="37.9519164562225341796875" lon="-107.109804935753345489501953125">
        <ele>3889</ele>
        <time>2026-01-06T18:01:51.000Z</time>
        <extensions>
          <ns3:TrackPointExtension>
            <ns3:hr>101</ns3:hr>
            <ns3:cad>0</ns3:cad>
          </ns3:TrackPointExtension>
        </extensions>
      </trkpt>
      <trkpt lat="37.9519164562225341796875" lon="-107.109804935753345489501953125">
        <ele>3889.199951171875</ele>
        <time>2026-01-06T18:01:55.000Z</time>
        <extensions>
          <ns3:TrackPointExtension>
            <ns3:hr>102</ns3:hr>
            <ns3:cad>0</ns3:cad>
          </ns3:TrackPointExtension>
        </extensions>
      </trkpt>
      <trkpt lat="37.9519164562225341796875" lon="-107.109804935753345489501953125">
        <ele>3889.800048828125</ele>
        <time>2026-01-06T18:02:00.000Z</time>
        <extensions>
          <ns3:TrackPointExtension>
            <ns3:hr>101</ns3:hr>
            <ns3:cad>0</ns3:cad>
          </ns3:TrackPointExtension>
        </extensions>
      </trkpt>
      <trkpt lat="37.9519164562225341796875" lon="-107.109804935753345489501953125">
        <ele>3889.800048828125</ele>
        <time>2026-01-06T18:02:02.000Z</time>
        <extensions>
          <ns3:TrackPointExtension>
            <ns3:hr>101</ns3:hr>
            <ns3:cad>0</ns3:cad>
          </ns3:TrackPointExtension>
        </extensions>
      </trkpt>
      <trkpt lat="37.9519164562225341796875" lon="-107.109804935753345489501953125">
        <ele>3889.60009765625</ele>
        <time>2026-01-06T18:02:06.000Z</time>
        <extensions>
          <ns3:TrackPointExtension>
            <ns3:hr>101</ns3:hr>
            <ns3:cad>0</ns3:cad>
          </ns3:TrackPointExtension>
        </extensions>
      </trkpt>
      <trkpt lat="37.9519164562225341796875" lon="-107.109804935753345489501953125">
        <ele>3888.800048828125</ele>
        <time>2026-01-06T18:02:09.000Z</time>
        <extensions>
          <ns3:TrackPointExtension>
            <ns3:hr>101</ns3:hr>
            <ns3:cad>0</ns3:cad>
          </ns3:TrackPointExtension>
        </extensions>
      </trkpt>
      <trkpt lat="37.9519164562225341796875" lon="-107.109804935753345489501953125">
        <ele>3887.800048828125</ele>
        <time>2026-01-06T18:02:15.000Z</time>
        <extensions>
          <ns3:TrackPointExtension>
            <ns3:hr>99</ns3:hr>
            <ns3:cad>0</ns3:cad>
          </ns3:TrackPointExtension>
        </extensions>
      </trkpt>
      <trkpt lat="37.9519164562225341796875" lon="-107.109804935753345489501953125">
        <ele>3887.800048828125</ele>
        <time>2026-01-06T18:02:20.000Z</time>
        <extensions>
          <ns3:TrackPointExtension>
            <ns3:hr>96</ns3:hr>
            <ns3:cad>0</ns3:cad>
          </ns3:TrackPointExtension>
        </extensions>
      </trkpt>
      <trkpt lat="37.9519164562225341796875" lon="-107.109804935753345489501953125">
        <ele>3887.800048828125</ele>
        <time>2026-01-06T18:02:26.000Z</time>
        <extensions>
          <ns3:TrackPointExtension>
            <ns3:hr>93</ns3:hr>
            <ns3:cad>0</ns3:cad>
          </ns3:TrackPointExtension>
        </extensions>
      </trkpt>
      <trkpt lat="37.9519164562225341796875" lon="-107.109804935753345489501953125">
        <ele>3888</ele>
        <time>2026-01-06T18:02:31.000Z</time>
        <extensions>
          <ns3:TrackPointExtension>
            <ns3:hr>90</ns3:hr>
            <ns3:cad>0</ns3:cad>
          </ns3:TrackPointExtension>
        </extensions>
      </trkpt>
      <trkpt lat="37.9519164562225341796875" lon="-107.109804935753345489501953125">
        <ele>3888</ele>
        <time>2026-01-06T18:02:36.000Z</time>
        <extensions>
          <ns3:TrackPointExtension>
            <ns3:hr>87</ns3:hr>
            <ns3:cad>0</ns3:cad>
          </ns3:TrackPointExtension>
        </extensions>
      </trkpt>
      <trkpt lat="37.9519164562225341796875" lon="-107.109804935753345489501953125">
        <ele>3887.39990234375</ele>
        <time>2026-01-06T18:02:42.000Z</time>
        <extensions>
          <ns3:TrackPointExtension>
            <ns3:hr>87</ns3:hr>
            <ns3:cad>0</ns3:cad>
          </ns3:TrackPointExtension>
        </extensions>
      </trkpt>
      <trkpt lat="37.9519164562225341796875" lon="-107.109804935753345489501953125">
        <ele>3887.39990234375</ele>
        <time>2026-01-06T18:02:44.000Z</time>
        <extensions>
          <ns3:TrackPointExtension>
            <ns3:hr>87</ns3:hr>
            <ns3:cad>0</ns3:cad>
          </ns3:TrackPointExtension>
        </extensions>
      </trkpt>
      <trkpt lat="37.9519164562225341796875" lon="-107.109804935753345489501953125">
        <ele>3887.39990234375</ele>
        <time>2026-01-06T18:02:48.000Z</time>
        <extensions>
          <ns3:TrackPointExtension>
            <ns3:hr>83</ns3:hr>
            <ns3:cad>0</ns3:cad>
          </ns3:TrackPointExtension>
        </extensions>
      </trkpt>
      <trkpt lat="37.9519164562225341796875" lon="-107.109804935753345489501953125">
        <ele>3887.39990234375</ele>
        <time>2026-01-06T18:02:50.000Z</time>
        <extensions>
          <ns3:TrackPointExtension>
            <ns3:hr>80</ns3:hr>
            <ns3:cad>0</ns3:cad>
          </ns3:TrackPointExtension>
        </extensions>
      </trkpt>
      <trkpt lat="37.9519164562225341796875" lon="-107.109804935753345489501953125">
        <ele>3887.39990234375</ele>
        <time>2026-01-06T18:02:56.000Z</time>
        <extensions>
          <ns3:TrackPointExtension>
            <ns3:hr>80</ns3:hr>
            <ns3:cad>0</ns3:cad>
          </ns3:TrackPointExtension>
        </extensions>
      </trkpt>
      <trkpt lat="37.9519164562225341796875" lon="-107.109804935753345489501953125">
        <ele>3887.39990234375</ele>
        <time>2026-01-06T18:02:57.000Z</time>
        <extensions>
          <ns3:TrackPointExtension>
            <ns3:hr>80</ns3:hr>
            <ns3:cad>0</ns3:cad>
          </ns3:TrackPointExtension>
        </extensions>
      </trkpt>
      <trkpt lat="37.9519164562225341796875" lon="-107.109804935753345489501953125">
        <ele>3887.39990234375</ele>
        <time>2026-01-06T18:03:03.000Z</time>
        <extensions>
          <ns3:TrackPointExtension>
            <ns3:hr>82</ns3:hr>
            <ns3:cad>0</ns3:cad>
          </ns3:TrackPointExtension>
        </extensions>
      </trkpt>
      <trkpt lat="37.9519164562225341796875" lon="-107.109804935753345489501953125">
        <ele>3887</ele>
        <time>2026-01-06T18:03:09.000Z</time>
        <extensions>
          <ns3:TrackPointExtension>
            <ns3:hr>83</ns3:hr>
            <ns3:cad>0</ns3:cad>
          </ns3:TrackPointExtension>
        </extensions>
      </trkpt>
      <trkpt lat="37.9519164562225341796875" lon="-107.109804935753345489501953125">
        <ele>3887</ele>
        <time>2026-01-06T18:03:10.000Z</time>
        <extensions>
          <ns3:TrackPointExtension>
            <ns3:hr>82</ns3:hr>
            <ns3:cad>0</ns3:cad>
          </ns3:TrackPointExtension>
        </extensions>
      </trkpt>
      <trkpt lat="37.9519164562225341796875" lon="-107.109804935753345489501953125">
        <ele>3887.39990234375</ele>
        <time>2026-01-06T18:03:16.000Z</time>
        <extensions>
          <ns3:TrackPointExtension>
            <ns3:hr>83</ns3:hr>
            <ns3:cad>0</ns3:cad>
          </ns3:TrackPointExtension>
        </extensions>
      </trkpt>
      <trkpt lat="37.9519164562225341796875" lon="-107.109804935753345489501953125">
        <ele>3887.39990234375</ele>
        <time>2026-01-06T18:03:19.000Z</time>
        <extensions>
          <ns3:TrackPointExtension>
            <ns3:hr>86</ns3:hr>
            <ns3:cad>0</ns3:cad>
          </ns3:TrackPointExtension>
        </extensions>
      </trkpt>
      <trkpt lat="37.9519164562225341796875" lon="-107.109804935753345489501953125">
        <ele>3887.39990234375</ele>
        <time>2026-01-06T18:03:21.000Z</time>
        <extensions>
          <ns3:TrackPointExtension>
            <ns3:hr>89</ns3:hr>
            <ns3:cad>0</ns3:cad>
          </ns3:TrackPointExtension>
        </extensions>
      </trkpt>
      <trkpt lat="37.9519164562225341796875" lon="-107.109804935753345489501953125">
        <ele>3887.39990234375</ele>
        <time>2026-01-06T18:03:22.000Z</time>
        <extensions>
          <ns3:TrackPointExtension>
            <ns3:hr>89</ns3:hr>
            <ns3:cad>0</ns3:cad>
          </ns3:TrackPointExtension>
        </extensions>
      </trkpt>
      <trkpt lat="37.9519164562225341796875" lon="-107.109804935753345489501953125">
        <ele>3887.199951171875</ele>
        <time>2026-01-06T18:03:28.000Z</time>
        <extensions>
          <ns3:TrackPointExtension>
            <ns3:hr>89</ns3:hr>
            <ns3:cad>0</ns3:cad>
          </ns3:TrackPointExtension>
        </extensions>
      </trkpt>
      <trkpt lat="37.9519164562225341796875" lon="-107.109804935753345489501953125">
        <ele>3887.199951171875</ele>
        <time>2026-01-06T18:03:33.000Z</time>
        <extensions>
          <ns3:TrackPointExtension>
            <ns3:hr>90</ns3:hr>
            <ns3:cad>0</ns3:cad>
          </ns3:TrackPointExtension>
        </extensions>
      </trkpt>
      <trkpt lat="37.9519164562225341796875" lon="-107.109804935753345489501953125">
        <ele>3887.199951171875</ele>
        <time>2026-01-06T18:03:39.000Z</time>
        <extensions>
          <ns3:TrackPointExtension>
            <ns3:hr>90</ns3:hr>
            <ns3:cad>0</ns3:cad>
          </ns3:TrackPointExtension>
        </extensions>
      </trkpt>
      <trkpt lat="37.9519164562225341796875" lon="-107.109804935753345489501953125">
        <ele>3887.199951171875</ele>
        <time>2026-01-06T18:03:44.000Z</time>
        <extensions>
          <ns3:TrackPointExtension>
            <ns3:hr>86</ns3:hr>
            <ns3:cad>0</ns3:cad>
          </ns3:TrackPointExtension>
        </extensions>
      </trkpt>
      <trkpt lat="37.9519164562225341796875" lon="-107.109804935753345489501953125">
        <ele>3887.199951171875</ele>
        <time>2026-01-06T18:03:45.000Z</time>
        <extensions>
          <ns3:TrackPointExtension>
            <ns3:hr>85</ns3:hr>
            <ns3:cad>0</ns3:cad>
          </ns3:TrackPointExtension>
        </extensions>
      </trkpt>
      <trkpt lat="37.9519164562225341796875" lon="-107.109804935753345489501953125">
        <ele>3887.39990234375</ele>
        <time>2026-01-06T18:03:51.000Z</time>
        <extensions>
          <ns3:TrackPointExtension>
            <ns3:hr>85</ns3:hr>
            <ns3:cad>0</ns3:cad>
          </ns3:TrackPointExtension>
        </extensions>
      </trkpt>
      <trkpt lat="37.9519164562225341796875" lon="-107.109804935753345489501953125">
        <ele>3887.199951171875</ele>
        <time>2026-01-06T18:03:57.000Z</time>
        <extensions>
          <ns3:TrackPointExtension>
            <ns3:hr>86</ns3:hr>
            <ns3:cad>0</ns3:cad>
          </ns3:TrackPointExtension>
        </extensions>
      </trkpt>
      <trkpt lat="37.9519164562225341796875" lon="-107.109804935753345489501953125">
        <ele>3887.199951171875</ele>
        <time>2026-01-06T18:04:01.000Z</time>
        <extensions>
          <ns3:TrackPointExtension>
            <ns3:hr>86</ns3:hr>
            <ns3:cad>0</ns3:cad>
          </ns3:TrackPointExtension>
        </extensions>
      </trkpt>
      <trkpt lat="37.9519164562225341796875" lon="-107.109804935753345489501953125">
        <ele>3887.60009765625</ele>
        <time>2026-01-06T18:04:07.000Z</time>
        <extensions>
          <ns3:TrackPointExtension>
            <ns3:hr>86</ns3:hr>
            <ns3:cad>0</ns3:cad>
          </ns3:TrackPointExtension>
        </extensions>
      </trkpt>
      <trkpt lat="37.9519164562225341796875" lon="-107.109804935753345489501953125">
        <ele>3887.39990234375</ele>
        <time>2026-01-06T18:04:13.000Z</time>
        <extensions>
          <ns3:TrackPointExtension>
            <ns3:hr>85</ns3:hr>
            <ns3:cad>0</ns3:cad>
          </ns3:TrackPointExtension>
        </extensions>
      </trkpt>
      <trkpt lat="37.9519164562225341796875" lon="-107.109804935753345489501953125">
        <ele>3887.800048828125</ele>
        <time>2026-01-06T18:04:19.000Z</time>
        <extensions>
          <ns3:TrackPointExtension>
            <ns3:hr>85</ns3:hr>
            <ns3:cad>0</ns3:cad>
          </ns3:TrackPointExtension>
        </extensions>
      </trkpt>
      <trkpt lat="37.9519164562225341796875" lon="-107.109804935753345489501953125">
        <ele>3887.800048828125</ele>
        <time>2026-01-06T18:04:25.000Z</time>
        <extensions>
          <ns3:TrackPointExtension>
            <ns3:hr>87</ns3:hr>
            <ns3:cad>0</ns3:cad>
          </ns3:TrackPointExtension>
        </extensions>
      </trkpt>
      <trkpt lat="37.9519164562225341796875" lon="-107.109804935753345489501953125">
        <ele>3887.800048828125</ele>
        <time>2026-01-06T18:04:26.000Z</time>
        <extensions>
          <ns3:TrackPointExtension>
            <ns3:hr>87</ns3:hr>
            <ns3:cad>0</ns3:cad>
          </ns3:TrackPointExtension>
        </extensions>
      </trkpt>
      <trkpt lat="37.9519164562225341796875" lon="-107.109804935753345489501953125">
        <ele>3887.60009765625</ele>
        <time>2026-01-06T18:04:32.000Z</time>
        <extensions>
          <ns3:TrackPointExtension>
            <ns3:hr>87</ns3:hr>
            <ns3:cad>0</ns3:cad>
          </ns3:TrackPointExtension>
        </extensions>
      </trkpt>
      <trkpt lat="37.9519164562225341796875" lon="-107.109804935753345489501953125">
        <ele>3887.60009765625</ele>
        <time>2026-01-06T18:04:38.000Z</time>
        <extensions>
          <ns3:TrackPointExtension>
            <ns3:hr>87</ns3:hr>
            <ns3:cad>0</ns3:cad>
          </ns3:TrackPointExtension>
        </extensions>
      </trkpt>
      <trkpt lat="37.9519164562225341796875" lon="-107.109804935753345489501953125">
        <ele>3887.60009765625</ele>
        <time>2026-01-06T18:04:40.000Z</time>
        <extensions>
          <ns3:TrackPointExtension>
            <ns3:hr>83</ns3:hr>
            <ns3:cad>0</ns3:cad>
          </ns3:TrackPointExtension>
        </extensions>
      </trkpt>
      <trkpt lat="37.9519164562225341796875" lon="-107.109804935753345489501953125">
        <ele>3887.39990234375</ele>
        <time>2026-01-06T18:04:41.000Z</time>
        <extensions>
          <ns3:TrackPointExtension>
            <ns3:hr>80</ns3:hr>
            <ns3:cad>0</ns3:cad>
          </ns3:TrackPointExtension>
        </extensions>
      </trkpt>
      <trkpt lat="37.9519164562225341796875" lon="-107.109804935753345489501953125">
        <ele>3887.39990234375</ele>
        <time>2026-01-06T18:04:44.000Z</time>
        <extensions>
          <ns3:TrackPointExtension>
            <ns3:hr>77</ns3:hr>
            <ns3:cad>0</ns3:cad>
          </ns3:TrackPointExtension>
        </extensions>
      </trkpt>
      <trkpt lat="37.9519164562225341796875" lon="-107.109804935753345489501953125">
        <ele>3887.39990234375</ele>
        <time>2026-01-06T18:04:50.000Z</time>
        <extensions>
          <ns3:TrackPointExtension>
            <ns3:hr>77</ns3:hr>
            <ns3:cad>0</ns3:cad>
          </ns3:TrackPointExtension>
        </extensions>
      </trkpt>
      <trkpt lat="37.9519164562225341796875" lon="-107.109804935753345489501953125">
        <ele>3887.39990234375</ele>
        <time>2026-01-06T18:04:51.000Z</time>
        <extensions>
          <ns3:TrackPointExtension>
            <ns3:hr>76</ns3:hr>
            <ns3:cad>0</ns3:cad>
          </ns3:TrackPointExtension>
        </extensions>
      </trkpt>
      <trkpt lat="37.9519164562225341796875" lon="-107.109804935753345489501953125">
        <ele>3887.60009765625</ele>
        <time>2026-01-06T18:04:57.000Z</time>
        <extensions>
          <ns3:TrackPointExtension>
            <ns3:hr>77</ns3:hr>
            <ns3:cad>0</ns3:cad>
          </ns3:TrackPointExtension>
        </extensions>
      </trkpt>
      <trkpt lat="37.9519164562225341796875" lon="-107.109804935753345489501953125">
        <ele>3887.60009765625</ele>
        <time>2026-01-06T18:05:03.000Z</time>
        <extensions>
          <ns3:TrackPointExtension>
            <ns3:hr>77</ns3:hr>
            <ns3:cad>0</ns3:cad>
          </ns3:TrackPointExtension>
        </extensions>
      </trkpt>
      <trkpt lat="37.9519164562225341796875" lon="-107.109804935753345489501953125">
        <ele>3887.60009765625</ele>
        <time>2026-01-06T18:05:09.000Z</time>
        <extensions>
          <ns3:TrackPointExtension>
            <ns3:hr>80</ns3:hr>
            <ns3:cad>0</ns3:cad>
          </ns3:TrackPointExtension>
        </extensions>
      </trkpt>
      <trkpt lat="37.9519164562225341796875" lon="-107.109804935753345489501953125">
        <ele>3887.800048828125</ele>
        <time>2026-01-06T18:05:14.000Z</time>
        <extensions>
          <ns3:TrackPointExtension>
            <ns3:hr>83</ns3:hr>
            <ns3:cad>0</ns3:cad>
          </ns3:TrackPointExtension>
        </extensions>
      </trkpt>
      <trkpt lat="37.9519164562225341796875" lon="-107.109804935753345489501953125">
        <ele>3887.800048828125</ele>
        <time>2026-01-06T18:05:18.000Z</time>
        <extensions>
          <ns3:TrackPointExtension>
            <ns3:hr>86</ns3:hr>
            <ns3:cad>0</ns3:cad>
          </ns3:TrackPointExtension>
        </extensions>
      </trkpt>
      <trkpt lat="37.9519164562225341796875" lon="-107.109804935753345489501953125">
        <ele>3887.800048828125</ele>
        <time>2026-01-06T18:05:23.000Z</time>
        <extensions>
          <ns3:TrackPointExtension>
            <ns3:hr>84</ns3:hr>
            <ns3:cad>0</ns3:cad>
          </ns3:TrackPointExtension>
        </extensions>
      </trkpt>
      <trkpt lat="37.9519164562225341796875" lon="-107.109804935753345489501953125">
        <ele>3887.60009765625</ele>
        <time>2026-01-06T18:05:29.000Z</time>
        <extensions>
          <ns3:TrackPointExtension>
            <ns3:hr>84</ns3:hr>
            <ns3:cad>0</ns3:cad>
          </ns3:TrackPointExtension>
        </extensions>
      </trkpt>
      <trkpt lat="37.9519164562225341796875" lon="-107.109804935753345489501953125">
        <ele>3887.60009765625</ele>
        <time>2026-01-06T18:05:35.000Z</time>
        <extensions>
          <ns3:TrackPointExtension>
            <ns3:hr>84</ns3:hr>
            <ns3:cad>0</ns3:cad>
          </ns3:TrackPointExtension>
        </extensions>
      </trkpt>
      <trkpt lat="37.9519164562225341796875" lon="-107.109804935753345489501953125">
        <ele>3887.800048828125</ele>
        <time>2026-01-06T18:05:38.000Z</time>
        <extensions>
          <ns3:TrackPointExtension>
            <ns3:hr>81</ns3:hr>
            <ns3:cad>0</ns3:cad>
          </ns3:TrackPointExtension>
        </extensions>
      </trkpt>
      <trkpt lat="37.9519164562225341796875" lon="-107.109804935753345489501953125">
        <ele>3887.800048828125</ele>
        <time>2026-01-06T18:05:39.000Z</time>
        <extensions>
          <ns3:TrackPointExtension>
            <ns3:hr>77</ns3:hr>
            <ns3:cad>0</ns3:cad>
          </ns3:TrackPointExtension>
        </extensions>
      </trkpt>
      <trkpt lat="37.9519164562225341796875" lon="-107.109804935753345489501953125">
        <ele>3887.800048828125</ele>
        <time>2026-01-06T18:05:40.000Z</time>
        <extensions>
          <ns3:TrackPointExtension>
            <ns3:hr>71</ns3:hr>
            <ns3:cad>0</ns3:cad>
          </ns3:TrackPointExtension>
        </extensions>
      </trkpt>
      <trkpt lat="37.9519164562225341796875" lon="-107.109804935753345489501953125">
        <ele>3888</ele>
        <time>2026-01-06T18:05:42.000Z</time>
        <extensions>
          <ns3:TrackPointExtension>
            <ns3:hr>68</ns3:hr>
            <ns3:cad>0</ns3:cad>
          </ns3:TrackPointExtension>
        </extensions>
      </trkpt>
      <trkpt lat="37.9519164562225341796875" lon="-107.109804935753345489501953125">
        <ele>3887.39990234375</ele>
        <time>2026-01-06T18:05:48.000Z</time>
        <extensions>
          <ns3:TrackPointExtension>
            <ns3:hr>71</ns3:hr>
            <ns3:cad>0</ns3:cad>
          </ns3:TrackPointExtension>
        </extensions>
      </trkpt>
      <trkpt lat="37.9519164562225341796875" lon="-107.109804935753345489501953125">
        <ele>3887.199951171875</ele>
        <time>2026-01-06T18:05:52.000Z</time>
        <extensions>
          <ns3:TrackPointExtension>
            <ns3:hr>74</ns3:hr>
            <ns3:cad>0</ns3:cad>
          </ns3:TrackPointExtension>
        </extensions>
      </trkpt>
      <trkpt lat="37.9519164562225341796875" lon="-107.109804935753345489501953125">
        <ele>3887.39990234375</ele>
        <time>2026-01-06T18:05:55.000Z</time>
        <extensions>
          <ns3:TrackPointExtension>
            <ns3:hr>78</ns3:hr>
            <ns3:cad>0</ns3:cad>
          </ns3:TrackPointExtension>
        </extensions>
      </trkpt>
      <trkpt lat="37.9519164562225341796875" lon="-107.109804935753345489501953125">
        <ele>3887.60009765625</ele>
        <time>2026-01-06T18:06:01.000Z</time>
        <extensions>
          <ns3:TrackPointExtension>
            <ns3:hr>77</ns3:hr>
            <ns3:cad>0</ns3:cad>
          </ns3:TrackPointExtension>
        </extensions>
      </trkpt>
      <trkpt lat="37.9519164562225341796875" lon="-107.109804935753345489501953125">
        <ele>3887.60009765625</ele>
        <time>2026-01-06T18:06:07.000Z</time>
        <extensions>
          <ns3:TrackPointExtension>
            <ns3:hr>75</ns3:hr>
            <ns3:cad>0</ns3:cad>
          </ns3:TrackPointExtension>
        </extensions>
      </trkpt>
      <trkpt lat="37.9519164562225341796875" lon="-107.109804935753345489501953125">
        <ele>3887.199951171875</ele>
        <time>2026-01-06T18:06:13.000Z</time>
        <extensions>
          <ns3:TrackPointExtension>
            <ns3:hr>76</ns3:hr>
            <ns3:cad>0</ns3:cad>
          </ns3:TrackPointExtension>
        </extensions>
      </trkpt>
      <trkpt lat="37.9519164562225341796875" lon="-107.109804935753345489501953125">
        <ele>3887</ele>
        <time>2026-01-06T18:06:19.000Z</time>
        <extensions>
          <ns3:TrackPointExtension>
            <ns3:hr>76</ns3:hr>
            <ns3:cad>0</ns3:cad>
          </ns3:TrackPointExtension>
        </extensions>
      </trkpt>
      <trkpt lat="37.9519164562225341796875" lon="-107.109804935753345489501953125">
        <ele>3887.39990234375</ele>
        <time>2026-01-06T18:06:25.000Z</time>
        <extensions>
          <ns3:TrackPointExtension>
            <ns3:hr>77</ns3:hr>
            <ns3:cad>0</ns3:cad>
          </ns3:TrackPointExtension>
        </extensions>
      </trkpt>
      <trkpt lat="37.9519164562225341796875" lon="-107.109804935753345489501953125">
        <ele>3887</ele>
        <time>2026-01-06T18:06:31.000Z</time>
        <extensions>
          <ns3:TrackPointExtension>
            <ns3:hr>78</ns3:hr>
            <ns3:cad>0</ns3:cad>
          </ns3:TrackPointExtension>
        </extensions>
      </trkpt>
      <trkpt lat="37.9519164562225341796875" lon="-107.109804935753345489501953125">
        <ele>3887.199951171875</ele>
        <time>2026-01-06T18:06:37.000Z</time>
        <extensions>
          <ns3:TrackPointExtension>
            <ns3:hr>77</ns3:hr>
            <ns3:cad>0</ns3:cad>
          </ns3:TrackPointExtension>
        </extensions>
      </trkpt>
      <trkpt lat="37.9519164562225341796875" lon="-107.109804935753345489501953125">
        <ele>3887.199951171875</ele>
        <time>2026-01-06T18:06:42.000Z</time>
        <extensions>
          <ns3:TrackPointExtension>
            <ns3:hr>76</ns3:hr>
            <ns3:cad>0</ns3:cad>
          </ns3:TrackPointExtension>
        </extensions>
      </trkpt>
      <trkpt lat="37.9519164562225341796875" lon="-107.109804935753345489501953125">
        <ele>3887.199951171875</ele>
        <time>2026-01-06T18:06:48.000Z</time>
        <extensions>
          <ns3:TrackPointExtension>
            <ns3:hr>78</ns3:hr>
            <ns3:cad>0</ns3:cad>
          </ns3:TrackPointExtension>
        </extensions>
      </trkpt>
      <trkpt lat="37.9519164562225341796875" lon="-107.109804935753345489501953125">
        <ele>3887</ele>
        <time>2026-01-06T18:06:54.000Z</time>
        <extensions>
          <ns3:TrackPointExtension>
            <ns3:hr>79</ns3:hr>
            <ns3:cad>0</ns3:cad>
          </ns3:TrackPointExtension>
        </extensions>
      </trkpt>
      <trkpt lat="37.9519164562225341796875" lon="-107.109804935753345489501953125">
        <ele>3887.199951171875</ele>
        <time>2026-01-06T18:06:58.000Z</time>
        <extensions>
          <ns3:TrackPointExtension>
            <ns3:hr>82</ns3:hr>
            <ns3:cad>0</ns3:cad>
          </ns3:TrackPointExtension>
        </extensions>
      </trkpt>
      <trkpt lat="37.9519164562225341796875" lon="-107.109804935753345489501953125">
        <ele>3887.199951171875</ele>
        <time>2026-01-06T18:07:04.000Z</time>
        <extensions>
          <ns3:TrackPointExtension>
            <ns3:hr>83</ns3:hr>
            <ns3:cad>0</ns3:cad>
          </ns3:TrackPointExtension>
        </extensions>
      </trkpt>
      <trkpt lat="37.9519164562225341796875" lon="-107.109804935753345489501953125">
        <ele>3887.199951171875</ele>
        <time>2026-01-06T18:07:10.000Z</time>
        <extensions>
          <ns3:TrackPointExtension>
            <ns3:hr>79</ns3:hr>
            <ns3:cad>0</ns3:cad>
          </ns3:TrackPointExtension>
        </extensions>
      </trkpt>
      <trkpt lat="37.9519164562225341796875" lon="-107.109804935753345489501953125">
        <ele>3887.39990234375</ele>
        <time>2026-01-06T18:07:16.000Z</time>
        <extensions>
          <ns3:TrackPointExtension>
            <ns3:hr>80</ns3:hr>
            <ns3:cad>0</ns3:cad>
          </ns3:TrackPointExtension>
        </extensions>
      </trkpt>
      <trkpt lat="37.9519164562225341796875" lon="-107.109804935753345489501953125">
        <ele>3887.39990234375</ele>
        <time>2026-01-06T18:07:20.000Z</time>
        <extensions>
          <ns3:TrackPointExtension>
            <ns3:hr>84</ns3:hr>
            <ns3:cad>0</ns3:cad>
          </ns3:TrackPointExtension>
        </extensions>
      </trkpt>
      <trkpt lat="37.9519164562225341796875" lon="-107.109804935753345489501953125">
        <ele>3887</ele>
        <time>2026-01-06T18:07:24.000Z</time>
        <extensions>
          <ns3:TrackPointExtension>
            <ns3:hr>87</ns3:hr>
            <ns3:cad>0</ns3:cad>
          </ns3:TrackPointExtension>
        </extensions>
      </trkpt>
      <trkpt lat="37.9519164562225341796875" lon="-107.109804935753345489501953125">
        <ele>3887.39990234375</ele>
        <time>2026-01-06T18:07:30.000Z</time>
        <extensions>
          <ns3:TrackPointExtension>
            <ns3:hr>88</ns3:hr>
            <ns3:cad>0</ns3:cad>
          </ns3:TrackPointExtension>
        </extensions>
      </trkpt>
      <trkpt lat="37.9519164562225341796875" lon="-107.109804935753345489501953125">
        <ele>3887.199951171875</ele>
        <time>2026-01-06T18:07:36.000Z</time>
        <extensions>
          <ns3:TrackPointExtension>
            <ns3:hr>86</ns3:hr>
            <ns3:cad>0</ns3:cad>
          </ns3:TrackPointExtension>
        </extensions>
      </trkpt>
      <trkpt lat="37.9519164562225341796875" lon="-107.109804935753345489501953125">
        <ele>3887.39990234375</ele>
        <time>2026-01-06T18:07:42.000Z</time>
        <extensions>
          <ns3:TrackPointExtension>
            <ns3:hr>85</ns3:hr>
            <ns3:cad>0</ns3:cad>
          </ns3:TrackPointExtension>
        </extensions>
      </trkpt>
      <trkpt lat="37.9519164562225341796875" lon="-107.109804935753345489501953125">
        <ele>3887.60009765625</ele>
        <time>2026-01-06T18:07:43.000Z</time>
        <extensions>
          <ns3:TrackPointExtension>
            <ns3:hr>84</ns3:hr>
            <ns3:cad>0</ns3:cad>
          </ns3:TrackPointExtension>
        </extensions>
      </trkpt>
      <trkpt lat="37.9519164562225341796875" lon="-107.109804935753345489501953125">
        <ele>3887.60009765625</ele>
        <time>2026-01-06T18:07:46.000Z</time>
        <extensions>
          <ns3:TrackPointExtension>
            <ns3:hr>81</ns3:hr>
            <ns3:cad>0</ns3:cad>
          </ns3:TrackPointExtension>
        </extensions>
      </trkpt>
      <trkpt lat="37.9519164562225341796875" lon="-107.109804935753345489501953125">
        <ele>3887.60009765625</ele>
        <time>2026-01-06T18:07:49.000Z</time>
        <extensions>
          <ns3:TrackPointExtension>
            <ns3:hr>78</ns3:hr>
            <ns3:cad>0</ns3:cad>
          </ns3:TrackPointExtension>
        </extensions>
      </trkpt>
      <trkpt lat="37.9519164562225341796875" lon="-107.109804935753345489501953125">
        <ele>3887.39990234375</ele>
        <time>2026-01-06T18:07:55.000Z</time>
        <extensions>
          <ns3:TrackPointExtension>
            <ns3:hr>75</ns3:hr>
            <ns3:cad>0</ns3:cad>
          </ns3:TrackPointExtension>
        </extensions>
      </trkpt>
      <trkpt lat="37.9519164562225341796875" lon="-107.109804935753345489501953125">
        <ele>3887.39990234375</ele>
        <time>2026-01-06T18:08:01.000Z</time>
        <extensions>
          <ns3:TrackPointExtension>
            <ns3:hr>76</ns3:hr>
            <ns3:cad>0</ns3:cad>
          </ns3:TrackPointExtension>
        </extensions>
      </trkpt>
      <trkpt lat="37.9519164562225341796875" lon="-107.109804935753345489501953125">
        <ele>3887.60009765625</ele>
        <time>2026-01-06T18:08:07.000Z</time>
        <extensions>
          <ns3:TrackPointExtension>
            <ns3:hr>77</ns3:hr>
            <ns3:cad>0</ns3:cad>
          </ns3:TrackPointExtension>
        </extensions>
      </trkpt>
      <trkpt lat="37.9519164562225341796875" lon="-107.109804935753345489501953125">
        <ele>3887.60009765625</ele>
        <time>2026-01-06T18:08:13.000Z</time>
        <extensions>
          <ns3:TrackPointExtension>
            <ns3:hr>78</ns3:hr>
            <ns3:cad>0</ns3:cad>
          </ns3:TrackPointExtension>
        </extensions>
      </trkpt>
      <trkpt lat="37.9519164562225341796875" lon="-107.109804935753345489501953125">
        <ele>3887.800048828125</ele>
        <time>2026-01-06T18:08:17.000Z</time>
        <extensions>
          <ns3:TrackPointExtension>
            <ns3:hr>81</ns3:hr>
            <ns3:cad>0</ns3:cad>
          </ns3:TrackPointExtension>
        </extensions>
      </trkpt>
      <trkpt lat="37.9519164562225341796875" lon="-107.109804935753345489501953125">
        <ele>3887.800048828125</ele>
        <time>2026-01-06T18:08:18.000Z</time>
        <extensions>
          <ns3:TrackPointExtension>
            <ns3:hr>85</ns3:hr>
            <ns3:cad>0</ns3:cad>
          </ns3:TrackPointExtension>
        </extensions>
      </trkpt>
      <trkpt lat="37.9519164562225341796875" lon="-107.109804935753345489501953125">
        <ele>3887.800048828125</ele>
        <time>2026-01-06T18:08:19.000Z</time>
        <extensions>
          <ns3:TrackPointExtension>
            <ns3:hr>85</ns3:hr>
            <ns3:cad>0</ns3:cad>
          </ns3:TrackPointExtension>
        </extensions>
      </trkpt>
      <trkpt lat="37.9519164562225341796875" lon="-107.109804935753345489501953125">
        <ele>3887.60009765625</ele>
        <time>2026-01-06T18:08:25.000Z</time>
        <extensions>
          <ns3:TrackPointExtension>
            <ns3:hr>86</ns3:hr>
            <ns3:cad>0</ns3:cad>
          </ns3:TrackPointExtension>
        </extensions>
      </trkpt>
      <trkpt lat="37.9519164562225341796875" lon="-107.109804935753345489501953125">
        <ele>3887.39990234375</ele>
        <time>2026-01-06T18:08:31.000Z</time>
        <extensions>
          <ns3:TrackPointExtension>
            <ns3:hr>86</ns3:hr>
            <ns3:cad>0</ns3:cad>
          </ns3:TrackPointExtension>
        </extensions>
      </trkpt>
      <trkpt lat="37.9519164562225341796875" lon="-107.109804935753345489501953125">
        <ele>3888</ele>
        <time>2026-01-06T18:08:37.000Z</time>
        <extensions>
          <ns3:TrackPointExtension>
            <ns3:hr>85</ns3:hr>
            <ns3:cad>0</ns3:cad>
          </ns3:TrackPointExtension>
        </extensions>
      </trkpt>
      <trkpt lat="37.9519164562225341796875" lon="-107.109804935753345489501953125">
        <ele>3887.800048828125</ele>
        <time>2026-01-06T18:08:40.000Z</time>
        <extensions>
          <ns3:TrackPointExtension>
            <ns3:hr>83</ns3:hr>
            <ns3:cad>0</ns3:cad>
          </ns3:TrackPointExtension>
        </extensions>
      </trkpt>
      <trkpt lat="37.9519164562225341796875" lon="-107.109804935753345489501953125">
        <ele>3887.60009765625</ele>
        <time>2026-01-06T18:08:46.000Z</time>
        <extensions>
          <ns3:TrackPointExtension>
            <ns3:hr>82</ns3:hr>
            <ns3:cad>0</ns3:cad>
          </ns3:TrackPointExtension>
        </extensions>
      </trkpt>
      <trkpt lat="37.9519164562225341796875" lon="-107.109804935753345489501953125">
        <ele>3887.60009765625</ele>
        <time>2026-01-06T18:08:50.000Z</time>
        <extensions>
          <ns3:TrackPointExtension>
            <ns3:hr>85</ns3:hr>
            <ns3:cad>0</ns3:cad>
          </ns3:TrackPointExtension>
        </extensions>
      </trkpt>
      <trkpt lat="37.9519164562225341796875" lon="-107.109804935753345489501953125">
        <ele>3887.60009765625</ele>
        <time>2026-01-06T18:08:56.000Z</time>
        <extensions>
          <ns3:TrackPointExtension>
            <ns3:hr>85</ns3:hr>
            <ns3:cad>0</ns3:cad>
          </ns3:TrackPointExtension>
        </extensions>
      </trkpt>
      <trkpt lat="37.9519164562225341796875" lon="-107.109804935753345489501953125">
        <ele>3887.39990234375</ele>
        <time>2026-01-06T18:09:01.000Z</time>
        <extensions>
          <ns3:TrackPointExtension>
            <ns3:hr>89</ns3:hr>
            <ns3:cad>0</ns3:cad>
          </ns3:TrackPointExtension>
        </extensions>
      </trkpt>
      <trkpt lat="37.9519164562225341796875" lon="-107.109804935753345489501953125">
        <ele>3887.60009765625</ele>
        <time>2026-01-06T18:09:07.000Z</time>
        <extensions>
          <ns3:TrackPointExtension>
            <ns3:hr>88</ns3:hr>
            <ns3:cad>0</ns3:cad>
          </ns3:TrackPointExtension>
        </extensions>
      </trkpt>
      <trkpt lat="37.9519164562225341796875" lon="-107.109804935753345489501953125">
        <ele>3888</ele>
        <time>2026-01-06T18:09:11.000Z</time>
        <extensions>
          <ns3:TrackPointExtension>
            <ns3:hr>85</ns3:hr>
            <ns3:cad>0</ns3:cad>
          </ns3:TrackPointExtension>
        </extensions>
      </trkpt>
      <trkpt lat="37.9519164562225341796875" lon="-107.109804935753345489501953125">
        <ele>3888.199951171875</ele>
        <time>2026-01-06T18:09:12.000Z</time>
        <extensions>
          <ns3:TrackPointExtension>
            <ns3:hr>85</ns3:hr>
            <ns3:cad>0</ns3:cad>
          </ns3:TrackPointExtension>
        </extensions>
      </trkpt>
      <trkpt lat="37.9519164562225341796875" lon="-107.109804935753345489501953125">
        <ele>3888.800048828125</ele>
        <time>2026-01-06T18:09:14.000Z</time>
        <extensions>
          <ns3:TrackPointExtension>
            <ns3:hr>84</ns3:hr>
            <ns3:cad>0</ns3:cad>
          </ns3:TrackPointExtension>
        </extensions>
      </trkpt>
      <trkpt lat="37.9519164562225341796875" lon="-107.109804935753345489501953125">
        <ele>3889</ele>
        <time>2026-01-06T18:09:20.000Z</time>
        <extensions>
          <ns3:TrackPointExtension>
            <ns3:hr>83</ns3:hr>
            <ns3:cad>0</ns3:cad>
          </ns3:TrackPointExtension>
        </extensions>
      </trkpt>
      <trkpt lat="37.951924838125705718994140625" lon="-107.10978875868022441864013671875">
        <ele>3889</ele>
        <time>2026-01-06T18:09:26.000Z</time>
        <extensions>
          <ns3:TrackPointExtension>
            <ns3:hr>84</ns3:hr>
            <ns3:cad>0</ns3:cad>
          </ns3:TrackPointExtension>
        </extensions>
      </trkpt>
      <trkpt lat="37.951924838125705718994140625" lon="-107.10978875868022441864013671875">
        <ele>3889</ele>
        <time>2026-01-06T18:09:32.000Z</time>
        <extensions>
          <ns3:TrackPointExtension>
            <ns3:hr>84</ns3:hr>
            <ns3:cad>0</ns3:cad>
          </ns3:TrackPointExtension>
        </extensions>
      </trkpt>
      <trkpt lat="37.951924838125705718994140625" lon="-107.10978875868022441864013671875">
        <ele>3889</ele>
        <time>2026-01-06T18:09:36.000Z</time>
        <extensions>
          <ns3:TrackPointExtension>
            <ns3:hr>84</ns3:hr>
            <ns3:cad>0</ns3:cad>
          </ns3:TrackPointExtension>
        </extensions>
      </trkpt>
      <trkpt lat="37.951924838125705718994140625" lon="-107.10978875868022441864013671875">
        <ele>3889.39990234375</ele>
        <time>2026-01-06T18:09:39.000Z</time>
        <extensions>
          <ns3:TrackPointExtension>
            <ns3:hr>87</ns3:hr>
            <ns3:cad>0</ns3:cad>
          </ns3:TrackPointExtension>
        </extensions>
      </trkpt>
      <trkpt lat="37.951924838125705718994140625" lon="-107.10978875868022441864013671875">
        <ele>3889.199951171875</ele>
        <time>2026-01-06T18:09:44.000Z</time>
        <extensions>
          <ns3:TrackPointExtension>
            <ns3:hr>88</ns3:hr>
            <ns3:cad>0</ns3:cad>
          </ns3:TrackPointExtension>
        </extensions>
      </trkpt>
      <trkpt lat="37.951924838125705718994140625" lon="-107.10978875868022441864013671875">
        <ele>3889.199951171875</ele>
        <time>2026-01-06T18:09:50.000Z</time>
        <extensions>
          <ns3:TrackPointExtension>
            <ns3:hr>87</ns3:hr>
            <ns3:cad>0</ns3:cad>
          </ns3:TrackPointExtension>
        </extensions>
      </trkpt>
      <trkpt lat="37.951924838125705718994140625" lon="-107.10978875868022441864013671875">
        <ele>3889.60009765625</ele>
        <time>2026-01-06T18:09:53.000Z</time>
        <extensions>
          <ns3:TrackPointExtension>
            <ns3:hr>88</ns3:hr>
            <ns3:cad>0</ns3:cad>
          </ns3:TrackPointExtension>
        </extensions>
      </trkpt>
      <trkpt lat="37.95192676596343517303466796875" lon="-107.10978775285184383392333984375">
        <ele>3889.800048828125</ele>
        <time>2026-01-06T18:09:59.000Z</time>
        <extensions>
          <ns3:TrackPointExtension>
            <ns3:hr>90</ns3:hr>
            <ns3:cad>0</ns3:cad>
          </ns3:TrackPointExtension>
        </extensions>
      </trkpt>
      <trkpt lat="37.951924838125705718994140625" lon="-107.10978875868022441864013671875">
        <ele>3889.800048828125</ele>
        <time>2026-01-06T18:10:01.000Z</time>
        <extensions>
          <ns3:TrackPointExtension>
            <ns3:hr>91</ns3:hr>
            <ns3:cad>0</ns3:cad>
          </ns3:TrackPointExtension>
        </extensions>
      </trkpt>
      <trkpt lat="37.951924838125705718994140625" lon="-107.10978875868022441864013671875">
        <ele>3889.800048828125</ele>
        <time>2026-01-06T18:10:07.000Z</time>
        <extensions>
          <ns3:TrackPointExtension>
            <ns3:hr>89</ns3:hr>
            <ns3:cad>0</ns3:cad>
          </ns3:TrackPointExtension>
        </extensions>
      </trkpt>
      <trkpt lat="37.951924838125705718994140625" lon="-107.10978875868022441864013671875">
        <ele>3889.60009765625</ele>
        <time>2026-01-06T18:10:08.000Z</time>
        <extensions>
          <ns3:TrackPointExtension>
            <ns3:hr>87</ns3:hr>
            <ns3:cad>0</ns3:cad>
          </ns3:TrackPointExtension>
        </extensions>
      </trkpt>
      <trkpt lat="37.951924838125705718994140625" lon="-107.10978875868022441864013671875">
        <ele>3889</ele>
        <time>2026-01-06T18:10:14.000Z</time>
        <extensions>
          <ns3:TrackPointExtension>
            <ns3:hr>90</ns3:hr>
            <ns3:cad>0</ns3:cad>
          </ns3:TrackPointExtension>
        </extensions>
      </trkpt>
      <trkpt lat="37.951924838125705718994140625" lon="-107.10978875868022441864013671875">
        <ele>3889</ele>
        <time>2026-01-06T18:10:17.000Z</time>
        <extensions>
          <ns3:TrackPointExtension>
            <ns3:hr>92</ns3:hr>
            <ns3:cad>0</ns3:cad>
          </ns3:TrackPointExtension>
        </extensions>
      </trkpt>
      <trkpt lat="37.951924838125705718994140625" lon="-107.10978875868022441864013671875">
        <ele>3889.39990234375</ele>
        <time>2026-01-06T18:10:23.000Z</time>
        <extensions>
          <ns3:TrackPointExtension>
            <ns3:hr>92</ns3:hr>
            <ns3:cad>0</ns3:cad>
          </ns3:TrackPointExtension>
        </extensions>
      </trkpt>
      <trkpt lat="37.951924838125705718994140625" lon="-107.10978875868022441864013671875">
        <ele>3889.60009765625</ele>
        <time>2026-01-06T18:10:25.000Z</time>
        <extensions>
          <ns3:TrackPointExtension>
            <ns3:hr>92</ns3:hr>
            <ns3:cad>0</ns3:cad>
          </ns3:TrackPointExtension>
        </extensions>
      </trkpt>
      <trkpt lat="37.951924838125705718994140625" lon="-107.10978875868022441864013671875">
        <ele>3889.60009765625</ele>
        <time>2026-01-06T18:10:31.000Z</time>
        <extensions>
          <ns3:TrackPointExtension>
            <ns3:hr>95</ns3:hr>
            <ns3:cad>0</ns3:cad>
          </ns3:TrackPointExtension>
        </extensions>
      </trkpt>
      <trkpt lat="37.951924838125705718994140625" lon="-107.10978875868022441864013671875">
        <ele>3889.800048828125</ele>
        <time>2026-01-06T18:10:33.000Z</time>
        <extensions>
          <ns3:TrackPointExtension>
            <ns3:hr>99</ns3:hr>
            <ns3:cad>0</ns3:cad>
          </ns3:TrackPointExtension>
        </extensions>
      </trkpt>
      <trkpt lat="37.951924838125705718994140625" lon="-107.10978875868022441864013671875">
        <ele>3890.199951171875</ele>
        <time>2026-01-06T18:10:39.000Z</time>
        <extensions>
          <ns3:TrackPointExtension>
            <ns3:hr>98</ns3:hr>
            <ns3:cad>0</ns3:cad>
          </ns3:TrackPointExtension>
        </extensions>
      </trkpt>
      <trkpt lat="37.951924838125705718994140625" lon="-107.10978875868022441864013671875">
        <ele>3890.39990234375</ele>
        <time>2026-01-06T18:10:40.000Z</time>
        <extensions>
          <ns3:TrackPointExtension>
            <ns3:hr>97</ns3:hr>
            <ns3:cad>0</ns3:cad>
          </ns3:TrackPointExtension>
        </extensions>
      </trkpt>
      <trkpt lat="37.951924838125705718994140625" lon="-107.10978875868022441864013671875">
        <ele>3890.39990234375</ele>
        <time>2026-01-06T18:10:46.000Z</time>
        <extensions>
          <ns3:TrackPointExtension>
            <ns3:hr>96</ns3:hr>
            <ns3:cad>0</ns3:cad>
          </ns3:TrackPointExtension>
        </extensions>
      </trkpt>
      <trkpt lat="37.951924838125705718994140625" lon="-107.10978875868022441864013671875">
        <ele>3890.39990234375</ele>
        <time>2026-01-06T18:10:50.000Z</time>
        <extensions>
          <ns3:TrackPointExtension>
            <ns3:hr>92</ns3:hr>
            <ns3:cad>0</ns3:cad>
          </ns3:TrackPointExtension>
        </extensions>
      </trkpt>
      <trkpt lat="37.951924838125705718994140625" lon="-107.10978875868022441864013671875">
        <ele>3890.39990234375</ele>
        <time>2026-01-06T18:10:51.000Z</time>
        <extensions>
          <ns3:TrackPointExtension>
            <ns3:hr>89</ns3:hr>
            <ns3:cad>0</ns3:cad>
          </ns3:TrackPointExtension>
        </extensions>
      </trkpt>
      <trkpt lat="37.951924838125705718994140625" lon="-107.10978875868022441864013671875">
        <ele>3890.199951171875</ele>
        <time>2026-01-06T18:10:56.000Z</time>
        <extensions>
          <ns3:TrackPointExtension>
            <ns3:hr>92</ns3:hr>
            <ns3:cad>0</ns3:cad>
          </ns3:TrackPointExtension>
        </extensions>
      </trkpt>
      <trkpt lat="37.951924838125705718994140625" lon="-107.10978875868022441864013671875">
        <ele>3890.39990234375</ele>
        <time>2026-01-06T18:11:02.000Z</time>
        <extensions>
          <ns3:TrackPointExtension>
            <ns3:hr>93</ns3:hr>
            <ns3:cad>0</ns3:cad>
          </ns3:TrackPointExtension>
        </extensions>
      </trkpt>
      <trkpt lat="37.95193581841886043548583984375" lon="-107.1097755990922451019287109375">
        <ele>3890.199951171875</ele>
        <time>2026-01-06T18:11:07.000Z</time>
        <extensions>
          <ns3:TrackPointExtension>
            <ns3:hr>94</ns3:hr>
            <ns3:cad>0</ns3:cad>
          </ns3:TrackPointExtension>
        </extensions>
      </trkpt>
      <trkpt lat="37.95193615369498729705810546875" lon="-107.1097749285399913787841796875">
        <ele>3890</ele>
        <time>2026-01-06T18:11:13.000Z</time>
        <extensions>
          <ns3:TrackPointExtension>
            <ns3:hr>95</ns3:hr>
            <ns3:cad>0</ns3:cad>
          </ns3:TrackPointExtension>
        </extensions>
      </trkpt>
      <trkpt lat="37.95193615369498729705810546875" lon="-107.1097749285399913787841796875">
        <ele>3890.199951171875</ele>
        <time>2026-01-06T18:11:16.000Z</time>
        <extensions>
          <ns3:TrackPointExtension>
            <ns3:hr>91</ns3:hr>
            <ns3:cad>0</ns3:cad>
          </ns3:TrackPointExtension>
        </extensions>
      </trkpt>
      <trkpt lat="37.95193615369498729705810546875" lon="-107.1097749285399913787841796875">
        <ele>3890.39990234375</ele>
        <time>2026-01-06T18:11:17.000Z</time>
        <extensions>
          <ns3:TrackPointExtension>
            <ns3:hr>89</ns3:hr>
            <ns3:cad>0</ns3:cad>
          </ns3:TrackPointExtension>
        </extensions>
      </trkpt>
      <trkpt lat="37.95193615369498729705810546875" lon="-107.1097749285399913787841796875">
        <ele>3890.39990234375</ele>
        <time>2026-01-06T18:11:22.000Z</time>
        <extensions>
          <ns3:TrackPointExtension>
            <ns3:hr>86</ns3:hr>
            <ns3:cad>0</ns3:cad>
          </ns3:TrackPointExtension>
        </extensions>
      </trkpt>
      <trkpt lat="37.95193615369498729705810546875" lon="-107.1097749285399913787841796875">
        <ele>3890.39990234375</ele>
        <time>2026-01-06T18:11:24.000Z</time>
        <extensions>
          <ns3:TrackPointExtension>
            <ns3:hr>86</ns3:hr>
            <ns3:cad>0</ns3:cad>
          </ns3:TrackPointExtension>
        </extensions>
      </trkpt>
      <trkpt lat="37.95193615369498729705810546875" lon="-107.1097749285399913787841796875">
        <ele>3890.39990234375</ele>
        <time>2026-01-06T18:11:30.000Z</time>
        <extensions>
          <ns3:TrackPointExtension>
            <ns3:hr>84</ns3:hr>
            <ns3:cad>0</ns3:cad>
          </ns3:TrackPointExtension>
        </extensions>
      </trkpt>
      <trkpt lat="37.95193615369498729705810546875" lon="-107.1097749285399913787841796875">
        <ele>3890.39990234375</ele>
        <time>2026-01-06T18:11:32.000Z</time>
        <extensions>
          <ns3:TrackPointExtension>
            <ns3:hr>84</ns3:hr>
            <ns3:cad>0</ns3:cad>
          </ns3:TrackPointExtension>
        </extensions>
      </trkpt>
      <trkpt lat="37.95193732716143131256103515625" lon="-107.1097755990922451019287109375">
        <ele>3890.39990234375</ele>
        <time>2026-01-06T18:11:38.000Z</time>
        <extensions>
          <ns3:TrackPointExtension>
            <ns3:hr>84</ns3:hr>
            <ns3:cad>0</ns3:cad>
          </ns3:TrackPointExtension>
        </extensions>
      </trkpt>
      <trkpt lat="37.95193816535174846649169921875" lon="-107.10977467708289623260498046875">
        <ele>3890.60009765625</ele>
        <time>2026-01-06T18:11:39.000Z</time>
        <extensions>
          <ns3:TrackPointExtension>
            <ns3:hr>85</ns3:hr>
            <ns3:cad>0</ns3:cad>
          </ns3:TrackPointExtension>
        </extensions>
      </trkpt>
      <trkpt lat="37.95193615369498729705810546875" lon="-107.1097749285399913787841796875">
        <ele>3890.800048828125</ele>
        <time>2026-01-06T18:11:41.000Z</time>
        <extensions>
          <ns3:TrackPointExtension>
            <ns3:hr>85</ns3:hr>
            <ns3:cad>0</ns3:cad>
          </ns3:TrackPointExtension>
        </extensions>
      </trkpt>
      <trkpt lat="37.95193548314273357391357421875" lon="-107.10976629517972469329833984375">
        <ele>3891.199951171875</ele>
        <time>2026-01-06T18:11:45.000Z</time>
        <extensions>
          <ns3:TrackPointExtension>
            <ns3:hr>85</ns3:hr>
            <ns3:cad>0</ns3:cad>
          </ns3:TrackPointExtension>
        </extensions>
      </trkpt>
      <trkpt lat="37.9519343934953212738037109375" lon="-107.1097655408084392547607421875">
        <ele>3890.60009765625</ele>
        <time>2026-01-06T18:11:51.000Z</time>
        <extensions>
          <ns3:TrackPointExtension>
            <ns3:hr>85</ns3:hr>
            <ns3:cad>0</ns3:cad>
          </ns3:TrackPointExtension>
        </extensions>
      </trkpt>
      <trkpt lat="37.95193615369498729705810546875" lon="-107.1097749285399913787841796875">
        <ele>3890</ele>
        <time>2026-01-06T18:11:55.000Z</time>
        <extensions>
          <ns3:TrackPointExtension>
            <ns3:hr>87</ns3:hr>
            <ns3:cad>0</ns3:cad>
          </ns3:TrackPointExtension>
        </extensions>
      </trkpt>
      <trkpt lat="37.9519370757043361663818359375" lon="-107.10976780392229557037353515625">
        <ele>3891.199951171875</ele>
        <time>2026-01-06T18:12:01.000Z</time>
        <extensions>
          <ns3:TrackPointExtension>
            <ns3:hr>89</ns3:hr>
            <ns3:cad>0</ns3:cad>
          </ns3:TrackPointExtension>
        </extensions>
      </trkpt>
      <trkpt lat="37.9519340582191944122314453125" lon="-107.10976612754166126251220703125">
        <ele>3891.39990234375</ele>
        <time>2026-01-06T18:12:02.000Z</time>
        <extensions>
          <ns3:TrackPointExtension>
            <ns3:hr>94</ns3:hr>
            <ns3:cad>0</ns3:cad>
          </ns3:TrackPointExtension>
        </extensions>
      </trkpt>
      <trkpt lat="37.95193481259047985076904296875" lon="-107.1097662113606929779052734375">
        <ele>3891.60009765625</ele>
        <time>2026-01-06T18:12:03.000Z</time>
        <extensions>
          <ns3:TrackPointExtension>
            <ns3:hr>110</ns3:hr>
            <ns3:cad>0</ns3:cad>
          </ns3:TrackPointExtension>
        </extensions>
      </trkpt>
      <trkpt lat="37.9519347287714481353759765625" lon="-107.109766043722629547119140625">
        <ele>3891.60009765625</ele>
        <time>2026-01-06T18:12:04.000Z</time>
        <extensions>
          <ns3:TrackPointExtension>
            <ns3:hr>115</ns3:hr>
            <ns3:cad>0</ns3:cad>
          </ns3:TrackPointExtension>
        </extensions>
      </trkpt>
      <trkpt lat="37.95193322002887725830078125" lon="-107.1097608469426631927490234375">
        <ele>3891</ele>
        <time>2026-01-06T18:12:10.000Z</time>
        <extensions>
          <ns3:TrackPointExtension>
            <ns3:hr>118</ns3:hr>
            <ns3:cad>0</ns3:cad>
          </ns3:TrackPointExtension>
        </extensions>
      </trkpt>
      <trkpt lat="37.951936237514019012451171875" lon="-107.10975908674299716949462890625">
        <ele>3891.199951171875</ele>
        <time>2026-01-06T18:12:12.000Z</time>
        <extensions>
          <ns3:TrackPointExtension>
            <ns3:hr>117</ns3:hr>
            <ns3:cad>0</ns3:cad>
          </ns3:TrackPointExtension>
        </extensions>
      </trkpt>
      <trkpt lat="37.9519367404282093048095703125" lon="-107.109757326543331146240234375">
        <ele>3890.800048828125</ele>
        <time>2026-01-06T18:12:18.000Z</time>
        <extensions>
          <ns3:TrackPointExtension>
            <ns3:hr>117</ns3:hr>
            <ns3:cad>0</ns3:cad>
          </ns3:TrackPointExtension>
        </extensions>
      </trkpt>
      <trkpt lat="37.9519367404282093048095703125" lon="-107.109757326543331146240234375">
        <ele>3890.800048828125</ele>
        <time>2026-01-06T18:12:23.000Z</time>
        <extensions>
          <ns3:TrackPointExtension>
            <ns3:hr>114</ns3:hr>
            <ns3:cad>0</ns3:cad>
          </ns3:TrackPointExtension>
        </extensions>
      </trkpt>
      <trkpt lat="37.9519367404282093048095703125" lon="-107.109757326543331146240234375">
        <ele>3891</ele>
        <time>2026-01-06T18:12:25.000Z</time>
        <extensions>
          <ns3:TrackPointExtension>
            <ns3:hr>113</ns3:hr>
            <ns3:cad>0</ns3:cad>
          </ns3:TrackPointExtension>
        </extensions>
      </trkpt>
      <trkpt lat="37.951945960521697998046875" lon="-107.10977551527321338653564453125">
        <ele>3891.39990234375</ele>
        <time>2026-01-06T18:12:31.000Z</time>
        <extensions>
          <ns3:TrackPointExtension>
            <ns3:hr>111</ns3:hr>
            <ns3:cad>0</ns3:cad>
          </ns3:TrackPointExtension>
        </extensions>
      </trkpt>
      <trkpt lat="37.9519526660442352294921875" lon="-107.109780795872211456298828125">
        <ele>3891.39990234375</ele>
        <time>2026-01-06T18:12:32.000Z</time>
        <extensions>
          <ns3:TrackPointExtension>
            <ns3:hr>111</ns3:hr>
            <ns3:cad>0</ns3:cad>
          </ns3:TrackPointExtension>
        </extensions>
      </trkpt>
      <trkpt lat="37.9519850201904773712158203125" lon="-107.10980124771595001220703125">
        <ele>3891.39990234375</ele>
        <time>2026-01-06T18:12:38.000Z</time>
        <extensions>
          <ns3:TrackPointExtension>
            <ns3:hr>110</ns3:hr>
            <ns3:cad>0</ns3:cad>
          </ns3:TrackPointExtension>
        </extensions>
      </trkpt>
      <trkpt lat="37.95201829634606838226318359375" lon="-107.109813988208770751953125">
        <ele>3891.39990234375</ele>
        <time>2026-01-06T18:12:44.000Z</time>
        <extensions>
          <ns3:TrackPointExtension>
            <ns3:hr>113</ns3:hr>
            <ns3:cad>0</ns3:cad>
          </ns3:TrackPointExtension>
        </extensions>
      </trkpt>
      <trkpt lat="37.95201863162219524383544921875" lon="-107.10981390438973903656005859375">
        <ele>3891.199951171875</ele>
        <time>2026-01-06T18:12:45.000Z</time>
        <extensions>
          <ns3:TrackPointExtension>
            <ns3:hr>113</ns3:hr>
            <ns3:cad>0</ns3:cad>
          </ns3:TrackPointExtension>
        </extensions>
      </trkpt>
      <trkpt lat="37.95203405432403087615966796875" lon="-107.10982312448322772979736328125">
        <ele>3891.39990234375</ele>
        <time>2026-01-06T18:12:50.000Z</time>
        <extensions>
          <ns3:TrackPointExtension>
            <ns3:hr>113</ns3:hr>
            <ns3:cad>0</ns3:cad>
          </ns3:TrackPointExtension>
        </extensions>
      </trkpt>
      <trkpt lat="37.95206238515675067901611328125" lon="-107.10983703844249248504638671875">
        <ele>3891.39990234375</ele>
        <time>2026-01-06T18:12:56.000Z</time>
        <extensions>
          <ns3:TrackPointExtension>
            <ns3:hr>112</ns3:hr>
            <ns3:cad>0</ns3:cad>
          </ns3:TrackPointExtension>
        </extensions>
      </trkpt>
      <trkpt lat="37.9520872794091701507568359375" lon="-107.10984952747821807861328125">
        <ele>3891.39990234375</ele>
        <time>2026-01-06T18:13:02.000Z</time>
        <extensions>
          <ns3:TrackPointExtension>
            <ns3:hr>113</ns3:hr>
            <ns3:cad>0</ns3:cad>
          </ns3:TrackPointExtension>
        </extensions>
      </trkpt>
      <trkpt lat="37.9520906321704387664794921875" lon="-107.10985112003982067108154296875">
        <ele>3891.39990234375</ele>
        <time>2026-01-06T18:13:03.000Z</time>
        <extensions>
          <ns3:TrackPointExtension>
            <ns3:hr>114</ns3:hr>
            <ns3:cad>0</ns3:cad>
          </ns3:TrackPointExtension>
        </extensions>
      </trkpt>
      <trkpt lat="37.952101193368434906005859375" lon="-107.109860591590404510498046875">
        <ele>3891.60009765625</ele>
        <time>2026-01-06T18:13:05.000Z</time>
        <extensions>
          <ns3:TrackPointExtension>
            <ns3:hr>117</ns3:hr>
            <ns3:cad>0</ns3:cad>
          </ns3:TrackPointExtension>
        </extensions>
      </trkpt>
      <trkpt lat="37.9521174542605876922607421875" lon="-107.109879367053508758544921875">
        <ele>3891.800048828125</ele>
        <time>2026-01-06T18:13:08.000Z</time>
        <extensions>
          <ns3:TrackPointExtension>
            <ns3:hr>118</ns3:hr>
            <ns3:cad>0</ns3:cad>
          </ns3:TrackPointExtension>
        </extensions>
      </trkpt>
      <trkpt lat="37.95213178731501102447509765625" lon="-107.10988766513764858245849609375">
        <ele>3891.800048828125</ele>
        <time>2026-01-06T18:13:10.000Z</time>
        <extensions>
          <ns3:TrackPointExtension>
            <ns3:hr>118</ns3:hr>
            <ns3:cad>0</ns3:cad>
          </ns3:TrackPointExtension>
        </extensions>
      </trkpt>
      <trkpt lat="37.9521751217544078826904296875" lon="-107.10990996100008487701416015625">
        <ele>3891.39990234375</ele>
        <time>2026-01-06T18:13:16.000Z</time>
        <extensions>
          <ns3:TrackPointExtension>
            <ns3:hr>117</ns3:hr>
            <ns3:cad>0</ns3:cad>
          </ns3:TrackPointExtension>
        </extensions>
      </trkpt>
      <trkpt lat="37.952205128967761993408203125" lon="-107.10993577726185321807861328125">
        <ele>3891.800048828125</ele>
        <time>2026-01-06T18:13:22.000Z</time>
        <extensions>
          <ns3:TrackPointExtension>
            <ns3:hr>116</ns3:hr>
            <ns3:cad>69</ns3:cad>
          </ns3:TrackPointExtension>
        </extensions>
      </trkpt>
      <trkpt lat="37.95221409760415554046630859375" lon="-107.10994047112762928009033203125">
        <ele>3891.800048828125</ele>
        <time>2026-01-06T18:13:23.000Z</time>
        <extensions>
          <ns3:TrackPointExtension>
            <ns3:hr>117</ns3:hr>
            <ns3:cad>69</ns3:cad>
          </ns3:TrackPointExtension>
        </extensions>
      </trkpt>
      <trkpt lat="37.95224846340715885162353515625" lon="-107.10996259935200214385986328125">
        <ele>3892</ele>
        <time>2026-01-06T18:13:29.000Z</time>
        <extensions>
          <ns3:TrackPointExtension>
            <ns3:hr>117</ns3:hr>
            <ns3:cad>69</ns3:cad>
          </ns3:TrackPointExtension>
        </extensions>
      </trkpt>
      <trkpt lat="37.9522557556629180908203125" lon="-107.1099670417606830596923828125">
        <ele>3891.800048828125</ele>
        <time>2026-01-06T18:13:30.000Z</time>
        <extensions>
          <ns3:TrackPointExtension>
            <ns3:hr>117</ns3:hr>
            <ns3:cad>69</ns3:cad>
          </ns3:TrackPointExtension>
        </extensions>
      </trkpt>
      <trkpt lat="37.952279560267925262451171875" lon="-107.10999436676502227783203125">
        <ele>3891.60009765625</ele>
        <time>2026-01-06T18:13:36.000Z</time>
        <extensions>
          <ns3:TrackPointExtension>
            <ns3:hr>117</ns3:hr>
            <ns3:cad>62</ns3:cad>
          </ns3:TrackPointExtension>
        </extensions>
      </trkpt>
      <trkpt lat="37.95228417031466960906982421875" lon="-107.110001742839813232421875">
        <ele>3891.39990234375</ele>
        <time>2026-01-06T18:13:37.000Z</time>
        <extensions>
          <ns3:TrackPointExtension>
            <ns3:hr>117</ns3:hr>
            <ns3:cad>0</ns3:cad>
          </ns3:TrackPointExtension>
        </extensions>
      </trkpt>
      <trkpt lat="37.9523159377276897430419921875" lon="-107.1100377850234508514404296875">
        <ele>3890.800048828125</ele>
        <time>2026-01-06T18:13:43.000Z</time>
        <extensions>
          <ns3:TrackPointExtension>
            <ns3:hr>117</ns3:hr>
            <ns3:cad>41</ns3:cad>
          </ns3:TrackPointExtension>
        </extensions>
      </trkpt>
      <trkpt lat="37.95233379118144512176513671875" lon="-107.11005412973463535308837890625">
        <ele>3891.199951171875</ele>
        <time>2026-01-06T18:13:48.000Z</time>
        <extensions>
          <ns3:TrackPointExtension>
            <ns3:hr>116</ns3:hr>
            <ns3:cad>0</ns3:cad>
          </ns3:TrackPointExtension>
        </extensions>
      </trkpt>
      <trkpt lat="37.9523451067507266998291015625" lon="-107.11006234399974346160888671875">
        <ele>3891</ele>
        <time>2026-01-06T18:13:50.000Z</time>
        <extensions>
          <ns3:TrackPointExtension>
            <ns3:hr>113</ns3:hr>
            <ns3:cad>0</ns3:cad>
          </ns3:TrackPointExtension>
        </extensions>
      </trkpt>
      <trkpt lat="37.95236379839479923248291015625" lon="-107.110092937946319580078125">
        <ele>3890.60009765625</ele>
        <time>2026-01-06T18:13:54.000Z</time>
        <extensions>
          <ns3:TrackPointExtension>
            <ns3:hr>111</ns3:hr>
            <ns3:cad>0</ns3:cad>
          </ns3:TrackPointExtension>
        </extensions>
      </trkpt>
      <trkpt lat="37.95240269042551517486572265625" lon="-107.11013644002377986907958984375">
        <ele>3890.39990234375</ele>
        <time>2026-01-06T18:14:00.000Z</time>
        <extensions>
          <ns3:TrackPointExtension>
            <ns3:hr>114</ns3:hr>
            <ns3:cad>0</ns3:cad>
          </ns3:TrackPointExtension>
        </extensions>
      </trkpt>
      <trkpt lat="37.952435798943042755126953125" lon="-107.1101868152618408203125">
        <ele>3890.39990234375</ele>
        <time>2026-01-06T18:14:06.000Z</time>
        <extensions>
          <ns3:TrackPointExtension>
            <ns3:hr>112</ns3:hr>
            <ns3:cad>0</ns3:cad>
          </ns3:TrackPointExtension>
        </extensions>
      </trkpt>
      <trkpt lat="37.95246354304254055023193359375" lon="-107.1102302335202693939208984375">
        <ele>3890.39990234375</ele>
        <time>2026-01-06T18:14:12.000Z</time>
        <extensions>
          <ns3:TrackPointExtension>
            <ns3:hr>112</ns3:hr>
            <ns3:cad>0</ns3:cad>
          </ns3:TrackPointExtension>
        </extensions>
      </trkpt>
      <trkpt lat="37.9524676501750946044921875" lon="-107.11023442447185516357421875">
        <ele>3890.39990234375</ele>
        <time>2026-01-06T18:14:13.000Z</time>
        <extensions>
          <ns3:TrackPointExtension>
            <ns3:hr>113</ns3:hr>
            <ns3:cad>0</ns3:cad>
          </ns3:TrackPointExtension>
        </extensions>
      </trkpt>
      <trkpt lat="37.95250142924487590789794921875" lon="-107.11026971228420734405517578125">
        <ele>3890.39990234375</ele>
        <time>2026-01-06T18:14:19.000Z</time>
        <extensions>
          <ns3:TrackPointExtension>
            <ns3:hr>111</ns3:hr>
            <ns3:cad>0</ns3:cad>
          </ns3:TrackPointExtension>
        </extensions>
      </trkpt>
      <trkpt lat="37.952510230243206024169921875" lon="-107.11028245277702808380126953125">
        <ele>3890.60009765625</ele>
        <time>2026-01-06T18:14:21.000Z</time>
        <extensions>
          <ns3:TrackPointExtension>
            <ns3:hr>109</ns3:hr>
            <ns3:cad>68</ns3:cad>
          </ns3:TrackPointExtension>
        </extensions>
      </trkpt>
      <trkpt lat="37.952537722885608673095703125" lon="-107.11032000370323657989501953125">
        <ele>3890.199951171875</ele>
        <time>2026-01-06T18:14:27.000Z</time>
        <extensions>
          <ns3:TrackPointExtension>
            <ns3:hr>108</ns3:hr>
            <ns3:cad>72</ns3:cad>
          </ns3:TrackPointExtension>
        </extensions>
      </trkpt>
      <trkpt lat="37.9525481164455413818359375" lon="-107.1103298105299472808837890625">
        <ele>3890.199951171875</ele>
        <time>2026-01-06T18:14:29.000Z</time>
        <extensions>
          <ns3:TrackPointExtension>
            <ns3:hr>107</ns3:hr>
            <ns3:cad>75</ns3:cad>
          </ns3:TrackPointExtension>
        </extensions>
      </trkpt>
      <trkpt lat="37.95256999321281909942626953125" lon="-107.11035017855465412139892578125">
        <ele>3889.60009765625</ele>
        <time>2026-01-06T18:14:33.000Z</time>
        <extensions>
          <ns3:TrackPointExtension>
            <ns3:hr>107</ns3:hr>
            <ns3:cad>74</ns3:cad>
          </ns3:TrackPointExtension>
        </extensions>
      </trkpt>
      <trkpt lat="37.95258390717208385467529296875" lon="-107.1103643439710140228271484375">
        <ele>3889.39990234375</ele>
        <time>2026-01-06T18:14:35.000Z</time>
        <extensions>
          <ns3:TrackPointExtension>
            <ns3:hr>106</ns3:hr>
            <ns3:cad>75</ns3:cad>
          </ns3:TrackPointExtension>
        </extensions>
      </trkpt>
      <trkpt lat="37.95261475257575511932373046875" lon="-107.1104002185165882110595703125">
        <ele>3889.800048828125</ele>
        <time>2026-01-06T18:14:40.000Z</time>
        <extensions>
          <ns3:TrackPointExtension>
            <ns3:hr>106</ns3:hr>
            <ns3:cad>69</ns3:cad>
          </ns3:TrackPointExtension>
        </extensions>
      </trkpt>
      <trkpt lat="37.9526428319513797760009765625" lon="-107.1104307286441326141357421875">
        <ele>3890</ele>
        <time>2026-01-06T18:14:45.000Z</time>
        <extensions>
          <ns3:TrackPointExtension>
            <ns3:hr>106</ns3:hr>
            <ns3:cad>0</ns3:cad>
          </ns3:TrackPointExtension>
        </extensions>
      </trkpt>
      <trkpt lat="37.95266085304319858551025390625" lon="-107.11046584881842136383056640625">
        <ele>3889.800048828125</ele>
        <time>2026-01-06T18:14:49.000Z</time>
        <extensions>
          <ns3:TrackPointExtension>
            <ns3:hr>102</ns3:hr>
            <ns3:cad>0</ns3:cad>
          </ns3:TrackPointExtension>
        </extensions>
      </trkpt>
      <trkpt lat="37.9526713304221630096435546875" lon="-107.11047925986349582672119140625">
        <ele>3889.800048828125</ele>
        <time>2026-01-06T18:14:51.000Z</time>
        <extensions>
          <ns3:TrackPointExtension>
            <ns3:hr>100</ns3:hr>
            <ns3:cad>0</ns3:cad>
          </ns3:TrackPointExtension>
        </extensions>
      </trkpt>
      <trkpt lat="37.95268314890563488006591796875" lon="-107.11049300618469715118408203125">
        <ele>3890</ele>
        <time>2026-01-06T18:14:53.000Z</time>
        <extensions>
          <ns3:TrackPointExtension>
            <ns3:hr>97</ns3:hr>
            <ns3:cad>0</ns3:cad>
          </ns3:TrackPointExtension>
        </extensions>
      </trkpt>
      <trkpt lat="37.95269639231264591217041015625" lon="-107.11052167229354381561279296875">
        <ele>3890.199951171875</ele>
        <time>2026-01-06T18:14:57.000Z</time>
        <extensions>
          <ns3:TrackPointExtension>
            <ns3:hr>96</ns3:hr>
            <ns3:cad>0</ns3:cad>
          </ns3:TrackPointExtension>
        </extensions>
      </trkpt>
      <trkpt lat="37.952727489173412322998046875" lon="-107.11055804975330829620361328125">
        <ele>3890.60009765625</ele>
        <time>2026-01-06T18:15:03.000Z</time>
        <extensions>
          <ns3:TrackPointExtension>
            <ns3:hr>98</ns3:hr>
            <ns3:cad>0</ns3:cad>
          </ns3:TrackPointExtension>
        </extensions>
      </trkpt>
      <trkpt lat="37.95273092575371265411376953125" lon="-107.11056391708552837371826171875">
        <ele>3890.800048828125</ele>
        <time>2026-01-06T18:15:04.000Z</time>
        <extensions>
          <ns3:TrackPointExtension>
            <ns3:hr>98</ns3:hr>
            <ns3:cad>0</ns3:cad>
          </ns3:TrackPointExtension>
        </extensions>
      </trkpt>
      <trkpt lat="37.9527519643306732177734375" lon="-107.11057632230222225189208984375">
        <ele>3891.800048828125</ele>
        <time>2026-01-06T18:15:09.000Z</time>
        <extensions>
          <ns3:TrackPointExtension>
            <ns3:hr>98</ns3:hr>
            <ns3:cad>77</ns3:cad>
          </ns3:TrackPointExtension>
        </extensions>
      </trkpt>
      <trkpt lat="37.952759005129337310791015625" lon="-107.110579423606395721435546875">
        <ele>3892</ele>
        <time>2026-01-06T18:15:10.000Z</time>
        <extensions>
          <ns3:TrackPointExtension>
            <ns3:hr>99</ns3:hr>
            <ns3:cad>77</ns3:cad>
          </ns3:TrackPointExtension>
        </extensions>
      </trkpt>
      <trkpt lat="37.9527762718498706817626953125" lon="-107.1105876378715038299560546875">
        <ele>3892.39990234375</ele>
        <time>2026-01-06T18:15:13.000Z</time>
        <extensions>
          <ns3:TrackPointExtension>
            <ns3:hr>102</ns3:hr>
            <ns3:cad>0</ns3:cad>
          </ns3:TrackPointExtension>
        </extensions>
      </trkpt>
      <trkpt lat="37.95279018580913543701171875" lon="-107.110591828823089599609375">
        <ele>3892.800048828125</ele>
        <time>2026-01-06T18:15:15.000Z</time>
        <extensions>
          <ns3:TrackPointExtension>
            <ns3:hr>106</ns3:hr>
            <ns3:cad>0</ns3:cad>
          </ns3:TrackPointExtension>
        </extensions>
      </trkpt>
      <trkpt lat="37.95280384831130504608154296875" lon="-107.1105997078120708465576171875">
        <ele>3893.199951171875</ele>
        <time>2026-01-06T18:15:17.000Z</time>
        <extensions>
          <ns3:TrackPointExtension>
            <ns3:hr>108</ns3:hr>
            <ns3:cad>0</ns3:cad>
          </ns3:TrackPointExtension>
        </extensions>
      </trkpt>
      <trkpt lat="37.9528185166418552398681640625" lon="-107.11061404086649417877197265625">
        <ele>3894</ele>
        <time>2026-01-06T18:15:22.000Z</time>
        <extensions>
          <ns3:TrackPointExtension>
            <ns3:hr>110</ns3:hr>
            <ns3:cad>0</ns3:cad>
          </ns3:TrackPointExtension>
        </extensions>
      </trkpt>
      <trkpt lat="37.952826060354709625244140625" lon="-107.1106218360364437103271484375">
        <ele>3894.199951171875</ele>
        <time>2026-01-06T18:15:23.000Z</time>
        <extensions>
          <ns3:TrackPointExtension>
            <ns3:hr>111</ns3:hr>
            <ns3:cad>0</ns3:cad>
          </ns3:TrackPointExtension>
        </extensions>
      </trkpt>
      <trkpt lat="37.95283754356205463409423828125" lon="-107.110633067786693572998046875">
        <ele>3895.199951171875</ele>
        <time>2026-01-06T18:15:26.000Z</time>
        <extensions>
          <ns3:TrackPointExtension>
            <ns3:hr>112</ns3:hr>
            <ns3:cad>0</ns3:cad>
          </ns3:TrackPointExtension>
        </extensions>
      </trkpt>
      <trkpt lat="37.95284475199878215789794921875" lon="-107.110650837421417236328125">
        <ele>3895.800048828125</ele>
        <time>2026-01-06T18:15:28.000Z</time>
        <extensions>
          <ns3:TrackPointExtension>
            <ns3:hr>113</ns3:hr>
            <ns3:cad>0</ns3:cad>
          </ns3:TrackPointExtension>
        </extensions>
      </trkpt>
      <trkpt lat="37.95285455882549285888671875" lon="-107.11067656986415386199951171875">
        <ele>3896.199951171875</ele>
        <time>2026-01-06T18:15:31.000Z</time>
        <extensions>
          <ns3:TrackPointExtension>
            <ns3:hr>113</ns3:hr>
            <ns3:cad>0</ns3:cad>
          </ns3:TrackPointExtension>
        </extensions>
      </trkpt>
      <trkpt lat="37.95285933651030063629150390625" lon="-107.11069442331790924072265625">
        <ele>3896.199951171875</ele>
        <time>2026-01-06T18:15:33.000Z</time>
        <extensions>
          <ns3:TrackPointExtension>
            <ns3:hr>114</ns3:hr>
            <ns3:cad>0</ns3:cad>
          </ns3:TrackPointExtension>
        </extensions>
      </trkpt>
      <trkpt lat="37.95288515277206897735595703125" lon="-107.11070573888719081878662109375">
        <ele>3895.800048828125</ele>
        <time>2026-01-06T18:15:38.000Z</time>
        <extensions>
          <ns3:TrackPointExtension>
            <ns3:hr>115</ns3:hr>
            <ns3:cad>0</ns3:cad>
          </ns3:TrackPointExtension>
        </extensions>
      </trkpt>
      <trkpt lat="37.9529167525470256805419921875" lon="-107.11071177385747432708740234375">
        <ele>3895.800048828125</ele>
        <time>2026-01-06T18:15:44.000Z</time>
        <extensions>
          <ns3:TrackPointExtension>
            <ns3:hr>114</ns3:hr>
            <ns3:cad>0</ns3:cad>
          </ns3:TrackPointExtension>
        </extensions>
      </trkpt>
      <trkpt lat="37.95292370952665805816650390625" lon="-107.1107160486280918121337890625">
        <ele>3896</ele>
        <time>2026-01-06T18:15:45.000Z</time>
        <extensions>
          <ns3:TrackPointExtension>
            <ns3:hr>114</ns3:hr>
            <ns3:cad>0</ns3:cad>
          </ns3:TrackPointExtension>
        </extensions>
      </trkpt>
      <trkpt lat="37.952956147491931915283203125" lon="-107.1107187308371067047119140625">
        <ele>3896.39990234375</ele>
        <time>2026-01-06T18:15:51.000Z</time>
        <extensions>
          <ns3:TrackPointExtension>
            <ns3:hr>115</ns3:hr>
            <ns3:cad>63</ns3:cad>
          </ns3:TrackPointExtension>
        </extensions>
      </trkpt>
      <trkpt lat="37.952967546880245208740234375" lon="-107.110710181295871734619140625">
        <ele>3896.199951171875</ele>
        <time>2026-01-06T18:15:53.000Z</time>
        <extensions>
          <ns3:TrackPointExtension>
            <ns3:hr>115</ns3:hr>
            <ns3:cad>62</ns3:cad>
          </ns3:TrackPointExtension>
        </extensions>
      </trkpt>
      <trkpt lat="37.9529874958097934722900390625" lon="-107.1106875501573085784912109375">
        <ele>3897.39990234375</ele>
        <time>2026-01-06T18:15:59.000Z</time>
        <extensions>
          <ns3:TrackPointExtension>
            <ns3:hr>116</ns3:hr>
            <ns3:cad>73</ns3:cad>
          </ns3:TrackPointExtension>
        </extensions>
      </trkpt>
      <trkpt lat="37.9530159942805767059326171875" lon="-107.11066299118101596832275390625">
        <ele>3898</ele>
        <time>2026-01-06T18:16:05.000Z</time>
        <extensions>
          <ns3:TrackPointExtension>
            <ns3:hr>116</ns3:hr>
            <ns3:cad>0</ns3:cad>
          </ns3:TrackPointExtension>
        </extensions>
      </trkpt>
      <trkpt lat="37.9530190117657184600830078125" lon="-107.11065896786749362945556640625">
        <ele>3898.199951171875</ele>
        <time>2026-01-06T18:16:06.000Z</time>
        <extensions>
          <ns3:TrackPointExtension>
            <ns3:hr>116</ns3:hr>
            <ns3:cad>0</ns3:cad>
          </ns3:TrackPointExtension>
        </extensions>
      </trkpt>
      <trkpt lat="37.9530330933630466461181640625" lon="-107.11063818074762821197509765625">
        <ele>3898.60009765625</ele>
        <time>2026-01-06T18:16:09.000Z</time>
        <extensions>
          <ns3:TrackPointExtension>
            <ns3:hr>117</ns3:hr>
            <ns3:cad>0</ns3:cad>
          </ns3:TrackPointExtension>
        </extensions>
      </trkpt>
      <trkpt lat="37.953057400882244110107421875" lon="-107.1106228418648242950439453125">
        <ele>3899.39990234375</ele>
        <time>2026-01-06T18:16:14.000Z</time>
        <extensions>
          <ns3:TrackPointExtension>
            <ns3:hr>117</ns3:hr>
            <ns3:cad>0</ns3:cad>
          </ns3:TrackPointExtension>
        </extensions>
      </trkpt>
      <trkpt lat="37.953082881867885589599609375" lon="-107.11059258319437503814697265625">
        <ele>3899.60009765625</ele>
        <time>2026-01-06T18:16:19.000Z</time>
        <extensions>
          <ns3:TrackPointExtension>
            <ns3:hr>117</ns3:hr>
            <ns3:cad>0</ns3:cad>
          </ns3:TrackPointExtension>
        </extensions>
      </trkpt>
      <trkpt lat="37.9531086981296539306640625" lon="-107.11055352352559566497802734375">
        <ele>3900.60009765625</ele>
        <time>2026-01-06T18:16:24.000Z</time>
        <extensions>
          <ns3:TrackPointExtension>
            <ns3:hr>118</ns3:hr>
            <ns3:cad>71</ns3:cad>
          </ns3:TrackPointExtension>
        </extensions>
      </trkpt>
      <trkpt lat="37.9531169123947620391845703125" lon="-107.11054832674562931060791015625">
        <ele>3900.800048828125</ele>
        <time>2026-01-06T18:16:25.000Z</time>
        <extensions>
          <ns3:TrackPointExtension>
            <ns3:hr>118</ns3:hr>
            <ns3:cad>0</ns3:cad>
          </ns3:TrackPointExtension>
        </extensions>
      </trkpt>
      <trkpt lat="37.953133843839168548583984375" lon="-107.1105301380157470703125">
        <ele>3901.199951171875</ele>
        <time>2026-01-06T18:16:29.000Z</time>
        <extensions>
          <ns3:TrackPointExtension>
            <ns3:hr>119</ns3:hr>
            <ns3:cad>72</ns3:cad>
          </ns3:TrackPointExtension>
        </extensions>
      </trkpt>
      <trkpt lat="37.953157983720302581787109375" lon="-107.11051211692392826080322265625">
        <ele>3901.199951171875</ele>
        <time>2026-01-06T18:16:33.000Z</time>
        <extensions>
          <ns3:TrackPointExtension>
            <ns3:hr>120</ns3:hr>
            <ns3:cad>0</ns3:cad>
          </ns3:TrackPointExtension>
        </extensions>
      </trkpt>
      <trkpt lat="37.9531846381723880767822265625" lon="-107.11047875694930553436279296875">
        <ele>3902</ele>
        <time>2026-01-06T18:16:39.000Z</time>
        <extensions>
          <ns3:TrackPointExtension>
            <ns3:hr>122</ns3:hr>
            <ns3:cad>17</ns3:cad>
          </ns3:TrackPointExtension>
        </extensions>
      </trkpt>
      <trkpt lat="37.95322160236537456512451171875" lon="-107.1104659326374530792236328125">
        <ele>3902.199951171875</ele>
        <time>2026-01-06T18:16:44.000Z</time>
        <extensions>
          <ns3:TrackPointExtension>
            <ns3:hr>123</ns3:hr>
            <ns3:cad>0</ns3:cad>
          </ns3:TrackPointExtension>
        </extensions>
      </trkpt>
      <trkpt lat="37.95324959792196750640869140625" lon="-107.11042980663478374481201171875">
        <ele>3902.800048828125</ele>
        <time>2026-01-06T18:16:50.000Z</time>
        <extensions>
          <ns3:TrackPointExtension>
            <ns3:hr>122</ns3:hr>
            <ns3:cad>55</ns3:cad>
          </ns3:TrackPointExtension>
        </extensions>
      </trkpt>
      <trkpt lat="37.95327072031795978546142578125" lon="-107.11041404865682125091552734375">
        <ele>3903.199951171875</ele>
        <time>2026-01-06T18:16:53.000Z</time>
        <extensions>
          <ns3:TrackPointExtension>
            <ns3:hr>122</ns3:hr>
            <ns3:cad>0</ns3:cad>
          </ns3:TrackPointExtension>
        </extensions>
      </trkpt>
      <trkpt lat="37.95329754240810871124267578125" lon="-107.110393680632114410400390625">
        <ele>3904</ele>
        <time>2026-01-06T18:16:57.000Z</time>
        <extensions>
          <ns3:TrackPointExtension>
            <ns3:hr>120</ns3:hr>
            <ns3:cad>0</ns3:cad>
          </ns3:TrackPointExtension>
        </extensions>
      </trkpt>
      <trkpt lat="37.95332184992730617523193359375" lon="-107.11037331260740756988525390625">
        <ele>3904.199951171875</ele>
        <time>2026-01-06T18:17:03.000Z</time>
        <extensions>
          <ns3:TrackPointExtension>
            <ns3:hr>120</ns3:hr>
            <ns3:cad>0</ns3:cad>
          </ns3:TrackPointExtension>
        </extensions>
      </trkpt>
      <trkpt lat="37.9533241130411624908447265625" lon="-107.11036987602710723876953125">
        <ele>3904.199951171875</ele>
        <time>2026-01-06T18:17:04.000Z</time>
        <extensions>
          <ns3:TrackPointExtension>
            <ns3:hr>119</ns3:hr>
            <ns3:cad>0</ns3:cad>
          </ns3:TrackPointExtension>
        </extensions>
      </trkpt>
      <trkpt lat="37.95334934256970882415771484375" lon="-107.1103562973439693450927734375">
        <ele>3905</ele>
        <time>2026-01-06T18:17:09.000Z</time>
        <extensions>
          <ns3:TrackPointExtension>
            <ns3:hr>119</ns3:hr>
            <ns3:cad>0</ns3:cad>
          </ns3:TrackPointExtension>
        </extensions>
      </trkpt>
      <trkpt lat="37.9533599875867366790771484375" lon="-107.11034716106951236724853515625">
        <ele>3905.199951171875</ele>
        <time>2026-01-06T18:17:11.000Z</time>
        <extensions>
          <ns3:TrackPointExtension>
            <ns3:hr>117</ns3:hr>
            <ns3:cad>0</ns3:cad>
          </ns3:TrackPointExtension>
        </extensions>
      </trkpt>
      <trkpt lat="37.9533747397363185882568359375" lon="-107.11033827625215053558349609375">
        <ele>3905.39990234375</ele>
        <time>2026-01-06T18:17:14.000Z</time>
        <extensions>
          <ns3:TrackPointExtension>
            <ns3:hr>115</ns3:hr>
            <ns3:cad>0</ns3:cad>
          </ns3:TrackPointExtension>
        </extensions>
      </trkpt>
      <trkpt lat="37.95340969227254390716552734375" lon="-107.1103009767830371856689453125">
        <ele>3905.800048828125</ele>
        <time>2026-01-06T18:17:20.000Z</time>
        <extensions>
          <ns3:TrackPointExtension>
            <ns3:hr>114</ns3:hr>
            <ns3:cad>0</ns3:cad>
          </ns3:TrackPointExtension>
        </extensions>
      </trkpt>
      <trkpt lat="37.953415811061859130859375" lon="-107.1102946065366268157958984375">
        <ele>3906</ele>
        <time>2026-01-06T18:17:21.000Z</time>
        <extensions>
          <ns3:TrackPointExtension>
            <ns3:hr>114</ns3:hr>
            <ns3:cad>0</ns3:cad>
          </ns3:TrackPointExtension>
        </extensions>
      </trkpt>
      <trkpt lat="37.95342980884015560150146484375" lon="-107.11028278805315494537353515625">
        <ele>3906.39990234375</ele>
        <time>2026-01-06T18:17:23.000Z</time>
        <extensions>
          <ns3:TrackPointExtension>
            <ns3:hr>114</ns3:hr>
            <ns3:cad>0</ns3:cad>
          </ns3:TrackPointExtension>
        </extensions>
      </trkpt>
      <trkpt lat="37.95343500562012195587158203125" lon="-107.1102748252451419830322265625">
        <ele>3906.60009765625</ele>
        <time>2026-01-06T18:17:28.000Z</time>
        <extensions>
          <ns3:TrackPointExtension>
            <ns3:hr>117</ns3:hr>
            <ns3:cad>0</ns3:cad>
          </ns3:TrackPointExtension>
        </extensions>
      </trkpt>
      <trkpt lat="37.95343500562012195587158203125" lon="-107.1102748252451419830322265625">
        <ele>3906.199951171875</ele>
        <time>2026-01-06T18:17:34.000Z</time>
        <extensions>
          <ns3:TrackPointExtension>
            <ns3:hr>118</ns3:hr>
            <ns3:cad>0</ns3:cad>
          </ns3:TrackPointExtension>
        </extensions>
      </trkpt>
      <trkpt lat="37.95343500562012195587158203125" lon="-107.1102748252451419830322265625">
        <ele>3906.39990234375</ele>
        <time>2026-01-06T18:17:40.000Z</time>
        <extensions>
          <ns3:TrackPointExtension>
            <ns3:hr>119</ns3:hr>
            <ns3:cad>0</ns3:cad>
          </ns3:TrackPointExtension>
        </extensions>
      </trkpt>
      <trkpt lat="37.95343500562012195587158203125" lon="-107.1102748252451419830322265625">
        <ele>3906.39990234375</ele>
        <time>2026-01-06T18:17:46.000Z</time>
        <extensions>
          <ns3:TrackPointExtension>
            <ns3:hr>121</ns3:hr>
            <ns3:cad>0</ns3:cad>
          </ns3:TrackPointExtension>
        </extensions>
      </trkpt>
      <trkpt lat="37.95343500562012195587158203125" lon="-107.1102748252451419830322265625">
        <ele>3906.39990234375</ele>
        <time>2026-01-06T18:17:47.000Z</time>
        <extensions>
          <ns3:TrackPointExtension>
            <ns3:hr>124</ns3:hr>
            <ns3:cad>0</ns3:cad>
          </ns3:TrackPointExtension>
        </extensions>
      </trkpt>
      <trkpt lat="37.95343500562012195587158203125" lon="-107.1102748252451419830322265625">
        <ele>3906.39990234375</ele>
        <time>2026-01-06T18:17:48.000Z</time>
        <extensions>
          <ns3:TrackPointExtension>
            <ns3:hr>127</ns3:hr>
            <ns3:cad>0</ns3:cad>
          </ns3:TrackPointExtension>
        </extensions>
      </trkpt>
      <trkpt lat="37.95343500562012195587158203125" lon="-107.1102748252451419830322265625">
        <ele>3906.60009765625</ele>
        <time>2026-01-06T18:17:51.000Z</time>
        <extensions>
          <ns3:TrackPointExtension>
            <ns3:hr>130</ns3:hr>
            <ns3:cad>0</ns3:cad>
          </ns3:TrackPointExtension>
        </extensions>
      </trkpt>
      <trkpt lat="37.95343500562012195587158203125" lon="-107.1102748252451419830322265625">
        <ele>3906.60009765625</ele>
        <time>2026-01-06T18:17:52.000Z</time>
        <extensions>
          <ns3:TrackPointExtension>
            <ns3:hr>131</ns3:hr>
            <ns3:cad>0</ns3:cad>
          </ns3:TrackPointExtension>
        </extensions>
      </trkpt>
      <trkpt lat="37.95343500562012195587158203125" lon="-107.1102748252451419830322265625">
        <ele>3906.39990234375</ele>
        <time>2026-01-06T18:17:58.000Z</time>
        <extensions>
          <ns3:TrackPointExtension>
            <ns3:hr>129</ns3:hr>
            <ns3:cad>0</ns3:cad>
          </ns3:TrackPointExtension>
        </extensions>
      </trkpt>
      <trkpt lat="37.95343500562012195587158203125" lon="-107.1102748252451419830322265625">
        <ele>3906.199951171875</ele>
        <time>2026-01-06T18:18:00.000Z</time>
        <extensions>
          <ns3:TrackPointExtension>
            <ns3:hr>125</ns3:hr>
            <ns3:cad>0</ns3:cad>
          </ns3:TrackPointExtension>
        </extensions>
      </trkpt>
      <trkpt lat="37.95343500562012195587158203125" lon="-107.1102748252451419830322265625">
        <ele>3906</ele>
        <time>2026-01-06T18:18:01.000Z</time>
        <extensions>
          <ns3:TrackPointExtension>
            <ns3:hr>122</ns3:hr>
            <ns3:cad>0</ns3:cad>
          </ns3:TrackPointExtension>
        </extensions>
      </trkpt>
      <trkpt lat="37.95343500562012195587158203125" lon="-107.1102748252451419830322265625">
        <ele>3906</ele>
        <time>2026-01-06T18:18:02.000Z</time>
        <extensions>
          <ns3:TrackPointExtension>
            <ns3:hr>119</ns3:hr>
            <ns3:cad>0</ns3:cad>
          </ns3:TrackPointExtension>
        </extensions>
      </trkpt>
      <trkpt lat="37.95343500562012195587158203125" lon="-107.1102748252451419830322265625">
        <ele>3906</ele>
        <time>2026-01-06T18:18:05.000Z</time>
        <extensions>
          <ns3:TrackPointExtension>
            <ns3:hr>116</ns3:hr>
            <ns3:cad>0</ns3:cad>
          </ns3:TrackPointExtension>
        </extensions>
      </trkpt>
      <trkpt lat="37.9534431360661983489990234375" lon="-107.11026015691459178924560546875">
        <ele>3906.39990234375</ele>
        <time>2026-01-06T18:18:11.000Z</time>
        <extensions>
          <ns3:TrackPointExtension>
            <ns3:hr>114</ns3:hr>
            <ns3:cad>0</ns3:cad>
          </ns3:TrackPointExtension>
        </extensions>
      </trkpt>
      <trkpt lat="37.9534431360661983489990234375" lon="-107.11026015691459178924560546875">
        <ele>3906.60009765625</ele>
        <time>2026-01-06T18:18:17.000Z</time>
        <extensions>
          <ns3:TrackPointExtension>
            <ns3:hr>113</ns3:hr>
            <ns3:cad>0</ns3:cad>
          </ns3:TrackPointExtension>
        </extensions>
      </trkpt>
      <trkpt lat="37.9534431360661983489990234375" lon="-107.11026015691459178924560546875">
        <ele>3906.60009765625</ele>
        <time>2026-01-06T18:18:23.000Z</time>
        <extensions>
          <ns3:TrackPointExtension>
            <ns3:hr>114</ns3:hr>
            <ns3:cad>0</ns3:cad>
          </ns3:TrackPointExtension>
        </extensions>
      </trkpt>
      <trkpt lat="37.9534431360661983489990234375" lon="-107.11026015691459178924560546875">
        <ele>3906.60009765625</ele>
        <time>2026-01-06T18:18:25.000Z</time>
        <extensions>
          <ns3:TrackPointExtension>
            <ns3:hr>115</ns3:hr>
            <ns3:cad>0</ns3:cad>
          </ns3:TrackPointExtension>
        </extensions>
      </trkpt>
      <trkpt lat="37.9534431360661983489990234375" lon="-107.11026015691459178924560546875">
        <ele>3906.199951171875</ele>
        <time>2026-01-06T18:18:31.000Z</time>
        <extensions>
          <ns3:TrackPointExtension>
            <ns3:hr>116</ns3:hr>
            <ns3:cad>0</ns3:cad>
          </ns3:TrackPointExtension>
        </extensions>
      </trkpt>
      <trkpt lat="37.9534431360661983489990234375" lon="-107.11026015691459178924560546875">
        <ele>3906.800048828125</ele>
        <time>2026-01-06T18:18:37.000Z</time>
        <extensions>
          <ns3:TrackPointExtension>
            <ns3:hr>117</ns3:hr>
            <ns3:cad>0</ns3:cad>
          </ns3:TrackPointExtension>
        </extensions>
      </trkpt>
      <trkpt lat="37.95344523154199123382568359375" lon="-107.11025529541075229644775390625">
        <ele>3906.39990234375</ele>
        <time>2026-01-06T18:18:42.000Z</time>
        <extensions>
          <ns3:TrackPointExtension>
            <ns3:hr>118</ns3:hr>
            <ns3:cad>0</ns3:cad>
          </ns3:TrackPointExtension>
        </extensions>
      </trkpt>
      <trkpt lat="37.953496612608432769775390625" lon="-107.1102221868932247161865234375">
        <ele>3906.39990234375</ele>
        <time>2026-01-06T18:18:48.000Z</time>
        <extensions>
          <ns3:TrackPointExtension>
            <ns3:hr>119</ns3:hr>
            <ns3:cad>44</ns3:cad>
          </ns3:TrackPointExtension>
        </extensions>
      </trkpt>
      <trkpt lat="37.953532151877880096435546875" lon="-107.11019041948020458221435546875">
        <ele>3906.60009765625</ele>
        <time>2026-01-06T18:18:52.000Z</time>
        <extensions>
          <ns3:TrackPointExtension>
            <ns3:hr>123</ns3:hr>
            <ns3:cad>44</ns3:cad>
          </ns3:TrackPointExtension>
        </extensions>
      </trkpt>
      <trkpt lat="37.95356341637670993804931640625" lon="-107.1101675368845462799072265625">
        <ele>3906.39990234375</ele>
        <time>2026-01-06T18:18:55.000Z</time>
        <extensions>
          <ns3:TrackPointExtension>
            <ns3:hr>124</ns3:hr>
            <ns3:cad>0</ns3:cad>
          </ns3:TrackPointExtension>
        </extensions>
      </trkpt>
      <trkpt lat="37.953622676432132720947265625" lon="-107.11012621410191059112548828125">
        <ele>3906.39990234375</ele>
        <time>2026-01-06T18:19:01.000Z</time>
        <extensions>
          <ns3:TrackPointExtension>
            <ns3:hr>125</ns3:hr>
            <ns3:cad>0</ns3:cad>
          </ns3:TrackPointExtension>
        </extensions>
      </trkpt>
      <trkpt lat="37.95367606915533542633056640625" lon="-107.1100874058902263641357421875">
        <ele>3906.199951171875</ele>
        <time>2026-01-06T18:19:07.000Z</time>
        <extensions>
          <ns3:TrackPointExtension>
            <ns3:hr>125</ns3:hr>
            <ns3:cad>49</ns3:cad>
          </ns3:TrackPointExtension>
        </extensions>
      </trkpt>
      <trkpt lat="37.9536848701536655426025390625" lon="-107.11007743142545223236083984375">
        <ele>3906.199951171875</ele>
        <time>2026-01-06T18:19:08.000Z</time>
        <extensions>
          <ns3:TrackPointExtension>
            <ns3:hr>125</ns3:hr>
            <ns3:cad>48</ns3:cad>
          </ns3:TrackPointExtension>
        </extensions>
      </trkpt>
      <trkpt lat="37.95372426509857177734375" lon="-107.1100304089486598968505859375">
        <ele>3907</ele>
        <time>2026-01-06T18:19:14.000Z</time>
        <extensions>
          <ns3:TrackPointExtension>
            <ns3:hr>125</ns3:hr>
            <ns3:cad>0</ns3:cad>
          </ns3:TrackPointExtension>
        </extensions>
      </trkpt>
      <trkpt lat="37.9537686891853809356689453125" lon="-107.10997366346418857574462890625">
        <ele>3907.199951171875</ele>
        <time>2026-01-06T18:19:20.000Z</time>
        <extensions>
          <ns3:TrackPointExtension>
            <ns3:hr>124</ns3:hr>
            <ns3:cad>0</ns3:cad>
          </ns3:TrackPointExtension>
        </extensions>
      </trkpt>
      <trkpt lat="37.95380732975900173187255859375" lon="-107.1099475957453250885009765625">
        <ele>3907.39990234375</ele>
        <time>2026-01-06T18:19:25.000Z</time>
        <extensions>
          <ns3:TrackPointExtension>
            <ns3:hr>123</ns3:hr>
            <ns3:cad>0</ns3:cad>
          </ns3:TrackPointExtension>
        </extensions>
      </trkpt>
      <trkpt lat="37.95381504110991954803466796875" lon="-107.1099425666034221649169921875">
        <ele>3907.39990234375</ele>
        <time>2026-01-06T18:19:26.000Z</time>
        <extensions>
          <ns3:TrackPointExtension>
            <ns3:hr>122</ns3:hr>
            <ns3:cad>0</ns3:cad>
          </ns3:TrackPointExtension>
        </extensions>
      </trkpt>
      <trkpt lat="37.953876145184040069580078125" lon="-107.10992404259741306304931640625">
        <ele>3907.800048828125</ele>
        <time>2026-01-06T18:19:32.000Z</time>
        <extensions>
          <ns3:TrackPointExtension>
            <ns3:hr>120</ns3:hr>
            <ns3:cad>0</ns3:cad>
          </ns3:TrackPointExtension>
        </extensions>
      </trkpt>
      <trkpt lat="37.95391227118670940399169921875" lon="-107.10990895517170429229736328125">
        <ele>3908</ele>
        <time>2026-01-06T18:19:36.000Z</time>
        <extensions>
          <ns3:TrackPointExtension>
            <ns3:hr>117</ns3:hr>
            <ns3:cad>0</ns3:cad>
          </ns3:TrackPointExtension>
        </extensions>
      </trkpt>
      <trkpt lat="37.95392987318336963653564453125" lon="-107.10990794934332370758056640625">
        <ele>3908.199951171875</ele>
        <time>2026-01-06T18:19:38.000Z</time>
        <extensions>
          <ns3:TrackPointExtension>
            <ns3:hr>115</ns3:hr>
            <ns3:cad>0</ns3:cad>
          </ns3:TrackPointExtension>
        </extensions>
      </trkpt>
      <trkpt lat="37.953951917588710784912109375" lon="-107.10990912280976772308349609375">
        <ele>3908.39990234375</ele>
        <time>2026-01-06T18:19:40.000Z</time>
        <extensions>
          <ns3:TrackPointExtension>
            <ns3:hr>115</ns3:hr>
            <ns3:cad>42</ns3:cad>
          </ns3:TrackPointExtension>
        </extensions>
      </trkpt>
      <trkpt lat="37.95399206690490245819091796875" lon="-107.10991817526519298553466796875">
        <ele>3908.800048828125</ele>
        <time>2026-01-06T18:19:44.000Z</time>
        <extensions>
          <ns3:TrackPointExtension>
            <ns3:hr>115</ns3:hr>
            <ns3:cad>41</ns3:cad>
          </ns3:TrackPointExtension>
        </extensions>
      </trkpt>
      <trkpt lat="37.95403867028653621673583984375" lon="-107.10992471314966678619384765625">
        <ele>3909.39990234375</ele>
        <time>2026-01-06T18:19:49.000Z</time>
        <extensions>
          <ns3:TrackPointExtension>
            <ns3:hr>115</ns3:hr>
            <ns3:cad>0</ns3:cad>
          </ns3:TrackPointExtension>
        </extensions>
      </trkpt>
      <trkpt lat="37.95404721982777118682861328125" lon="-107.1099271439015865325927734375">
        <ele>3909.39990234375</ele>
        <time>2026-01-06T18:19:50.000Z</time>
        <extensions>
          <ns3:TrackPointExtension>
            <ns3:hr>115</ns3:hr>
            <ns3:cad>0</ns3:cad>
          </ns3:TrackPointExtension>
        </extensions>
      </trkpt>
      <trkpt lat="37.954094745218753814697265625" lon="-107.109931670129299163818359375">
        <ele>3910.199951171875</ele>
        <time>2026-01-06T18:19:55.000Z</time>
        <extensions>
          <ns3:TrackPointExtension>
            <ns3:hr>118</ns3:hr>
            <ns3:cad>0</ns3:cad>
          </ns3:TrackPointExtension>
        </extensions>
      </trkpt>
      <trkpt lat="37.9541091620922088623046875" lon="-107.10992437787353992462158203125">
        <ele>3910.39990234375</ele>
        <time>2026-01-06T18:19:57.000Z</time>
        <extensions>
          <ns3:TrackPointExtension>
            <ns3:hr>121</ns3:hr>
            <ns3:cad>0</ns3:cad>
          </ns3:TrackPointExtension>
        </extensions>
      </trkpt>
      <trkpt lat="37.95412114821374416351318359375" lon="-107.10992622189223766326904296875">
        <ele>3910.39990234375</ele>
        <time>2026-01-06T18:19:59.000Z</time>
        <extensions>
          <ns3:TrackPointExtension>
            <ns3:hr>122</ns3:hr>
            <ns3:cad>0</ns3:cad>
          </ns3:TrackPointExtension>
        </extensions>
      </trkpt>
      <trkpt lat="37.9541431926190853118896484375" lon="-107.109932005405426025390625">
        <ele>3911</ele>
        <time>2026-01-06T18:20:02.000Z</time>
        <extensions>
          <ns3:TrackPointExtension>
            <ns3:hr>123</ns3:hr>
            <ns3:cad>0</ns3:cad>
          </ns3:TrackPointExtension>
        </extensions>
      </trkpt>
      <trkpt lat="37.954170517623424530029296875" lon="-107.10994047112762928009033203125">
        <ele>3911.199951171875</ele>
        <time>2026-01-06T18:20:05.000Z</time>
        <extensions>
          <ns3:TrackPointExtension>
            <ns3:hr>123</ns3:hr>
            <ns3:cad>0</ns3:cad>
          </ns3:TrackPointExtension>
        </extensions>
      </trkpt>
      <trkpt lat="37.95418736524879932403564453125" lon="-107.10994533263146877288818359375">
        <ele>3911.60009765625</ele>
        <time>2026-01-06T18:20:07.000Z</time>
        <extensions>
          <ns3:TrackPointExtension>
            <ns3:hr>123</ns3:hr>
            <ns3:cad>76</ns3:cad>
          </ns3:TrackPointExtension>
        </extensions>
      </trkpt>
      <trkpt lat="37.9542186297476291656494140625" lon="-107.10995413362979888916015625">
        <ele>3912.60009765625</ele>
        <time>2026-01-06T18:20:11.000Z</time>
        <extensions>
          <ns3:TrackPointExtension>
            <ns3:hr>122</ns3:hr>
            <ns3:cad>0</ns3:cad>
          </ns3:TrackPointExtension>
        </extensions>
      </trkpt>
      <trkpt lat="37.95423430390655994415283203125" lon="-107.1099579893052577972412109375">
        <ele>3912.800048828125</ele>
        <time>2026-01-06T18:20:13.000Z</time>
        <extensions>
          <ns3:TrackPointExtension>
            <ns3:hr>121</ns3:hr>
            <ns3:cad>0</ns3:cad>
          </ns3:TrackPointExtension>
        </extensions>
      </trkpt>
      <trkpt lat="37.95425173826515674591064453125" lon="-107.1099563129246234893798828125">
        <ele>3912.39990234375</ele>
        <time>2026-01-06T18:20:19.000Z</time>
        <extensions>
          <ns3:TrackPointExtension>
            <ns3:hr>119</ns3:hr>
            <ns3:cad>0</ns3:cad>
          </ns3:TrackPointExtension>
        </extensions>
      </trkpt>
      <trkpt lat="37.95425173826515674591064453125" lon="-107.1099563129246234893798828125">
        <ele>3912.39990234375</ele>
        <time>2026-01-06T18:20:20.000Z</time>
        <extensions>
          <ns3:TrackPointExtension>
            <ns3:hr>119</ns3:hr>
            <ns3:cad>0</ns3:cad>
          </ns3:TrackPointExtension>
        </extensions>
      </trkpt>
      <trkpt lat="37.95425173826515674591064453125" lon="-107.1099563129246234893798828125">
        <ele>3912</ele>
        <time>2026-01-06T18:20:26.000Z</time>
        <extensions>
          <ns3:TrackPointExtension>
            <ns3:hr>118</ns3:hr>
            <ns3:cad>0</ns3:cad>
          </ns3:TrackPointExtension>
        </extensions>
      </trkpt>
      <trkpt lat="37.95425173826515674591064453125" lon="-107.1099563129246234893798828125">
        <ele>3912</ele>
        <time>2026-01-06T18:20:32.000Z</time>
        <extensions>
          <ns3:TrackPointExtension>
            <ns3:hr>116</ns3:hr>
            <ns3:cad>0</ns3:cad>
          </ns3:TrackPointExtension>
        </extensions>
      </trkpt>
      <trkpt lat="37.95425173826515674591064453125" lon="-107.1099563129246234893798828125">
        <ele>3911.60009765625</ele>
        <time>2026-01-06T18:20:38.000Z</time>
        <extensions>
          <ns3:TrackPointExtension>
            <ns3:hr>116</ns3:hr>
            <ns3:cad>0</ns3:cad>
          </ns3:TrackPointExtension>
        </extensions>
      </trkpt>
      <trkpt lat="37.95425173826515674591064453125" lon="-107.1099563129246234893798828125">
        <ele>3911.39990234375</ele>
        <time>2026-01-06T18:20:39.000Z</time>
        <extensions>
          <ns3:TrackPointExtension>
            <ns3:hr>116</ns3:hr>
            <ns3:cad>0</ns3:cad>
          </ns3:TrackPointExtension>
        </extensions>
      </trkpt>
      <trkpt lat="37.95425173826515674591064453125" lon="-107.1099563129246234893798828125">
        <ele>3911.39990234375</ele>
        <time>2026-01-06T18:20:45.000Z</time>
        <extensions>
          <ns3:TrackPointExtension>
            <ns3:hr>120</ns3:hr>
            <ns3:cad>0</ns3:cad>
          </ns3:TrackPointExtension>
        </extensions>
      </trkpt>
      <trkpt lat="37.95425173826515674591064453125" lon="-107.1099563129246234893798828125">
        <ele>3911.60009765625</ele>
        <time>2026-01-06T18:20:46.000Z</time>
        <extensions>
          <ns3:TrackPointExtension>
            <ns3:hr>128</ns3:hr>
            <ns3:cad>0</ns3:cad>
          </ns3:TrackPointExtension>
        </extensions>
      </trkpt>
      <trkpt lat="37.95425173826515674591064453125" lon="-107.1099563129246234893798828125">
        <ele>3911.39990234375</ele>
        <time>2026-01-06T18:20:52.000Z</time>
        <extensions>
          <ns3:TrackPointExtension>
            <ns3:hr>129</ns3:hr>
            <ns3:cad>0</ns3:cad>
          </ns3:TrackPointExtension>
        </extensions>
      </trkpt>
      <trkpt lat="37.95425173826515674591064453125" lon="-107.1099563129246234893798828125">
        <ele>3911.39990234375</ele>
        <time>2026-01-06T18:20:54.000Z</time>
        <extensions>
          <ns3:TrackPointExtension>
            <ns3:hr>129</ns3:hr>
            <ns3:cad>0</ns3:cad>
          </ns3:TrackPointExtension>
        </extensions>
      </trkpt>
      <trkpt lat="37.954240925610065460205078125" lon="-107.10995991714298725128173828125">
        <ele>3911.800048828125</ele>
        <time>2026-01-06T18:21:00.000Z</time>
        <extensions>
          <ns3:TrackPointExtension>
            <ns3:hr>128</ns3:hr>
            <ns3:cad>0</ns3:cad>
          </ns3:TrackPointExtension>
        </extensions>
      </trkpt>
      <trkpt lat="37.954244948923587799072265625" lon="-107.10998137481510639190673828125">
        <ele>3911.800048828125</ele>
        <time>2026-01-06T18:21:02.000Z</time>
        <extensions>
          <ns3:TrackPointExtension>
            <ns3:hr>128</ns3:hr>
            <ns3:cad>0</ns3:cad>
          </ns3:TrackPointExtension>
        </extensions>
      </trkpt>
      <trkpt lat="37.95425626449286937713623046875" lon="-107.1100206859409809112548828125">
        <ele>3912.60009765625</ele>
        <time>2026-01-06T18:21:05.000Z</time>
        <extensions>
          <ns3:TrackPointExtension>
            <ns3:hr>126</ns3:hr>
            <ns3:cad>0</ns3:cad>
          </ns3:TrackPointExtension>
        </extensions>
      </trkpt>
      <trkpt lat="37.95426665805280208587646484375" lon="-107.1100568957626819610595703125">
        <ele>3913.39990234375</ele>
        <time>2026-01-06T18:21:08.000Z</time>
        <extensions>
          <ns3:TrackPointExtension>
            <ns3:hr>125</ns3:hr>
            <ns3:cad>43</ns3:cad>
          </ns3:TrackPointExtension>
        </extensions>
      </trkpt>
      <trkpt lat="37.95428526587784290313720703125" lon="-107.11011716164648532867431640625">
        <ele>3912.800048828125</ele>
        <time>2026-01-06T18:21:13.000Z</time>
        <extensions>
          <ns3:TrackPointExtension>
            <ns3:hr>124</ns3:hr>
            <ns3:cad>0</ns3:cad>
          </ns3:TrackPointExtension>
        </extensions>
      </trkpt>
      <trkpt lat="37.95430303551256656646728515625" lon="-107.1101517789065837860107421875">
        <ele>3911.60009765625</ele>
        <time>2026-01-06T18:21:16.000Z</time>
        <extensions>
          <ns3:TrackPointExtension>
            <ns3:hr>123</ns3:hr>
            <ns3:cad>45</ns3:cad>
          </ns3:TrackPointExtension>
        </extensions>
      </trkpt>
      <trkpt lat="37.9543130099773406982421875" lon="-107.11018212139606475830078125">
        <ele>3911</ele>
        <time>2026-01-06T18:21:19.000Z</time>
        <extensions>
          <ns3:TrackPointExtension>
            <ns3:hr>123</ns3:hr>
            <ns3:cad>0</ns3:cad>
          </ns3:TrackPointExtension>
        </extensions>
      </trkpt>
      <trkpt lat="37.95434318482875823974609375" lon="-107.1102412976324558258056640625">
        <ele>3912.60009765625</ele>
        <time>2026-01-06T18:21:25.000Z</time>
        <extensions>
          <ns3:TrackPointExtension>
            <ns3:hr>122</ns3:hr>
            <ns3:cad>0</ns3:cad>
          </ns3:TrackPointExtension>
        </extensions>
      </trkpt>
      <trkpt lat="37.95435081236064434051513671875" lon="-107.1102537028491497039794921875">
        <ele>3912.800048828125</ele>
        <time>2026-01-06T18:21:26.000Z</time>
        <extensions>
          <ns3:TrackPointExtension>
            <ns3:hr>121</ns3:hr>
            <ns3:cad>0</ns3:cad>
          </ns3:TrackPointExtension>
        </extensions>
      </trkpt>
      <trkpt lat="37.95437411405146121978759765625" lon="-107.1103013120591640472412109375">
        <ele>3913</ele>
        <time>2026-01-06T18:21:31.000Z</time>
        <extensions>
          <ns3:TrackPointExtension>
            <ns3:hr>121</ns3:hr>
            <ns3:cad>43</ns3:cad>
          </ns3:TrackPointExtension>
        </extensions>
      </trkpt>
      <trkpt lat="37.95439951121807098388671875" lon="-107.110348753631114959716796875">
        <ele>3912.800048828125</ele>
        <time>2026-01-06T18:21:36.000Z</time>
        <extensions>
          <ns3:TrackPointExtension>
            <ns3:hr>119</ns3:hr>
            <ns3:cad>40</ns3:cad>
          </ns3:TrackPointExtension>
        </extensions>
      </trkpt>
      <trkpt lat="37.95441635884344577789306640625" lon="-107.1103780902922153472900390625">
        <ele>3913</ele>
        <time>2026-01-06T18:21:40.000Z</time>
        <extensions>
          <ns3:TrackPointExtension>
            <ns3:hr>116</ns3:hr>
            <ns3:cad>42</ns3:cad>
          </ns3:TrackPointExtension>
        </extensions>
      </trkpt>
      <trkpt lat="37.95442809350788593292236328125" lon="-107.11040046997368335723876953125">
        <ele>3913.199951171875</ele>
        <time>2026-01-06T18:21:42.000Z</time>
        <extensions>
          <ns3:TrackPointExtension>
            <ns3:hr>115</ns3:hr>
            <ns3:cad>43</ns3:cad>
          </ns3:TrackPointExtension>
        </extensions>
      </trkpt>
      <trkpt lat="37.954447455704212188720703125" lon="-107.11042779497802257537841796875">
        <ele>3913.800048828125</ele>
        <time>2026-01-06T18:21:45.000Z</time>
        <extensions>
          <ns3:TrackPointExtension>
            <ns3:hr>118</ns3:hr>
            <ns3:cad>0</ns3:cad>
          </ns3:TrackPointExtension>
        </extensions>
      </trkpt>
      <trkpt lat="37.954461537301540374755859375" lon="-107.11044841445982456207275390625">
        <ele>3914</ele>
        <time>2026-01-06T18:21:48.000Z</time>
        <extensions>
          <ns3:TrackPointExtension>
            <ns3:hr>121</ns3:hr>
            <ns3:cad>40</ns3:cad>
          </ns3:TrackPointExtension>
        </extensions>
      </trkpt>
      <trkpt lat="37.9544650577008724212646484375" lon="-107.11045411415398120880126953125">
        <ele>3914</ele>
        <time>2026-01-06T18:21:49.000Z</time>
        <extensions>
          <ns3:TrackPointExtension>
            <ns3:hr>121</ns3:hr>
            <ns3:cad>40</ns3:cad>
          </ns3:TrackPointExtension>
        </extensions>
      </trkpt>
      <trkpt lat="37.95449280180037021636962890625" lon="-107.11050407029688358306884765625">
        <ele>3914.39990234375</ele>
        <time>2026-01-06T18:21:55.000Z</time>
        <extensions>
          <ns3:TrackPointExtension>
            <ns3:hr>122</ns3:hr>
            <ns3:cad>0</ns3:cad>
          </ns3:TrackPointExtension>
        </extensions>
      </trkpt>
      <trkpt lat="37.95450654812157154083251953125" lon="-107.11053977720439434051513671875">
        <ele>3914.800048828125</ele>
        <time>2026-01-06T18:21:59.000Z</time>
        <extensions>
          <ns3:TrackPointExtension>
            <ns3:hr>123</ns3:hr>
            <ns3:cad>0</ns3:cad>
          </ns3:TrackPointExtension>
        </extensions>
      </trkpt>
      <trkpt lat="37.954515516757965087890625" lon="-107.110561989247798919677734375">
        <ele>3915</ele>
        <time>2026-01-06T18:22:01.000Z</time>
        <extensions>
          <ns3:TrackPointExtension>
            <ns3:hr>122</ns3:hr>
            <ns3:cad>0</ns3:cad>
          </ns3:TrackPointExtension>
        </extensions>
      </trkpt>
      <trkpt lat="37.9545451886951923370361328125" lon="-107.11061571724712848663330078125">
        <ele>3915.800048828125</ele>
        <time>2026-01-06T18:22:07.000Z</time>
        <extensions>
          <ns3:TrackPointExtension>
            <ns3:hr>120</ns3:hr>
            <ns3:cad>0</ns3:cad>
          </ns3:TrackPointExtension>
        </extensions>
      </trkpt>
      <trkpt lat="37.95454879291355609893798828125" lon="-107.110625021159648895263671875">
        <ele>3915.800048828125</ele>
        <time>2026-01-06T18:22:08.000Z</time>
        <extensions>
          <ns3:TrackPointExtension>
            <ns3:hr>119</ns3:hr>
            <ns3:cad>0</ns3:cad>
          </ns3:TrackPointExtension>
        </extensions>
      </trkpt>
      <trkpt lat="37.95456983149051666259765625" lon="-107.11066550575196743011474609375">
        <ele>3915.800048828125</ele>
        <time>2026-01-06T18:22:13.000Z</time>
        <extensions>
          <ns3:TrackPointExtension>
            <ns3:hr>119</ns3:hr>
            <ns3:cad>0</ns3:cad>
          </ns3:TrackPointExtension>
        </extensions>
      </trkpt>
      <trkpt lat="37.954595647752285003662109375" lon="-107.1107093431055545806884765625">
        <ele>3916.60009765625</ele>
        <time>2026-01-06T18:22:18.000Z</time>
        <extensions>
          <ns3:TrackPointExtension>
            <ns3:hr>115</ns3:hr>
            <ns3:cad>0</ns3:cad>
          </ns3:TrackPointExtension>
        </extensions>
      </trkpt>
      <trkpt lat="37.95459933578968048095703125" lon="-107.11071412079036235809326171875">
        <ele>3916.60009765625</ele>
        <time>2026-01-06T18:22:19.000Z</time>
        <extensions>
          <ns3:TrackPointExtension>
            <ns3:hr>115</ns3:hr>
            <ns3:cad>0</ns3:cad>
          </ns3:TrackPointExtension>
        </extensions>
      </trkpt>
      <trkpt lat="37.95461618341505527496337890625" lon="-107.110742367804050445556640625">
        <ele>3917</ele>
        <time>2026-01-06T18:22:23.000Z</time>
        <extensions>
          <ns3:TrackPointExtension>
            <ns3:hr>114</ns3:hr>
            <ns3:cad>0</ns3:cad>
          </ns3:TrackPointExtension>
        </extensions>
      </trkpt>
      <trkpt lat="37.9546316899359226226806640625" lon="-107.11076357401907444000244140625">
        <ele>3917.199951171875</ele>
        <time>2026-01-06T18:22:26.000Z</time>
        <extensions>
          <ns3:TrackPointExtension>
            <ns3:hr>113</ns3:hr>
            <ns3:cad>0</ns3:cad>
          </ns3:TrackPointExtension>
        </extensions>
      </trkpt>
      <trkpt lat="37.9546531476080417633056640625" lon="-107.11080883629620075225830078125">
        <ele>3917.39990234375</ele>
        <time>2026-01-06T18:22:31.000Z</time>
        <extensions>
          <ns3:TrackPointExtension>
            <ns3:hr>115</ns3:hr>
            <ns3:cad>0</ns3:cad>
          </ns3:TrackPointExtension>
        </extensions>
      </trkpt>
      <trkpt lat="37.95467116869986057281494140625" lon="-107.1108414418995380401611328125">
        <ele>3917.800048828125</ele>
        <time>2026-01-06T18:22:36.000Z</time>
        <extensions>
          <ns3:TrackPointExtension>
            <ns3:hr>118</ns3:hr>
            <ns3:cad>75</ns3:cad>
          </ns3:TrackPointExtension>
        </extensions>
      </trkpt>
      <trkpt lat="37.95468122698366641998291015625" lon="-107.1108578704297542572021484375">
        <ele>3918</ele>
        <time>2026-01-06T18:22:38.000Z</time>
        <extensions>
          <ns3:TrackPointExtension>
            <ns3:hr>118</ns3:hr>
            <ns3:cad>72</ns3:cad>
          </ns3:TrackPointExtension>
        </extensions>
      </trkpt>
      <trkpt lat="37.95470989309251308441162109375" lon="-107.11090723983943462371826171875">
        <ele>3918.39990234375</ele>
        <time>2026-01-06T18:22:44.000Z</time>
        <extensions>
          <ns3:TrackPointExtension>
            <ns3:hr>119</ns3:hr>
            <ns3:cad>75</ns3:cad>
          </ns3:TrackPointExtension>
        </extensions>
      </trkpt>
      <trkpt lat="37.95471207238733768463134765625" lon="-107.1109158731997013092041015625">
        <ele>3918.39990234375</ele>
        <time>2026-01-06T18:22:45.000Z</time>
        <extensions>
          <ns3:TrackPointExtension>
            <ns3:hr>119</ns3:hr>
            <ns3:cad>75</ns3:cad>
          </ns3:TrackPointExtension>
        </extensions>
      </trkpt>
      <trkpt lat="37.95472665689885616302490234375" lon="-107.11095853708684444427490234375">
        <ele>3918.800048828125</ele>
        <time>2026-01-06T18:22:51.000Z</time>
        <extensions>
          <ns3:TrackPointExtension>
            <ns3:hr>118</ns3:hr>
            <ns3:cad>68</ns3:cad>
          </ns3:TrackPointExtension>
        </extensions>
      </trkpt>
      <trkpt lat="37.95473654754459857940673828125" lon="-107.11097245104610919952392578125">
        <ele>3919.199951171875</ele>
        <time>2026-01-06T18:22:53.000Z</time>
        <extensions>
          <ns3:TrackPointExtension>
            <ns3:hr>119</ns3:hr>
            <ns3:cad>0</ns3:cad>
          </ns3:TrackPointExtension>
        </extensions>
      </trkpt>
      <trkpt lat="37.95474459417164325714111328125" lon="-107.11099374108016490936279296875">
        <ele>3919.39990234375</ele>
        <time>2026-01-06T18:22:57.000Z</time>
        <extensions>
          <ns3:TrackPointExtension>
            <ns3:hr>119</ns3:hr>
            <ns3:cad>0</ns3:cad>
          </ns3:TrackPointExtension>
        </extensions>
      </trkpt>
      <trkpt lat="37.954767979681491851806640625" lon="-107.111020646989345550537109375">
        <ele>3920</ele>
        <time>2026-01-06T18:23:03.000Z</time>
        <extensions>
          <ns3:TrackPointExtension>
            <ns3:hr>118</ns3:hr>
            <ns3:cad>0</ns3:cad>
          </ns3:TrackPointExtension>
        </extensions>
      </trkpt>
      <trkpt lat="37.9547664709389209747314453125" lon="-107.1110228262841701507568359375">
        <ele>3920</ele>
        <time>2026-01-06T18:23:04.000Z</time>
        <extensions>
          <ns3:TrackPointExtension>
            <ns3:hr>118</ns3:hr>
            <ns3:cad>0</ns3:cad>
          </ns3:TrackPointExtension>
        </extensions>
      </trkpt>
      <trkpt lat="37.95477108098566532135009765625" lon="-107.1110330522060394287109375">
        <ele>3920.199951171875</ele>
        <time>2026-01-06T18:23:06.000Z</time>
        <extensions>
          <ns3:TrackPointExtension>
            <ns3:hr>118</ns3:hr>
            <ns3:cad>0</ns3:cad>
          </ns3:TrackPointExtension>
        </extensions>
      </trkpt>
      <trkpt lat="37.95479404740035533905029296875" lon="-107.1110637299716472625732421875">
        <ele>3920.60009765625</ele>
        <time>2026-01-06T18:23:11.000Z</time>
        <extensions>
          <ns3:TrackPointExtension>
            <ns3:hr>117</ns3:hr>
            <ns3:cad>62</ns3:cad>
          </ns3:TrackPointExtension>
        </extensions>
      </trkpt>
      <trkpt lat="37.9548083804547786712646484375" lon="-107.11108895950019359588623046875">
        <ele>3921.199951171875</ele>
        <time>2026-01-06T18:23:17.000Z</time>
        <extensions>
          <ns3:TrackPointExtension>
            <ns3:hr>115</ns3:hr>
            <ns3:cad>0</ns3:cad>
          </ns3:TrackPointExtension>
        </extensions>
      </trkpt>
      <trkpt lat="37.954811565577983856201171875" lon="-107.11109315045177936553955078125">
        <ele>3921.39990234375</ele>
        <time>2026-01-06T18:23:18.000Z</time>
        <extensions>
          <ns3:TrackPointExtension>
            <ns3:hr>115</ns3:hr>
            <ns3:cad>0</ns3:cad>
          </ns3:TrackPointExtension>
        </extensions>
      </trkpt>
      <trkpt lat="37.9548333585262298583984375" lon="-107.11112667806446552276611328125">
        <ele>3921.800048828125</ele>
        <time>2026-01-06T18:23:23.000Z</time>
        <extensions>
          <ns3:TrackPointExtension>
            <ns3:hr>115</ns3:hr>
            <ns3:cad>0</ns3:cad>
          </ns3:TrackPointExtension>
        </extensions>
      </trkpt>
      <trkpt lat="37.95484383590519428253173828125" lon="-107.11115366779267787933349609375">
        <ele>3922.39990234375</ele>
        <time>2026-01-06T18:23:29.000Z</time>
        <extensions>
          <ns3:TrackPointExtension>
            <ns3:hr>116</ns3:hr>
            <ns3:cad>0</ns3:cad>
          </ns3:TrackPointExtension>
        </extensions>
      </trkpt>
      <trkpt lat="37.95486294664442539215087890625" lon="-107.11118602193892002105712890625">
        <ele>3923</ele>
        <time>2026-01-06T18:23:35.000Z</time>
        <extensions>
          <ns3:TrackPointExtension>
            <ns3:hr>117</ns3:hr>
            <ns3:cad>0</ns3:cad>
          </ns3:TrackPointExtension>
        </extensions>
      </trkpt>
      <trkpt lat="37.95487384311854839324951171875" lon="-107.11120613850653171539306640625">
        <ele>3923.199951171875</ele>
        <time>2026-01-06T18:23:41.000Z</time>
        <extensions>
          <ns3:TrackPointExtension>
            <ns3:hr>118</ns3:hr>
            <ns3:cad>0</ns3:cad>
          </ns3:TrackPointExtension>
        </extensions>
      </trkpt>
      <trkpt lat="37.95487619005143642425537109375" lon="-107.11121200583875179290771484375">
        <ele>3923.39990234375</ele>
        <time>2026-01-06T18:23:42.000Z</time>
        <extensions>
          <ns3:TrackPointExtension>
            <ns3:hr>119</ns3:hr>
            <ns3:cad>0</ns3:cad>
          </ns3:TrackPointExtension>
        </extensions>
      </trkpt>
      <trkpt lat="37.95487803407013416290283203125" lon="-107.1112156100571155548095703125">
        <ele>3923.39990234375</ele>
        <time>2026-01-06T18:23:43.000Z</time>
        <extensions>
          <ns3:TrackPointExtension>
            <ns3:hr>119</ns3:hr>
            <ns3:cad>0</ns3:cad>
          </ns3:TrackPointExtension>
        </extensions>
      </trkpt>
      <trkpt lat="37.9548767767846584320068359375" lon="-107.1112206391990184783935546875">
        <ele>3923.60009765625</ele>
        <time>2026-01-06T18:23:49.000Z</time>
        <extensions>
          <ns3:TrackPointExtension>
            <ns3:hr>119</ns3:hr>
            <ns3:cad>0</ns3:cad>
          </ns3:TrackPointExtension>
        </extensions>
      </trkpt>
      <trkpt lat="37.9548908583819866180419921875" lon="-107.1112545020878314971923828125">
        <ele>3924</ele>
        <time>2026-01-06T18:23:55.000Z</time>
        <extensions>
          <ns3:TrackPointExtension>
            <ns3:hr>119</ns3:hr>
            <ns3:cad>0</ns3:cad>
          </ns3:TrackPointExtension>
        </extensions>
      </trkpt>
      <trkpt lat="37.9548908583819866180419921875" lon="-107.11125676520168781280517578125">
        <ele>3924.199951171875</ele>
        <time>2026-01-06T18:23:56.000Z</time>
        <extensions>
          <ns3:TrackPointExtension>
            <ns3:hr>119</ns3:hr>
            <ns3:cad>0</ns3:cad>
          </ns3:TrackPointExtension>
        </extensions>
      </trkpt>
      <trkpt lat="37.95490644872188568115234375" lon="-107.11127889342606067657470703125">
        <ele>3924.60009765625</ele>
        <time>2026-01-06T18:23:59.000Z</time>
        <extensions>
          <ns3:TrackPointExtension>
            <ns3:hr>117</ns3:hr>
            <ns3:cad>0</ns3:cad>
          </ns3:TrackPointExtension>
        </extensions>
      </trkpt>
      <trkpt lat="37.95491558499634265899658203125" lon="-107.11129381321370601654052734375">
        <ele>3924.800048828125</ele>
        <time>2026-01-06T18:24:03.000Z</time>
        <extensions>
          <ns3:TrackPointExtension>
            <ns3:hr>116</ns3:hr>
            <ns3:cad>0</ns3:cad>
          </ns3:TrackPointExtension>
        </extensions>
      </trkpt>
      <trkpt lat="37.9549341090023517608642578125" lon="-107.11132130585610866546630859375">
        <ele>3925</ele>
        <time>2026-01-06T18:24:09.000Z</time>
        <extensions>
          <ns3:TrackPointExtension>
            <ns3:hr>114</ns3:hr>
            <ns3:cad>0</ns3:cad>
          </ns3:TrackPointExtension>
        </extensions>
      </trkpt>
      <trkpt lat="37.95493754558265209197998046875" lon="-107.111327089369297027587890625">
        <ele>3925</ele>
        <time>2026-01-06T18:24:10.000Z</time>
        <extensions>
          <ns3:TrackPointExtension>
            <ns3:hr>115</ns3:hr>
            <ns3:cad>0</ns3:cad>
          </ns3:TrackPointExtension>
        </extensions>
      </trkpt>
      <trkpt lat="37.95495900325477123260498046875" lon="-107.1113564260303974151611328125">
        <ele>3925.199951171875</ele>
        <time>2026-01-06T18:24:16.000Z</time>
        <extensions>
          <ns3:TrackPointExtension>
            <ns3:hr>117</ns3:hr>
            <ns3:cad>0</ns3:cad>
          </ns3:TrackPointExtension>
        </extensions>
      </trkpt>
      <trkpt lat="37.9549646191298961639404296875" lon="-107.11136472411453723907470703125">
        <ele>3925.39990234375</ele>
        <time>2026-01-06T18:24:17.000Z</time>
        <extensions>
          <ns3:TrackPointExtension>
            <ns3:hr>118</ns3:hr>
            <ns3:cad>0</ns3:cad>
          </ns3:TrackPointExtension>
        </extensions>
      </trkpt>
      <trkpt lat="37.9549701511859893798828125" lon="-107.11137243546545505523681640625">
        <ele>3925.60009765625</ele>
        <time>2026-01-06T18:24:19.000Z</time>
        <extensions>
          <ns3:TrackPointExtension>
            <ns3:hr>118</ns3:hr>
            <ns3:cad>0</ns3:cad>
          </ns3:TrackPointExtension>
        </extensions>
      </trkpt>
      <trkpt lat="37.95496654696762561798095703125" lon="-107.1113815717399120330810546875">
        <ele>3925.60009765625</ele>
        <time>2026-01-06T18:24:24.000Z</time>
        <extensions>
          <ns3:TrackPointExtension>
            <ns3:hr>119</ns3:hr>
            <ns3:cad>0</ns3:cad>
          </ns3:TrackPointExtension>
        </extensions>
      </trkpt>
      <trkpt lat="37.95498481951653957366943359375" lon="-107.11141836829483509063720703125">
        <ele>3926.199951171875</ele>
        <time>2026-01-06T18:24:30.000Z</time>
        <extensions>
          <ns3:TrackPointExtension>
            <ns3:hr>121</ns3:hr>
            <ns3:cad>0</ns3:cad>
          </ns3:TrackPointExtension>
        </extensions>
      </trkpt>
      <trkpt lat="37.9549971409142017364501953125" lon="-107.11144150234758853912353515625">
        <ele>3926.60009765625</ele>
        <time>2026-01-06T18:24:36.000Z</time>
        <extensions>
          <ns3:TrackPointExtension>
            <ns3:hr>120</ns3:hr>
            <ns3:cad>0</ns3:cad>
          </ns3:TrackPointExtension>
        </extensions>
      </trkpt>
      <trkpt lat="37.95500024221837520599365234375" lon="-107.11144602857530117034912109375">
        <ele>3926.800048828125</ele>
        <time>2026-01-06T18:24:37.000Z</time>
        <extensions>
          <ns3:TrackPointExtension>
            <ns3:hr>121</ns3:hr>
            <ns3:cad>0</ns3:cad>
          </ns3:TrackPointExtension>
        </extensions>
      </trkpt>
      <trkpt lat="37.95501247979700565338134765625" lon="-107.11146865971386432647705078125">
        <ele>3927.39990234375</ele>
        <time>2026-01-06T18:24:43.000Z</time>
        <extensions>
          <ns3:TrackPointExtension>
            <ns3:hr>123</ns3:hr>
            <ns3:cad>0</ns3:cad>
          </ns3:TrackPointExtension>
        </extensions>
      </trkpt>
      <trkpt lat="37.95502354390919208526611328125" lon="-107.111491374671459197998046875">
        <ele>3927.800048828125</ele>
        <time>2026-01-06T18:24:47.000Z</time>
        <extensions>
          <ns3:TrackPointExtension>
            <ns3:hr>126</ns3:hr>
            <ns3:cad>57</ns3:cad>
          </ns3:TrackPointExtension>
        </extensions>
      </trkpt>
      <trkpt lat="37.95503226108849048614501953125" lon="-107.11150369606912136077880859375">
        <ele>3928.199951171875</ele>
        <time>2026-01-06T18:24:49.000Z</time>
        <extensions>
          <ns3:TrackPointExtension>
            <ns3:hr>126</ns3:hr>
            <ns3:cad>57</ns3:cad>
          </ns3:TrackPointExtension>
        </extensions>
      </trkpt>
      <trkpt lat="37.95504751615226268768310546875" lon="-107.1115230582654476165771484375">
        <ele>3928.60009765625</ele>
        <time>2026-01-06T18:24:55.000Z</time>
        <extensions>
          <ns3:TrackPointExtension>
            <ns3:hr>129</ns3:hr>
            <ns3:cad>0</ns3:cad>
          </ns3:TrackPointExtension>
        </extensions>
      </trkpt>
      <trkpt lat="37.955048941075801849365234375" lon="-107.11152884177863597869873046875">
        <ele>3928.60009765625</ele>
        <time>2026-01-06T18:24:56.000Z</time>
        <extensions>
          <ns3:TrackPointExtension>
            <ns3:hr>129</ns3:hr>
            <ns3:cad>0</ns3:cad>
          </ns3:TrackPointExtension>
        </extensions>
      </trkpt>
      <trkpt lat="37.95505841262638568878173828125" lon="-107.11154577322304248809814453125">
        <ele>3929</ele>
        <time>2026-01-06T18:24:59.000Z</time>
        <extensions>
          <ns3:TrackPointExtension>
            <ns3:hr>130</ns3:hr>
            <ns3:cad>0</ns3:cad>
          </ns3:TrackPointExtension>
        </extensions>
      </trkpt>
      <trkpt lat="37.95506662689149379730224609375" lon="-107.1115666441619396209716796875">
        <ele>3929.199951171875</ele>
        <time>2026-01-06T18:25:04.000Z</time>
        <extensions>
          <ns3:TrackPointExtension>
            <ns3:hr>130</ns3:hr>
            <ns3:cad>0</ns3:cad>
          </ns3:TrackPointExtension>
        </extensions>
      </trkpt>
      <trkpt lat="37.95507165603339672088623046875" lon="-107.1115694940090179443359375">
        <ele>3929.199951171875</ele>
        <time>2026-01-06T18:25:07.000Z</time>
        <extensions>
          <ns3:TrackPointExtension>
            <ns3:hr>133</ns3:hr>
            <ns3:cad>0</ns3:cad>
          </ns3:TrackPointExtension>
        </extensions>
      </trkpt>
      <trkpt lat="37.95507886447012424468994140625" lon="-107.11157795973122119903564453125">
        <ele>3929.39990234375</ele>
        <time>2026-01-06T18:25:08.000Z</time>
        <extensions>
          <ns3:TrackPointExtension>
            <ns3:hr>137</ns3:hr>
            <ns3:cad>0</ns3:cad>
          </ns3:TrackPointExtension>
        </extensions>
      </trkpt>
      <trkpt lat="37.95508121140301227569580078125" lon="-107.11158466525375843048095703125">
        <ele>3929.800048828125</ele>
        <time>2026-01-06T18:25:10.000Z</time>
        <extensions>
          <ns3:TrackPointExtension>
            <ns3:hr>138</ns3:hr>
            <ns3:cad>0</ns3:cad>
          </ns3:TrackPointExtension>
        </extensions>
      </trkpt>
      <trkpt lat="37.95508657582104206085205078125" lon="-107.11159539408981800079345703125">
        <ele>3930</ele>
        <time>2026-01-06T18:25:11.000Z</time>
        <extensions>
          <ns3:TrackPointExtension>
            <ns3:hr>138</ns3:hr>
            <ns3:cad>0</ns3:cad>
          </ns3:TrackPointExtension>
        </extensions>
      </trkpt>
      <trkpt lat="37.9551034234464168548583984375" lon="-107.11161442101001739501953125">
        <ele>3930.39990234375</ele>
        <time>2026-01-06T18:25:15.000Z</time>
        <extensions>
          <ns3:TrackPointExtension>
            <ns3:hr>137</ns3:hr>
            <ns3:cad>0</ns3:cad>
          </ns3:TrackPointExtension>
        </extensions>
      </trkpt>
      <trkpt lat="37.955121360719203948974609375" lon="-107.1116373874247074127197265625">
        <ele>3930.39990234375</ele>
        <time>2026-01-06T18:25:20.000Z</time>
        <extensions>
          <ns3:TrackPointExtension>
            <ns3:hr>137</ns3:hr>
            <ns3:cad>0</ns3:cad>
          </ns3:TrackPointExtension>
        </extensions>
      </trkpt>
      <trkpt lat="37.955135442316532135009765625" lon="-107.1116601862013339996337890625">
        <ele>3931.199951171875</ele>
        <time>2026-01-06T18:25:24.000Z</time>
        <extensions>
          <ns3:TrackPointExtension>
            <ns3:hr>134</ns3:hr>
            <ns3:cad>0</ns3:cad>
          </ns3:TrackPointExtension>
        </extensions>
      </trkpt>
      <trkpt lat="37.9551356099545955657958984375" lon="-107.11166563443839550018310546875">
        <ele>3931.60009765625</ele>
        <time>2026-01-06T18:25:27.000Z</time>
        <extensions>
          <ns3:TrackPointExtension>
            <ns3:hr>132</ns3:hr>
            <ns3:cad>0</ns3:cad>
          </ns3:TrackPointExtension>
        </extensions>
      </trkpt>
      <trkpt lat="37.95515052974224090576171875" lon="-107.1116955578327178955078125">
        <ele>3932</ele>
        <time>2026-01-06T18:25:33.000Z</time>
        <extensions>
          <ns3:TrackPointExtension>
            <ns3:hr>130</ns3:hr>
            <ns3:cad>0</ns3:cad>
          </ns3:TrackPointExtension>
        </extensions>
      </trkpt>
      <trkpt lat="37.95514826662838459014892578125" lon="-107.11169899441301822662353515625">
        <ele>3932.199951171875</ele>
        <time>2026-01-06T18:25:34.000Z</time>
        <extensions>
          <ns3:TrackPointExtension>
            <ns3:hr>131</ns3:hr>
            <ns3:cad>0</ns3:cad>
          </ns3:TrackPointExtension>
        </extensions>
      </trkpt>
      <trkpt lat="37.9551496915519237518310546875" lon="-107.1116982400417327880859375">
        <ele>3932.39990234375</ele>
        <time>2026-01-06T18:25:35.000Z</time>
        <extensions>
          <ns3:TrackPointExtension>
            <ns3:hr>131</ns3:hr>
            <ns3:cad>0</ns3:cad>
          </ns3:TrackPointExtension>
        </extensions>
      </trkpt>
      <trkpt lat="37.95516125857830047607421875" lon="-107.1117121540009975433349609375">
        <ele>3933</ele>
        <time>2026-01-06T18:25:39.000Z</time>
        <extensions>
          <ns3:TrackPointExtension>
            <ns3:hr>132</ns3:hr>
            <ns3:cad>0</ns3:cad>
          </ns3:TrackPointExtension>
        </extensions>
      </trkpt>
      <trkpt lat="37.95517458580434322357177734375" lon="-107.11173403076827526092529296875">
        <ele>3933.39990234375</ele>
        <time>2026-01-06T18:25:44.000Z</time>
        <extensions>
          <ns3:TrackPointExtension>
            <ns3:hr>131</ns3:hr>
            <ns3:cad>0</ns3:cad>
          </ns3:TrackPointExtension>
        </extensions>
      </trkpt>
      <trkpt lat="37.95518003404140472412109375" lon="-107.111746855080127716064453125">
        <ele>3933.39990234375</ele>
        <time>2026-01-06T18:25:46.000Z</time>
        <extensions>
          <ns3:TrackPointExtension>
            <ns3:hr>130</ns3:hr>
            <ns3:cad>0</ns3:cad>
          </ns3:TrackPointExtension>
        </extensions>
      </trkpt>
      <trkpt lat="37.95520811341702938079833984375" lon="-107.11177594028413295745849609375">
        <ele>3934</ele>
        <time>2026-01-06T18:25:52.000Z</time>
        <extensions>
          <ns3:TrackPointExtension>
            <ns3:hr>129</ns3:hr>
            <ns3:cad>0</ns3:cad>
          </ns3:TrackPointExtension>
        </extensions>
      </trkpt>
      <trkpt lat="37.9552154056727886199951171875" lon="-107.1117825619876384735107421875">
        <ele>3934.199951171875</ele>
        <time>2026-01-06T18:25:53.000Z</time>
        <extensions>
          <ns3:TrackPointExtension>
            <ns3:hr>129</ns3:hr>
            <ns3:cad>0</ns3:cad>
          </ns3:TrackPointExtension>
        </extensions>
      </trkpt>
      <trkpt lat="37.95521599240601062774658203125" lon="-107.11178935132920742034912109375">
        <ele>3934.60009765625</ele>
        <time>2026-01-06T18:25:54.000Z</time>
        <extensions>
          <ns3:TrackPointExtension>
            <ns3:hr>128</ns3:hr>
            <ns3:cad>0</ns3:cad>
          </ns3:TrackPointExtension>
        </extensions>
      </trkpt>
      <trkpt lat="37.95522839762270450592041015625" lon="-107.11179974488914012908935546875">
        <ele>3935.199951171875</ele>
        <time>2026-01-06T18:25:57.000Z</time>
        <extensions>
          <ns3:TrackPointExtension>
            <ns3:hr>125</ns3:hr>
            <ns3:cad>45</ns3:cad>
          </ns3:TrackPointExtension>
        </extensions>
      </trkpt>
      <trkpt lat="37.955228649079799652099609375" lon="-107.11180125363171100616455078125">
        <ele>3935.39990234375</ele>
        <time>2026-01-06T18:25:58.000Z</time>
        <extensions>
          <ns3:TrackPointExtension>
            <ns3:hr>124</ns3:hr>
            <ns3:cad>0</ns3:cad>
          </ns3:TrackPointExtension>
        </extensions>
      </trkpt>
      <trkpt lat="37.955227307975292205810546875" lon="-107.11179907433688640594482421875">
        <ele>3935.60009765625</ele>
        <time>2026-01-06T18:26:01.000Z</time>
        <extensions>
          <ns3:TrackPointExtension>
            <ns3:hr>123</ns3:hr>
            <ns3:cad>0</ns3:cad>
          </ns3:TrackPointExtension>
        </extensions>
      </trkpt>
      <trkpt lat="37.9552264697849750518798828125" lon="-107.1118003316223621368408203125">
        <ele>3935.800048828125</ele>
        <time>2026-01-06T18:26:04.000Z</time>
        <extensions>
          <ns3:TrackPointExtension>
            <ns3:hr>124</ns3:hr>
            <ns3:cad>0</ns3:cad>
          </ns3:TrackPointExtension>
        </extensions>
      </trkpt>
      <trkpt lat="37.9552402161061763763427734375" lon="-107.1118269860744476318359375">
        <ele>3936.60009765625</ele>
        <time>2026-01-06T18:26:10.000Z</time>
        <extensions>
          <ns3:TrackPointExtension>
            <ns3:hr>127</ns3:hr>
            <ns3:cad>0</ns3:cad>
          </ns3:TrackPointExtension>
        </extensions>
      </trkpt>
      <trkpt lat="37.95525111258029937744140625" lon="-107.11184467189013957977294921875">
        <ele>3937.39990234375</ele>
        <time>2026-01-06T18:26:16.000Z</time>
        <extensions>
          <ns3:TrackPointExtension>
            <ns3:hr>127</ns3:hr>
            <ns3:cad>0</ns3:cad>
          </ns3:TrackPointExtension>
        </extensions>
      </trkpt>
      <trkpt lat="37.95526041649281978607177734375" lon="-107.11185657419264316558837890625">
        <ele>3937.39990234375</ele>
        <time>2026-01-06T18:26:19.000Z</time>
        <extensions>
          <ns3:TrackPointExtension>
            <ns3:hr>124</ns3:hr>
            <ns3:cad>0</ns3:cad>
          </ns3:TrackPointExtension>
        </extensions>
      </trkpt>
      <trkpt lat="37.9552593268454074859619140625" lon="-107.1118596754968166351318359375">
        <ele>3937.60009765625</ele>
        <time>2026-01-06T18:26:21.000Z</time>
        <extensions>
          <ns3:TrackPointExtension>
            <ns3:hr>122</ns3:hr>
            <ns3:cad>0</ns3:cad>
          </ns3:TrackPointExtension>
        </extensions>
      </trkpt>
      <trkpt lat="37.9552586562931537628173828125" lon="-107.11186327971518039703369140625">
        <ele>3937.800048828125</ele>
        <time>2026-01-06T18:26:22.000Z</time>
        <extensions>
          <ns3:TrackPointExtension>
            <ns3:hr>122</ns3:hr>
            <ns3:cad>0</ns3:cad>
          </ns3:TrackPointExtension>
        </extensions>
      </trkpt>
      <trkpt lat="37.955276258289813995361328125" lon="-107.11187819950282573699951171875">
        <ele>3938.60009765625</ele>
        <time>2026-01-06T18:26:28.000Z</time>
        <extensions>
          <ns3:TrackPointExtension>
            <ns3:hr>121</ns3:hr>
            <ns3:cad>0</ns3:cad>
          </ns3:TrackPointExtension>
        </extensions>
      </trkpt>
      <trkpt lat="37.95528053306043148040771484375" lon="-107.11188239045441150665283203125">
        <ele>3938.60009765625</ele>
        <time>2026-01-06T18:26:29.000Z</time>
        <extensions>
          <ns3:TrackPointExtension>
            <ns3:hr>122</ns3:hr>
            <ns3:cad>0</ns3:cad>
          </ns3:TrackPointExtension>
        </extensions>
      </trkpt>
      <trkpt lat="37.9552874900400638580322265625" lon="-107.1118962205946445465087890625">
        <ele>3939.199951171875</ele>
        <time>2026-01-06T18:26:34.000Z</time>
        <extensions>
          <ns3:TrackPointExtension>
            <ns3:hr>123</ns3:hr>
            <ns3:cad>0</ns3:cad>
          </ns3:TrackPointExtension>
        </extensions>
      </trkpt>
      <trkpt lat="37.95531054027378559112548828125" lon="-107.1119247190654277801513671875">
        <ele>3939.60009765625</ele>
        <time>2026-01-06T18:26:40.000Z</time>
        <extensions>
          <ns3:TrackPointExtension>
            <ns3:hr>123</ns3:hr>
            <ns3:cad>0</ns3:cad>
          </ns3:TrackPointExtension>
        </extensions>
      </trkpt>
      <trkpt lat="37.9553134739398956298828125" lon="-107.1119334362447261810302734375">
        <ele>3939.60009765625</ele>
        <time>2026-01-06T18:26:42.000Z</time>
        <extensions>
          <ns3:TrackPointExtension>
            <ns3:hr>123</ns3:hr>
            <ns3:cad>0</ns3:cad>
          </ns3:TrackPointExtension>
        </extensions>
      </trkpt>
      <trkpt lat="37.9553133063018321990966796875" lon="-107.11193335242569446563720703125">
        <ele>3939.60009765625</ele>
        <time>2026-01-06T18:26:43.000Z</time>
        <extensions>
          <ns3:TrackPointExtension>
            <ns3:hr>123</ns3:hr>
            <ns3:cad>0</ns3:cad>
          </ns3:TrackPointExtension>
        </extensions>
      </trkpt>
      <trkpt lat="37.95531791634857654571533203125" lon="-107.11194290779531002044677734375">
        <ele>3940</ele>
        <time>2026-01-06T18:26:48.000Z</time>
        <extensions>
          <ns3:TrackPointExtension>
            <ns3:hr>121</ns3:hr>
            <ns3:cad>0</ns3:cad>
          </ns3:TrackPointExtension>
        </extensions>
      </trkpt>
      <trkpt lat="37.95532487332820892333984375" lon="-107.111952044069766998291015625">
        <ele>3940.39990234375</ele>
        <time>2026-01-06T18:26:50.000Z</time>
        <extensions>
          <ns3:TrackPointExtension>
            <ns3:hr>124</ns3:hr>
            <ns3:cad>0</ns3:cad>
          </ns3:TrackPointExtension>
        </extensions>
      </trkpt>
      <trkpt lat="37.95533250086009502410888671875" lon="-107.11196235381066799163818359375">
        <ele>3940.60009765625</ele>
        <time>2026-01-06T18:26:52.000Z</time>
        <extensions>
          <ns3:TrackPointExtension>
            <ns3:hr>127</ns3:hr>
            <ns3:cad>0</ns3:cad>
          </ns3:TrackPointExtension>
        </extensions>
      </trkpt>
      <trkpt lat="37.9553418047726154327392578125" lon="-107.1119652874767780303955078125">
        <ele>3940.800048828125</ele>
        <time>2026-01-06T18:26:54.000Z</time>
        <extensions>
          <ns3:TrackPointExtension>
            <ns3:hr>128</ns3:hr>
            <ns3:cad>0</ns3:cad>
          </ns3:TrackPointExtension>
        </extensions>
      </trkpt>
      <trkpt lat="37.9553456604480743408203125" lon="-107.1119666285812854766845703125">
        <ele>3941</ele>
        <time>2026-01-06T18:26:56.000Z</time>
        <extensions>
          <ns3:TrackPointExtension>
            <ns3:hr>128</ns3:hr>
            <ns3:cad>0</ns3:cad>
          </ns3:TrackPointExtension>
        </extensions>
      </trkpt>
      <trkpt lat="37.95535764656960964202880859375" lon="-107.11198012344539165496826171875">
        <ele>3941.60009765625</ele>
        <time>2026-01-06T18:27:01.000Z</time>
        <extensions>
          <ns3:TrackPointExtension>
            <ns3:hr>127</ns3:hr>
            <ns3:cad>0</ns3:cad>
          </ns3:TrackPointExtension>
        </extensions>
      </trkpt>
      <trkpt lat="37.95536636374890804290771484375" lon="-107.1119823865592479705810546875">
        <ele>3942</ele>
        <time>2026-01-06T18:27:03.000Z</time>
        <extensions>
          <ns3:TrackPointExtension>
            <ns3:hr>127</ns3:hr>
            <ns3:cad>0</ns3:cad>
          </ns3:TrackPointExtension>
        </extensions>
      </trkpt>
      <trkpt lat="37.955371476709842681884765625" lon="-107.11200308986008167266845703125">
        <ele>3942.60009765625</ele>
        <time>2026-01-06T18:27:07.000Z</time>
        <extensions>
          <ns3:TrackPointExtension>
            <ns3:hr>130</ns3:hr>
            <ns3:cad>0</ns3:cad>
          </ns3:TrackPointExtension>
        </extensions>
      </trkpt>
      <trkpt lat="37.955371476709842681884765625" lon="-107.11200308986008167266845703125">
        <ele>3942.60009765625</ele>
        <time>2026-01-06T18:27:08.000Z</time>
        <extensions>
          <ns3:TrackPointExtension>
            <ns3:hr>131</ns3:hr>
            <ns3:cad>0</ns3:cad>
          </ns3:TrackPointExtension>
        </extensions>
      </trkpt>
      <trkpt lat="37.955371476709842681884765625" lon="-107.11200308986008167266845703125">
        <ele>3942.800048828125</ele>
        <time>2026-01-06T18:27:14.000Z</time>
        <extensions>
          <ns3:TrackPointExtension>
            <ns3:hr>133</ns3:hr>
            <ns3:cad>0</ns3:cad>
          </ns3:TrackPointExtension>
        </extensions>
      </trkpt>
      <trkpt lat="37.955371476709842681884765625" lon="-107.11200308986008167266845703125">
        <ele>3942.60009765625</ele>
        <time>2026-01-06T18:27:15.000Z</time>
        <extensions>
          <ns3:TrackPointExtension>
            <ns3:hr>133</ns3:hr>
            <ns3:cad>0</ns3:cad>
          </ns3:TrackPointExtension>
        </extensions>
      </trkpt>
      <trkpt lat="37.95537357218563556671142578125" lon="-107.112017087638378143310546875">
        <ele>3943</ele>
        <time>2026-01-06T18:27:19.000Z</time>
        <extensions>
          <ns3:TrackPointExtension>
            <ns3:hr>134</ns3:hr>
            <ns3:cad>0</ns3:cad>
          </ns3:TrackPointExtension>
        </extensions>
      </trkpt>
      <trkpt lat="37.955381870269775390625" lon="-107.1120333485305309295654296875">
        <ele>3943.60009765625</ele>
        <time>2026-01-06T18:27:22.000Z</time>
        <extensions>
          <ns3:TrackPointExtension>
            <ns3:hr>132</ns3:hr>
            <ns3:cad>0</ns3:cad>
          </ns3:TrackPointExtension>
        </extensions>
      </trkpt>
      <trkpt lat="37.95538723468780517578125" lon="-107.11204332299530506134033203125">
        <ele>3944.199951171875</ele>
        <time>2026-01-06T18:27:24.000Z</time>
        <extensions>
          <ns3:TrackPointExtension>
            <ns3:hr>131</ns3:hr>
            <ns3:cad>0</ns3:cad>
          </ns3:TrackPointExtension>
        </extensions>
      </trkpt>
      <trkpt lat="37.95539888553321361541748046875" lon="-107.1120538003742694854736328125">
        <ele>3944.800048828125</ele>
        <time>2026-01-06T18:27:27.000Z</time>
        <extensions>
          <ns3:TrackPointExtension>
            <ns3:hr>129</ns3:hr>
            <ns3:cad>0</ns3:cad>
          </ns3:TrackPointExtension>
        </extensions>
      </trkpt>
      <trkpt lat="37.95540894381701946258544921875" lon="-107.11207265965640544891357421875">
        <ele>3944.800048828125</ele>
        <time>2026-01-06T18:27:33.000Z</time>
        <extensions>
          <ns3:TrackPointExtension>
            <ns3:hr>129</ns3:hr>
            <ns3:cad>0</ns3:cad>
          </ns3:TrackPointExtension>
        </extensions>
      </trkpt>
      <trkpt lat="37.95540877617895603179931640625" lon="-107.1120719052851200103759765625">
        <ele>3944.800048828125</ele>
        <time>2026-01-06T18:27:34.000Z</time>
        <extensions>
          <ns3:TrackPointExtension>
            <ns3:hr>129</ns3:hr>
            <ns3:cad>0</ns3:cad>
          </ns3:TrackPointExtension>
        </extensions>
      </trkpt>
      <trkpt lat="37.95541330240666866302490234375" lon="-107.11208372376859188079833984375">
        <ele>3945.199951171875</ele>
        <time>2026-01-06T18:27:37.000Z</time>
        <extensions>
          <ns3:TrackPointExtension>
            <ns3:hr>127</ns3:hr>
            <ns3:cad>0</ns3:cad>
          </ns3:TrackPointExtension>
        </extensions>
      </trkpt>
      <trkpt lat="37.955422103404998779296875" lon="-107.1121007390320301055908203125">
        <ele>3946.199951171875</ele>
        <time>2026-01-06T18:27:41.000Z</time>
        <extensions>
          <ns3:TrackPointExtension>
            <ns3:hr>126</ns3:hr>
            <ns3:cad>0</ns3:cad>
          </ns3:TrackPointExtension>
        </extensions>
      </trkpt>
      <trkpt lat="37.9554242826998233795166015625" lon="-107.112101577222347259521484375">
        <ele>3946.39990234375</ele>
        <time>2026-01-06T18:27:42.000Z</time>
        <extensions>
          <ns3:TrackPointExtension>
            <ns3:hr>126</ns3:hr>
            <ns3:cad>0</ns3:cad>
          </ns3:TrackPointExtension>
        </extensions>
      </trkpt>
      <trkpt lat="37.95543886721134185791015625" lon="-107.11212295107543468475341796875">
        <ele>3946.60009765625</ele>
        <time>2026-01-06T18:27:47.000Z</time>
        <extensions>
          <ns3:TrackPointExtension>
            <ns3:hr>126</ns3:hr>
            <ns3:cad>0</ns3:cad>
          </ns3:TrackPointExtension>
        </extensions>
      </trkpt>
      <trkpt lat="37.95544263906776905059814453125" lon="-107.11213736794888973236083984375">
        <ele>3946.800048828125</ele>
        <time>2026-01-06T18:27:53.000Z</time>
        <extensions>
          <ns3:TrackPointExtension>
            <ns3:hr>127</ns3:hr>
            <ns3:cad>0</ns3:cad>
          </ns3:TrackPointExtension>
        </extensions>
      </trkpt>
      <trkpt lat="37.9554433934390544891357421875" lon="-107.1121372841298580169677734375">
        <ele>3947.199951171875</ele>
        <time>2026-01-06T18:27:59.000Z</time>
        <extensions>
          <ns3:TrackPointExtension>
            <ns3:hr>125</ns3:hr>
            <ns3:cad>0</ns3:cad>
          </ns3:TrackPointExtension>
        </extensions>
      </trkpt>
      <trkpt lat="37.9554464109241962432861328125" lon="-107.112140469253063201904296875">
        <ele>3947.199951171875</ele>
        <time>2026-01-06T18:28:00.000Z</time>
        <extensions>
          <ns3:TrackPointExtension>
            <ns3:hr>126</ns3:hr>
            <ns3:cad>0</ns3:cad>
          </ns3:TrackPointExtension>
        </extensions>
      </trkpt>
      <trkpt lat="37.95545118860900402069091796875" lon="-107.11214390583336353302001953125">
        <ele>3947.39990234375</ele>
        <time>2026-01-06T18:28:02.000Z</time>
        <extensions>
          <ns3:TrackPointExtension>
            <ns3:hr>125</ns3:hr>
            <ns3:cad>0</ns3:cad>
          </ns3:TrackPointExtension>
        </extensions>
      </trkpt>
      <trkpt lat="37.9554628394544124603271484375" lon="-107.11216100491583347320556640625">
        <ele>3948.199951171875</ele>
        <time>2026-01-06T18:28:05.000Z</time>
        <extensions>
          <ns3:TrackPointExtension>
            <ns3:hr>125</ns3:hr>
            <ns3:cad>0</ns3:cad>
          </ns3:TrackPointExtension>
        </extensions>
      </trkpt>
      <trkpt lat="37.9554651863873004913330078125" lon="-107.11216620169579982757568359375">
        <ele>3948.60009765625</ele>
        <time>2026-01-06T18:28:07.000Z</time>
        <extensions>
          <ns3:TrackPointExtension>
            <ns3:hr>125</ns3:hr>
            <ns3:cad>0</ns3:cad>
          </ns3:TrackPointExtension>
        </extensions>
      </trkpt>
      <trkpt lat="37.95547599904239177703857421875" lon="-107.11217592470347881317138671875">
        <ele>3949</ele>
        <time>2026-01-06T18:28:11.000Z</time>
        <extensions>
          <ns3:TrackPointExtension>
            <ns3:hr>124</ns3:hr>
            <ns3:cad>0</ns3:cad>
          </ns3:TrackPointExtension>
        </extensions>
      </trkpt>
      <trkpt lat="37.95548823662102222442626953125" lon="-107.11220526136457920074462890625">
        <ele>3949.60009765625</ele>
        <time>2026-01-06T18:28:17.000Z</time>
        <extensions>
          <ns3:TrackPointExtension>
            <ns3:hr>122</ns3:hr>
            <ns3:cad>0</ns3:cad>
          </ns3:TrackPointExtension>
        </extensions>
      </trkpt>
      <trkpt lat="37.9554973728954792022705078125" lon="-107.11221062578260898590087890625">
        <ele>3950.199951171875</ele>
        <time>2026-01-06T18:28:22.000Z</time>
        <extensions>
          <ns3:TrackPointExtension>
            <ns3:hr>121</ns3:hr>
            <ns3:cad>0</ns3:cad>
          </ns3:TrackPointExtension>
        </extensions>
      </trkpt>
      <trkpt lat="37.95550550334155559539794921875" lon="-107.11223225109279155731201171875">
        <ele>3950.60009765625</ele>
        <time>2026-01-06T18:28:28.000Z</time>
        <extensions>
          <ns3:TrackPointExtension>
            <ns3:hr>122</ns3:hr>
            <ns3:cad>0</ns3:cad>
          </ns3:TrackPointExtension>
        </extensions>
      </trkpt>
      <trkpt lat="37.95550852082669734954833984375" lon="-107.11223669350147247314453125">
        <ele>3950.800048828125</ele>
        <time>2026-01-06T18:28:29.000Z</time>
        <extensions>
          <ns3:TrackPointExtension>
            <ns3:hr>122</ns3:hr>
            <ns3:cad>0</ns3:cad>
          </ns3:TrackPointExtension>
        </extensions>
      </trkpt>
      <trkpt lat="37.9555231891572475433349609375" lon="-107.11225957609713077545166015625">
        <ele>3951.800048828125</ele>
        <time>2026-01-06T18:28:33.000Z</time>
        <extensions>
          <ns3:TrackPointExtension>
            <ns3:hr>125</ns3:hr>
            <ns3:cad>0</ns3:cad>
          </ns3:TrackPointExtension>
        </extensions>
      </trkpt>
      <trkpt lat="37.9555235244333744049072265625" lon="-107.11226309649646282196044921875">
        <ele>3951.800048828125</ele>
        <time>2026-01-06T18:28:35.000Z</time>
        <extensions>
          <ns3:TrackPointExtension>
            <ns3:hr>125</ns3:hr>
            <ns3:cad>0</ns3:cad>
          </ns3:TrackPointExtension>
        </extensions>
      </trkpt>
      <trkpt lat="37.955528385937213897705078125" lon="-107.112265862524509429931640625">
        <ele>3952.199951171875</ele>
        <time>2026-01-06T18:28:39.000Z</time>
        <extensions>
          <ns3:TrackPointExtension>
            <ns3:hr>128</ns3:hr>
            <ns3:cad>0</ns3:cad>
          </ns3:TrackPointExtension>
        </extensions>
      </trkpt>
      <trkpt lat="37.9555325768887996673583984375" lon="-107.11227516643702983856201171875">
        <ele>3952.39990234375</ele>
        <time>2026-01-06T18:28:41.000Z</time>
        <extensions>
          <ns3:TrackPointExtension>
            <ns3:hr>128</ns3:hr>
            <ns3:cad>0</ns3:cad>
          </ns3:TrackPointExtension>
        </extensions>
      </trkpt>
      <trkpt lat="37.95554070733487606048583984375" lon="-107.1122888289391994476318359375">
        <ele>3952.800048828125</ele>
        <time>2026-01-06T18:28:44.000Z</time>
        <extensions>
          <ns3:TrackPointExtension>
            <ns3:hr>130</ns3:hr>
            <ns3:cad>0</ns3:cad>
          </ns3:TrackPointExtension>
        </extensions>
      </trkpt>
      <trkpt lat="37.95554674230515956878662109375" lon="-107.11229578591883182525634765625">
        <ele>3953</ele>
        <time>2026-01-06T18:28:46.000Z</time>
        <extensions>
          <ns3:TrackPointExtension>
            <ns3:hr>131</ns3:hr>
            <ns3:cad>0</ns3:cad>
          </ns3:TrackPointExtension>
        </extensions>
      </trkpt>
      <trkpt lat="37.95555948279798030853271484375" lon="-107.11231355555355548858642578125">
        <ele>3953.60009765625</ele>
        <time>2026-01-06T18:28:51.000Z</time>
        <extensions>
          <ns3:TrackPointExtension>
            <ns3:hr>134</ns3:hr>
            <ns3:cad>0</ns3:cad>
          </ns3:TrackPointExtension>
        </extensions>
      </trkpt>
      <trkpt lat="37.9555614106357097625732421875" lon="-107.1123139746487140655517578125">
        <ele>3953.800048828125</ele>
        <time>2026-01-06T18:28:52.000Z</time>
        <extensions>
          <ns3:TrackPointExtension>
            <ns3:hr>134</ns3:hr>
            <ns3:cad>0</ns3:cad>
          </ns3:TrackPointExtension>
        </extensions>
      </trkpt>
      <trkpt lat="37.95556166209280490875244140625" lon="-107.1123220212757587432861328125">
        <ele>3953.800048828125</ele>
        <time>2026-01-06T18:28:53.000Z</time>
        <extensions>
          <ns3:TrackPointExtension>
            <ns3:hr>134</ns3:hr>
            <ns3:cad>0</ns3:cad>
          </ns3:TrackPointExtension>
        </extensions>
      </trkpt>
      <trkpt lat="37.955572642385959625244140625" lon="-107.1123407967388629913330078125">
        <ele>3954.60009765625</ele>
        <time>2026-01-06T18:28:59.000Z</time>
        <extensions>
          <ns3:TrackPointExtension>
            <ns3:hr>135</ns3:hr>
            <ns3:cad>0</ns3:cad>
          </ns3:TrackPointExtension>
        </extensions>
      </trkpt>
      <trkpt lat="37.9555801860988140106201171875" lon="-107.11234725080430507659912109375">
        <ele>3955</ele>
        <time>2026-01-06T18:29:01.000Z</time>
        <extensions>
          <ns3:TrackPointExtension>
            <ns3:hr>135</ns3:hr>
            <ns3:cad>0</ns3:cad>
          </ns3:TrackPointExtension>
        </extensions>
      </trkpt>
      <trkpt lat="37.95558664016425609588623046875" lon="-107.11235714145004749298095703125">
        <ele>3955</ele>
        <time>2026-01-06T18:29:06.000Z</time>
        <extensions>
          <ns3:TrackPointExtension>
            <ns3:hr>136</ns3:hr>
            <ns3:cad>0</ns3:cad>
          </ns3:TrackPointExtension>
        </extensions>
      </trkpt>
      <trkpt lat="37.9555999673902988433837890625" lon="-107.11238061077892780303955078125">
        <ele>3956</ele>
        <time>2026-01-06T18:29:12.000Z</time>
        <extensions>
          <ns3:TrackPointExtension>
            <ns3:hr>136</ns3:hr>
            <ns3:cad>0</ns3:cad>
          </ns3:TrackPointExtension>
        </extensions>
      </trkpt>
      <trkpt lat="37.9556031525135040283203125" lon="-107.11238044314086437225341796875">
        <ele>3956</ele>
        <time>2026-01-06T18:29:13.000Z</time>
        <extensions>
          <ns3:TrackPointExtension>
            <ns3:hr>136</ns3:hr>
            <ns3:cad>0</ns3:cad>
          </ns3:TrackPointExtension>
        </extensions>
      </trkpt>
      <trkpt lat="37.9556150548160076141357421875" lon="-107.1123944409191608428955078125">
        <ele>3956.800048828125</ele>
        <time>2026-01-06T18:29:19.000Z</time>
        <extensions>
          <ns3:TrackPointExtension>
            <ns3:hr>136</ns3:hr>
            <ns3:cad>0</ns3:cad>
          </ns3:TrackPointExtension>
        </extensions>
      </trkpt>
      <trkpt lat="37.9556197486817836761474609375" lon="-107.11239770986139774322509765625">
        <ele>3957.199951171875</ele>
        <time>2026-01-06T18:29:21.000Z</time>
        <extensions>
          <ns3:TrackPointExtension>
            <ns3:hr>136</ns3:hr>
            <ns3:cad>0</ns3:cad>
          </ns3:TrackPointExtension>
        </extensions>
      </trkpt>
      <trkpt lat="37.95563198626041412353515625" lon="-107.11241464130580425262451171875">
        <ele>3957.60009765625</ele>
        <time>2026-01-06T18:29:27.000Z</time>
        <extensions>
          <ns3:TrackPointExtension>
            <ns3:hr>136</ns3:hr>
            <ns3:cad>0</ns3:cad>
          </ns3:TrackPointExtension>
        </extensions>
      </trkpt>
      <trkpt lat="37.95564514584839344024658203125" lon="-107.1124278008937835693359375">
        <ele>3958</ele>
        <time>2026-01-06T18:29:33.000Z</time>
        <extensions>
          <ns3:TrackPointExtension>
            <ns3:hr>135</ns3:hr>
            <ns3:cad>0</ns3:cad>
          </ns3:TrackPointExtension>
        </extensions>
      </trkpt>
      <trkpt lat="37.955638356506824493408203125" lon="-107.1124319918453693389892578125">
        <ele>3958.199951171875</ele>
        <time>2026-01-06T18:29:34.000Z</time>
        <extensions>
          <ns3:TrackPointExtension>
            <ns3:hr>135</ns3:hr>
            <ns3:cad>0</ns3:cad>
          </ns3:TrackPointExtension>
        </extensions>
      </trkpt>
      <trkpt lat="37.95564263127744197845458984375" lon="-107.112425453960895538330078125">
        <ele>3958.39990234375</ele>
        <time>2026-01-06T18:29:39.000Z</time>
        <extensions>
          <ns3:TrackPointExtension>
            <ns3:hr>135</ns3:hr>
            <ns3:cad>0</ns3:cad>
          </ns3:TrackPointExtension>
        </extensions>
      </trkpt>
      <trkpt lat="37.95564363710582256317138671875" lon="-107.1124246157705783843994140625">
        <ele>3958.39990234375</ele>
        <time>2026-01-06T18:29:45.000Z</time>
        <extensions>
          <ns3:TrackPointExtension>
            <ns3:hr>134</ns3:hr>
            <ns3:cad>0</ns3:cad>
          </ns3:TrackPointExtension>
        </extensions>
      </trkpt>
      <trkpt lat="37.95564363710582256317138671875" lon="-107.1124246157705783843994140625">
        <ele>3958.39990234375</ele>
        <time>2026-01-06T18:29:48.000Z</time>
        <extensions>
          <ns3:TrackPointExtension>
            <ns3:hr>133</ns3:hr>
            <ns3:cad>0</ns3:cad>
          </ns3:TrackPointExtension>
        </extensions>
      </trkpt>
      <trkpt lat="37.9556485824286937713623046875" lon="-107.11243257857859134674072265625">
        <ele>3959</ele>
        <time>2026-01-06T18:29:54.000Z</time>
        <extensions>
          <ns3:TrackPointExtension>
            <ns3:hr>131</ns3:hr>
            <ns3:cad>0</ns3:cad>
          </ns3:TrackPointExtension>
        </extensions>
      </trkpt>
      <trkpt lat="37.955649085342884063720703125" lon="-107.112440876662731170654296875">
        <ele>3959</ele>
        <time>2026-01-06T18:29:55.000Z</time>
        <extensions>
          <ns3:TrackPointExtension>
            <ns3:hr>131</ns3:hr>
            <ns3:cad>0</ns3:cad>
          </ns3:TrackPointExtension>
        </extensions>
      </trkpt>
      <trkpt lat="37.95565721578896045684814453125" lon="-107.112448252737522125244140625">
        <ele>3959.199951171875</ele>
        <time>2026-01-06T18:29:57.000Z</time>
        <extensions>
          <ns3:TrackPointExtension>
            <ns3:hr>130</ns3:hr>
            <ns3:cad>0</ns3:cad>
          </ns3:TrackPointExtension>
        </extensions>
      </trkpt>
      <trkpt lat="37.955661825835704803466796875" lon="-107.11246023885905742645263671875">
        <ele>3960</ele>
        <time>2026-01-06T18:30:01.000Z</time>
        <extensions>
          <ns3:TrackPointExtension>
            <ns3:hr>128</ns3:hr>
            <ns3:cad>0</ns3:cad>
          </ns3:TrackPointExtension>
        </extensions>
      </trkpt>
      <trkpt lat="37.9556673578917980194091796875" lon="-107.11247800849378108978271484375">
        <ele>3960.199951171875</ele>
        <time>2026-01-06T18:30:05.000Z</time>
        <extensions>
          <ns3:TrackPointExtension>
            <ns3:hr>125</ns3:hr>
            <ns3:cad>0</ns3:cad>
          </ns3:TrackPointExtension>
        </extensions>
      </trkpt>
      <trkpt lat="37.9556673578917980194091796875" lon="-107.11247800849378108978271484375">
        <ele>3960</ele>
        <time>2026-01-06T18:30:09.000Z</time>
        <extensions>
          <ns3:TrackPointExtension>
            <ns3:hr>125</ns3:hr>
            <ns3:cad>0</ns3:cad>
          </ns3:TrackPointExtension>
        </extensions>
      </trkpt>
      <trkpt lat="37.9556703753769397735595703125" lon="-107.11249418556690216064453125">
        <ele>3959.800048828125</ele>
        <time>2026-01-06T18:30:14.000Z</time>
        <extensions>
          <ns3:TrackPointExtension>
            <ns3:hr>122</ns3:hr>
            <ns3:cad>0</ns3:cad>
          </ns3:TrackPointExtension>
        </extensions>
      </trkpt>
      <trkpt lat="37.95567917637526988983154296875" lon="-107.11250952444970607757568359375">
        <ele>3960.39990234375</ele>
        <time>2026-01-06T18:30:16.000Z</time>
        <extensions>
          <ns3:TrackPointExtension>
            <ns3:hr>122</ns3:hr>
            <ns3:cad>0</ns3:cad>
          </ns3:TrackPointExtension>
        </extensions>
      </trkpt>
      <trkpt lat="37.9556794278323650360107421875" lon="-107.1125050820410251617431640625">
        <ele>3960.800048828125</ele>
        <time>2026-01-06T18:30:17.000Z</time>
        <extensions>
          <ns3:TrackPointExtension>
            <ns3:hr>122</ns3:hr>
            <ns3:cad>0</ns3:cad>
          </ns3:TrackPointExtension>
        </extensions>
      </trkpt>
      <trkpt lat="37.95567565597593784332275390625" lon="-107.112511284649372100830078125">
        <ele>3961.39990234375</ele>
        <time>2026-01-06T18:30:20.000Z</time>
        <extensions>
          <ns3:TrackPointExtension>
            <ns3:hr>119</ns3:hr>
            <ns3:cad>0</ns3:cad>
          </ns3:TrackPointExtension>
        </extensions>
      </trkpt>
      <trkpt lat="37.9556800983846187591552734375" lon="-107.1125221811234951019287109375">
        <ele>3961.60009765625</ele>
        <time>2026-01-06T18:30:22.000Z</time>
        <extensions>
          <ns3:TrackPointExtension>
            <ns3:hr>114</ns3:hr>
            <ns3:cad>0</ns3:cad>
          </ns3:TrackPointExtension>
        </extensions>
      </trkpt>
      <trkpt lat="37.95568319968879222869873046875" lon="-107.11251790635287761688232421875">
        <ele>3961.800048828125</ele>
        <time>2026-01-06T18:30:23.000Z</time>
        <extensions>
          <ns3:TrackPointExtension>
            <ns3:hr>115</ns3:hr>
            <ns3:cad>0</ns3:cad>
          </ns3:TrackPointExtension>
        </extensions>
      </trkpt>
      <trkpt lat="37.95568965375423431396484375" lon="-107.11253047920763492584228515625">
        <ele>3962.39990234375</ele>
        <time>2026-01-06T18:30:27.000Z</time>
        <extensions>
          <ns3:TrackPointExtension>
            <ns3:hr>115</ns3:hr>
            <ns3:cad>0</ns3:cad>
          </ns3:TrackPointExtension>
        </extensions>
      </trkpt>
      <trkpt lat="37.9556894861161708831787109375" lon="-107.11253441870212554931640625">
        <ele>3962.60009765625</ele>
        <time>2026-01-06T18:30:28.000Z</time>
        <extensions>
          <ns3:TrackPointExtension>
            <ns3:hr>115</ns3:hr>
            <ns3:cad>0</ns3:cad>
          </ns3:TrackPointExtension>
        </extensions>
      </trkpt>
      <trkpt lat="37.955690659582614898681640625" lon="-107.11253634653985500335693359375">
        <ele>3963.199951171875</ele>
        <time>2026-01-06T18:30:34.000Z</time>
        <extensions>
          <ns3:TrackPointExtension>
            <ns3:hr>116</ns3:hr>
            <ns3:cad>0</ns3:cad>
          </ns3:TrackPointExtension>
        </extensions>
      </trkpt>
      <trkpt lat="37.95569342561066150665283203125" lon="-107.1125486679375171661376953125">
        <ele>3963.39990234375</ele>
        <time>2026-01-06T18:30:36.000Z</time>
        <extensions>
          <ns3:TrackPointExtension>
            <ns3:hr>116</ns3:hr>
            <ns3:cad>0</ns3:cad>
          </ns3:TrackPointExtension>
        </extensions>
      </trkpt>
      <trkpt lat="37.955702058970928192138671875" lon="-107.112560905516147613525390625">
        <ele>3962.800048828125</ele>
        <time>2026-01-06T18:30:42.000Z</time>
        <extensions>
          <ns3:TrackPointExtension>
            <ns3:hr>115</ns3:hr>
            <ns3:cad>0</ns3:cad>
          </ns3:TrackPointExtension>
        </extensions>
      </trkpt>
      <trkpt lat="37.95569895766675472259521484375" lon="-107.112562246620655059814453125">
        <ele>3962.800048828125</ele>
        <time>2026-01-06T18:30:48.000Z</time>
        <extensions>
          <ns3:TrackPointExtension>
            <ns3:hr>114</ns3:hr>
            <ns3:cad>0</ns3:cad>
          </ns3:TrackPointExtension>
        </extensions>
      </trkpt>
      <trkpt lat="37.95570029877126216888427734375" lon="-107.11257456801831722259521484375">
        <ele>3963</ele>
        <time>2026-01-06T18:30:49.000Z</time>
        <extensions>
          <ns3:TrackPointExtension>
            <ns3:hr>115</ns3:hr>
            <ns3:cad>0</ns3:cad>
          </ns3:TrackPointExtension>
        </extensions>
      </trkpt>
      <trkpt lat="37.95570566318929195404052734375" lon="-107.11258697323501110076904296875">
        <ele>3963.60009765625</ele>
        <time>2026-01-06T18:30:51.000Z</time>
        <extensions>
          <ns3:TrackPointExtension>
            <ns3:hr>115</ns3:hr>
            <ns3:cad>0</ns3:cad>
          </ns3:TrackPointExtension>
        </extensions>
      </trkpt>
      <trkpt lat="37.95570868067443370819091796875" lon="-107.11259342730045318603515625">
        <ele>3963.800048828125</ele>
        <time>2026-01-06T18:30:52.000Z</time>
        <extensions>
          <ns3:TrackPointExtension>
            <ns3:hr>114</ns3:hr>
            <ns3:cad>0</ns3:cad>
          </ns3:TrackPointExtension>
        </extensions>
      </trkpt>
      <trkpt lat="37.95570482499897480010986328125" lon="-107.112595103681087493896484375">
        <ele>3963.800048828125</ele>
        <time>2026-01-06T18:30:55.000Z</time>
        <extensions>
          <ns3:TrackPointExtension>
            <ns3:hr>114</ns3:hr>
            <ns3:cad>0</ns3:cad>
          </ns3:TrackPointExtension>
        </extensions>
      </trkpt>
      <trkpt lat="37.95571488328278064727783203125" lon="-107.112617231905460357666015625">
        <ele>3964</ele>
        <time>2026-01-06T18:30:59.000Z</time>
        <extensions>
          <ns3:TrackPointExtension>
            <ns3:hr>114</ns3:hr>
            <ns3:cad>0</ns3:cad>
          </ns3:TrackPointExtension>
        </extensions>
      </trkpt>
      <trkpt lat="37.95572846196591854095458984375" lon="-107.11262620054185390472412109375">
        <ele>3964.800048828125</ele>
        <time>2026-01-06T18:31:04.000Z</time>
        <extensions>
          <ns3:TrackPointExtension>
            <ns3:hr>115</ns3:hr>
            <ns3:cad>0</ns3:cad>
          </ns3:TrackPointExtension>
        </extensions>
      </trkpt>
      <trkpt lat="37.9557320661842823028564453125" lon="-107.11263139732182025909423828125">
        <ele>3965</ele>
        <time>2026-01-06T18:31:05.000Z</time>
        <extensions>
          <ns3:TrackPointExtension>
            <ns3:hr>115</ns3:hr>
            <ns3:cad>0</ns3:cad>
          </ns3:TrackPointExtension>
        </extensions>
      </trkpt>
      <trkpt lat="37.95574304647743701934814453125" lon="-107.112646736204624176025390625">
        <ele>3966</ele>
        <time>2026-01-06T18:31:10.000Z</time>
        <extensions>
          <ns3:TrackPointExtension>
            <ns3:hr>115</ns3:hr>
            <ns3:cad>49</ns3:cad>
          </ns3:TrackPointExtension>
        </extensions>
      </trkpt>
      <trkpt lat="37.95574204064905643463134765625" lon="-107.112651765346527099609375">
        <ele>3966</ele>
        <time>2026-01-06T18:31:11.000Z</time>
        <extensions>
          <ns3:TrackPointExtension>
            <ns3:hr>115</ns3:hr>
            <ns3:cad>49</ns3:cad>
          </ns3:TrackPointExtension>
        </extensions>
      </trkpt>
      <trkpt lat="37.955755032598972320556640625" lon="-107.112675569951534271240234375">
        <ele>3966.800048828125</ele>
        <time>2026-01-06T18:31:17.000Z</time>
        <extensions>
          <ns3:TrackPointExtension>
            <ns3:hr>118</ns3:hr>
            <ns3:cad>0</ns3:cad>
          </ns3:TrackPointExtension>
        </extensions>
      </trkpt>
      <trkpt lat="37.955754697322845458984375" lon="-107.11267632432281970977783203125">
        <ele>3967</ele>
        <time>2026-01-06T18:31:18.000Z</time>
        <extensions>
          <ns3:TrackPointExtension>
            <ns3:hr>118</ns3:hr>
            <ns3:cad>0</ns3:cad>
          </ns3:TrackPointExtension>
        </extensions>
      </trkpt>
      <trkpt lat="37.955759055912494659423828125" lon="-107.11270884610712528228759765625">
        <ele>3967</ele>
        <time>2026-01-06T18:31:23.000Z</time>
        <extensions>
          <ns3:TrackPointExtension>
            <ns3:hr>117</ns3:hr>
            <ns3:cad>0</ns3:cad>
          </ns3:TrackPointExtension>
        </extensions>
      </trkpt>
      <trkpt lat="37.95575830154120922088623046875" lon="-107.1127049066126346588134765625">
        <ele>3967.199951171875</ele>
        <time>2026-01-06T18:31:29.000Z</time>
        <extensions>
          <ns3:TrackPointExtension>
            <ns3:hr>118</ns3:hr>
            <ns3:cad>0</ns3:cad>
          </ns3:TrackPointExtension>
        </extensions>
      </trkpt>
      <trkpt lat="37.95575830154120922088623046875" lon="-107.1127049066126346588134765625">
        <ele>3967.39990234375</ele>
        <time>2026-01-06T18:31:30.000Z</time>
        <extensions>
          <ns3:TrackPointExtension>
            <ns3:hr>118</ns3:hr>
            <ns3:cad>0</ns3:cad>
          </ns3:TrackPointExtension>
        </extensions>
      </trkpt>
      <trkpt lat="37.95575830154120922088623046875" lon="-107.1127049066126346588134765625">
        <ele>3968.199951171875</ele>
        <time>2026-01-06T18:31:35.000Z</time>
        <extensions>
          <ns3:TrackPointExtension>
            <ns3:hr>120</ns3:hr>
            <ns3:cad>0</ns3:cad>
          </ns3:TrackPointExtension>
        </extensions>
      </trkpt>
      <trkpt lat="37.95575830154120922088623046875" lon="-107.1127049066126346588134765625">
        <ele>3968.39990234375</ele>
        <time>2026-01-06T18:31:39.000Z</time>
        <extensions>
          <ns3:TrackPointExtension>
            <ns3:hr>126</ns3:hr>
            <ns3:cad>0</ns3:cad>
          </ns3:TrackPointExtension>
        </extensions>
      </trkpt>
      <trkpt lat="37.95575830154120922088623046875" lon="-107.1127049066126346588134765625">
        <ele>3968.39990234375</ele>
        <time>2026-01-06T18:31:40.000Z</time>
        <extensions>
          <ns3:TrackPointExtension>
            <ns3:hr>131</ns3:hr>
            <ns3:cad>0</ns3:cad>
          </ns3:TrackPointExtension>
        </extensions>
      </trkpt>
      <trkpt lat="37.95575830154120922088623046875" lon="-107.1127049066126346588134765625">
        <ele>3968.199951171875</ele>
        <time>2026-01-06T18:31:41.000Z</time>
        <extensions>
          <ns3:TrackPointExtension>
            <ns3:hr>134</ns3:hr>
            <ns3:cad>0</ns3:cad>
          </ns3:TrackPointExtension>
        </extensions>
      </trkpt>
      <trkpt lat="37.95575830154120922088623046875" lon="-107.1127049066126346588134765625">
        <ele>3968.199951171875</ele>
        <time>2026-01-06T18:31:42.000Z</time>
        <extensions>
          <ns3:TrackPointExtension>
            <ns3:hr>134</ns3:hr>
            <ns3:cad>0</ns3:cad>
          </ns3:TrackPointExtension>
        </extensions>
      </trkpt>
      <trkpt lat="37.95575830154120922088623046875" lon="-107.1127049066126346588134765625">
        <ele>3967.800048828125</ele>
        <time>2026-01-06T18:31:46.000Z</time>
        <extensions>
          <ns3:TrackPointExtension>
            <ns3:hr>133</ns3:hr>
            <ns3:cad>0</ns3:cad>
          </ns3:TrackPointExtension>
        </extensions>
      </trkpt>
      <trkpt lat="37.95575830154120922088623046875" lon="-107.1127049066126346588134765625">
        <ele>3967.39990234375</ele>
        <time>2026-01-06T18:31:52.000Z</time>
        <extensions>
          <ns3:TrackPointExtension>
            <ns3:hr>132</ns3:hr>
            <ns3:cad>0</ns3:cad>
          </ns3:TrackPointExtension>
        </extensions>
      </trkpt>
      <trkpt lat="37.95575830154120922088623046875" lon="-107.1127049066126346588134765625">
        <ele>3967.39990234375</ele>
        <time>2026-01-06T18:31:58.000Z</time>
        <extensions>
          <ns3:TrackPointExtension>
            <ns3:hr>131</ns3:hr>
            <ns3:cad>0</ns3:cad>
          </ns3:TrackPointExtension>
        </extensions>
      </trkpt>
      <trkpt lat="37.95575830154120922088623046875" lon="-107.1127049066126346588134765625">
        <ele>3967.199951171875</ele>
        <time>2026-01-06T18:32:00.000Z</time>
        <extensions>
          <ns3:TrackPointExtension>
            <ns3:hr>127</ns3:hr>
            <ns3:cad>0</ns3:cad>
          </ns3:TrackPointExtension>
        </extensions>
      </trkpt>
      <trkpt lat="37.95575830154120922088623046875" lon="-107.1127049066126346588134765625">
        <ele>3967.199951171875</ele>
        <time>2026-01-06T18:32:02.000Z</time>
        <extensions>
          <ns3:TrackPointExtension>
            <ns3:hr>124</ns3:hr>
            <ns3:cad>0</ns3:cad>
          </ns3:TrackPointExtension>
        </extensions>
      </trkpt>
      <trkpt lat="37.95575830154120922088623046875" lon="-107.1127049066126346588134765625">
        <ele>3967</ele>
        <time>2026-01-06T18:32:04.000Z</time>
        <extensions>
          <ns3:TrackPointExtension>
            <ns3:hr>122</ns3:hr>
            <ns3:cad>0</ns3:cad>
          </ns3:TrackPointExtension>
        </extensions>
      </trkpt>
      <trkpt lat="37.95575830154120922088623046875" lon="-107.1127049066126346588134765625">
        <ele>3967.60009765625</ele>
        <time>2026-01-06T18:32:10.000Z</time>
        <extensions>
          <ns3:TrackPointExtension>
            <ns3:hr>120</ns3:hr>
            <ns3:cad>0</ns3:cad>
          </ns3:TrackPointExtension>
        </extensions>
      </trkpt>
      <trkpt lat="37.95575830154120922088623046875" lon="-107.1127049066126346588134765625">
        <ele>3967.39990234375</ele>
        <time>2026-01-06T18:32:14.000Z</time>
        <extensions>
          <ns3:TrackPointExtension>
            <ns3:hr>117</ns3:hr>
            <ns3:cad>0</ns3:cad>
          </ns3:TrackPointExtension>
        </extensions>
      </trkpt>
      <trkpt lat="37.95575830154120922088623046875" lon="-107.1127049066126346588134765625">
        <ele>3967.199951171875</ele>
        <time>2026-01-06T18:32:15.000Z</time>
        <extensions>
          <ns3:TrackPointExtension>
            <ns3:hr>114</ns3:hr>
            <ns3:cad>0</ns3:cad>
          </ns3:TrackPointExtension>
        </extensions>
      </trkpt>
      <trkpt lat="37.95575830154120922088623046875" lon="-107.1127049066126346588134765625">
        <ele>3967.199951171875</ele>
        <time>2026-01-06T18:32:21.000Z</time>
        <extensions>
          <ns3:TrackPointExtension>
            <ns3:hr>112</ns3:hr>
            <ns3:cad>0</ns3:cad>
          </ns3:TrackPointExtension>
        </extensions>
      </trkpt>
      <trkpt lat="37.95575830154120922088623046875" lon="-107.1127049066126346588134765625">
        <ele>3967.199951171875</ele>
        <time>2026-01-06T18:32:27.000Z</time>
        <extensions>
          <ns3:TrackPointExtension>
            <ns3:hr>114</ns3:hr>
            <ns3:cad>0</ns3:cad>
          </ns3:TrackPointExtension>
        </extensions>
      </trkpt>
      <trkpt lat="37.95575830154120922088623046875" lon="-107.1127049066126346588134765625">
        <ele>3967.199951171875</ele>
        <time>2026-01-06T18:32:32.000Z</time>
        <extensions>
          <ns3:TrackPointExtension>
            <ns3:hr>113</ns3:hr>
            <ns3:cad>0</ns3:cad>
          </ns3:TrackPointExtension>
        </extensions>
      </trkpt>
      <trkpt lat="37.95575830154120922088623046875" lon="-107.1127049066126346588134765625">
        <ele>3967</ele>
        <time>2026-01-06T18:32:38.000Z</time>
        <extensions>
          <ns3:TrackPointExtension>
            <ns3:hr>109</ns3:hr>
            <ns3:cad>0</ns3:cad>
          </ns3:TrackPointExtension>
        </extensions>
      </trkpt>
      <trkpt lat="37.95575830154120922088623046875" lon="-107.1127049066126346588134765625">
        <ele>3967.60009765625</ele>
        <time>2026-01-06T18:32:44.000Z</time>
        <extensions>
          <ns3:TrackPointExtension>
            <ns3:hr>109</ns3:hr>
            <ns3:cad>0</ns3:cad>
          </ns3:TrackPointExtension>
        </extensions>
      </trkpt>
      <trkpt lat="37.95575830154120922088623046875" lon="-107.1127049066126346588134765625">
        <ele>3967.60009765625</ele>
        <time>2026-01-06T18:32:48.000Z</time>
        <extensions>
          <ns3:TrackPointExtension>
            <ns3:hr>110</ns3:hr>
            <ns3:cad>0</ns3:cad>
          </ns3:TrackPointExtension>
        </extensions>
      </trkpt>
      <trkpt lat="37.95575830154120922088623046875" lon="-107.1127049066126346588134765625">
        <ele>3967.60009765625</ele>
        <time>2026-01-06T18:32:53.000Z</time>
        <extensions>
          <ns3:TrackPointExtension>
            <ns3:hr>107</ns3:hr>
            <ns3:cad>0</ns3:cad>
          </ns3:TrackPointExtension>
        </extensions>
      </trkpt>
      <trkpt lat="37.95575830154120922088623046875" lon="-107.1127049066126346588134765625">
        <ele>3967.199951171875</ele>
        <time>2026-01-06T18:32:56.000Z</time>
        <extensions>
          <ns3:TrackPointExtension>
            <ns3:hr>104</ns3:hr>
            <ns3:cad>0</ns3:cad>
          </ns3:TrackPointExtension>
        </extensions>
      </trkpt>
      <trkpt lat="37.95575830154120922088623046875" lon="-107.1127049066126346588134765625">
        <ele>3967.199951171875</ele>
        <time>2026-01-06T18:32:58.000Z</time>
        <extensions>
          <ns3:TrackPointExtension>
            <ns3:hr>103</ns3:hr>
            <ns3:cad>0</ns3:cad>
          </ns3:TrackPointExtension>
        </extensions>
      </trkpt>
      <trkpt lat="37.95575427822768688201904296875" lon="-107.1127216704189777374267578125">
        <ele>3967</ele>
        <time>2026-01-06T18:33:04.000Z</time>
        <extensions>
          <ns3:TrackPointExtension>
            <ns3:hr>103</ns3:hr>
            <ns3:cad>0</ns3:cad>
          </ns3:TrackPointExtension>
        </extensions>
      </trkpt>
      <trkpt lat="37.9557573795318603515625" lon="-107.1127253584563732147216796875">
        <ele>3967.199951171875</ele>
        <time>2026-01-06T18:33:06.000Z</time>
        <extensions>
          <ns3:TrackPointExtension>
            <ns3:hr>103</ns3:hr>
            <ns3:cad>0</ns3:cad>
          </ns3:TrackPointExtension>
        </extensions>
      </trkpt>
      <trkpt lat="37.95577171258628368377685546875" lon="-107.1127443015575408935546875">
        <ele>3967.800048828125</ele>
        <time>2026-01-06T18:33:11.000Z</time>
        <extensions>
          <ns3:TrackPointExtension>
            <ns3:hr>103</ns3:hr>
            <ns3:cad>0</ns3:cad>
          </ns3:TrackPointExtension>
        </extensions>
      </trkpt>
      <trkpt lat="37.95577020384371280670166015625" lon="-107.1127431280910968780517578125">
        <ele>3968.199951171875</ele>
        <time>2026-01-06T18:33:12.000Z</time>
        <extensions>
          <ns3:TrackPointExtension>
            <ns3:hr>103</ns3:hr>
            <ns3:cad>0</ns3:cad>
          </ns3:TrackPointExtension>
        </extensions>
      </trkpt>
      <trkpt lat="37.9557696171104907989501953125" lon="-107.11274287663400173187255859375">
        <ele>3968.199951171875</ele>
        <time>2026-01-06T18:33:16.000Z</time>
        <extensions>
          <ns3:TrackPointExtension>
            <ns3:hr>106</ns3:hr>
            <ns3:cad>0</ns3:cad>
          </ns3:TrackPointExtension>
        </extensions>
      </trkpt>
      <trkpt lat="37.95576869510114192962646484375" lon="-107.11273918859660625457763671875">
        <ele>3968.199951171875</ele>
        <time>2026-01-06T18:33:18.000Z</time>
        <extensions>
          <ns3:TrackPointExtension>
            <ns3:hr>106</ns3:hr>
            <ns3:cad>0</ns3:cad>
          </ns3:TrackPointExtension>
        </extensions>
      </trkpt>
      <trkpt lat="37.9557887278497219085693359375" lon="-107.1127877198159694671630859375">
        <ele>3968.800048828125</ele>
        <time>2026-01-06T18:33:24.000Z</time>
        <extensions>
          <ns3:TrackPointExtension>
            <ns3:hr>105</ns3:hr>
            <ns3:cad>0</ns3:cad>
          </ns3:TrackPointExtension>
        </extensions>
      </trkpt>
      <trkpt lat="37.9557909071445465087890625" lon="-107.11279467679560184478759765625">
        <ele>3969.199951171875</ele>
        <time>2026-01-06T18:33:26.000Z</time>
        <extensions>
          <ns3:TrackPointExtension>
            <ns3:hr>106</ns3:hr>
            <ns3:cad>0</ns3:cad>
          </ns3:TrackPointExtension>
        </extensions>
      </trkpt>
      <trkpt lat="37.955797947943210601806640625" lon="-107.11280171759426593780517578125">
        <ele>3969.800048828125</ele>
        <time>2026-01-06T18:33:31.000Z</time>
        <extensions>
          <ns3:TrackPointExtension>
            <ns3:hr>105</ns3:hr>
            <ns3:cad>0</ns3:cad>
          </ns3:TrackPointExtension>
        </extensions>
      </trkpt>
      <trkpt lat="37.95580926351249217987060546875" lon="-107.11280775256454944610595703125">
        <ele>3970.199951171875</ele>
        <time>2026-01-06T18:33:35.000Z</time>
        <extensions>
          <ns3:TrackPointExtension>
            <ns3:hr>107</ns3:hr>
            <ns3:cad>0</ns3:cad>
          </ns3:TrackPointExtension>
        </extensions>
      </trkpt>
      <trkpt lat="37.95581169426441192626953125" lon="-107.1128125302493572235107421875">
        <ele>3970.60009765625</ele>
        <time>2026-01-06T18:33:38.000Z</time>
        <extensions>
          <ns3:TrackPointExtension>
            <ns3:hr>107</ns3:hr>
            <ns3:cad>0</ns3:cad>
          </ns3:TrackPointExtension>
        </extensions>
      </trkpt>
      <trkpt lat="37.95581680722534656524658203125" lon="-107.11281412281095981597900390625">
        <ele>3971</ele>
        <time>2026-01-06T18:33:41.000Z</time>
        <extensions>
          <ns3:TrackPointExtension>
            <ns3:hr>110</ns3:hr>
            <ns3:cad>0</ns3:cad>
          </ns3:TrackPointExtension>
        </extensions>
      </trkpt>
      <trkpt lat="37.955826781690120697021484375" lon="-107.11282384581863880157470703125">
        <ele>3971.199951171875</ele>
        <time>2026-01-06T18:33:44.000Z</time>
        <extensions>
          <ns3:TrackPointExtension>
            <ns3:hr>110</ns3:hr>
            <ns3:cad>0</ns3:cad>
          </ns3:TrackPointExtension>
        </extensions>
      </trkpt>
      <trkpt lat="37.9558376781642436981201171875" lon="-107.1128279529511928558349609375">
        <ele>3971.60009765625</ele>
        <time>2026-01-06T18:33:46.000Z</time>
        <extensions>
          <ns3:TrackPointExtension>
            <ns3:hr>111</ns3:hr>
            <ns3:cad>0</ns3:cad>
          </ns3:TrackPointExtension>
        </extensions>
      </trkpt>
      <trkpt lat="37.9558445513248443603515625" lon="-107.11283122189342975616455078125">
        <ele>3972.39990234375</ele>
        <time>2026-01-06T18:33:50.000Z</time>
        <extensions>
          <ns3:TrackPointExtension>
            <ns3:hr>110</ns3:hr>
            <ns3:cad>0</ns3:cad>
          </ns3:TrackPointExtension>
        </extensions>
      </trkpt>
      <trkpt lat="37.9558477364480495452880859375" lon="-107.112831138074398040771484375">
        <ele>3972.800048828125</ele>
        <time>2026-01-06T18:33:53.000Z</time>
        <extensions>
          <ns3:TrackPointExtension>
            <ns3:hr>108</ns3:hr>
            <ns3:cad>0</ns3:cad>
          </ns3:TrackPointExtension>
        </extensions>
      </trkpt>
      <trkpt lat="37.95586743392050266265869140625" lon="-107.11285091936588287353515625">
        <ele>3972.800048828125</ele>
        <time>2026-01-06T18:33:59.000Z</time>
        <extensions>
          <ns3:TrackPointExtension>
            <ns3:hr>108</ns3:hr>
            <ns3:cad>0</ns3:cad>
          </ns3:TrackPointExtension>
        </extensions>
      </trkpt>
      <trkpt lat="37.95587631873786449432373046875" lon="-107.11285360157489776611328125">
        <ele>3973.60009765625</ele>
        <time>2026-01-06T18:34:03.000Z</time>
        <extensions>
          <ns3:TrackPointExtension>
            <ns3:hr>108</ns3:hr>
            <ns3:cad>0</ns3:cad>
          </ns3:TrackPointExtension>
        </extensions>
      </trkpt>
      <trkpt lat="37.95587179251015186309814453125" lon="-107.11285267956554889678955078125">
        <ele>3973.800048828125</ele>
        <time>2026-01-06T18:34:05.000Z</time>
        <extensions>
          <ns3:TrackPointExtension>
            <ns3:hr>106</ns3:hr>
            <ns3:cad>0</ns3:cad>
          </ns3:TrackPointExtension>
        </extensions>
      </trkpt>
      <trkpt lat="37.95588503591716289520263671875" lon="-107.11285653524100780487060546875">
        <ele>3974.199951171875</ele>
        <time>2026-01-06T18:34:11.000Z</time>
        <extensions>
          <ns3:TrackPointExtension>
            <ns3:hr>104</ns3:hr>
            <ns3:cad>0</ns3:cad>
          </ns3:TrackPointExtension>
        </extensions>
      </trkpt>
      <trkpt lat="37.95588453300297260284423828125" lon="-107.1128598041832447052001953125">
        <ele>3974.199951171875</ele>
        <time>2026-01-06T18:34:12.000Z</time>
        <extensions>
          <ns3:TrackPointExtension>
            <ns3:hr>104</ns3:hr>
            <ns3:cad>0</ns3:cad>
          </ns3:TrackPointExtension>
        </extensions>
      </trkpt>
      <trkpt lat="37.95589140616357326507568359375" lon="-107.1128651686012744903564453125">
        <ele>3974.60009765625</ele>
        <time>2026-01-06T18:34:14.000Z</time>
        <extensions>
          <ns3:TrackPointExtension>
            <ns3:hr>104</ns3:hr>
            <ns3:cad>0</ns3:cad>
          </ns3:TrackPointExtension>
        </extensions>
      </trkpt>
      <trkpt lat="37.9558943398296833038330078125" lon="-107.112863995134830474853515625">
        <ele>3975</ele>
        <time>2026-01-06T18:34:19.000Z</time>
        <extensions>
          <ns3:TrackPointExtension>
            <ns3:hr>103</ns3:hr>
            <ns3:cad>0</ns3:cad>
          </ns3:TrackPointExtension>
        </extensions>
      </trkpt>
      <trkpt lat="37.95589291490614414215087890625" lon="-107.1128638274967670440673828125">
        <ele>3974.60009765625</ele>
        <time>2026-01-06T18:34:25.000Z</time>
        <extensions>
          <ns3:TrackPointExtension>
            <ns3:hr>102</ns3:hr>
            <ns3:cad>0</ns3:cad>
          </ns3:TrackPointExtension>
        </extensions>
      </trkpt>
      <trkpt lat="37.95589291490614414215087890625" lon="-107.1128638274967670440673828125">
        <ele>3974.800048828125</ele>
        <time>2026-01-06T18:34:31.000Z</time>
        <extensions>
          <ns3:TrackPointExtension>
            <ns3:hr>102</ns3:hr>
            <ns3:cad>0</ns3:cad>
          </ns3:TrackPointExtension>
        </extensions>
      </trkpt>
      <trkpt lat="37.95589291490614414215087890625" lon="-107.1128638274967670440673828125">
        <ele>3974.60009765625</ele>
        <time>2026-01-06T18:34:32.000Z</time>
        <extensions>
          <ns3:TrackPointExtension>
            <ns3:hr>102</ns3:hr>
            <ns3:cad>0</ns3:cad>
          </ns3:TrackPointExtension>
        </extensions>
      </trkpt>
      <trkpt lat="37.95589291490614414215087890625" lon="-107.1128638274967670440673828125">
        <ele>3974.39990234375</ele>
        <time>2026-01-06T18:34:38.000Z</time>
        <extensions>
          <ns3:TrackPointExtension>
            <ns3:hr>101</ns3:hr>
            <ns3:cad>0</ns3:cad>
          </ns3:TrackPointExtension>
        </extensions>
      </trkpt>
      <trkpt lat="37.95589291490614414215087890625" lon="-107.1128638274967670440673828125">
        <ele>3973.800048828125</ele>
        <time>2026-01-06T18:34:44.000Z</time>
        <extensions>
          <ns3:TrackPointExtension>
            <ns3:hr>119</ns3:hr>
            <ns3:cad>0</ns3:cad>
          </ns3:TrackPointExtension>
        </extensions>
      </trkpt>
      <trkpt lat="37.95589291490614414215087890625" lon="-107.1128638274967670440673828125">
        <ele>3973.800048828125</ele>
        <time>2026-01-06T18:34:45.000Z</time>
        <extensions>
          <ns3:TrackPointExtension>
            <ns3:hr>131</ns3:hr>
            <ns3:cad>0</ns3:cad>
          </ns3:TrackPointExtension>
        </extensions>
      </trkpt>
      <trkpt lat="37.95589291490614414215087890625" lon="-107.1128638274967670440673828125">
        <ele>3974</ele>
        <time>2026-01-06T18:34:46.000Z</time>
        <extensions>
          <ns3:TrackPointExtension>
            <ns3:hr>131</ns3:hr>
            <ns3:cad>0</ns3:cad>
          </ns3:TrackPointExtension>
        </extensions>
      </trkpt>
      <trkpt lat="37.95589291490614414215087890625" lon="-107.1128638274967670440673828125">
        <ele>3974.39990234375</ele>
        <time>2026-01-06T18:34:52.000Z</time>
        <extensions>
          <ns3:TrackPointExtension>
            <ns3:hr>129</ns3:hr>
            <ns3:cad>0</ns3:cad>
          </ns3:TrackPointExtension>
        </extensions>
      </trkpt>
      <trkpt lat="37.95589291490614414215087890625" lon="-107.1128638274967670440673828125">
        <ele>3974.60009765625</ele>
        <time>2026-01-06T18:34:56.000Z</time>
        <extensions>
          <ns3:TrackPointExtension>
            <ns3:hr>126</ns3:hr>
            <ns3:cad>0</ns3:cad>
          </ns3:TrackPointExtension>
        </extensions>
      </trkpt>
      <trkpt lat="37.95589291490614414215087890625" lon="-107.1128638274967670440673828125">
        <ele>3974.60009765625</ele>
        <time>2026-01-06T18:35:02.000Z</time>
        <extensions>
          <ns3:TrackPointExtension>
            <ns3:hr>125</ns3:hr>
            <ns3:cad>0</ns3:cad>
          </ns3:TrackPointExtension>
        </extensions>
      </trkpt>
      <trkpt lat="37.95589291490614414215087890625" lon="-107.1128638274967670440673828125">
        <ele>3974.60009765625</ele>
        <time>2026-01-06T18:35:03.000Z</time>
        <extensions>
          <ns3:TrackPointExtension>
            <ns3:hr>125</ns3:hr>
            <ns3:cad>0</ns3:cad>
          </ns3:TrackPointExtension>
        </extensions>
      </trkpt>
      <trkpt lat="37.95589291490614414215087890625" lon="-107.1128638274967670440673828125">
        <ele>3975</ele>
        <time>2026-01-06T18:35:09.000Z</time>
        <extensions>
          <ns3:TrackPointExtension>
            <ns3:hr>123</ns3:hr>
            <ns3:cad>0</ns3:cad>
          </ns3:TrackPointExtension>
        </extensions>
      </trkpt>
      <trkpt lat="37.95589291490614414215087890625" lon="-107.1128638274967670440673828125">
        <ele>3975</ele>
        <time>2026-01-06T18:35:15.000Z</time>
        <extensions>
          <ns3:TrackPointExtension>
            <ns3:hr>122</ns3:hr>
            <ns3:cad>0</ns3:cad>
          </ns3:TrackPointExtension>
        </extensions>
      </trkpt>
      <trkpt lat="37.95589291490614414215087890625" lon="-107.1128638274967670440673828125">
        <ele>3975</ele>
        <time>2026-01-06T18:35:21.000Z</time>
        <extensions>
          <ns3:TrackPointExtension>
            <ns3:hr>121</ns3:hr>
            <ns3:cad>0</ns3:cad>
          </ns3:TrackPointExtension>
        </extensions>
      </trkpt>
      <trkpt lat="37.95589291490614414215087890625" lon="-107.1128638274967670440673828125">
        <ele>3974.800048828125</ele>
        <time>2026-01-06T18:35:27.000Z</time>
        <extensions>
          <ns3:TrackPointExtension>
            <ns3:hr>119</ns3:hr>
            <ns3:cad>0</ns3:cad>
          </ns3:TrackPointExtension>
        </extensions>
      </trkpt>
      <trkpt lat="37.95589291490614414215087890625" lon="-107.1128638274967670440673828125">
        <ele>3974.60009765625</ele>
        <time>2026-01-06T18:35:29.000Z</time>
        <extensions>
          <ns3:TrackPointExtension>
            <ns3:hr>117</ns3:hr>
            <ns3:cad>0</ns3:cad>
          </ns3:TrackPointExtension>
        </extensions>
      </trkpt>
      <trkpt lat="37.95589291490614414215087890625" lon="-107.1128638274967670440673828125">
        <ele>3975.199951171875</ele>
        <time>2026-01-06T18:35:35.000Z</time>
        <extensions>
          <ns3:TrackPointExtension>
            <ns3:hr>117</ns3:hr>
            <ns3:cad>0</ns3:cad>
          </ns3:TrackPointExtension>
        </extensions>
      </trkpt>
      <trkpt lat="37.95589291490614414215087890625" lon="-107.1128638274967670440673828125">
        <ele>3975.39990234375</ele>
        <time>2026-01-06T18:35:41.000Z</time>
        <extensions>
          <ns3:TrackPointExtension>
            <ns3:hr>114</ns3:hr>
            <ns3:cad>0</ns3:cad>
          </ns3:TrackPointExtension>
        </extensions>
      </trkpt>
      <trkpt lat="37.95589291490614414215087890625" lon="-107.1128638274967670440673828125">
        <ele>3974.39990234375</ele>
        <time>2026-01-06T18:35:47.000Z</time>
        <extensions>
          <ns3:TrackPointExtension>
            <ns3:hr>114</ns3:hr>
            <ns3:cad>0</ns3:cad>
          </ns3:TrackPointExtension>
        </extensions>
      </trkpt>
      <trkpt lat="37.95589291490614414215087890625" lon="-107.1128638274967670440673828125">
        <ele>3974.39990234375</ele>
        <time>2026-01-06T18:35:50.000Z</time>
        <extensions>
          <ns3:TrackPointExtension>
            <ns3:hr>115</ns3:hr>
            <ns3:cad>0</ns3:cad>
          </ns3:TrackPointExtension>
        </extensions>
      </trkpt>
      <trkpt lat="37.95590381138026714324951171875" lon="-107.112876065075397491455078125">
        <ele>3974.800048828125</ele>
        <time>2026-01-06T18:35:56.000Z</time>
        <extensions>
          <ns3:TrackPointExtension>
            <ns3:hr>115</ns3:hr>
            <ns3:cad>0</ns3:cad>
          </ns3:TrackPointExtension>
        </extensions>
      </trkpt>
      <trkpt lat="37.95590381138026714324951171875" lon="-107.112876065075397491455078125">
        <ele>3975.199951171875</ele>
        <time>2026-01-06T18:36:02.000Z</time>
        <extensions>
          <ns3:TrackPointExtension>
            <ns3:hr>115</ns3:hr>
            <ns3:cad>0</ns3:cad>
          </ns3:TrackPointExtension>
        </extensions>
      </trkpt>
      <trkpt lat="37.95590381138026714324951171875" lon="-107.112876065075397491455078125">
        <ele>3974.800048828125</ele>
        <time>2026-01-06T18:36:04.000Z</time>
        <extensions>
          <ns3:TrackPointExtension>
            <ns3:hr>115</ns3:hr>
            <ns3:cad>0</ns3:cad>
          </ns3:TrackPointExtension>
        </extensions>
      </trkpt>
      <trkpt lat="37.95590381138026714324951171875" lon="-107.112876065075397491455078125">
        <ele>3974.800048828125</ele>
        <time>2026-01-06T18:36:10.000Z</time>
        <extensions>
          <ns3:TrackPointExtension>
            <ns3:hr>115</ns3:hr>
            <ns3:cad>0</ns3:cad>
          </ns3:TrackPointExtension>
        </extensions>
      </trkpt>
      <trkpt lat="37.95590381138026714324951171875" lon="-107.112876065075397491455078125">
        <ele>3974.199951171875</ele>
        <time>2026-01-06T18:36:16.000Z</time>
        <extensions>
          <ns3:TrackPointExtension>
            <ns3:hr>115</ns3:hr>
            <ns3:cad>0</ns3:cad>
          </ns3:TrackPointExtension>
        </extensions>
      </trkpt>
      <trkpt lat="37.95590381138026714324951171875" lon="-107.112876065075397491455078125">
        <ele>3974</ele>
        <time>2026-01-06T18:36:18.000Z</time>
        <extensions>
          <ns3:TrackPointExtension>
            <ns3:hr>115</ns3:hr>
            <ns3:cad>0</ns3:cad>
          </ns3:TrackPointExtension>
        </extensions>
      </trkpt>
      <trkpt lat="37.95590381138026714324951171875" lon="-107.112876065075397491455078125">
        <ele>3973.60009765625</ele>
        <time>2026-01-06T18:36:24.000Z</time>
        <extensions>
          <ns3:TrackPointExtension>
            <ns3:hr>115</ns3:hr>
            <ns3:cad>0</ns3:cad>
          </ns3:TrackPointExtension>
        </extensions>
      </trkpt>
      <trkpt lat="37.95590381138026714324951171875" lon="-107.112876065075397491455078125">
        <ele>3973.39990234375</ele>
        <time>2026-01-06T18:36:28.000Z</time>
        <extensions>
          <ns3:TrackPointExtension>
            <ns3:hr>117</ns3:hr>
            <ns3:cad>0</ns3:cad>
          </ns3:TrackPointExtension>
        </extensions>
      </trkpt>
      <trkpt lat="37.95590381138026714324951171875" lon="-107.112876065075397491455078125">
        <ele>3973.60009765625</ele>
        <time>2026-01-06T18:36:34.000Z</time>
        <extensions>
          <ns3:TrackPointExtension>
            <ns3:hr>116</ns3:hr>
            <ns3:cad>0</ns3:cad>
          </ns3:TrackPointExtension>
        </extensions>
      </trkpt>
      <trkpt lat="37.95590381138026714324951171875" lon="-107.112876065075397491455078125">
        <ele>3973.800048828125</ele>
        <time>2026-01-06T18:36:40.000Z</time>
        <extensions>
          <ns3:TrackPointExtension>
            <ns3:hr>115</ns3:hr>
            <ns3:cad>0</ns3:cad>
          </ns3:TrackPointExtension>
        </extensions>
      </trkpt>
      <trkpt lat="37.95590381138026714324951171875" lon="-107.112876065075397491455078125">
        <ele>3973.800048828125</ele>
        <time>2026-01-06T18:36:41.000Z</time>
        <extensions>
          <ns3:TrackPointExtension>
            <ns3:hr>115</ns3:hr>
            <ns3:cad>0</ns3:cad>
          </ns3:TrackPointExtension>
        </extensions>
      </trkpt>
      <trkpt lat="37.95590381138026714324951171875" lon="-107.112876065075397491455078125">
        <ele>3973.39990234375</ele>
        <time>2026-01-06T18:36:47.000Z</time>
        <extensions>
          <ns3:TrackPointExtension>
            <ns3:hr>114</ns3:hr>
            <ns3:cad>0</ns3:cad>
          </ns3:TrackPointExtension>
        </extensions>
      </trkpt>
      <trkpt lat="37.95590582303702831268310546875" lon="-107.11287430487573146820068359375">
        <ele>3973.60009765625</ele>
        <time>2026-01-06T18:36:53.000Z</time>
        <extensions>
          <ns3:TrackPointExtension>
            <ns3:hr>114</ns3:hr>
            <ns3:cad>0</ns3:cad>
          </ns3:TrackPointExtension>
        </extensions>
      </trkpt>
      <trkpt lat="37.95592878945171833038330078125" lon="-107.11288536898791790008544921875">
        <ele>3974.60009765625</ele>
        <time>2026-01-06T18:36:57.000Z</time>
        <extensions>
          <ns3:TrackPointExtension>
            <ns3:hr>113</ns3:hr>
            <ns3:cad>0</ns3:cad>
          </ns3:TrackPointExtension>
        </extensions>
      </trkpt>
      <trkpt lat="37.95592811889946460723876953125" lon="-107.1128859557211399078369140625">
        <ele>3975</ele>
        <time>2026-01-06T18:36:59.000Z</time>
        <extensions>
          <ns3:TrackPointExtension>
            <ns3:hr>113</ns3:hr>
            <ns3:cad>0</ns3:cad>
          </ns3:TrackPointExtension>
        </extensions>
      </trkpt>
      <trkpt lat="37.95594840310513973236083984375" lon="-107.1128933317959308624267578125">
        <ele>3975.199951171875</ele>
        <time>2026-01-06T18:37:05.000Z</time>
        <extensions>
          <ns3:TrackPointExtension>
            <ns3:hr>113</ns3:hr>
            <ns3:cad>0</ns3:cad>
          </ns3:TrackPointExtension>
        </extensions>
      </trkpt>
      <trkpt lat="37.95595762319862842559814453125" lon="-107.11289509199559688568115234375">
        <ele>3975.39990234375</ele>
        <time>2026-01-06T18:37:06.000Z</time>
        <extensions>
          <ns3:TrackPointExtension>
            <ns3:hr>114</ns3:hr>
            <ns3:cad>0</ns3:cad>
          </ns3:TrackPointExtension>
        </extensions>
      </trkpt>
      <trkpt lat="37.9559607245028018951416015625" lon="-107.11289593018591403961181640625">
        <ele>3975.60009765625</ele>
        <time>2026-01-06T18:37:07.000Z</time>
        <extensions>
          <ns3:TrackPointExtension>
            <ns3:hr>114</ns3:hr>
            <ns3:cad>0</ns3:cad>
          </ns3:TrackPointExtension>
        </extensions>
      </trkpt>
      <trkpt lat="37.95600288547575473785400390625" lon="-107.1129013784229755401611328125">
        <ele>3976.39990234375</ele>
        <time>2026-01-06T18:37:13.000Z</time>
        <extensions>
          <ns3:TrackPointExtension>
            <ns3:hr>115</ns3:hr>
            <ns3:cad>0</ns3:cad>
          </ns3:TrackPointExtension>
        </extensions>
      </trkpt>
      <trkpt lat="37.95601495541632175445556640625" lon="-107.11290364153683185577392578125">
        <ele>3976.800048828125</ele>
        <time>2026-01-06T18:37:15.000Z</time>
        <extensions>
          <ns3:TrackPointExtension>
            <ns3:hr>116</ns3:hr>
            <ns3:cad>0</ns3:cad>
          </ns3:TrackPointExtension>
        </extensions>
      </trkpt>
      <trkpt lat="37.95603557489812374114990234375" lon="-107.11290783248841762542724609375">
        <ele>3977.39990234375</ele>
        <time>2026-01-06T18:37:18.000Z</time>
        <extensions>
          <ns3:TrackPointExtension>
            <ns3:hr>119</ns3:hr>
            <ns3:cad>0</ns3:cad>
          </ns3:TrackPointExtension>
        </extensions>
      </trkpt>
      <trkpt lat="37.956044711172580718994140625" lon="-107.1129040606319904327392578125">
        <ele>3977.60009765625</ele>
        <time>2026-01-06T18:37:20.000Z</time>
        <extensions>
          <ns3:TrackPointExtension>
            <ns3:hr>121</ns3:hr>
            <ns3:cad>0</ns3:cad>
          </ns3:TrackPointExtension>
        </extensions>
      </trkpt>
      <trkpt lat="37.9560499079525470733642578125" lon="-107.1129037253558635711669921875">
        <ele>3977.800048828125</ele>
        <time>2026-01-06T18:37:21.000Z</time>
        <extensions>
          <ns3:TrackPointExtension>
            <ns3:hr>122</ns3:hr>
            <ns3:cad>0</ns3:cad>
          </ns3:TrackPointExtension>
        </extensions>
      </trkpt>
      <trkpt lat="37.95606088824570178985595703125" lon="-107.11289710365235805511474609375">
        <ele>3978</ele>
        <time>2026-01-06T18:37:24.000Z</time>
        <extensions>
          <ns3:TrackPointExtension>
            <ns3:hr>125</ns3:hr>
            <ns3:cad>0</ns3:cad>
          </ns3:TrackPointExtension>
        </extensions>
      </trkpt>
      <trkpt lat="37.9560777358710765838623046875" lon="-107.1128886379301548004150390625">
        <ele>3978.60009765625</ele>
        <time>2026-01-06T18:37:27.000Z</time>
        <extensions>
          <ns3:TrackPointExtension>
            <ns3:hr>128</ns3:hr>
            <ns3:cad>0</ns3:cad>
          </ns3:TrackPointExtension>
        </extensions>
      </trkpt>
      <trkpt lat="37.95607999898493289947509765625" lon="-107.11288939230144023895263671875">
        <ele>3979</ele>
        <time>2026-01-06T18:37:29.000Z</time>
        <extensions>
          <ns3:TrackPointExtension>
            <ns3:hr>130</ns3:hr>
            <ns3:cad>0</ns3:cad>
          </ns3:TrackPointExtension>
        </extensions>
      </trkpt>
      <trkpt lat="37.95609290711581707000732421875" lon="-107.1128918230533599853515625">
        <ele>3979.199951171875</ele>
        <time>2026-01-06T18:37:32.000Z</time>
        <extensions>
          <ns3:TrackPointExtension>
            <ns3:hr>132</ns3:hr>
            <ns3:cad>0</ns3:cad>
          </ns3:TrackPointExtension>
        </extensions>
      </trkpt>
      <trkpt lat="37.9561266861855983734130859375" lon="-107.11289517581462860107421875">
        <ele>3980</ele>
        <time>2026-01-06T18:37:37.000Z</time>
        <extensions>
          <ns3:TrackPointExtension>
            <ns3:hr>134</ns3:hr>
            <ns3:cad>0</ns3:cad>
          </ns3:TrackPointExtension>
        </extensions>
      </trkpt>
      <trkpt lat="37.956140935420989990234375" lon="-107.1128946729004383087158203125">
        <ele>3980.199951171875</ele>
        <time>2026-01-06T18:37:43.000Z</time>
        <extensions>
          <ns3:TrackPointExtension>
            <ns3:hr>135</ns3:hr>
            <ns3:cad>0</ns3:cad>
          </ns3:TrackPointExtension>
        </extensions>
      </trkpt>
      <trkpt lat="37.95614965260028839111328125" lon="-107.11289584636688232421875">
        <ele>3980.199951171875</ele>
        <time>2026-01-06T18:37:44.000Z</time>
        <extensions>
          <ns3:TrackPointExtension>
            <ns3:hr>135</ns3:hr>
            <ns3:cad>0</ns3:cad>
          </ns3:TrackPointExtension>
        </extensions>
      </trkpt>
      <trkpt lat="37.95619416050612926483154296875" lon="-107.11291269399225711822509765625">
        <ele>3980.800048828125</ele>
        <time>2026-01-06T18:37:50.000Z</time>
        <extensions>
          <ns3:TrackPointExtension>
            <ns3:hr>136</ns3:hr>
            <ns3:cad>0</ns3:cad>
          </ns3:TrackPointExtension>
        </extensions>
      </trkpt>
      <trkpt lat="37.95620740391314029693603515625" lon="-107.1129157952964305877685546875">
        <ele>3981</ele>
        <time>2026-01-06T18:37:52.000Z</time>
        <extensions>
          <ns3:TrackPointExtension>
            <ns3:hr>136</ns3:hr>
            <ns3:cad>0</ns3:cad>
          </ns3:TrackPointExtension>
        </extensions>
      </trkpt>
      <trkpt lat="37.956235818564891815185546875" lon="-107.11292509920895099639892578125">
        <ele>3981.800048828125</ele>
        <time>2026-01-06T18:37:57.000Z</time>
        <extensions>
          <ns3:TrackPointExtension>
            <ns3:hr>138</ns3:hr>
            <ns3:cad>0</ns3:cad>
          </ns3:TrackPointExtension>
        </extensions>
      </trkpt>
      <trkpt lat="37.9562527500092983245849609375" lon="-107.11292945779860019683837890625">
        <ele>3982.199951171875</ele>
        <time>2026-01-06T18:38:00.000Z</time>
        <extensions>
          <ns3:TrackPointExtension>
            <ns3:hr>138</ns3:hr>
            <ns3:cad>51</ns3:cad>
          </ns3:TrackPointExtension>
        </extensions>
      </trkpt>
      <trkpt lat="37.95626699924468994140625" lon="-107.11293096654117107391357421875">
        <ele>3982.39990234375</ele>
        <time>2026-01-06T18:38:03.000Z</time>
        <extensions>
          <ns3:TrackPointExtension>
            <ns3:hr>139</ns3:hr>
            <ns3:cad>51</ns3:cad>
          </ns3:TrackPointExtension>
        </extensions>
      </trkpt>
      <trkpt lat="37.95629524625837802886962890625" lon="-107.1129094250500202178955078125">
        <ele>3983.199951171875</ele>
        <time>2026-01-06T18:38:09.000Z</time>
        <extensions>
          <ns3:TrackPointExtension>
            <ns3:hr>140</ns3:hr>
            <ns3:cad>0</ns3:cad>
          </ns3:TrackPointExtension>
        </extensions>
      </trkpt>
      <trkpt lat="37.9563005268573760986328125" lon="-107.11290992796421051025390625">
        <ele>3983.199951171875</ele>
        <time>2026-01-06T18:38:10.000Z</time>
        <extensions>
          <ns3:TrackPointExtension>
            <ns3:hr>140</ns3:hr>
            <ns3:cad>0</ns3:cad>
          </ns3:TrackPointExtension>
        </extensions>
      </trkpt>
      <trkpt lat="37.95632944442331790924072265625" lon="-107.11290950886905193328857421875">
        <ele>3983.199951171875</ele>
        <time>2026-01-06T18:38:15.000Z</time>
        <extensions>
          <ns3:TrackPointExtension>
            <ns3:hr>137</ns3:hr>
            <ns3:cad>0</ns3:cad>
          </ns3:TrackPointExtension>
        </extensions>
      </trkpt>
      <trkpt lat="37.9563442803919315338134765625" lon="-107.1129094250500202178955078125">
        <ele>3983.60009765625</ele>
        <time>2026-01-06T18:38:17.000Z</time>
        <extensions>
          <ns3:TrackPointExtension>
            <ns3:hr>134</ns3:hr>
            <ns3:cad>0</ns3:cad>
          </ns3:TrackPointExtension>
        </extensions>
      </trkpt>
      <trkpt lat="37.956347800791263580322265625" lon="-107.11290515027940273284912109375">
        <ele>3983.60009765625</ele>
        <time>2026-01-06T18:38:18.000Z</time>
        <extensions>
          <ns3:TrackPointExtension>
            <ns3:hr>132</ns3:hr>
            <ns3:cad>0</ns3:cad>
          </ns3:TrackPointExtension>
        </extensions>
      </trkpt>
      <trkpt lat="37.956367246806621551513671875" lon="-107.11291051469743251800537109375">
        <ele>3984.199951171875</ele>
        <time>2026-01-06T18:38:23.000Z</time>
        <extensions>
          <ns3:TrackPointExtension>
            <ns3:hr>133</ns3:hr>
            <ns3:cad>0</ns3:cad>
          </ns3:TrackPointExtension>
        </extensions>
      </trkpt>
      <trkpt lat="37.95637185685336589813232421875" lon="-107.112910263240337371826171875">
        <ele>3984.39990234375</ele>
        <time>2026-01-06T18:38:24.000Z</time>
        <extensions>
          <ns3:TrackPointExtension>
            <ns3:hr>133</ns3:hr>
            <ns3:cad>0</ns3:cad>
          </ns3:TrackPointExtension>
        </extensions>
      </trkpt>
      <trkpt lat="37.95638292096555233001708984375" lon="-107.11291856132447719573974609375">
        <ele>3985</ele>
        <time>2026-01-06T18:38:27.000Z</time>
        <extensions>
          <ns3:TrackPointExtension>
            <ns3:hr>126</ns3:hr>
            <ns3:cad>0</ns3:cad>
          </ns3:TrackPointExtension>
        </extensions>
      </trkpt>
      <trkpt lat="37.95638392679393291473388671875" lon="-107.1129159629344940185546875">
        <ele>3985</ele>
        <time>2026-01-06T18:38:28.000Z</time>
        <extensions>
          <ns3:TrackPointExtension>
            <ns3:hr>122</ns3:hr>
            <ns3:cad>0</ns3:cad>
          </ns3:TrackPointExtension>
        </extensions>
      </trkpt>
      <trkpt lat="37.95639147050678730010986328125" lon="-107.112919986248016357421875">
        <ele>3985</ele>
        <time>2026-01-06T18:38:29.000Z</time>
        <extensions>
          <ns3:TrackPointExtension>
            <ns3:hr>119</ns3:hr>
            <ns3:cad>0</ns3:cad>
          </ns3:TrackPointExtension>
        </extensions>
      </trkpt>
      <trkpt lat="37.9563959129154682159423828125" lon="-107.112919650971889495849609375">
        <ele>3985</ele>
        <time>2026-01-06T18:38:30.000Z</time>
        <extensions>
          <ns3:TrackPointExtension>
            <ns3:hr>118</ns3:hr>
            <ns3:cad>0</ns3:cad>
          </ns3:TrackPointExtension>
        </extensions>
      </trkpt>
      <trkpt lat="37.956430613994598388671875" lon="-107.1129168011248111724853515625">
        <ele>3985.199951171875</ele>
        <time>2026-01-06T18:38:36.000Z</time>
        <extensions>
          <ns3:TrackPointExtension>
            <ns3:hr>117</ns3:hr>
            <ns3:cad>0</ns3:cad>
          </ns3:TrackPointExtension>
        </extensions>
      </trkpt>
      <trkpt lat="37.95643505640327930450439453125" lon="-107.1129186451435089111328125">
        <ele>3985.199951171875</ele>
        <time>2026-01-06T18:38:37.000Z</time>
        <extensions>
          <ns3:TrackPointExtension>
            <ns3:hr>118</ns3:hr>
            <ns3:cad>0</ns3:cad>
          </ns3:TrackPointExtension>
        </extensions>
      </trkpt>
      <trkpt lat="37.956443019211292266845703125" lon="-107.1129231713712215423583984375">
        <ele>3985.39990234375</ele>
        <time>2026-01-06T18:38:38.000Z</time>
        <extensions>
          <ns3:TrackPointExtension>
            <ns3:hr>119</ns3:hr>
            <ns3:cad>0</ns3:cad>
          </ns3:TrackPointExtension>
        </extensions>
      </trkpt>
      <trkpt lat="37.95647688210010528564453125" lon="-107.11291118524968624114990234375">
        <ele>3986</ele>
        <time>2026-01-06T18:38:44.000Z</time>
        <extensions>
          <ns3:TrackPointExtension>
            <ns3:hr>120</ns3:hr>
            <ns3:cad>0</ns3:cad>
          </ns3:TrackPointExtension>
        </extensions>
      </trkpt>
      <trkpt lat="37.95648886822164058685302734375" lon="-107.112906239926815032958984375">
        <ele>3986.39990234375</ele>
        <time>2026-01-06T18:38:46.000Z</time>
        <extensions>
          <ns3:TrackPointExtension>
            <ns3:hr>120</ns3:hr>
            <ns3:cad>0</ns3:cad>
          </ns3:TrackPointExtension>
        </extensions>
      </trkpt>
      <trkpt lat="37.9565209709107875823974609375" lon="-107.112908922135829925537109375">
        <ele>3987.39990234375</ele>
        <time>2026-01-06T18:38:50.000Z</time>
        <extensions>
          <ns3:TrackPointExtension>
            <ns3:hr>120</ns3:hr>
            <ns3:cad>0</ns3:cad>
          </ns3:TrackPointExtension>
        </extensions>
      </trkpt>
      <trkpt lat="37.95652516186237335205078125" lon="-107.11290724575519561767578125">
        <ele>3987.60009765625</ele>
        <time>2026-01-06T18:38:51.000Z</time>
        <extensions>
          <ns3:TrackPointExtension>
            <ns3:hr>120</ns3:hr>
            <ns3:cad>0</ns3:cad>
          </ns3:TrackPointExtension>
        </extensions>
      </trkpt>
      <trkpt lat="37.9565498046576976776123046875" lon="-107.1129052340984344482421875">
        <ele>3987.60009765625</ele>
        <time>2026-01-06T18:38:54.000Z</time>
        <extensions>
          <ns3:TrackPointExtension>
            <ns3:hr>120</ns3:hr>
            <ns3:cad>0</ns3:cad>
          </ns3:TrackPointExtension>
        </extensions>
      </trkpt>
      <trkpt lat="37.95657805167138576507568359375" lon="-107.1128986962139606475830078125">
        <ele>3987</ele>
        <time>2026-01-06T18:38:59.000Z</time>
        <extensions>
          <ns3:TrackPointExtension>
            <ns3:hr>121</ns3:hr>
            <ns3:cad>0</ns3:cad>
          </ns3:TrackPointExtension>
        </extensions>
      </trkpt>
      <trkpt lat="37.95661090873181819915771484375" lon="-107.11289517581462860107421875">
        <ele>3987.60009765625</ele>
        <time>2026-01-06T18:39:05.000Z</time>
        <extensions>
          <ns3:TrackPointExtension>
            <ns3:hr>122</ns3:hr>
            <ns3:cad>0</ns3:cad>
          </ns3:TrackPointExtension>
        </extensions>
      </trkpt>
      <trkpt lat="37.95663253404200077056884765625" lon="-107.112890146672725677490234375">
        <ele>3988.60009765625</ele>
        <time>2026-01-06T18:39:11.000Z</time>
        <extensions>
          <ns3:TrackPointExtension>
            <ns3:hr>121</ns3:hr>
            <ns3:cad>0</ns3:cad>
          </ns3:TrackPointExtension>
        </extensions>
      </trkpt>
      <trkpt lat="37.956660948693752288818359375" lon="-107.1128876321017742156982421875">
        <ele>3989.39990234375</ele>
        <time>2026-01-06T18:39:17.000Z</time>
        <extensions>
          <ns3:TrackPointExtension>
            <ns3:hr>122</ns3:hr>
            <ns3:cad>0</ns3:cad>
          </ns3:TrackPointExtension>
        </extensions>
      </trkpt>
      <trkpt lat="37.9566688276827335357666015625" lon="-107.1128906495869159698486328125">
        <ele>3989.60009765625</ele>
        <time>2026-01-06T18:39:18.000Z</time>
        <extensions>
          <ns3:TrackPointExtension>
            <ns3:hr>122</ns3:hr>
            <ns3:cad>0</ns3:cad>
          </ns3:TrackPointExtension>
        </extensions>
      </trkpt>
      <trkpt lat="37.95670218765735626220703125" lon="-107.11290179751813411712646484375">
        <ele>3989.60009765625</ele>
        <time>2026-01-06T18:39:24.000Z</time>
        <extensions>
          <ns3:TrackPointExtension>
            <ns3:hr>124</ns3:hr>
            <ns3:cad>0</ns3:cad>
          </ns3:TrackPointExtension>
        </extensions>
      </trkpt>
      <trkpt lat="37.956732027232646942138671875" lon="-107.1129090897738933563232421875">
        <ele>3990.199951171875</ele>
        <time>2026-01-06T18:39:30.000Z</time>
        <extensions>
          <ns3:TrackPointExtension>
            <ns3:hr>123</ns3:hr>
            <ns3:cad>0</ns3:cad>
          </ns3:TrackPointExtension>
        </extensions>
      </trkpt>
      <trkpt lat="37.956735379993915557861328125" lon="-107.11291118524968624114990234375">
        <ele>3990.199951171875</ele>
        <time>2026-01-06T18:39:35.000Z</time>
        <extensions>
          <ns3:TrackPointExtension>
            <ns3:hr>124</ns3:hr>
            <ns3:cad>0</ns3:cad>
          </ns3:TrackPointExtension>
        </extensions>
      </trkpt>
      <trkpt lat="37.956735379993915557861328125" lon="-107.11291118524968624114990234375">
        <ele>3990.800048828125</ele>
        <time>2026-01-06T18:39:39.000Z</time>
        <extensions>
          <ns3:TrackPointExtension>
            <ns3:hr>125</ns3:hr>
            <ns3:cad>0</ns3:cad>
          </ns3:TrackPointExtension>
        </extensions>
      </trkpt>
      <trkpt lat="37.956735379993915557861328125" lon="-107.11291118524968624114990234375">
        <ele>3991</ele>
        <time>2026-01-06T18:39:42.000Z</time>
        <extensions>
          <ns3:TrackPointExtension>
            <ns3:hr>128</ns3:hr>
            <ns3:cad>0</ns3:cad>
          </ns3:TrackPointExtension>
        </extensions>
      </trkpt>
      <trkpt lat="37.956735379993915557861328125" lon="-107.11291118524968624114990234375">
        <ele>3991</ele>
        <time>2026-01-06T18:39:43.000Z</time>
        <extensions>
          <ns3:TrackPointExtension>
            <ns3:hr>131</ns3:hr>
            <ns3:cad>0</ns3:cad>
          </ns3:TrackPointExtension>
        </extensions>
      </trkpt>
      <trkpt lat="37.956735379993915557861328125" lon="-107.11291118524968624114990234375">
        <ele>3991</ele>
        <time>2026-01-06T18:39:44.000Z</time>
        <extensions>
          <ns3:TrackPointExtension>
            <ns3:hr>134</ns3:hr>
            <ns3:cad>0</ns3:cad>
          </ns3:TrackPointExtension>
        </extensions>
      </trkpt>
      <trkpt lat="37.956735379993915557861328125" lon="-107.11291118524968624114990234375">
        <ele>3991</ele>
        <time>2026-01-06T18:39:45.000Z</time>
        <extensions>
          <ns3:TrackPointExtension>
            <ns3:hr>137</ns3:hr>
            <ns3:cad>0</ns3:cad>
          </ns3:TrackPointExtension>
        </extensions>
      </trkpt>
      <trkpt lat="37.956735379993915557861328125" lon="-107.11291118524968624114990234375">
        <ele>3990.800048828125</ele>
        <time>2026-01-06T18:39:46.000Z</time>
        <extensions>
          <ns3:TrackPointExtension>
            <ns3:hr>137</ns3:hr>
            <ns3:cad>0</ns3:cad>
          </ns3:TrackPointExtension>
        </extensions>
      </trkpt>
      <trkpt lat="37.956735379993915557861328125" lon="-107.11291118524968624114990234375">
        <ele>3990.60009765625</ele>
        <time>2026-01-06T18:39:50.000Z</time>
        <extensions>
          <ns3:TrackPointExtension>
            <ns3:hr>138</ns3:hr>
            <ns3:cad>0</ns3:cad>
          </ns3:TrackPointExtension>
        </extensions>
      </trkpt>
      <trkpt lat="37.956735379993915557861328125" lon="-107.11291118524968624114990234375">
        <ele>3990</ele>
        <time>2026-01-06T18:39:56.000Z</time>
        <extensions>
          <ns3:TrackPointExtension>
            <ns3:hr>136</ns3:hr>
            <ns3:cad>0</ns3:cad>
          </ns3:TrackPointExtension>
        </extensions>
      </trkpt>
      <trkpt lat="37.956735379993915557861328125" lon="-107.11291118524968624114990234375">
        <ele>3990.199951171875</ele>
        <time>2026-01-06T18:40:00.000Z</time>
        <extensions>
          <ns3:TrackPointExtension>
            <ns3:hr>133</ns3:hr>
            <ns3:cad>0</ns3:cad>
          </ns3:TrackPointExtension>
        </extensions>
      </trkpt>
      <trkpt lat="37.9567352123558521270751953125" lon="-107.11291185580193996429443359375">
        <ele>3990.39990234375</ele>
        <time>2026-01-06T18:40:05.000Z</time>
        <extensions>
          <ns3:TrackPointExtension>
            <ns3:hr>132</ns3:hr>
            <ns3:cad>0</ns3:cad>
          </ns3:TrackPointExtension>
        </extensions>
      </trkpt>
      <trkpt lat="37.956791035830974578857421875" lon="-107.11292476393282413482666015625">
        <ele>3990.800048828125</ele>
        <time>2026-01-06T18:40:11.000Z</time>
        <extensions>
          <ns3:TrackPointExtension>
            <ns3:hr>131</ns3:hr>
            <ns3:cad>0</ns3:cad>
          </ns3:TrackPointExtension>
        </extensions>
      </trkpt>
      <trkpt lat="37.95681525953114032745361328125" lon="-107.11293968372046947479248046875">
        <ele>3992</ele>
        <time>2026-01-06T18:40:16.000Z</time>
        <extensions>
          <ns3:TrackPointExtension>
            <ns3:hr>130</ns3:hr>
            <ns3:cad>0</ns3:cad>
          </ns3:TrackPointExtension>
        </extensions>
      </trkpt>
      <trkpt lat="37.9568237252533435821533203125" lon="-107.11294077336788177490234375">
        <ele>3992.199951171875</ele>
        <time>2026-01-06T18:40:17.000Z</time>
        <extensions>
          <ns3:TrackPointExtension>
            <ns3:hr>130</ns3:hr>
            <ns3:cad>0</ns3:cad>
          </ns3:TrackPointExtension>
        </extensions>
      </trkpt>
      <trkpt lat="37.9568517208099365234375" lon="-107.11294806562364101409912109375">
        <ele>3993</ele>
        <time>2026-01-06T18:40:21.000Z</time>
        <extensions>
          <ns3:TrackPointExtension>
            <ns3:hr>131</ns3:hr>
            <ns3:cad>0</ns3:cad>
          </ns3:TrackPointExtension>
        </extensions>
      </trkpt>
      <trkpt lat="37.956864126026630401611328125" lon="-107.112948484718799591064453125">
        <ele>3993.199951171875</ele>
        <time>2026-01-06T18:40:24.000Z</time>
        <extensions>
          <ns3:TrackPointExtension>
            <ns3:hr>131</ns3:hr>
            <ns3:cad>43</ns3:cad>
          </ns3:TrackPointExtension>
        </extensions>
      </trkpt>
      <trkpt lat="37.9569028504192829132080078125" lon="-107.1129486523568630218505859375">
        <ele>3994</ele>
        <time>2026-01-06T18:40:29.000Z</time>
        <extensions>
          <ns3:TrackPointExtension>
            <ns3:hr>132</ns3:hr>
            <ns3:cad>0</ns3:cad>
          </ns3:TrackPointExtension>
        </extensions>
      </trkpt>
      <trkpt lat="37.95693914406001567840576171875" lon="-107.11295225657522678375244140625">
        <ele>3994.39990234375</ele>
        <time>2026-01-06T18:40:35.000Z</time>
        <extensions>
          <ns3:TrackPointExtension>
            <ns3:hr>130</ns3:hr>
            <ns3:cad>0</ns3:cad>
          </ns3:TrackPointExtension>
        </extensions>
      </trkpt>
      <trkpt lat="37.95694836415350437164306640625" lon="-107.11295845918357372283935546875">
        <ele>3994.39990234375</ele>
        <time>2026-01-06T18:40:36.000Z</time>
        <extensions>
          <ns3:TrackPointExtension>
            <ns3:hr>129</ns3:hr>
            <ns3:cad>0</ns3:cad>
          </ns3:TrackPointExtension>
        </extensions>
      </trkpt>
      <trkpt lat="37.95697183348238468170166015625" lon="-107.112971954047679901123046875">
        <ele>3995</ele>
        <time>2026-01-06T18:40:42.000Z</time>
        <extensions>
          <ns3:TrackPointExtension>
            <ns3:hr>130</ns3:hr>
            <ns3:cad>0</ns3:cad>
          </ns3:TrackPointExtension>
        </extensions>
      </trkpt>
      <trkpt lat="37.95699723064899444580078125" lon="-107.11300137452781200408935546875">
        <ele>3996</ele>
        <time>2026-01-06T18:40:48.000Z</time>
        <extensions>
          <ns3:TrackPointExtension>
            <ns3:hr>132</ns3:hr>
            <ns3:cad>0</ns3:cad>
          </ns3:TrackPointExtension>
        </extensions>
      </trkpt>
      <trkpt lat="37.95699781738221645355224609375" lon="-107.11300422437489032745361328125">
        <ele>3996</ele>
        <time>2026-01-06T18:40:49.000Z</time>
        <extensions>
          <ns3:TrackPointExtension>
            <ns3:hr>132</ns3:hr>
            <ns3:cad>0</ns3:cad>
          </ns3:TrackPointExtension>
        </extensions>
      </trkpt>
      <trkpt lat="37.9570061154663562774658203125" lon="-107.11301076225936412811279296875">
        <ele>3996.199951171875</ele>
        <time>2026-01-06T18:40:52.000Z</time>
        <extensions>
          <ns3:TrackPointExtension>
            <ns3:hr>134</ns3:hr>
            <ns3:cad>0</ns3:cad>
          </ns3:TrackPointExtension>
        </extensions>
      </trkpt>
      <trkpt lat="37.9570071212947368621826171875" lon="-107.1130116842687129974365234375">
        <ele>3996.60009765625</ele>
        <time>2026-01-06T18:40:57.000Z</time>
        <extensions>
          <ns3:TrackPointExtension>
            <ns3:hr>135</ns3:hr>
            <ns3:cad>0</ns3:cad>
          </ns3:TrackPointExtension>
        </extensions>
      </trkpt>
      <trkpt lat="37.9570071212947368621826171875" lon="-107.1130116842687129974365234375">
        <ele>3996.199951171875</ele>
        <time>2026-01-06T18:41:03.000Z</time>
        <extensions>
          <ns3:TrackPointExtension>
            <ns3:hr>138</ns3:hr>
            <ns3:cad>0</ns3:cad>
          </ns3:TrackPointExtension>
        </extensions>
      </trkpt>
      <trkpt lat="37.9570071212947368621826171875" lon="-107.1130116842687129974365234375">
        <ele>3996.39990234375</ele>
        <time>2026-01-06T18:41:08.000Z</time>
        <extensions>
          <ns3:TrackPointExtension>
            <ns3:hr>138</ns3:hr>
            <ns3:cad>0</ns3:cad>
          </ns3:TrackPointExtension>
        </extensions>
      </trkpt>
      <trkpt lat="37.95701055787503719329833984375" lon="-107.11303473450243473052978515625">
        <ele>3996.199951171875</ele>
        <time>2026-01-06T18:41:14.000Z</time>
        <extensions>
          <ns3:TrackPointExtension>
            <ns3:hr>139</ns3:hr>
            <ns3:cad>0</ns3:cad>
          </ns3:TrackPointExtension>
        </extensions>
      </trkpt>
      <trkpt lat="37.95701256953179836273193359375" lon="-107.11303926073014736175537109375">
        <ele>3996.199951171875</ele>
        <time>2026-01-06T18:41:15.000Z</time>
        <extensions>
          <ns3:TrackPointExtension>
            <ns3:hr>138</ns3:hr>
            <ns3:cad>60</ns3:cad>
          </ns3:TrackPointExtension>
        </extensions>
      </trkpt>
      <trkpt lat="37.957019023597240447998046875" lon="-107.11307848803699016571044921875">
        <ele>3997</ele>
        <time>2026-01-06T18:41:21.000Z</time>
        <extensions>
          <ns3:TrackPointExtension>
            <ns3:hr>137</ns3:hr>
            <ns3:cad>0</ns3:cad>
          </ns3:TrackPointExtension>
        </extensions>
      </trkpt>
      <trkpt lat="37.95702246017754077911376953125" lon="-107.1130849421024322509765625">
        <ele>3997.199951171875</ele>
        <time>2026-01-06T18:41:22.000Z</time>
        <extensions>
          <ns3:TrackPointExtension>
            <ns3:hr>137</ns3:hr>
            <ns3:cad>56</ns3:cad>
          </ns3:TrackPointExtension>
        </extensions>
      </trkpt>
      <trkpt lat="37.95702815987169742584228515625" lon="-107.11309726350009441375732421875">
        <ele>3997.60009765625</ele>
        <time>2026-01-06T18:41:25.000Z</time>
        <extensions>
          <ns3:TrackPointExtension>
            <ns3:hr>140</ns3:hr>
            <ns3:cad>0</ns3:cad>
          </ns3:TrackPointExtension>
        </extensions>
      </trkpt>
      <trkpt lat="37.95703268609941005706787109375" lon="-107.1131142787635326385498046875">
        <ele>3997.800048828125</ele>
        <time>2026-01-06T18:41:28.000Z</time>
        <extensions>
          <ns3:TrackPointExtension>
            <ns3:hr>141</ns3:hr>
            <ns3:cad>0</ns3:cad>
          </ns3:TrackPointExtension>
        </extensions>
      </trkpt>
      <trkpt lat="37.95703218318521976470947265625" lon="-107.11312542669475078582763671875">
        <ele>3998.199951171875</ele>
        <time>2026-01-06T18:41:30.000Z</time>
        <extensions>
          <ns3:TrackPointExtension>
            <ns3:hr>141</ns3:hr>
            <ns3:cad>0</ns3:cad>
          </ns3:TrackPointExtension>
        </extensions>
      </trkpt>
      <trkpt lat="37.95703872106969356536865234375" lon="-107.113139592111110687255859375">
        <ele>3999.199951171875</ele>
        <time>2026-01-06T18:41:35.000Z</time>
        <extensions>
          <ns3:TrackPointExtension>
            <ns3:hr>144</ns3:hr>
            <ns3:cad>0</ns3:cad>
          </ns3:TrackPointExtension>
        </extensions>
      </trkpt>
      <trkpt lat="37.95703419484198093414306640625" lon="-107.11317052133381366729736328125">
        <ele>3999.199951171875</ele>
        <time>2026-01-06T18:41:39.000Z</time>
        <extensions>
          <ns3:TrackPointExtension>
            <ns3:hr>143</ns3:hr>
            <ns3:cad>0</ns3:cad>
          </ns3:TrackPointExtension>
        </extensions>
      </trkpt>
      <trkpt lat="37.95703520067036151885986328125" lon="-107.11319516412913799285888671875">
        <ele>3999.39990234375</ele>
        <time>2026-01-06T18:41:43.000Z</time>
        <extensions>
          <ns3:TrackPointExtension>
            <ns3:hr>142</ns3:hr>
            <ns3:cad>0</ns3:cad>
          </ns3:TrackPointExtension>
        </extensions>
      </trkpt>
      <trkpt lat="37.957036457955837249755859375" lon="-107.11320354603230953216552734375">
        <ele>3999.800048828125</ele>
        <time>2026-01-06T18:41:45.000Z</time>
        <extensions>
          <ns3:TrackPointExtension>
            <ns3:hr>142</ns3:hr>
            <ns3:cad>0</ns3:cad>
          </ns3:TrackPointExtension>
        </extensions>
      </trkpt>
      <trkpt lat="37.95703805051743984222412109375" lon="-107.11321461014449596405029296875">
        <ele>4000.60009765625</ele>
        <time>2026-01-06T18:41:48.000Z</time>
        <extensions>
          <ns3:TrackPointExtension>
            <ns3:hr>141</ns3:hr>
            <ns3:cad>0</ns3:cad>
          </ns3:TrackPointExtension>
        </extensions>
      </trkpt>
      <trkpt lat="37.95703620649874210357666015625" lon="-107.11322919465601444244384765625">
        <ele>4001.199951171875</ele>
        <time>2026-01-06T18:41:53.000Z</time>
        <extensions>
          <ns3:TrackPointExtension>
            <ns3:hr>141</ns3:hr>
            <ns3:cad>0</ns3:cad>
          </ns3:TrackPointExtension>
        </extensions>
      </trkpt>
      <trkpt lat="37.9570450074970722198486328125" lon="-107.1132433600723743438720703125">
        <ele>4001.800048828125</ele>
        <time>2026-01-06T18:41:56.000Z</time>
        <extensions>
          <ns3:TrackPointExtension>
            <ns3:hr>139</ns3:hr>
            <ns3:cad>0</ns3:cad>
          </ns3:TrackPointExtension>
        </extensions>
      </trkpt>
      <trkpt lat="37.957049198448657989501953125" lon="-107.1132621355354785919189453125">
        <ele>4002.199951171875</ele>
        <time>2026-01-06T18:41:59.000Z</time>
        <extensions>
          <ns3:TrackPointExtension>
            <ns3:hr>141</ns3:hr>
            <ns3:cad>0</ns3:cad>
          </ns3:TrackPointExtension>
        </extensions>
      </trkpt>
      <trkpt lat="37.95704710297286510467529296875" lon="-107.1132866106927394866943359375">
        <ele>4002.800048828125</ele>
        <time>2026-01-06T18:42:05.000Z</time>
        <extensions>
          <ns3:TrackPointExtension>
            <ns3:hr>142</ns3:hr>
            <ns3:cad>53</ns3:cad>
          </ns3:TrackPointExtension>
        </extensions>
      </trkpt>
      <trkpt lat="37.95705632306635379791259765625" lon="-107.11330312304198741912841796875">
        <ele>4003.800048828125</ele>
        <time>2026-01-06T18:42:09.000Z</time>
        <extensions>
          <ns3:TrackPointExtension>
            <ns3:hr>144</ns3:hr>
            <ns3:cad>0</ns3:cad>
          </ns3:TrackPointExtension>
        </extensions>
      </trkpt>
      <trkpt lat="37.957057915627956390380859375" lon="-107.1133124269545078277587890625">
        <ele>4004.39990234375</ele>
        <time>2026-01-06T18:42:12.000Z</time>
        <extensions>
          <ns3:TrackPointExtension>
            <ns3:hr>146</ns3:hr>
            <ns3:cad>0</ns3:cad>
          </ns3:TrackPointExtension>
        </extensions>
      </trkpt>
      <trkpt lat="37.95706034637987613677978515625" lon="-107.11332508362829685211181640625">
        <ele>4004.800048828125</ele>
        <time>2026-01-06T18:42:16.000Z</time>
        <extensions>
          <ns3:TrackPointExtension>
            <ns3:hr>146</ns3:hr>
            <ns3:cad>0</ns3:cad>
          </ns3:TrackPointExtension>
        </extensions>
      </trkpt>
      <trkpt lat="37.95705967582762241363525390625" lon="-107.1133449487388134002685546875">
        <ele>4005</ele>
        <time>2026-01-06T18:42:19.000Z</time>
        <extensions>
          <ns3:TrackPointExtension>
            <ns3:hr>147</ns3:hr>
            <ns3:cad>0</ns3:cad>
          </ns3:TrackPointExtension>
        </extensions>
      </trkpt>
      <trkpt lat="37.95706151984632015228271484375" lon="-107.113358192145824432373046875">
        <ele>4005.199951171875</ele>
        <time>2026-01-06T18:42:24.000Z</time>
        <extensions>
          <ns3:TrackPointExtension>
            <ns3:hr>144</ns3:hr>
            <ns3:cad>0</ns3:cad>
          </ns3:TrackPointExtension>
        </extensions>
      </trkpt>
      <trkpt lat="37.95706026256084442138671875" lon="-107.11336162872612476348876953125">
        <ele>4005.39990234375</ele>
        <time>2026-01-06T18:42:25.000Z</time>
        <extensions>
          <ns3:TrackPointExtension>
            <ns3:hr>141</ns3:hr>
            <ns3:cad>0</ns3:cad>
          </ns3:TrackPointExtension>
        </extensions>
      </trkpt>
      <trkpt lat="37.95706084929406642913818359375" lon="-107.113370597362518310546875">
        <ele>4005.39990234375</ele>
        <time>2026-01-06T18:42:26.000Z</time>
        <extensions>
          <ns3:TrackPointExtension>
            <ns3:hr>141</ns3:hr>
            <ns3:cad>0</ns3:cad>
          </ns3:TrackPointExtension>
        </extensions>
      </trkpt>
      <trkpt lat="37.95706369914114475250244140625" lon="-107.11338333785533905029296875">
        <ele>4005.39990234375</ele>
        <time>2026-01-06T18:42:30.000Z</time>
        <extensions>
          <ns3:TrackPointExtension>
            <ns3:hr>139</ns3:hr>
            <ns3:cad>0</ns3:cad>
          </ns3:TrackPointExtension>
        </extensions>
      </trkpt>
      <trkpt lat="37.95706202276051044464111328125" lon="-107.11339934729039669036865234375">
        <ele>4005.39990234375</ele>
        <time>2026-01-06T18:42:35.000Z</time>
        <extensions>
          <ns3:TrackPointExtension>
            <ns3:hr>139</ns3:hr>
            <ns3:cad>0</ns3:cad>
          </ns3:TrackPointExtension>
        </extensions>
      </trkpt>
      <trkpt lat="37.9570597596466541290283203125" lon="-107.113418877124786376953125">
        <ele>4005.800048828125</ele>
        <time>2026-01-06T18:42:37.000Z</time>
        <extensions>
          <ns3:TrackPointExtension>
            <ns3:hr>139</ns3:hr>
            <ns3:cad>0</ns3:cad>
          </ns3:TrackPointExtension>
        </extensions>
      </trkpt>
      <trkpt lat="37.95706084929406642913818359375" lon="-107.113427259027957916259765625">
        <ele>4005.800048828125</ele>
        <time>2026-01-06T18:42:38.000Z</time>
        <extensions>
          <ns3:TrackPointExtension>
            <ns3:hr>139</ns3:hr>
            <ns3:cad>0</ns3:cad>
          </ns3:TrackPointExtension>
        </extensions>
      </trkpt>
      <trkpt lat="37.9570671357214450836181640625" lon="-107.11345014162361621856689453125">
        <ele>4006.39990234375</ele>
        <time>2026-01-06T18:42:43.000Z</time>
        <extensions>
          <ns3:TrackPointExtension>
            <ns3:hr>136</ns3:hr>
            <ns3:cad>0</ns3:cad>
          </ns3:TrackPointExtension>
        </extensions>
      </trkpt>
      <trkpt lat="37.957068644464015960693359375" lon="-107.11345684714615345001220703125">
        <ele>4006.60009765625</ele>
        <time>2026-01-06T18:42:44.000Z</time>
        <extensions>
          <ns3:TrackPointExtension>
            <ns3:hr>136</ns3:hr>
            <ns3:cad>0</ns3:cad>
          </ns3:TrackPointExtension>
        </extensions>
      </trkpt>
      <trkpt lat="37.957064621150493621826171875" lon="-107.113468833267688751220703125">
        <ele>4007</ele>
        <time>2026-01-06T18:42:46.000Z</time>
        <extensions>
          <ns3:TrackPointExtension>
            <ns3:hr>135</ns3:hr>
            <ns3:cad>0</ns3:cad>
          </ns3:TrackPointExtension>
        </extensions>
      </trkpt>
      <trkpt lat="37.957061938941478729248046875" lon="-107.113482244312763214111328125">
        <ele>4007.39990234375</ele>
        <time>2026-01-06T18:42:50.000Z</time>
        <extensions>
          <ns3:TrackPointExtension>
            <ns3:hr>133</ns3:hr>
            <ns3:cad>0</ns3:cad>
          </ns3:TrackPointExtension>
        </extensions>
      </trkpt>
      <trkpt lat="37.957055568695068359375" lon="-107.11351451463997364044189453125">
        <ele>4007.800048828125</ele>
        <time>2026-01-06T18:42:56.000Z</time>
        <extensions>
          <ns3:TrackPointExtension>
            <ns3:hr>133</ns3:hr>
            <ns3:cad>0</ns3:cad>
          </ns3:TrackPointExtension>
        </extensions>
      </trkpt>
      <trkpt lat="37.957058250904083251953125" lon="-107.11352884769439697265625">
        <ele>4008</ele>
        <time>2026-01-06T18:43:02.000Z</time>
        <extensions>
          <ns3:TrackPointExtension>
            <ns3:hr>131</ns3:hr>
            <ns3:cad>0</ns3:cad>
          </ns3:TrackPointExtension>
        </extensions>
      </trkpt>
      <trkpt lat="37.9570564068853855133056640625" lon="-107.113551311194896697998046875">
        <ele>4008.60009765625</ele>
        <time>2026-01-06T18:43:08.000Z</time>
        <extensions>
          <ns3:TrackPointExtension>
            <ns3:hr>130</ns3:hr>
            <ns3:cad>0</ns3:cad>
          </ns3:TrackPointExtension>
        </extensions>
      </trkpt>
      <trkpt lat="37.95705716125667095184326171875" lon="-107.1135558374226093292236328125">
        <ele>4008.800048828125</ele>
        <time>2026-01-06T18:43:09.000Z</time>
        <extensions>
          <ns3:TrackPointExtension>
            <ns3:hr>129</ns3:hr>
            <ns3:cad>0</ns3:cad>
          </ns3:TrackPointExtension>
        </extensions>
      </trkpt>
      <trkpt lat="37.957059256732463836669921875" lon="-107.11356245912611484527587890625">
        <ele>4009</ele>
        <time>2026-01-06T18:43:12.000Z</time>
        <extensions>
          <ns3:TrackPointExtension>
            <ns3:hr>129</ns3:hr>
            <ns3:cad>0</ns3:cad>
          </ns3:TrackPointExtension>
        </extensions>
      </trkpt>
      <trkpt lat="37.9570569097995758056640625" lon="-107.11356380023062229156494140625">
        <ele>4009.199951171875</ele>
        <time>2026-01-06T18:43:14.000Z</time>
        <extensions>
          <ns3:TrackPointExtension>
            <ns3:hr>129</ns3:hr>
            <ns3:cad>0</ns3:cad>
          </ns3:TrackPointExtension>
        </extensions>
      </trkpt>
      <trkpt lat="37.9570654593408107757568359375" lon="-107.1135865151882171630859375">
        <ele>4010</ele>
        <time>2026-01-06T18:43:20.000Z</time>
        <extensions>
          <ns3:TrackPointExtension>
            <ns3:hr>129</ns3:hr>
            <ns3:cad>0</ns3:cad>
          </ns3:TrackPointExtension>
        </extensions>
      </trkpt>
      <trkpt lat="37.95706705190241336822509765625" lon="-107.113588862121105194091796875">
        <ele>4010.199951171875</ele>
        <time>2026-01-06T18:43:21.000Z</time>
        <extensions>
          <ns3:TrackPointExtension>
            <ns3:hr>129</ns3:hr>
            <ns3:cad>0</ns3:cad>
          </ns3:TrackPointExtension>
        </extensions>
      </trkpt>
      <trkpt lat="37.9570681415498256683349609375" lon="-107.11359548382461071014404296875">
        <ele>4010.39990234375</ele>
        <time>2026-01-06T18:43:24.000Z</time>
        <extensions>
          <ns3:TrackPointExtension>
            <ns3:hr>133</ns3:hr>
            <ns3:cad>0</ns3:cad>
          </ns3:TrackPointExtension>
        </extensions>
      </trkpt>
      <trkpt lat="37.957067973911762237548828125" lon="-107.1135957352817058563232421875">
        <ele>4010.60009765625</ele>
        <time>2026-01-06T18:43:26.000Z</time>
        <extensions>
          <ns3:TrackPointExtension>
            <ns3:hr>137</ns3:hr>
            <ns3:cad>0</ns3:cad>
          </ns3:TrackPointExtension>
        </extensions>
      </trkpt>
      <trkpt lat="37.95706537552177906036376953125" lon="-107.1135964058339595794677734375">
        <ele>4010.39990234375</ele>
        <time>2026-01-06T18:43:32.000Z</time>
        <extensions>
          <ns3:TrackPointExtension>
            <ns3:hr>137</ns3:hr>
            <ns3:cad>0</ns3:cad>
          </ns3:TrackPointExtension>
        </extensions>
      </trkpt>
      <trkpt lat="37.9570614360272884368896484375" lon="-107.1136302687227725982666015625">
        <ele>4010.60009765625</ele>
        <time>2026-01-06T18:43:37.000Z</time>
        <extensions>
          <ns3:TrackPointExtension>
            <ns3:hr>137</ns3:hr>
            <ns3:cad>0</ns3:cad>
          </ns3:TrackPointExtension>
        </extensions>
      </trkpt>
      <trkpt lat="37.957059927284717559814453125" lon="-107.113647870719432830810546875">
        <ele>4011</ele>
        <time>2026-01-06T18:43:43.000Z</time>
        <extensions>
          <ns3:TrackPointExtension>
            <ns3:hr>140</ns3:hr>
            <ns3:cad>0</ns3:cad>
          </ns3:TrackPointExtension>
        </extensions>
      </trkpt>
      <trkpt lat="37.957059256732463836669921875" lon="-107.11365264840424060821533203125">
        <ele>4011.199951171875</ele>
        <time>2026-01-06T18:43:44.000Z</time>
        <extensions>
          <ns3:TrackPointExtension>
            <ns3:hr>140</ns3:hr>
            <ns3:cad>0</ns3:cad>
          </ns3:TrackPointExtension>
        </extensions>
      </trkpt>
      <trkpt lat="37.9570595920085906982421875" lon="-107.11365759372711181640625">
        <ele>4011.39990234375</ele>
        <time>2026-01-06T18:43:45.000Z</time>
        <extensions>
          <ns3:TrackPointExtension>
            <ns3:hr>141</ns3:hr>
            <ns3:cad>0</ns3:cad>
          </ns3:TrackPointExtension>
        </extensions>
      </trkpt>
      <trkpt lat="37.95705950818955898284912109375" lon="-107.11368198506534099578857421875">
        <ele>4012.39990234375</ele>
        <time>2026-01-06T18:43:51.000Z</time>
        <extensions>
          <ns3:TrackPointExtension>
            <ns3:hr>142</ns3:hr>
            <ns3:cad>0</ns3:cad>
          </ns3:TrackPointExtension>
        </extensions>
      </trkpt>
      <trkpt lat="37.95706562697887420654296875" lon="-107.11369983851909637451171875">
        <ele>4013</ele>
        <time>2026-01-06T18:43:57.000Z</time>
        <extensions>
          <ns3:TrackPointExtension>
            <ns3:hr>142</ns3:hr>
            <ns3:cad>0</ns3:cad>
          </ns3:TrackPointExtension>
        </extensions>
      </trkpt>
      <trkpt lat="37.957072667777538299560546875" lon="-107.11370981298387050628662109375">
        <ele>4013.39990234375</ele>
        <time>2026-01-06T18:43:59.000Z</time>
        <extensions>
          <ns3:TrackPointExtension>
            <ns3:hr>141</ns3:hr>
            <ns3:cad>0</ns3:cad>
          </ns3:TrackPointExtension>
        </extensions>
      </trkpt>
      <trkpt lat="37.957082055509090423583984375" lon="-107.11372473277151584625244140625">
        <ele>4014</ele>
        <time>2026-01-06T18:44:02.000Z</time>
        <extensions>
          <ns3:TrackPointExtension>
            <ns3:hr>140</ns3:hr>
            <ns3:cad>0</ns3:cad>
          </ns3:TrackPointExtension>
        </extensions>
      </trkpt>
      <trkpt lat="37.9570849053561687469482421875" lon="-107.1137281693518161773681640625">
        <ele>4014</ele>
        <time>2026-01-06T18:44:04.000Z</time>
        <extensions>
          <ns3:TrackPointExtension>
            <ns3:hr>137</ns3:hr>
            <ns3:cad>0</ns3:cad>
          </ns3:TrackPointExtension>
        </extensions>
      </trkpt>
      <trkpt lat="37.95709404163062572479248046875" lon="-107.11373898200690746307373046875">
        <ele>4014.199951171875</ele>
        <time>2026-01-06T18:44:07.000Z</time>
        <extensions>
          <ns3:TrackPointExtension>
            <ns3:hr>136</ns3:hr>
            <ns3:cad>0</ns3:cad>
          </ns3:TrackPointExtension>
        </extensions>
      </trkpt>
      <trkpt lat="37.95710158534348011016845703125" lon="-107.11374753154814243316650390625">
        <ele>4014.60009765625</ele>
        <time>2026-01-06T18:44:09.000Z</time>
        <extensions>
          <ns3:TrackPointExtension>
            <ns3:hr>136</ns3:hr>
            <ns3:cad>0</ns3:cad>
          </ns3:TrackPointExtension>
        </extensions>
      </trkpt>
      <trkpt lat="37.957114912569522857666015625" lon="-107.1137603558599948883056640625">
        <ele>4015.60009765625</ele>
        <time>2026-01-06T18:44:13.000Z</time>
        <extensions>
          <ns3:TrackPointExtension>
            <ns3:hr>136</ns3:hr>
            <ns3:cad>0</ns3:cad>
          </ns3:TrackPointExtension>
        </extensions>
      </trkpt>
      <trkpt lat="37.95711482875049114227294921875" lon="-107.11375809274613857269287109375">
        <ele>4015.800048828125</ele>
        <time>2026-01-06T18:44:14.000Z</time>
        <extensions>
          <ns3:TrackPointExtension>
            <ns3:hr>135</ns3:hr>
            <ns3:cad>0</ns3:cad>
          </ns3:TrackPointExtension>
        </extensions>
      </trkpt>
      <trkpt lat="37.957131005823612213134765625" lon="-107.1137751080095767974853515625">
        <ele>4016.60009765625</ele>
        <time>2026-01-06T18:44:19.000Z</time>
        <extensions>
          <ns3:TrackPointExtension>
            <ns3:hr>136</ns3:hr>
            <ns3:cad>0</ns3:cad>
          </ns3:TrackPointExtension>
        </extensions>
      </trkpt>
      <trkpt lat="37.957138381898403167724609375" lon="-107.1137808077037334442138671875">
        <ele>4016.800048828125</ele>
        <time>2026-01-06T18:44:21.000Z</time>
        <extensions>
          <ns3:TrackPointExtension>
            <ns3:hr>137</ns3:hr>
            <ns3:cad>0</ns3:cad>
          </ns3:TrackPointExtension>
        </extensions>
      </trkpt>
      <trkpt lat="37.9571489430963993072509765625" lon="-107.113791368901729583740234375">
        <ele>4017</ele>
        <time>2026-01-06T18:44:26.000Z</time>
        <extensions>
          <ns3:TrackPointExtension>
            <ns3:hr>139</ns3:hr>
            <ns3:cad>0</ns3:cad>
          </ns3:TrackPointExtension>
        </extensions>
      </trkpt>
      <trkpt lat="37.95715556479990482330322265625" lon="-107.11383168585598468780517578125">
        <ele>4017.39990234375</ele>
        <time>2026-01-06T18:44:32.000Z</time>
        <extensions>
          <ns3:TrackPointExtension>
            <ns3:hr>138</ns3:hr>
            <ns3:cad>0</ns3:cad>
          </ns3:TrackPointExtension>
        </extensions>
      </trkpt>
      <trkpt lat="37.95715640299022197723388671875" lon="-107.1138337813317775726318359375">
        <ele>4017.60009765625</ele>
        <time>2026-01-06T18:44:33.000Z</time>
        <extensions>
          <ns3:TrackPointExtension>
            <ns3:hr>138</ns3:hr>
            <ns3:cad>0</ns3:cad>
          </ns3:TrackPointExtension>
        </extensions>
      </trkpt>
      <trkpt lat="37.95715472660958766937255859375" lon="-107.11383520625531673431396484375">
        <ele>4018</ele>
        <time>2026-01-06T18:44:34.000Z</time>
        <extensions>
          <ns3:TrackPointExtension>
            <ns3:hr>138</ns3:hr>
            <ns3:cad>0</ns3:cad>
          </ns3:TrackPointExtension>
        </extensions>
      </trkpt>
      <trkpt lat="37.95715749263763427734375" lon="-107.11387074552476406097412109375">
        <ele>4018.39990234375</ele>
        <time>2026-01-06T18:44:40.000Z</time>
        <extensions>
          <ns3:TrackPointExtension>
            <ns3:hr>139</ns3:hr>
            <ns3:cad>0</ns3:cad>
          </ns3:TrackPointExtension>
        </extensions>
      </trkpt>
      <trkpt lat="37.95716159977018833160400390625" lon="-107.1138834021985530853271484375">
        <ele>4019</ele>
        <time>2026-01-06T18:44:43.000Z</time>
        <extensions>
          <ns3:TrackPointExtension>
            <ns3:hr>141</ns3:hr>
            <ns3:cad>0</ns3:cad>
          </ns3:TrackPointExtension>
        </extensions>
      </trkpt>
      <trkpt lat="37.95716159977018833160400390625" lon="-107.1138834021985530853271484375">
        <ele>4019.800048828125</ele>
        <time>2026-01-06T18:44:47.000Z</time>
        <extensions>
          <ns3:TrackPointExtension>
            <ns3:hr>141</ns3:hr>
            <ns3:cad>0</ns3:cad>
          </ns3:TrackPointExtension>
        </extensions>
      </trkpt>
      <trkpt lat="37.9571633599698543548583984375" lon="-107.11389505304396152496337890625">
        <ele>4020.199951171875</ele>
        <time>2026-01-06T18:44:49.000Z</time>
        <extensions>
          <ns3:TrackPointExtension>
            <ns3:hr>140</ns3:hr>
            <ns3:cad>0</ns3:cad>
          </ns3:TrackPointExtension>
        </extensions>
      </trkpt>
      <trkpt lat="37.95716294087469577789306640625" lon="-107.1139276586472988128662109375">
        <ele>4021.39990234375</ele>
        <time>2026-01-06T18:44:53.000Z</time>
        <extensions>
          <ns3:TrackPointExtension>
            <ns3:hr>139</ns3:hr>
            <ns3:cad>0</ns3:cad>
          </ns3:TrackPointExtension>
        </extensions>
      </trkpt>
      <trkpt lat="37.95715036801993846893310546875" lon="-107.11393327452242374420166015625">
        <ele>4022.199951171875</ele>
        <time>2026-01-06T18:44:59.000Z</time>
        <extensions>
          <ns3:TrackPointExtension>
            <ns3:hr>137</ns3:hr>
            <ns3:cad>0</ns3:cad>
          </ns3:TrackPointExtension>
        </extensions>
      </trkpt>
      <trkpt lat="37.95715020038187503814697265625" lon="-107.11393277160823345184326171875">
        <ele>4021.60009765625</ele>
        <time>2026-01-06T18:45:05.000Z</time>
        <extensions>
          <ns3:TrackPointExtension>
            <ns3:hr>135</ns3:hr>
            <ns3:cad>0</ns3:cad>
          </ns3:TrackPointExtension>
        </extensions>
      </trkpt>
      <trkpt lat="37.95715103857219219207763671875" lon="-107.1139405667781829833984375">
        <ele>4021.60009765625</ele>
        <time>2026-01-06T18:45:07.000Z</time>
        <extensions>
          <ns3:TrackPointExtension>
            <ns3:hr>135</ns3:hr>
            <ns3:cad>0</ns3:cad>
          </ns3:TrackPointExtension>
        </extensions>
      </trkpt>
      <trkpt lat="37.95715036801993846893310546875" lon="-107.11393327452242374420166015625">
        <ele>4021.60009765625</ele>
        <time>2026-01-06T18:45:13.000Z</time>
        <extensions>
          <ns3:TrackPointExtension>
            <ns3:hr>134</ns3:hr>
            <ns3:cad>0</ns3:cad>
          </ns3:TrackPointExtension>
        </extensions>
      </trkpt>
      <trkpt lat="37.95715036801993846893310546875" lon="-107.11393327452242374420166015625">
        <ele>4021.60009765625</ele>
        <time>2026-01-06T18:45:17.000Z</time>
        <extensions>
          <ns3:TrackPointExtension>
            <ns3:hr>134</ns3:hr>
            <ns3:cad>0</ns3:cad>
          </ns3:TrackPointExtension>
        </extensions>
      </trkpt>
      <trkpt lat="37.9571476019918918609619140625" lon="-107.113937549293041229248046875">
        <ele>4022.199951171875</ele>
        <time>2026-01-06T18:45:23.000Z</time>
        <extensions>
          <ns3:TrackPointExtension>
            <ns3:hr>134</ns3:hr>
            <ns3:cad>0</ns3:cad>
          </ns3:TrackPointExtension>
        </extensions>
      </trkpt>
      <trkpt lat="37.95714818872511386871337890625" lon="-107.11393914185464382171630859375">
        <ele>4022.39990234375</ele>
        <time>2026-01-06T18:45:24.000Z</time>
        <extensions>
          <ns3:TrackPointExtension>
            <ns3:hr>134</ns3:hr>
            <ns3:cad>0</ns3:cad>
          </ns3:TrackPointExtension>
        </extensions>
      </trkpt>
      <trkpt lat="37.9571546427905559539794921875" lon="-107.11394668556749820709228515625">
        <ele>4022.800048828125</ele>
        <time>2026-01-06T18:45:26.000Z</time>
        <extensions>
          <ns3:TrackPointExtension>
            <ns3:hr>134</ns3:hr>
            <ns3:cad>0</ns3:cad>
          </ns3:TrackPointExtension>
        </extensions>
      </trkpt>
      <trkpt lat="37.9571559838950634002685546875" lon="-107.11398507468402385711669921875">
        <ele>4023.199951171875</ele>
        <time>2026-01-06T18:45:32.000Z</time>
        <extensions>
          <ns3:TrackPointExtension>
            <ns3:hr>132</ns3:hr>
            <ns3:cad>18</ns3:cad>
          </ns3:TrackPointExtension>
        </extensions>
      </trkpt>
      <trkpt lat="37.9571647010743618011474609375" lon="-107.114001922309398651123046875">
        <ele>4023.39990234375</ele>
        <time>2026-01-06T18:45:34.000Z</time>
        <extensions>
          <ns3:TrackPointExtension>
            <ns3:hr>132</ns3:hr>
            <ns3:cad>0</ns3:cad>
          </ns3:TrackPointExtension>
        </extensions>
      </trkpt>
      <trkpt lat="37.95716729946434497833251953125" lon="-107.11400519125163555145263671875">
        <ele>4024.60009765625</ele>
        <time>2026-01-06T18:45:39.000Z</time>
        <extensions>
          <ns3:TrackPointExtension>
            <ns3:hr>134</ns3:hr>
            <ns3:cad>0</ns3:cad>
          </ns3:TrackPointExtension>
        </extensions>
      </trkpt>
      <trkpt lat="37.9571700654923915863037109375" lon="-107.11401441134512424468994140625">
        <ele>4024.800048828125</ele>
        <time>2026-01-06T18:45:40.000Z</time>
        <extensions>
          <ns3:TrackPointExtension>
            <ns3:hr>135</ns3:hr>
            <ns3:cad>0</ns3:cad>
          </ns3:TrackPointExtension>
        </extensions>
      </trkpt>
      <trkpt lat="37.9571777768433094024658203125" lon="-107.114037461578845977783203125">
        <ele>4025.199951171875</ele>
        <time>2026-01-06T18:45:46.000Z</time>
        <extensions>
          <ns3:TrackPointExtension>
            <ns3:hr>137</ns3:hr>
            <ns3:cad>0</ns3:cad>
          </ns3:TrackPointExtension>
        </extensions>
      </trkpt>
      <trkpt lat="37.9571841470897197723388671875" lon="-107.114047519862651824951171875">
        <ele>4025.60009765625</ele>
        <time>2026-01-06T18:45:49.000Z</time>
        <extensions>
          <ns3:TrackPointExtension>
            <ns3:hr>136</ns3:hr>
            <ns3:cad>0</ns3:cad>
          </ns3:TrackPointExtension>
        </extensions>
      </trkpt>
      <trkpt lat="37.95718909241259098052978515625" lon="-107.11405548267066478729248046875">
        <ele>4025.800048828125</ele>
        <time>2026-01-06T18:45:51.000Z</time>
        <extensions>
          <ns3:TrackPointExtension>
            <ns3:hr>135</ns3:hr>
            <ns3:cad>0</ns3:cad>
          </ns3:TrackPointExtension>
        </extensions>
      </trkpt>
      <trkpt lat="37.95720535330474376678466796875" lon="-107.1140634454786777496337890625">
        <ele>4026.199951171875</ele>
        <time>2026-01-06T18:45:57.000Z</time>
        <extensions>
          <ns3:TrackPointExtension>
            <ns3:hr>136</ns3:hr>
            <ns3:cad>0</ns3:cad>
          </ns3:TrackPointExtension>
        </extensions>
      </trkpt>
      <trkpt lat="37.95721004717051982879638671875" lon="-107.1140667982399463653564453125">
        <ele>4026.199951171875</ele>
        <time>2026-01-06T18:45:58.000Z</time>
        <extensions>
          <ns3:TrackPointExtension>
            <ns3:hr>136</ns3:hr>
            <ns3:cad>0</ns3:cad>
          </ns3:TrackPointExtension>
        </extensions>
      </trkpt>
      <trkpt lat="37.95722563751041889190673828125" lon="-107.11407207883894443511962890625">
        <ele>4026.60009765625</ele>
        <time>2026-01-06T18:46:03.000Z</time>
        <extensions>
          <ns3:TrackPointExtension>
            <ns3:hr>138</ns3:hr>
            <ns3:cad>0</ns3:cad>
          </ns3:TrackPointExtension>
        </extensions>
      </trkpt>
      <trkpt lat="37.9572257213294506072998046875" lon="-107.11407174356281757354736328125">
        <ele>4026.800048828125</ele>
        <time>2026-01-06T18:46:04.000Z</time>
        <extensions>
          <ns3:TrackPointExtension>
            <ns3:hr>138</ns3:hr>
            <ns3:cad>0</ns3:cad>
          </ns3:TrackPointExtension>
        </extensions>
      </trkpt>
      <trkpt lat="37.95723955146968364715576171875" lon="-107.11407962255179882049560546875">
        <ele>4027.39990234375</ele>
        <time>2026-01-06T18:46:10.000Z</time>
        <extensions>
          <ns3:TrackPointExtension>
            <ns3:hr>139</ns3:hr>
            <ns3:cad>0</ns3:cad>
          </ns3:TrackPointExtension>
        </extensions>
      </trkpt>
      <trkpt lat="37.9572455026209354400634765625" lon="-107.11408616043627262115478515625">
        <ele>4027.60009765625</ele>
        <time>2026-01-06T18:46:12.000Z</time>
        <extensions>
          <ns3:TrackPointExtension>
            <ns3:hr>137</ns3:hr>
            <ns3:cad>0</ns3:cad>
          </ns3:TrackPointExtension>
        </extensions>
      </trkpt>
      <trkpt lat="37.9572575725615024566650390625" lon="-107.11409638635814189910888671875">
        <ele>4028.800048828125</ele>
        <time>2026-01-06T18:46:16.000Z</time>
        <extensions>
          <ns3:TrackPointExtension>
            <ns3:hr>139</ns3:hr>
            <ns3:cad>0</ns3:cad>
          </ns3:TrackPointExtension>
        </extensions>
      </trkpt>
      <trkpt lat="37.95727022923529148101806640625" lon="-107.114105187356472015380859375">
        <ele>4029.199951171875</ele>
        <time>2026-01-06T18:46:18.000Z</time>
        <extensions>
          <ns3:TrackPointExtension>
            <ns3:hr>141</ns3:hr>
            <ns3:cad>69</ns3:cad>
          </ns3:TrackPointExtension>
        </extensions>
      </trkpt>
      <trkpt lat="37.9572820477187633514404296875" lon="-107.11411365307867527008056640625">
        <ele>4029.39990234375</ele>
        <time>2026-01-06T18:46:20.000Z</time>
        <extensions>
          <ns3:TrackPointExtension>
            <ns3:hr>144</ns3:hr>
            <ns3:cad>0</ns3:cad>
          </ns3:TrackPointExtension>
        </extensions>
      </trkpt>
      <trkpt lat="37.95728414319455623626708984375" lon="-107.11411817930638790130615234375">
        <ele>4029.39990234375</ele>
        <time>2026-01-06T18:46:25.000Z</time>
        <extensions>
          <ns3:TrackPointExtension>
            <ns3:hr>146</ns3:hr>
            <ns3:cad>0</ns3:cad>
          </ns3:TrackPointExtension>
        </extensions>
      </trkpt>
      <trkpt lat="37.95728615485131740570068359375" lon="-107.11412371136248111724853515625">
        <ele>4029.800048828125</ele>
        <time>2026-01-06T18:46:27.000Z</time>
        <extensions>
          <ns3:TrackPointExtension>
            <ns3:hr>147</ns3:hr>
            <ns3:cad>0</ns3:cad>
          </ns3:TrackPointExtension>
        </extensions>
      </trkpt>
      <trkpt lat="37.95728665776550769805908203125" lon="-107.1141237951815128326416015625">
        <ele>4030.39990234375</ele>
        <time>2026-01-06T18:46:32.000Z</time>
        <extensions>
          <ns3:TrackPointExtension>
            <ns3:hr>148</ns3:hr>
            <ns3:cad>0</ns3:cad>
          </ns3:TrackPointExtension>
        </extensions>
      </trkpt>
      <trkpt lat="37.95729068107903003692626953125" lon="-107.114142067730426788330078125">
        <ele>4030.60009765625</ele>
        <time>2026-01-06T18:46:38.000Z</time>
        <extensions>
          <ns3:TrackPointExtension>
            <ns3:hr>147</ns3:hr>
            <ns3:cad>0</ns3:cad>
          </ns3:TrackPointExtension>
        </extensions>
      </trkpt>
      <trkpt lat="37.95729361474514007568359375" lon="-107.11415539495646953582763671875">
        <ele>4030.800048828125</ele>
        <time>2026-01-06T18:46:40.000Z</time>
        <extensions>
          <ns3:TrackPointExtension>
            <ns3:hr>146</ns3:hr>
            <ns3:cad>0</ns3:cad>
          </ns3:TrackPointExtension>
        </extensions>
      </trkpt>
      <trkpt lat="37.95729369856417179107666015625" lon="-107.11417836137115955352783203125">
        <ele>4031.39990234375</ele>
        <time>2026-01-06T18:46:43.000Z</time>
        <extensions>
          <ns3:TrackPointExtension>
            <ns3:hr>143</ns3:hr>
            <ns3:cad>0</ns3:cad>
          </ns3:TrackPointExtension>
        </extensions>
      </trkpt>
      <trkpt lat="37.95729227364063262939453125" lon="-107.11418263614177703857421875">
        <ele>4032</ele>
        <time>2026-01-06T18:46:46.000Z</time>
        <extensions>
          <ns3:TrackPointExtension>
            <ns3:hr>141</ns3:hr>
            <ns3:cad>0</ns3:cad>
          </ns3:TrackPointExtension>
        </extensions>
      </trkpt>
      <trkpt lat="37.95728900469839572906494140625" lon="-107.1141958795487880706787109375">
        <ele>4032.199951171875</ele>
        <time>2026-01-06T18:46:48.000Z</time>
        <extensions>
          <ns3:TrackPointExtension>
            <ns3:hr>141</ns3:hr>
            <ns3:cad>0</ns3:cad>
          </ns3:TrackPointExtension>
        </extensions>
      </trkpt>
      <trkpt lat="37.95728179626166820526123046875" lon="-107.11422144435346126556396484375">
        <ele>4033</ele>
        <time>2026-01-06T18:46:53.000Z</time>
        <extensions>
          <ns3:TrackPointExtension>
            <ns3:hr>139</ns3:hr>
            <ns3:cad>0</ns3:cad>
          </ns3:TrackPointExtension>
        </extensions>
      </trkpt>
      <trkpt lat="37.957281209528446197509765625" lon="-107.11423493921756744384765625">
        <ele>4033.199951171875</ele>
        <time>2026-01-06T18:46:55.000Z</time>
        <extensions>
          <ns3:TrackPointExtension>
            <ns3:hr>138</ns3:hr>
            <ns3:cad>0</ns3:cad>
          </ns3:TrackPointExtension>
        </extensions>
      </trkpt>
      <trkpt lat="37.95727894641458988189697265625" lon="-107.1142491884529590606689453125">
        <ele>4033.60009765625</ele>
        <time>2026-01-06T18:47:00.000Z</time>
        <extensions>
          <ns3:TrackPointExtension>
            <ns3:hr>136</ns3:hr>
            <ns3:cad>0</ns3:cad>
          </ns3:TrackPointExtension>
        </extensions>
      </trkpt>
      <trkpt lat="37.95727643184363842010498046875" lon="-107.114277184009552001953125">
        <ele>4034.199951171875</ele>
        <time>2026-01-06T18:47:04.000Z</time>
        <extensions>
          <ns3:TrackPointExtension>
            <ns3:hr>136</ns3:hr>
            <ns3:cad>0</ns3:cad>
          </ns3:TrackPointExtension>
        </extensions>
      </trkpt>
      <trkpt lat="37.9572716541588306427001953125" lon="-107.11429931223392486572265625">
        <ele>4034.39990234375</ele>
        <time>2026-01-06T18:47:07.000Z</time>
        <extensions>
          <ns3:TrackPointExtension>
            <ns3:hr>135</ns3:hr>
            <ns3:cad>0</ns3:cad>
          </ns3:TrackPointExtension>
        </extensions>
      </trkpt>
      <trkpt lat="37.95727274380624294281005859375" lon="-107.11431347765028476715087890625">
        <ele>4035.39990234375</ele>
        <time>2026-01-06T18:47:10.000Z</time>
        <extensions>
          <ns3:TrackPointExtension>
            <ns3:hr>135</ns3:hr>
            <ns3:cad>0</ns3:cad>
          </ns3:TrackPointExtension>
        </extensions>
      </trkpt>
      <trkpt lat="37.95727257616817951202392578125" lon="-107.114313729107379913330078125">
        <ele>4036.39990234375</ele>
        <time>2026-01-06T18:47:12.000Z</time>
        <extensions>
          <ns3:TrackPointExtension>
            <ns3:hr>136</ns3:hr>
            <ns3:cad>0</ns3:cad>
          </ns3:TrackPointExtension>
        </extensions>
      </trkpt>
      <trkpt lat="37.95726788230240345001220703125" lon="-107.11433007381856441497802734375">
        <ele>4037.199951171875</ele>
        <time>2026-01-06T18:47:15.000Z</time>
        <extensions>
          <ns3:TrackPointExtension>
            <ns3:hr>140</ns3:hr>
            <ns3:cad>0</ns3:cad>
          </ns3:TrackPointExtension>
        </extensions>
      </trkpt>
      <trkpt lat="37.95727022923529148101806640625" lon="-107.11432705633342266082763671875">
        <ele>4037.39990234375</ele>
        <time>2026-01-06T18:47:16.000Z</time>
        <extensions>
          <ns3:TrackPointExtension>
            <ns3:hr>140</ns3:hr>
            <ns3:cad>0</ns3:cad>
          </ns3:TrackPointExtension>
        </extensions>
      </trkpt>
      <trkpt lat="37.95727106742560863494873046875" lon="-107.11433191783726215362548828125">
        <ele>4037.60009765625</ele>
        <time>2026-01-06T18:47:17.000Z</time>
        <extensions>
          <ns3:TrackPointExtension>
            <ns3:hr>140</ns3:hr>
            <ns3:cad>0</ns3:cad>
          </ns3:TrackPointExtension>
        </extensions>
      </trkpt>
      <trkpt lat="37.95727006159722805023193359375" lon="-107.11433351039886474609375">
        <ele>4036.800048828125</ele>
        <time>2026-01-06T18:47:23.000Z</time>
        <extensions>
          <ns3:TrackPointExtension>
            <ns3:hr>140</ns3:hr>
            <ns3:cad>0</ns3:cad>
          </ns3:TrackPointExtension>
        </extensions>
      </trkpt>
      <trkpt lat="37.95727006159722805023193359375" lon="-107.11433351039886474609375">
        <ele>4036.39990234375</ele>
        <time>2026-01-06T18:47:24.000Z</time>
        <extensions>
          <ns3:TrackPointExtension>
            <ns3:hr>139</ns3:hr>
            <ns3:cad>0</ns3:cad>
          </ns3:TrackPointExtension>
        </extensions>
      </trkpt>
      <trkpt lat="37.95727006159722805023193359375" lon="-107.11433351039886474609375">
        <ele>4036.199951171875</ele>
        <time>2026-01-06T18:47:25.000Z</time>
        <extensions>
          <ns3:TrackPointExtension>
            <ns3:hr>139</ns3:hr>
            <ns3:cad>0</ns3:cad>
          </ns3:TrackPointExtension>
        </extensions>
      </trkpt>
      <trkpt lat="37.95727006159722805023193359375" lon="-107.11433351039886474609375">
        <ele>4035.800048828125</ele>
        <time>2026-01-06T18:47:29.000Z</time>
        <extensions>
          <ns3:TrackPointExtension>
            <ns3:hr>135</ns3:hr>
            <ns3:cad>0</ns3:cad>
          </ns3:TrackPointExtension>
        </extensions>
      </trkpt>
      <trkpt lat="37.95727006159722805023193359375" lon="-107.11433351039886474609375">
        <ele>4036</ele>
        <time>2026-01-06T18:47:30.000Z</time>
        <extensions>
          <ns3:TrackPointExtension>
            <ns3:hr>132</ns3:hr>
            <ns3:cad>0</ns3:cad>
          </ns3:TrackPointExtension>
        </extensions>
      </trkpt>
      <trkpt lat="37.95727006159722805023193359375" lon="-107.11433351039886474609375">
        <ele>4036.199951171875</ele>
        <time>2026-01-06T18:47:31.000Z</time>
        <extensions>
          <ns3:TrackPointExtension>
            <ns3:hr>127</ns3:hr>
            <ns3:cad>0</ns3:cad>
          </ns3:TrackPointExtension>
        </extensions>
      </trkpt>
      <trkpt lat="37.95727006159722805023193359375" lon="-107.11433351039886474609375">
        <ele>4036.39990234375</ele>
        <time>2026-01-06T18:47:32.000Z</time>
        <extensions>
          <ns3:TrackPointExtension>
            <ns3:hr>122</ns3:hr>
            <ns3:cad>0</ns3:cad>
          </ns3:TrackPointExtension>
        </extensions>
      </trkpt>
      <trkpt lat="37.95727006159722805023193359375" lon="-107.11433351039886474609375">
        <ele>4036.60009765625</ele>
        <time>2026-01-06T18:47:33.000Z</time>
        <extensions>
          <ns3:TrackPointExtension>
            <ns3:hr>118</ns3:hr>
            <ns3:cad>0</ns3:cad>
          </ns3:TrackPointExtension>
        </extensions>
      </trkpt>
      <trkpt lat="37.957264445722103118896484375" lon="-107.11433418095111846923828125">
        <ele>4036.60009765625</ele>
        <time>2026-01-06T18:47:34.000Z</time>
        <extensions>
          <ns3:TrackPointExtension>
            <ns3:hr>116</ns3:hr>
            <ns3:cad>0</ns3:cad>
          </ns3:TrackPointExtension>
        </extensions>
      </trkpt>
      <trkpt lat="37.95724533498287200927734375" lon="-107.1143563091754913330078125">
        <ele>4037</ele>
        <time>2026-01-06T18:47:40.000Z</time>
        <extensions>
          <ns3:TrackPointExtension>
            <ns3:hr>115</ns3:hr>
            <ns3:cad>0</ns3:cad>
          </ns3:TrackPointExtension>
        </extensions>
      </trkpt>
      <trkpt lat="37.957239635288715362548828125" lon="-107.114373743534088134765625">
        <ele>4037.39990234375</ele>
        <time>2026-01-06T18:47:42.000Z</time>
        <extensions>
          <ns3:TrackPointExtension>
            <ns3:hr>115</ns3:hr>
            <ns3:cad>0</ns3:cad>
          </ns3:TrackPointExtension>
        </extensions>
      </trkpt>
      <trkpt lat="37.95723770745098590850830078125" lon="-107.1143799461424350738525390625">
        <ele>4037.39990234375</ele>
        <time>2026-01-06T18:47:43.000Z</time>
        <extensions>
          <ns3:TrackPointExtension>
            <ns3:hr>115</ns3:hr>
            <ns3:cad>0</ns3:cad>
          </ns3:TrackPointExtension>
        </extensions>
      </trkpt>
      <trkpt lat="37.95723837800323963165283203125" lon="-107.11440618149936199188232421875">
        <ele>4037.199951171875</ele>
        <time>2026-01-06T18:47:49.000Z</time>
        <extensions>
          <ns3:TrackPointExtension>
            <ns3:hr>117</ns3:hr>
            <ns3:cad>0</ns3:cad>
          </ns3:TrackPointExtension>
        </extensions>
      </trkpt>
      <trkpt lat="37.95723997056484222412109375" lon="-107.1144168265163898468017578125">
        <ele>4037.199951171875</ele>
        <time>2026-01-06T18:47:50.000Z</time>
        <extensions>
          <ns3:TrackPointExtension>
            <ns3:hr>117</ns3:hr>
            <ns3:cad>0</ns3:cad>
          </ns3:TrackPointExtension>
        </extensions>
      </trkpt>
      <trkpt lat="37.95723452232778072357177734375" lon="-107.1144630946218967437744140625">
        <ele>4038</ele>
        <time>2026-01-06T18:47:56.000Z</time>
        <extensions>
          <ns3:TrackPointExtension>
            <ns3:hr>117</ns3:hr>
            <ns3:cad>0</ns3:cad>
          </ns3:TrackPointExtension>
        </extensions>
      </trkpt>
      <trkpt lat="37.9572324268519878387451171875" lon="-107.1144674532115459442138671875">
        <ele>4038</ele>
        <time>2026-01-06T18:47:57.000Z</time>
        <extensions>
          <ns3:TrackPointExtension>
            <ns3:hr>117</ns3:hr>
            <ns3:cad>0</ns3:cad>
          </ns3:TrackPointExtension>
        </extensions>
      </trkpt>
      <trkpt lat="37.9572300799190998077392578125" lon="-107.11448572576045989990234375">
        <ele>4038.39990234375</ele>
        <time>2026-01-06T18:48:02.000Z</time>
        <extensions>
          <ns3:TrackPointExtension>
            <ns3:hr>117</ns3:hr>
            <ns3:cad>0</ns3:cad>
          </ns3:TrackPointExtension>
        </extensions>
      </trkpt>
      <trkpt lat="37.95723318122327327728271484375" lon="-107.11450223810970783233642578125">
        <ele>4039</ele>
        <time>2026-01-06T18:48:07.000Z</time>
        <extensions>
          <ns3:TrackPointExtension>
            <ns3:hr>119</ns3:hr>
            <ns3:cad>0</ns3:cad>
          </ns3:TrackPointExtension>
        </extensions>
      </trkpt>
      <trkpt lat="37.95723033137619495391845703125" lon="-107.11452201940119266510009765625">
        <ele>4039.800048828125</ele>
        <time>2026-01-06T18:48:10.000Z</time>
        <extensions>
          <ns3:TrackPointExtension>
            <ns3:hr>122</ns3:hr>
            <ns3:cad>0</ns3:cad>
          </ns3:TrackPointExtension>
        </extensions>
      </trkpt>
      <trkpt lat="37.95722345821559429168701171875" lon="-107.1145412139594554901123046875">
        <ele>4040.39990234375</ele>
        <time>2026-01-06T18:48:14.000Z</time>
        <extensions>
          <ns3:TrackPointExtension>
            <ns3:hr>124</ns3:hr>
            <ns3:cad>0</ns3:cad>
          </ns3:TrackPointExtension>
        </extensions>
      </trkpt>
      <trkpt lat="37.9572227038443088531494140625" lon="-107.11454129777848720550537109375">
        <ele>4040.800048828125</ele>
        <time>2026-01-06T18:48:19.000Z</time>
        <extensions>
          <ns3:TrackPointExtension>
            <ns3:hr>124</ns3:hr>
            <ns3:cad>0</ns3:cad>
          </ns3:TrackPointExtension>
        </extensions>
      </trkpt>
      <trkpt lat="37.9572227038443088531494140625" lon="-107.11454129777848720550537109375">
        <ele>4041</ele>
        <time>2026-01-06T18:48:20.000Z</time>
        <extensions>
          <ns3:TrackPointExtension>
            <ns3:hr>125</ns3:hr>
            <ns3:cad>0</ns3:cad>
          </ns3:TrackPointExtension>
        </extensions>
      </trkpt>
      <trkpt lat="37.95720736496150493621826171875" lon="-107.11457465775310993194580078125">
        <ele>4041.39990234375</ele>
        <time>2026-01-06T18:48:26.000Z</time>
        <extensions>
          <ns3:TrackPointExtension>
            <ns3:hr>124</ns3:hr>
            <ns3:cad>0</ns3:cad>
          </ns3:TrackPointExtension>
        </extensions>
      </trkpt>
      <trkpt lat="37.95719462446868419647216796875" lon="-107.114588655531406402587890625">
        <ele>4041.800048828125</ele>
        <time>2026-01-06T18:48:29.000Z</time>
        <extensions>
          <ns3:TrackPointExtension>
            <ns3:hr>124</ns3:hr>
            <ns3:cad>0</ns3:cad>
          </ns3:TrackPointExtension>
        </extensions>
      </trkpt>
      <trkpt lat="37.95717962086200714111328125" lon="-107.11461002938449382781982421875">
        <ele>4042.199951171875</ele>
        <time>2026-01-06T18:48:32.000Z</time>
        <extensions>
          <ns3:TrackPointExtension>
            <ns3:hr>124</ns3:hr>
            <ns3:cad>0</ns3:cad>
          </ns3:TrackPointExtension>
        </extensions>
      </trkpt>
      <trkpt lat="37.95716193504631519317626953125" lon="-107.11462293751537799835205078125">
        <ele>4042.39990234375</ele>
        <time>2026-01-06T18:48:38.000Z</time>
        <extensions>
          <ns3:TrackPointExtension>
            <ns3:hr>125</ns3:hr>
            <ns3:cad>0</ns3:cad>
          </ns3:TrackPointExtension>
        </extensions>
      </trkpt>
      <trkpt lat="37.95716193504631519317626953125" lon="-107.11462293751537799835205078125">
        <ele>4042.199951171875</ele>
        <time>2026-01-06T18:48:40.000Z</time>
        <extensions>
          <ns3:TrackPointExtension>
            <ns3:hr>125</ns3:hr>
            <ns3:cad>0</ns3:cad>
          </ns3:TrackPointExtension>
        </extensions>
      </trkpt>
      <trkpt lat="37.95716193504631519317626953125" lon="-107.11462293751537799835205078125">
        <ele>4042.199951171875</ele>
        <time>2026-01-06T18:48:46.000Z</time>
        <extensions>
          <ns3:TrackPointExtension>
            <ns3:hr>124</ns3:hr>
            <ns3:cad>0</ns3:cad>
          </ns3:TrackPointExtension>
        </extensions>
      </trkpt>
      <trkpt lat="37.95716193504631519317626953125" lon="-107.11462293751537799835205078125">
        <ele>4042.199951171875</ele>
        <time>2026-01-06T18:48:51.000Z</time>
        <extensions>
          <ns3:TrackPointExtension>
            <ns3:hr>124</ns3:hr>
            <ns3:cad>0</ns3:cad>
          </ns3:TrackPointExtension>
        </extensions>
      </trkpt>
      <trkpt lat="37.95716193504631519317626953125" lon="-107.11462293751537799835205078125">
        <ele>4041.60009765625</ele>
        <time>2026-01-06T18:48:55.000Z</time>
        <extensions>
          <ns3:TrackPointExtension>
            <ns3:hr>121</ns3:hr>
            <ns3:cad>0</ns3:cad>
          </ns3:TrackPointExtension>
        </extensions>
      </trkpt>
      <trkpt lat="37.95716193504631519317626953125" lon="-107.11462293751537799835205078125">
        <ele>4042</ele>
        <time>2026-01-06T18:49:01.000Z</time>
        <extensions>
          <ns3:TrackPointExtension>
            <ns3:hr>119</ns3:hr>
            <ns3:cad>0</ns3:cad>
          </ns3:TrackPointExtension>
        </extensions>
      </trkpt>
      <trkpt lat="37.95716193504631519317626953125" lon="-107.11462293751537799835205078125">
        <ele>4042</ele>
        <time>2026-01-06T18:49:03.000Z</time>
        <extensions>
          <ns3:TrackPointExtension>
            <ns3:hr>119</ns3:hr>
            <ns3:cad>0</ns3:cad>
          </ns3:TrackPointExtension>
        </extensions>
      </trkpt>
      <trkpt lat="37.95716193504631519317626953125" lon="-107.11462293751537799835205078125">
        <ele>4041.800048828125</ele>
        <time>2026-01-06T18:49:09.000Z</time>
        <extensions>
          <ns3:TrackPointExtension>
            <ns3:hr>118</ns3:hr>
            <ns3:cad>0</ns3:cad>
          </ns3:TrackPointExtension>
        </extensions>
      </trkpt>
      <trkpt lat="37.95716193504631519317626953125" lon="-107.11462293751537799835205078125">
        <ele>4041.39990234375</ele>
        <time>2026-01-06T18:49:15.000Z</time>
        <extensions>
          <ns3:TrackPointExtension>
            <ns3:hr>120</ns3:hr>
            <ns3:cad>0</ns3:cad>
          </ns3:TrackPointExtension>
        </extensions>
      </trkpt>
      <trkpt lat="37.95716193504631519317626953125" lon="-107.11462293751537799835205078125">
        <ele>4041.60009765625</ele>
        <time>2026-01-06T18:49:17.000Z</time>
        <extensions>
          <ns3:TrackPointExtension>
            <ns3:hr>126</ns3:hr>
            <ns3:cad>0</ns3:cad>
          </ns3:TrackPointExtension>
        </extensions>
      </trkpt>
      <trkpt lat="37.95716193504631519317626953125" lon="-107.11462293751537799835205078125">
        <ele>4041.60009765625</ele>
        <time>2026-01-06T18:49:18.000Z</time>
        <extensions>
          <ns3:TrackPointExtension>
            <ns3:hr>131</ns3:hr>
            <ns3:cad>0</ns3:cad>
          </ns3:TrackPointExtension>
        </extensions>
      </trkpt>
      <trkpt lat="37.95716193504631519317626953125" lon="-107.11462293751537799835205078125">
        <ele>4041.39990234375</ele>
        <time>2026-01-06T18:49:20.000Z</time>
        <extensions>
          <ns3:TrackPointExtension>
            <ns3:hr>135</ns3:hr>
            <ns3:cad>0</ns3:cad>
          </ns3:TrackPointExtension>
        </extensions>
      </trkpt>
      <trkpt lat="37.95716193504631519317626953125" lon="-107.11462293751537799835205078125">
        <ele>4041</ele>
        <time>2026-01-06T18:49:25.000Z</time>
        <extensions>
          <ns3:TrackPointExtension>
            <ns3:hr>132</ns3:hr>
            <ns3:cad>0</ns3:cad>
          </ns3:TrackPointExtension>
        </extensions>
      </trkpt>
      <trkpt lat="37.95716193504631519317626953125" lon="-107.11462293751537799835205078125">
        <ele>4040.800048828125</ele>
        <time>2026-01-06T18:49:28.000Z</time>
        <extensions>
          <ns3:TrackPointExtension>
            <ns3:hr>131</ns3:hr>
            <ns3:cad>0</ns3:cad>
          </ns3:TrackPointExtension>
        </extensions>
      </trkpt>
      <trkpt lat="37.95716193504631519317626953125" lon="-107.11462293751537799835205078125">
        <ele>4041</ele>
        <time>2026-01-06T18:49:31.000Z</time>
        <extensions>
          <ns3:TrackPointExtension>
            <ns3:hr>135</ns3:hr>
            <ns3:cad>0</ns3:cad>
          </ns3:TrackPointExtension>
        </extensions>
      </trkpt>
      <trkpt lat="37.95716193504631519317626953125" lon="-107.11462293751537799835205078125">
        <ele>4041</ele>
        <time>2026-01-06T18:49:33.000Z</time>
        <extensions>
          <ns3:TrackPointExtension>
            <ns3:hr>136</ns3:hr>
            <ns3:cad>0</ns3:cad>
          </ns3:TrackPointExtension>
        </extensions>
      </trkpt>
      <trkpt lat="37.95716193504631519317626953125" lon="-107.11462293751537799835205078125">
        <ele>4040.39990234375</ele>
        <time>2026-01-06T18:49:39.000Z</time>
        <extensions>
          <ns3:TrackPointExtension>
            <ns3:hr>134</ns3:hr>
            <ns3:cad>0</ns3:cad>
          </ns3:TrackPointExtension>
        </extensions>
      </trkpt>
      <trkpt lat="37.95716193504631519317626953125" lon="-107.11462293751537799835205078125">
        <ele>4040.39990234375</ele>
        <time>2026-01-06T18:49:40.000Z</time>
        <extensions>
          <ns3:TrackPointExtension>
            <ns3:hr>134</ns3:hr>
            <ns3:cad>0</ns3:cad>
          </ns3:TrackPointExtension>
        </extensions>
      </trkpt>
      <trkpt lat="37.95716193504631519317626953125" lon="-107.11462293751537799835205078125">
        <ele>4040.199951171875</ele>
        <time>2026-01-06T18:49:46.000Z</time>
        <extensions>
          <ns3:TrackPointExtension>
            <ns3:hr>134</ns3:hr>
            <ns3:cad>0</ns3:cad>
          </ns3:TrackPointExtension>
        </extensions>
      </trkpt>
      <trkpt lat="37.95716193504631519317626953125" lon="-107.11462293751537799835205078125">
        <ele>4040.800048828125</ele>
        <time>2026-01-06T18:49:51.000Z</time>
        <extensions>
          <ns3:TrackPointExtension>
            <ns3:hr>133</ns3:hr>
            <ns3:cad>0</ns3:cad>
          </ns3:TrackPointExtension>
        </extensions>
      </trkpt>
      <trkpt lat="37.95716193504631519317626953125" lon="-107.11462293751537799835205078125">
        <ele>4041.60009765625</ele>
        <time>2026-01-06T18:49:57.000Z</time>
        <extensions>
          <ns3:TrackPointExtension>
            <ns3:hr>133</ns3:hr>
            <ns3:cad>0</ns3:cad>
          </ns3:TrackPointExtension>
        </extensions>
      </trkpt>
      <trkpt lat="37.95716193504631519317626953125" lon="-107.11462293751537799835205078125">
        <ele>4040.39990234375</ele>
        <time>2026-01-06T18:50:03.000Z</time>
        <extensions>
          <ns3:TrackPointExtension>
            <ns3:hr>134</ns3:hr>
            <ns3:cad>0</ns3:cad>
          </ns3:TrackPointExtension>
        </extensions>
      </trkpt>
      <trkpt lat="37.95716193504631519317626953125" lon="-107.11462293751537799835205078125">
        <ele>4040.39990234375</ele>
        <time>2026-01-06T18:50:05.000Z</time>
        <extensions>
          <ns3:TrackPointExtension>
            <ns3:hr>134</ns3:hr>
            <ns3:cad>0</ns3:cad>
          </ns3:TrackPointExtension>
        </extensions>
      </trkpt>
      <trkpt lat="37.95716193504631519317626953125" lon="-107.11462293751537799835205078125">
        <ele>4040.39990234375</ele>
        <time>2026-01-06T18:50:11.000Z</time>
        <extensions>
          <ns3:TrackPointExtension>
            <ns3:hr>133</ns3:hr>
            <ns3:cad>0</ns3:cad>
          </ns3:TrackPointExtension>
        </extensions>
      </trkpt>
      <trkpt lat="37.95716193504631519317626953125" lon="-107.11462293751537799835205078125">
        <ele>4040.199951171875</ele>
        <time>2026-01-06T18:50:15.000Z</time>
        <extensions>
          <ns3:TrackPointExtension>
            <ns3:hr>133</ns3:hr>
            <ns3:cad>0</ns3:cad>
          </ns3:TrackPointExtension>
        </extensions>
      </trkpt>
      <trkpt lat="37.95715942047536373138427734375" lon="-107.11464188061654567718505859375">
        <ele>4040.60009765625</ele>
        <time>2026-01-06T18:50:21.000Z</time>
        <extensions>
          <ns3:TrackPointExtension>
            <ns3:hr>132</ns3:hr>
            <ns3:cad>0</ns3:cad>
          </ns3:TrackPointExtension>
        </extensions>
      </trkpt>
      <trkpt lat="37.9571610130369663238525390625" lon="-107.11465076543390750885009765625">
        <ele>4041.39990234375</ele>
        <time>2026-01-06T18:50:26.000Z</time>
        <extensions>
          <ns3:TrackPointExtension>
            <ns3:hr>131</ns3:hr>
            <ns3:cad>0</ns3:cad>
          </ns3:TrackPointExtension>
        </extensions>
      </trkpt>
      <trkpt lat="37.9571610130369663238525390625" lon="-107.11465076543390750885009765625">
        <ele>4041.39990234375</ele>
        <time>2026-01-06T18:50:32.000Z</time>
        <extensions>
          <ns3:TrackPointExtension>
            <ns3:hr>128</ns3:hr>
            <ns3:cad>0</ns3:cad>
          </ns3:TrackPointExtension>
        </extensions>
      </trkpt>
      <trkpt lat="37.9571603424847126007080078125" lon="-107.11465177126228809356689453125">
        <ele>4041.60009765625</ele>
        <time>2026-01-06T18:50:33.000Z</time>
        <extensions>
          <ns3:TrackPointExtension>
            <ns3:hr>127</ns3:hr>
            <ns3:cad>0</ns3:cad>
          </ns3:TrackPointExtension>
        </extensions>
      </trkpt>
      <trkpt lat="37.9571526311337947845458984375" lon="-107.11466048844158649444580078125">
        <ele>4041.800048828125</ele>
        <time>2026-01-06T18:50:35.000Z</time>
        <extensions>
          <ns3:TrackPointExtension>
            <ns3:hr>126</ns3:hr>
            <ns3:cad>0</ns3:cad>
          </ns3:TrackPointExtension>
        </extensions>
      </trkpt>
      <trkpt lat="37.957151122391223907470703125" lon="-107.11466275155544281005859375">
        <ele>4042.199951171875</ele>
        <time>2026-01-06T18:50:39.000Z</time>
        <extensions>
          <ns3:TrackPointExtension>
            <ns3:hr>129</ns3:hr>
            <ns3:cad>0</ns3:cad>
          </ns3:TrackPointExtension>
        </extensions>
      </trkpt>
      <trkpt lat="37.957151122391223907470703125" lon="-107.11466275155544281005859375">
        <ele>4042</ele>
        <time>2026-01-06T18:50:43.000Z</time>
        <extensions>
          <ns3:TrackPointExtension>
            <ns3:hr>131</ns3:hr>
            <ns3:cad>0</ns3:cad>
          </ns3:TrackPointExtension>
        </extensions>
      </trkpt>
      <trkpt lat="37.957151122391223907470703125" lon="-107.11466275155544281005859375">
        <ele>4042</ele>
        <time>2026-01-06T18:50:44.000Z</time>
        <extensions>
          <ns3:TrackPointExtension>
            <ns3:hr>135</ns3:hr>
            <ns3:cad>0</ns3:cad>
          </ns3:TrackPointExtension>
        </extensions>
      </trkpt>
      <trkpt lat="37.957151122391223907470703125" lon="-107.11466275155544281005859375">
        <ele>4041.800048828125</ele>
        <time>2026-01-06T18:50:45.000Z</time>
        <extensions>
          <ns3:TrackPointExtension>
            <ns3:hr>143</ns3:hr>
            <ns3:cad>0</ns3:cad>
          </ns3:TrackPointExtension>
        </extensions>
      </trkpt>
      <trkpt lat="37.957151122391223907470703125" lon="-107.11466275155544281005859375">
        <ele>4042</ele>
        <time>2026-01-06T18:50:46.000Z</time>
        <extensions>
          <ns3:TrackPointExtension>
            <ns3:hr>146</ns3:hr>
            <ns3:cad>0</ns3:cad>
          </ns3:TrackPointExtension>
        </extensions>
      </trkpt>
      <trkpt lat="37.957151122391223907470703125" lon="-107.11466275155544281005859375">
        <ele>4042.199951171875</ele>
        <time>2026-01-06T18:50:50.000Z</time>
        <extensions>
          <ns3:TrackPointExtension>
            <ns3:hr>145</ns3:hr>
            <ns3:cad>0</ns3:cad>
          </ns3:TrackPointExtension>
        </extensions>
      </trkpt>
      <trkpt lat="37.957151122391223907470703125" lon="-107.11466275155544281005859375">
        <ele>4041.199951171875</ele>
        <time>2026-01-06T18:50:56.000Z</time>
        <extensions>
          <ns3:TrackPointExtension>
            <ns3:hr>145</ns3:hr>
            <ns3:cad>0</ns3:cad>
          </ns3:TrackPointExtension>
        </extensions>
      </trkpt>
      <trkpt lat="37.957151122391223907470703125" lon="-107.11466275155544281005859375">
        <ele>4041.39990234375</ele>
        <time>2026-01-06T18:51:00.000Z</time>
        <extensions>
          <ns3:TrackPointExtension>
            <ns3:hr>144</ns3:hr>
            <ns3:cad>0</ns3:cad>
          </ns3:TrackPointExtension>
        </extensions>
      </trkpt>
      <trkpt lat="37.957151122391223907470703125" lon="-107.11466275155544281005859375">
        <ele>4041.60009765625</ele>
        <time>2026-01-06T18:51:06.000Z</time>
        <extensions>
          <ns3:TrackPointExtension>
            <ns3:hr>143</ns3:hr>
            <ns3:cad>0</ns3:cad>
          </ns3:TrackPointExtension>
        </extensions>
      </trkpt>
      <trkpt lat="37.957151122391223907470703125" lon="-107.11466275155544281005859375">
        <ele>4041</ele>
        <time>2026-01-06T18:51:12.000Z</time>
        <extensions>
          <ns3:TrackPointExtension>
            <ns3:hr>142</ns3:hr>
            <ns3:cad>0</ns3:cad>
          </ns3:TrackPointExtension>
        </extensions>
      </trkpt>
      <trkpt lat="37.9571486078202724456787109375" lon="-107.11467021144926548004150390625">
        <ele>4041</ele>
        <time>2026-01-06T18:51:13.000Z</time>
        <extensions>
          <ns3:TrackPointExtension>
            <ns3:hr>143</ns3:hr>
            <ns3:cad>0</ns3:cad>
          </ns3:TrackPointExtension>
        </extensions>
      </trkpt>
      <trkpt lat="37.95714500360190868377685546875" lon="-107.11468110792338848114013671875">
        <ele>4041</ele>
        <time>2026-01-06T18:51:17.000Z</time>
        <extensions>
          <ns3:TrackPointExtension>
            <ns3:hr>143</ns3:hr>
            <ns3:cad>19</ns3:cad>
          </ns3:TrackPointExtension>
        </extensions>
      </trkpt>
      <trkpt lat="37.95714206993579864501953125" lon="-107.11467289365828037261962890625">
        <ele>4041</ele>
        <time>2026-01-06T18:51:18.000Z</time>
        <extensions>
          <ns3:TrackPointExtension>
            <ns3:hr>143</ns3:hr>
            <ns3:cad>19</ns3:cad>
          </ns3:TrackPointExtension>
        </extensions>
      </trkpt>
      <trkpt lat="37.957131676375865936279296875" lon="-107.11469988338649272918701171875">
        <ele>4041.199951171875</ele>
        <time>2026-01-06T18:51:21.000Z</time>
        <extensions>
          <ns3:TrackPointExtension>
            <ns3:hr>142</ns3:hr>
            <ns3:cad>0</ns3:cad>
          </ns3:TrackPointExtension>
        </extensions>
      </trkpt>
      <trkpt lat="37.9571291618049144744873046875" lon="-107.11469753645360469818115234375">
        <ele>4041.39990234375</ele>
        <time>2026-01-06T18:51:25.000Z</time>
        <extensions>
          <ns3:TrackPointExtension>
            <ns3:hr>138</ns3:hr>
            <ns3:cad>0</ns3:cad>
          </ns3:TrackPointExtension>
        </extensions>
      </trkpt>
      <trkpt lat="37.957128323614597320556640625" lon="-107.1147157251834869384765625">
        <ele>4042</ele>
        <time>2026-01-06T18:51:28.000Z</time>
        <extensions>
          <ns3:TrackPointExtension>
            <ns3:hr>136</ns3:hr>
            <ns3:cad>0</ns3:cad>
          </ns3:TrackPointExtension>
        </extensions>
      </trkpt>
      <trkpt lat="37.95712865889072418212890625" lon="-107.11471597664058208465576171875">
        <ele>4042.199951171875</ele>
        <time>2026-01-06T18:51:29.000Z</time>
        <extensions>
          <ns3:TrackPointExtension>
            <ns3:hr>133</ns3:hr>
            <ns3:cad>0</ns3:cad>
          </ns3:TrackPointExtension>
        </extensions>
      </trkpt>
      <trkpt lat="37.95712840743362903594970703125" lon="-107.11471681483089923858642578125">
        <ele>4042.39990234375</ele>
        <time>2026-01-06T18:51:33.000Z</time>
        <extensions>
          <ns3:TrackPointExtension>
            <ns3:hr>131</ns3:hr>
            <ns3:cad>0</ns3:cad>
          </ns3:TrackPointExtension>
        </extensions>
      </trkpt>
      <trkpt lat="37.95712840743362903594970703125" lon="-107.11471681483089923858642578125">
        <ele>4042.39990234375</ele>
        <time>2026-01-06T18:51:39.000Z</time>
        <extensions>
          <ns3:TrackPointExtension>
            <ns3:hr>132</ns3:hr>
            <ns3:cad>0</ns3:cad>
          </ns3:TrackPointExtension>
        </extensions>
      </trkpt>
      <trkpt lat="37.95712840743362903594970703125" lon="-107.11471681483089923858642578125">
        <ele>4042.800048828125</ele>
        <time>2026-01-06T18:51:45.000Z</time>
        <extensions>
          <ns3:TrackPointExtension>
            <ns3:hr>132</ns3:hr>
            <ns3:cad>0</ns3:cad>
          </ns3:TrackPointExtension>
        </extensions>
      </trkpt>
      <trkpt lat="37.95712371356785297393798828125" lon="-107.11472184397280216217041015625">
        <ele>4043</ele>
        <time>2026-01-06T18:51:46.000Z</time>
        <extensions>
          <ns3:TrackPointExtension>
            <ns3:hr>132</ns3:hr>
            <ns3:cad>0</ns3:cad>
          </ns3:TrackPointExtension>
        </extensions>
      </trkpt>
      <trkpt lat="37.9571227915585041046142578125" lon="-107.11471849121153354644775390625">
        <ele>4043.60009765625</ele>
        <time>2026-01-06T18:51:51.000Z</time>
        <extensions>
          <ns3:TrackPointExtension>
            <ns3:hr>132</ns3:hr>
            <ns3:cad>0</ns3:cad>
          </ns3:TrackPointExtension>
        </extensions>
      </trkpt>
      <trkpt lat="37.95710627920925617218017578125" lon="-107.11474128998816013336181640625">
        <ele>4044</ele>
        <time>2026-01-06T18:51:55.000Z</time>
        <extensions>
          <ns3:TrackPointExtension>
            <ns3:hr>133</ns3:hr>
            <ns3:cad>0</ns3:cad>
          </ns3:TrackPointExtension>
        </extensions>
      </trkpt>
      <trkpt lat="37.9571023397147655487060546875" lon="-107.11474455893039703369140625">
        <ele>4044</ele>
        <time>2026-01-06T18:51:56.000Z</time>
        <extensions>
          <ns3:TrackPointExtension>
            <ns3:hr>134</ns3:hr>
            <ns3:cad>0</ns3:cad>
          </ns3:TrackPointExtension>
        </extensions>
      </trkpt>
      <trkpt lat="37.95710074715316295623779296875" lon="-107.1147474087774753570556640625">
        <ele>4044.199951171875</ele>
        <time>2026-01-06T18:52:02.000Z</time>
        <extensions>
          <ns3:TrackPointExtension>
            <ns3:hr>137</ns3:hr>
            <ns3:cad>0</ns3:cad>
          </ns3:TrackPointExtension>
        </extensions>
      </trkpt>
      <trkpt lat="37.95710074715316295623779296875" lon="-107.1147474087774753570556640625">
        <ele>4044.39990234375</ele>
        <time>2026-01-06T18:52:05.000Z</time>
        <extensions>
          <ns3:TrackPointExtension>
            <ns3:hr>140</ns3:hr>
            <ns3:cad>0</ns3:cad>
          </ns3:TrackPointExtension>
        </extensions>
      </trkpt>
      <trkpt lat="37.95710074715316295623779296875" lon="-107.1147474087774753570556640625">
        <ele>4044</ele>
        <time>2026-01-06T18:52:08.000Z</time>
        <extensions>
          <ns3:TrackPointExtension>
            <ns3:hr>145</ns3:hr>
            <ns3:cad>0</ns3:cad>
          </ns3:TrackPointExtension>
        </extensions>
      </trkpt>
      <trkpt lat="37.95710074715316295623779296875" lon="-107.1147474087774753570556640625">
        <ele>4044</ele>
        <time>2026-01-06T18:52:09.000Z</time>
        <extensions>
          <ns3:TrackPointExtension>
            <ns3:hr>148</ns3:hr>
            <ns3:cad>0</ns3:cad>
          </ns3:TrackPointExtension>
        </extensions>
      </trkpt>
      <trkpt lat="37.95710074715316295623779296875" lon="-107.1147474087774753570556640625">
        <ele>4043.800048828125</ele>
        <time>2026-01-06T18:52:10.000Z</time>
        <extensions>
          <ns3:TrackPointExtension>
            <ns3:hr>153</ns3:hr>
            <ns3:cad>0</ns3:cad>
          </ns3:TrackPointExtension>
        </extensions>
      </trkpt>
      <trkpt lat="37.95710074715316295623779296875" lon="-107.1147474087774753570556640625">
        <ele>4044</ele>
        <time>2026-01-06T18:52:11.000Z</time>
        <extensions>
          <ns3:TrackPointExtension>
            <ns3:hr>153</ns3:hr>
            <ns3:cad>0</ns3:cad>
          </ns3:TrackPointExtension>
        </extensions>
      </trkpt>
      <trkpt lat="37.95710074715316295623779296875" lon="-107.1147474087774753570556640625">
        <ele>4044</ele>
        <time>2026-01-06T18:52:17.000Z</time>
        <extensions>
          <ns3:TrackPointExtension>
            <ns3:hr>152</ns3:hr>
            <ns3:cad>0</ns3:cad>
          </ns3:TrackPointExtension>
        </extensions>
      </trkpt>
      <trkpt lat="37.95710074715316295623779296875" lon="-107.1147474087774753570556640625">
        <ele>4043.800048828125</ele>
        <time>2026-01-06T18:52:19.000Z</time>
        <extensions>
          <ns3:TrackPointExtension>
            <ns3:hr>151</ns3:hr>
            <ns3:cad>0</ns3:cad>
          </ns3:TrackPointExtension>
        </extensions>
      </trkpt>
      <trkpt lat="37.95710074715316295623779296875" lon="-107.1147474087774753570556640625">
        <ele>4043.800048828125</ele>
        <time>2026-01-06T18:52:25.000Z</time>
        <extensions>
          <ns3:TrackPointExtension>
            <ns3:hr>151</ns3:hr>
            <ns3:cad>0</ns3:cad>
          </ns3:TrackPointExtension>
        </extensions>
      </trkpt>
      <trkpt lat="37.95710074715316295623779296875" lon="-107.1147474087774753570556640625">
        <ele>4043.800048828125</ele>
        <time>2026-01-06T18:52:27.000Z</time>
        <extensions>
          <ns3:TrackPointExtension>
            <ns3:hr>151</ns3:hr>
            <ns3:cad>0</ns3:cad>
          </ns3:TrackPointExtension>
        </extensions>
      </trkpt>
      <trkpt lat="37.95710074715316295623779296875" lon="-107.1147474087774753570556640625">
        <ele>4043.199951171875</ele>
        <time>2026-01-06T18:52:31.000Z</time>
        <extensions>
          <ns3:TrackPointExtension>
            <ns3:hr>147</ns3:hr>
            <ns3:cad>0</ns3:cad>
          </ns3:TrackPointExtension>
        </extensions>
      </trkpt>
      <trkpt lat="37.95710074715316295623779296875" lon="-107.1147474087774753570556640625">
        <ele>4043.60009765625</ele>
        <time>2026-01-06T18:52:33.000Z</time>
        <extensions>
          <ns3:TrackPointExtension>
            <ns3:hr>142</ns3:hr>
            <ns3:cad>0</ns3:cad>
          </ns3:TrackPointExtension>
        </extensions>
      </trkpt>
      <trkpt lat="37.95710041187703609466552734375" lon="-107.11474564857780933380126953125">
        <ele>4043.800048828125</ele>
        <time>2026-01-06T18:52:34.000Z</time>
        <extensions>
          <ns3:TrackPointExtension>
            <ns3:hr>139</ns3:hr>
            <ns3:cad>75</ns3:cad>
          </ns3:TrackPointExtension>
        </extensions>
      </trkpt>
      <trkpt lat="37.95710074715316295623779296875" lon="-107.1147474087774753570556640625">
        <ele>4043.60009765625</ele>
        <time>2026-01-06T18:52:37.000Z</time>
        <extensions>
          <ns3:TrackPointExtension>
            <ns3:hr>137</ns3:hr>
            <ns3:cad>0</ns3:cad>
          </ns3:TrackPointExtension>
        </extensions>
      </trkpt>
      <trkpt lat="37.95710074715316295623779296875" lon="-107.1147474087774753570556640625">
        <ele>4043.60009765625</ele>
        <time>2026-01-06T18:52:43.000Z</time>
        <extensions>
          <ns3:TrackPointExtension>
            <ns3:hr>135</ns3:hr>
            <ns3:cad>0</ns3:cad>
          </ns3:TrackPointExtension>
        </extensions>
      </trkpt>
      <trkpt lat="37.95710074715316295623779296875" lon="-107.1147474087774753570556640625">
        <ele>4043.60009765625</ele>
        <time>2026-01-06T18:52:44.000Z</time>
        <extensions>
          <ns3:TrackPointExtension>
            <ns3:hr>132</ns3:hr>
            <ns3:cad>0</ns3:cad>
          </ns3:TrackPointExtension>
        </extensions>
      </trkpt>
      <trkpt lat="37.95710074715316295623779296875" lon="-107.1147474087774753570556640625">
        <ele>4043.60009765625</ele>
        <time>2026-01-06T18:52:46.000Z</time>
        <extensions>
          <ns3:TrackPointExtension>
            <ns3:hr>129</ns3:hr>
            <ns3:cad>0</ns3:cad>
          </ns3:TrackPointExtension>
        </extensions>
      </trkpt>
      <trkpt lat="37.95710074715316295623779296875" lon="-107.1147474087774753570556640625">
        <ele>4043.39990234375</ele>
        <time>2026-01-06T18:52:47.000Z</time>
        <extensions>
          <ns3:TrackPointExtension>
            <ns3:hr>129</ns3:hr>
            <ns3:cad>0</ns3:cad>
          </ns3:TrackPointExtension>
        </extensions>
      </trkpt>
      <trkpt lat="37.95710074715316295623779296875" lon="-107.1147474087774753570556640625">
        <ele>4043</ele>
        <time>2026-01-06T18:52:53.000Z</time>
        <extensions>
          <ns3:TrackPointExtension>
            <ns3:hr>128</ns3:hr>
            <ns3:cad>0</ns3:cad>
          </ns3:TrackPointExtension>
        </extensions>
      </trkpt>
      <trkpt lat="37.95710074715316295623779296875" lon="-107.1147474087774753570556640625">
        <ele>4043.199951171875</ele>
        <time>2026-01-06T18:52:59.000Z</time>
        <extensions>
          <ns3:TrackPointExtension>
            <ns3:hr>126</ns3:hr>
            <ns3:cad>0</ns3:cad>
          </ns3:TrackPointExtension>
        </extensions>
      </trkpt>
      <trkpt lat="37.95710074715316295623779296875" lon="-107.1147474087774753570556640625">
        <ele>4043.39990234375</ele>
        <time>2026-01-06T18:53:05.000Z</time>
        <extensions>
          <ns3:TrackPointExtension>
            <ns3:hr>126</ns3:hr>
            <ns3:cad>0</ns3:cad>
          </ns3:TrackPointExtension>
        </extensions>
      </trkpt>
      <trkpt lat="37.95710074715316295623779296875" lon="-107.1147474087774753570556640625">
        <ele>4043.199951171875</ele>
        <time>2026-01-06T18:53:07.000Z</time>
        <extensions>
          <ns3:TrackPointExtension>
            <ns3:hr>129</ns3:hr>
            <ns3:cad>0</ns3:cad>
          </ns3:TrackPointExtension>
        </extensions>
      </trkpt>
      <trkpt lat="37.95710074715316295623779296875" lon="-107.1147474087774753570556640625">
        <ele>4043</ele>
        <time>2026-01-06T18:53:12.000Z</time>
        <extensions>
          <ns3:TrackPointExtension>
            <ns3:hr>129</ns3:hr>
            <ns3:cad>0</ns3:cad>
          </ns3:TrackPointExtension>
        </extensions>
      </trkpt>
      <trkpt lat="37.95710074715316295623779296875" lon="-107.1147474087774753570556640625">
        <ele>4042.800048828125</ele>
        <time>2026-01-06T18:53:13.000Z</time>
        <extensions>
          <ns3:TrackPointExtension>
            <ns3:hr>130</ns3:hr>
            <ns3:cad>0</ns3:cad>
          </ns3:TrackPointExtension>
        </extensions>
      </trkpt>
      <trkpt lat="37.95710074715316295623779296875" lon="-107.1147474087774753570556640625">
        <ele>4042.800048828125</ele>
        <time>2026-01-06T18:53:19.000Z</time>
        <extensions>
          <ns3:TrackPointExtension>
            <ns3:hr>129</ns3:hr>
            <ns3:cad>0</ns3:cad>
          </ns3:TrackPointExtension>
        </extensions>
      </trkpt>
      <trkpt lat="37.95710074715316295623779296875" lon="-107.1147474087774753570556640625">
        <ele>4042.60009765625</ele>
        <time>2026-01-06T18:53:25.000Z</time>
        <extensions>
          <ns3:TrackPointExtension>
            <ns3:hr>129</ns3:hr>
            <ns3:cad>0</ns3:cad>
          </ns3:TrackPointExtension>
        </extensions>
      </trkpt>
      <trkpt lat="37.95710074715316295623779296875" lon="-107.1147474087774753570556640625">
        <ele>4042.60009765625</ele>
        <time>2026-01-06T18:53:26.000Z</time>
        <extensions>
          <ns3:TrackPointExtension>
            <ns3:hr>129</ns3:hr>
            <ns3:cad>0</ns3:cad>
          </ns3:TrackPointExtension>
        </extensions>
      </trkpt>
      <trkpt lat="37.95710074715316295623779296875" lon="-107.1147474087774753570556640625">
        <ele>4043</ele>
        <time>2026-01-06T18:53:32.000Z</time>
        <extensions>
          <ns3:TrackPointExtension>
            <ns3:hr>128</ns3:hr>
            <ns3:cad>0</ns3:cad>
          </ns3:TrackPointExtension>
        </extensions>
      </trkpt>
      <trkpt lat="37.95710074715316295623779296875" lon="-107.1147474087774753570556640625">
        <ele>4043.199951171875</ele>
        <time>2026-01-06T18:53:34.000Z</time>
        <extensions>
          <ns3:TrackPointExtension>
            <ns3:hr>123</ns3:hr>
            <ns3:cad>0</ns3:cad>
          </ns3:TrackPointExtension>
        </extensions>
      </trkpt>
      <trkpt lat="37.95710074715316295623779296875" lon="-107.1147474087774753570556640625">
        <ele>4043</ele>
        <time>2026-01-06T18:53:36.000Z</time>
        <extensions>
          <ns3:TrackPointExtension>
            <ns3:hr>120</ns3:hr>
            <ns3:cad>0</ns3:cad>
          </ns3:TrackPointExtension>
        </extensions>
      </trkpt>
      <trkpt lat="37.95710074715316295623779296875" lon="-107.1147474087774753570556640625">
        <ele>4042.800048828125</ele>
        <time>2026-01-06T18:53:37.000Z</time>
        <extensions>
          <ns3:TrackPointExtension>
            <ns3:hr>117</ns3:hr>
            <ns3:cad>0</ns3:cad>
          </ns3:TrackPointExtension>
        </extensions>
      </trkpt>
      <trkpt lat="37.95710074715316295623779296875" lon="-107.1147474087774753570556640625">
        <ele>4042.800048828125</ele>
        <time>2026-01-06T18:53:38.000Z</time>
        <extensions>
          <ns3:TrackPointExtension>
            <ns3:hr>115</ns3:hr>
            <ns3:cad>0</ns3:cad>
          </ns3:TrackPointExtension>
        </extensions>
      </trkpt>
      <trkpt lat="37.95710074715316295623779296875" lon="-107.1147474087774753570556640625">
        <ele>4042.60009765625</ele>
        <time>2026-01-06T18:53:41.000Z</time>
        <extensions>
          <ns3:TrackPointExtension>
            <ns3:hr>112</ns3:hr>
            <ns3:cad>0</ns3:cad>
          </ns3:TrackPointExtension>
        </extensions>
      </trkpt>
      <trkpt lat="37.95710074715316295623779296875" lon="-107.1147474087774753570556640625">
        <ele>4042.39990234375</ele>
        <time>2026-01-06T18:53:47.000Z</time>
        <extensions>
          <ns3:TrackPointExtension>
            <ns3:hr>110</ns3:hr>
            <ns3:cad>0</ns3:cad>
          </ns3:TrackPointExtension>
        </extensions>
      </trkpt>
      <trkpt lat="37.95710074715316295623779296875" lon="-107.1147474087774753570556640625">
        <ele>4042.39990234375</ele>
        <time>2026-01-06T18:53:49.000Z</time>
        <extensions>
          <ns3:TrackPointExtension>
            <ns3:hr>110</ns3:hr>
            <ns3:cad>0</ns3:cad>
          </ns3:TrackPointExtension>
        </extensions>
      </trkpt>
      <trkpt lat="37.95710074715316295623779296875" lon="-107.1147474087774753570556640625">
        <ele>4042.60009765625</ele>
        <time>2026-01-06T18:53:55.000Z</time>
        <extensions>
          <ns3:TrackPointExtension>
            <ns3:hr>110</ns3:hr>
            <ns3:cad>0</ns3:cad>
          </ns3:TrackPointExtension>
        </extensions>
      </trkpt>
      <trkpt lat="37.95710074715316295623779296875" lon="-107.1147474087774753570556640625">
        <ele>4042.60009765625</ele>
        <time>2026-01-06T18:53:59.000Z</time>
        <extensions>
          <ns3:TrackPointExtension>
            <ns3:hr>109</ns3:hr>
            <ns3:cad>0</ns3:cad>
          </ns3:TrackPointExtension>
        </extensions>
      </trkpt>
      <trkpt lat="37.95710074715316295623779296875" lon="-107.1147474087774753570556640625">
        <ele>4042.60009765625</ele>
        <time>2026-01-06T18:54:00.000Z</time>
        <extensions>
          <ns3:TrackPointExtension>
            <ns3:hr>114</ns3:hr>
            <ns3:cad>0</ns3:cad>
          </ns3:TrackPointExtension>
        </extensions>
      </trkpt>
      <trkpt lat="37.95710074715316295623779296875" lon="-107.1147474087774753570556640625">
        <ele>4042.60009765625</ele>
        <time>2026-01-06T18:54:02.000Z</time>
        <extensions>
          <ns3:TrackPointExtension>
            <ns3:hr>117</ns3:hr>
            <ns3:cad>0</ns3:cad>
          </ns3:TrackPointExtension>
        </extensions>
      </trkpt>
      <trkpt lat="37.95710074715316295623779296875" lon="-107.1147474087774753570556640625">
        <ele>4042.39990234375</ele>
        <time>2026-01-06T18:54:08.000Z</time>
        <extensions>
          <ns3:TrackPointExtension>
            <ns3:hr>117</ns3:hr>
            <ns3:cad>0</ns3:cad>
          </ns3:TrackPointExtension>
        </extensions>
      </trkpt>
      <trkpt lat="37.95710074715316295623779296875" lon="-107.1147474087774753570556640625">
        <ele>4042.39990234375</ele>
        <time>2026-01-06T18:54:14.000Z</time>
        <extensions>
          <ns3:TrackPointExtension>
            <ns3:hr>115</ns3:hr>
            <ns3:cad>0</ns3:cad>
          </ns3:TrackPointExtension>
        </extensions>
      </trkpt>
      <trkpt lat="37.95710074715316295623779296875" lon="-107.1147474087774753570556640625">
        <ele>4042</ele>
        <time>2026-01-06T18:54:16.000Z</time>
        <extensions>
          <ns3:TrackPointExtension>
            <ns3:hr>112</ns3:hr>
            <ns3:cad>0</ns3:cad>
          </ns3:TrackPointExtension>
        </extensions>
      </trkpt>
      <trkpt lat="37.95710074715316295623779296875" lon="-107.1147474087774753570556640625">
        <ele>4042.199951171875</ele>
        <time>2026-01-06T18:54:22.000Z</time>
        <extensions>
          <ns3:TrackPointExtension>
            <ns3:hr>112</ns3:hr>
            <ns3:cad>0</ns3:cad>
          </ns3:TrackPointExtension>
        </extensions>
      </trkpt>
      <trkpt lat="37.95710074715316295623779296875" lon="-107.1147474087774753570556640625">
        <ele>4042</ele>
        <time>2026-01-06T18:54:25.000Z</time>
        <extensions>
          <ns3:TrackPointExtension>
            <ns3:hr>111</ns3:hr>
            <ns3:cad>0</ns3:cad>
          </ns3:TrackPointExtension>
        </extensions>
      </trkpt>
      <trkpt lat="37.95710074715316295623779296875" lon="-107.1147474087774753570556640625">
        <ele>4041.800048828125</ele>
        <time>2026-01-06T18:54:29.000Z</time>
        <extensions>
          <ns3:TrackPointExtension>
            <ns3:hr>112</ns3:hr>
            <ns3:cad>0</ns3:cad>
          </ns3:TrackPointExtension>
        </extensions>
      </trkpt>
      <trkpt lat="37.95710074715316295623779296875" lon="-107.1147474087774753570556640625">
        <ele>4042</ele>
        <time>2026-01-06T18:54:35.000Z</time>
        <extensions>
          <ns3:TrackPointExtension>
            <ns3:hr>107</ns3:hr>
            <ns3:cad>0</ns3:cad>
          </ns3:TrackPointExtension>
        </extensions>
      </trkpt>
      <trkpt lat="37.95710074715316295623779296875" lon="-107.1147474087774753570556640625">
        <ele>4042</ele>
        <time>2026-01-06T18:54:36.000Z</time>
        <extensions>
          <ns3:TrackPointExtension>
            <ns3:hr>107</ns3:hr>
            <ns3:cad>0</ns3:cad>
          </ns3:TrackPointExtension>
        </extensions>
      </trkpt>
      <trkpt lat="37.95710074715316295623779296875" lon="-107.1147474087774753570556640625">
        <ele>4041.800048828125</ele>
        <time>2026-01-06T18:54:38.000Z</time>
        <extensions>
          <ns3:TrackPointExtension>
            <ns3:hr>110</ns3:hr>
            <ns3:cad>0</ns3:cad>
          </ns3:TrackPointExtension>
        </extensions>
      </trkpt>
      <trkpt lat="37.95710074715316295623779296875" lon="-107.1147474087774753570556640625">
        <ele>4041.60009765625</ele>
        <time>2026-01-06T18:54:41.000Z</time>
        <extensions>
          <ns3:TrackPointExtension>
            <ns3:hr>113</ns3:hr>
            <ns3:cad>0</ns3:cad>
          </ns3:TrackPointExtension>
        </extensions>
      </trkpt>
      <trkpt lat="37.95710074715316295623779296875" lon="-107.1147474087774753570556640625">
        <ele>4041.60009765625</ele>
        <time>2026-01-06T18:54:43.000Z</time>
        <extensions>
          <ns3:TrackPointExtension>
            <ns3:hr>110</ns3:hr>
            <ns3:cad>0</ns3:cad>
          </ns3:TrackPointExtension>
        </extensions>
      </trkpt>
      <trkpt lat="37.95710074715316295623779296875" lon="-107.1147474087774753570556640625">
        <ele>4041.60009765625</ele>
        <time>2026-01-06T18:54:45.000Z</time>
        <extensions>
          <ns3:TrackPointExtension>
            <ns3:hr>107</ns3:hr>
            <ns3:cad>0</ns3:cad>
          </ns3:TrackPointExtension>
        </extensions>
      </trkpt>
      <trkpt lat="37.95710074715316295623779296875" lon="-107.1147474087774753570556640625">
        <ele>4041.800048828125</ele>
        <time>2026-01-06T18:54:47.000Z</time>
        <extensions>
          <ns3:TrackPointExtension>
            <ns3:hr>106</ns3:hr>
            <ns3:cad>0</ns3:cad>
          </ns3:TrackPointExtension>
        </extensions>
      </trkpt>
      <trkpt lat="37.95710074715316295623779296875" lon="-107.1147474087774753570556640625">
        <ele>4042</ele>
        <time>2026-01-06T18:54:53.000Z</time>
        <extensions>
          <ns3:TrackPointExtension>
            <ns3:hr>106</ns3:hr>
            <ns3:cad>0</ns3:cad>
          </ns3:TrackPointExtension>
        </extensions>
      </trkpt>
      <trkpt lat="37.95710074715316295623779296875" lon="-107.1147474087774753570556640625">
        <ele>4042</ele>
        <time>2026-01-06T18:54:58.000Z</time>
        <extensions>
          <ns3:TrackPointExtension>
            <ns3:hr>106</ns3:hr>
            <ns3:cad>0</ns3:cad>
          </ns3:TrackPointExtension>
        </extensions>
      </trkpt>
      <trkpt lat="37.95710074715316295623779296875" lon="-107.1147474087774753570556640625">
        <ele>4041.39990234375</ele>
        <time>2026-01-06T18:55:04.000Z</time>
        <extensions>
          <ns3:TrackPointExtension>
            <ns3:hr>108</ns3:hr>
            <ns3:cad>0</ns3:cad>
          </ns3:TrackPointExtension>
        </extensions>
      </trkpt>
      <trkpt lat="37.95710074715316295623779296875" lon="-107.1147474087774753570556640625">
        <ele>4041.39990234375</ele>
        <time>2026-01-06T18:55:08.000Z</time>
        <extensions>
          <ns3:TrackPointExtension>
            <ns3:hr>105</ns3:hr>
            <ns3:cad>0</ns3:cad>
          </ns3:TrackPointExtension>
        </extensions>
      </trkpt>
      <trkpt lat="37.95710074715316295623779296875" lon="-107.1147474087774753570556640625">
        <ele>4041.60009765625</ele>
        <time>2026-01-06T18:55:14.000Z</time>
        <extensions>
          <ns3:TrackPointExtension>
            <ns3:hr>106</ns3:hr>
            <ns3:cad>0</ns3:cad>
          </ns3:TrackPointExtension>
        </extensions>
      </trkpt>
      <trkpt lat="37.95710074715316295623779296875" lon="-107.1147474087774753570556640625">
        <ele>4041.800048828125</ele>
        <time>2026-01-06T18:55:18.000Z</time>
        <extensions>
          <ns3:TrackPointExtension>
            <ns3:hr>109</ns3:hr>
            <ns3:cad>0</ns3:cad>
          </ns3:TrackPointExtension>
        </extensions>
      </trkpt>
      <trkpt lat="37.95710074715316295623779296875" lon="-107.1147474087774753570556640625">
        <ele>4040.60009765625</ele>
        <time>2026-01-06T18:55:22.000Z</time>
        <extensions>
          <ns3:TrackPointExtension>
            <ns3:hr>109</ns3:hr>
            <ns3:cad>0</ns3:cad>
          </ns3:TrackPointExtension>
        </extensions>
      </trkpt>
      <trkpt lat="37.95710041187703609466552734375" lon="-107.11474229581654071807861328125">
        <ele>4040.60009765625</ele>
        <time>2026-01-06T18:55:23.000Z</time>
        <extensions>
          <ns3:TrackPointExtension>
            <ns3:hr>109</ns3:hr>
            <ns3:cad>65</ns3:cad>
          </ns3:TrackPointExtension>
        </extensions>
      </trkpt>
      <trkpt lat="37.95710024423897266387939453125" lon="-107.11474112235009670257568359375">
        <ele>4041.199951171875</ele>
        <time>2026-01-06T18:55:29.000Z</time>
        <extensions>
          <ns3:TrackPointExtension>
            <ns3:hr>107</ns3:hr>
            <ns3:cad>0</ns3:cad>
          </ns3:TrackPointExtension>
        </extensions>
      </trkpt>
      <trkpt lat="37.95708901248872280120849609375" lon="-107.1147534437477588653564453125">
        <ele>4041.39990234375</ele>
        <time>2026-01-06T18:55:31.000Z</time>
        <extensions>
          <ns3:TrackPointExtension>
            <ns3:hr>107</ns3:hr>
            <ns3:cad>0</ns3:cad>
          </ns3:TrackPointExtension>
        </extensions>
      </trkpt>
      <trkpt lat="37.957085072994232177734375" lon="-107.11475218646228313446044921875">
        <ele>4041.800048828125</ele>
        <time>2026-01-06T18:55:33.000Z</time>
        <extensions>
          <ns3:TrackPointExtension>
            <ns3:hr>107</ns3:hr>
            <ns3:cad>0</ns3:cad>
          </ns3:TrackPointExtension>
        </extensions>
      </trkpt>
      <trkpt lat="37.95708029530942440032958984375" lon="-107.11475528776645660400390625">
        <ele>4041.800048828125</ele>
        <time>2026-01-06T18:55:35.000Z</time>
        <extensions>
          <ns3:TrackPointExtension>
            <ns3:hr>108</ns3:hr>
            <ns3:cad>0</ns3:cad>
          </ns3:TrackPointExtension>
        </extensions>
      </trkpt>
      <trkpt lat="37.95706562697887420654296875" lon="-107.11477934382855892181396484375">
        <ele>4041.800048828125</ele>
        <time>2026-01-06T18:55:41.000Z</time>
        <extensions>
          <ns3:TrackPointExtension>
            <ns3:hr>107</ns3:hr>
            <ns3:cad>0</ns3:cad>
          </ns3:TrackPointExtension>
        </extensions>
      </trkpt>
      <trkpt lat="37.95705649070441722869873046875" lon="-107.1147923357784748077392578125">
        <ele>4042</ele>
        <time>2026-01-06T18:55:47.000Z</time>
        <extensions>
          <ns3:TrackPointExtension>
            <ns3:hr>106</ns3:hr>
            <ns3:cad>0</ns3:cad>
          </ns3:TrackPointExtension>
        </extensions>
      </trkpt>
      <trkpt lat="37.95705649070441722869873046875" lon="-107.1147923357784748077392578125">
        <ele>4041.800048828125</ele>
        <time>2026-01-06T18:55:49.000Z</time>
        <extensions>
          <ns3:TrackPointExtension>
            <ns3:hr>106</ns3:hr>
            <ns3:cad>0</ns3:cad>
          </ns3:TrackPointExtension>
        </extensions>
      </trkpt>
      <trkpt lat="37.95705649070441722869873046875" lon="-107.1147923357784748077392578125">
        <ele>4041.800048828125</ele>
        <time>2026-01-06T18:55:55.000Z</time>
        <extensions>
          <ns3:TrackPointExtension>
            <ns3:hr>106</ns3:hr>
            <ns3:cad>0</ns3:cad>
          </ns3:TrackPointExtension>
        </extensions>
      </trkpt>
      <trkpt lat="37.95705355703830718994140625" lon="-107.11479225195944309234619140625">
        <ele>4041.800048828125</ele>
        <time>2026-01-06T18:55:56.000Z</time>
        <extensions>
          <ns3:TrackPointExtension>
            <ns3:hr>106</ns3:hr>
            <ns3:cad>0</ns3:cad>
          </ns3:TrackPointExtension>
        </extensions>
      </trkpt>
      <trkpt lat="37.95704408548772335052490234375" lon="-107.11479694582521915435791015625">
        <ele>4041.800048828125</ele>
        <time>2026-01-06T18:56:02.000Z</time>
        <extensions>
          <ns3:TrackPointExtension>
            <ns3:hr>107</ns3:hr>
            <ns3:cad>0</ns3:cad>
          </ns3:TrackPointExtension>
        </extensions>
      </trkpt>
      <trkpt lat="37.95704341493546962738037109375" lon="-107.114800550043582916259765625">
        <ele>4041.800048828125</ele>
        <time>2026-01-06T18:56:03.000Z</time>
        <extensions>
          <ns3:TrackPointExtension>
            <ns3:hr>107</ns3:hr>
            <ns3:cad>0</ns3:cad>
          </ns3:TrackPointExtension>
        </extensions>
      </trkpt>
      <trkpt lat="37.95704291202127933502197265625" lon="-107.11480096913874149322509765625">
        <ele>4042.199951171875</ele>
        <time>2026-01-06T18:56:09.000Z</time>
        <extensions>
          <ns3:TrackPointExtension>
            <ns3:hr>107</ns3:hr>
            <ns3:cad>0</ns3:cad>
          </ns3:TrackPointExtension>
        </extensions>
      </trkpt>
      <trkpt lat="37.95703754760324954986572265625" lon="-107.1148070879280567169189453125">
        <ele>4042</ele>
        <time>2026-01-06T18:56:10.000Z</time>
        <extensions>
          <ns3:TrackPointExtension>
            <ns3:hr>108</ns3:hr>
            <ns3:cad>0</ns3:cad>
          </ns3:TrackPointExtension>
        </extensions>
      </trkpt>
      <trkpt lat="37.95703947544097900390625" lon="-107.114807255566120147705078125">
        <ele>4041.60009765625</ele>
        <time>2026-01-06T18:56:13.000Z</time>
        <extensions>
          <ns3:TrackPointExtension>
            <ns3:hr>107</ns3:hr>
            <ns3:cad>0</ns3:cad>
          </ns3:TrackPointExtension>
        </extensions>
      </trkpt>
      <trkpt lat="37.9570302553474903106689453125" lon="-107.11481563746929168701171875">
        <ele>4041.60009765625</ele>
        <time>2026-01-06T18:56:15.000Z</time>
        <extensions>
          <ns3:TrackPointExtension>
            <ns3:hr>107</ns3:hr>
            <ns3:cad>0</ns3:cad>
          </ns3:TrackPointExtension>
        </extensions>
      </trkpt>
      <trkpt lat="37.9570098035037517547607421875" lon="-107.11482477374374866485595703125">
        <ele>4042.199951171875</ele>
        <time>2026-01-06T18:56:21.000Z</time>
        <extensions>
          <ns3:TrackPointExtension>
            <ns3:hr>108</ns3:hr>
            <ns3:cad>0</ns3:cad>
          </ns3:TrackPointExtension>
        </extensions>
      </trkpt>
      <trkpt lat="37.957006953656673431396484375" lon="-107.114823348820209503173828125">
        <ele>4042.199951171875</ele>
        <time>2026-01-06T18:56:22.000Z</time>
        <extensions>
          <ns3:TrackPointExtension>
            <ns3:hr>107</ns3:hr>
            <ns3:cad>0</ns3:cad>
          </ns3:TrackPointExtension>
        </extensions>
      </trkpt>
      <trkpt lat="37.956985495984554290771484375" lon="-107.11483550257980823516845703125">
        <ele>4042.199951171875</ele>
        <time>2026-01-06T18:56:27.000Z</time>
        <extensions>
          <ns3:TrackPointExtension>
            <ns3:hr>108</ns3:hr>
            <ns3:cad>57</ns3:cad>
          </ns3:TrackPointExtension>
        </extensions>
      </trkpt>
      <trkpt lat="37.95697015710175037384033203125" lon="-107.11485226638615131378173828125">
        <ele>4042</ele>
        <time>2026-01-06T18:56:30.000Z</time>
        <extensions>
          <ns3:TrackPointExtension>
            <ns3:hr>108</ns3:hr>
            <ns3:cad>0</ns3:cad>
          </ns3:TrackPointExtension>
        </extensions>
      </trkpt>
      <trkpt lat="37.9569658823311328887939453125" lon="-107.11485913954675197601318359375">
        <ele>4042.199951171875</ele>
        <time>2026-01-06T18:56:34.000Z</time>
        <extensions>
          <ns3:TrackPointExtension>
            <ns3:hr>108</ns3:hr>
            <ns3:cad>0</ns3:cad>
          </ns3:TrackPointExtension>
        </extensions>
      </trkpt>
      <trkpt lat="37.95696579851210117340087890625" lon="-107.11485913954675197601318359375">
        <ele>4042.39990234375</ele>
        <time>2026-01-06T18:56:40.000Z</time>
        <extensions>
          <ns3:TrackPointExtension>
            <ns3:hr>108</ns3:hr>
            <ns3:cad>0</ns3:cad>
          </ns3:TrackPointExtension>
        </extensions>
      </trkpt>
      <trkpt lat="37.95696579851210117340087890625" lon="-107.11485913954675197601318359375">
        <ele>4042.39990234375</ele>
        <time>2026-01-06T18:56:41.000Z</time>
        <extensions>
          <ns3:TrackPointExtension>
            <ns3:hr>108</ns3:hr>
            <ns3:cad>0</ns3:cad>
          </ns3:TrackPointExtension>
        </extensions>
      </trkpt>
      <trkpt lat="37.95696579851210117340087890625" lon="-107.11485913954675197601318359375">
        <ele>4042.39990234375</ele>
        <time>2026-01-06T18:56:47.000Z</time>
        <extensions>
          <ns3:TrackPointExtension>
            <ns3:hr>107</ns3:hr>
            <ns3:cad>0</ns3:cad>
          </ns3:TrackPointExtension>
        </extensions>
      </trkpt>
      <trkpt lat="37.95696579851210117340087890625" lon="-107.11485913954675197601318359375">
        <ele>4042.39990234375</ele>
        <time>2026-01-06T18:56:51.000Z</time>
        <extensions>
          <ns3:TrackPointExtension>
            <ns3:hr>107</ns3:hr>
            <ns3:cad>0</ns3:cad>
          </ns3:TrackPointExtension>
        </extensions>
      </trkpt>
      <trkpt lat="37.95695406384766101837158203125" lon="-107.114877663552761077880859375">
        <ele>4042.39990234375</ele>
        <time>2026-01-06T18:56:57.000Z</time>
        <extensions>
          <ns3:TrackPointExtension>
            <ns3:hr>107</ns3:hr>
            <ns3:cad>0</ns3:cad>
          </ns3:TrackPointExtension>
        </extensions>
      </trkpt>
      <trkpt lat="37.95695054344832897186279296875" lon="-107.1148805133998394012451171875">
        <ele>4042.39990234375</ele>
        <time>2026-01-06T18:56:58.000Z</time>
        <extensions>
          <ns3:TrackPointExtension>
            <ns3:hr>107</ns3:hr>
            <ns3:cad>0</ns3:cad>
          </ns3:TrackPointExtension>
        </extensions>
      </trkpt>
      <trkpt lat="37.95694869942963123321533203125" lon="-107.114885039627552032470703125">
        <ele>4042.60009765625</ele>
        <time>2026-01-06T18:57:04.000Z</time>
        <extensions>
          <ns3:TrackPointExtension>
            <ns3:hr>107</ns3:hr>
            <ns3:cad>0</ns3:cad>
          </ns3:TrackPointExtension>
        </extensions>
      </trkpt>
      <trkpt lat="37.95694869942963123321533203125" lon="-107.114885039627552032470703125">
        <ele>4042.60009765625</ele>
        <time>2026-01-06T18:57:06.000Z</time>
        <extensions>
          <ns3:TrackPointExtension>
            <ns3:hr>107</ns3:hr>
            <ns3:cad>0</ns3:cad>
          </ns3:TrackPointExtension>
        </extensions>
      </trkpt>
      <trkpt lat="37.95694869942963123321533203125" lon="-107.114885039627552032470703125">
        <ele>4042.199951171875</ele>
        <time>2026-01-06T18:57:12.000Z</time>
        <extensions>
          <ns3:TrackPointExtension>
            <ns3:hr>107</ns3:hr>
            <ns3:cad>0</ns3:cad>
          </ns3:TrackPointExtension>
        </extensions>
      </trkpt>
      <trkpt lat="37.95694869942963123321533203125" lon="-107.114885039627552032470703125">
        <ele>4042</ele>
        <time>2026-01-06T18:57:16.000Z</time>
        <extensions>
          <ns3:TrackPointExtension>
            <ns3:hr>106</ns3:hr>
            <ns3:cad>0</ns3:cad>
          </ns3:TrackPointExtension>
        </extensions>
      </trkpt>
      <trkpt lat="37.95694869942963123321533203125" lon="-107.114885039627552032470703125">
        <ele>4041.60009765625</ele>
        <time>2026-01-06T18:57:22.000Z</time>
        <extensions>
          <ns3:TrackPointExtension>
            <ns3:hr>105</ns3:hr>
            <ns3:cad>0</ns3:cad>
          </ns3:TrackPointExtension>
        </extensions>
      </trkpt>
      <trkpt lat="37.9569375514984130859375" lon="-107.1148862130939960479736328125">
        <ele>4041.60009765625</ele>
        <time>2026-01-06T18:57:25.000Z</time>
        <extensions>
          <ns3:TrackPointExtension>
            <ns3:hr>106</ns3:hr>
            <ns3:cad>0</ns3:cad>
          </ns3:TrackPointExtension>
        </extensions>
      </trkpt>
      <trkpt lat="37.95692078769207000732421875" lon="-107.11489266715943813323974609375">
        <ele>4042.39990234375</ele>
        <time>2026-01-06T18:57:28.000Z</time>
        <extensions>
          <ns3:TrackPointExtension>
            <ns3:hr>111</ns3:hr>
            <ns3:cad>0</ns3:cad>
          </ns3:TrackPointExtension>
        </extensions>
      </trkpt>
      <trkpt lat="37.956914417445659637451171875" lon="-107.114894427359104156494140625">
        <ele>4042.60009765625</ele>
        <time>2026-01-06T18:57:30.000Z</time>
        <extensions>
          <ns3:TrackPointExtension>
            <ns3:hr>115</ns3:hr>
            <ns3:cad>0</ns3:cad>
          </ns3:TrackPointExtension>
        </extensions>
      </trkpt>
      <trkpt lat="37.956913076341152191162109375" lon="-107.114894427359104156494140625">
        <ele>4042</ele>
        <time>2026-01-06T18:57:36.000Z</time>
        <extensions>
          <ns3:TrackPointExtension>
            <ns3:hr>116</ns3:hr>
            <ns3:cad>0</ns3:cad>
          </ns3:TrackPointExtension>
        </extensions>
      </trkpt>
      <trkpt lat="37.9569028504192829132080078125" lon="-107.11490507237613201141357421875">
        <ele>4042</ele>
        <time>2026-01-06T18:57:37.000Z</time>
        <extensions>
          <ns3:TrackPointExtension>
            <ns3:hr>116</ns3:hr>
            <ns3:cad>0</ns3:cad>
          </ns3:TrackPointExtension>
        </extensions>
      </trkpt>
      <trkpt lat="37.9568874277174472808837890625" lon="-107.11493943817913532257080078125">
        <ele>4042.60009765625</ele>
        <time>2026-01-06T18:57:43.000Z</time>
        <extensions>
          <ns3:TrackPointExtension>
            <ns3:hr>117</ns3:hr>
            <ns3:cad>0</ns3:cad>
          </ns3:TrackPointExtension>
        </extensions>
      </trkpt>
      <trkpt lat="37.9568787105381488800048828125" lon="-107.11494765244424343109130859375">
        <ele>4043</ele>
        <time>2026-01-06T18:57:47.000Z</time>
        <extensions>
          <ns3:TrackPointExtension>
            <ns3:hr>118</ns3:hr>
            <ns3:cad>0</ns3:cad>
          </ns3:TrackPointExtension>
        </extensions>
      </trkpt>
      <trkpt lat="37.9568746872246265411376953125" lon="-107.114950083196163177490234375">
        <ele>4043.39990234375</ele>
        <time>2026-01-06T18:57:49.000Z</time>
        <extensions>
          <ns3:TrackPointExtension>
            <ns3:hr>117</ns3:hr>
            <ns3:cad>0</ns3:cad>
          </ns3:TrackPointExtension>
        </extensions>
      </trkpt>
      <trkpt lat="37.95687007717788219451904296875" lon="-107.11496089585125446319580078125">
        <ele>4044</ele>
        <time>2026-01-06T18:57:53.000Z</time>
        <extensions>
          <ns3:TrackPointExtension>
            <ns3:hr>118</ns3:hr>
            <ns3:cad>0</ns3:cad>
          </ns3:TrackPointExtension>
        </extensions>
      </trkpt>
      <trkpt lat="37.95685314573347568511962890625" lon="-107.11497925221920013427734375">
        <ele>4043.800048828125</ele>
        <time>2026-01-06T18:57:57.000Z</time>
        <extensions>
          <ns3:TrackPointExtension>
            <ns3:hr>117</ns3:hr>
            <ns3:cad>0</ns3:cad>
          </ns3:TrackPointExtension>
        </extensions>
      </trkpt>
      <trkpt lat="37.95683437027037143707275390625" lon="-107.11499794386327266693115234375">
        <ele>4043.60009765625</ele>
        <time>2026-01-06T18:58:02.000Z</time>
        <extensions>
          <ns3:TrackPointExtension>
            <ns3:hr>116</ns3:hr>
            <ns3:cad>0</ns3:cad>
          </ns3:TrackPointExtension>
        </extensions>
      </trkpt>
      <trkpt lat="37.956828586757183074951171875" lon="-107.11501018144190311431884765625">
        <ele>4044.199951171875</ele>
        <time>2026-01-06T18:58:08.000Z</time>
        <extensions>
          <ns3:TrackPointExtension>
            <ns3:hr>116</ns3:hr>
            <ns3:cad>0</ns3:cad>
          </ns3:TrackPointExtension>
        </extensions>
      </trkpt>
      <trkpt lat="37.9568101465702056884765625" lon="-107.11505091749131679534912109375">
        <ele>4044.800048828125</ele>
        <time>2026-01-06T18:58:13.000Z</time>
        <extensions>
          <ns3:TrackPointExtension>
            <ns3:hr>116</ns3:hr>
            <ns3:cad>0</ns3:cad>
          </ns3:TrackPointExtension>
        </extensions>
      </trkpt>
      <trkpt lat="37.95680620707571506500244140625" lon="-107.11506349034607410430908203125">
        <ele>4045</ele>
        <time>2026-01-06T18:58:16.000Z</time>
        <extensions>
          <ns3:TrackPointExtension>
            <ns3:hr>119</ns3:hr>
            <ns3:cad>45</ns3:cad>
          </ns3:TrackPointExtension>
        </extensions>
      </trkpt>
      <trkpt lat="37.956807129085063934326171875" lon="-107.1150659210979938507080078125">
        <ele>4045</ele>
        <time>2026-01-06T18:58:19.000Z</time>
        <extensions>
          <ns3:TrackPointExtension>
            <ns3:hr>120</ns3:hr>
            <ns3:cad>0</ns3:cad>
          </ns3:TrackPointExtension>
        </extensions>
      </trkpt>
      <trkpt lat="37.9568036086857318878173828125" lon="-107.1150736324489116668701171875">
        <ele>4045.39990234375</ele>
        <time>2026-01-06T18:58:24.000Z</time>
        <extensions>
          <ns3:TrackPointExtension>
            <ns3:hr>118</ns3:hr>
            <ns3:cad>0</ns3:cad>
          </ns3:TrackPointExtension>
        </extensions>
      </trkpt>
      <trkpt lat="37.95679480768740177154541015625" lon="-107.1151014603674411773681640625">
        <ele>4046</ele>
        <time>2026-01-06T18:58:30.000Z</time>
        <extensions>
          <ns3:TrackPointExtension>
            <ns3:hr>120</ns3:hr>
            <ns3:cad>0</ns3:cad>
          </ns3:TrackPointExtension>
        </extensions>
      </trkpt>
      <trkpt lat="37.956784665584564208984375" lon="-107.1151207387447357177734375">
        <ele>4045.800048828125</ele>
        <time>2026-01-06T18:58:35.000Z</time>
        <extensions>
          <ns3:TrackPointExtension>
            <ns3:hr>119</ns3:hr>
            <ns3:cad>0</ns3:cad>
          </ns3:TrackPointExtension>
        </extensions>
      </trkpt>
      <trkpt lat="37.956780977547168731689453125" lon="-107.1151383407413959503173828125">
        <ele>4045.39990234375</ele>
        <time>2026-01-06T18:58:41.000Z</time>
        <extensions>
          <ns3:TrackPointExtension>
            <ns3:hr>120</ns3:hr>
            <ns3:cad>0</ns3:cad>
          </ns3:TrackPointExtension>
        </extensions>
      </trkpt>
      <trkpt lat="37.95678005553781986236572265625" lon="-107.115145884454250335693359375">
        <ele>4045.800048828125</ele>
        <time>2026-01-06T18:58:45.000Z</time>
        <extensions>
          <ns3:TrackPointExtension>
            <ns3:hr>123</ns3:hr>
            <ns3:cad>55</ns3:cad>
          </ns3:TrackPointExtension>
        </extensions>
      </trkpt>
      <trkpt lat="37.95677904970943927764892578125" lon="-107.1151651628315448760986328125">
        <ele>4045.60009765625</ele>
        <time>2026-01-06T18:58:48.000Z</time>
        <extensions>
          <ns3:TrackPointExtension>
            <ns3:hr>124</ns3:hr>
            <ns3:cad>0</ns3:cad>
          </ns3:TrackPointExtension>
        </extensions>
      </trkpt>
      <trkpt lat="37.95677636750042438507080078125" lon="-107.1151752211153507232666015625">
        <ele>4045.60009765625</ele>
        <time>2026-01-06T18:58:54.000Z</time>
        <extensions>
          <ns3:TrackPointExtension>
            <ns3:hr>122</ns3:hr>
            <ns3:cad>0</ns3:cad>
          </ns3:TrackPointExtension>
        </extensions>
      </trkpt>
      <trkpt lat="37.95675205998122692108154296875" lon="-107.11516491137444972991943359375">
        <ele>4045.39990234375</ele>
        <time>2026-01-06T18:58:58.000Z</time>
        <extensions>
          <ns3:TrackPointExtension>
            <ns3:hr>119</ns3:hr>
            <ns3:cad>0</ns3:cad>
          </ns3:TrackPointExtension>
        </extensions>
      </trkpt>
      <trkpt lat="37.9567472822964191436767578125" lon="-107.11517077870666980743408203125">
        <ele>4045.39990234375</ele>
        <time>2026-01-06T18:58:59.000Z</time>
        <extensions>
          <ns3:TrackPointExtension>
            <ns3:hr>118</ns3:hr>
            <ns3:cad>0</ns3:cad>
          </ns3:TrackPointExtension>
        </extensions>
      </trkpt>
      <trkpt lat="37.956756167113780975341796875" lon="-107.1151896379888057708740234375">
        <ele>4046</ele>
        <time>2026-01-06T18:59:04.000Z</time>
        <extensions>
          <ns3:TrackPointExtension>
            <ns3:hr>117</ns3:hr>
            <ns3:cad>0</ns3:cad>
          </ns3:TrackPointExtension>
        </extensions>
      </trkpt>
      <trkpt lat="37.95676077716052532196044921875" lon="-107.115182094275951385498046875">
        <ele>4045.800048828125</ele>
        <time>2026-01-06T18:59:08.000Z</time>
        <extensions>
          <ns3:TrackPointExtension>
            <ns3:hr>114</ns3:hr>
            <ns3:cad>0</ns3:cad>
          </ns3:TrackPointExtension>
        </extensions>
      </trkpt>
      <trkpt lat="37.9567549936473369598388671875" lon="-107.1151899732649326324462890625">
        <ele>4045.800048828125</ele>
        <time>2026-01-06T18:59:11.000Z</time>
        <extensions>
          <ns3:TrackPointExtension>
            <ns3:hr>113</ns3:hr>
            <ns3:cad>0</ns3:cad>
          </ns3:TrackPointExtension>
        </extensions>
      </trkpt>
      <trkpt lat="37.95675172470510005950927734375" lon="-107.11518955416977405548095703125">
        <ele>4046.60009765625</ele>
        <time>2026-01-06T18:59:17.000Z</time>
        <extensions>
          <ns3:TrackPointExtension>
            <ns3:hr>113</ns3:hr>
            <ns3:cad>0</ns3:cad>
          </ns3:TrackPointExtension>
        </extensions>
      </trkpt>
      <trkpt lat="37.95675172470510005950927734375" lon="-107.11518955416977405548095703125">
        <ele>4046.800048828125</ele>
        <time>2026-01-06T18:59:23.000Z</time>
        <extensions>
          <ns3:TrackPointExtension>
            <ns3:hr>111</ns3:hr>
            <ns3:cad>0</ns3:cad>
          </ns3:TrackPointExtension>
        </extensions>
      </trkpt>
      <trkpt lat="37.95675172470510005950927734375" lon="-107.11518955416977405548095703125">
        <ele>4046.39990234375</ele>
        <time>2026-01-06T18:59:26.000Z</time>
        <extensions>
          <ns3:TrackPointExtension>
            <ns3:hr>108</ns3:hr>
            <ns3:cad>0</ns3:cad>
          </ns3:TrackPointExtension>
        </extensions>
      </trkpt>
      <trkpt lat="37.95675222761929035186767578125" lon="-107.1151913143694400787353515625">
        <ele>4046.199951171875</ele>
        <time>2026-01-06T18:59:27.000Z</time>
        <extensions>
          <ns3:TrackPointExtension>
            <ns3:hr>107</ns3:hr>
            <ns3:cad>0</ns3:cad>
          </ns3:TrackPointExtension>
        </extensions>
      </trkpt>
      <trkpt lat="37.9567606933414936065673828125" lon="-107.1151717007160186767578125">
        <ele>4046</ele>
        <time>2026-01-06T18:59:33.000Z</time>
        <extensions>
          <ns3:TrackPointExtension>
            <ns3:hr>106</ns3:hr>
            <ns3:cad>0</ns3:cad>
          </ns3:TrackPointExtension>
        </extensions>
      </trkpt>
      <trkpt lat="37.95677653513848781585693359375" lon="-107.115156613290309906005859375">
        <ele>4045.60009765625</ele>
        <time>2026-01-06T18:59:39.000Z</time>
        <extensions>
          <ns3:TrackPointExtension>
            <ns3:hr>106</ns3:hr>
            <ns3:cad>0</ns3:cad>
          </ns3:TrackPointExtension>
        </extensions>
      </trkpt>
      <trkpt lat="37.95678424648940563201904296875" lon="-107.11514781229197978973388671875">
        <ele>4045.60009765625</ele>
        <time>2026-01-06T18:59:43.000Z</time>
        <extensions>
          <ns3:TrackPointExtension>
            <ns3:hr>106</ns3:hr>
            <ns3:cad>0</ns3:cad>
          </ns3:TrackPointExtension>
        </extensions>
      </trkpt>
      <trkpt lat="37.9567834921181201934814453125" lon="-107.1151152066886425018310546875">
        <ele>4045.39990234375</ele>
        <time>2026-01-06T18:59:47.000Z</time>
        <extensions>
          <ns3:TrackPointExtension>
            <ns3:hr>109</ns3:hr>
            <ns3:cad>0</ns3:cad>
          </ns3:TrackPointExtension>
        </extensions>
      </trkpt>
      <trkpt lat="37.956789024174213409423828125" lon="-107.11511042900383472442626953125">
        <ele>4045.199951171875</ele>
        <time>2026-01-06T18:59:49.000Z</time>
        <extensions>
          <ns3:TrackPointExtension>
            <ns3:hr>112</ns3:hr>
            <ns3:cad>57</ns3:cad>
          </ns3:TrackPointExtension>
        </extensions>
      </trkpt>
      <trkpt lat="37.95679229311645030975341796875" lon="-107.11510573513805866241455078125">
        <ele>4045</ele>
        <time>2026-01-06T18:59:50.000Z</time>
        <extensions>
          <ns3:TrackPointExtension>
            <ns3:hr>113</ns3:hr>
            <ns3:cad>57</ns3:cad>
          </ns3:TrackPointExtension>
        </extensions>
      </trkpt>
      <trkpt lat="37.95679832808673381805419921875" lon="-107.115099616348743438720703125">
        <ele>4044.800048828125</ele>
        <time>2026-01-06T18:59:53.000Z</time>
        <extensions>
          <ns3:TrackPointExtension>
            <ns3:hr>114</ns3:hr>
            <ns3:cad>61</ns3:cad>
          </ns3:TrackPointExtension>
        </extensions>
      </trkpt>
      <trkpt lat="37.9568093083798885345458984375" lon="-107.11509819142520427703857421875">
        <ele>4045</ele>
        <time>2026-01-06T18:59:59.000Z</time>
        <extensions>
          <ns3:TrackPointExtension>
            <ns3:hr>114</ns3:hr>
            <ns3:cad>0</ns3:cad>
          </ns3:TrackPointExtension>
        </extensions>
      </trkpt>
      <trkpt lat="37.9568072967231273651123046875" lon="-107.1150981076061725616455078125">
        <ele>4044.39990234375</ele>
        <time>2026-01-06T19:00:05.000Z</time>
        <extensions>
          <ns3:TrackPointExtension>
            <ns3:hr>114</ns3:hr>
            <ns3:cad>0</ns3:cad>
          </ns3:TrackPointExtension>
        </extensions>
      </trkpt>
      <trkpt lat="37.9568072967231273651123046875" lon="-107.1150981076061725616455078125">
        <ele>4044.60009765625</ele>
        <time>2026-01-06T19:00:11.000Z</time>
        <extensions>
          <ns3:TrackPointExtension>
            <ns3:hr>114</ns3:hr>
            <ns3:cad>0</ns3:cad>
          </ns3:TrackPointExtension>
        </extensions>
      </trkpt>
      <trkpt lat="37.9568072967231273651123046875" lon="-107.1150981076061725616455078125">
        <ele>4044.60009765625</ele>
        <time>2026-01-06T19:00:16.000Z</time>
        <extensions>
          <ns3:TrackPointExtension>
            <ns3:hr>115</ns3:hr>
            <ns3:cad>0</ns3:cad>
          </ns3:TrackPointExtension>
        </extensions>
      </trkpt>
      <trkpt lat="37.9568072967231273651123046875" lon="-107.1150981076061725616455078125">
        <ele>4044.39990234375</ele>
        <time>2026-01-06T19:00:19.000Z</time>
        <extensions>
          <ns3:TrackPointExtension>
            <ns3:hr>118</ns3:hr>
            <ns3:cad>0</ns3:cad>
          </ns3:TrackPointExtension>
        </extensions>
      </trkpt>
      <trkpt lat="37.9568072967231273651123046875" lon="-107.1150981076061725616455078125">
        <ele>4044.39990234375</ele>
        <time>2026-01-06T19:00:24.000Z</time>
        <extensions>
          <ns3:TrackPointExtension>
            <ns3:hr>119</ns3:hr>
            <ns3:cad>0</ns3:cad>
          </ns3:TrackPointExtension>
        </extensions>
      </trkpt>
      <trkpt lat="37.9568072967231273651123046875" lon="-107.1150981076061725616455078125">
        <ele>4044.60009765625</ele>
        <time>2026-01-06T19:00:27.000Z</time>
        <extensions>
          <ns3:TrackPointExtension>
            <ns3:hr>115</ns3:hr>
            <ns3:cad>0</ns3:cad>
          </ns3:TrackPointExtension>
        </extensions>
      </trkpt>
      <trkpt lat="37.9568072967231273651123046875" lon="-107.1150981076061725616455078125">
        <ele>4044.60009765625</ele>
        <time>2026-01-06T19:00:30.000Z</time>
        <extensions>
          <ns3:TrackPointExtension>
            <ns3:hr>110</ns3:hr>
            <ns3:cad>0</ns3:cad>
          </ns3:TrackPointExtension>
        </extensions>
      </trkpt>
      <trkpt lat="37.9568072967231273651123046875" lon="-107.1150981076061725616455078125">
        <ele>4044.60009765625</ele>
        <time>2026-01-06T19:00:32.000Z</time>
        <extensions>
          <ns3:TrackPointExtension>
            <ns3:hr>109</ns3:hr>
            <ns3:cad>0</ns3:cad>
          </ns3:TrackPointExtension>
        </extensions>
      </trkpt>
      <trkpt lat="37.9568072967231273651123046875" lon="-107.1150981076061725616455078125">
        <ele>4044.39990234375</ele>
        <time>2026-01-06T19:00:38.000Z</time>
        <extensions>
          <ns3:TrackPointExtension>
            <ns3:hr>108</ns3:hr>
            <ns3:cad>0</ns3:cad>
          </ns3:TrackPointExtension>
        </extensions>
      </trkpt>
      <trkpt lat="37.9568072967231273651123046875" lon="-107.1150981076061725616455078125">
        <ele>4044.39990234375</ele>
        <time>2026-01-06T19:00:41.000Z</time>
        <extensions>
          <ns3:TrackPointExtension>
            <ns3:hr>108</ns3:hr>
            <ns3:cad>0</ns3:cad>
          </ns3:TrackPointExtension>
        </extensions>
      </trkpt>
      <trkpt lat="37.9568072967231273651123046875" lon="-107.1150981076061725616455078125">
        <ele>4044</ele>
        <time>2026-01-06T19:00:44.000Z</time>
        <extensions>
          <ns3:TrackPointExtension>
            <ns3:hr>108</ns3:hr>
            <ns3:cad>0</ns3:cad>
          </ns3:TrackPointExtension>
        </extensions>
      </trkpt>
      <trkpt lat="37.9568072967231273651123046875" lon="-107.1150981076061725616455078125">
        <ele>4044.199951171875</ele>
        <time>2026-01-06T19:00:48.000Z</time>
        <extensions>
          <ns3:TrackPointExtension>
            <ns3:hr>111</ns3:hr>
            <ns3:cad>0</ns3:cad>
          </ns3:TrackPointExtension>
        </extensions>
      </trkpt>
      <trkpt lat="37.9568072967231273651123046875" lon="-107.1150981076061725616455078125">
        <ele>4044.199951171875</ele>
        <time>2026-01-06T19:00:54.000Z</time>
        <extensions>
          <ns3:TrackPointExtension>
            <ns3:hr>112</ns3:hr>
            <ns3:cad>0</ns3:cad>
          </ns3:TrackPointExtension>
        </extensions>
      </trkpt>
      <trkpt lat="37.9568072967231273651123046875" lon="-107.1150981076061725616455078125">
        <ele>4044.199951171875</ele>
        <time>2026-01-06T19:00:57.000Z</time>
        <extensions>
          <ns3:TrackPointExtension>
            <ns3:hr>111</ns3:hr>
            <ns3:cad>0</ns3:cad>
          </ns3:TrackPointExtension>
        </extensions>
      </trkpt>
      <trkpt lat="37.9568072967231273651123046875" lon="-107.1150981076061725616455078125">
        <ele>4043.800048828125</ele>
        <time>2026-01-06T19:01:03.000Z</time>
        <extensions>
          <ns3:TrackPointExtension>
            <ns3:hr>112</ns3:hr>
            <ns3:cad>0</ns3:cad>
          </ns3:TrackPointExtension>
        </extensions>
      </trkpt>
      <trkpt lat="37.9568072967231273651123046875" lon="-107.1150981076061725616455078125">
        <ele>4043.800048828125</ele>
        <time>2026-01-06T19:01:09.000Z</time>
        <extensions>
          <ns3:TrackPointExtension>
            <ns3:hr>110</ns3:hr>
            <ns3:cad>0</ns3:cad>
          </ns3:TrackPointExtension>
        </extensions>
      </trkpt>
      <trkpt lat="37.9568072967231273651123046875" lon="-107.1150981076061725616455078125">
        <ele>4044.199951171875</ele>
        <time>2026-01-06T19:01:15.000Z</time>
        <extensions>
          <ns3:TrackPointExtension>
            <ns3:hr>111</ns3:hr>
            <ns3:cad>0</ns3:cad>
          </ns3:TrackPointExtension>
        </extensions>
      </trkpt>
      <trkpt lat="37.9568072967231273651123046875" lon="-107.1150981076061725616455078125">
        <ele>4044.39990234375</ele>
        <time>2026-01-06T19:01:19.000Z</time>
        <extensions>
          <ns3:TrackPointExtension>
            <ns3:hr>111</ns3:hr>
            <ns3:cad>0</ns3:cad>
          </ns3:TrackPointExtension>
        </extensions>
      </trkpt>
      <trkpt lat="37.9568072967231273651123046875" lon="-107.1150981076061725616455078125">
        <ele>4043.800048828125</ele>
        <time>2026-01-06T19:01:25.000Z</time>
        <extensions>
          <ns3:TrackPointExtension>
            <ns3:hr>109</ns3:hr>
            <ns3:cad>0</ns3:cad>
          </ns3:TrackPointExtension>
        </extensions>
      </trkpt>
      <trkpt lat="37.9568072967231273651123046875" lon="-107.1150981076061725616455078125">
        <ele>4043.800048828125</ele>
        <time>2026-01-06T19:01:29.000Z</time>
        <extensions>
          <ns3:TrackPointExtension>
            <ns3:hr>112</ns3:hr>
            <ns3:cad>0</ns3:cad>
          </ns3:TrackPointExtension>
        </extensions>
      </trkpt>
      <trkpt lat="37.9568072967231273651123046875" lon="-107.1150981076061725616455078125">
        <ele>4043.60009765625</ele>
        <time>2026-01-06T19:01:35.000Z</time>
        <extensions>
          <ns3:TrackPointExtension>
            <ns3:hr>113</ns3:hr>
            <ns3:cad>0</ns3:cad>
          </ns3:TrackPointExtension>
        </extensions>
      </trkpt>
      <trkpt lat="37.9568072967231273651123046875" lon="-107.1150981076061725616455078125">
        <ele>4043.60009765625</ele>
        <time>2026-01-06T19:01:41.000Z</time>
        <extensions>
          <ns3:TrackPointExtension>
            <ns3:hr>114</ns3:hr>
            <ns3:cad>0</ns3:cad>
          </ns3:TrackPointExtension>
        </extensions>
      </trkpt>
      <trkpt lat="37.9568072967231273651123046875" lon="-107.1150981076061725616455078125">
        <ele>4042.800048828125</ele>
        <time>2026-01-06T19:01:46.000Z</time>
        <extensions>
          <ns3:TrackPointExtension>
            <ns3:hr>112</ns3:hr>
            <ns3:cad>0</ns3:cad>
          </ns3:TrackPointExtension>
        </extensions>
      </trkpt>
      <trkpt lat="37.9568072967231273651123046875" lon="-107.1150981076061725616455078125">
        <ele>4042.60009765625</ele>
        <time>2026-01-06T19:01:48.000Z</time>
        <extensions>
          <ns3:TrackPointExtension>
            <ns3:hr>112</ns3:hr>
            <ns3:cad>0</ns3:cad>
          </ns3:TrackPointExtension>
        </extensions>
      </trkpt>
      <trkpt lat="37.9568072967231273651123046875" lon="-107.1150981076061725616455078125">
        <ele>4042.800048828125</ele>
        <time>2026-01-06T19:01:51.000Z</time>
        <extensions>
          <ns3:TrackPointExtension>
            <ns3:hr>109</ns3:hr>
            <ns3:cad>0</ns3:cad>
          </ns3:TrackPointExtension>
        </extensions>
      </trkpt>
      <trkpt lat="37.9568072967231273651123046875" lon="-107.1150981076061725616455078125">
        <ele>4042.800048828125</ele>
        <time>2026-01-06T19:01:57.000Z</time>
        <extensions>
          <ns3:TrackPointExtension>
            <ns3:hr>111</ns3:hr>
            <ns3:cad>0</ns3:cad>
          </ns3:TrackPointExtension>
        </extensions>
      </trkpt>
      <trkpt lat="37.9568072967231273651123046875" lon="-107.1150981076061725616455078125">
        <ele>4043.199951171875</ele>
        <time>2026-01-06T19:02:03.000Z</time>
        <extensions>
          <ns3:TrackPointExtension>
            <ns3:hr>111</ns3:hr>
            <ns3:cad>0</ns3:cad>
          </ns3:TrackPointExtension>
        </extensions>
      </trkpt>
      <trkpt lat="37.9568072967231273651123046875" lon="-107.1150981076061725616455078125">
        <ele>4042.800048828125</ele>
        <time>2026-01-06T19:02:09.000Z</time>
        <extensions>
          <ns3:TrackPointExtension>
            <ns3:hr>110</ns3:hr>
            <ns3:cad>0</ns3:cad>
          </ns3:TrackPointExtension>
        </extensions>
      </trkpt>
      <trkpt lat="37.9568072967231273651123046875" lon="-107.1150981076061725616455078125">
        <ele>4042.39990234375</ele>
        <time>2026-01-06T19:02:15.000Z</time>
        <extensions>
          <ns3:TrackPointExtension>
            <ns3:hr>109</ns3:hr>
            <ns3:cad>0</ns3:cad>
          </ns3:TrackPointExtension>
        </extensions>
      </trkpt>
      <trkpt lat="37.9568072967231273651123046875" lon="-107.1150981076061725616455078125">
        <ele>4042.39990234375</ele>
        <time>2026-01-06T19:02:21.000Z</time>
        <extensions>
          <ns3:TrackPointExtension>
            <ns3:hr>109</ns3:hr>
            <ns3:cad>0</ns3:cad>
          </ns3:TrackPointExtension>
        </extensions>
      </trkpt>
      <trkpt lat="37.9568072967231273651123046875" lon="-107.1150981076061725616455078125">
        <ele>4042.39990234375</ele>
        <time>2026-01-06T19:02:25.000Z</time>
        <extensions>
          <ns3:TrackPointExtension>
            <ns3:hr>111</ns3:hr>
            <ns3:cad>0</ns3:cad>
          </ns3:TrackPointExtension>
        </extensions>
      </trkpt>
      <trkpt lat="37.9568072967231273651123046875" lon="-107.1150981076061725616455078125">
        <ele>4042.39990234375</ele>
        <time>2026-01-06T19:02:31.000Z</time>
        <extensions>
          <ns3:TrackPointExtension>
            <ns3:hr>111</ns3:hr>
            <ns3:cad>0</ns3:cad>
          </ns3:TrackPointExtension>
        </extensions>
      </trkpt>
      <trkpt lat="37.9568072967231273651123046875" lon="-107.1150981076061725616455078125">
        <ele>4042.39990234375</ele>
        <time>2026-01-06T19:02:37.000Z</time>
        <extensions>
          <ns3:TrackPointExtension>
            <ns3:hr>111</ns3:hr>
            <ns3:cad>0</ns3:cad>
          </ns3:TrackPointExtension>
        </extensions>
      </trkpt>
      <trkpt lat="37.9568072967231273651123046875" lon="-107.1150981076061725616455078125">
        <ele>4042.199951171875</ele>
        <time>2026-01-06T19:02:41.000Z</time>
        <extensions>
          <ns3:TrackPointExtension>
            <ns3:hr>110</ns3:hr>
            <ns3:cad>0</ns3:cad>
          </ns3:TrackPointExtension>
        </extensions>
      </trkpt>
      <trkpt lat="37.9568072967231273651123046875" lon="-107.1150981076061725616455078125">
        <ele>4042.199951171875</ele>
        <time>2026-01-06T19:02:43.000Z</time>
        <extensions>
          <ns3:TrackPointExtension>
            <ns3:hr>107</ns3:hr>
            <ns3:cad>0</ns3:cad>
          </ns3:TrackPointExtension>
        </extensions>
      </trkpt>
      <trkpt lat="37.9568072967231273651123046875" lon="-107.1150981076061725616455078125">
        <ele>4042.199951171875</ele>
        <time>2026-01-06T19:02:45.000Z</time>
        <extensions>
          <ns3:TrackPointExtension>
            <ns3:hr>104</ns3:hr>
            <ns3:cad>0</ns3:cad>
          </ns3:TrackPointExtension>
        </extensions>
      </trkpt>
      <trkpt lat="37.9568072967231273651123046875" lon="-107.1150981076061725616455078125">
        <ele>4042.39990234375</ele>
        <time>2026-01-06T19:02:51.000Z</time>
        <extensions>
          <ns3:TrackPointExtension>
            <ns3:hr>103</ns3:hr>
            <ns3:cad>0</ns3:cad>
          </ns3:TrackPointExtension>
        </extensions>
      </trkpt>
      <trkpt lat="37.9568072967231273651123046875" lon="-107.1150981076061725616455078125">
        <ele>4042.39990234375</ele>
        <time>2026-01-06T19:02:57.000Z</time>
        <extensions>
          <ns3:TrackPointExtension>
            <ns3:hr>104</ns3:hr>
            <ns3:cad>0</ns3:cad>
          </ns3:TrackPointExtension>
        </extensions>
      </trkpt>
      <trkpt lat="37.9568072967231273651123046875" lon="-107.1150981076061725616455078125">
        <ele>4042.199951171875</ele>
        <time>2026-01-06T19:03:03.000Z</time>
        <extensions>
          <ns3:TrackPointExtension>
            <ns3:hr>106</ns3:hr>
            <ns3:cad>0</ns3:cad>
          </ns3:TrackPointExtension>
        </extensions>
      </trkpt>
      <trkpt lat="37.9568072967231273651123046875" lon="-107.1150981076061725616455078125">
        <ele>4042.199951171875</ele>
        <time>2026-01-06T19:03:09.000Z</time>
        <extensions>
          <ns3:TrackPointExtension>
            <ns3:hr>106</ns3:hr>
            <ns3:cad>0</ns3:cad>
          </ns3:TrackPointExtension>
        </extensions>
      </trkpt>
      <trkpt lat="37.956785671412944793701171875" lon="-107.11510288529098033905029296875">
        <ele>4043</ele>
        <time>2026-01-06T19:03:15.000Z</time>
        <extensions>
          <ns3:TrackPointExtension>
            <ns3:hr>106</ns3:hr>
            <ns3:cad>0</ns3:cad>
          </ns3:TrackPointExtension>
        </extensions>
      </trkpt>
      <trkpt lat="37.95677586458623409271240234375" lon="-107.11514479480683803558349609375">
        <ele>4043.60009765625</ele>
        <time>2026-01-06T19:03:21.000Z</time>
        <extensions>
          <ns3:TrackPointExtension>
            <ns3:hr>106</ns3:hr>
            <ns3:cad>0</ns3:cad>
          </ns3:TrackPointExtension>
        </extensions>
      </trkpt>
      <trkpt lat="37.95677770860493183135986328125" lon="-107.1151504106819629669189453125">
        <ele>4043.60009765625</ele>
        <time>2026-01-06T19:03:27.000Z</time>
        <extensions>
          <ns3:TrackPointExtension>
            <ns3:hr>108</ns3:hr>
            <ns3:cad>0</ns3:cad>
          </ns3:TrackPointExtension>
        </extensions>
      </trkpt>
      <trkpt lat="37.95677770860493183135986328125" lon="-107.1151504106819629669189453125">
        <ele>4043.39990234375</ele>
        <time>2026-01-06T19:03:30.000Z</time>
        <extensions>
          <ns3:TrackPointExtension>
            <ns3:hr>111</ns3:hr>
            <ns3:cad>0</ns3:cad>
          </ns3:TrackPointExtension>
        </extensions>
      </trkpt>
      <trkpt lat="37.95677770860493183135986328125" lon="-107.1151504106819629669189453125">
        <ele>4043.199951171875</ele>
        <time>2026-01-06T19:03:34.000Z</time>
        <extensions>
          <ns3:TrackPointExtension>
            <ns3:hr>114</ns3:hr>
            <ns3:cad>0</ns3:cad>
          </ns3:TrackPointExtension>
        </extensions>
      </trkpt>
      <trkpt lat="37.95677770860493183135986328125" lon="-107.1151504106819629669189453125">
        <ele>4043.199951171875</ele>
        <time>2026-01-06T19:03:37.000Z</time>
        <extensions>
          <ns3:TrackPointExtension>
            <ns3:hr>114</ns3:hr>
            <ns3:cad>0</ns3:cad>
          </ns3:TrackPointExtension>
        </extensions>
      </trkpt>
      <trkpt lat="37.95677770860493183135986328125" lon="-107.1151504106819629669189453125">
        <ele>4042.800048828125</ele>
        <time>2026-01-06T19:03:43.000Z</time>
        <extensions>
          <ns3:TrackPointExtension>
            <ns3:hr>113</ns3:hr>
            <ns3:cad>0</ns3:cad>
          </ns3:TrackPointExtension>
        </extensions>
      </trkpt>
      <trkpt lat="37.95677770860493183135986328125" lon="-107.1151504106819629669189453125">
        <ele>4042.800048828125</ele>
        <time>2026-01-06T19:03:44.000Z</time>
        <extensions>
          <ns3:TrackPointExtension>
            <ns3:hr>113</ns3:hr>
            <ns3:cad>0</ns3:cad>
          </ns3:TrackPointExtension>
        </extensions>
      </trkpt>
      <trkpt lat="37.95677770860493183135986328125" lon="-107.1151504106819629669189453125">
        <ele>4042.60009765625</ele>
        <time>2026-01-06T19:03:50.000Z</time>
        <extensions>
          <ns3:TrackPointExtension>
            <ns3:hr>112</ns3:hr>
            <ns3:cad>0</ns3:cad>
          </ns3:TrackPointExtension>
        </extensions>
      </trkpt>
      <trkpt lat="37.95677770860493183135986328125" lon="-107.1151504106819629669189453125">
        <ele>4042.39990234375</ele>
        <time>2026-01-06T19:03:52.000Z</time>
        <extensions>
          <ns3:TrackPointExtension>
            <ns3:hr>110</ns3:hr>
            <ns3:cad>0</ns3:cad>
          </ns3:TrackPointExtension>
        </extensions>
      </trkpt>
      <trkpt lat="37.95677770860493183135986328125" lon="-107.1151504106819629669189453125">
        <ele>4041.800048828125</ele>
        <time>2026-01-06T19:03:58.000Z</time>
        <extensions>
          <ns3:TrackPointExtension>
            <ns3:hr>109</ns3:hr>
            <ns3:cad>0</ns3:cad>
          </ns3:TrackPointExtension>
        </extensions>
      </trkpt>
      <trkpt lat="37.95677770860493183135986328125" lon="-107.1151504106819629669189453125">
        <ele>4041.800048828125</ele>
        <time>2026-01-06T19:03:59.000Z</time>
        <extensions>
          <ns3:TrackPointExtension>
            <ns3:hr>109</ns3:hr>
            <ns3:cad>0</ns3:cad>
          </ns3:TrackPointExtension>
        </extensions>
      </trkpt>
      <trkpt lat="37.95677770860493183135986328125" lon="-107.1151504106819629669189453125">
        <ele>4042</ele>
        <time>2026-01-06T19:04:02.000Z</time>
        <extensions>
          <ns3:TrackPointExtension>
            <ns3:hr>108</ns3:hr>
            <ns3:cad>0</ns3:cad>
          </ns3:TrackPointExtension>
        </extensions>
      </trkpt>
      <trkpt lat="37.9567779600620269775390625" lon="-107.11514546535909175872802734375">
        <ele>4042.800048828125</ele>
        <time>2026-01-06T19:04:08.000Z</time>
        <extensions>
          <ns3:TrackPointExtension>
            <ns3:hr>108</ns3:hr>
            <ns3:cad>0</ns3:cad>
          </ns3:TrackPointExtension>
        </extensions>
      </trkpt>
      <trkpt lat="37.95677770860493183135986328125" lon="-107.1151504106819629669189453125">
        <ele>4042.39990234375</ele>
        <time>2026-01-06T19:04:11.000Z</time>
        <extensions>
          <ns3:TrackPointExtension>
            <ns3:hr>111</ns3:hr>
            <ns3:cad>0</ns3:cad>
          </ns3:TrackPointExtension>
        </extensions>
      </trkpt>
      <trkpt lat="37.95677770860493183135986328125" lon="-107.1151504106819629669189453125">
        <ele>4041.60009765625</ele>
        <time>2026-01-06T19:04:17.000Z</time>
        <extensions>
          <ns3:TrackPointExtension>
            <ns3:hr>111</ns3:hr>
            <ns3:cad>0</ns3:cad>
          </ns3:TrackPointExtension>
        </extensions>
      </trkpt>
      <trkpt lat="37.95677770860493183135986328125" lon="-107.1151504106819629669189453125">
        <ele>4042.60009765625</ele>
        <time>2026-01-06T19:04:22.000Z</time>
        <extensions>
          <ns3:TrackPointExtension>
            <ns3:hr>112</ns3:hr>
            <ns3:cad>0</ns3:cad>
          </ns3:TrackPointExtension>
        </extensions>
      </trkpt>
      <trkpt lat="37.95677770860493183135986328125" lon="-107.1151504106819629669189453125">
        <ele>4042.39990234375</ele>
        <time>2026-01-06T19:04:28.000Z</time>
        <extensions>
          <ns3:TrackPointExtension>
            <ns3:hr>112</ns3:hr>
            <ns3:cad>0</ns3:cad>
          </ns3:TrackPointExtension>
        </extensions>
      </trkpt>
      <trkpt lat="37.95677770860493183135986328125" lon="-107.1151504106819629669189453125">
        <ele>4042.199951171875</ele>
        <time>2026-01-06T19:04:31.000Z</time>
        <extensions>
          <ns3:TrackPointExtension>
            <ns3:hr>112</ns3:hr>
            <ns3:cad>0</ns3:cad>
          </ns3:TrackPointExtension>
        </extensions>
      </trkpt>
      <trkpt lat="37.95677770860493183135986328125" lon="-107.1151504106819629669189453125">
        <ele>4042.199951171875</ele>
        <time>2026-01-06T19:04:37.000Z</time>
        <extensions>
          <ns3:TrackPointExtension>
            <ns3:hr>113</ns3:hr>
            <ns3:cad>0</ns3:cad>
          </ns3:TrackPointExtension>
        </extensions>
      </trkpt>
      <trkpt lat="37.95677770860493183135986328125" lon="-107.1151504106819629669189453125">
        <ele>4042.199951171875</ele>
        <time>2026-01-06T19:04:39.000Z</time>
        <extensions>
          <ns3:TrackPointExtension>
            <ns3:hr>116</ns3:hr>
            <ns3:cad>0</ns3:cad>
          </ns3:TrackPointExtension>
        </extensions>
      </trkpt>
      <trkpt lat="37.95677770860493183135986328125" lon="-107.1151504106819629669189453125">
        <ele>4042.199951171875</ele>
        <time>2026-01-06T19:04:42.000Z</time>
        <extensions>
          <ns3:TrackPointExtension>
            <ns3:hr>113</ns3:hr>
            <ns3:cad>0</ns3:cad>
          </ns3:TrackPointExtension>
        </extensions>
      </trkpt>
      <trkpt lat="37.95677770860493183135986328125" lon="-107.1151504106819629669189453125">
        <ele>4042.199951171875</ele>
        <time>2026-01-06T19:04:43.000Z</time>
        <extensions>
          <ns3:TrackPointExtension>
            <ns3:hr>105</ns3:hr>
            <ns3:cad>0</ns3:cad>
          </ns3:TrackPointExtension>
        </extensions>
      </trkpt>
      <trkpt lat="37.95677770860493183135986328125" lon="-107.1151504106819629669189453125">
        <ele>4042.199951171875</ele>
        <time>2026-01-06T19:04:49.000Z</time>
        <extensions>
          <ns3:TrackPointExtension>
            <ns3:hr>107</ns3:hr>
            <ns3:cad>0</ns3:cad>
          </ns3:TrackPointExtension>
        </extensions>
      </trkpt>
      <trkpt lat="37.95677770860493183135986328125" lon="-107.1151504106819629669189453125">
        <ele>4042</ele>
        <time>2026-01-06T19:04:50.000Z</time>
        <extensions>
          <ns3:TrackPointExtension>
            <ns3:hr>113</ns3:hr>
            <ns3:cad>0</ns3:cad>
          </ns3:TrackPointExtension>
        </extensions>
      </trkpt>
      <trkpt lat="37.95677770860493183135986328125" lon="-107.1151504106819629669189453125">
        <ele>4042</ele>
        <time>2026-01-06T19:04:51.000Z</time>
        <extensions>
          <ns3:TrackPointExtension>
            <ns3:hr>113</ns3:hr>
            <ns3:cad>0</ns3:cad>
          </ns3:TrackPointExtension>
        </extensions>
      </trkpt>
      <trkpt lat="37.95677770860493183135986328125" lon="-107.1151504106819629669189453125">
        <ele>4041.60009765625</ele>
        <time>2026-01-06T19:04:56.000Z</time>
        <extensions>
          <ns3:TrackPointExtension>
            <ns3:hr>111</ns3:hr>
            <ns3:cad>0</ns3:cad>
          </ns3:TrackPointExtension>
        </extensions>
      </trkpt>
      <trkpt lat="37.95677770860493183135986328125" lon="-107.1151504106819629669189453125">
        <ele>4041.60009765625</ele>
        <time>2026-01-06T19:05:02.000Z</time>
        <extensions>
          <ns3:TrackPointExtension>
            <ns3:hr>110</ns3:hr>
            <ns3:cad>0</ns3:cad>
          </ns3:TrackPointExtension>
        </extensions>
      </trkpt>
      <trkpt lat="37.95677770860493183135986328125" lon="-107.1151504106819629669189453125">
        <ele>4041.800048828125</ele>
        <time>2026-01-06T19:05:08.000Z</time>
        <extensions>
          <ns3:TrackPointExtension>
            <ns3:hr>107</ns3:hr>
            <ns3:cad>0</ns3:cad>
          </ns3:TrackPointExtension>
        </extensions>
      </trkpt>
      <trkpt lat="37.9567798040807247161865234375" lon="-107.11514529772102832794189453125">
        <ele>4042</ele>
        <time>2026-01-06T19:05:14.000Z</time>
        <extensions>
          <ns3:TrackPointExtension>
            <ns3:hr>108</ns3:hr>
            <ns3:cad>0</ns3:cad>
          </ns3:TrackPointExtension>
        </extensions>
      </trkpt>
      <trkpt lat="37.9567777924239635467529296875" lon="-107.11514328606426715850830078125">
        <ele>4041.800048828125</ele>
        <time>2026-01-06T19:05:17.000Z</time>
        <extensions>
          <ns3:TrackPointExtension>
            <ns3:hr>107</ns3:hr>
            <ns3:cad>0</ns3:cad>
          </ns3:TrackPointExtension>
        </extensions>
      </trkpt>
      <trkpt lat="37.95678642578423023223876953125" lon="-107.11510799825191497802734375">
        <ele>4041.60009765625</ele>
        <time>2026-01-06T19:05:23.000Z</time>
        <extensions>
          <ns3:TrackPointExtension>
            <ns3:hr>108</ns3:hr>
            <ns3:cad>0</ns3:cad>
          </ns3:TrackPointExtension>
        </extensions>
      </trkpt>
      <trkpt lat="37.95679095201194286346435546875" lon="-107.11509986780583858489990234375">
        <ele>4041.800048828125</ele>
        <time>2026-01-06T19:05:24.000Z</time>
        <extensions>
          <ns3:TrackPointExtension>
            <ns3:hr>108</ns3:hr>
            <ns3:cad>0</ns3:cad>
          </ns3:TrackPointExtension>
        </extensions>
      </trkpt>
      <trkpt lat="37.95680453069508075714111328125" lon="-107.11506399326026439666748046875">
        <ele>4041.199951171875</ele>
        <time>2026-01-06T19:05:30.000Z</time>
        <extensions>
          <ns3:TrackPointExtension>
            <ns3:hr>108</ns3:hr>
            <ns3:cad>61</ns3:cad>
          </ns3:TrackPointExtension>
        </extensions>
      </trkpt>
      <trkpt lat="37.956814505159854888916015625" lon="-107.11503230966627597808837890625">
        <ele>4041</ele>
        <time>2026-01-06T19:05:36.000Z</time>
        <extensions>
          <ns3:TrackPointExtension>
            <ns3:hr>108</ns3:hr>
            <ns3:cad>0</ns3:cad>
          </ns3:TrackPointExtension>
        </extensions>
      </trkpt>
      <trkpt lat="37.95681760646402835845947265625" lon="-107.11502761580049991607666015625">
        <ele>4040.800048828125</ele>
        <time>2026-01-06T19:05:37.000Z</time>
        <extensions>
          <ns3:TrackPointExtension>
            <ns3:hr>107</ns3:hr>
            <ns3:cad>0</ns3:cad>
          </ns3:TrackPointExtension>
        </extensions>
      </trkpt>
      <trkpt lat="37.9568208754062652587890625" lon="-107.115020491182804107666015625">
        <ele>4040.800048828125</ele>
        <time>2026-01-06T19:05:38.000Z</time>
        <extensions>
          <ns3:TrackPointExtension>
            <ns3:hr>107</ns3:hr>
            <ns3:cad>0</ns3:cad>
          </ns3:TrackPointExtension>
        </extensions>
      </trkpt>
      <trkpt lat="37.956829257309436798095703125" lon="-107.1150022186338901519775390625">
        <ele>4039.800048828125</ele>
        <time>2026-01-06T19:05:44.000Z</time>
        <extensions>
          <ns3:TrackPointExtension>
            <ns3:hr>107</ns3:hr>
            <ns3:cad>0</ns3:cad>
          </ns3:TrackPointExtension>
        </extensions>
      </trkpt>
      <trkpt lat="37.956831268966197967529296875" lon="-107.1149968542158603668212890625">
        <ele>4039.800048828125</ele>
        <time>2026-01-06T19:05:45.000Z</time>
        <extensions>
          <ns3:TrackPointExtension>
            <ns3:hr>106</ns3:hr>
            <ns3:cad>0</ns3:cad>
          </ns3:TrackPointExtension>
        </extensions>
      </trkpt>
      <trkpt lat="37.95684409327805042266845703125" lon="-107.11497095413506031036376953125">
        <ele>4038.60009765625</ele>
        <time>2026-01-06T19:05:51.000Z</time>
        <extensions>
          <ns3:TrackPointExtension>
            <ns3:hr>107</ns3:hr>
            <ns3:cad>0</ns3:cad>
          </ns3:TrackPointExtension>
        </extensions>
      </trkpt>
      <trkpt lat="37.95685364864766597747802734375" lon="-107.11495737545192241668701171875">
        <ele>4038.60009765625</ele>
        <time>2026-01-06T19:05:53.000Z</time>
        <extensions>
          <ns3:TrackPointExtension>
            <ns3:hr>107</ns3:hr>
            <ns3:cad>0</ns3:cad>
          </ns3:TrackPointExtension>
        </extensions>
      </trkpt>
      <trkpt lat="37.95687443576753139495849609375" lon="-107.1149344928562641143798828125">
        <ele>4038.39990234375</ele>
        <time>2026-01-06T19:05:59.000Z</time>
        <extensions>
          <ns3:TrackPointExtension>
            <ns3:hr>108</ns3:hr>
            <ns3:cad>64</ns3:cad>
          </ns3:TrackPointExtension>
        </extensions>
      </trkpt>
      <trkpt lat="37.9568988271057605743408203125" lon="-107.11489467881619930267333984375">
        <ele>4038</ele>
        <time>2026-01-06T19:06:05.000Z</time>
        <extensions>
          <ns3:TrackPointExtension>
            <ns3:hr>106</ns3:hr>
            <ns3:cad>0</ns3:cad>
          </ns3:TrackPointExtension>
        </extensions>
      </trkpt>
      <trkpt lat="37.9569119028747081756591796875" lon="-107.11488462053239345550537109375">
        <ele>4037.60009765625</ele>
        <time>2026-01-06T19:06:08.000Z</time>
        <extensions>
          <ns3:TrackPointExtension>
            <ns3:hr>106</ns3:hr>
            <ns3:cad>0</ns3:cad>
          </ns3:TrackPointExtension>
        </extensions>
      </trkpt>
      <trkpt lat="37.9569209553301334381103515625" lon="-107.11487690918147563934326171875">
        <ele>4037.39990234375</ele>
        <time>2026-01-06T19:06:12.000Z</time>
        <extensions>
          <ns3:TrackPointExtension>
            <ns3:hr>106</ns3:hr>
            <ns3:cad>0</ns3:cad>
          </ns3:TrackPointExtension>
        </extensions>
      </trkpt>
      <trkpt lat="37.956917770206928253173828125" lon="-107.11487037129700183868408203125">
        <ele>4037.199951171875</ele>
        <time>2026-01-06T19:06:16.000Z</time>
        <extensions>
          <ns3:TrackPointExtension>
            <ns3:hr>109</ns3:hr>
            <ns3:cad>56</ns3:cad>
          </ns3:TrackPointExtension>
        </extensions>
      </trkpt>
      <trkpt lat="37.9569222964346408843994140625" lon="-107.11486936546862125396728515625">
        <ele>4037.199951171875</ele>
        <time>2026-01-06T19:06:17.000Z</time>
        <extensions>
          <ns3:TrackPointExtension>
            <ns3:hr>109</ns3:hr>
            <ns3:cad>56</ns3:cad>
          </ns3:TrackPointExtension>
        </extensions>
      </trkpt>
      <trkpt lat="37.95693713240325450897216796875" lon="-107.11485721170902252197265625">
        <ele>4037.39990234375</ele>
        <time>2026-01-06T19:06:23.000Z</time>
        <extensions>
          <ns3:TrackPointExtension>
            <ns3:hr>108</ns3:hr>
            <ns3:cad>0</ns3:cad>
          </ns3:TrackPointExtension>
        </extensions>
      </trkpt>
      <trkpt lat="37.9569440893828868865966796875" lon="-107.11485411040484905242919921875">
        <ele>4037.60009765625</ele>
        <time>2026-01-06T19:06:25.000Z</time>
        <extensions>
          <ns3:TrackPointExtension>
            <ns3:hr>109</ns3:hr>
            <ns3:cad>0</ns3:cad>
          </ns3:TrackPointExtension>
        </extensions>
      </trkpt>
      <trkpt lat="37.95696772634983062744140625" lon="-107.11483650840818881988525390625">
        <ele>4037.800048828125</ele>
        <time>2026-01-06T19:06:31.000Z</time>
        <extensions>
          <ns3:TrackPointExtension>
            <ns3:hr>109</ns3:hr>
            <ns3:cad>0</ns3:cad>
          </ns3:TrackPointExtension>
        </extensions>
      </trkpt>
      <trkpt lat="37.9570114798843860626220703125" lon="-107.1148114465177059173583984375">
        <ele>4037.39990234375</ele>
        <time>2026-01-06T19:06:37.000Z</time>
        <extensions>
          <ns3:TrackPointExtension>
            <ns3:hr>107</ns3:hr>
            <ns3:cad>0</ns3:cad>
          </ns3:TrackPointExtension>
        </extensions>
      </trkpt>
      <trkpt lat="37.95703453011810779571533203125" lon="-107.114798538386821746826171875">
        <ele>4037</ele>
        <time>2026-01-06T19:06:43.000Z</time>
        <extensions>
          <ns3:TrackPointExtension>
            <ns3:hr>106</ns3:hr>
            <ns3:cad>0</ns3:cad>
          </ns3:TrackPointExtension>
        </extensions>
      </trkpt>
      <trkpt lat="37.95703872106969356536865234375" lon="-107.11479459889233112335205078125">
        <ele>4037.199951171875</ele>
        <time>2026-01-06T19:06:44.000Z</time>
        <extensions>
          <ns3:TrackPointExtension>
            <ns3:hr>106</ns3:hr>
            <ns3:cad>0</ns3:cad>
          </ns3:TrackPointExtension>
        </extensions>
      </trkpt>
      <trkpt lat="37.95704090036451816558837890625" lon="-107.11478638462722301483154296875">
        <ele>4036.800048828125</ele>
        <time>2026-01-06T19:06:50.000Z</time>
        <extensions>
          <ns3:TrackPointExtension>
            <ns3:hr>109</ns3:hr>
            <ns3:cad>0</ns3:cad>
          </ns3:TrackPointExtension>
        </extensions>
      </trkpt>
      <trkpt lat="37.95704090036451816558837890625" lon="-107.11478638462722301483154296875">
        <ele>4036.60009765625</ele>
        <time>2026-01-06T19:06:52.000Z</time>
        <extensions>
          <ns3:TrackPointExtension>
            <ns3:hr>110</ns3:hr>
            <ns3:cad>0</ns3:cad>
          </ns3:TrackPointExtension>
        </extensions>
      </trkpt>
      <trkpt lat="37.95704090036451816558837890625" lon="-107.11478638462722301483154296875">
        <ele>4037.199951171875</ele>
        <time>2026-01-06T19:06:58.000Z</time>
        <extensions>
          <ns3:TrackPointExtension>
            <ns3:hr>112</ns3:hr>
            <ns3:cad>0</ns3:cad>
          </ns3:TrackPointExtension>
        </extensions>
      </trkpt>
      <trkpt lat="37.95704810880124568939208984375" lon="-107.11477540433406829833984375">
        <ele>4036.800048828125</ele>
        <time>2026-01-06T19:07:03.000Z</time>
        <extensions>
          <ns3:TrackPointExtension>
            <ns3:hr>111</ns3:hr>
            <ns3:cad>0</ns3:cad>
          </ns3:TrackPointExtension>
        </extensions>
      </trkpt>
      <trkpt lat="37.957050539553165435791015625" lon="-107.1147735603153705596923828125">
        <ele>4036.60009765625</ele>
        <time>2026-01-06T19:07:08.000Z</time>
        <extensions>
          <ns3:TrackPointExtension>
            <ns3:hr>111</ns3:hr>
            <ns3:cad>0</ns3:cad>
          </ns3:TrackPointExtension>
        </extensions>
      </trkpt>
      <trkpt lat="37.95705129392445087432861328125" lon="-107.11477406322956085205078125">
        <ele>4036.60009765625</ele>
        <time>2026-01-06T19:07:12.000Z</time>
        <extensions>
          <ns3:TrackPointExtension>
            <ns3:hr>115</ns3:hr>
            <ns3:cad>0</ns3:cad>
          </ns3:TrackPointExtension>
        </extensions>
      </trkpt>
      <trkpt lat="37.95705129392445087432861328125" lon="-107.11477406322956085205078125">
        <ele>4036.800048828125</ele>
        <time>2026-01-06T19:07:17.000Z</time>
        <extensions>
          <ns3:TrackPointExtension>
            <ns3:hr>116</ns3:hr>
            <ns3:cad>0</ns3:cad>
          </ns3:TrackPointExtension>
        </extensions>
      </trkpt>
      <trkpt lat="37.95707367360591888427734375" lon="-107.11475654505193233489990234375">
        <ele>4036.39990234375</ele>
        <time>2026-01-06T19:07:21.000Z</time>
        <extensions>
          <ns3:TrackPointExtension>
            <ns3:hr>117</ns3:hr>
            <ns3:cad>0</ns3:cad>
          </ns3:TrackPointExtension>
        </extensions>
      </trkpt>
      <trkpt lat="37.95707501471042633056640625" lon="-107.11475403048098087310791015625">
        <ele>4036.199951171875</ele>
        <time>2026-01-06T19:07:23.000Z</time>
        <extensions>
          <ns3:TrackPointExtension>
            <ns3:hr>117</ns3:hr>
            <ns3:cad>0</ns3:cad>
          </ns3:TrackPointExtension>
        </extensions>
      </trkpt>
      <trkpt lat="37.95708037912845611572265625" lon="-107.114745564758777618408203125">
        <ele>4036.199951171875</ele>
        <time>2026-01-06T19:07:24.000Z</time>
        <extensions>
          <ns3:TrackPointExtension>
            <ns3:hr>117</ns3:hr>
            <ns3:cad>0</ns3:cad>
          </ns3:TrackPointExtension>
        </extensions>
      </trkpt>
      <trkpt lat="37.9570892639458179473876953125" lon="-107.11474045179784297943115234375">
        <ele>4036.199951171875</ele>
        <time>2026-01-06T19:07:27.000Z</time>
        <extensions>
          <ns3:TrackPointExtension>
            <ns3:hr>115</ns3:hr>
            <ns3:cad>0</ns3:cad>
          </ns3:TrackPointExtension>
        </extensions>
      </trkpt>
      <trkpt lat="37.95709781348705291748046875" lon="-107.11473475210368633270263671875">
        <ele>4036</ele>
        <time>2026-01-06T19:07:33.000Z</time>
        <extensions>
          <ns3:TrackPointExtension>
            <ns3:hr>113</ns3:hr>
            <ns3:cad>0</ns3:cad>
          </ns3:TrackPointExtension>
        </extensions>
      </trkpt>
      <trkpt lat="37.95712186954915523529052734375" lon="-107.1147215925157070159912109375">
        <ele>4035.60009765625</ele>
        <time>2026-01-06T19:07:38.000Z</time>
        <extensions>
          <ns3:TrackPointExtension>
            <ns3:hr>111</ns3:hr>
            <ns3:cad>0</ns3:cad>
          </ns3:TrackPointExtension>
        </extensions>
      </trkpt>
      <trkpt lat="37.95712404884397983551025390625" lon="-107.11472041904926300048828125">
        <ele>4035.39990234375</ele>
        <time>2026-01-06T19:07:39.000Z</time>
        <extensions>
          <ns3:TrackPointExtension>
            <ns3:hr>110</ns3:hr>
            <ns3:cad>0</ns3:cad>
          </ns3:TrackPointExtension>
        </extensions>
      </trkpt>
      <trkpt lat="37.95712404884397983551025390625" lon="-107.1147202514111995697021484375">
        <ele>4035</ele>
        <time>2026-01-06T19:07:45.000Z</time>
        <extensions>
          <ns3:TrackPointExtension>
            <ns3:hr>111</ns3:hr>
            <ns3:cad>0</ns3:cad>
          </ns3:TrackPointExtension>
        </extensions>
      </trkpt>
      <trkpt lat="37.95712404884397983551025390625" lon="-107.1147202514111995697021484375">
        <ele>4035.199951171875</ele>
        <time>2026-01-06T19:07:46.000Z</time>
        <extensions>
          <ns3:TrackPointExtension>
            <ns3:hr>112</ns3:hr>
            <ns3:cad>0</ns3:cad>
          </ns3:TrackPointExtension>
        </extensions>
      </trkpt>
      <trkpt lat="37.95712404884397983551025390625" lon="-107.1147202514111995697021484375">
        <ele>4035.199951171875</ele>
        <time>2026-01-06T19:07:52.000Z</time>
        <extensions>
          <ns3:TrackPointExtension>
            <ns3:hr>114</ns3:hr>
            <ns3:cad>0</ns3:cad>
          </ns3:TrackPointExtension>
        </extensions>
      </trkpt>
      <trkpt lat="37.95712404884397983551025390625" lon="-107.1147202514111995697021484375">
        <ele>4035.39990234375</ele>
        <time>2026-01-06T19:07:55.000Z</time>
        <extensions>
          <ns3:TrackPointExtension>
            <ns3:hr>114</ns3:hr>
            <ns3:cad>0</ns3:cad>
          </ns3:TrackPointExtension>
        </extensions>
      </trkpt>
      <trkpt lat="37.9571298323571681976318359375" lon="-107.114706672728061676025390625">
        <ele>4035.199951171875</ele>
        <time>2026-01-06T19:07:59.000Z</time>
        <extensions>
          <ns3:TrackPointExtension>
            <ns3:hr>109</ns3:hr>
            <ns3:cad>0</ns3:cad>
          </ns3:TrackPointExtension>
        </extensions>
      </trkpt>
      <trkpt lat="37.957129664719104766845703125" lon="-107.114703990519046783447265625">
        <ele>4035.199951171875</ele>
        <time>2026-01-06T19:08:00.000Z</time>
        <extensions>
          <ns3:TrackPointExtension>
            <ns3:hr>104</ns3:hr>
            <ns3:cad>0</ns3:cad>
          </ns3:TrackPointExtension>
        </extensions>
      </trkpt>
      <trkpt lat="37.95712958090007305145263671875" lon="-107.11470390670001506805419921875">
        <ele>4035.199951171875</ele>
        <time>2026-01-06T19:08:01.000Z</time>
        <extensions>
          <ns3:TrackPointExtension>
            <ns3:hr>100</ns3:hr>
            <ns3:cad>0</ns3:cad>
          </ns3:TrackPointExtension>
        </extensions>
      </trkpt>
      <trkpt lat="37.95712958090007305145263671875" lon="-107.11470390670001506805419921875">
        <ele>4035.199951171875</ele>
        <time>2026-01-06T19:08:05.000Z</time>
        <extensions>
          <ns3:TrackPointExtension>
            <ns3:hr>97</ns3:hr>
            <ns3:cad>0</ns3:cad>
          </ns3:TrackPointExtension>
        </extensions>
      </trkpt>
      <trkpt lat="37.95712874270975589752197265625" lon="-107.1146996319293975830078125">
        <ele>4034.60009765625</ele>
        <time>2026-01-06T19:08:11.000Z</time>
        <extensions>
          <ns3:TrackPointExtension>
            <ns3:hr>96</ns3:hr>
            <ns3:cad>0</ns3:cad>
          </ns3:TrackPointExtension>
        </extensions>
      </trkpt>
      <trkpt lat="37.95712958090007305145263671875" lon="-107.11470390670001506805419921875">
        <ele>4034.60009765625</ele>
        <time>2026-01-06T19:08:12.000Z</time>
        <extensions>
          <ns3:TrackPointExtension>
            <ns3:hr>96</ns3:hr>
            <ns3:cad>0</ns3:cad>
          </ns3:TrackPointExtension>
        </extensions>
      </trkpt>
      <trkpt lat="37.95712958090007305145263671875" lon="-107.11470390670001506805419921875">
        <ele>4034.39990234375</ele>
        <time>2026-01-06T19:08:17.000Z</time>
        <extensions>
          <ns3:TrackPointExtension>
            <ns3:hr>96</ns3:hr>
            <ns3:cad>0</ns3:cad>
          </ns3:TrackPointExtension>
        </extensions>
      </trkpt>
      <trkpt lat="37.95713108964264392852783203125" lon="-107.1146920882165431976318359375">
        <ele>4034</ele>
        <time>2026-01-06T19:08:21.000Z</time>
        <extensions>
          <ns3:TrackPointExtension>
            <ns3:hr>96</ns3:hr>
            <ns3:cad>0</ns3:cad>
          </ns3:TrackPointExtension>
        </extensions>
      </trkpt>
      <trkpt lat="37.957133352756500244140625" lon="-107.11468731053173542022705078125">
        <ele>4034.199951171875</ele>
        <time>2026-01-06T19:08:23.000Z</time>
        <extensions>
          <ns3:TrackPointExtension>
            <ns3:hr>99</ns3:hr>
            <ns3:cad>0</ns3:cad>
          </ns3:TrackPointExtension>
        </extensions>
      </trkpt>
      <trkpt lat="37.9571331851184368133544921875" lon="-107.11468689143657684326171875">
        <ele>4034.199951171875</ele>
        <time>2026-01-06T19:08:24.000Z</time>
        <extensions>
          <ns3:TrackPointExtension>
            <ns3:hr>102</ns3:hr>
            <ns3:cad>0</ns3:cad>
          </ns3:TrackPointExtension>
        </extensions>
      </trkpt>
      <trkpt lat="37.9571331851184368133544921875" lon="-107.11468689143657684326171875">
        <ele>4033.800048828125</ele>
        <time>2026-01-06T19:08:28.000Z</time>
        <extensions>
          <ns3:TrackPointExtension>
            <ns3:hr>105</ns3:hr>
            <ns3:cad>0</ns3:cad>
          </ns3:TrackPointExtension>
        </extensions>
      </trkpt>
      <trkpt lat="37.95713461004197597503662109375" lon="-107.114686556160449981689453125">
        <ele>4033.60009765625</ele>
        <time>2026-01-06T19:08:32.000Z</time>
        <extensions>
          <ns3:TrackPointExtension>
            <ns3:hr>107</ns3:hr>
            <ns3:cad>0</ns3:cad>
          </ns3:TrackPointExtension>
        </extensions>
      </trkpt>
      <trkpt lat="37.95714475214481353759765625" lon="-107.11467021144926548004150390625">
        <ele>4033.39990234375</ele>
        <time>2026-01-06T19:08:34.000Z</time>
        <extensions>
          <ns3:TrackPointExtension>
            <ns3:hr>106</ns3:hr>
            <ns3:cad>0</ns3:cad>
          </ns3:TrackPointExtension>
        </extensions>
      </trkpt>
      <trkpt lat="37.95715413987636566162109375" lon="-107.11466518230736255645751953125">
        <ele>4033.199951171875</ele>
        <time>2026-01-06T19:08:37.000Z</time>
        <extensions>
          <ns3:TrackPointExtension>
            <ns3:hr>106</ns3:hr>
            <ns3:cad>0</ns3:cad>
          </ns3:TrackPointExtension>
        </extensions>
      </trkpt>
      <trkpt lat="37.9571657069027423858642578125" lon="-107.11465043015778064727783203125">
        <ele>4032.800048828125</ele>
        <time>2026-01-06T19:08:42.000Z</time>
        <extensions>
          <ns3:TrackPointExtension>
            <ns3:hr>107</ns3:hr>
            <ns3:cad>0</ns3:cad>
          </ns3:TrackPointExtension>
        </extensions>
      </trkpt>
      <trkpt lat="37.9571657069027423858642578125" lon="-107.11465043015778064727783203125">
        <ele>4033</ele>
        <time>2026-01-06T19:08:48.000Z</time>
        <extensions>
          <ns3:TrackPointExtension>
            <ns3:hr>108</ns3:hr>
            <ns3:cad>0</ns3:cad>
          </ns3:TrackPointExtension>
        </extensions>
      </trkpt>
      <trkpt lat="37.9571657069027423858642578125" lon="-107.11465043015778064727783203125">
        <ele>4032.800048828125</ele>
        <time>2026-01-06T19:08:50.000Z</time>
        <extensions>
          <ns3:TrackPointExtension>
            <ns3:hr>114</ns3:hr>
            <ns3:cad>0</ns3:cad>
          </ns3:TrackPointExtension>
        </extensions>
      </trkpt>
      <trkpt lat="37.9571657069027423858642578125" lon="-107.11465043015778064727783203125">
        <ele>4032.800048828125</ele>
        <time>2026-01-06T19:08:52.000Z</time>
        <extensions>
          <ns3:TrackPointExtension>
            <ns3:hr>118</ns3:hr>
            <ns3:cad>0</ns3:cad>
          </ns3:TrackPointExtension>
        </extensions>
      </trkpt>
      <trkpt lat="37.9571657069027423858642578125" lon="-107.11465043015778064727783203125">
        <ele>4033</ele>
        <time>2026-01-06T19:08:55.000Z</time>
        <extensions>
          <ns3:TrackPointExtension>
            <ns3:hr>120</ns3:hr>
            <ns3:cad>0</ns3:cad>
          </ns3:TrackPointExtension>
        </extensions>
      </trkpt>
      <trkpt lat="37.95716797001659870147705078125" lon="-107.11464758031070232391357421875">
        <ele>4032.39990234375</ele>
        <time>2026-01-06T19:09:00.000Z</time>
        <extensions>
          <ns3:TrackPointExtension>
            <ns3:hr>120</ns3:hr>
            <ns3:cad>94</ns3:cad>
          </ns3:TrackPointExtension>
        </extensions>
      </trkpt>
      <trkpt lat="37.9571657069027423858642578125" lon="-107.11465043015778064727783203125">
        <ele>4032.199951171875</ele>
        <time>2026-01-06T19:09:01.000Z</time>
        <extensions>
          <ns3:TrackPointExtension>
            <ns3:hr>119</ns3:hr>
            <ns3:cad>0</ns3:cad>
          </ns3:TrackPointExtension>
        </extensions>
      </trkpt>
      <trkpt lat="37.9571657069027423858642578125" lon="-107.11465043015778064727783203125">
        <ele>4032</ele>
        <time>2026-01-06T19:09:04.000Z</time>
        <extensions>
          <ns3:TrackPointExtension>
            <ns3:hr>116</ns3:hr>
            <ns3:cad>0</ns3:cad>
          </ns3:TrackPointExtension>
        </extensions>
      </trkpt>
      <trkpt lat="37.9571657069027423858642578125" lon="-107.11465043015778064727783203125">
        <ele>4032.199951171875</ele>
        <time>2026-01-06T19:09:09.000Z</time>
        <extensions>
          <ns3:TrackPointExtension>
            <ns3:hr>116</ns3:hr>
            <ns3:cad>0</ns3:cad>
          </ns3:TrackPointExtension>
        </extensions>
      </trkpt>
      <trkpt lat="37.95716729946434497833251953125" lon="-107.11460550315678119659423828125">
        <ele>4032.39990234375</ele>
        <time>2026-01-06T19:09:15.000Z</time>
        <extensions>
          <ns3:TrackPointExtension>
            <ns3:hr>113</ns3:hr>
            <ns3:cad>0</ns3:cad>
          </ns3:TrackPointExtension>
        </extensions>
      </trkpt>
      <trkpt lat="37.9571667127311229705810546875" lon="-107.11460642516613006591796875">
        <ele>4032.199951171875</ele>
        <time>2026-01-06T19:09:16.000Z</time>
        <extensions>
          <ns3:TrackPointExtension>
            <ns3:hr>113</ns3:hr>
            <ns3:cad>0</ns3:cad>
          </ns3:TrackPointExtension>
        </extensions>
      </trkpt>
      <trkpt lat="37.9571667127311229705810546875" lon="-107.11460642516613006591796875">
        <ele>4031.800048828125</ele>
        <time>2026-01-06T19:09:22.000Z</time>
        <extensions>
          <ns3:TrackPointExtension>
            <ns3:hr>112</ns3:hr>
            <ns3:cad>0</ns3:cad>
          </ns3:TrackPointExtension>
        </extensions>
      </trkpt>
      <trkpt lat="37.9571667127311229705810546875" lon="-107.11460642516613006591796875">
        <ele>4032.199951171875</ele>
        <time>2026-01-06T19:09:26.000Z</time>
        <extensions>
          <ns3:TrackPointExtension>
            <ns3:hr>112</ns3:hr>
            <ns3:cad>0</ns3:cad>
          </ns3:TrackPointExtension>
        </extensions>
      </trkpt>
      <trkpt lat="37.9571750946342945098876953125" lon="-107.114609442651271820068359375">
        <ele>4031.60009765625</ele>
        <time>2026-01-06T19:09:31.000Z</time>
        <extensions>
          <ns3:TrackPointExtension>
            <ns3:hr>111</ns3:hr>
            <ns3:cad>0</ns3:cad>
          </ns3:TrackPointExtension>
        </extensions>
      </trkpt>
      <trkpt lat="37.9571667127311229705810546875" lon="-107.11460642516613006591796875">
        <ele>4031.60009765625</ele>
        <time>2026-01-06T19:09:37.000Z</time>
        <extensions>
          <ns3:TrackPointExtension>
            <ns3:hr>112</ns3:hr>
            <ns3:cad>0</ns3:cad>
          </ns3:TrackPointExtension>
        </extensions>
      </trkpt>
      <trkpt lat="37.9571667127311229705810546875" lon="-107.11460642516613006591796875">
        <ele>4031.800048828125</ele>
        <time>2026-01-06T19:09:41.000Z</time>
        <extensions>
          <ns3:TrackPointExtension>
            <ns3:hr>112</ns3:hr>
            <ns3:cad>0</ns3:cad>
          </ns3:TrackPointExtension>
        </extensions>
      </trkpt>
      <trkpt lat="37.9571667127311229705810546875" lon="-107.11460642516613006591796875">
        <ele>4031.800048828125</ele>
        <time>2026-01-06T19:09:47.000Z</time>
        <extensions>
          <ns3:TrackPointExtension>
            <ns3:hr>111</ns3:hr>
            <ns3:cad>0</ns3:cad>
          </ns3:TrackPointExtension>
        </extensions>
      </trkpt>
      <trkpt lat="37.9571667127311229705810546875" lon="-107.11460642516613006591796875">
        <ele>4032</ele>
        <time>2026-01-06T19:09:53.000Z</time>
        <extensions>
          <ns3:TrackPointExtension>
            <ns3:hr>110</ns3:hr>
            <ns3:cad>0</ns3:cad>
          </ns3:TrackPointExtension>
        </extensions>
      </trkpt>
      <trkpt lat="37.9571667127311229705810546875" lon="-107.11460642516613006591796875">
        <ele>4032.199951171875</ele>
        <time>2026-01-06T19:09:59.000Z</time>
        <extensions>
          <ns3:TrackPointExtension>
            <ns3:hr>110</ns3:hr>
            <ns3:cad>0</ns3:cad>
          </ns3:TrackPointExtension>
        </extensions>
      </trkpt>
      <trkpt lat="37.9571667127311229705810546875" lon="-107.11460642516613006591796875">
        <ele>4031.800048828125</ele>
        <time>2026-01-06T19:10:02.000Z</time>
        <extensions>
          <ns3:TrackPointExtension>
            <ns3:hr>109</ns3:hr>
            <ns3:cad>0</ns3:cad>
          </ns3:TrackPointExtension>
        </extensions>
      </trkpt>
      <trkpt lat="37.9571667127311229705810546875" lon="-107.11460642516613006591796875">
        <ele>4031.39990234375</ele>
        <time>2026-01-06T19:10:08.000Z</time>
        <extensions>
          <ns3:TrackPointExtension>
            <ns3:hr>109</ns3:hr>
            <ns3:cad>0</ns3:cad>
          </ns3:TrackPointExtension>
        </extensions>
      </trkpt>
      <trkpt lat="37.9571667127311229705810546875" lon="-107.11460642516613006591796875">
        <ele>4031.60009765625</ele>
        <time>2026-01-06T19:10:13.000Z</time>
        <extensions>
          <ns3:TrackPointExtension>
            <ns3:hr>110</ns3:hr>
            <ns3:cad>0</ns3:cad>
          </ns3:TrackPointExtension>
        </extensions>
      </trkpt>
      <trkpt lat="37.9571667127311229705810546875" lon="-107.11460642516613006591796875">
        <ele>4031.800048828125</ele>
        <time>2026-01-06T19:10:17.000Z</time>
        <extensions>
          <ns3:TrackPointExtension>
            <ns3:hr>113</ns3:hr>
            <ns3:cad>0</ns3:cad>
          </ns3:TrackPointExtension>
        </extensions>
      </trkpt>
      <trkpt lat="37.9571667127311229705810546875" lon="-107.11460642516613006591796875">
        <ele>4032</ele>
        <time>2026-01-06T19:10:19.000Z</time>
        <extensions>
          <ns3:TrackPointExtension>
            <ns3:hr>117</ns3:hr>
            <ns3:cad>0</ns3:cad>
          </ns3:TrackPointExtension>
        </extensions>
      </trkpt>
      <trkpt lat="37.9571667127311229705810546875" lon="-107.11460642516613006591796875">
        <ele>4032.199951171875</ele>
        <time>2026-01-06T19:10:24.000Z</time>
        <extensions>
          <ns3:TrackPointExtension>
            <ns3:hr>118</ns3:hr>
            <ns3:cad>0</ns3:cad>
          </ns3:TrackPointExtension>
        </extensions>
      </trkpt>
      <trkpt lat="37.9571667127311229705810546875" lon="-107.11460642516613006591796875">
        <ele>4032.39990234375</ele>
        <time>2026-01-06T19:10:30.000Z</time>
        <extensions>
          <ns3:TrackPointExtension>
            <ns3:hr>116</ns3:hr>
            <ns3:cad>0</ns3:cad>
          </ns3:TrackPointExtension>
        </extensions>
      </trkpt>
      <trkpt lat="37.9571667127311229705810546875" lon="-107.11460642516613006591796875">
        <ele>4032.39990234375</ele>
        <time>2026-01-06T19:10:36.000Z</time>
        <extensions>
          <ns3:TrackPointExtension>
            <ns3:hr>115</ns3:hr>
            <ns3:cad>0</ns3:cad>
          </ns3:TrackPointExtension>
        </extensions>
      </trkpt>
      <trkpt lat="37.9571667127311229705810546875" lon="-107.11460642516613006591796875">
        <ele>4032.39990234375</ele>
        <time>2026-01-06T19:10:38.000Z</time>
        <extensions>
          <ns3:TrackPointExtension>
            <ns3:hr>114</ns3:hr>
            <ns3:cad>0</ns3:cad>
          </ns3:TrackPointExtension>
        </extensions>
      </trkpt>
      <trkpt lat="37.9571667127311229705810546875" lon="-107.11460642516613006591796875">
        <ele>4032.39990234375</ele>
        <time>2026-01-06T19:10:44.000Z</time>
        <extensions>
          <ns3:TrackPointExtension>
            <ns3:hr>114</ns3:hr>
            <ns3:cad>0</ns3:cad>
          </ns3:TrackPointExtension>
        </extensions>
      </trkpt>
      <trkpt lat="37.9571667127311229705810546875" lon="-107.11460642516613006591796875">
        <ele>4032.60009765625</ele>
        <time>2026-01-06T19:10:48.000Z</time>
        <extensions>
          <ns3:TrackPointExtension>
            <ns3:hr>114</ns3:hr>
            <ns3:cad>0</ns3:cad>
          </ns3:TrackPointExtension>
        </extensions>
      </trkpt>
      <trkpt lat="37.9571667127311229705810546875" lon="-107.11460642516613006591796875">
        <ele>4032.39990234375</ele>
        <time>2026-01-06T19:10:52.000Z</time>
        <extensions>
          <ns3:TrackPointExtension>
            <ns3:hr>108</ns3:hr>
            <ns3:cad>0</ns3:cad>
          </ns3:TrackPointExtension>
        </extensions>
      </trkpt>
      <trkpt lat="37.9571667127311229705810546875" lon="-107.11460642516613006591796875">
        <ele>4032.39990234375</ele>
        <time>2026-01-06T19:10:53.000Z</time>
        <extensions>
          <ns3:TrackPointExtension>
            <ns3:hr>108</ns3:hr>
            <ns3:cad>0</ns3:cad>
          </ns3:TrackPointExtension>
        </extensions>
      </trkpt>
      <trkpt lat="37.9571667127311229705810546875" lon="-107.11460642516613006591796875">
        <ele>4032.199951171875</ele>
        <time>2026-01-06T19:10:59.000Z</time>
        <extensions>
          <ns3:TrackPointExtension>
            <ns3:hr>109</ns3:hr>
            <ns3:cad>0</ns3:cad>
          </ns3:TrackPointExtension>
        </extensions>
      </trkpt>
      <trkpt lat="37.9571667127311229705810546875" lon="-107.11460642516613006591796875">
        <ele>4031.60009765625</ele>
        <time>2026-01-06T19:11:05.000Z</time>
        <extensions>
          <ns3:TrackPointExtension>
            <ns3:hr>110</ns3:hr>
            <ns3:cad>0</ns3:cad>
          </ns3:TrackPointExtension>
        </extensions>
      </trkpt>
      <trkpt lat="37.9571667127311229705810546875" lon="-107.11460642516613006591796875">
        <ele>4031.199951171875</ele>
        <time>2026-01-06T19:11:08.000Z</time>
        <extensions>
          <ns3:TrackPointExtension>
            <ns3:hr>111</ns3:hr>
            <ns3:cad>0</ns3:cad>
          </ns3:TrackPointExtension>
        </extensions>
      </trkpt>
      <trkpt lat="37.9571667127311229705810546875" lon="-107.11460642516613006591796875">
        <ele>4031.60009765625</ele>
        <time>2026-01-06T19:11:14.000Z</time>
        <extensions>
          <ns3:TrackPointExtension>
            <ns3:hr>113</ns3:hr>
            <ns3:cad>0</ns3:cad>
          </ns3:TrackPointExtension>
        </extensions>
      </trkpt>
      <trkpt lat="37.9571667127311229705810546875" lon="-107.11460642516613006591796875">
        <ele>4031.39990234375</ele>
        <time>2026-01-06T19:11:20.000Z</time>
        <extensions>
          <ns3:TrackPointExtension>
            <ns3:hr>113</ns3:hr>
            <ns3:cad>0</ns3:cad>
          </ns3:TrackPointExtension>
        </extensions>
      </trkpt>
      <trkpt lat="37.9571667127311229705810546875" lon="-107.11460642516613006591796875">
        <ele>4031.39990234375</ele>
        <time>2026-01-06T19:11:23.000Z</time>
        <extensions>
          <ns3:TrackPointExtension>
            <ns3:hr>110</ns3:hr>
            <ns3:cad>0</ns3:cad>
          </ns3:TrackPointExtension>
        </extensions>
      </trkpt>
      <trkpt lat="37.9571667127311229705810546875" lon="-107.11460642516613006591796875">
        <ele>4031.60009765625</ele>
        <time>2026-01-06T19:11:29.000Z</time>
        <extensions>
          <ns3:TrackPointExtension>
            <ns3:hr>110</ns3:hr>
            <ns3:cad>0</ns3:cad>
          </ns3:TrackPointExtension>
        </extensions>
      </trkpt>
      <trkpt lat="37.9571667127311229705810546875" lon="-107.11460642516613006591796875">
        <ele>4031.800048828125</ele>
        <time>2026-01-06T19:11:31.000Z</time>
        <extensions>
          <ns3:TrackPointExtension>
            <ns3:hr>110</ns3:hr>
            <ns3:cad>0</ns3:cad>
          </ns3:TrackPointExtension>
        </extensions>
      </trkpt>
      <trkpt lat="37.9571667127311229705810546875" lon="-107.11460642516613006591796875">
        <ele>4032</ele>
        <time>2026-01-06T19:11:37.000Z</time>
        <extensions>
          <ns3:TrackPointExtension>
            <ns3:hr>111</ns3:hr>
            <ns3:cad>0</ns3:cad>
          </ns3:TrackPointExtension>
        </extensions>
      </trkpt>
      <trkpt lat="37.9571667127311229705810546875" lon="-107.11460642516613006591796875">
        <ele>4032.199951171875</ele>
        <time>2026-01-06T19:11:41.000Z</time>
        <extensions>
          <ns3:TrackPointExtension>
            <ns3:hr>111</ns3:hr>
            <ns3:cad>0</ns3:cad>
          </ns3:TrackPointExtension>
        </extensions>
      </trkpt>
      <trkpt lat="37.957169227302074432373046875" lon="-107.11461287923157215118408203125">
        <ele>4032.39990234375</ele>
        <time>2026-01-06T19:11:47.000Z</time>
        <extensions>
          <ns3:TrackPointExtension>
            <ns3:hr>115</ns3:hr>
            <ns3:cad>0</ns3:cad>
          </ns3:TrackPointExtension>
        </extensions>
      </trkpt>
      <trkpt lat="37.9571667127311229705810546875" lon="-107.11460642516613006591796875">
        <ele>4032.39990234375</ele>
        <time>2026-01-06T19:11:48.000Z</time>
        <extensions>
          <ns3:TrackPointExtension>
            <ns3:hr>114</ns3:hr>
            <ns3:cad>0</ns3:cad>
          </ns3:TrackPointExtension>
        </extensions>
      </trkpt>
      <trkpt lat="37.9571667127311229705810546875" lon="-107.11460642516613006591796875">
        <ele>4032.800048828125</ele>
        <time>2026-01-06T19:11:50.000Z</time>
        <extensions>
          <ns3:TrackPointExtension>
            <ns3:hr>111</ns3:hr>
            <ns3:cad>0</ns3:cad>
          </ns3:TrackPointExtension>
        </extensions>
      </trkpt>
      <trkpt lat="37.9571667127311229705810546875" lon="-107.11460642516613006591796875">
        <ele>4032.800048828125</ele>
        <time>2026-01-06T19:11:54.000Z</time>
        <extensions>
          <ns3:TrackPointExtension>
            <ns3:hr>108</ns3:hr>
            <ns3:cad>0</ns3:cad>
          </ns3:TrackPointExtension>
        </extensions>
      </trkpt>
      <trkpt lat="37.9571667127311229705810546875" lon="-107.11460642516613006591796875">
        <ele>4033.199951171875</ele>
        <time>2026-01-06T19:12:00.000Z</time>
        <extensions>
          <ns3:TrackPointExtension>
            <ns3:hr>106</ns3:hr>
            <ns3:cad>0</ns3:cad>
          </ns3:TrackPointExtension>
        </extensions>
      </trkpt>
      <trkpt lat="37.9571667127311229705810546875" lon="-107.11460642516613006591796875">
        <ele>4033</ele>
        <time>2026-01-06T19:12:02.000Z</time>
        <extensions>
          <ns3:TrackPointExtension>
            <ns3:hr>109</ns3:hr>
            <ns3:cad>0</ns3:cad>
          </ns3:TrackPointExtension>
        </extensions>
      </trkpt>
      <trkpt lat="37.9571667127311229705810546875" lon="-107.11460642516613006591796875">
        <ele>4033</ele>
        <time>2026-01-06T19:12:03.000Z</time>
        <extensions>
          <ns3:TrackPointExtension>
            <ns3:hr>113</ns3:hr>
            <ns3:cad>0</ns3:cad>
          </ns3:TrackPointExtension>
        </extensions>
      </trkpt>
      <trkpt lat="37.9571667127311229705810546875" lon="-107.11460642516613006591796875">
        <ele>4033</ele>
        <time>2026-01-06T19:12:07.000Z</time>
        <extensions>
          <ns3:TrackPointExtension>
            <ns3:hr>116</ns3:hr>
            <ns3:cad>0</ns3:cad>
          </ns3:TrackPointExtension>
        </extensions>
      </trkpt>
      <trkpt lat="37.9571667127311229705810546875" lon="-107.11460642516613006591796875">
        <ele>4033.199951171875</ele>
        <time>2026-01-06T19:12:10.000Z</time>
        <extensions>
          <ns3:TrackPointExtension>
            <ns3:hr>116</ns3:hr>
            <ns3:cad>0</ns3:cad>
          </ns3:TrackPointExtension>
        </extensions>
      </trkpt>
      <trkpt lat="37.9571667127311229705810546875" lon="-107.11460642516613006591796875">
        <ele>4033.39990234375</ele>
        <time>2026-01-06T19:12:14.000Z</time>
        <extensions>
          <ns3:TrackPointExtension>
            <ns3:hr>116</ns3:hr>
            <ns3:cad>0</ns3:cad>
          </ns3:TrackPointExtension>
        </extensions>
      </trkpt>
      <trkpt lat="37.9571667127311229705810546875" lon="-107.11460642516613006591796875">
        <ele>4034.199951171875</ele>
        <time>2026-01-06T19:12:20.000Z</time>
        <extensions>
          <ns3:TrackPointExtension>
            <ns3:hr>116</ns3:hr>
            <ns3:cad>0</ns3:cad>
          </ns3:TrackPointExtension>
        </extensions>
      </trkpt>
      <trkpt lat="37.9571667127311229705810546875" lon="-107.11460642516613006591796875">
        <ele>4034.199951171875</ele>
        <time>2026-01-06T19:12:21.000Z</time>
        <extensions>
          <ns3:TrackPointExtension>
            <ns3:hr>116</ns3:hr>
            <ns3:cad>0</ns3:cad>
          </ns3:TrackPointExtension>
        </extensions>
      </trkpt>
      <trkpt lat="37.9571667127311229705810546875" lon="-107.11460642516613006591796875">
        <ele>4033.60009765625</ele>
        <time>2026-01-06T19:12:27.000Z</time>
        <extensions>
          <ns3:TrackPointExtension>
            <ns3:hr>116</ns3:hr>
            <ns3:cad>0</ns3:cad>
          </ns3:TrackPointExtension>
        </extensions>
      </trkpt>
      <trkpt lat="37.9571667127311229705810546875" lon="-107.11460642516613006591796875">
        <ele>4033.800048828125</ele>
        <time>2026-01-06T19:12:33.000Z</time>
        <extensions>
          <ns3:TrackPointExtension>
            <ns3:hr>118</ns3:hr>
            <ns3:cad>0</ns3:cad>
          </ns3:TrackPointExtension>
        </extensions>
      </trkpt>
      <trkpt lat="37.9571667127311229705810546875" lon="-107.11460642516613006591796875">
        <ele>4034</ele>
        <time>2026-01-06T19:12:35.000Z</time>
        <extensions>
          <ns3:TrackPointExtension>
            <ns3:hr>118</ns3:hr>
            <ns3:cad>0</ns3:cad>
          </ns3:TrackPointExtension>
        </extensions>
      </trkpt>
      <trkpt lat="37.9571667127311229705810546875" lon="-107.11460642516613006591796875">
        <ele>4033.800048828125</ele>
        <time>2026-01-06T19:12:39.000Z</time>
        <extensions>
          <ns3:TrackPointExtension>
            <ns3:hr>115</ns3:hr>
            <ns3:cad>0</ns3:cad>
          </ns3:TrackPointExtension>
        </extensions>
      </trkpt>
      <trkpt lat="37.9571667127311229705810546875" lon="-107.11460642516613006591796875">
        <ele>4033.800048828125</ele>
        <time>2026-01-06T19:12:41.000Z</time>
        <extensions>
          <ns3:TrackPointExtension>
            <ns3:hr>110</ns3:hr>
            <ns3:cad>0</ns3:cad>
          </ns3:TrackPointExtension>
        </extensions>
      </trkpt>
      <trkpt lat="37.9571667127311229705810546875" lon="-107.11460642516613006591796875">
        <ele>4033.800048828125</ele>
        <time>2026-01-06T19:12:42.000Z</time>
        <extensions>
          <ns3:TrackPointExtension>
            <ns3:hr>110</ns3:hr>
            <ns3:cad>0</ns3:cad>
          </ns3:TrackPointExtension>
        </extensions>
      </trkpt>
      <trkpt lat="37.9571667127311229705810546875" lon="-107.11460642516613006591796875">
        <ele>4033.60009765625</ele>
        <time>2026-01-06T19:12:48.000Z</time>
        <extensions>
          <ns3:TrackPointExtension>
            <ns3:hr>108</ns3:hr>
            <ns3:cad>0</ns3:cad>
          </ns3:TrackPointExtension>
        </extensions>
      </trkpt>
      <trkpt lat="37.95716428197920322418212890625" lon="-107.11461187340319156646728515625">
        <ele>4034.199951171875</ele>
        <time>2026-01-06T19:12:52.000Z</time>
        <extensions>
          <ns3:TrackPointExtension>
            <ns3:hr>110</ns3:hr>
            <ns3:cad>0</ns3:cad>
          </ns3:TrackPointExtension>
        </extensions>
      </trkpt>
      <trkpt lat="37.9571667127311229705810546875" lon="-107.11460642516613006591796875">
        <ele>4033.800048828125</ele>
        <time>2026-01-06T19:12:58.000Z</time>
        <extensions>
          <ns3:TrackPointExtension>
            <ns3:hr>109</ns3:hr>
            <ns3:cad>0</ns3:cad>
          </ns3:TrackPointExtension>
        </extensions>
      </trkpt>
      <trkpt lat="37.9571667127311229705810546875" lon="-107.11460642516613006591796875">
        <ele>4033.800048828125</ele>
        <time>2026-01-06T19:13:00.000Z</time>
        <extensions>
          <ns3:TrackPointExtension>
            <ns3:hr>109</ns3:hr>
            <ns3:cad>0</ns3:cad>
          </ns3:TrackPointExtension>
        </extensions>
      </trkpt>
      <trkpt lat="37.95716964639723300933837890625" lon="-107.11460416205227375030517578125">
        <ele>4034</ele>
        <time>2026-01-06T19:13:06.000Z</time>
        <extensions>
          <ns3:TrackPointExtension>
            <ns3:hr>109</ns3:hr>
            <ns3:cad>0</ns3:cad>
          </ns3:TrackPointExtension>
        </extensions>
      </trkpt>
      <trkpt lat="37.9571667127311229705810546875" lon="-107.11460642516613006591796875">
        <ele>4034.39990234375</ele>
        <time>2026-01-06T19:13:09.000Z</time>
        <extensions>
          <ns3:TrackPointExtension>
            <ns3:hr>108</ns3:hr>
            <ns3:cad>0</ns3:cad>
          </ns3:TrackPointExtension>
        </extensions>
      </trkpt>
      <trkpt lat="37.9571667127311229705810546875" lon="-107.11460642516613006591796875">
        <ele>4034.60009765625</ele>
        <time>2026-01-06T19:13:10.000Z</time>
        <extensions>
          <ns3:TrackPointExtension>
            <ns3:hr>108</ns3:hr>
            <ns3:cad>0</ns3:cad>
          </ns3:TrackPointExtension>
        </extensions>
      </trkpt>
      <trkpt lat="37.9571667127311229705810546875" lon="-107.11460642516613006591796875">
        <ele>4034.39990234375</ele>
        <time>2026-01-06T19:13:16.000Z</time>
        <extensions>
          <ns3:TrackPointExtension>
            <ns3:hr>106</ns3:hr>
            <ns3:cad>0</ns3:cad>
          </ns3:TrackPointExtension>
        </extensions>
      </trkpt>
      <trkpt lat="37.9571667127311229705810546875" lon="-107.11460642516613006591796875">
        <ele>4034.199951171875</ele>
        <time>2026-01-06T19:13:20.000Z</time>
        <extensions>
          <ns3:TrackPointExtension>
            <ns3:hr>107</ns3:hr>
            <ns3:cad>0</ns3:cad>
          </ns3:TrackPointExtension>
        </extensions>
      </trkpt>
      <trkpt lat="37.9571667127311229705810546875" lon="-107.11460642516613006591796875">
        <ele>4034.800048828125</ele>
        <time>2026-01-06T19:13:24.000Z</time>
        <extensions>
          <ns3:TrackPointExtension>
            <ns3:hr>110</ns3:hr>
            <ns3:cad>0</ns3:cad>
          </ns3:TrackPointExtension>
        </extensions>
      </trkpt>
      <trkpt lat="37.95716662891209125518798828125" lon="-107.11461170576512813568115234375">
        <ele>4034.39990234375</ele>
        <time>2026-01-06T19:13:28.000Z</time>
        <extensions>
          <ns3:TrackPointExtension>
            <ns3:hr>112</ns3:hr>
            <ns3:cad>0</ns3:cad>
          </ns3:TrackPointExtension>
        </extensions>
      </trkpt>
      <trkpt lat="37.9571667127311229705810546875" lon="-107.11460642516613006591796875">
        <ele>4035</ele>
        <time>2026-01-06T19:13:33.000Z</time>
        <extensions>
          <ns3:TrackPointExtension>
            <ns3:hr>113</ns3:hr>
            <ns3:cad>0</ns3:cad>
          </ns3:TrackPointExtension>
        </extensions>
      </trkpt>
      <trkpt lat="37.9571667127311229705810546875" lon="-107.11460642516613006591796875">
        <ele>4034.60009765625</ele>
        <time>2026-01-06T19:13:39.000Z</time>
        <extensions>
          <ns3:TrackPointExtension>
            <ns3:hr>113</ns3:hr>
            <ns3:cad>0</ns3:cad>
          </ns3:TrackPointExtension>
        </extensions>
      </trkpt>
      <trkpt lat="37.9571667127311229705810546875" lon="-107.11460642516613006591796875">
        <ele>4034.199951171875</ele>
        <time>2026-01-06T19:13:42.000Z</time>
        <extensions>
          <ns3:TrackPointExtension>
            <ns3:hr>113</ns3:hr>
            <ns3:cad>0</ns3:cad>
          </ns3:TrackPointExtension>
        </extensions>
      </trkpt>
      <trkpt lat="37.9571667127311229705810546875" lon="-107.11460642516613006591796875">
        <ele>4034.60009765625</ele>
        <time>2026-01-06T19:13:48.000Z</time>
        <extensions>
          <ns3:TrackPointExtension>
            <ns3:hr>114</ns3:hr>
            <ns3:cad>0</ns3:cad>
          </ns3:TrackPointExtension>
        </extensions>
      </trkpt>
      <trkpt lat="37.9571667127311229705810546875" lon="-107.11460642516613006591796875">
        <ele>4035.60009765625</ele>
        <time>2026-01-06T19:13:53.000Z</time>
        <extensions>
          <ns3:TrackPointExtension>
            <ns3:hr>114</ns3:hr>
            <ns3:cad>0</ns3:cad>
          </ns3:TrackPointExtension>
        </extensions>
      </trkpt>
      <trkpt lat="37.9571667127311229705810546875" lon="-107.11460642516613006591796875">
        <ele>4035.39990234375</ele>
        <time>2026-01-06T19:13:57.000Z</time>
        <extensions>
          <ns3:TrackPointExtension>
            <ns3:hr>111</ns3:hr>
            <ns3:cad>0</ns3:cad>
          </ns3:TrackPointExtension>
        </extensions>
      </trkpt>
      <trkpt lat="37.9571667127311229705810546875" lon="-107.11460642516613006591796875">
        <ele>4035.60009765625</ele>
        <time>2026-01-06T19:14:03.000Z</time>
        <extensions>
          <ns3:TrackPointExtension>
            <ns3:hr>112</ns3:hr>
            <ns3:cad>0</ns3:cad>
          </ns3:TrackPointExtension>
        </extensions>
      </trkpt>
      <trkpt lat="37.95716755092144012451171875" lon="-107.11460734717547893524169921875">
        <ele>4035.800048828125</ele>
        <time>2026-01-06T19:14:06.000Z</time>
        <extensions>
          <ns3:TrackPointExtension>
            <ns3:hr>113</ns3:hr>
            <ns3:cad>0</ns3:cad>
          </ns3:TrackPointExtension>
        </extensions>
      </trkpt>
      <trkpt lat="37.9571667127311229705810546875" lon="-107.11460642516613006591796875">
        <ele>4035.800048828125</ele>
        <time>2026-01-06T19:14:12.000Z</time>
        <extensions>
          <ns3:TrackPointExtension>
            <ns3:hr>114</ns3:hr>
            <ns3:cad>0</ns3:cad>
          </ns3:TrackPointExtension>
        </extensions>
      </trkpt>
      <trkpt lat="37.9571667127311229705810546875" lon="-107.11460642516613006591796875">
        <ele>4035.60009765625</ele>
        <time>2026-01-06T19:14:14.000Z</time>
        <extensions>
          <ns3:TrackPointExtension>
            <ns3:hr>114</ns3:hr>
            <ns3:cad>0</ns3:cad>
          </ns3:TrackPointExtension>
        </extensions>
      </trkpt>
      <trkpt lat="37.9571667127311229705810546875" lon="-107.11460642516613006591796875">
        <ele>4035.60009765625</ele>
        <time>2026-01-06T19:14:20.000Z</time>
        <extensions>
          <ns3:TrackPointExtension>
            <ns3:hr>113</ns3:hr>
            <ns3:cad>0</ns3:cad>
          </ns3:TrackPointExtension>
        </extensions>
      </trkpt>
      <trkpt lat="37.9571667127311229705810546875" lon="-107.11460642516613006591796875">
        <ele>4035.199951171875</ele>
        <time>2026-01-06T19:14:23.000Z</time>
        <extensions>
          <ns3:TrackPointExtension>
            <ns3:hr>114</ns3:hr>
            <ns3:cad>0</ns3:cad>
          </ns3:TrackPointExtension>
        </extensions>
      </trkpt>
      <trkpt lat="37.9571667127311229705810546875" lon="-107.11460642516613006591796875">
        <ele>4035.800048828125</ele>
        <time>2026-01-06T19:14:29.000Z</time>
        <extensions>
          <ns3:TrackPointExtension>
            <ns3:hr>111</ns3:hr>
            <ns3:cad>0</ns3:cad>
          </ns3:TrackPointExtension>
        </extensions>
      </trkpt>
      <trkpt lat="37.9571667127311229705810546875" lon="-107.11460642516613006591796875">
        <ele>4035.800048828125</ele>
        <time>2026-01-06T19:14:34.000Z</time>
        <extensions>
          <ns3:TrackPointExtension>
            <ns3:hr>111</ns3:hr>
            <ns3:cad>0</ns3:cad>
          </ns3:TrackPointExtension>
        </extensions>
      </trkpt>
      <trkpt lat="37.95717719011008739471435546875" lon="-107.114589326083660125732421875">
        <ele>4035.39990234375</ele>
        <time>2026-01-06T19:14:40.000Z</time>
        <extensions>
          <ns3:TrackPointExtension>
            <ns3:hr>108</ns3:hr>
            <ns3:cad>0</ns3:cad>
          </ns3:TrackPointExtension>
        </extensions>
      </trkpt>
      <trkpt lat="37.95718490146100521087646484375" lon="-107.11458538658916950225830078125">
        <ele>4035</ele>
        <time>2026-01-06T19:14:41.000Z</time>
        <extensions>
          <ns3:TrackPointExtension>
            <ns3:hr>107</ns3:hr>
            <ns3:cad>0</ns3:cad>
          </ns3:TrackPointExtension>
        </extensions>
      </trkpt>
      <trkpt lat="37.95719764195382595062255859375" lon="-107.1145670302212238311767578125">
        <ele>4034.60009765625</ele>
        <time>2026-01-06T19:14:45.000Z</time>
        <extensions>
          <ns3:TrackPointExtension>
            <ns3:hr>104</ns3:hr>
            <ns3:cad>0</ns3:cad>
          </ns3:TrackPointExtension>
        </extensions>
      </trkpt>
      <trkpt lat="37.957204096019268035888671875" lon="-107.11455336771905422210693359375">
        <ele>4034.800048828125</ele>
        <time>2026-01-06T19:14:47.000Z</time>
        <extensions>
          <ns3:TrackPointExtension>
            <ns3:hr>101</ns3:hr>
            <ns3:cad>0</ns3:cad>
          </ns3:TrackPointExtension>
        </extensions>
      </trkpt>
      <trkpt lat="37.9572069458663463592529296875" lon="-107.11453802883625030517578125">
        <ele>4034.800048828125</ele>
        <time>2026-01-06T19:14:49.000Z</time>
        <extensions>
          <ns3:TrackPointExtension>
            <ns3:hr>100</ns3:hr>
            <ns3:cad>41</ns3:cad>
          </ns3:TrackPointExtension>
        </extensions>
      </trkpt>
      <trkpt lat="37.95721390284597873687744140625" lon="-107.11451657116413116455078125">
        <ele>4034.60009765625</ele>
        <time>2026-01-06T19:14:53.000Z</time>
        <extensions>
          <ns3:TrackPointExtension>
            <ns3:hr>99</ns3:hr>
            <ns3:cad>0</ns3:cad>
          </ns3:TrackPointExtension>
        </extensions>
      </trkpt>
      <trkpt lat="37.95721507631242275238037109375" lon="-107.11449989117681980133056640625">
        <ele>4034.199951171875</ele>
        <time>2026-01-06T19:14:58.000Z</time>
        <extensions>
          <ns3:TrackPointExtension>
            <ns3:hr>99</ns3:hr>
            <ns3:cad>0</ns3:cad>
          </ns3:TrackPointExtension>
        </extensions>
      </trkpt>
      <trkpt lat="37.957217507064342498779296875" lon="-107.11448161862790584564208984375">
        <ele>4033.800048828125</ele>
        <time>2026-01-06T19:15:04.000Z</time>
        <extensions>
          <ns3:TrackPointExtension>
            <ns3:hr>99</ns3:hr>
            <ns3:cad>0</ns3:cad>
          </ns3:TrackPointExtension>
        </extensions>
      </trkpt>
      <trkpt lat="37.957217507064342498779296875" lon="-107.11448161862790584564208984375">
        <ele>4033.39990234375</ele>
        <time>2026-01-06T19:15:05.000Z</time>
        <extensions>
          <ns3:TrackPointExtension>
            <ns3:hr>99</ns3:hr>
            <ns3:cad>0</ns3:cad>
          </ns3:TrackPointExtension>
        </extensions>
      </trkpt>
      <trkpt lat="37.95722546987235546112060546875" lon="-107.11445353925228118896484375">
        <ele>4032.39990234375</ele>
        <time>2026-01-06T19:15:10.000Z</time>
        <extensions>
          <ns3:TrackPointExtension>
            <ns3:hr>99</ns3:hr>
            <ns3:cad>0</ns3:cad>
          </ns3:TrackPointExtension>
        </extensions>
      </trkpt>
      <trkpt lat="37.95722697861492633819580078125" lon="-107.114450521767139434814453125">
        <ele>4032.199951171875</ele>
        <time>2026-01-06T19:15:11.000Z</time>
        <extensions>
          <ns3:TrackPointExtension>
            <ns3:hr>99</ns3:hr>
            <ns3:cad>0</ns3:cad>
          </ns3:TrackPointExtension>
        </extensions>
      </trkpt>
      <trkpt lat="37.95722681097686290740966796875" lon="-107.1144503541290760040283203125">
        <ele>4032.199951171875</ele>
        <time>2026-01-06T19:15:12.000Z</time>
        <extensions>
          <ns3:TrackPointExtension>
            <ns3:hr>102</ns3:hr>
            <ns3:cad>0</ns3:cad>
          </ns3:TrackPointExtension>
        </extensions>
      </trkpt>
      <trkpt lat="37.95722924172878265380859375" lon="-107.11444574408233165740966796875">
        <ele>4032.199951171875</ele>
        <time>2026-01-06T19:15:13.000Z</time>
        <extensions>
          <ns3:TrackPointExtension>
            <ns3:hr>106</ns3:hr>
            <ns3:cad>0</ns3:cad>
          </ns3:TrackPointExtension>
        </extensions>
      </trkpt>
      <trkpt lat="37.957230918109416961669921875" lon="-107.114441134035587310791015625">
        <ele>4032.199951171875</ele>
        <time>2026-01-06T19:15:14.000Z</time>
        <extensions>
          <ns3:TrackPointExtension>
            <ns3:hr>110</ns3:hr>
            <ns3:cad>0</ns3:cad>
          </ns3:TrackPointExtension>
        </extensions>
      </trkpt>
      <trkpt lat="37.9572364501655101776123046875" lon="-107.1144275553524494171142578125">
        <ele>4032.39990234375</ele>
        <time>2026-01-06T19:15:17.000Z</time>
        <extensions>
          <ns3:TrackPointExtension>
            <ns3:hr>113</ns3:hr>
            <ns3:cad>44</ns3:cad>
          </ns3:TrackPointExtension>
        </extensions>
      </trkpt>
      <trkpt lat="37.957236282527446746826171875" lon="-107.1144179999828338623046875">
        <ele>4032</ele>
        <time>2026-01-06T19:15:19.000Z</time>
        <extensions>
          <ns3:TrackPointExtension>
            <ns3:hr>113</ns3:hr>
            <ns3:cad>44</ns3:cad>
          </ns3:TrackPointExtension>
        </extensions>
      </trkpt>
      <trkpt lat="37.95724072493612766265869140625" lon="-107.114408276975154876708984375">
        <ele>4031.199951171875</ele>
        <time>2026-01-06T19:15:22.000Z</time>
        <extensions>
          <ns3:TrackPointExtension>
            <ns3:hr>113</ns3:hr>
            <ns3:cad>0</ns3:cad>
          </ns3:TrackPointExtension>
        </extensions>
      </trkpt>
      <trkpt lat="37.9572471790015697479248046875" lon="-107.1143911778926849365234375">
        <ele>4030.39990234375</ele>
        <time>2026-01-06T19:15:26.000Z</time>
        <extensions>
          <ns3:TrackPointExtension>
            <ns3:hr>112</ns3:hr>
            <ns3:cad>0</ns3:cad>
          </ns3:TrackPointExtension>
        </extensions>
      </trkpt>
      <trkpt lat="37.9572501964867115020751953125" lon="-107.11438472382724285125732421875">
        <ele>4030.199951171875</ele>
        <time>2026-01-06T19:15:28.000Z</time>
        <extensions>
          <ns3:TrackPointExtension>
            <ns3:hr>111</ns3:hr>
            <ns3:cad>0</ns3:cad>
          </ns3:TrackPointExtension>
        </extensions>
      </trkpt>
      <trkpt lat="37.95725581236183643341064453125" lon="-107.114353291690349578857421875">
        <ele>4029.199951171875</ele>
        <time>2026-01-06T19:15:34.000Z</time>
        <extensions>
          <ns3:TrackPointExtension>
            <ns3:hr>111</ns3:hr>
            <ns3:cad>0</ns3:cad>
          </ns3:TrackPointExtension>
        </extensions>
      </trkpt>
      <trkpt lat="37.95725665055215358734130859375" lon="-107.11434700526297092437744140625">
        <ele>4029</ele>
        <time>2026-01-06T19:15:35.000Z</time>
        <extensions>
          <ns3:TrackPointExtension>
            <ns3:hr>111</ns3:hr>
            <ns3:cad>0</ns3:cad>
          </ns3:TrackPointExtension>
        </extensions>
      </trkpt>
      <trkpt lat="37.95726679265499114990234375" lon="-107.114321105182170867919921875">
        <ele>4028.39990234375</ele>
        <time>2026-01-06T19:15:41.000Z</time>
        <extensions>
          <ns3:TrackPointExtension>
            <ns3:hr>110</ns3:hr>
            <ns3:cad>0</ns3:cad>
          </ns3:TrackPointExtension>
        </extensions>
      </trkpt>
      <trkpt lat="37.95726737938821315765380859375" lon="-107.11431750096380710601806640625">
        <ele>4028</ele>
        <time>2026-01-06T19:15:43.000Z</time>
        <extensions>
          <ns3:TrackPointExtension>
            <ns3:hr>110</ns3:hr>
            <ns3:cad>0</ns3:cad>
          </ns3:TrackPointExtension>
        </extensions>
      </trkpt>
      <trkpt lat="37.95727240853011608123779296875" lon="-107.11429788731038570404052734375">
        <ele>4027</ele>
        <time>2026-01-06T19:15:49.000Z</time>
        <extensions>
          <ns3:TrackPointExtension>
            <ns3:hr>111</ns3:hr>
            <ns3:cad>0</ns3:cad>
          </ns3:TrackPointExtension>
        </extensions>
      </trkpt>
      <trkpt lat="37.95727240853011608123779296875" lon="-107.11429788731038570404052734375">
        <ele>4027.199951171875</ele>
        <time>2026-01-06T19:15:51.000Z</time>
        <extensions>
          <ns3:TrackPointExtension>
            <ns3:hr>112</ns3:hr>
            <ns3:cad>0</ns3:cad>
          </ns3:TrackPointExtension>
        </extensions>
      </trkpt>
      <trkpt lat="37.95727240853011608123779296875" lon="-107.11429788731038570404052734375">
        <ele>4026.800048828125</ele>
        <time>2026-01-06T19:15:57.000Z</time>
        <extensions>
          <ns3:TrackPointExtension>
            <ns3:hr>112</ns3:hr>
            <ns3:cad>0</ns3:cad>
          </ns3:TrackPointExtension>
        </extensions>
      </trkpt>
      <trkpt lat="37.9572756774723529815673828125" lon="-107.1142756752669811248779296875">
        <ele>4026.60009765625</ele>
        <time>2026-01-06T19:15:59.000Z</time>
        <extensions>
          <ns3:TrackPointExtension>
            <ns3:hr>112</ns3:hr>
            <ns3:cad>0</ns3:cad>
          </ns3:TrackPointExtension>
        </extensions>
      </trkpt>
      <trkpt lat="37.9572797007858753204345703125" lon="-107.11425128392875194549560546875">
        <ele>4026</ele>
        <time>2026-01-06T19:16:04.000Z</time>
        <extensions>
          <ns3:TrackPointExtension>
            <ns3:hr>111</ns3:hr>
            <ns3:cad>0</ns3:cad>
          </ns3:TrackPointExtension>
        </extensions>
      </trkpt>
      <trkpt lat="37.95727961696684360504150390625" lon="-107.11424491368234157562255859375">
        <ele>4025.39990234375</ele>
        <time>2026-01-06T19:16:06.000Z</time>
        <extensions>
          <ns3:TrackPointExtension>
            <ns3:hr>111</ns3:hr>
            <ns3:cad>0</ns3:cad>
          </ns3:TrackPointExtension>
        </extensions>
      </trkpt>
      <trkpt lat="37.95727810822427272796630859375" lon="-107.11424323730170726776123046875">
        <ele>4025</ele>
        <time>2026-01-06T19:16:10.000Z</time>
        <extensions>
          <ns3:TrackPointExtension>
            <ns3:hr>108</ns3:hr>
            <ns3:cad>0</ns3:cad>
          </ns3:TrackPointExtension>
        </extensions>
      </trkpt>
      <trkpt lat="37.95727961696684360504150390625" lon="-107.11424491368234157562255859375">
        <ele>4024.800048828125</ele>
        <time>2026-01-06T19:16:11.000Z</time>
        <extensions>
          <ns3:TrackPointExtension>
            <ns3:hr>107</ns3:hr>
            <ns3:cad>0</ns3:cad>
          </ns3:TrackPointExtension>
        </extensions>
      </trkpt>
      <trkpt lat="37.95727961696684360504150390625" lon="-107.11424491368234157562255859375">
        <ele>4024.800048828125</ele>
        <time>2026-01-06T19:16:13.000Z</time>
        <extensions>
          <ns3:TrackPointExtension>
            <ns3:hr>106</ns3:hr>
            <ns3:cad>0</ns3:cad>
          </ns3:TrackPointExtension>
        </extensions>
      </trkpt>
      <trkpt lat="37.95728011988103389739990234375" lon="-107.1142101287841796875">
        <ele>4024.39990234375</ele>
        <time>2026-01-06T19:16:19.000Z</time>
        <extensions>
          <ns3:TrackPointExtension>
            <ns3:hr>106</ns3:hr>
            <ns3:cad>0</ns3:cad>
          </ns3:TrackPointExtension>
        </extensions>
      </trkpt>
      <trkpt lat="37.95728162862360477447509765625" lon="-107.11420543491840362548828125">
        <ele>4024.199951171875</ele>
        <time>2026-01-06T19:16:20.000Z</time>
        <extensions>
          <ns3:TrackPointExtension>
            <ns3:hr>105</ns3:hr>
            <ns3:cad>0</ns3:cad>
          </ns3:TrackPointExtension>
        </extensions>
      </trkpt>
      <trkpt lat="37.95728464610874652862548828125" lon="-107.114192359149456024169921875">
        <ele>4023.800048828125</ele>
        <time>2026-01-06T19:16:23.000Z</time>
        <extensions>
          <ns3:TrackPointExtension>
            <ns3:hr>105</ns3:hr>
            <ns3:cad>0</ns3:cad>
          </ns3:TrackPointExtension>
        </extensions>
      </trkpt>
      <trkpt lat="37.9572857357561588287353515625" lon="-107.11418489925563335418701171875">
        <ele>4023.60009765625</ele>
        <time>2026-01-06T19:16:27.000Z</time>
        <extensions>
          <ns3:TrackPointExtension>
            <ns3:hr>105</ns3:hr>
            <ns3:cad>0</ns3:cad>
          </ns3:TrackPointExtension>
        </extensions>
      </trkpt>
      <trkpt lat="37.957285903394222259521484375" lon="-107.1141828037798404693603515625">
        <ele>4023.199951171875</ele>
        <time>2026-01-06T19:16:33.000Z</time>
        <extensions>
          <ns3:TrackPointExtension>
            <ns3:hr>104</ns3:hr>
            <ns3:cad>0</ns3:cad>
          </ns3:TrackPointExtension>
        </extensions>
      </trkpt>
      <trkpt lat="37.95728967525064945220947265625" lon="-107.1141576580703258514404296875">
        <ele>4023</ele>
        <time>2026-01-06T19:16:36.000Z</time>
        <extensions>
          <ns3:TrackPointExtension>
            <ns3:hr>102</ns3:hr>
            <ns3:cad>0</ns3:cad>
          </ns3:TrackPointExtension>
        </extensions>
      </trkpt>
      <trkpt lat="37.957293279469013214111328125" lon="-107.1141408942639827728271484375">
        <ele>4022.60009765625</ele>
        <time>2026-01-06T19:16:39.000Z</time>
        <extensions>
          <ns3:TrackPointExtension>
            <ns3:hr>101</ns3:hr>
            <ns3:cad>0</ns3:cad>
          </ns3:TrackPointExtension>
        </extensions>
      </trkpt>
      <trkpt lat="37.95729897916316986083984375" lon="-107.1141264773905277252197265625">
        <ele>4022.199951171875</ele>
        <time>2026-01-06T19:16:42.000Z</time>
        <extensions>
          <ns3:TrackPointExtension>
            <ns3:hr>98</ns3:hr>
            <ns3:cad>0</ns3:cad>
          </ns3:TrackPointExtension>
        </extensions>
      </trkpt>
      <trkpt lat="37.957299984991550445556640625" lon="-107.11412438191473484039306640625">
        <ele>4022</ele>
        <time>2026-01-06T19:16:43.000Z</time>
        <extensions>
          <ns3:TrackPointExtension>
            <ns3:hr>98</ns3:hr>
            <ns3:cad>0</ns3:cad>
          </ns3:TrackPointExtension>
        </extensions>
      </trkpt>
      <trkpt lat="37.9573024995625019073486328125" lon="-107.11411155760288238525390625">
        <ele>4021.60009765625</ele>
        <time>2026-01-06T19:16:47.000Z</time>
        <extensions>
          <ns3:TrackPointExtension>
            <ns3:hr>98</ns3:hr>
            <ns3:cad>0</ns3:cad>
          </ns3:TrackPointExtension>
        </extensions>
      </trkpt>
      <trkpt lat="37.95730895362794399261474609375" lon="-107.1141050197184085845947265625">
        <ele>4021.39990234375</ele>
        <time>2026-01-06T19:16:49.000Z</time>
        <extensions>
          <ns3:TrackPointExtension>
            <ns3:hr>98</ns3:hr>
            <ns3:cad>0</ns3:cad>
          </ns3:TrackPointExtension>
        </extensions>
      </trkpt>
      <trkpt lat="37.95732043683528900146484375" lon="-107.11408071219921112060546875">
        <ele>4021.199951171875</ele>
        <time>2026-01-06T19:16:54.000Z</time>
        <extensions>
          <ns3:TrackPointExtension>
            <ns3:hr>98</ns3:hr>
            <ns3:cad>0</ns3:cad>
          </ns3:TrackPointExtension>
        </extensions>
      </trkpt>
      <trkpt lat="37.9573276452720165252685546875" lon="-107.11404458619654178619384765625">
        <ele>4021.39990234375</ele>
        <time>2026-01-06T19:17:00.000Z</time>
        <extensions>
          <ns3:TrackPointExtension>
            <ns3:hr>98</ns3:hr>
            <ns3:cad>0</ns3:cad>
          </ns3:TrackPointExtension>
        </extensions>
      </trkpt>
      <trkpt lat="37.95734181068837642669677734375" lon="-107.11402581073343753814697265625">
        <ele>4020.60009765625</ele>
        <time>2026-01-06T19:17:06.000Z</time>
        <extensions>
          <ns3:TrackPointExtension>
            <ns3:hr>98</ns3:hr>
            <ns3:cad>0</ns3:cad>
          </ns3:TrackPointExtension>
        </extensions>
      </trkpt>
      <trkpt lat="37.95734667219221591949462890625" lon="-107.11402363143861293792724609375">
        <ele>4020.60009765625</ele>
        <time>2026-01-06T19:17:07.000Z</time>
        <extensions>
          <ns3:TrackPointExtension>
            <ns3:hr>98</ns3:hr>
            <ns3:cad>75</ns3:cad>
          </ns3:TrackPointExtension>
        </extensions>
      </trkpt>
      <trkpt lat="37.95736871659755706787109375" lon="-107.11399412713944911956787109375">
        <ele>4020</ele>
        <time>2026-01-06T19:17:13.000Z</time>
        <extensions>
          <ns3:TrackPointExtension>
            <ns3:hr>97</ns3:hr>
            <ns3:cad>0</ns3:cad>
          </ns3:TrackPointExtension>
        </extensions>
      </trkpt>
      <trkpt lat="37.9573749192059040069580078125" lon="-107.11397987790405750274658203125">
        <ele>4019.800048828125</ele>
        <time>2026-01-06T19:17:18.000Z</time>
        <extensions>
          <ns3:TrackPointExtension>
            <ns3:hr>99</ns3:hr>
            <ns3:cad>0</ns3:cad>
          </ns3:TrackPointExtension>
        </extensions>
      </trkpt>
      <trkpt lat="37.9573745839297771453857421875" lon="-107.11397820152342319488525390625">
        <ele>4019.60009765625</ele>
        <time>2026-01-06T19:17:20.000Z</time>
        <extensions>
          <ns3:TrackPointExtension>
            <ns3:hr>98</ns3:hr>
            <ns3:cad>0</ns3:cad>
          </ns3:TrackPointExtension>
        </extensions>
      </trkpt>
      <trkpt lat="37.957374416291713714599609375" lon="-107.11398088373243808746337890625">
        <ele>4019.199951171875</ele>
        <time>2026-01-06T19:17:24.000Z</time>
        <extensions>
          <ns3:TrackPointExtension>
            <ns3:hr>99</ns3:hr>
            <ns3:cad>0</ns3:cad>
          </ns3:TrackPointExtension>
        </extensions>
      </trkpt>
      <trkpt lat="37.957374416291713714599609375" lon="-107.11398088373243808746337890625">
        <ele>4018.60009765625</ele>
        <time>2026-01-06T19:17:30.000Z</time>
        <extensions>
          <ns3:TrackPointExtension>
            <ns3:hr>99</ns3:hr>
            <ns3:cad>0</ns3:cad>
          </ns3:TrackPointExtension>
        </extensions>
      </trkpt>
      <trkpt lat="37.9573786072432994842529296875" lon="-107.11396445520222187042236328125">
        <ele>4018.60009765625</ele>
        <time>2026-01-06T19:17:31.000Z</time>
        <extensions>
          <ns3:TrackPointExtension>
            <ns3:hr>99</ns3:hr>
            <ns3:cad>0</ns3:cad>
          </ns3:TrackPointExtension>
        </extensions>
      </trkpt>
      <trkpt lat="37.957379780709743499755859375" lon="-107.113963030278682708740234375">
        <ele>4018.60009765625</ele>
        <time>2026-01-06T19:17:36.000Z</time>
        <extensions>
          <ns3:TrackPointExtension>
            <ns3:hr>102</ns3:hr>
            <ns3:cad>0</ns3:cad>
          </ns3:TrackPointExtension>
        </extensions>
      </trkpt>
      <trkpt lat="37.957379780709743499755859375" lon="-107.113963030278682708740234375">
        <ele>4018.60009765625</ele>
        <time>2026-01-06T19:17:38.000Z</time>
        <extensions>
          <ns3:TrackPointExtension>
            <ns3:hr>102</ns3:hr>
            <ns3:cad>0</ns3:cad>
          </ns3:TrackPointExtension>
        </extensions>
      </trkpt>
      <trkpt lat="37.957379780709743499755859375" lon="-107.113963030278682708740234375">
        <ele>4018</ele>
        <time>2026-01-06T19:17:44.000Z</time>
        <extensions>
          <ns3:TrackPointExtension>
            <ns3:hr>102</ns3:hr>
            <ns3:cad>0</ns3:cad>
          </ns3:TrackPointExtension>
        </extensions>
      </trkpt>
      <trkpt lat="37.957379780709743499755859375" lon="-107.113963030278682708740234375">
        <ele>4018</ele>
        <time>2026-01-06T19:17:45.000Z</time>
        <extensions>
          <ns3:TrackPointExtension>
            <ns3:hr>102</ns3:hr>
            <ns3:cad>0</ns3:cad>
          </ns3:TrackPointExtension>
        </extensions>
      </trkpt>
      <trkpt lat="37.95738288201391696929931640625" lon="-107.11393964476883411407470703125">
        <ele>4017.800048828125</ele>
        <time>2026-01-06T19:17:51.000Z</time>
        <extensions>
          <ns3:TrackPointExtension>
            <ns3:hr>104</ns3:hr>
            <ns3:cad>0</ns3:cad>
          </ns3:TrackPointExtension>
        </extensions>
      </trkpt>
      <trkpt lat="37.95738288201391696929931640625" lon="-107.11393964476883411407470703125">
        <ele>4017.800048828125</ele>
        <time>2026-01-06T19:17:52.000Z</time>
        <extensions>
          <ns3:TrackPointExtension>
            <ns3:hr>105</ns3:hr>
            <ns3:cad>0</ns3:cad>
          </ns3:TrackPointExtension>
        </extensions>
      </trkpt>
      <trkpt lat="37.95738288201391696929931640625" lon="-107.11393964476883411407470703125">
        <ele>4017.39990234375</ele>
        <time>2026-01-06T19:17:58.000Z</time>
        <extensions>
          <ns3:TrackPointExtension>
            <ns3:hr>104</ns3:hr>
            <ns3:cad>0</ns3:cad>
          </ns3:TrackPointExtension>
        </extensions>
      </trkpt>
      <trkpt lat="37.95738288201391696929931640625" lon="-107.11393964476883411407470703125">
        <ele>4017.199951171875</ele>
        <time>2026-01-06T19:18:00.000Z</time>
        <extensions>
          <ns3:TrackPointExtension>
            <ns3:hr>105</ns3:hr>
            <ns3:cad>0</ns3:cad>
          </ns3:TrackPointExtension>
        </extensions>
      </trkpt>
      <trkpt lat="37.95738941989839076995849609375" lon="-107.113885916769504547119140625">
        <ele>4016.800048828125</ele>
        <time>2026-01-06T19:18:06.000Z</time>
        <extensions>
          <ns3:TrackPointExtension>
            <ns3:hr>106</ns3:hr>
            <ns3:cad>0</ns3:cad>
          </ns3:TrackPointExtension>
        </extensions>
      </trkpt>
      <trkpt lat="37.95739277265965938568115234375" lon="-107.113865800201892852783203125">
        <ele>4016.800048828125</ele>
        <time>2026-01-06T19:18:09.000Z</time>
        <extensions>
          <ns3:TrackPointExtension>
            <ns3:hr>106</ns3:hr>
            <ns3:cad>0</ns3:cad>
          </ns3:TrackPointExtension>
        </extensions>
      </trkpt>
      <trkpt lat="37.95739344321191310882568359375" lon="-107.11386102251708507537841796875">
        <ele>4016.39990234375</ele>
        <time>2026-01-06T19:18:13.000Z</time>
        <extensions>
          <ns3:TrackPointExtension>
            <ns3:hr>107</ns3:hr>
            <ns3:cad>0</ns3:cad>
          </ns3:TrackPointExtension>
        </extensions>
      </trkpt>
      <trkpt lat="37.9573977179825305938720703125" lon="-107.113841660320758819580078125">
        <ele>4016</ele>
        <time>2026-01-06T19:18:16.000Z</time>
        <extensions>
          <ns3:TrackPointExtension>
            <ns3:hr>108</ns3:hr>
            <ns3:cad>19</ns3:cad>
          </ns3:TrackPointExtension>
        </extensions>
      </trkpt>
      <trkpt lat="37.9574047587811946868896484375" lon="-107.1138190291821956634521484375">
        <ele>4015.199951171875</ele>
        <time>2026-01-06T19:18:19.000Z</time>
        <extensions>
          <ns3:TrackPointExtension>
            <ns3:hr>108</ns3:hr>
            <ns3:cad>0</ns3:cad>
          </ns3:TrackPointExtension>
        </extensions>
      </trkpt>
      <trkpt lat="37.95740467496216297149658203125" lon="-107.113798744976520538330078125">
        <ele>4014.39990234375</ele>
        <time>2026-01-06T19:18:23.000Z</time>
        <extensions>
          <ns3:TrackPointExtension>
            <ns3:hr>108</ns3:hr>
            <ns3:cad>0</ns3:cad>
          </ns3:TrackPointExtension>
        </extensions>
      </trkpt>
      <trkpt lat="37.95740400440990924835205078125" lon="-107.113794721662998199462890625">
        <ele>4014.199951171875</ele>
        <time>2026-01-06T19:18:24.000Z</time>
        <extensions>
          <ns3:TrackPointExtension>
            <ns3:hr>108</ns3:hr>
            <ns3:cad>0</ns3:cad>
          </ns3:TrackPointExtension>
        </extensions>
      </trkpt>
      <trkpt lat="37.95740090310573577880859375" lon="-107.1137684024870395660400390625">
        <ele>4013.199951171875</ele>
        <time>2026-01-06T19:18:30.000Z</time>
        <extensions>
          <ns3:TrackPointExtension>
            <ns3:hr>106</ns3:hr>
            <ns3:cad>47</ns3:cad>
          </ns3:TrackPointExtension>
        </extensions>
      </trkpt>
      <trkpt lat="37.9574004001915454864501953125" lon="-107.11375080049037933349609375">
        <ele>4013</ele>
        <time>2026-01-06T19:18:32.000Z</time>
        <extensions>
          <ns3:TrackPointExtension>
            <ns3:hr>105</ns3:hr>
            <ns3:cad>47</ns3:cad>
          </ns3:TrackPointExtension>
        </extensions>
      </trkpt>
      <trkpt lat="37.9573993943631649017333984375" lon="-107.113743089139461517333984375">
        <ele>4013</ele>
        <time>2026-01-06T19:18:33.000Z</time>
        <extensions>
          <ns3:TrackPointExtension>
            <ns3:hr>105</ns3:hr>
            <ns3:cad>47</ns3:cad>
          </ns3:TrackPointExtension>
        </extensions>
      </trkpt>
      <trkpt lat="37.9573997296392917633056640625" lon="-107.11373009718954563140869140625">
        <ele>4012.199951171875</ele>
        <time>2026-01-06T19:18:39.000Z</time>
        <extensions>
          <ns3:TrackPointExtension>
            <ns3:hr>104</ns3:hr>
            <ns3:cad>0</ns3:cad>
          </ns3:TrackPointExtension>
        </extensions>
      </trkpt>
      <trkpt lat="37.9574002325534820556640625" lon="-107.11372674442827701568603515625">
        <ele>4012.199951171875</ele>
        <time>2026-01-06T19:18:40.000Z</time>
        <extensions>
          <ns3:TrackPointExtension>
            <ns3:hr>104</ns3:hr>
            <ns3:cad>0</ns3:cad>
          </ns3:TrackPointExtension>
        </extensions>
      </trkpt>
      <trkpt lat="37.95740048401057720184326171875" lon="-107.1137187816202640533447265625">
        <ele>4012</ele>
        <time>2026-01-06T19:18:42.000Z</time>
        <extensions>
          <ns3:TrackPointExtension>
            <ns3:hr>105</ns3:hr>
            <ns3:cad>0</ns3:cad>
          </ns3:TrackPointExtension>
        </extensions>
      </trkpt>
      <trkpt lat="37.95740819536149501800537109375" lon="-107.11369439028203487396240234375">
        <ele>4011.199951171875</ele>
        <time>2026-01-06T19:18:46.000Z</time>
        <extensions>
          <ns3:TrackPointExtension>
            <ns3:hr>106</ns3:hr>
            <ns3:cad>68</ns3:cad>
          </ns3:TrackPointExtension>
        </extensions>
      </trkpt>
      <trkpt lat="37.95740936882793903350830078125" lon="-107.11367997340857982635498046875">
        <ele>4010.800048828125</ele>
        <time>2026-01-06T19:18:48.000Z</time>
        <extensions>
          <ns3:TrackPointExtension>
            <ns3:hr>107</ns3:hr>
            <ns3:cad>0</ns3:cad>
          </ns3:TrackPointExtension>
        </extensions>
      </trkpt>
      <trkpt lat="37.957409955561161041259765625" lon="-107.113661281764507293701171875">
        <ele>4010.39990234375</ele>
        <time>2026-01-06T19:18:52.000Z</time>
        <extensions>
          <ns3:TrackPointExtension>
            <ns3:hr>107</ns3:hr>
            <ns3:cad>0</ns3:cad>
          </ns3:TrackPointExtension>
        </extensions>
      </trkpt>
      <trkpt lat="37.957411296665668487548828125" lon="-107.11363814771175384521484375">
        <ele>4009.800048828125</ele>
        <time>2026-01-06T19:18:57.000Z</time>
        <extensions>
          <ns3:TrackPointExtension>
            <ns3:hr>108</ns3:hr>
            <ns3:cad>50</ns3:cad>
          </ns3:TrackPointExtension>
        </extensions>
      </trkpt>
      <trkpt lat="37.9574084468185901641845703125" lon="-107.1136161871254444122314453125">
        <ele>4009.39990234375</ele>
        <time>2026-01-06T19:19:00.000Z</time>
        <extensions>
          <ns3:TrackPointExtension>
            <ns3:hr>109</ns3:hr>
            <ns3:cad>0</ns3:cad>
          </ns3:TrackPointExtension>
        </extensions>
      </trkpt>
      <trkpt lat="37.9574084468185901641845703125" lon="-107.113614343106746673583984375">
        <ele>4008.800048828125</ele>
        <time>2026-01-06T19:19:03.000Z</time>
        <extensions>
          <ns3:TrackPointExtension>
            <ns3:hr>109</ns3:hr>
            <ns3:cad>0</ns3:cad>
          </ns3:TrackPointExtension>
        </extensions>
      </trkpt>
      <trkpt lat="37.95740299858152866363525390625" lon="-107.1135947294533252716064453125">
        <ele>4008.199951171875</ele>
        <time>2026-01-06T19:19:06.000Z</time>
        <extensions>
          <ns3:TrackPointExtension>
            <ns3:hr>108</ns3:hr>
            <ns3:cad>0</ns3:cad>
          </ns3:TrackPointExtension>
        </extensions>
      </trkpt>
      <trkpt lat="37.957401573657989501953125" lon="-107.1135762892663478851318359375">
        <ele>4007.60009765625</ele>
        <time>2026-01-06T19:19:09.000Z</time>
        <extensions>
          <ns3:TrackPointExtension>
            <ns3:hr>108</ns3:hr>
            <ns3:cad>0</ns3:cad>
          </ns3:TrackPointExtension>
        </extensions>
      </trkpt>
      <trkpt lat="37.95739612542092800140380859375" lon="-107.11354150436818599700927734375">
        <ele>4006.60009765625</ele>
        <time>2026-01-06T19:19:14.000Z</time>
        <extensions>
          <ns3:TrackPointExtension>
            <ns3:hr>108</ns3:hr>
            <ns3:cad>0</ns3:cad>
          </ns3:TrackPointExtension>
        </extensions>
      </trkpt>
      <trkpt lat="37.9573957063257694244384765625" lon="-107.113535217940807342529296875">
        <ele>4006.39990234375</ele>
        <time>2026-01-06T19:19:15.000Z</time>
        <extensions>
          <ns3:TrackPointExtension>
            <ns3:hr>109</ns3:hr>
            <ns3:cad>0</ns3:cad>
          </ns3:TrackPointExtension>
        </extensions>
      </trkpt>
      <trkpt lat="37.95739478431642055511474609375" lon="-107.11351736448705196380615234375">
        <ele>4005.60009765625</ele>
        <time>2026-01-06T19:19:19.000Z</time>
        <extensions>
          <ns3:TrackPointExtension>
            <ns3:hr>109</ns3:hr>
            <ns3:cad>0</ns3:cad>
          </ns3:TrackPointExtension>
        </extensions>
      </trkpt>
      <trkpt lat="37.95738841407001018524169921875" lon="-107.11349339224398136138916015625">
        <ele>4005</ele>
        <time>2026-01-06T19:19:23.000Z</time>
        <extensions>
          <ns3:TrackPointExtension>
            <ns3:hr>109</ns3:hr>
            <ns3:cad>0</ns3:cad>
          </ns3:TrackPointExtension>
        </extensions>
      </trkpt>
      <trkpt lat="37.95739076100289821624755859375" lon="-107.113471515476703643798828125">
        <ele>4004.60009765625</ele>
        <time>2026-01-06T19:19:28.000Z</time>
        <extensions>
          <ns3:TrackPointExtension>
            <ns3:hr>108</ns3:hr>
            <ns3:cad>0</ns3:cad>
          </ns3:TrackPointExtension>
        </extensions>
      </trkpt>
      <trkpt lat="37.95739143155515193939208984375" lon="-107.113463468849658966064453125">
        <ele>4004.199951171875</ele>
        <time>2026-01-06T19:19:29.000Z</time>
        <extensions>
          <ns3:TrackPointExtension>
            <ns3:hr>109</ns3:hr>
            <ns3:cad>59</ns3:cad>
          </ns3:TrackPointExtension>
        </extensions>
      </trkpt>
      <trkpt lat="37.95739327557384967803955078125" lon="-107.11344393901526927947998046875">
        <ele>4003.60009765625</ele>
        <time>2026-01-06T19:19:32.000Z</time>
        <extensions>
          <ns3:TrackPointExtension>
            <ns3:hr>108</ns3:hr>
            <ns3:cad>17</ns3:cad>
          </ns3:TrackPointExtension>
        </extensions>
      </trkpt>
      <trkpt lat="37.95740433968603610992431640625" lon="-107.11342030204832553863525390625">
        <ele>4002.800048828125</ele>
        <time>2026-01-06T19:19:36.000Z</time>
        <extensions>
          <ns3:TrackPointExtension>
            <ns3:hr>106</ns3:hr>
            <ns3:cad>0</ns3:cad>
          </ns3:TrackPointExtension>
        </extensions>
      </trkpt>
      <trkpt lat="37.95742110349237918853759765625" lon="-107.11338710971176624298095703125">
        <ele>4003</ele>
        <time>2026-01-06T19:19:42.000Z</time>
        <extensions>
          <ns3:TrackPointExtension>
            <ns3:hr>105</ns3:hr>
            <ns3:cad>0</ns3:cad>
          </ns3:TrackPointExtension>
        </extensions>
      </trkpt>
      <trkpt lat="37.957421354949474334716796875" lon="-107.11337788961827754974365234375">
        <ele>4003</ele>
        <time>2026-01-06T19:19:43.000Z</time>
        <extensions>
          <ns3:TrackPointExtension>
            <ns3:hr>105</ns3:hr>
            <ns3:cad>0</ns3:cad>
          </ns3:TrackPointExtension>
        </extensions>
      </trkpt>
      <trkpt lat="37.95742110349237918853759765625" lon="-107.1133526600897312164306640625">
        <ele>4002.60009765625</ele>
        <time>2026-01-06T19:19:48.000Z</time>
        <extensions>
          <ns3:TrackPointExtension>
            <ns3:hr>105</ns3:hr>
            <ns3:cad>44</ns3:cad>
          </ns3:TrackPointExtension>
        </extensions>
      </trkpt>
      <trkpt lat="37.9574185051023960113525390625" lon="-107.1133456192910671234130859375">
        <ele>4002.39990234375</ele>
        <time>2026-01-06T19:19:49.000Z</time>
        <extensions>
          <ns3:TrackPointExtension>
            <ns3:hr>105</ns3:hr>
            <ns3:cad>44</ns3:cad>
          </ns3:TrackPointExtension>
        </extensions>
      </trkpt>
      <trkpt lat="37.95741473324596881866455078125" lon="-107.11329893209040164947509765625">
        <ele>4001.39990234375</ele>
        <time>2026-01-06T19:19:55.000Z</time>
        <extensions>
          <ns3:TrackPointExtension>
            <ns3:hr>105</ns3:hr>
            <ns3:cad>48</ns3:cad>
          </ns3:TrackPointExtension>
        </extensions>
      </trkpt>
      <trkpt lat="37.9574131406843662261962890625" lon="-107.11329038254916667938232421875">
        <ele>4001.199951171875</ele>
        <time>2026-01-06T19:19:56.000Z</time>
        <extensions>
          <ns3:TrackPointExtension>
            <ns3:hr>105</ns3:hr>
            <ns3:cad>48</ns3:cad>
          </ns3:TrackPointExtension>
        </extensions>
      </trkpt>
      <trkpt lat="37.9574054293334484100341796875" lon="-107.11325383745133876800537109375">
        <ele>4000.199951171875</ele>
        <time>2026-01-06T19:20:00.000Z</time>
        <extensions>
          <ns3:TrackPointExtension>
            <ns3:hr>105</ns3:hr>
            <ns3:cad>0</ns3:cad>
          </ns3:TrackPointExtension>
        </extensions>
      </trkpt>
      <trkpt lat="37.95740283094346523284912109375" lon="-107.1132383309304714202880859375">
        <ele>3999.800048828125</ele>
        <time>2026-01-06T19:20:03.000Z</time>
        <extensions>
          <ns3:TrackPointExtension>
            <ns3:hr>105</ns3:hr>
            <ns3:cad>0</ns3:cad>
          </ns3:TrackPointExtension>
        </extensions>
      </trkpt>
      <trkpt lat="37.9573990590870380401611328125" lon="-107.11321980692446231842041015625">
        <ele>3999.199951171875</ele>
        <time>2026-01-06T19:20:07.000Z</time>
        <extensions>
          <ns3:TrackPointExtension>
            <ns3:hr>104</ns3:hr>
            <ns3:cad>0</ns3:cad>
          </ns3:TrackPointExtension>
        </extensions>
      </trkpt>
      <trkpt lat="37.957393862307071685791015625" lon="-107.1131903864443302154541015625">
        <ele>3998.60009765625</ele>
        <time>2026-01-06T19:20:11.000Z</time>
        <extensions>
          <ns3:TrackPointExtension>
            <ns3:hr>104</ns3:hr>
            <ns3:cad>0</ns3:cad>
          </ns3:TrackPointExtension>
        </extensions>
      </trkpt>
      <trkpt lat="37.9573933593928813934326171875" lon="-107.1131756342947483062744140625">
        <ele>3998.199951171875</ele>
        <time>2026-01-06T19:20:14.000Z</time>
        <extensions>
          <ns3:TrackPointExtension>
            <ns3:hr>103</ns3:hr>
            <ns3:cad>0</ns3:cad>
          </ns3:TrackPointExtension>
        </extensions>
      </trkpt>
      <trkpt lat="37.95739562250673770904541015625" lon="-107.11316205561161041259765625">
        <ele>3997.60009765625</ele>
        <time>2026-01-06T19:20:17.000Z</time>
        <extensions>
          <ns3:TrackPointExtension>
            <ns3:hr>103</ns3:hr>
            <ns3:cad>0</ns3:cad>
          </ns3:TrackPointExtension>
        </extensions>
      </trkpt>
      <trkpt lat="37.95738405548036098480224609375" lon="-107.11312718689441680908203125">
        <ele>3997</ele>
        <time>2026-01-06T19:20:22.000Z</time>
        <extensions>
          <ns3:TrackPointExtension>
            <ns3:hr>104</ns3:hr>
            <ns3:cad>0</ns3:cad>
          </ns3:TrackPointExtension>
        </extensions>
      </trkpt>
      <trkpt lat="37.95738480985164642333984375" lon="-107.11312039755284786224365234375">
        <ele>3996.60009765625</ele>
        <time>2026-01-06T19:20:23.000Z</time>
        <extensions>
          <ns3:TrackPointExtension>
            <ns3:hr>104</ns3:hr>
            <ns3:cad>0</ns3:cad>
          </ns3:TrackPointExtension>
        </extensions>
      </trkpt>
      <trkpt lat="37.9573920182883739471435546875" lon="-107.11307966150343418121337890625">
        <ele>3995.800048828125</ele>
        <time>2026-01-06T19:20:28.000Z</time>
        <extensions>
          <ns3:TrackPointExtension>
            <ns3:hr>104</ns3:hr>
            <ns3:cad>0</ns3:cad>
          </ns3:TrackPointExtension>
        </extensions>
      </trkpt>
      <trkpt lat="37.95739377848803997039794921875" lon="-107.113058455288410186767578125">
        <ele>3995.39990234375</ele>
        <time>2026-01-06T19:20:30.000Z</time>
        <extensions>
          <ns3:TrackPointExtension>
            <ns3:hr>104</ns3:hr>
            <ns3:cad>0</ns3:cad>
          </ns3:TrackPointExtension>
        </extensions>
      </trkpt>
      <trkpt lat="37.95739126391708850860595703125" lon="-107.113025598227977752685546875">
        <ele>3995</ele>
        <time>2026-01-06T19:20:36.000Z</time>
        <extensions>
          <ns3:TrackPointExtension>
            <ns3:hr>104</ns3:hr>
            <ns3:cad>0</ns3:cad>
          </ns3:TrackPointExtension>
        </extensions>
      </trkpt>
      <trkpt lat="37.95739411376416683197021484375" lon="-107.113016881048679351806640625">
        <ele>3995.39990234375</ele>
        <time>2026-01-06T19:20:39.000Z</time>
        <extensions>
          <ns3:TrackPointExtension>
            <ns3:hr>105</ns3:hr>
            <ns3:cad>0</ns3:cad>
          </ns3:TrackPointExtension>
        </extensions>
      </trkpt>
      <trkpt lat="37.957412302494049072265625" lon="-107.11297488771378993988037109375">
        <ele>3994.800048828125</ele>
        <time>2026-01-06T19:20:44.000Z</time>
        <extensions>
          <ns3:TrackPointExtension>
            <ns3:hr>105</ns3:hr>
            <ns3:cad>0</ns3:cad>
          </ns3:TrackPointExtension>
        </extensions>
      </trkpt>
      <trkpt lat="37.9574171639978885650634765625" lon="-107.11295552551746368408203125">
        <ele>3994.39990234375</ele>
        <time>2026-01-06T19:20:46.000Z</time>
        <extensions>
          <ns3:TrackPointExtension>
            <ns3:hr>105</ns3:hr>
            <ns3:cad>0</ns3:cad>
          </ns3:TrackPointExtension>
        </extensions>
      </trkpt>
      <trkpt lat="37.9574349336326122283935546875" lon="-107.112902216613292694091796875">
        <ele>3994</ele>
        <time>2026-01-06T19:20:52.000Z</time>
        <extensions>
          <ns3:TrackPointExtension>
            <ns3:hr>104</ns3:hr>
            <ns3:cad>44</ns3:cad>
          </ns3:TrackPointExtension>
        </extensions>
      </trkpt>
      <trkpt lat="37.95743820257484912872314453125" lon="-107.11288369260728359222412109375">
        <ele>3993.800048828125</ele>
        <time>2026-01-06T19:20:54.000Z</time>
        <extensions>
          <ns3:TrackPointExtension>
            <ns3:hr>104</ns3:hr>
            <ns3:cad>0</ns3:cad>
          </ns3:TrackPointExtension>
        </extensions>
      </trkpt>
      <trkpt lat="37.9574376158416271209716796875" lon="-107.1128718741238117218017578125">
        <ele>3993.800048828125</ele>
        <time>2026-01-06T19:20:55.000Z</time>
        <extensions>
          <ns3:TrackPointExtension>
            <ns3:hr>104</ns3:hr>
            <ns3:cad>0</ns3:cad>
          </ns3:TrackPointExtension>
        </extensions>
      </trkpt>
      <trkpt lat="37.95744792558252811431884765625" lon="-107.11280255578458309173583984375">
        <ele>3993</ele>
        <time>2026-01-06T19:21:01.000Z</time>
        <extensions>
          <ns3:TrackPointExtension>
            <ns3:hr>104</ns3:hr>
            <ns3:cad>0</ns3:cad>
          </ns3:TrackPointExtension>
        </extensions>
      </trkpt>
      <trkpt lat="37.957463599741458892822265625" lon="-107.11274497210979461669921875">
        <ele>3992.60009765625</ele>
        <time>2026-01-06T19:21:06.000Z</time>
        <extensions>
          <ns3:TrackPointExtension>
            <ns3:hr>106</ns3:hr>
            <ns3:cad>0</ns3:cad>
          </ns3:TrackPointExtension>
        </extensions>
      </trkpt>
      <trkpt lat="37.957469634711742401123046875" lon="-107.1127206645905971527099609375">
        <ele>3992.199951171875</ele>
        <time>2026-01-06T19:21:08.000Z</time>
        <extensions>
          <ns3:TrackPointExtension>
            <ns3:hr>107</ns3:hr>
            <ns3:cad>0</ns3:cad>
          </ns3:TrackPointExtension>
        </extensions>
      </trkpt>
      <trkpt lat="37.95747734606266021728515625" lon="-107.11265780031681060791015625">
        <ele>3991.60009765625</ele>
        <time>2026-01-06T19:21:14.000Z</time>
        <extensions>
          <ns3:TrackPointExtension>
            <ns3:hr>109</ns3:hr>
            <ns3:cad>0</ns3:cad>
          </ns3:TrackPointExtension>
        </extensions>
      </trkpt>
      <trkpt lat="37.95748011209070682525634765625" lon="-107.1126512624323368072509765625">
        <ele>3991.39990234375</ele>
        <time>2026-01-06T19:21:15.000Z</time>
        <extensions>
          <ns3:TrackPointExtension>
            <ns3:hr>109</ns3:hr>
            <ns3:cad>0</ns3:cad>
          </ns3:TrackPointExtension>
        </extensions>
      </trkpt>
      <trkpt lat="37.957488410174846649169921875" lon="-107.1125892363488674163818359375">
        <ele>3991</ele>
        <time>2026-01-06T19:21:21.000Z</time>
        <extensions>
          <ns3:TrackPointExtension>
            <ns3:hr>109</ns3:hr>
            <ns3:cad>0</ns3:cad>
          </ns3:TrackPointExtension>
        </extensions>
      </trkpt>
      <trkpt lat="37.95749201439321041107177734375" lon="-107.1125811897218227386474609375">
        <ele>3990.800048828125</ele>
        <time>2026-01-06T19:21:26.000Z</time>
        <extensions>
          <ns3:TrackPointExtension>
            <ns3:hr>109</ns3:hr>
            <ns3:cad>0</ns3:cad>
          </ns3:TrackPointExtension>
        </extensions>
      </trkpt>
      <trkpt lat="37.95749234966933727264404296875" lon="-107.112561576068401336669921875">
        <ele>3990.800048828125</ele>
        <time>2026-01-06T19:21:28.000Z</time>
        <extensions>
          <ns3:TrackPointExtension>
            <ns3:hr>109</ns3:hr>
            <ns3:cad>0</ns3:cad>
          </ns3:TrackPointExtension>
        </extensions>
      </trkpt>
      <trkpt lat="37.9574882425367832183837890625" lon="-107.1125533618032932281494140625">
        <ele>3990.39990234375</ele>
        <time>2026-01-06T19:21:30.000Z</time>
        <extensions>
          <ns3:TrackPointExtension>
            <ns3:hr>110</ns3:hr>
            <ns3:cad>47</ns3:cad>
          </ns3:TrackPointExtension>
        </extensions>
      </trkpt>
      <trkpt lat="37.957485057413578033447265625" lon="-107.11253835819661617279052734375">
        <ele>3989.800048828125</ele>
        <time>2026-01-06T19:21:34.000Z</time>
        <extensions>
          <ns3:TrackPointExtension>
            <ns3:hr>111</ns3:hr>
            <ns3:cad>0</ns3:cad>
          </ns3:TrackPointExtension>
        </extensions>
      </trkpt>
      <trkpt lat="37.95748497359454631805419921875" lon="-107.11253643035888671875">
        <ele>3989.60009765625</ele>
        <time>2026-01-06T19:21:40.000Z</time>
        <extensions>
          <ns3:TrackPointExtension>
            <ns3:hr>112</ns3:hr>
            <ns3:cad>0</ns3:cad>
          </ns3:TrackPointExtension>
        </extensions>
      </trkpt>
      <trkpt lat="37.95748497359454631805419921875" lon="-107.11253643035888671875">
        <ele>3989.60009765625</ele>
        <time>2026-01-06T19:21:45.000Z</time>
        <extensions>
          <ns3:TrackPointExtension>
            <ns3:hr>116</ns3:hr>
            <ns3:cad>0</ns3:cad>
          </ns3:TrackPointExtension>
        </extensions>
      </trkpt>
      <trkpt lat="37.95748497359454631805419921875" lon="-107.11253643035888671875">
        <ele>3989.800048828125</ele>
        <time>2026-01-06T19:21:48.000Z</time>
        <extensions>
          <ns3:TrackPointExtension>
            <ns3:hr>117</ns3:hr>
            <ns3:cad>0</ns3:cad>
          </ns3:TrackPointExtension>
        </extensions>
      </trkpt>
      <trkpt lat="37.95748497359454631805419921875" lon="-107.11253643035888671875">
        <ele>3990.199951171875</ele>
        <time>2026-01-06T19:21:54.000Z</time>
        <extensions>
          <ns3:TrackPointExtension>
            <ns3:hr>118</ns3:hr>
            <ns3:cad>0</ns3:cad>
          </ns3:TrackPointExtension>
        </extensions>
      </trkpt>
      <trkpt lat="37.95748497359454631805419921875" lon="-107.11253643035888671875">
        <ele>3990</ele>
        <time>2026-01-06T19:22:00.000Z</time>
        <extensions>
          <ns3:TrackPointExtension>
            <ns3:hr>116</ns3:hr>
            <ns3:cad>0</ns3:cad>
          </ns3:TrackPointExtension>
        </extensions>
      </trkpt>
      <trkpt lat="37.95748497359454631805419921875" lon="-107.11253643035888671875">
        <ele>3990.199951171875</ele>
        <time>2026-01-06T19:22:04.000Z</time>
        <extensions>
          <ns3:TrackPointExtension>
            <ns3:hr>113</ns3:hr>
            <ns3:cad>0</ns3:cad>
          </ns3:TrackPointExtension>
        </extensions>
      </trkpt>
      <trkpt lat="37.95748497359454631805419921875" lon="-107.11253643035888671875">
        <ele>3990.60009765625</ele>
        <time>2026-01-06T19:22:06.000Z</time>
        <extensions>
          <ns3:TrackPointExtension>
            <ns3:hr>110</ns3:hr>
            <ns3:cad>0</ns3:cad>
          </ns3:TrackPointExtension>
        </extensions>
      </trkpt>
      <trkpt lat="37.95748497359454631805419921875" lon="-107.11253643035888671875">
        <ele>3990.60009765625</ele>
        <time>2026-01-06T19:22:08.000Z</time>
        <extensions>
          <ns3:TrackPointExtension>
            <ns3:hr>111</ns3:hr>
            <ns3:cad>0</ns3:cad>
          </ns3:TrackPointExtension>
        </extensions>
      </trkpt>
      <trkpt lat="37.95748497359454631805419921875" lon="-107.11253643035888671875">
        <ele>3990.60009765625</ele>
        <time>2026-01-06T19:22:14.000Z</time>
        <extensions>
          <ns3:TrackPointExtension>
            <ns3:hr>109</ns3:hr>
            <ns3:cad>0</ns3:cad>
          </ns3:TrackPointExtension>
        </extensions>
      </trkpt>
      <trkpt lat="37.95748497359454631805419921875" lon="-107.11253643035888671875">
        <ele>3990.60009765625</ele>
        <time>2026-01-06T19:22:17.000Z</time>
        <extensions>
          <ns3:TrackPointExtension>
            <ns3:hr>106</ns3:hr>
            <ns3:cad>0</ns3:cad>
          </ns3:TrackPointExtension>
        </extensions>
      </trkpt>
      <trkpt lat="37.95748497359454631805419921875" lon="-107.11253643035888671875">
        <ele>3991</ele>
        <time>2026-01-06T19:22:23.000Z</time>
        <extensions>
          <ns3:TrackPointExtension>
            <ns3:hr>106</ns3:hr>
            <ns3:cad>0</ns3:cad>
          </ns3:TrackPointExtension>
        </extensions>
      </trkpt>
      <trkpt lat="37.95748497359454631805419921875" lon="-107.11253643035888671875">
        <ele>3991</ele>
        <time>2026-01-06T19:22:26.000Z</time>
        <extensions>
          <ns3:TrackPointExtension>
            <ns3:hr>103</ns3:hr>
            <ns3:cad>0</ns3:cad>
          </ns3:TrackPointExtension>
        </extensions>
      </trkpt>
      <trkpt lat="37.95748002827167510986328125" lon="-107.11251790635287761688232421875">
        <ele>3991</ele>
        <time>2026-01-06T19:22:29.000Z</time>
        <extensions>
          <ns3:TrackPointExtension>
            <ns3:hr>105</ns3:hr>
            <ns3:cad>0</ns3:cad>
          </ns3:TrackPointExtension>
        </extensions>
      </trkpt>
      <trkpt lat="37.95749637298285961151123046875" lon="-107.11246074177324771881103515625">
        <ele>3990.39990234375</ele>
        <time>2026-01-06T19:22:35.000Z</time>
        <extensions>
          <ns3:TrackPointExtension>
            <ns3:hr>105</ns3:hr>
            <ns3:cad>0</ns3:cad>
          </ns3:TrackPointExtension>
        </extensions>
      </trkpt>
      <trkpt lat="37.957501150667667388916015625" lon="-107.11243878118693828582763671875">
        <ele>3990.39990234375</ele>
        <time>2026-01-06T19:22:37.000Z</time>
        <extensions>
          <ns3:TrackPointExtension>
            <ns3:hr>105</ns3:hr>
            <ns3:cad>0</ns3:cad>
          </ns3:TrackPointExtension>
        </extensions>
      </trkpt>
      <trkpt lat="37.9575103707611560821533203125" lon="-107.1123736537992954254150390625">
        <ele>3989.39990234375</ele>
        <time>2026-01-06T19:22:43.000Z</time>
        <extensions>
          <ns3:TrackPointExtension>
            <ns3:hr>106</ns3:hr>
            <ns3:cad>0</ns3:cad>
          </ns3:TrackPointExtension>
        </extensions>
      </trkpt>
      <trkpt lat="37.95751330442726612091064453125" lon="-107.11235546506941318511962890625">
        <ele>3989.60009765625</ele>
        <time>2026-01-06T19:22:45.000Z</time>
        <extensions>
          <ns3:TrackPointExtension>
            <ns3:hr>106</ns3:hr>
            <ns3:cad>0</ns3:cad>
          </ns3:TrackPointExtension>
        </extensions>
      </trkpt>
      <trkpt lat="37.95751213096082210540771484375" lon="-107.11233082227408885955810546875">
        <ele>3989.199951171875</ele>
        <time>2026-01-06T19:22:48.000Z</time>
        <extensions>
          <ns3:TrackPointExtension>
            <ns3:hr>106</ns3:hr>
            <ns3:cad>46</ns3:cad>
          </ns3:TrackPointExtension>
        </extensions>
      </trkpt>
      <trkpt lat="37.95752101577818393707275390625" lon="-107.1122834645211696624755859375">
        <ele>3988.800048828125</ele>
        <time>2026-01-06T19:22:53.000Z</time>
        <extensions>
          <ns3:TrackPointExtension>
            <ns3:hr>104</ns3:hr>
            <ns3:cad>0</ns3:cad>
          </ns3:TrackPointExtension>
        </extensions>
      </trkpt>
      <trkpt lat="37.95753409154713153839111328125" lon="-107.1122284792363643646240234375">
        <ele>3988.199951171875</ele>
        <time>2026-01-06T19:22:59.000Z</time>
        <extensions>
          <ns3:TrackPointExtension>
            <ns3:hr>102</ns3:hr>
            <ns3:cad>43</ns3:cad>
          </ns3:TrackPointExtension>
        </extensions>
      </trkpt>
      <trkpt lat="37.95753023587167263031005859375" lon="-107.1122231148183345794677734375">
        <ele>3988</ele>
        <time>2026-01-06T19:23:00.000Z</time>
        <extensions>
          <ns3:TrackPointExtension>
            <ns3:hr>103</ns3:hr>
            <ns3:cad>43</ns3:cad>
          </ns3:TrackPointExtension>
        </extensions>
      </trkpt>
      <trkpt lat="37.957543395459651947021484375" lon="-107.112175337970256805419921875">
        <ele>3987.39990234375</ele>
        <time>2026-01-06T19:23:06.000Z</time>
        <extensions>
          <ns3:TrackPointExtension>
            <ns3:hr>103</ns3:hr>
            <ns3:cad>0</ns3:cad>
          </ns3:TrackPointExtension>
        </extensions>
      </trkpt>
      <trkpt lat="37.95753861777484416961669921875" lon="-107.11213937960565090179443359375">
        <ele>3987</ele>
        <time>2026-01-06T19:23:09.000Z</time>
        <extensions>
          <ns3:TrackPointExtension>
            <ns3:hr>102</ns3:hr>
            <ns3:cad>0</ns3:cad>
          </ns3:TrackPointExtension>
        </extensions>
      </trkpt>
      <trkpt lat="37.9575385339558124542236328125" lon="-107.112106271088123321533203125">
        <ele>3986.39990234375</ele>
        <time>2026-01-06T19:23:12.000Z</time>
        <extensions>
          <ns3:TrackPointExtension>
            <ns3:hr>102</ns3:hr>
            <ns3:cad>0</ns3:cad>
          </ns3:TrackPointExtension>
        </extensions>
      </trkpt>
      <trkpt lat="37.95753794722259044647216796875" lon="-107.11208322085440158843994140625">
        <ele>3986</ele>
        <time>2026-01-06T19:23:14.000Z</time>
        <extensions>
          <ns3:TrackPointExtension>
            <ns3:hr>102</ns3:hr>
            <ns3:cad>0</ns3:cad>
          </ns3:TrackPointExtension>
        </extensions>
      </trkpt>
      <trkpt lat="37.9575512744486331939697265625" lon="-107.11199688725173473358154296875">
        <ele>3985.199951171875</ele>
        <time>2026-01-06T19:23:20.000Z</time>
        <extensions>
          <ns3:TrackPointExtension>
            <ns3:hr>102</ns3:hr>
            <ns3:cad>57</ns3:cad>
          </ns3:TrackPointExtension>
        </extensions>
      </trkpt>
      <trkpt lat="37.95755781233310699462890625" lon="-107.1119139902293682098388671875">
        <ele>3984.800048828125</ele>
        <time>2026-01-06T19:23:26.000Z</time>
        <extensions>
          <ns3:TrackPointExtension>
            <ns3:hr>102</ns3:hr>
            <ns3:cad>55</ns3:cad>
          </ns3:TrackPointExtension>
        </extensions>
      </trkpt>
      <trkpt lat="37.9575723968446254730224609375" lon="-107.11183612234890460968017578125">
        <ele>3984.39990234375</ele>
        <time>2026-01-06T19:23:32.000Z</time>
        <extensions>
          <ns3:TrackPointExtension>
            <ns3:hr>102</ns3:hr>
            <ns3:cad>53</ns3:cad>
          </ns3:TrackPointExtension>
        </extensions>
      </trkpt>
      <trkpt lat="37.957574240863323211669921875" lon="-107.11178281344473361968994140625">
        <ele>3983.800048828125</ele>
        <time>2026-01-06T19:23:36.000Z</time>
        <extensions>
          <ns3:TrackPointExtension>
            <ns3:hr>102</ns3:hr>
            <ns3:cad>53</ns3:cad>
          </ns3:TrackPointExtension>
        </extensions>
      </trkpt>
      <trkpt lat="37.95756988227367401123046875" lon="-107.11175532080233097076416015625">
        <ele>3983.39990234375</ele>
        <time>2026-01-06T19:23:38.000Z</time>
        <extensions>
          <ns3:TrackPointExtension>
            <ns3:hr>101</ns3:hr>
            <ns3:cad>53</ns3:cad>
          </ns3:TrackPointExtension>
        </extensions>
      </trkpt>
      <trkpt lat="37.9575633443892002105712890625" lon="-107.11168147623538970947265625">
        <ele>3982.800048828125</ele>
        <time>2026-01-06T19:23:44.000Z</time>
        <extensions>
          <ns3:TrackPointExtension>
            <ns3:hr>102</ns3:hr>
            <ns3:cad>0</ns3:cad>
          </ns3:TrackPointExtension>
        </extensions>
      </trkpt>
      <trkpt lat="37.95756795443594455718994140625" lon="-107.111671082675457000732421875">
        <ele>3982.60009765625</ele>
        <time>2026-01-06T19:23:45.000Z</time>
        <extensions>
          <ns3:TrackPointExtension>
            <ns3:hr>103</ns3:hr>
            <ns3:cad>0</ns3:cad>
          </ns3:TrackPointExtension>
        </extensions>
      </trkpt>
      <trkpt lat="37.9575598239898681640625" lon="-107.11160545237362384796142578125">
        <ele>3982</ele>
        <time>2026-01-06T19:23:51.000Z</time>
        <extensions>
          <ns3:TrackPointExtension>
            <ns3:hr>104</ns3:hr>
            <ns3:cad>0</ns3:cad>
          </ns3:TrackPointExtension>
        </extensions>
      </trkpt>
      <trkpt lat="37.95755781233310699462890625" lon="-107.111596651375293731689453125">
        <ele>3981.800048828125</ele>
        <time>2026-01-06T19:23:52.000Z</time>
        <extensions>
          <ns3:TrackPointExtension>
            <ns3:hr>104</ns3:hr>
            <ns3:cad>0</ns3:cad>
          </ns3:TrackPointExtension>
        </extensions>
      </trkpt>
      <trkpt lat="37.95755378901958465576171875" lon="-107.11158533580601215362548828125">
        <ele>3981.39990234375</ele>
        <time>2026-01-06T19:23:53.000Z</time>
        <extensions>
          <ns3:TrackPointExtension>
            <ns3:hr>103</ns3:hr>
            <ns3:cad>0</ns3:cad>
          </ns3:TrackPointExtension>
        </extensions>
      </trkpt>
      <trkpt lat="37.95756091363728046417236328125" lon="-107.111510820686817169189453125">
        <ele>3981.199951171875</ele>
        <time>2026-01-06T19:23:59.000Z</time>
        <extensions>
          <ns3:TrackPointExtension>
            <ns3:hr>103</ns3:hr>
            <ns3:cad>0</ns3:cad>
          </ns3:TrackPointExtension>
        </extensions>
      </trkpt>
      <trkpt lat="37.95755621977150440216064453125" lon="-107.1114300191402435302734375">
        <ele>3980.800048828125</ele>
        <time>2026-01-06T19:24:05.000Z</time>
        <extensions>
          <ns3:TrackPointExtension>
            <ns3:hr>103</ns3:hr>
            <ns3:cad>49</ns3:cad>
          </ns3:TrackPointExtension>
        </extensions>
      </trkpt>
      <trkpt lat="37.95755906961858272552490234375" lon="-107.11140093393623828887939453125">
        <ele>3980.60009765625</ele>
        <time>2026-01-06T19:24:07.000Z</time>
        <extensions>
          <ns3:TrackPointExtension>
            <ns3:hr>103</ns3:hr>
            <ns3:cad>49</ns3:cad>
          </ns3:TrackPointExtension>
        </extensions>
      </trkpt>
      <trkpt lat="37.9575546272099018096923828125" lon="-107.1113798953592777252197265625">
        <ele>3980.39990234375</ele>
        <time>2026-01-06T19:24:09.000Z</time>
        <extensions>
          <ns3:TrackPointExtension>
            <ns3:hr>103</ns3:hr>
            <ns3:cad>49</ns3:cad>
          </ns3:TrackPointExtension>
        </extensions>
      </trkpt>
      <trkpt lat="37.9575385339558124542236328125" lon="-107.11130940355360507965087890625">
        <ele>3980</ele>
        <time>2026-01-06T19:24:14.000Z</time>
        <extensions>
          <ns3:TrackPointExtension>
            <ns3:hr>103</ns3:hr>
            <ns3:cad>0</ns3:cad>
          </ns3:TrackPointExtension>
        </extensions>
      </trkpt>
      <trkpt lat="37.95752772130072116851806640625" lon="-107.11125693283975124359130859375">
        <ele>3979</ele>
        <time>2026-01-06T19:24:18.000Z</time>
        <extensions>
          <ns3:TrackPointExtension>
            <ns3:hr>102</ns3:hr>
            <ns3:cad>51</ns3:cad>
          </ns3:TrackPointExtension>
        </extensions>
      </trkpt>
      <trkpt lat="37.957519255578517913818359375" lon="-107.11121100001037120819091796875">
        <ele>3978.60009765625</ele>
        <time>2026-01-06T19:24:21.000Z</time>
        <extensions>
          <ns3:TrackPointExtension>
            <ns3:hr>102</ns3:hr>
            <ns3:cad>0</ns3:cad>
          </ns3:TrackPointExtension>
        </extensions>
      </trkpt>
      <trkpt lat="37.95751380734145641326904296875" lon="-107.11114411242306232452392578125">
        <ele>3978</ele>
        <time>2026-01-06T19:24:26.000Z</time>
        <extensions>
          <ns3:TrackPointExtension>
            <ns3:hr>102</ns3:hr>
            <ns3:cad>0</ns3:cad>
          </ns3:TrackPointExtension>
        </extensions>
      </trkpt>
      <trkpt lat="37.9575123824179172515869140625" lon="-107.1111344732344150543212890625">
        <ele>3978</ele>
        <time>2026-01-06T19:24:27.000Z</time>
        <extensions>
          <ns3:TrackPointExtension>
            <ns3:hr>101</ns3:hr>
            <ns3:cad>0</ns3:cad>
          </ns3:TrackPointExtension>
        </extensions>
      </trkpt>
      <trkpt lat="37.95751229859888553619384765625" lon="-107.1110764704644680023193359375">
        <ele>3977.39990234375</ele>
        <time>2026-01-06T19:24:32.000Z</time>
        <extensions>
          <ns3:TrackPointExtension>
            <ns3:hr>101</ns3:hr>
            <ns3:cad>0</ns3:cad>
          </ns3:TrackPointExtension>
        </extensions>
      </trkpt>
      <trkpt lat="37.95750224031507968902587890625" lon="-107.11100690066814422607421875">
        <ele>3977</ele>
        <time>2026-01-06T19:24:38.000Z</time>
        <extensions>
          <ns3:TrackPointExtension>
            <ns3:hr>100</ns3:hr>
            <ns3:cad>48</ns3:cad>
          </ns3:TrackPointExtension>
        </extensions>
      </trkpt>
      <trkpt lat="37.9574966244399547576904296875" lon="-107.1109949983656406402587890625">
        <ele>3976.800048828125</ele>
        <time>2026-01-06T19:24:39.000Z</time>
        <extensions>
          <ns3:TrackPointExtension>
            <ns3:hr>100</ns3:hr>
            <ns3:cad>48</ns3:cad>
          </ns3:TrackPointExtension>
        </extensions>
      </trkpt>
      <trkpt lat="37.95749100856482982635498046875" lon="-107.11098586209118366241455078125">
        <ele>3976.60009765625</ele>
        <time>2026-01-06T19:24:40.000Z</time>
        <extensions>
          <ns3:TrackPointExtension>
            <ns3:hr>100</ns3:hr>
            <ns3:cad>48</ns3:cad>
          </ns3:TrackPointExtension>
        </extensions>
      </trkpt>
      <trkpt lat="37.95746301300823688507080078125" lon="-107.11093716323375701904296875">
        <ele>3976</ele>
        <time>2026-01-06T19:24:46.000Z</time>
        <extensions>
          <ns3:TrackPointExtension>
            <ns3:hr>99</ns3:hr>
            <ns3:cad>48</ns3:cad>
          </ns3:TrackPointExtension>
        </extensions>
      </trkpt>
      <trkpt lat="37.957462929189205169677734375" lon="-107.110927104949951171875">
        <ele>3975.800048828125</ele>
        <time>2026-01-06T19:24:47.000Z</time>
        <extensions>
          <ns3:TrackPointExtension>
            <ns3:hr>98</ns3:hr>
            <ns3:cad>48</ns3:cad>
          </ns3:TrackPointExtension>
        </extensions>
      </trkpt>
      <trkpt lat="37.95746468938887119293212890625" lon="-107.1108856983482837677001953125">
        <ele>3974.60009765625</ele>
        <time>2026-01-06T19:24:51.000Z</time>
        <extensions>
          <ns3:TrackPointExtension>
            <ns3:hr>98</ns3:hr>
            <ns3:cad>0</ns3:cad>
          </ns3:TrackPointExtension>
        </extensions>
      </trkpt>
      <trkpt lat="37.95745228417217731475830078125" lon="-107.1108669228851795196533203125">
        <ele>3974.60009765625</ele>
        <time>2026-01-06T19:24:53.000Z</time>
        <extensions>
          <ns3:TrackPointExtension>
            <ns3:hr>97</ns3:hr>
            <ns3:cad>52</ns3:cad>
          </ns3:TrackPointExtension>
        </extensions>
      </trkpt>
      <trkpt lat="37.9574243724346160888671875" lon="-107.110806740820407867431640625">
        <ele>3973.60009765625</ele>
        <time>2026-01-06T19:24:59.000Z</time>
        <extensions>
          <ns3:TrackPointExtension>
            <ns3:hr>97</ns3:hr>
            <ns3:cad>52</ns3:cad>
          </ns3:TrackPointExtension>
        </extensions>
      </trkpt>
      <trkpt lat="37.95741875655949115753173828125" lon="-107.11079693399369716644287109375">
        <ele>3973.39990234375</ele>
        <time>2026-01-06T19:25:00.000Z</time>
        <extensions>
          <ns3:TrackPointExtension>
            <ns3:hr>97</ns3:hr>
            <ns3:cad>52</ns3:cad>
          </ns3:TrackPointExtension>
        </extensions>
      </trkpt>
      <trkpt lat="37.95739511959254741668701171875" lon="-107.1107549406588077545166015625">
        <ele>3972.60009765625</ele>
        <time>2026-01-06T19:25:05.000Z</time>
        <extensions>
          <ns3:TrackPointExtension>
            <ns3:hr>97</ns3:hr>
            <ns3:cad>61</ns3:cad>
          </ns3:TrackPointExtension>
        </extensions>
      </trkpt>
      <trkpt lat="37.9573896713554859161376953125" lon="-107.11073323152959346771240234375">
        <ele>3972.39990234375</ele>
        <time>2026-01-06T19:25:07.000Z</time>
        <extensions>
          <ns3:TrackPointExtension>
            <ns3:hr>96</ns3:hr>
            <ns3:cad>0</ns3:cad>
          </ns3:TrackPointExtension>
        </extensions>
      </trkpt>
      <trkpt lat="37.95736025087535381317138671875" lon="-107.11068880744278430938720703125">
        <ele>3972.199951171875</ele>
        <time>2026-01-06T19:25:13.000Z</time>
        <extensions>
          <ns3:TrackPointExtension>
            <ns3:hr>96</ns3:hr>
            <ns3:cad>47</ns3:cad>
          </ns3:TrackPointExtension>
        </extensions>
      </trkpt>
      <trkpt lat="37.9573514498770236968994140625" lon="-107.11067221127450466156005859375">
        <ele>3971.39990234375</ele>
        <time>2026-01-06T19:25:15.000Z</time>
        <extensions>
          <ns3:TrackPointExtension>
            <ns3:hr>96</ns3:hr>
            <ns3:cad>0</ns3:cad>
          </ns3:TrackPointExtension>
        </extensions>
      </trkpt>
      <trkpt lat="37.95733518898487091064453125" lon="-107.11065310053527355194091796875">
        <ele>3970</ele>
        <time>2026-01-06T19:25:18.000Z</time>
        <extensions>
          <ns3:TrackPointExtension>
            <ns3:hr>97</ns3:hr>
            <ns3:cad>45</ns3:cad>
          </ns3:TrackPointExtension>
        </extensions>
      </trkpt>
      <trkpt lat="37.957325465977191925048828125" lon="-107.11063482798635959625244140625">
        <ele>3969.60009765625</ele>
        <time>2026-01-06T19:25:20.000Z</time>
        <extensions>
          <ns3:TrackPointExtension>
            <ns3:hr>96</ns3:hr>
            <ns3:cad>45</ns3:cad>
          </ns3:TrackPointExtension>
        </extensions>
      </trkpt>
      <trkpt lat="37.95730358920991420745849609375" lon="-107.110599540174007415771484375">
        <ele>3969</ele>
        <time>2026-01-06T19:25:26.000Z</time>
        <extensions>
          <ns3:TrackPointExtension>
            <ns3:hr>98</ns3:hr>
            <ns3:cad>45</ns3:cad>
          </ns3:TrackPointExtension>
        </extensions>
      </trkpt>
      <trkpt lat="37.95729973353445529937744140625" lon="-107.110595516860485076904296875">
        <ele>3968.800048828125</ele>
        <time>2026-01-06T19:25:27.000Z</time>
        <extensions>
          <ns3:TrackPointExtension>
            <ns3:hr>101</ns3:hr>
            <ns3:cad>45</ns3:cad>
          </ns3:TrackPointExtension>
        </extensions>
      </trkpt>
      <trkpt lat="37.95729495584964752197265625" lon="-107.11058855988085269927978515625">
        <ele>3968.60009765625</ele>
        <time>2026-01-06T19:25:28.000Z</time>
        <extensions>
          <ns3:TrackPointExtension>
            <ns3:hr>104</ns3:hr>
            <ns3:cad>45</ns3:cad>
          </ns3:TrackPointExtension>
        </extensions>
      </trkpt>
      <trkpt lat="37.957289926707744598388671875" lon="-107.110576070845127105712890625">
        <ele>3968.39990234375</ele>
        <time>2026-01-06T19:25:29.000Z</time>
        <extensions>
          <ns3:TrackPointExtension>
            <ns3:hr>104</ns3:hr>
            <ns3:cad>0</ns3:cad>
          </ns3:TrackPointExtension>
        </extensions>
      </trkpt>
      <trkpt lat="37.95727559365332126617431640625" lon="-107.110548578202724456787109375">
        <ele>3967.800048828125</ele>
        <time>2026-01-06T19:25:32.000Z</time>
        <extensions>
          <ns3:TrackPointExtension>
            <ns3:hr>104</ns3:hr>
            <ns3:cad>0</ns3:cad>
          </ns3:TrackPointExtension>
        </extensions>
      </trkpt>
      <trkpt lat="37.95726972632110118865966796875" lon="-107.1105272881686687469482421875">
        <ele>3967.199951171875</ele>
        <time>2026-01-06T19:25:34.000Z</time>
        <extensions>
          <ns3:TrackPointExtension>
            <ns3:hr>104</ns3:hr>
            <ns3:cad>0</ns3:cad>
          </ns3:TrackPointExtension>
        </extensions>
      </trkpt>
      <trkpt lat="37.9572652839124202728271484375" lon="-107.110491581261157989501953125">
        <ele>3966.60009765625</ele>
        <time>2026-01-06T19:25:37.000Z</time>
        <extensions>
          <ns3:TrackPointExtension>
            <ns3:hr>104</ns3:hr>
            <ns3:cad>0</ns3:cad>
          </ns3:TrackPointExtension>
        </extensions>
      </trkpt>
      <trkpt lat="37.9572478495538234710693359375" lon="-107.1104595623910427093505859375">
        <ele>3966</ele>
        <time>2026-01-06T19:25:41.000Z</time>
        <extensions>
          <ns3:TrackPointExtension>
            <ns3:hr>105</ns3:hr>
            <ns3:cad>45</ns3:cad>
          </ns3:TrackPointExtension>
        </extensions>
      </trkpt>
      <trkpt lat="37.957223542034626007080078125" lon="-107.11042393930256366729736328125">
        <ele>3965.60009765625</ele>
        <time>2026-01-06T19:25:47.000Z</time>
        <extensions>
          <ns3:TrackPointExtension>
            <ns3:hr>106</ns3:hr>
            <ns3:cad>0</ns3:cad>
          </ns3:TrackPointExtension>
        </extensions>
      </trkpt>
      <trkpt lat="37.95722194947302341461181640625" lon="-107.1104159764945507049560546875">
        <ele>3965.39990234375</ele>
        <time>2026-01-06T19:25:48.000Z</time>
        <extensions>
          <ns3:TrackPointExtension>
            <ns3:hr>107</ns3:hr>
            <ns3:cad>0</ns3:cad>
          </ns3:TrackPointExtension>
        </extensions>
      </trkpt>
      <trkpt lat="37.95721859671175479888916015625" lon="-107.11040474474430084228515625">
        <ele>3965</ele>
        <time>2026-01-06T19:25:49.000Z</time>
        <extensions>
          <ns3:TrackPointExtension>
            <ns3:hr>107</ns3:hr>
            <ns3:cad>44</ns3:cad>
          </ns3:TrackPointExtension>
        </extensions>
      </trkpt>
      <trkpt lat="37.957208119332790374755859375" lon="-107.110398374497890472412109375">
        <ele>3964.39990234375</ele>
        <time>2026-01-06T19:25:51.000Z</time>
        <extensions>
          <ns3:TrackPointExtension>
            <ns3:hr>107</ns3:hr>
            <ns3:cad>46</ns3:cad>
          </ns3:TrackPointExtension>
        </extensions>
      </trkpt>
      <trkpt lat="37.9571724124252796173095703125" lon="-107.11037582717835903167724609375">
        <ele>3964</ele>
        <time>2026-01-06T19:25:56.000Z</time>
        <extensions>
          <ns3:TrackPointExtension>
            <ns3:hr>107</ns3:hr>
            <ns3:cad>45</ns3:cad>
          </ns3:TrackPointExtension>
        </extensions>
      </trkpt>
      <trkpt lat="37.957163192331790924072265625" lon="-107.11035914719104766845703125">
        <ele>3963.800048828125</ele>
        <time>2026-01-06T19:25:58.000Z</time>
        <extensions>
          <ns3:TrackPointExtension>
            <ns3:hr>107</ns3:hr>
            <ns3:cad>45</ns3:cad>
          </ns3:TrackPointExtension>
        </extensions>
      </trkpt>
      <trkpt lat="37.95715640299022197723388671875" lon="-107.1103375218808650970458984375">
        <ele>3963</ele>
        <time>2026-01-06T19:26:00.000Z</time>
        <extensions>
          <ns3:TrackPointExtension>
            <ns3:hr>106</ns3:hr>
            <ns3:cad>0</ns3:cad>
          </ns3:TrackPointExtension>
        </extensions>
      </trkpt>
      <trkpt lat="37.95715590007603168487548828125" lon="-107.11030910722911357879638671875">
        <ele>3962.199951171875</ele>
        <time>2026-01-06T19:26:03.000Z</time>
        <extensions>
          <ns3:TrackPointExtension>
            <ns3:hr>107</ns3:hr>
            <ns3:cad>47</ns3:cad>
          </ns3:TrackPointExtension>
        </extensions>
      </trkpt>
      <trkpt lat="37.95715724118053913116455078125" lon="-107.1103033237159252166748046875">
        <ele>3961.800048828125</ele>
        <time>2026-01-06T19:26:04.000Z</time>
        <extensions>
          <ns3:TrackPointExtension>
            <ns3:hr>106</ns3:hr>
            <ns3:cad>0</ns3:cad>
          </ns3:TrackPointExtension>
        </extensions>
      </trkpt>
      <trkpt lat="37.9571432434022426605224609375" lon="-107.11025361903011798858642578125">
        <ele>3961.199951171875</ele>
        <time>2026-01-06T19:26:09.000Z</time>
        <extensions>
          <ns3:TrackPointExtension>
            <ns3:hr>105</ns3:hr>
            <ns3:cad>48</ns3:cad>
          </ns3:TrackPointExtension>
        </extensions>
      </trkpt>
      <trkpt lat="37.9571239650249481201171875" lon="-107.11021673865616321563720703125">
        <ele>3960.800048828125</ele>
        <time>2026-01-06T19:26:13.000Z</time>
        <extensions>
          <ns3:TrackPointExtension>
            <ns3:hr>103</ns3:hr>
            <ns3:cad>0</ns3:cad>
          </ns3:TrackPointExtension>
        </extensions>
      </trkpt>
      <trkpt lat="37.95710862614214420318603515625" lon="-107.11018723435699939727783203125">
        <ele>3960.199951171875</ele>
        <time>2026-01-06T19:26:17.000Z</time>
        <extensions>
          <ns3:TrackPointExtension>
            <ns3:hr>103</ns3:hr>
            <ns3:cad>0</ns3:cad>
          </ns3:TrackPointExtension>
        </extensions>
      </trkpt>
      <trkpt lat="37.95710477046668529510498046875" lon="-107.11015923880040645599365234375">
        <ele>3959.60009765625</ele>
        <time>2026-01-06T19:26:19.000Z</time>
        <extensions>
          <ns3:TrackPointExtension>
            <ns3:hr>103</ns3:hr>
            <ns3:cad>0</ns3:cad>
          </ns3:TrackPointExtension>
        </extensions>
      </trkpt>
      <trkpt lat="37.95710477046668529510498046875" lon="-107.110126800835132598876953125">
        <ele>3958.800048828125</ele>
        <time>2026-01-06T19:26:23.000Z</time>
        <extensions>
          <ns3:TrackPointExtension>
            <ns3:hr>103</ns3:hr>
            <ns3:cad>0</ns3:cad>
          </ns3:TrackPointExtension>
        </extensions>
      </trkpt>
      <trkpt lat="37.95710384845733642578125" lon="-107.110115401446819305419921875">
        <ele>3958.60009765625</ele>
        <time>2026-01-06T19:26:24.000Z</time>
        <extensions>
          <ns3:TrackPointExtension>
            <ns3:hr>103</ns3:hr>
            <ns3:cad>0</ns3:cad>
          </ns3:TrackPointExtension>
        </extensions>
      </trkpt>
      <trkpt lat="37.95709320344030857086181640625" lon="-107.1100793592631816864013671875">
        <ele>3958</ele>
        <time>2026-01-06T19:26:28.000Z</time>
        <extensions>
          <ns3:TrackPointExtension>
            <ns3:hr>104</ns3:hr>
            <ns3:cad>0</ns3:cad>
          </ns3:TrackPointExtension>
        </extensions>
      </trkpt>
      <trkpt lat="37.957071326673030853271484375" lon="-107.110049016773700714111328125">
        <ele>3957.800048828125</ele>
        <time>2026-01-06T19:26:31.000Z</time>
        <extensions>
          <ns3:TrackPointExtension>
            <ns3:hr>104</ns3:hr>
            <ns3:cad>0</ns3:cad>
          </ns3:TrackPointExtension>
        </extensions>
      </trkpt>
      <trkpt lat="37.9570654593408107757568359375" lon="-107.1100270561873912811279296875">
        <ele>3957.39990234375</ele>
        <time>2026-01-06T19:26:33.000Z</time>
        <extensions>
          <ns3:TrackPointExtension>
            <ns3:hr>103</ns3:hr>
            <ns3:cad>59</ns3:cad>
          </ns3:TrackPointExtension>
        </extensions>
      </trkpt>
      <trkpt lat="37.9570483602583408355712890625" lon="-107.1099871583282947540283203125">
        <ele>3956.199951171875</ele>
        <time>2026-01-06T19:26:37.000Z</time>
        <extensions>
          <ns3:TrackPointExtension>
            <ns3:hr>102</ns3:hr>
            <ns3:cad>47</ns3:cad>
          </ns3:TrackPointExtension>
        </extensions>
      </trkpt>
      <trkpt lat="37.95704743824899196624755859375" lon="-107.1099747531116008758544921875">
        <ele>3956</ele>
        <time>2026-01-06T19:26:38.000Z</time>
        <extensions>
          <ns3:TrackPointExtension>
            <ns3:hr>102</ns3:hr>
            <ns3:cad>0</ns3:cad>
          </ns3:TrackPointExtension>
        </extensions>
      </trkpt>
      <trkpt lat="37.95703285373747348785400390625" lon="-107.109935693442821502685546875">
        <ele>3955</ele>
        <time>2026-01-06T19:26:42.000Z</time>
        <extensions>
          <ns3:TrackPointExtension>
            <ns3:hr>101</ns3:hr>
            <ns3:cad>47</ns3:cad>
          </ns3:TrackPointExtension>
        </extensions>
      </trkpt>
      <trkpt lat="37.9570212028920650482177734375" lon="-107.109897136688232421875">
        <ele>3954.39990234375</ele>
        <time>2026-01-06T19:26:45.000Z</time>
        <extensions>
          <ns3:TrackPointExtension>
            <ns3:hr>101</ns3:hr>
            <ns3:cad>47</ns3:cad>
          </ns3:TrackPointExtension>
        </extensions>
      </trkpt>
      <trkpt lat="37.9570128209888935089111328125" lon="-107.109876684844493865966796875">
        <ele>3954</ele>
        <time>2026-01-06T19:26:47.000Z</time>
        <extensions>
          <ns3:TrackPointExtension>
            <ns3:hr>102</ns3:hr>
            <ns3:cad>0</ns3:cad>
          </ns3:TrackPointExtension>
        </extensions>
      </trkpt>
      <trkpt lat="37.9569863341748714447021484375" lon="-107.1098242141306400299072265625">
        <ele>3953</ele>
        <time>2026-01-06T19:26:52.000Z</time>
        <extensions>
          <ns3:TrackPointExtension>
            <ns3:hr>101</ns3:hr>
            <ns3:cad>0</ns3:cad>
          </ns3:TrackPointExtension>
        </extensions>
      </trkpt>
      <trkpt lat="37.95697753317654132843017578125" lon="-107.1098067797720432281494140625">
        <ele>3952.60009765625</ele>
        <time>2026-01-06T19:26:54.000Z</time>
        <extensions>
          <ns3:TrackPointExtension>
            <ns3:hr>100</ns3:hr>
            <ns3:cad>0</ns3:cad>
          </ns3:TrackPointExtension>
        </extensions>
      </trkpt>
      <trkpt lat="37.95696076937019824981689453125" lon="-107.10976327769458293914794921875">
        <ele>3951.800048828125</ele>
        <time>2026-01-06T19:26:59.000Z</time>
        <extensions>
          <ns3:TrackPointExtension>
            <ns3:hr>101</ns3:hr>
            <ns3:cad>0</ns3:cad>
          </ns3:TrackPointExtension>
        </extensions>
      </trkpt>
      <trkpt lat="37.9569601826369762420654296875" lon="-107.109728492796421051025390625">
        <ele>3951</ele>
        <time>2026-01-06T19:27:02.000Z</time>
        <extensions>
          <ns3:TrackPointExtension>
            <ns3:hr>99</ns3:hr>
            <ns3:cad>0</ns3:cad>
          </ns3:TrackPointExtension>
        </extensions>
      </trkpt>
      <trkpt lat="37.95695364475250244140625" lon="-107.109705023467540740966796875">
        <ele>3950.60009765625</ele>
        <time>2026-01-06T19:27:04.000Z</time>
        <extensions>
          <ns3:TrackPointExtension>
            <ns3:hr>98</ns3:hr>
            <ns3:cad>54</ns3:cad>
          </ns3:TrackPointExtension>
        </extensions>
      </trkpt>
      <trkpt lat="37.95692321844398975372314453125" lon="-107.109674178063869476318359375">
        <ele>3950.199951171875</ele>
        <time>2026-01-06T19:27:08.000Z</time>
        <extensions>
          <ns3:TrackPointExtension>
            <ns3:hr>96</ns3:hr>
            <ns3:cad>0</ns3:cad>
          </ns3:TrackPointExtension>
        </extensions>
      </trkpt>
      <trkpt lat="37.9568998329341411590576171875" lon="-107.10964559577405452728271484375">
        <ele>3949.60009765625</ele>
        <time>2026-01-06T19:27:12.000Z</time>
        <extensions>
          <ns3:TrackPointExtension>
            <ns3:hr>96</ns3:hr>
            <ns3:cad>0</ns3:cad>
          </ns3:TrackPointExtension>
        </extensions>
      </trkpt>
      <trkpt lat="37.95689103193581104278564453125" lon="-107.10962614975869655609130859375">
        <ele>3949.199951171875</ele>
        <time>2026-01-06T19:27:14.000Z</time>
        <extensions>
          <ns3:TrackPointExtension>
            <ns3:hr>95</ns3:hr>
            <ns3:cad>0</ns3:cad>
          </ns3:TrackPointExtension>
        </extensions>
      </trkpt>
      <trkpt lat="37.9568731784820556640625" lon="-107.109588347375392913818359375">
        <ele>3948.39990234375</ele>
        <time>2026-01-06T19:27:18.000Z</time>
        <extensions>
          <ns3:TrackPointExtension>
            <ns3:hr>95</ns3:hr>
            <ns3:cad>0</ns3:cad>
          </ns3:TrackPointExtension>
        </extensions>
      </trkpt>
      <trkpt lat="37.9568626172840595245361328125" lon="-107.109562195837497711181640625">
        <ele>3948.199951171875</ele>
        <time>2026-01-06T19:27:20.000Z</time>
        <extensions>
          <ns3:TrackPointExtension>
            <ns3:hr>96</ns3:hr>
            <ns3:cad>0</ns3:cad>
          </ns3:TrackPointExtension>
        </extensions>
      </trkpt>
      <trkpt lat="37.95683453790843486785888671875" lon="-107.10949036292731761932373046875">
        <ele>3947.199951171875</ele>
        <time>2026-01-06T19:27:26.000Z</time>
        <extensions>
          <ns3:TrackPointExtension>
            <ns3:hr>96</ns3:hr>
            <ns3:cad>0</ns3:cad>
          </ns3:TrackPointExtension>
        </extensions>
      </trkpt>
      <trkpt lat="37.95682691037654876708984375" lon="-107.109481729567050933837890625">
        <ele>3947</ele>
        <time>2026-01-06T19:27:27.000Z</time>
        <extensions>
          <ns3:TrackPointExtension>
            <ns3:hr>95</ns3:hr>
            <ns3:cad>0</ns3:cad>
          </ns3:TrackPointExtension>
        </extensions>
      </trkpt>
      <trkpt lat="37.95680679380893707275390625" lon="-107.10944392718374729156494140625">
        <ele>3946.39990234375</ele>
        <time>2026-01-06T19:27:33.000Z</time>
        <extensions>
          <ns3:TrackPointExtension>
            <ns3:hr>96</ns3:hr>
            <ns3:cad>0</ns3:cad>
          </ns3:TrackPointExtension>
        </extensions>
      </trkpt>
      <trkpt lat="37.95680679380893707275390625" lon="-107.10944392718374729156494140625">
        <ele>3946.39990234375</ele>
        <time>2026-01-06T19:27:34.000Z</time>
        <extensions>
          <ns3:TrackPointExtension>
            <ns3:hr>97</ns3:hr>
            <ns3:cad>0</ns3:cad>
          </ns3:TrackPointExtension>
        </extensions>
      </trkpt>
      <trkpt lat="37.95680679380893707275390625" lon="-107.10944392718374729156494140625">
        <ele>3946.39990234375</ele>
        <time>2026-01-06T19:27:36.000Z</time>
        <extensions>
          <ns3:TrackPointExtension>
            <ns3:hr>100</ns3:hr>
            <ns3:cad>0</ns3:cad>
          </ns3:TrackPointExtension>
        </extensions>
      </trkpt>
      <trkpt lat="37.95680679380893707275390625" lon="-107.10944392718374729156494140625">
        <ele>3946.39990234375</ele>
        <time>2026-01-06T19:27:39.000Z</time>
        <extensions>
          <ns3:TrackPointExtension>
            <ns3:hr>103</ns3:hr>
            <ns3:cad>0</ns3:cad>
          </ns3:TrackPointExtension>
        </extensions>
      </trkpt>
      <trkpt lat="37.95679531060159206390380859375" lon="-107.10941970348358154296875">
        <ele>3946.39990234375</ele>
        <time>2026-01-06T19:27:43.000Z</time>
        <extensions>
          <ns3:TrackPointExtension>
            <ns3:hr>102</ns3:hr>
            <ns3:cad>0</ns3:cad>
          </ns3:TrackPointExtension>
        </extensions>
      </trkpt>
      <trkpt lat="37.9567844979465007781982421875" lon="-107.10937888361513614654541015625">
        <ele>3946</ele>
        <time>2026-01-06T19:27:47.000Z</time>
        <extensions>
          <ns3:TrackPointExtension>
            <ns3:hr>101</ns3:hr>
            <ns3:cad>0</ns3:cad>
          </ns3:TrackPointExtension>
        </extensions>
      </trkpt>
      <trkpt lat="37.9567804746329784393310546875" lon="-107.10936815477907657623291015625">
        <ele>3945.39990234375</ele>
        <time>2026-01-06T19:27:51.000Z</time>
        <extensions>
          <ns3:TrackPointExtension>
            <ns3:hr>102</ns3:hr>
            <ns3:cad>0</ns3:cad>
          </ns3:TrackPointExtension>
        </extensions>
      </trkpt>
      <trkpt lat="37.9567804746329784393310546875" lon="-107.10936807096004486083984375">
        <ele>3945.800048828125</ele>
        <time>2026-01-06T19:27:57.000Z</time>
        <extensions>
          <ns3:TrackPointExtension>
            <ns3:hr>101</ns3:hr>
            <ns3:cad>0</ns3:cad>
          </ns3:TrackPointExtension>
        </extensions>
      </trkpt>
      <trkpt lat="37.9567804746329784393310546875" lon="-107.10936807096004486083984375">
        <ele>3945.800048828125</ele>
        <time>2026-01-06T19:27:59.000Z</time>
        <extensions>
          <ns3:TrackPointExtension>
            <ns3:hr>105</ns3:hr>
            <ns3:cad>0</ns3:cad>
          </ns3:TrackPointExtension>
        </extensions>
      </trkpt>
      <trkpt lat="37.9567804746329784393310546875" lon="-107.10936807096004486083984375">
        <ele>3946.199951171875</ele>
        <time>2026-01-06T19:28:05.000Z</time>
        <extensions>
          <ns3:TrackPointExtension>
            <ns3:hr>107</ns3:hr>
            <ns3:cad>0</ns3:cad>
          </ns3:TrackPointExtension>
        </extensions>
      </trkpt>
      <trkpt lat="37.9567804746329784393310546875" lon="-107.10936807096004486083984375">
        <ele>3945.800048828125</ele>
        <time>2026-01-06T19:28:11.000Z</time>
        <extensions>
          <ns3:TrackPointExtension>
            <ns3:hr>109</ns3:hr>
            <ns3:cad>0</ns3:cad>
          </ns3:TrackPointExtension>
        </extensions>
      </trkpt>
      <trkpt lat="37.95677636750042438507080078125" lon="-107.10936899296939373016357421875">
        <ele>3946.199951171875</ele>
        <time>2026-01-06T19:28:15.000Z</time>
        <extensions>
          <ns3:TrackPointExtension>
            <ns3:hr>109</ns3:hr>
            <ns3:cad>0</ns3:cad>
          </ns3:TrackPointExtension>
        </extensions>
      </trkpt>
      <trkpt lat="37.95675474219024181365966796875" lon="-107.1093075536191463470458984375">
        <ele>3945</ele>
        <time>2026-01-06T19:28:21.000Z</time>
        <extensions>
          <ns3:TrackPointExtension>
            <ns3:hr>109</ns3:hr>
            <ns3:cad>0</ns3:cad>
          </ns3:TrackPointExtension>
        </extensions>
      </trkpt>
      <trkpt lat="37.95674434863030910491943359375" lon="-107.10927410982549190521240234375">
        <ele>3944.39990234375</ele>
        <time>2026-01-06T19:28:24.000Z</time>
        <extensions>
          <ns3:TrackPointExtension>
            <ns3:hr>106</ns3:hr>
            <ns3:cad>45</ns3:cad>
          </ns3:TrackPointExtension>
        </extensions>
      </trkpt>
      <trkpt lat="37.95673144049942493438720703125" lon="-107.10924066603183746337890625">
        <ele>3944</ele>
        <time>2026-01-06T19:28:27.000Z</time>
        <extensions>
          <ns3:TrackPointExtension>
            <ns3:hr>106</ns3:hr>
            <ns3:cad>45</ns3:cad>
          </ns3:TrackPointExtension>
        </extensions>
      </trkpt>
      <trkpt lat="37.95672121457755565643310546875" lon="-107.1092136763036251068115234375">
        <ele>3943.60009765625</ele>
        <time>2026-01-06T19:28:29.000Z</time>
        <extensions>
          <ns3:TrackPointExtension>
            <ns3:hr>106</ns3:hr>
            <ns3:cad>0</ns3:cad>
          </ns3:TrackPointExtension>
        </extensions>
      </trkpt>
      <trkpt lat="37.95670109800994396209716796875" lon="-107.10918056778609752655029296875">
        <ele>3942.800048828125</ele>
        <time>2026-01-06T19:28:32.000Z</time>
        <extensions>
          <ns3:TrackPointExtension>
            <ns3:hr>106</ns3:hr>
            <ns3:cad>51</ns3:cad>
          </ns3:TrackPointExtension>
        </extensions>
      </trkpt>
      <trkpt lat="37.95667662285268306732177734375" lon="-107.10912206210196018218994140625">
        <ele>3942</ele>
        <time>2026-01-06T19:28:36.000Z</time>
        <extensions>
          <ns3:TrackPointExtension>
            <ns3:hr>106</ns3:hr>
            <ns3:cad>51</ns3:cad>
          </ns3:TrackPointExtension>
        </extensions>
      </trkpt>
      <trkpt lat="37.95666941441595554351806640625" lon="-107.109092138707637786865234375">
        <ele>3941.800048828125</ele>
        <time>2026-01-06T19:28:38.000Z</time>
        <extensions>
          <ns3:TrackPointExtension>
            <ns3:hr>105</ns3:hr>
            <ns3:cad>53</ns3:cad>
          </ns3:TrackPointExtension>
        </extensions>
      </trkpt>
      <trkpt lat="37.95666706748306751251220703125" lon="-107.1090312860906124114990234375">
        <ele>3941</ele>
        <time>2026-01-06T19:28:42.000Z</time>
        <extensions>
          <ns3:TrackPointExtension>
            <ns3:hr>104</ns3:hr>
            <ns3:cad>53</ns3:cad>
          </ns3:TrackPointExtension>
        </extensions>
      </trkpt>
      <trkpt lat="37.95665566809475421905517578125" lon="-107.1090031228959560394287109375">
        <ele>3940.800048828125</ele>
        <time>2026-01-06T19:28:44.000Z</time>
        <extensions>
          <ns3:TrackPointExtension>
            <ns3:hr>105</ns3:hr>
            <ns3:cad>51</ns3:cad>
          </ns3:TrackPointExtension>
        </extensions>
      </trkpt>
      <trkpt lat="37.95663337223231792449951171875" lon="-107.1089457906782627105712890625">
        <ele>3940.800048828125</ele>
        <time>2026-01-06T19:28:48.000Z</time>
        <extensions>
          <ns3:TrackPointExtension>
            <ns3:hr>105</ns3:hr>
            <ns3:cad>51</ns3:cad>
          </ns3:TrackPointExtension>
        </extensions>
      </trkpt>
      <trkpt lat="37.9566000960767269134521484375" lon="-107.1088502369821071624755859375">
        <ele>3940</ele>
        <time>2026-01-06T19:28:54.000Z</time>
        <extensions>
          <ns3:TrackPointExtension>
            <ns3:hr>98</ns3:hr>
            <ns3:cad>0</ns3:cad>
          </ns3:TrackPointExtension>
        </extensions>
      </trkpt>
      <trkpt lat="37.95659246854484081268310546875" lon="-107.1088401786983013153076171875">
        <ele>3940</ele>
        <time>2026-01-06T19:28:55.000Z</time>
        <extensions>
          <ns3:TrackPointExtension>
            <ns3:hr>92</ns3:hr>
            <ns3:cad>0</ns3:cad>
          </ns3:TrackPointExtension>
        </extensions>
      </trkpt>
      <trkpt lat="37.9565873555839061737060546875" lon="-107.108827941119670867919921875">
        <ele>3939.800048828125</ele>
        <time>2026-01-06T19:28:56.000Z</time>
        <extensions>
          <ns3:TrackPointExtension>
            <ns3:hr>84</ns3:hr>
            <ns3:cad>0</ns3:cad>
          </ns3:TrackPointExtension>
        </extensions>
      </trkpt>
      <trkpt lat="37.95658123679459095001220703125" lon="-107.10881419479846954345703125">
        <ele>3939.800048828125</ele>
        <time>2026-01-06T19:28:57.000Z</time>
        <extensions>
          <ns3:TrackPointExtension>
            <ns3:hr>81</ns3:hr>
            <ns3:cad>0</ns3:cad>
          </ns3:TrackPointExtension>
        </extensions>
      </trkpt>
      <trkpt lat="37.95657210052013397216796875" lon="-107.1087932400405406951904296875">
        <ele>3939.60009765625</ele>
        <time>2026-01-06T19:28:59.000Z</time>
        <extensions>
          <ns3:TrackPointExtension>
            <ns3:hr>79</ns3:hr>
            <ns3:cad>0</ns3:cad>
          </ns3:TrackPointExtension>
        </extensions>
      </trkpt>
      <trkpt lat="37.95656346715986728668212890625" lon="-107.10876599885523319244384765625">
        <ele>3939.39990234375</ele>
        <time>2026-01-06T19:29:01.000Z</time>
        <extensions>
          <ns3:TrackPointExtension>
            <ns3:hr>78</ns3:hr>
            <ns3:cad>54</ns3:cad>
          </ns3:TrackPointExtension>
        </extensions>
      </trkpt>
      <trkpt lat="37.95651485212147235870361328125" lon="-107.10869223810732364654541015625">
        <ele>3938.60009765625</ele>
        <time>2026-01-06T19:29:07.000Z</time>
        <extensions>
          <ns3:TrackPointExtension>
            <ns3:hr>79</ns3:hr>
            <ns3:cad>0</ns3:cad>
          </ns3:TrackPointExtension>
        </extensions>
      </trkpt>
      <trkpt lat="37.95647495426237583160400390625" lon="-107.10862786509096622467041015625">
        <ele>3937.800048828125</ele>
        <time>2026-01-06T19:29:13.000Z</time>
        <extensions>
          <ns3:TrackPointExtension>
            <ns3:hr>78</ns3:hr>
            <ns3:cad>0</ns3:cad>
          </ns3:TrackPointExtension>
        </extensions>
      </trkpt>
      <trkpt lat="37.956461124122142791748046875" lon="-107.10860121063888072967529296875">
        <ele>3937.800048828125</ele>
        <time>2026-01-06T19:29:15.000Z</time>
        <extensions>
          <ns3:TrackPointExtension>
            <ns3:hr>78</ns3:hr>
            <ns3:cad>53</ns3:cad>
          </ns3:TrackPointExtension>
        </extensions>
      </trkpt>
      <trkpt lat="37.9564364813268184661865234375" lon="-107.10855393670499324798583984375">
        <ele>3937.60009765625</ele>
        <time>2026-01-06T19:29:19.000Z</time>
        <extensions>
          <ns3:TrackPointExtension>
            <ns3:hr>78</ns3:hr>
            <ns3:cad>53</ns3:cad>
          </ns3:TrackPointExtension>
        </extensions>
      </trkpt>
      <trkpt lat="37.95641460455954074859619140625" lon="-107.10851537995040416717529296875">
        <ele>3936.800048828125</ele>
        <time>2026-01-06T19:29:22.000Z</time>
        <extensions>
          <ns3:TrackPointExtension>
            <ns3:hr>78</ns3:hr>
            <ns3:cad>53</ns3:cad>
          </ns3:TrackPointExtension>
        </extensions>
      </trkpt>
      <trkpt lat="37.95640178024768829345703125" lon="-107.108485959470272064208984375">
        <ele>3936.39990234375</ele>
        <time>2026-01-06T19:29:24.000Z</time>
        <extensions>
          <ns3:TrackPointExtension>
            <ns3:hr>77</ns3:hr>
            <ns3:cad>53</ns3:cad>
          </ns3:TrackPointExtension>
        </extensions>
      </trkpt>
      <trkpt lat="37.95637219212949275970458984375" lon="-107.10841395892202854156494140625">
        <ele>3936.39990234375</ele>
        <time>2026-01-06T19:29:30.000Z</time>
        <extensions>
          <ns3:TrackPointExtension>
            <ns3:hr>76</ns3:hr>
            <ns3:cad>53</ns3:cad>
          </ns3:TrackPointExtension>
        </extensions>
      </trkpt>
      <trkpt lat="37.95634537003934383392333984375" lon="-107.10831907577812671661376953125">
        <ele>3936</ele>
        <time>2026-01-06T19:29:36.000Z</time>
        <extensions>
          <ns3:TrackPointExtension>
            <ns3:hr>75</ns3:hr>
            <ns3:cad>52</ns3:cad>
          </ns3:TrackPointExtension>
        </extensions>
      </trkpt>
      <trkpt lat="37.95631787739694118499755859375" lon="-107.10826300084590911865234375">
        <ele>3936.39990234375</ele>
        <time>2026-01-06T19:29:41.000Z</time>
        <extensions>
          <ns3:TrackPointExtension>
            <ns3:hr>74</ns3:hr>
            <ns3:cad>17</ns3:cad>
          </ns3:TrackPointExtension>
        </extensions>
      </trkpt>
      <trkpt lat="37.956283092498779296875" lon="-107.10820131003856658935546875">
        <ele>3936.60009765625</ele>
        <time>2026-01-06T19:29:46.000Z</time>
        <extensions>
          <ns3:TrackPointExtension>
            <ns3:hr>74</ns3:hr>
            <ns3:cad>49</ns3:cad>
          </ns3:TrackPointExtension>
        </extensions>
      </trkpt>
      <trkpt lat="37.95626473613083362579345703125" lon="-107.10816719569265842437744140625">
        <ele>3936</ele>
        <time>2026-01-06T19:29:51.000Z</time>
        <extensions>
          <ns3:TrackPointExtension>
            <ns3:hr>73</ns3:hr>
            <ns3:cad>0</ns3:cad>
          </ns3:TrackPointExtension>
        </extensions>
      </trkpt>
      <trkpt lat="37.95626490376889705657958984375" lon="-107.10816719569265842437744140625">
        <ele>3935.800048828125</ele>
        <time>2026-01-06T19:29:57.000Z</time>
        <extensions>
          <ns3:TrackPointExtension>
            <ns3:hr>74</ns3:hr>
            <ns3:cad>0</ns3:cad>
          </ns3:TrackPointExtension>
        </extensions>
      </trkpt>
      <trkpt lat="37.95626490376889705657958984375" lon="-107.10816719569265842437744140625">
        <ele>3936</ele>
        <time>2026-01-06T19:30:03.000Z</time>
        <extensions>
          <ns3:TrackPointExtension>
            <ns3:hr>73</ns3:hr>
            <ns3:cad>0</ns3:cad>
          </ns3:TrackPointExtension>
        </extensions>
      </trkpt>
      <trkpt lat="37.95626071281731128692626953125" lon="-107.10816183127462863922119140625">
        <ele>3936</ele>
        <time>2026-01-06T19:30:07.000Z</time>
        <extensions>
          <ns3:TrackPointExtension>
            <ns3:hr>73</ns3:hr>
            <ns3:cad>0</ns3:cad>
          </ns3:TrackPointExtension>
        </extensions>
      </trkpt>
      <trkpt lat="37.95623623766005039215087890625" lon="-107.10812486708164215087890625">
        <ele>3936.60009765625</ele>
        <time>2026-01-06T19:30:10.000Z</time>
        <extensions>
          <ns3:TrackPointExtension>
            <ns3:hr>76</ns3:hr>
            <ns3:cad>0</ns3:cad>
          </ns3:TrackPointExtension>
        </extensions>
      </trkpt>
      <trkpt lat="37.95621804893016815185546875" lon="-107.10806795395910739898681640625">
        <ele>3936.800048828125</ele>
        <time>2026-01-06T19:30:14.000Z</time>
        <extensions>
          <ns3:TrackPointExtension>
            <ns3:hr>77</ns3:hr>
            <ns3:cad>47</ns3:cad>
          </ns3:TrackPointExtension>
        </extensions>
      </trkpt>
      <trkpt lat="37.956198267638683319091796875" lon="-107.10799050517380237579345703125">
        <ele>3937</ele>
        <time>2026-01-06T19:30:20.000Z</time>
        <extensions>
          <ns3:TrackPointExtension>
            <ns3:hr>77</ns3:hr>
            <ns3:cad>48</ns3:cad>
          </ns3:TrackPointExtension>
        </extensions>
      </trkpt>
      <trkpt lat="37.9561920650303363800048828125" lon="-107.10797793231904506683349609375">
        <ele>3937</ele>
        <time>2026-01-06T19:30:21.000Z</time>
        <extensions>
          <ns3:TrackPointExtension>
            <ns3:hr>77</ns3:hr>
            <ns3:cad>48</ns3:cad>
          </ns3:TrackPointExtension>
        </extensions>
      </trkpt>
      <trkpt lat="37.9561602137982845306396484375" lon="-107.10792093537747859954833984375">
        <ele>3937.39990234375</ele>
        <time>2026-01-06T19:30:26.000Z</time>
        <extensions>
          <ns3:TrackPointExtension>
            <ns3:hr>77</ns3:hr>
            <ns3:cad>51</ns3:cad>
          </ns3:TrackPointExtension>
        </extensions>
      </trkpt>
      <trkpt lat="37.95614487491548061370849609375" lon="-107.1079024113714694976806640625">
        <ele>3937.60009765625</ele>
        <time>2026-01-06T19:30:28.000Z</time>
        <extensions>
          <ns3:TrackPointExtension>
            <ns3:hr>77</ns3:hr>
            <ns3:cad>0</ns3:cad>
          </ns3:TrackPointExtension>
        </extensions>
      </trkpt>
      <trkpt lat="37.9561240039765834808349609375" lon="-107.107854299247264862060546875">
        <ele>3938.39990234375</ele>
        <time>2026-01-06T19:30:33.000Z</time>
        <extensions>
          <ns3:TrackPointExtension>
            <ns3:hr>80</ns3:hr>
            <ns3:cad>50</ns3:cad>
          </ns3:TrackPointExtension>
        </extensions>
      </trkpt>
      <trkpt lat="37.9561012051999568939208984375" lon="-107.10779403336346149444580078125">
        <ele>3938.39990234375</ele>
        <time>2026-01-06T19:30:39.000Z</time>
        <extensions>
          <ns3:TrackPointExtension>
            <ns3:hr>82</ns3:hr>
            <ns3:cad>0</ns3:cad>
          </ns3:TrackPointExtension>
        </extensions>
      </trkpt>
      <trkpt lat="37.95608184300363063812255859375" lon="-107.10776218213140964508056640625">
        <ele>3938.60009765625</ele>
        <time>2026-01-06T19:30:43.000Z</time>
        <extensions>
          <ns3:TrackPointExtension>
            <ns3:hr>84</ns3:hr>
            <ns3:cad>0</ns3:cad>
          </ns3:TrackPointExtension>
        </extensions>
      </trkpt>
      <trkpt lat="37.95607714913785457611083984375" lon="-107.107758410274982452392578125">
        <ele>3938.800048828125</ele>
        <time>2026-01-06T19:30:44.000Z</time>
        <extensions>
          <ns3:TrackPointExtension>
            <ns3:hr>85</ns3:hr>
            <ns3:cad>0</ns3:cad>
          </ns3:TrackPointExtension>
        </extensions>
      </trkpt>
      <trkpt lat="37.95604705810546875" lon="-107.10771717131137847900390625">
        <ele>3939.60009765625</ele>
        <time>2026-01-06T19:30:49.000Z</time>
        <extensions>
          <ns3:TrackPointExtension>
            <ns3:hr>87</ns3:hr>
            <ns3:cad>0</ns3:cad>
          </ns3:TrackPointExtension>
        </extensions>
      </trkpt>
      <trkpt lat="37.9560401849448680877685546875" lon="-107.10770912468433380126953125">
        <ele>3939.60009765625</ele>
        <time>2026-01-06T19:30:50.000Z</time>
        <extensions>
          <ns3:TrackPointExtension>
            <ns3:hr>87</ns3:hr>
            <ns3:cad>0</ns3:cad>
          </ns3:TrackPointExtension>
        </extensions>
      </trkpt>
      <trkpt lat="37.9560220800340175628662109375" lon="-107.10767568089067935943603515625">
        <ele>3939.60009765625</ele>
        <time>2026-01-06T19:30:54.000Z</time>
        <extensions>
          <ns3:TrackPointExtension>
            <ns3:hr>90</ns3:hr>
            <ns3:cad>0</ns3:cad>
          </ns3:TrackPointExtension>
        </extensions>
      </trkpt>
      <trkpt lat="37.95601579360663890838623046875" lon="-107.10766478441655635833740234375">
        <ele>3939.60009765625</ele>
        <time>2026-01-06T19:30:55.000Z</time>
        <extensions>
          <ns3:TrackPointExtension>
            <ns3:hr>90</ns3:hr>
            <ns3:cad>0</ns3:cad>
          </ns3:TrackPointExtension>
        </extensions>
      </trkpt>
      <trkpt lat="37.955991737544536590576171875" lon="-107.10763393901288509368896484375">
        <ele>3940.199951171875</ele>
        <time>2026-01-06T19:31:00.000Z</time>
        <extensions>
          <ns3:TrackPointExtension>
            <ns3:hr>90</ns3:hr>
            <ns3:cad>0</ns3:cad>
          </ns3:TrackPointExtension>
        </extensions>
      </trkpt>
      <trkpt lat="37.9559754766523838043212890625" lon="-107.10759647190570831298828125">
        <ele>3940.60009765625</ele>
        <time>2026-01-06T19:31:04.000Z</time>
        <extensions>
          <ns3:TrackPointExtension>
            <ns3:hr>92</ns3:hr>
            <ns3:cad>0</ns3:cad>
          </ns3:TrackPointExtension>
        </extensions>
      </trkpt>
      <trkpt lat="37.9559644125401973724365234375" lon="-107.10757425986230373382568359375">
        <ele>3940.800048828125</ele>
        <time>2026-01-06T19:31:06.000Z</time>
        <extensions>
          <ns3:TrackPointExtension>
            <ns3:hr>93</ns3:hr>
            <ns3:cad>0</ns3:cad>
          </ns3:TrackPointExtension>
        </extensions>
      </trkpt>
      <trkpt lat="37.9559456370770931243896484375" lon="-107.1075567416846752166748046875">
        <ele>3941.199951171875</ele>
        <time>2026-01-06T19:31:11.000Z</time>
        <extensions>
          <ns3:TrackPointExtension>
            <ns3:hr>94</ns3:hr>
            <ns3:cad>0</ns3:cad>
          </ns3:TrackPointExtension>
        </extensions>
      </trkpt>
      <trkpt lat="37.9559116065502166748046875" lon="-107.10750921629369258880615234375">
        <ele>3941.800048828125</ele>
        <time>2026-01-06T19:31:16.000Z</time>
        <extensions>
          <ns3:TrackPointExtension>
            <ns3:hr>93</ns3:hr>
            <ns3:cad>71</ns3:cad>
          </ns3:TrackPointExtension>
        </extensions>
      </trkpt>
      <trkpt lat="37.95590691268444061279296875" lon="-107.10750259459018707275390625">
        <ele>3942</ele>
        <time>2026-01-06T19:31:17.000Z</time>
        <extensions>
          <ns3:TrackPointExtension>
            <ns3:hr>93</ns3:hr>
            <ns3:cad>41</ns3:cad>
          </ns3:TrackPointExtension>
        </extensions>
      </trkpt>
      <trkpt lat="37.9558799229562282562255859375" lon="-107.10746311582624912261962890625">
        <ele>3942.199951171875</ele>
        <time>2026-01-06T19:31:23.000Z</time>
        <extensions>
          <ns3:TrackPointExtension>
            <ns3:hr>95</ns3:hr>
            <ns3:cad>76</ns3:cad>
          </ns3:TrackPointExtension>
        </extensions>
      </trkpt>
      <trkpt lat="37.95587338507175445556640625" lon="-107.1074548177421092987060546875">
        <ele>3942.199951171875</ele>
        <time>2026-01-06T19:31:24.000Z</time>
        <extensions>
          <ns3:TrackPointExtension>
            <ns3:hr>96</ns3:hr>
            <ns3:cad>76</ns3:cad>
          </ns3:TrackPointExtension>
        </extensions>
      </trkpt>
      <trkpt lat="37.95583776198327541351318359375" lon="-107.10742346942424774169921875">
        <ele>3942.39990234375</ele>
        <time>2026-01-06T19:31:28.000Z</time>
        <extensions>
          <ns3:TrackPointExtension>
            <ns3:hr>99</ns3:hr>
            <ns3:cad>0</ns3:cad>
          </ns3:TrackPointExtension>
        </extensions>
      </trkpt>
      <trkpt lat="37.9558249376714229583740234375" lon="-107.107409052550792694091796875">
        <ele>3942.60009765625</ele>
        <time>2026-01-06T19:31:30.000Z</time>
        <extensions>
          <ns3:TrackPointExtension>
            <ns3:hr>100</ns3:hr>
            <ns3:cad>0</ns3:cad>
          </ns3:TrackPointExtension>
        </extensions>
      </trkpt>
      <trkpt lat="37.95579367317259311676025390625" lon="-107.10736907087266445159912109375">
        <ele>3942.800048828125</ele>
        <time>2026-01-06T19:31:35.000Z</time>
        <extensions>
          <ns3:TrackPointExtension>
            <ns3:hr>100</ns3:hr>
            <ns3:cad>0</ns3:cad>
          </ns3:TrackPointExtension>
        </extensions>
      </trkpt>
      <trkpt lat="37.95578981749713420867919921875" lon="-107.107362784445285797119140625">
        <ele>3942.800048828125</ele>
        <time>2026-01-06T19:31:36.000Z</time>
        <extensions>
          <ns3:TrackPointExtension>
            <ns3:hr>100</ns3:hr>
            <ns3:cad>0</ns3:cad>
          </ns3:TrackPointExtension>
        </extensions>
      </trkpt>
      <trkpt lat="37.95576282776892185211181640625" lon="-107.10733302868902683258056640625">
        <ele>3943.199951171875</ele>
        <time>2026-01-06T19:31:41.000Z</time>
        <extensions>
          <ns3:TrackPointExtension>
            <ns3:hr>101</ns3:hr>
            <ns3:cad>0</ns3:cad>
          </ns3:TrackPointExtension>
        </extensions>
      </trkpt>
      <trkpt lat="37.9557283781468868255615234375" lon="-107.1073109842836856842041015625">
        <ele>3943.60009765625</ele>
        <time>2026-01-06T19:31:45.000Z</time>
        <extensions>
          <ns3:TrackPointExtension>
            <ns3:hr>101</ns3:hr>
            <ns3:cad>0</ns3:cad>
          </ns3:TrackPointExtension>
        </extensions>
      </trkpt>
      <trkpt lat="37.95570381917059421539306640625" lon="-107.10728826932609081268310546875">
        <ele>3943.800048828125</ele>
        <time>2026-01-06T19:31:49.000Z</time>
        <extensions>
          <ns3:TrackPointExtension>
            <ns3:hr>100</ns3:hr>
            <ns3:cad>0</ns3:cad>
          </ns3:TrackPointExtension>
        </extensions>
      </trkpt>
      <trkpt lat="37.955691330134868621826171875" lon="-107.10727393627166748046875">
        <ele>3944</ele>
        <time>2026-01-06T19:31:51.000Z</time>
        <extensions>
          <ns3:TrackPointExtension>
            <ns3:hr>99</ns3:hr>
            <ns3:cad>0</ns3:cad>
          </ns3:TrackPointExtension>
        </extensions>
      </trkpt>
      <trkpt lat="37.95565922744572162628173828125" lon="-107.10723730735480785369873046875">
        <ele>3944.60009765625</ele>
        <time>2026-01-06T19:31:56.000Z</time>
        <extensions>
          <ns3:TrackPointExtension>
            <ns3:hr>98</ns3:hr>
            <ns3:cad>0</ns3:cad>
          </ns3:TrackPointExtension>
        </extensions>
      </trkpt>
      <trkpt lat="37.95564472675323486328125" lon="-107.10722439922392368316650390625">
        <ele>3945</ele>
        <time>2026-01-06T19:31:58.000Z</time>
        <extensions>
          <ns3:TrackPointExtension>
            <ns3:hr>99</ns3:hr>
            <ns3:cad>0</ns3:cad>
          </ns3:TrackPointExtension>
        </extensions>
      </trkpt>
      <trkpt lat="37.9556165635585784912109375" lon="-107.10719774477183818817138671875">
        <ele>3945.60009765625</ele>
        <time>2026-01-06T19:32:04.000Z</time>
        <extensions>
          <ns3:TrackPointExtension>
            <ns3:hr>100</ns3:hr>
            <ns3:cad>0</ns3:cad>
          </ns3:TrackPointExtension>
        </extensions>
      </trkpt>
      <trkpt lat="37.955598793923854827880859375" lon="-107.10717578418552875518798828125">
        <ele>3946</ele>
        <time>2026-01-06T19:32:07.000Z</time>
        <extensions>
          <ns3:TrackPointExtension>
            <ns3:hr>101</ns3:hr>
            <ns3:cad>0</ns3:cad>
          </ns3:TrackPointExtension>
        </extensions>
      </trkpt>
      <trkpt lat="37.95557557605206966400146484375" lon="-107.10715030319988727569580078125">
        <ele>3946.60009765625</ele>
        <time>2026-01-06T19:32:10.000Z</time>
        <extensions>
          <ns3:TrackPointExtension>
            <ns3:hr>102</ns3:hr>
            <ns3:cad>0</ns3:cad>
          </ns3:TrackPointExtension>
        </extensions>
      </trkpt>
      <trkpt lat="37.9555654339492321014404296875" lon="-107.1071312762796878814697265625">
        <ele>3947.199951171875</ele>
        <time>2026-01-06T19:32:13.000Z</time>
        <extensions>
          <ns3:TrackPointExtension>
            <ns3:hr>103</ns3:hr>
            <ns3:cad>61</ns3:cad>
          </ns3:TrackPointExtension>
        </extensions>
      </trkpt>
      <trkpt lat="37.9555520229041576385498046875" lon="-107.107112668454647064208984375">
        <ele>3947.60009765625</ele>
        <time>2026-01-06T19:32:15.000Z</time>
        <extensions>
          <ns3:TrackPointExtension>
            <ns3:hr>103</ns3:hr>
            <ns3:cad>61</ns3:cad>
          </ns3:TrackPointExtension>
        </extensions>
      </trkpt>
      <trkpt lat="37.9555355943739414215087890625" lon="-107.10707251913845539093017578125">
        <ele>3948.199951171875</ele>
        <time>2026-01-06T19:32:21.000Z</time>
        <extensions>
          <ns3:TrackPointExtension>
            <ns3:hr>103</ns3:hr>
            <ns3:cad>0</ns3:cad>
          </ns3:TrackPointExtension>
        </extensions>
      </trkpt>
      <trkpt lat="37.95553266070783138275146484375" lon="-107.10706941783428192138671875">
        <ele>3948.39990234375</ele>
        <time>2026-01-06T19:32:22.000Z</time>
        <extensions>
          <ns3:TrackPointExtension>
            <ns3:hr>103</ns3:hr>
            <ns3:cad>0</ns3:cad>
          </ns3:TrackPointExtension>
        </extensions>
      </trkpt>
      <trkpt lat="37.95550801791250705718994140625" lon="-107.1070568449795246124267578125">
        <ele>3949.199951171875</ele>
        <time>2026-01-06T19:32:26.000Z</time>
        <extensions>
          <ns3:TrackPointExtension>
            <ns3:hr>104</ns3:hr>
            <ns3:cad>0</ns3:cad>
          </ns3:TrackPointExtension>
        </extensions>
      </trkpt>
      <trkpt lat="37.9554990492761135101318359375" lon="-107.10704150609672069549560546875">
        <ele>3949.39990234375</ele>
        <time>2026-01-06T19:32:32.000Z</time>
        <extensions>
          <ns3:TrackPointExtension>
            <ns3:hr>102</ns3:hr>
            <ns3:cad>0</ns3:cad>
          </ns3:TrackPointExtension>
        </extensions>
      </trkpt>
      <trkpt lat="37.95549561269581317901611328125" lon="-107.107036225497722625732421875">
        <ele>3949.39990234375</ele>
        <time>2026-01-06T19:32:33.000Z</time>
        <extensions>
          <ns3:TrackPointExtension>
            <ns3:hr>102</ns3:hr>
            <ns3:cad>0</ns3:cad>
          </ns3:TrackPointExtension>
        </extensions>
      </trkpt>
      <trkpt lat="37.95546577312052249908447265625" lon="-107.10700345225632190704345703125">
        <ele>3950.60009765625</ele>
        <time>2026-01-06T19:32:38.000Z</time>
        <extensions>
          <ns3:TrackPointExtension>
            <ns3:hr>102</ns3:hr>
            <ns3:cad>0</ns3:cad>
          </ns3:TrackPointExtension>
        </extensions>
      </trkpt>
      <trkpt lat="37.95545370317995548248291015625" lon="-107.10698425769805908203125">
        <ele>3951.800048828125</ele>
        <time>2026-01-06T19:32:43.000Z</time>
        <extensions>
          <ns3:TrackPointExtension>
            <ns3:hr>101</ns3:hr>
            <ns3:cad>0</ns3:cad>
          </ns3:TrackPointExtension>
        </extensions>
      </trkpt>
      <trkpt lat="37.95545085333287715911865234375" lon="-107.10698065347969532012939453125">
        <ele>3951.800048828125</ele>
        <time>2026-01-06T19:32:44.000Z</time>
        <extensions>
          <ns3:TrackPointExtension>
            <ns3:hr>101</ns3:hr>
            <ns3:cad>0</ns3:cad>
          </ns3:TrackPointExtension>
        </extensions>
      </trkpt>
      <trkpt lat="37.95543878339231014251708984375" lon="-107.10695207118988037109375">
        <ele>3952.60009765625</ele>
        <time>2026-01-06T19:32:50.000Z</time>
        <extensions>
          <ns3:TrackPointExtension>
            <ns3:hr>101</ns3:hr>
            <ns3:cad>0</ns3:cad>
          </ns3:TrackPointExtension>
        </extensions>
      </trkpt>
      <trkpt lat="37.9554336704313755035400390625" lon="-107.1069455333054065704345703125">
        <ele>3952.60009765625</ele>
        <time>2026-01-06T19:32:51.000Z</time>
        <extensions>
          <ns3:TrackPointExtension>
            <ns3:hr>101</ns3:hr>
            <ns3:cad>0</ns3:cad>
          </ns3:TrackPointExtension>
        </extensions>
      </trkpt>
      <trkpt lat="37.95542688108980655670166015625" lon="-107.1069354750216007232666015625">
        <ele>3952.800048828125</ele>
        <time>2026-01-06T19:32:54.000Z</time>
        <extensions>
          <ns3:TrackPointExtension>
            <ns3:hr>101</ns3:hr>
            <ns3:cad>0</ns3:cad>
          </ns3:TrackPointExtension>
        </extensions>
      </trkpt>
      <trkpt lat="37.95541196130216121673583984375" lon="-107.1069136820733547210693359375">
        <ele>3953.39990234375</ele>
        <time>2026-01-06T19:32:58.000Z</time>
        <extensions>
          <ns3:TrackPointExtension>
            <ns3:hr>100</ns3:hr>
            <ns3:cad>0</ns3:cad>
          </ns3:TrackPointExtension>
        </extensions>
      </trkpt>
      <trkpt lat="37.95540869235992431640625" lon="-107.1069009415805339813232421875">
        <ele>3953.800048828125</ele>
        <time>2026-01-06T19:33:04.000Z</time>
        <extensions>
          <ns3:TrackPointExtension>
            <ns3:hr>98</ns3:hr>
            <ns3:cad>0</ns3:cad>
          </ns3:TrackPointExtension>
        </extensions>
      </trkpt>
      <trkpt lat="37.95540844090282917022705078125" lon="-107.1069012768566608428955078125">
        <ele>3954</ele>
        <time>2026-01-06T19:33:05.000Z</time>
        <extensions>
          <ns3:TrackPointExtension>
            <ns3:hr>98</ns3:hr>
            <ns3:cad>0</ns3:cad>
          </ns3:TrackPointExtension>
        </extensions>
      </trkpt>
      <trkpt lat="37.9554014839231967926025390625" lon="-107.10688610561192035675048828125">
        <ele>3954.60009765625</ele>
        <time>2026-01-06T19:33:10.000Z</time>
        <extensions>
          <ns3:TrackPointExtension>
            <ns3:hr>97</ns3:hr>
            <ns3:cad>0</ns3:cad>
          </ns3:TrackPointExtension>
        </extensions>
      </trkpt>
      <trkpt lat="37.95539787970483303070068359375" lon="-107.1068756282329559326171875">
        <ele>3955</ele>
        <time>2026-01-06T19:33:11.000Z</time>
        <extensions>
          <ns3:TrackPointExtension>
            <ns3:hr>96</ns3:hr>
            <ns3:cad>0</ns3:cad>
          </ns3:TrackPointExtension>
        </extensions>
      </trkpt>
      <trkpt lat="37.95537826605141162872314453125" lon="-107.10685676895081996917724609375">
        <ele>3955.60009765625</ele>
        <time>2026-01-06T19:33:15.000Z</time>
        <extensions>
          <ns3:TrackPointExtension>
            <ns3:hr>96</ns3:hr>
            <ns3:cad>0</ns3:cad>
          </ns3:TrackPointExtension>
        </extensions>
      </trkpt>
      <trkpt lat="37.9553635977208614349365234375" lon="-107.106827683746814727783203125">
        <ele>3956.199951171875</ele>
        <time>2026-01-06T19:33:21.000Z</time>
        <extensions>
          <ns3:TrackPointExtension>
            <ns3:hr>98</ns3:hr>
            <ns3:cad>0</ns3:cad>
          </ns3:TrackPointExtension>
        </extensions>
      </trkpt>
      <trkpt lat="37.95535379089415073394775390625" lon="-107.106820307672023773193359375">
        <ele>3956.800048828125</ele>
        <time>2026-01-06T19:33:27.000Z</time>
        <extensions>
          <ns3:TrackPointExtension>
            <ns3:hr>98</ns3:hr>
            <ns3:cad>0</ns3:cad>
          </ns3:TrackPointExtension>
        </extensions>
      </trkpt>
      <trkpt lat="37.95535379089415073394775390625" lon="-107.106820307672023773193359375">
        <ele>3957</ele>
        <time>2026-01-06T19:33:30.000Z</time>
        <extensions>
          <ns3:TrackPointExtension>
            <ns3:hr>97</ns3:hr>
            <ns3:cad>0</ns3:cad>
          </ns3:TrackPointExtension>
        </extensions>
      </trkpt>
      <trkpt lat="37.95535379089415073394775390625" lon="-107.106820307672023773193359375">
        <ele>3957.199951171875</ele>
        <time>2026-01-06T19:33:31.000Z</time>
        <extensions>
          <ns3:TrackPointExtension>
            <ns3:hr>97</ns3:hr>
            <ns3:cad>0</ns3:cad>
          </ns3:TrackPointExtension>
        </extensions>
      </trkpt>
      <trkpt lat="37.95534675009548664093017578125" lon="-107.10679373703896999359130859375">
        <ele>3957.60009765625</ele>
        <time>2026-01-06T19:33:35.000Z</time>
        <extensions>
          <ns3:TrackPointExtension>
            <ns3:hr>94</ns3:hr>
            <ns3:cad>0</ns3:cad>
          </ns3:TrackPointExtension>
        </extensions>
      </trkpt>
      <trkpt lat="37.9553468339145183563232421875" lon="-107.10676808841526508331298828125">
        <ele>3958</ele>
        <time>2026-01-06T19:33:38.000Z</time>
        <extensions>
          <ns3:TrackPointExtension>
            <ns3:hr>93</ns3:hr>
            <ns3:cad>0</ns3:cad>
          </ns3:TrackPointExtension>
        </extensions>
      </trkpt>
      <trkpt lat="37.95534222386777400970458984375" lon="-107.10675836540758609771728515625">
        <ele>3958.39990234375</ele>
        <time>2026-01-06T19:33:40.000Z</time>
        <extensions>
          <ns3:TrackPointExtension>
            <ns3:hr>93</ns3:hr>
            <ns3:cad>73</ns3:cad>
          </ns3:TrackPointExtension>
        </extensions>
      </trkpt>
      <trkpt lat="37.95533719472587108612060546875" lon="-107.106736488640308380126953125">
        <ele>3959</ele>
        <time>2026-01-06T19:33:44.000Z</time>
        <extensions>
          <ns3:TrackPointExtension>
            <ns3:hr>93</ns3:hr>
            <ns3:cad>0</ns3:cad>
          </ns3:TrackPointExtension>
        </extensions>
      </trkpt>
      <trkpt lat="37.95533350668847560882568359375" lon="-107.10673011839389801025390625">
        <ele>3959.39990234375</ele>
        <time>2026-01-06T19:33:46.000Z</time>
        <extensions>
          <ns3:TrackPointExtension>
            <ns3:hr>94</ns3:hr>
            <ns3:cad>0</ns3:cad>
          </ns3:TrackPointExtension>
        </extensions>
      </trkpt>
      <trkpt lat="37.9553340934216976165771484375" lon="-107.1067094989120960235595703125">
        <ele>3960</ele>
        <time>2026-01-06T19:33:51.000Z</time>
        <extensions>
          <ns3:TrackPointExtension>
            <ns3:hr>97</ns3:hr>
            <ns3:cad>0</ns3:cad>
          </ns3:TrackPointExtension>
        </extensions>
      </trkpt>
      <trkpt lat="37.95533920638263225555419921875" lon="-107.106682844460010528564453125">
        <ele>3960.39990234375</ele>
        <time>2026-01-06T19:33:54.000Z</time>
        <extensions>
          <ns3:TrackPointExtension>
            <ns3:hr>98</ns3:hr>
            <ns3:cad>0</ns3:cad>
          </ns3:TrackPointExtension>
        </extensions>
      </trkpt>
      <trkpt lat="37.9553525336086750030517578125" lon="-107.106647975742816925048828125">
        <ele>3961.199951171875</ele>
        <time>2026-01-06T19:34:00.000Z</time>
        <extensions>
          <ns3:TrackPointExtension>
            <ns3:hr>99</ns3:hr>
            <ns3:cad>0</ns3:cad>
          </ns3:TrackPointExtension>
        </extensions>
      </trkpt>
      <trkpt lat="37.95535764656960964202880859375" lon="-107.10663582198321819305419921875">
        <ele>3961.39990234375</ele>
        <time>2026-01-06T19:34:02.000Z</time>
        <extensions>
          <ns3:TrackPointExtension>
            <ns3:hr>100</ns3:hr>
            <ns3:cad>0</ns3:cad>
          </ns3:TrackPointExtension>
        </extensions>
      </trkpt>
      <trkpt lat="37.9553599096834659576416015625" lon="-107.10663087666034698486328125">
        <ele>3961.60009765625</ele>
        <time>2026-01-06T19:34:03.000Z</time>
        <extensions>
          <ns3:TrackPointExtension>
            <ns3:hr>101</ns3:hr>
            <ns3:cad>0</ns3:cad>
          </ns3:TrackPointExtension>
        </extensions>
      </trkpt>
      <trkpt lat="37.95536644756793975830078125" lon="-107.1066126041114330291748046875">
        <ele>3962</ele>
        <time>2026-01-06T19:34:09.000Z</time>
        <extensions>
          <ns3:TrackPointExtension>
            <ns3:hr>101</ns3:hr>
            <ns3:cad>0</ns3:cad>
          </ns3:TrackPointExtension>
        </extensions>
      </trkpt>
      <trkpt lat="37.95536644756793975830078125" lon="-107.1066126041114330291748046875">
        <ele>3962.199951171875</ele>
        <time>2026-01-06T19:34:15.000Z</time>
        <extensions>
          <ns3:TrackPointExtension>
            <ns3:hr>100</ns3:hr>
            <ns3:cad>0</ns3:cad>
          </ns3:TrackPointExtension>
        </extensions>
      </trkpt>
      <trkpt lat="37.9553696326911449432373046875" lon="-107.10661201737821102142333984375">
        <ele>3962.39990234375</ele>
        <time>2026-01-06T19:34:17.000Z</time>
        <extensions>
          <ns3:TrackPointExtension>
            <ns3:hr>100</ns3:hr>
            <ns3:cad>0</ns3:cad>
          </ns3:TrackPointExtension>
        </extensions>
      </trkpt>
      <trkpt lat="37.95538011007010936737060546875" lon="-107.1065837703645229339599609375">
        <ele>3962.60009765625</ele>
        <time>2026-01-06T19:34:19.000Z</time>
        <extensions>
          <ns3:TrackPointExtension>
            <ns3:hr>99</ns3:hr>
            <ns3:cad>0</ns3:cad>
          </ns3:TrackPointExtension>
        </extensions>
      </trkpt>
      <trkpt lat="37.9553874023258686065673828125" lon="-107.10655887611210346221923828125">
        <ele>3963</ele>
        <time>2026-01-06T19:34:24.000Z</time>
        <extensions>
          <ns3:TrackPointExtension>
            <ns3:hr>99</ns3:hr>
            <ns3:cad>0</ns3:cad>
          </ns3:TrackPointExtension>
        </extensions>
      </trkpt>
      <trkpt lat="37.95538195408880710601806640625" lon="-107.1065623126924037933349609375">
        <ele>3963.60009765625</ele>
        <time>2026-01-06T19:34:29.000Z</time>
        <extensions>
          <ns3:TrackPointExtension>
            <ns3:hr>100</ns3:hr>
            <ns3:cad>0</ns3:cad>
          </ns3:TrackPointExtension>
        </extensions>
      </trkpt>
      <trkpt lat="37.95537943951785564422607421875" lon="-107.106556780636310577392578125">
        <ele>3964</ele>
        <time>2026-01-06T19:34:32.000Z</time>
        <extensions>
          <ns3:TrackPointExtension>
            <ns3:hr>101</ns3:hr>
            <ns3:cad>0</ns3:cad>
          </ns3:TrackPointExtension>
        </extensions>
      </trkpt>
      <trkpt lat="37.95537860132753849029541015625" lon="-107.1065519191324710845947265625">
        <ele>3964.800048828125</ele>
        <time>2026-01-06T19:34:36.000Z</time>
        <extensions>
          <ns3:TrackPointExtension>
            <ns3:hr>100</ns3:hr>
            <ns3:cad>0</ns3:cad>
          </ns3:TrackPointExtension>
        </extensions>
      </trkpt>
      <trkpt lat="37.95537390746176242828369140625" lon="-107.10653574205935001373291015625">
        <ele>3965.199951171875</ele>
        <time>2026-01-06T19:34:41.000Z</time>
        <extensions>
          <ns3:TrackPointExtension>
            <ns3:hr>99</ns3:hr>
            <ns3:cad>0</ns3:cad>
          </ns3:TrackPointExtension>
        </extensions>
      </trkpt>
      <trkpt lat="37.95537181198596954345703125" lon="-107.10652090609073638916015625">
        <ele>3965.800048828125</ele>
        <time>2026-01-06T19:34:45.000Z</time>
        <extensions>
          <ns3:TrackPointExtension>
            <ns3:hr>98</ns3:hr>
            <ns3:cad>0</ns3:cad>
          </ns3:TrackPointExtension>
        </extensions>
      </trkpt>
      <trkpt lat="37.95537005178630352020263671875" lon="-107.10651260800659656524658203125">
        <ele>3965.800048828125</ele>
        <time>2026-01-06T19:34:47.000Z</time>
        <extensions>
          <ns3:TrackPointExtension>
            <ns3:hr>98</ns3:hr>
            <ns3:cad>0</ns3:cad>
          </ns3:TrackPointExtension>
        </extensions>
      </trkpt>
      <trkpt lat="37.9553713090717792510986328125" lon="-107.10649517364799976348876953125">
        <ele>3966</ele>
        <time>2026-01-06T19:34:53.000Z</time>
        <extensions>
          <ns3:TrackPointExtension>
            <ns3:hr>99</ns3:hr>
            <ns3:cad>0</ns3:cad>
          </ns3:TrackPointExtension>
        </extensions>
      </trkpt>
      <trkpt lat="37.9553713090717792510986328125" lon="-107.10649517364799976348876953125">
        <ele>3966.199951171875</ele>
        <time>2026-01-06T19:34:54.000Z</time>
        <extensions>
          <ns3:TrackPointExtension>
            <ns3:hr>100</ns3:hr>
            <ns3:cad>0</ns3:cad>
          </ns3:TrackPointExtension>
        </extensions>
      </trkpt>
      <trkpt lat="37.95537558384239673614501953125" lon="-107.1064885519444942474365234375">
        <ele>3967</ele>
        <time>2026-01-06T19:34:57.000Z</time>
        <extensions>
          <ns3:TrackPointExtension>
            <ns3:hr>99</ns3:hr>
            <ns3:cad>0</ns3:cad>
          </ns3:TrackPointExtension>
        </extensions>
      </trkpt>
      <trkpt lat="37.95537759549915790557861328125" lon="-107.10647824220359325408935546875">
        <ele>3967</ele>
        <time>2026-01-06T19:35:02.000Z</time>
        <extensions>
          <ns3:TrackPointExtension>
            <ns3:hr>100</ns3:hr>
            <ns3:cad>0</ns3:cad>
          </ns3:TrackPointExtension>
        </extensions>
      </trkpt>
      <trkpt lat="37.95537508092820644378662109375" lon="-107.10645644925534725189208984375">
        <ele>3967.800048828125</ele>
        <time>2026-01-06T19:35:08.000Z</time>
        <extensions>
          <ns3:TrackPointExtension>
            <ns3:hr>99</ns3:hr>
            <ns3:cad>0</ns3:cad>
          </ns3:TrackPointExtension>
        </extensions>
      </trkpt>
      <trkpt lat="37.95537491329014301300048828125" lon="-107.10644982755184173583984375">
        <ele>3968</ele>
        <time>2026-01-06T19:35:09.000Z</time>
        <extensions>
          <ns3:TrackPointExtension>
            <ns3:hr>99</ns3:hr>
            <ns3:cad>0</ns3:cad>
          </ns3:TrackPointExtension>
        </extensions>
      </trkpt>
      <trkpt lat="37.95537457801401615142822265625" lon="-107.10643448866903781890869140625">
        <ele>3968.60009765625</ele>
        <time>2026-01-06T19:35:15.000Z</time>
        <extensions>
          <ns3:TrackPointExtension>
            <ns3:hr>99</ns3:hr>
            <ns3:cad>0</ns3:cad>
          </ns3:TrackPointExtension>
        </extensions>
      </trkpt>
      <trkpt lat="37.95537524856626987457275390625" lon="-107.10643432103097438812255859375">
        <ele>3968.800048828125</ele>
        <time>2026-01-06T19:35:16.000Z</time>
        <extensions>
          <ns3:TrackPointExtension>
            <ns3:hr>99</ns3:hr>
            <ns3:cad>0</ns3:cad>
          </ns3:TrackPointExtension>
        </extensions>
      </trkpt>
      <trkpt lat="37.95537474565207958221435546875" lon="-107.10642971098423004150390625">
        <ele>3969</ele>
        <time>2026-01-06T19:35:17.000Z</time>
        <extensions>
          <ns3:TrackPointExtension>
            <ns3:hr>100</ns3:hr>
            <ns3:cad>0</ns3:cad>
          </ns3:TrackPointExtension>
        </extensions>
      </trkpt>
      <trkpt lat="37.95536938123404979705810546875" lon="-107.10639576427638530731201171875">
        <ele>3969.800048828125</ele>
        <time>2026-01-06T19:35:23.000Z</time>
        <extensions>
          <ns3:TrackPointExtension>
            <ns3:hr>99</ns3:hr>
            <ns3:cad>0</ns3:cad>
          </ns3:TrackPointExtension>
        </extensions>
      </trkpt>
      <trkpt lat="37.95537047088146209716796875" lon="-107.1063950099050998687744140625">
        <ele>3970</ele>
        <time>2026-01-06T19:35:24.000Z</time>
        <extensions>
          <ns3:TrackPointExtension>
            <ns3:hr>99</ns3:hr>
            <ns3:cad>0</ns3:cad>
          </ns3:TrackPointExtension>
        </extensions>
      </trkpt>
      <trkpt lat="37.955372147262096405029296875" lon="-107.10636709816753864288330078125">
        <ele>3971</ele>
        <time>2026-01-06T19:35:30.000Z</time>
        <extensions>
          <ns3:TrackPointExtension>
            <ns3:hr>101</ns3:hr>
            <ns3:cad>0</ns3:cad>
          </ns3:TrackPointExtension>
        </extensions>
      </trkpt>
      <trkpt lat="37.95537189580500125885009765625" lon="-107.1063574589788913726806640625">
        <ele>3971.199951171875</ele>
        <time>2026-01-06T19:35:34.000Z</time>
        <extensions>
          <ns3:TrackPointExtension>
            <ns3:hr>100</ns3:hr>
            <ns3:cad>0</ns3:cad>
          </ns3:TrackPointExtension>
        </extensions>
      </trkpt>
      <trkpt lat="37.955372147262096405029296875" lon="-107.10635636933147907257080078125">
        <ele>3971.39990234375</ele>
        <time>2026-01-06T19:35:36.000Z</time>
        <extensions>
          <ns3:TrackPointExtension>
            <ns3:hr>101</ns3:hr>
            <ns3:cad>0</ns3:cad>
          </ns3:TrackPointExtension>
        </extensions>
      </trkpt>
      <trkpt lat="37.955377511680126190185546875" lon="-107.1063410304486751556396484375">
        <ele>3972.199951171875</ele>
        <time>2026-01-06T19:35:41.000Z</time>
        <extensions>
          <ns3:TrackPointExtension>
            <ns3:hr>103</ns3:hr>
            <ns3:cad>0</ns3:cad>
          </ns3:TrackPointExtension>
        </extensions>
      </trkpt>
      <trkpt lat="37.955376841127872467041015625" lon="-107.106339521706104278564453125">
        <ele>3972.39990234375</ele>
        <time>2026-01-06T19:35:42.000Z</time>
        <extensions>
          <ns3:TrackPointExtension>
            <ns3:hr>104</ns3:hr>
            <ns3:cad>0</ns3:cad>
          </ns3:TrackPointExtension>
        </extensions>
      </trkpt>
      <trkpt lat="37.95537491329014301300048828125" lon="-107.1063276194036006927490234375">
        <ele>3972.60009765625</ele>
        <time>2026-01-06T19:35:48.000Z</time>
        <extensions>
          <ns3:TrackPointExtension>
            <ns3:hr>106</ns3:hr>
            <ns3:cad>0</ns3:cad>
          </ns3:TrackPointExtension>
        </extensions>
      </trkpt>
      <trkpt lat="37.95537524856626987457275390625" lon="-107.106327451765537261962890625">
        <ele>3972.800048828125</ele>
        <time>2026-01-06T19:35:49.000Z</time>
        <extensions>
          <ns3:TrackPointExtension>
            <ns3:hr>106</ns3:hr>
            <ns3:cad>0</ns3:cad>
          </ns3:TrackPointExtension>
        </extensions>
      </trkpt>
      <trkpt lat="37.95537575148046016693115234375" lon="-107.10630725137889385223388671875">
        <ele>3973.199951171875</ele>
        <time>2026-01-06T19:35:52.000Z</time>
        <extensions>
          <ns3:TrackPointExtension>
            <ns3:hr>104</ns3:hr>
            <ns3:cad>0</ns3:cad>
          </ns3:TrackPointExtension>
        </extensions>
      </trkpt>
      <trkpt lat="37.9553837142884731292724609375" lon="-107.1062749810516834259033203125">
        <ele>3974</ele>
        <time>2026-01-06T19:35:57.000Z</time>
        <extensions>
          <ns3:TrackPointExtension>
            <ns3:hr>102</ns3:hr>
            <ns3:cad>0</ns3:cad>
          </ns3:TrackPointExtension>
        </extensions>
      </trkpt>
      <trkpt lat="37.9553894139826297760009765625" lon="-107.106257379055023193359375">
        <ele>3974.199951171875</ele>
        <time>2026-01-06T19:35:59.000Z</time>
        <extensions>
          <ns3:TrackPointExtension>
            <ns3:hr>102</ns3:hr>
            <ns3:cad>0</ns3:cad>
          </ns3:TrackPointExtension>
        </extensions>
      </trkpt>
      <trkpt lat="37.95539603568613529205322265625" lon="-107.106235921382904052734375">
        <ele>3974.60009765625</ele>
        <time>2026-01-06T19:36:03.000Z</time>
        <extensions>
          <ns3:TrackPointExtension>
            <ns3:hr>101</ns3:hr>
            <ns3:cad>0</ns3:cad>
          </ns3:TrackPointExtension>
        </extensions>
      </trkpt>
      <trkpt lat="37.95540332794189453125" lon="-107.10622661747038364410400390625">
        <ele>3975.39990234375</ele>
        <time>2026-01-06T19:36:09.000Z</time>
        <extensions>
          <ns3:TrackPointExtension>
            <ns3:hr>101</ns3:hr>
            <ns3:cad>0</ns3:cad>
          </ns3:TrackPointExtension>
        </extensions>
      </trkpt>
      <trkpt lat="37.95540709979832172393798828125" lon="-107.10622175596654415130615234375">
        <ele>3976.39990234375</ele>
        <time>2026-01-06T19:36:15.000Z</time>
        <extensions>
          <ns3:TrackPointExtension>
            <ns3:hr>102</ns3:hr>
            <ns3:cad>0</ns3:cad>
          </ns3:TrackPointExtension>
        </extensions>
      </trkpt>
      <trkpt lat="37.955410368740558624267578125" lon="-107.10621840320527553558349609375">
        <ele>3976.199951171875</ele>
        <time>2026-01-06T19:36:16.000Z</time>
        <extensions>
          <ns3:TrackPointExtension>
            <ns3:hr>103</ns3:hr>
            <ns3:cad>0</ns3:cad>
          </ns3:TrackPointExtension>
        </extensions>
      </trkpt>
      <trkpt lat="37.95541397295892238616943359375" lon="-107.10620566271245479583740234375">
        <ele>3976.60009765625</ele>
        <time>2026-01-06T19:36:20.000Z</time>
        <extensions>
          <ns3:TrackPointExtension>
            <ns3:hr>103</ns3:hr>
            <ns3:cad>0</ns3:cad>
          </ns3:TrackPointExtension>
        </extensions>
      </trkpt>
      <trkpt lat="37.95541481114923954010009765625" lon="-107.10620029829442501068115234375">
        <ele>3976.800048828125</ele>
        <time>2026-01-06T19:36:21.000Z</time>
        <extensions>
          <ns3:TrackPointExtension>
            <ns3:hr>103</ns3:hr>
            <ns3:cad>0</ns3:cad>
          </ns3:TrackPointExtension>
        </extensions>
      </trkpt>
      <trkpt lat="37.9554226063191890716552734375" lon="-107.10617867298424243927001953125">
        <ele>3977.60009765625</ele>
        <time>2026-01-06T19:36:27.000Z</time>
        <extensions>
          <ns3:TrackPointExtension>
            <ns3:hr>103</ns3:hr>
            <ns3:cad>0</ns3:cad>
          </ns3:TrackPointExtension>
        </extensions>
      </trkpt>
      <trkpt lat="37.95542143285274505615234375" lon="-107.10616978816688060760498046875">
        <ele>3977.800048828125</ele>
        <time>2026-01-06T19:36:29.000Z</time>
        <extensions>
          <ns3:TrackPointExtension>
            <ns3:hr>102</ns3:hr>
            <ns3:cad>0</ns3:cad>
          </ns3:TrackPointExtension>
        </extensions>
      </trkpt>
      <trkpt lat="37.95541598461568355560302734375" lon="-107.10617280565202236175537109375">
        <ele>3978.60009765625</ele>
        <time>2026-01-06T19:36:34.000Z</time>
        <extensions>
          <ns3:TrackPointExtension>
            <ns3:hr>105</ns3:hr>
            <ns3:cad>0</ns3:cad>
          </ns3:TrackPointExtension>
        </extensions>
      </trkpt>
      <trkpt lat="37.95541598461568355560302734375" lon="-107.10617280565202236175537109375">
        <ele>3978.39990234375</ele>
        <time>2026-01-06T19:36:40.000Z</time>
        <extensions>
          <ns3:TrackPointExtension>
            <ns3:hr>104</ns3:hr>
            <ns3:cad>0</ns3:cad>
          </ns3:TrackPointExtension>
        </extensions>
      </trkpt>
      <trkpt lat="37.95541598461568355560302734375" lon="-107.10617280565202236175537109375">
        <ele>3978.60009765625</ele>
        <time>2026-01-06T19:36:45.000Z</time>
        <extensions>
          <ns3:TrackPointExtension>
            <ns3:hr>108</ns3:hr>
            <ns3:cad>0</ns3:cad>
          </ns3:TrackPointExtension>
        </extensions>
      </trkpt>
      <trkpt lat="37.95541598461568355560302734375" lon="-107.10617280565202236175537109375">
        <ele>3978.60009765625</ele>
        <time>2026-01-06T19:36:46.000Z</time>
        <extensions>
          <ns3:TrackPointExtension>
            <ns3:hr>114</ns3:hr>
            <ns3:cad>0</ns3:cad>
          </ns3:TrackPointExtension>
        </extensions>
      </trkpt>
      <trkpt lat="37.95541598461568355560302734375" lon="-107.10617280565202236175537109375">
        <ele>3978.39990234375</ele>
        <time>2026-01-06T19:36:47.000Z</time>
        <extensions>
          <ns3:TrackPointExtension>
            <ns3:hr>139</ns3:hr>
            <ns3:cad>0</ns3:cad>
          </ns3:TrackPointExtension>
        </extensions>
      </trkpt>
      <trkpt lat="37.95541598461568355560302734375" lon="-107.10617280565202236175537109375">
        <ele>3978.39990234375</ele>
        <time>2026-01-06T19:36:48.000Z</time>
        <extensions>
          <ns3:TrackPointExtension>
            <ns3:hr>145</ns3:hr>
            <ns3:cad>0</ns3:cad>
          </ns3:TrackPointExtension>
        </extensions>
      </trkpt>
      <trkpt lat="37.95541598461568355560302734375" lon="-107.10617280565202236175537109375">
        <ele>3978.199951171875</ele>
        <time>2026-01-06T19:36:49.000Z</time>
        <extensions>
          <ns3:TrackPointExtension>
            <ns3:hr>145</ns3:hr>
            <ns3:cad>0</ns3:cad>
          </ns3:TrackPointExtension>
        </extensions>
      </trkpt>
      <trkpt lat="37.95541900210082530975341796875" lon="-107.106167189776897430419921875">
        <ele>3978.60009765625</ele>
        <time>2026-01-06T19:36:55.000Z</time>
        <extensions>
          <ns3:TrackPointExtension>
            <ns3:hr>144</ns3:hr>
            <ns3:cad>0</ns3:cad>
          </ns3:TrackPointExtension>
        </extensions>
      </trkpt>
      <trkpt lat="37.95542302541434764862060546875" lon="-107.1061566285789012908935546875">
        <ele>3978.800048828125</ele>
        <time>2026-01-06T19:36:57.000Z</time>
        <extensions>
          <ns3:TrackPointExtension>
            <ns3:hr>144</ns3:hr>
            <ns3:cad>0</ns3:cad>
          </ns3:TrackPointExtension>
        </extensions>
      </trkpt>
      <trkpt lat="37.95542151667177677154541015625" lon="-107.10612435825169086456298828125">
        <ele>3979.800048828125</ele>
        <time>2026-01-06T19:37:03.000Z</time>
        <extensions>
          <ns3:TrackPointExtension>
            <ns3:hr>144</ns3:hr>
            <ns3:cad>0</ns3:cad>
          </ns3:TrackPointExtension>
        </extensions>
      </trkpt>
      <trkpt lat="37.95542235486209392547607421875" lon="-107.1061207540333271026611328125">
        <ele>3980</ele>
        <time>2026-01-06T19:37:04.000Z</time>
        <extensions>
          <ns3:TrackPointExtension>
            <ns3:hr>144</ns3:hr>
            <ns3:cad>0</ns3:cad>
          </ns3:TrackPointExtension>
        </extensions>
      </trkpt>
      <trkpt lat="37.95542067848145961761474609375" lon="-107.106110863387584686279296875">
        <ele>3980.800048828125</ele>
        <time>2026-01-06T19:37:10.000Z</time>
        <extensions>
          <ns3:TrackPointExtension>
            <ns3:hr>144</ns3:hr>
            <ns3:cad>0</ns3:cad>
          </ns3:TrackPointExtension>
        </extensions>
      </trkpt>
      <trkpt lat="37.95542151667177677154541015625" lon="-107.10611044429242610931396484375">
        <ele>3981</ele>
        <time>2026-01-06T19:37:11.000Z</time>
        <extensions>
          <ns3:TrackPointExtension>
            <ns3:hr>144</ns3:hr>
            <ns3:cad>0</ns3:cad>
          </ns3:TrackPointExtension>
        </extensions>
      </trkpt>
      <trkpt lat="37.9554229415953159332275390625" lon="-107.1060597337782382965087890625">
        <ele>3981.800048828125</ele>
        <time>2026-01-06T19:37:17.000Z</time>
        <extensions>
          <ns3:TrackPointExtension>
            <ns3:hr>142</ns3:hr>
            <ns3:cad>0</ns3:cad>
          </ns3:TrackPointExtension>
        </extensions>
      </trkpt>
      <trkpt lat="37.95542168430984020233154296875" lon="-107.10605780594050884246826171875">
        <ele>3982</ele>
        <time>2026-01-06T19:37:18.000Z</time>
        <extensions>
          <ns3:TrackPointExtension>
            <ns3:hr>141</ns3:hr>
            <ns3:cad>0</ns3:cad>
          </ns3:TrackPointExtension>
        </extensions>
      </trkpt>
      <trkpt lat="37.95542218722403049468994140625" lon="-107.10605730302631855010986328125">
        <ele>3982.199951171875</ele>
        <time>2026-01-06T19:37:19.000Z</time>
        <extensions>
          <ns3:TrackPointExtension>
            <ns3:hr>141</ns3:hr>
            <ns3:cad>0</ns3:cad>
          </ns3:TrackPointExtension>
        </extensions>
      </trkpt>
      <trkpt lat="37.95542486943304538726806640625" lon="-107.1060516871511936187744140625">
        <ele>3982.800048828125</ele>
        <time>2026-01-06T19:37:23.000Z</time>
        <extensions>
          <ns3:TrackPointExtension>
            <ns3:hr>141</ns3:hr>
            <ns3:cad>0</ns3:cad>
          </ns3:TrackPointExtension>
        </extensions>
      </trkpt>
      <trkpt lat="37.95542403124272823333740234375" lon="-107.10604020394384860992431640625">
        <ele>3983.39990234375</ele>
        <time>2026-01-06T19:37:28.000Z</time>
        <extensions>
          <ns3:TrackPointExtension>
            <ns3:hr>142</ns3:hr>
            <ns3:cad>0</ns3:cad>
          </ns3:TrackPointExtension>
        </extensions>
      </trkpt>
      <trkpt lat="37.95542503707110881805419921875" lon="-107.106022350490093231201171875">
        <ele>3983.800048828125</ele>
        <time>2026-01-06T19:37:30.000Z</time>
        <extensions>
          <ns3:TrackPointExtension>
            <ns3:hr>142</ns3:hr>
            <ns3:cad>0</ns3:cad>
          </ns3:TrackPointExtension>
        </extensions>
      </trkpt>
      <trkpt lat="37.95543408952653408050537109375" lon="-107.10598647594451904296875">
        <ele>3984.60009765625</ele>
        <time>2026-01-06T19:37:35.000Z</time>
        <extensions>
          <ns3:TrackPointExtension>
            <ns3:hr>141</ns3:hr>
            <ns3:cad>0</ns3:cad>
          </ns3:TrackPointExtension>
        </extensions>
      </trkpt>
      <trkpt lat="37.9554329998791217803955078125" lon="-107.10598823614418506622314453125">
        <ele>3985</ele>
        <time>2026-01-06T19:37:37.000Z</time>
        <extensions>
          <ns3:TrackPointExtension>
            <ns3:hr>142</ns3:hr>
            <ns3:cad>0</ns3:cad>
          </ns3:TrackPointExtension>
        </extensions>
      </trkpt>
      <trkpt lat="37.95544113032519817352294921875" lon="-107.10596912540495395660400390625">
        <ele>3985.60009765625</ele>
        <time>2026-01-06T19:37:42.000Z</time>
        <extensions>
          <ns3:TrackPointExtension>
            <ns3:hr>145</ns3:hr>
            <ns3:cad>0</ns3:cad>
          </ns3:TrackPointExtension>
        </extensions>
      </trkpt>
      <trkpt lat="37.95544163323938846588134765625" lon="-107.1059641800820827484130859375">
        <ele>3985.800048828125</ele>
        <time>2026-01-06T19:37:43.000Z</time>
        <extensions>
          <ns3:TrackPointExtension>
            <ns3:hr>144</ns3:hr>
            <ns3:cad>0</ns3:cad>
          </ns3:TrackPointExtension>
        </extensions>
      </trkpt>
      <trkpt lat="37.955444566905498504638671875" lon="-107.105941884219646453857421875">
        <ele>3986.39990234375</ele>
        <time>2026-01-06T19:37:49.000Z</time>
        <extensions>
          <ns3:TrackPointExtension>
            <ns3:hr>142</ns3:hr>
            <ns3:cad>0</ns3:cad>
          </ns3:TrackPointExtension>
        </extensions>
      </trkpt>
      <trkpt lat="37.95544967986643314361572265625" lon="-107.10591229610145092010498046875">
        <ele>3987</ele>
        <time>2026-01-06T19:37:53.000Z</time>
        <extensions>
          <ns3:TrackPointExtension>
            <ns3:hr>142</ns3:hr>
            <ns3:cad>0</ns3:cad>
          </ns3:TrackPointExtension>
        </extensions>
      </trkpt>
      <trkpt lat="37.95545403845608234405517578125" lon="-107.10590659640729427337646484375">
        <ele>3987.39990234375</ele>
        <time>2026-01-06T19:37:55.000Z</time>
        <extensions>
          <ns3:TrackPointExtension>
            <ns3:hr>141</ns3:hr>
            <ns3:cad>0</ns3:cad>
          </ns3:TrackPointExtension>
        </extensions>
      </trkpt>
      <trkpt lat="37.95545521192252635955810546875" lon="-107.10590424947440624237060546875">
        <ele>3987.60009765625</ele>
        <time>2026-01-06T19:38:01.000Z</time>
        <extensions>
          <ns3:TrackPointExtension>
            <ns3:hr>140</ns3:hr>
            <ns3:cad>0</ns3:cad>
          </ns3:TrackPointExtension>
        </extensions>
      </trkpt>
      <trkpt lat="37.95546409673988819122314453125" lon="-107.10590341128408908843994140625">
        <ele>3987.60009765625</ele>
        <time>2026-01-06T19:38:02.000Z</time>
        <extensions>
          <ns3:TrackPointExtension>
            <ns3:hr>140</ns3:hr>
            <ns3:cad>0</ns3:cad>
          </ns3:TrackPointExtension>
        </extensions>
      </trkpt>
      <trkpt lat="37.9554799385368824005126953125" lon="-107.10588061250746250152587890625">
        <ele>3988.39990234375</ele>
        <time>2026-01-06T19:38:07.000Z</time>
        <extensions>
          <ns3:TrackPointExtension>
            <ns3:hr>139</ns3:hr>
            <ns3:cad>0</ns3:cad>
          </ns3:TrackPointExtension>
        </extensions>
      </trkpt>
      <trkpt lat="37.955482788383960723876953125" lon="-107.1058736555278301239013671875">
        <ele>3988.60009765625</ele>
        <time>2026-01-06T19:38:08.000Z</time>
        <extensions>
          <ns3:TrackPointExtension>
            <ns3:hr>138</ns3:hr>
            <ns3:cad>0</ns3:cad>
          </ns3:TrackPointExtension>
        </extensions>
      </trkpt>
      <trkpt lat="37.955484129488468170166015625" lon="-107.10587021894752979278564453125">
        <ele>3989.39990234375</ele>
        <time>2026-01-06T19:38:12.000Z</time>
        <extensions>
          <ns3:TrackPointExtension>
            <ns3:hr>138</ns3:hr>
            <ns3:cad>0</ns3:cad>
          </ns3:TrackPointExtension>
        </extensions>
      </trkpt>
      <trkpt lat="37.955483458936214447021484375" lon="-107.10587206296622753143310546875">
        <ele>3989.800048828125</ele>
        <time>2026-01-06T19:38:15.000Z</time>
        <extensions>
          <ns3:TrackPointExtension>
            <ns3:hr>138</ns3:hr>
            <ns3:cad>0</ns3:cad>
          </ns3:TrackPointExtension>
        </extensions>
      </trkpt>
      <trkpt lat="37.95548404566943645477294921875" lon="-107.10585546679794788360595703125">
        <ele>3990.60009765625</ele>
        <time>2026-01-06T19:38:19.000Z</time>
        <extensions>
          <ns3:TrackPointExtension>
            <ns3:hr>139</ns3:hr>
            <ns3:cad>0</ns3:cad>
          </ns3:TrackPointExtension>
        </extensions>
      </trkpt>
      <trkpt lat="37.955480106174945831298828125" lon="-107.10584700107574462890625">
        <ele>3990.60009765625</ele>
        <time>2026-01-06T19:38:21.000Z</time>
        <extensions>
          <ns3:TrackPointExtension>
            <ns3:hr>140</ns3:hr>
            <ns3:cad>0</ns3:cad>
          </ns3:TrackPointExtension>
        </extensions>
      </trkpt>
      <trkpt lat="37.95548035763204097747802734375" lon="-107.105846665799617767333984375">
        <ele>3991.199951171875</ele>
        <time>2026-01-06T19:38:27.000Z</time>
        <extensions>
          <ns3:TrackPointExtension>
            <ns3:hr>141</ns3:hr>
            <ns3:cad>0</ns3:cad>
          </ns3:TrackPointExtension>
        </extensions>
      </trkpt>
      <trkpt lat="37.95548035763204097747802734375" lon="-107.105846665799617767333984375">
        <ele>3991.199951171875</ele>
        <time>2026-01-06T19:38:30.000Z</time>
        <extensions>
          <ns3:TrackPointExtension>
            <ns3:hr>143</ns3:hr>
            <ns3:cad>0</ns3:cad>
          </ns3:TrackPointExtension>
        </extensions>
      </trkpt>
      <trkpt lat="37.95548773370683193206787109375" lon="-107.105820514261722564697265625">
        <ele>3991.60009765625</ele>
        <time>2026-01-06T19:38:34.000Z</time>
        <extensions>
          <ns3:TrackPointExtension>
            <ns3:hr>143</ns3:hr>
            <ns3:cad>0</ns3:cad>
          </ns3:TrackPointExtension>
        </extensions>
      </trkpt>
      <trkpt lat="37.95548756606876850128173828125" lon="-107.105820178985595703125">
        <ele>3992</ele>
        <time>2026-01-06T19:38:36.000Z</time>
        <extensions>
          <ns3:TrackPointExtension>
            <ns3:hr>143</ns3:hr>
            <ns3:cad>0</ns3:cad>
          </ns3:TrackPointExtension>
        </extensions>
      </trkpt>
      <trkpt lat="37.95549125410616397857666015625" lon="-107.10579880513250827789306640625">
        <ele>3992.60009765625</ele>
        <time>2026-01-06T19:38:41.000Z</time>
        <extensions>
          <ns3:TrackPointExtension>
            <ns3:hr>144</ns3:hr>
            <ns3:cad>0</ns3:cad>
          </ns3:TrackPointExtension>
        </extensions>
      </trkpt>
      <trkpt lat="37.95549460686743259429931640625" lon="-107.1057898364961147308349609375">
        <ele>3993.39990234375</ele>
        <time>2026-01-06T19:38:44.000Z</time>
        <extensions>
          <ns3:TrackPointExtension>
            <ns3:hr>144</ns3:hr>
            <ns3:cad>0</ns3:cad>
          </ns3:TrackPointExtension>
        </extensions>
      </trkpt>
      <trkpt lat="37.95549578033387660980224609375" lon="-107.1057868190109729766845703125">
        <ele>3993.800048828125</ele>
        <time>2026-01-06T19:38:46.000Z</time>
        <extensions>
          <ns3:TrackPointExtension>
            <ns3:hr>145</ns3:hr>
            <ns3:cad>0</ns3:cad>
          </ns3:TrackPointExtension>
        </extensions>
      </trkpt>
      <trkpt lat="37.95549695380032062530517578125" lon="-107.10577650927007198333740234375">
        <ele>3994.39990234375</ele>
        <time>2026-01-06T19:38:50.000Z</time>
        <extensions>
          <ns3:TrackPointExtension>
            <ns3:hr>145</ns3:hr>
            <ns3:cad>0</ns3:cad>
          </ns3:TrackPointExtension>
        </extensions>
      </trkpt>
      <trkpt lat="37.95549695380032062530517578125" lon="-107.10577650927007198333740234375">
        <ele>3994.199951171875</ele>
        <time>2026-01-06T19:38:56.000Z</time>
        <extensions>
          <ns3:TrackPointExtension>
            <ns3:hr>146</ns3:hr>
            <ns3:cad>0</ns3:cad>
          </ns3:TrackPointExtension>
        </extensions>
      </trkpt>
      <trkpt lat="37.95549946837127208709716796875" lon="-107.105764858424663543701171875">
        <ele>3994.60009765625</ele>
        <time>2026-01-06T19:39:02.000Z</time>
        <extensions>
          <ns3:TrackPointExtension>
            <ns3:hr>146</ns3:hr>
            <ns3:cad>0</ns3:cad>
          </ns3:TrackPointExtension>
        </extensions>
      </trkpt>
      <trkpt lat="37.95550055801868438720703125" lon="-107.10575790144503116607666015625">
        <ele>3994.800048828125</ele>
        <time>2026-01-06T19:39:03.000Z</time>
        <extensions>
          <ns3:TrackPointExtension>
            <ns3:hr>146</ns3:hr>
            <ns3:cad>0</ns3:cad>
          </ns3:TrackPointExtension>
        </extensions>
      </trkpt>
      <trkpt lat="37.9555003903806209564208984375" lon="-107.1057509444653987884521484375">
        <ele>3995</ele>
        <time>2026-01-06T19:39:04.000Z</time>
        <extensions>
          <ns3:TrackPointExtension>
            <ns3:hr>146</ns3:hr>
            <ns3:cad>0</ns3:cad>
          </ns3:TrackPointExtension>
        </extensions>
      </trkpt>
      <trkpt lat="37.95549846254289150238037109375" lon="-107.1057348512113094329833984375">
        <ele>3995.60009765625</ele>
        <time>2026-01-06T19:39:09.000Z</time>
        <extensions>
          <ns3:TrackPointExtension>
            <ns3:hr>145</ns3:hr>
            <ns3:cad>0</ns3:cad>
          </ns3:TrackPointExtension>
        </extensions>
      </trkpt>
      <trkpt lat="37.9555039107799530029296875" lon="-107.105709873139858245849609375">
        <ele>3996</ele>
        <time>2026-01-06T19:39:15.000Z</time>
        <extensions>
          <ns3:TrackPointExtension>
            <ns3:hr>146</ns3:hr>
            <ns3:cad>0</ns3:cad>
          </ns3:TrackPointExtension>
        </extensions>
      </trkpt>
      <trkpt lat="37.9555034078657627105712890625" lon="-107.105704843997955322265625">
        <ele>3996.199951171875</ele>
        <time>2026-01-06T19:39:16.000Z</time>
        <extensions>
          <ns3:TrackPointExtension>
            <ns3:hr>146</ns3:hr>
            <ns3:cad>0</ns3:cad>
          </ns3:TrackPointExtension>
        </extensions>
      </trkpt>
      <trkpt lat="37.95550483278930187225341796875" lon="-107.10569067858159542083740234375">
        <ele>3997.199951171875</ele>
        <time>2026-01-06T19:39:22.000Z</time>
        <extensions>
          <ns3:TrackPointExtension>
            <ns3:hr>148</ns3:hr>
            <ns3:cad>0</ns3:cad>
          </ns3:TrackPointExtension>
        </extensions>
      </trkpt>
      <trkpt lat="37.95550483278930187225341796875" lon="-107.10569067858159542083740234375">
        <ele>3997.39990234375</ele>
        <time>2026-01-06T19:39:25.000Z</time>
        <extensions>
          <ns3:TrackPointExtension>
            <ns3:hr>148</ns3:hr>
            <ns3:cad>0</ns3:cad>
          </ns3:TrackPointExtension>
        </extensions>
      </trkpt>
      <trkpt lat="37.95549997128546237945556640625" lon="-107.10567425005137920379638671875">
        <ele>3998.199951171875</ele>
        <time>2026-01-06T19:39:29.000Z</time>
        <extensions>
          <ns3:TrackPointExtension>
            <ns3:hr>149</ns3:hr>
            <ns3:cad>0</ns3:cad>
          </ns3:TrackPointExtension>
        </extensions>
      </trkpt>
      <trkpt lat="37.95549879781901836395263671875" lon="-107.10565916262567043304443359375">
        <ele>3998.60009765625</ele>
        <time>2026-01-06T19:39:31.000Z</time>
        <extensions>
          <ns3:TrackPointExtension>
            <ns3:hr>148</ns3:hr>
            <ns3:cad>0</ns3:cad>
          </ns3:TrackPointExtension>
        </extensions>
      </trkpt>
      <trkpt lat="37.95549779199063777923583984375" lon="-107.10564273409545421600341796875">
        <ele>3999.39990234375</ele>
        <time>2026-01-06T19:39:34.000Z</time>
        <extensions>
          <ns3:TrackPointExtension>
            <ns3:hr>147</ns3:hr>
            <ns3:cad>0</ns3:cad>
          </ns3:TrackPointExtension>
        </extensions>
      </trkpt>
      <trkpt lat="37.9554977081716060638427734375" lon="-107.10563166998326778411865234375">
        <ele>3999.60009765625</ele>
        <time>2026-01-06T19:39:38.000Z</time>
        <extensions>
          <ns3:TrackPointExtension>
            <ns3:hr>147</ns3:hr>
            <ns3:cad>0</ns3:cad>
          </ns3:TrackPointExtension>
        </extensions>
      </trkpt>
      <trkpt lat="37.95550282113254070281982421875" lon="-107.10562965832650661468505859375">
        <ele>4000</ele>
        <time>2026-01-06T19:39:44.000Z</time>
        <extensions>
          <ns3:TrackPointExtension>
            <ns3:hr>146</ns3:hr>
            <ns3:cad>0</ns3:cad>
          </ns3:TrackPointExtension>
        </extensions>
      </trkpt>
      <trkpt lat="37.95550600625574588775634765625" lon="-107.105617336928844451904296875">
        <ele>4000.39990234375</ele>
        <time>2026-01-06T19:39:46.000Z</time>
        <extensions>
          <ns3:TrackPointExtension>
            <ns3:hr>146</ns3:hr>
            <ns3:cad>0</ns3:cad>
          </ns3:TrackPointExtension>
        </extensions>
      </trkpt>
      <trkpt lat="37.95550583861768245697021484375" lon="-107.10561188869178295135498046875">
        <ele>4001.199951171875</ele>
        <time>2026-01-06T19:39:50.000Z</time>
        <extensions>
          <ns3:TrackPointExtension>
            <ns3:hr>145</ns3:hr>
            <ns3:cad>0</ns3:cad>
          </ns3:TrackPointExtension>
        </extensions>
      </trkpt>
      <trkpt lat="37.95550466515123844146728515625" lon="-107.1056015789508819580078125">
        <ele>4001.39990234375</ele>
        <time>2026-01-06T19:39:51.000Z</time>
        <extensions>
          <ns3:TrackPointExtension>
            <ns3:hr>145</ns3:hr>
            <ns3:cad>0</ns3:cad>
          </ns3:TrackPointExtension>
        </extensions>
      </trkpt>
      <trkpt lat="37.9555067606270313262939453125" lon="-107.10557031445205211639404296875">
        <ele>4002</ele>
        <time>2026-01-06T19:39:56.000Z</time>
        <extensions>
          <ns3:TrackPointExtension>
            <ns3:hr>142</ns3:hr>
            <ns3:cad>0</ns3:cad>
          </ns3:TrackPointExtension>
        </extensions>
      </trkpt>
      <trkpt lat="37.9555144719779491424560546875" lon="-107.105540223419666290283203125">
        <ele>4002.39990234375</ele>
        <time>2026-01-06T19:40:02.000Z</time>
        <extensions>
          <ns3:TrackPointExtension>
            <ns3:hr>139</ns3:hr>
            <ns3:cad>0</ns3:cad>
          </ns3:TrackPointExtension>
        </extensions>
      </trkpt>
      <trkpt lat="37.9555241949856281280517578125" lon="-107.1055175922811031341552734375">
        <ele>4003.60009765625</ele>
        <time>2026-01-06T19:40:07.000Z</time>
        <extensions>
          <ns3:TrackPointExtension>
            <ns3:hr>141</ns3:hr>
            <ns3:cad>0</ns3:cad>
          </ns3:TrackPointExtension>
        </extensions>
      </trkpt>
      <trkpt lat="37.95552763156592845916748046875" lon="-107.10551239550113677978515625">
        <ele>4003.39990234375</ele>
        <time>2026-01-06T19:40:09.000Z</time>
        <extensions>
          <ns3:TrackPointExtension>
            <ns3:hr>142</ns3:hr>
            <ns3:cad>0</ns3:cad>
          </ns3:TrackPointExtension>
        </extensions>
      </trkpt>
      <trkpt lat="37.95553534291684627532958984375" lon="-107.1054998226463794708251953125">
        <ele>4004</ele>
        <time>2026-01-06T19:40:15.000Z</time>
        <extensions>
          <ns3:TrackPointExtension>
            <ns3:hr>143</ns3:hr>
            <ns3:cad>0</ns3:cad>
          </ns3:TrackPointExtension>
        </extensions>
      </trkpt>
      <trkpt lat="37.95553601346909999847412109375" lon="-107.105495296418666839599609375">
        <ele>4004</ele>
        <time>2026-01-06T19:40:16.000Z</time>
        <extensions>
          <ns3:TrackPointExtension>
            <ns3:hr>143</ns3:hr>
            <ns3:cad>0</ns3:cad>
          </ns3:TrackPointExtension>
        </extensions>
      </trkpt>
      <trkpt lat="37.9555402882397174835205078125" lon="-107.1054552309215068817138671875">
        <ele>4004.60009765625</ele>
        <time>2026-01-06T19:40:22.000Z</time>
        <extensions>
          <ns3:TrackPointExtension>
            <ns3:hr>145</ns3:hr>
            <ns3:cad>0</ns3:cad>
          </ns3:TrackPointExtension>
        </extensions>
      </trkpt>
      <trkpt lat="37.95554347336292266845703125" lon="-107.10543201304972171783447265625">
        <ele>4005</ele>
        <time>2026-01-06T19:40:28.000Z</time>
        <extensions>
          <ns3:TrackPointExtension>
            <ns3:hr>147</ns3:hr>
            <ns3:cad>0</ns3:cad>
          </ns3:TrackPointExtension>
        </extensions>
      </trkpt>
      <trkpt lat="37.955544479191303253173828125" lon="-107.105427570641040802001953125">
        <ele>4005.39990234375</ele>
        <time>2026-01-06T19:40:29.000Z</time>
        <extensions>
          <ns3:TrackPointExtension>
            <ns3:hr>147</ns3:hr>
            <ns3:cad>0</ns3:cad>
          </ns3:TrackPointExtension>
        </extensions>
      </trkpt>
      <trkpt lat="37.95554213225841522216796875" lon="-107.10543134249746799468994140625">
        <ele>4005.60009765625</ele>
        <time>2026-01-06T19:40:30.000Z</time>
        <extensions>
          <ns3:TrackPointExtension>
            <ns3:hr>147</ns3:hr>
            <ns3:cad>0</ns3:cad>
          </ns3:TrackPointExtension>
        </extensions>
      </trkpt>
      <trkpt lat="37.9555392824113368988037109375" lon="-107.1054156683385372161865234375">
        <ele>4006.60009765625</ele>
        <time>2026-01-06T19:40:34.000Z</time>
        <extensions>
          <ns3:TrackPointExtension>
            <ns3:hr>148</ns3:hr>
            <ns3:cad>0</ns3:cad>
          </ns3:TrackPointExtension>
        </extensions>
      </trkpt>
      <trkpt lat="37.95554347336292266845703125" lon="-107.1054123155772686004638671875">
        <ele>4006.60009765625</ele>
        <time>2026-01-06T19:40:35.000Z</time>
        <extensions>
          <ns3:TrackPointExtension>
            <ns3:hr>148</ns3:hr>
            <ns3:cad>0</ns3:cad>
          </ns3:TrackPointExtension>
        </extensions>
      </trkpt>
      <trkpt lat="37.9555456526577472686767578125" lon="-107.1054146625101566314697265625">
        <ele>4006.199951171875</ele>
        <time>2026-01-06T19:40:41.000Z</time>
        <extensions>
          <ns3:TrackPointExtension>
            <ns3:hr>146</ns3:hr>
            <ns3:cad>0</ns3:cad>
          </ns3:TrackPointExtension>
        </extensions>
      </trkpt>
      <trkpt lat="37.9555456526577472686767578125" lon="-107.1054146625101566314697265625">
        <ele>4006.199951171875</ele>
        <time>2026-01-06T19:40:42.000Z</time>
        <extensions>
          <ns3:TrackPointExtension>
            <ns3:hr>147</ns3:hr>
            <ns3:cad>0</ns3:cad>
          </ns3:TrackPointExtension>
        </extensions>
      </trkpt>
      <trkpt lat="37.95554858632385730743408203125" lon="-107.1054163388907909393310546875">
        <ele>4006.800048828125</ele>
        <time>2026-01-06T19:40:48.000Z</time>
        <extensions>
          <ns3:TrackPointExtension>
            <ns3:hr>146</ns3:hr>
            <ns3:cad>0</ns3:cad>
          </ns3:TrackPointExtension>
        </extensions>
      </trkpt>
      <trkpt lat="37.955553866922855377197265625" lon="-107.105404101312160491943359375">
        <ele>4007.39990234375</ele>
        <time>2026-01-06T19:40:52.000Z</time>
        <extensions>
          <ns3:TrackPointExtension>
            <ns3:hr>145</ns3:hr>
            <ns3:cad>0</ns3:cad>
          </ns3:TrackPointExtension>
        </extensions>
      </trkpt>
      <trkpt lat="37.95555143617093563079833984375" lon="-107.10537719540297985076904296875">
        <ele>4007.800048828125</ele>
        <time>2026-01-06T19:40:56.000Z</time>
        <extensions>
          <ns3:TrackPointExtension>
            <ns3:hr>143</ns3:hr>
            <ns3:cad>0</ns3:cad>
          </ns3:TrackPointExtension>
        </extensions>
      </trkpt>
      <trkpt lat="37.95555151998996734619140625" lon="-107.10537694394588470458984375">
        <ele>4008.39990234375</ele>
        <time>2026-01-06T19:40:59.000Z</time>
        <extensions>
          <ns3:TrackPointExtension>
            <ns3:hr>141</ns3:hr>
            <ns3:cad>0</ns3:cad>
          </ns3:TrackPointExtension>
        </extensions>
      </trkpt>
      <trkpt lat="37.95555696822702884674072265625" lon="-107.1053543128073215484619140625">
        <ele>4008.800048828125</ele>
        <time>2026-01-06T19:41:03.000Z</time>
        <extensions>
          <ns3:TrackPointExtension>
            <ns3:hr>139</ns3:hr>
            <ns3:cad>0</ns3:cad>
          </ns3:TrackPointExtension>
        </extensions>
      </trkpt>
      <trkpt lat="37.95555864460766315460205078125" lon="-107.105347774922847747802734375">
        <ele>4010</ele>
        <time>2026-01-06T19:41:06.000Z</time>
        <extensions>
          <ns3:TrackPointExtension>
            <ns3:hr>138</ns3:hr>
            <ns3:cad>0</ns3:cad>
          </ns3:TrackPointExtension>
        </extensions>
      </trkpt>
      <trkpt lat="37.9555604048073291778564453125" lon="-107.1053469367325305938720703125">
        <ele>4010.39990234375</ele>
        <time>2026-01-06T19:41:07.000Z</time>
        <extensions>
          <ns3:TrackPointExtension>
            <ns3:hr>138</ns3:hr>
            <ns3:cad>0</ns3:cad>
          </ns3:TrackPointExtension>
        </extensions>
      </trkpt>
      <trkpt lat="37.95556090772151947021484375" lon="-107.10533176548779010772705078125">
        <ele>4010.800048828125</ele>
        <time>2026-01-06T19:41:13.000Z</time>
        <extensions>
          <ns3:TrackPointExtension>
            <ns3:hr>139</ns3:hr>
            <ns3:cad>0</ns3:cad>
          </ns3:TrackPointExtension>
        </extensions>
      </trkpt>
      <trkpt lat="37.955553866922855377197265625" lon="-107.10533277131617069244384765625">
        <ele>4011.199951171875</ele>
        <time>2026-01-06T19:41:15.000Z</time>
        <extensions>
          <ns3:TrackPointExtension>
            <ns3:hr>139</ns3:hr>
            <ns3:cad>0</ns3:cad>
          </ns3:TrackPointExtension>
        </extensions>
      </trkpt>
      <trkpt lat="37.9555567167699337005615234375" lon="-107.1053038537502288818359375">
        <ele>4011.39990234375</ele>
        <time>2026-01-06T19:41:21.000Z</time>
        <extensions>
          <ns3:TrackPointExtension>
            <ns3:hr>139</ns3:hr>
            <ns3:cad>0</ns3:cad>
          </ns3:TrackPointExtension>
        </extensions>
      </trkpt>
      <trkpt lat="37.95556015335023403167724609375" lon="-107.10529907606542110443115234375">
        <ele>4011.800048828125</ele>
        <time>2026-01-06T19:41:22.000Z</time>
        <extensions>
          <ns3:TrackPointExtension>
            <ns3:hr>139</ns3:hr>
            <ns3:cad>0</ns3:cad>
          </ns3:TrackPointExtension>
        </extensions>
      </trkpt>
      <trkpt lat="37.95556250028312206268310546875" lon="-107.105302847921848297119140625">
        <ele>4012.199951171875</ele>
        <time>2026-01-06T19:41:24.000Z</time>
        <extensions>
          <ns3:TrackPointExtension>
            <ns3:hr>138</ns3:hr>
            <ns3:cad>0</ns3:cad>
          </ns3:TrackPointExtension>
        </extensions>
      </trkpt>
      <trkpt lat="37.95556962490081787109375" lon="-107.10526102222502231597900390625">
        <ele>4013.39990234375</ele>
        <time>2026-01-06T19:41:30.000Z</time>
        <extensions>
          <ns3:TrackPointExtension>
            <ns3:hr>137</ns3:hr>
            <ns3:cad>0</ns3:cad>
          </ns3:TrackPointExtension>
        </extensions>
      </trkpt>
      <trkpt lat="37.955565266311168670654296875" lon="-107.105263285338878631591796875">
        <ele>4014.199951171875</ele>
        <time>2026-01-06T19:41:35.000Z</time>
        <extensions>
          <ns3:TrackPointExtension>
            <ns3:hr>137</ns3:hr>
            <ns3:cad>0</ns3:cad>
          </ns3:TrackPointExtension>
        </extensions>
      </trkpt>
      <trkpt lat="37.95556065626442432403564453125" lon="-107.10523855872452259063720703125">
        <ele>4014.39990234375</ele>
        <time>2026-01-06T19:41:41.000Z</time>
        <extensions>
          <ns3:TrackPointExtension>
            <ns3:hr>139</ns3:hr>
            <ns3:cad>0</ns3:cad>
          </ns3:TrackPointExtension>
        </extensions>
      </trkpt>
      <trkpt lat="37.95555914752185344696044921875" lon="-107.10523185320198535919189453125">
        <ele>4014.199951171875</ele>
        <time>2026-01-06T19:41:44.000Z</time>
        <extensions>
          <ns3:TrackPointExtension>
            <ns3:hr>140</ns3:hr>
            <ns3:cad>0</ns3:cad>
          </ns3:TrackPointExtension>
        </extensions>
      </trkpt>
      <trkpt lat="37.955553196370601654052734375" lon="-107.10522229783236980438232421875">
        <ele>4014.800048828125</ele>
        <time>2026-01-06T19:41:48.000Z</time>
        <extensions>
          <ns3:TrackPointExtension>
            <ns3:hr>144</ns3:hr>
            <ns3:cad>0</ns3:cad>
          </ns3:TrackPointExtension>
        </extensions>
      </trkpt>
      <trkpt lat="37.955549843609333038330078125" lon="-107.10521274246275424957275390625">
        <ele>4015.199951171875</ele>
        <time>2026-01-06T19:41:53.000Z</time>
        <extensions>
          <ns3:TrackPointExtension>
            <ns3:hr>146</ns3:hr>
            <ns3:cad>0</ns3:cad>
          </ns3:TrackPointExtension>
        </extensions>
      </trkpt>
      <trkpt lat="37.95554104261100292205810546875" lon="-107.1051833219826221466064453125">
        <ele>4015.39990234375</ele>
        <time>2026-01-06T19:41:58.000Z</time>
        <extensions>
          <ns3:TrackPointExtension>
            <ns3:hr>149</ns3:hr>
            <ns3:cad>0</ns3:cad>
          </ns3:TrackPointExtension>
        </extensions>
      </trkpt>
      <trkpt lat="37.95554171316325664520263671875" lon="-107.10518038831651210784912109375">
        <ele>4015.39990234375</ele>
        <time>2026-01-06T19:41:59.000Z</time>
        <extensions>
          <ns3:TrackPointExtension>
            <ns3:hr>149</ns3:hr>
            <ns3:cad>0</ns3:cad>
          </ns3:TrackPointExtension>
        </extensions>
      </trkpt>
      <trkpt lat="37.955541796982288360595703125" lon="-107.10518005304038524627685546875">
        <ele>4016</ele>
        <time>2026-01-06T19:42:01.000Z</time>
        <extensions>
          <ns3:TrackPointExtension>
            <ns3:hr>150</ns3:hr>
            <ns3:cad>0</ns3:cad>
          </ns3:TrackPointExtension>
        </extensions>
      </trkpt>
      <trkpt lat="37.95553140342235565185546875" lon="-107.10514870472252368927001953125">
        <ele>4016.39990234375</ele>
        <time>2026-01-06T19:42:07.000Z</time>
        <extensions>
          <ns3:TrackPointExtension>
            <ns3:hr>151</ns3:hr>
            <ns3:cad>0</ns3:cad>
          </ns3:TrackPointExtension>
        </extensions>
      </trkpt>
      <trkpt lat="37.9555288888514041900634765625" lon="-107.1051561646163463592529296875">
        <ele>4016.800048828125</ele>
        <time>2026-01-06T19:42:08.000Z</time>
        <extensions>
          <ns3:TrackPointExtension>
            <ns3:hr>151</ns3:hr>
            <ns3:cad>0</ns3:cad>
          </ns3:TrackPointExtension>
        </extensions>
      </trkpt>
      <trkpt lat="37.95553115196526050567626953125" lon="-107.105159349739551544189453125">
        <ele>4017</ele>
        <time>2026-01-06T19:42:14.000Z</time>
        <extensions>
          <ns3:TrackPointExtension>
            <ns3:hr>150</ns3:hr>
            <ns3:cad>0</ns3:cad>
          </ns3:TrackPointExtension>
        </extensions>
      </trkpt>
      <trkpt lat="37.95553115196526050567626953125" lon="-107.105159349739551544189453125">
        <ele>4017</ele>
        <time>2026-01-06T19:42:18.000Z</time>
        <extensions>
          <ns3:TrackPointExtension>
            <ns3:hr>150</ns3:hr>
            <ns3:cad>0</ns3:cad>
          </ns3:TrackPointExtension>
        </extensions>
      </trkpt>
      <trkpt lat="37.95553115196526050567626953125" lon="-107.105159349739551544189453125">
        <ele>4017.39990234375</ele>
        <time>2026-01-06T19:42:24.000Z</time>
        <extensions>
          <ns3:TrackPointExtension>
            <ns3:hr>149</ns3:hr>
            <ns3:cad>0</ns3:cad>
          </ns3:TrackPointExtension>
        </extensions>
      </trkpt>
      <trkpt lat="37.95553115196526050567626953125" lon="-107.105159349739551544189453125">
        <ele>4017.39990234375</ele>
        <time>2026-01-06T19:42:30.000Z</time>
        <extensions>
          <ns3:TrackPointExtension>
            <ns3:hr>148</ns3:hr>
            <ns3:cad>0</ns3:cad>
          </ns3:TrackPointExtension>
        </extensions>
      </trkpt>
      <trkpt lat="37.95553115196526050567626953125" lon="-107.105159349739551544189453125">
        <ele>4017.60009765625</ele>
        <time>2026-01-06T19:42:34.000Z</time>
        <extensions>
          <ns3:TrackPointExtension>
            <ns3:hr>145</ns3:hr>
            <ns3:cad>0</ns3:cad>
          </ns3:TrackPointExtension>
        </extensions>
      </trkpt>
      <trkpt lat="37.95553115196526050567626953125" lon="-107.105159349739551544189453125">
        <ele>4017.800048828125</ele>
        <time>2026-01-06T19:42:36.000Z</time>
        <extensions>
          <ns3:TrackPointExtension>
            <ns3:hr>145</ns3:hr>
            <ns3:cad>0</ns3:cad>
          </ns3:TrackPointExtension>
        </extensions>
      </trkpt>
      <trkpt lat="37.95553115196526050567626953125" lon="-107.105159349739551544189453125">
        <ele>4017.199951171875</ele>
        <time>2026-01-06T19:42:42.000Z</time>
        <extensions>
          <ns3:TrackPointExtension>
            <ns3:hr>144</ns3:hr>
            <ns3:cad>0</ns3:cad>
          </ns3:TrackPointExtension>
        </extensions>
      </trkpt>
      <trkpt lat="37.95553115196526050567626953125" lon="-107.105159349739551544189453125">
        <ele>4017.39990234375</ele>
        <time>2026-01-06T19:42:48.000Z</time>
        <extensions>
          <ns3:TrackPointExtension>
            <ns3:hr>148</ns3:hr>
            <ns3:cad>0</ns3:cad>
          </ns3:TrackPointExtension>
        </extensions>
      </trkpt>
      <trkpt lat="37.95553115196526050567626953125" lon="-107.105159349739551544189453125">
        <ele>4016.800048828125</ele>
        <time>2026-01-06T19:42:51.000Z</time>
        <extensions>
          <ns3:TrackPointExtension>
            <ns3:hr>147</ns3:hr>
            <ns3:cad>0</ns3:cad>
          </ns3:TrackPointExtension>
        </extensions>
      </trkpt>
      <trkpt lat="37.95553115196526050567626953125" lon="-107.105159349739551544189453125">
        <ele>4016.60009765625</ele>
        <time>2026-01-06T19:42:53.000Z</time>
        <extensions>
          <ns3:TrackPointExtension>
            <ns3:hr>147</ns3:hr>
            <ns3:cad>0</ns3:cad>
          </ns3:TrackPointExtension>
        </extensions>
      </trkpt>
      <trkpt lat="37.95551740564405918121337890625" lon="-107.10515792481601238250732421875">
        <ele>4016.60009765625</ele>
        <time>2026-01-06T19:42:58.000Z</time>
        <extensions>
          <ns3:TrackPointExtension>
            <ns3:hr>146</ns3:hr>
            <ns3:cad>0</ns3:cad>
          </ns3:TrackPointExtension>
        </extensions>
      </trkpt>
      <trkpt lat="37.955502569675445556640625" lon="-107.10512942634522914886474609375">
        <ele>4017.39990234375</ele>
        <time>2026-01-06T19:43:04.000Z</time>
        <extensions>
          <ns3:TrackPointExtension>
            <ns3:hr>145</ns3:hr>
            <ns3:cad>0</ns3:cad>
          </ns3:TrackPointExtension>
        </extensions>
      </trkpt>
      <trkpt lat="37.95549678616225719451904296875" lon="-107.105123810470104217529296875">
        <ele>4017.800048828125</ele>
        <time>2026-01-06T19:43:05.000Z</time>
        <extensions>
          <ns3:TrackPointExtension>
            <ns3:hr>145</ns3:hr>
            <ns3:cad>0</ns3:cad>
          </ns3:TrackPointExtension>
        </extensions>
      </trkpt>
      <trkpt lat="37.95546627603471279144287109375" lon="-107.10508885793387889862060546875">
        <ele>4018.199951171875</ele>
        <time>2026-01-06T19:43:11.000Z</time>
        <extensions>
          <ns3:TrackPointExtension>
            <ns3:hr>144</ns3:hr>
            <ns3:cad>0</ns3:cad>
          </ns3:TrackPointExtension>
        </extensions>
      </trkpt>
      <trkpt lat="37.955461330711841583251953125" lon="-107.105081565678119659423828125">
        <ele>4018.39990234375</ele>
        <time>2026-01-06T19:43:12.000Z</time>
        <extensions>
          <ns3:TrackPointExtension>
            <ns3:hr>144</ns3:hr>
            <ns3:cad>0</ns3:cad>
          </ns3:TrackPointExtension>
        </extensions>
      </trkpt>
      <trkpt lat="37.9554547928273677825927734375" lon="-107.105075530707836151123046875">
        <ele>4019</ele>
        <time>2026-01-06T19:43:15.000Z</time>
        <extensions>
          <ns3:TrackPointExtension>
            <ns3:hr>144</ns3:hr>
            <ns3:cad>0</ns3:cad>
          </ns3:TrackPointExtension>
        </extensions>
      </trkpt>
      <trkpt lat="37.9554470814764499664306640625" lon="-107.1050705015659332275390625">
        <ele>4019.60009765625</ele>
        <time>2026-01-06T19:43:18.000Z</time>
        <extensions>
          <ns3:TrackPointExtension>
            <ns3:hr>145</ns3:hr>
            <ns3:cad>0</ns3:cad>
          </ns3:TrackPointExtension>
        </extensions>
      </trkpt>
      <trkpt lat="37.95543878339231014251708984375" lon="-107.1050471998751163482666015625">
        <ele>4020</ele>
        <time>2026-01-06T19:43:24.000Z</time>
        <extensions>
          <ns3:TrackPointExtension>
            <ns3:hr>146</ns3:hr>
            <ns3:cad>0</ns3:cad>
          </ns3:TrackPointExtension>
        </extensions>
      </trkpt>
      <trkpt lat="37.95543727464973926544189453125" lon="-107.10504359565675258636474609375">
        <ele>4020.199951171875</ele>
        <time>2026-01-06T19:43:25.000Z</time>
        <extensions>
          <ns3:TrackPointExtension>
            <ns3:hr>146</ns3:hr>
            <ns3:cad>0</ns3:cad>
          </ns3:TrackPointExtension>
        </extensions>
      </trkpt>
      <trkpt lat="37.9554299823939800262451171875" lon="-107.1050297655165195465087890625">
        <ele>4021</ele>
        <time>2026-01-06T19:43:31.000Z</time>
        <extensions>
          <ns3:TrackPointExtension>
            <ns3:hr>148</ns3:hr>
            <ns3:cad>0</ns3:cad>
          </ns3:TrackPointExtension>
        </extensions>
      </trkpt>
      <trkpt lat="37.9554207623004913330078125" lon="-107.1050163544714450836181640625">
        <ele>4021.39990234375</ele>
        <time>2026-01-06T19:43:35.000Z</time>
        <extensions>
          <ns3:TrackPointExtension>
            <ns3:hr>147</ns3:hr>
            <ns3:cad>0</ns3:cad>
          </ns3:TrackPointExtension>
        </extensions>
      </trkpt>
      <trkpt lat="37.9554100334644317626953125" lon="-107.1049980819225311279296875">
        <ele>4022.199951171875</ele>
        <time>2026-01-06T19:43:40.000Z</time>
        <extensions>
          <ns3:TrackPointExtension>
            <ns3:hr>148</ns3:hr>
            <ns3:cad>0</ns3:cad>
          </ns3:TrackPointExtension>
        </extensions>
      </trkpt>
      <trkpt lat="37.9554088599979877471923828125" lon="-107.10499581880867481231689453125">
        <ele>4022.199951171875</ele>
        <time>2026-01-06T19:43:41.000Z</time>
        <extensions>
          <ns3:TrackPointExtension>
            <ns3:hr>148</ns3:hr>
            <ns3:cad>0</ns3:cad>
          </ns3:TrackPointExtension>
        </extensions>
      </trkpt>
      <trkpt lat="37.95540265738964080810546875" lon="-107.10499296896159648895263671875">
        <ele>4022.60009765625</ele>
        <time>2026-01-06T19:43:45.000Z</time>
        <extensions>
          <ns3:TrackPointExtension>
            <ns3:hr>151</ns3:hr>
            <ns3:cad>0</ns3:cad>
          </ns3:TrackPointExtension>
        </extensions>
      </trkpt>
      <trkpt lat="37.95540626160800457000732421875" lon="-107.10498844273388385772705078125">
        <ele>4023.39990234375</ele>
        <time>2026-01-06T19:43:48.000Z</time>
        <extensions>
          <ns3:TrackPointExtension>
            <ns3:hr>152</ns3:hr>
            <ns3:cad>0</ns3:cad>
          </ns3:TrackPointExtension>
        </extensions>
      </trkpt>
      <trkpt lat="37.95540492050349712371826171875" lon="-107.10496296174824237823486328125">
        <ele>4023.60009765625</ele>
        <time>2026-01-06T19:43:54.000Z</time>
        <extensions>
          <ns3:TrackPointExtension>
            <ns3:hr>154</ns3:hr>
            <ns3:cad>0</ns3:cad>
          </ns3:TrackPointExtension>
        </extensions>
      </trkpt>
      <trkpt lat="37.95540492050349712371826171875" lon="-107.10496296174824237823486328125">
        <ele>4024.199951171875</ele>
        <time>2026-01-06T19:44:00.000Z</time>
        <extensions>
          <ns3:TrackPointExtension>
            <ns3:hr>152</ns3:hr>
            <ns3:cad>0</ns3:cad>
          </ns3:TrackPointExtension>
        </extensions>
      </trkpt>
      <trkpt lat="37.95540492050349712371826171875" lon="-107.10496296174824237823486328125">
        <ele>4024.39990234375</ele>
        <time>2026-01-06T19:44:01.000Z</time>
        <extensions>
          <ns3:TrackPointExtension>
            <ns3:hr>152</ns3:hr>
            <ns3:cad>0</ns3:cad>
          </ns3:TrackPointExtension>
        </extensions>
      </trkpt>
      <trkpt lat="37.95540492050349712371826171875" lon="-107.10496296174824237823486328125">
        <ele>4024</ele>
        <time>2026-01-06T19:44:07.000Z</time>
        <extensions>
          <ns3:TrackPointExtension>
            <ns3:hr>152</ns3:hr>
            <ns3:cad>0</ns3:cad>
          </ns3:TrackPointExtension>
        </extensions>
      </trkpt>
      <trkpt lat="37.95540492050349712371826171875" lon="-107.10496296174824237823486328125">
        <ele>4024.199951171875</ele>
        <time>2026-01-06T19:44:09.000Z</time>
        <extensions>
          <ns3:TrackPointExtension>
            <ns3:hr>149</ns3:hr>
            <ns3:cad>0</ns3:cad>
          </ns3:TrackPointExtension>
        </extensions>
      </trkpt>
      <trkpt lat="37.95540441758930683135986328125" lon="-107.10495558567345142364501953125">
        <ele>4024.39990234375</ele>
        <time>2026-01-06T19:44:11.000Z</time>
        <extensions>
          <ns3:TrackPointExtension>
            <ns3:hr>146</ns3:hr>
            <ns3:cad>0</ns3:cad>
          </ns3:TrackPointExtension>
        </extensions>
      </trkpt>
      <trkpt lat="37.95540307648479938507080078125" lon="-107.104937396943569183349609375">
        <ele>4024.39990234375</ele>
        <time>2026-01-06T19:44:13.000Z</time>
        <extensions>
          <ns3:TrackPointExtension>
            <ns3:hr>146</ns3:hr>
            <ns3:cad>0</ns3:cad>
          </ns3:TrackPointExtension>
        </extensions>
      </trkpt>
      <trkpt lat="37.95540341176092624664306640625" lon="-107.10492993704974651336669921875">
        <ele>4024.800048828125</ele>
        <time>2026-01-06T19:44:19.000Z</time>
        <extensions>
          <ns3:TrackPointExtension>
            <ns3:hr>144</ns3:hr>
            <ns3:cad>0</ns3:cad>
          </ns3:TrackPointExtension>
        </extensions>
      </trkpt>
      <trkpt lat="37.95540575869381427764892578125" lon="-107.104911245405673980712890625">
        <ele>4025.39990234375</ele>
        <time>2026-01-06T19:44:22.000Z</time>
        <extensions>
          <ns3:TrackPointExtension>
            <ns3:hr>143</ns3:hr>
            <ns3:cad>0</ns3:cad>
          </ns3:TrackPointExtension>
        </extensions>
      </trkpt>
      <trkpt lat="37.95540894381701946258544921875" lon="-107.10489951074123382568359375">
        <ele>4025.60009765625</ele>
        <time>2026-01-06T19:44:23.000Z</time>
        <extensions>
          <ns3:TrackPointExtension>
            <ns3:hr>142</ns3:hr>
            <ns3:cad>0</ns3:cad>
          </ns3:TrackPointExtension>
        </extensions>
      </trkpt>
      <trkpt lat="37.9554071836173534393310546875" lon="-107.10488299839198589324951171875">
        <ele>4026</ele>
        <time>2026-01-06T19:44:26.000Z</time>
        <extensions>
          <ns3:TrackPointExtension>
            <ns3:hr>139</ns3:hr>
            <ns3:cad>0</ns3:cad>
          </ns3:TrackPointExtension>
        </extensions>
      </trkpt>
      <trkpt lat="37.9554061777889728546142578125" lon="-107.1048755384981632232666015625">
        <ele>4026.39990234375</ele>
        <time>2026-01-06T19:44:28.000Z</time>
        <extensions>
          <ns3:TrackPointExtension>
            <ns3:hr>138</ns3:hr>
            <ns3:cad>0</ns3:cad>
          </ns3:TrackPointExtension>
        </extensions>
      </trkpt>
      <trkpt lat="37.95540533959865570068359375" lon="-107.1048668213188648223876953125">
        <ele>4026.60009765625</ele>
        <time>2026-01-06T19:44:29.000Z</time>
        <extensions>
          <ns3:TrackPointExtension>
            <ns3:hr>138</ns3:hr>
            <ns3:cad>0</ns3:cad>
          </ns3:TrackPointExtension>
        </extensions>
      </trkpt>
      <trkpt lat="37.955400981009006500244140625" lon="-107.1048591099679470062255859375">
        <ele>4027.39990234375</ele>
        <time>2026-01-06T19:44:35.000Z</time>
        <extensions>
          <ns3:TrackPointExtension>
            <ns3:hr>135</ns3:hr>
            <ns3:cad>0</ns3:cad>
          </ns3:TrackPointExtension>
        </extensions>
      </trkpt>
      <trkpt lat="37.955400981009006500244140625" lon="-107.1048591099679470062255859375">
        <ele>4027.39990234375</ele>
        <time>2026-01-06T19:44:36.000Z</time>
        <extensions>
          <ns3:TrackPointExtension>
            <ns3:hr>134</ns3:hr>
            <ns3:cad>0</ns3:cad>
          </ns3:TrackPointExtension>
        </extensions>
      </trkpt>
      <trkpt lat="37.955399639904499053955078125" lon="-107.1048554219305515289306640625">
        <ele>4027.800048828125</ele>
        <time>2026-01-06T19:44:38.000Z</time>
        <extensions>
          <ns3:TrackPointExtension>
            <ns3:hr>134</ns3:hr>
            <ns3:cad>0</ns3:cad>
          </ns3:TrackPointExtension>
        </extensions>
      </trkpt>
      <trkpt lat="37.9553977958858013153076171875" lon="-107.10483673028647899627685546875">
        <ele>4028.39990234375</ele>
        <time>2026-01-06T19:44:43.000Z</time>
        <extensions>
          <ns3:TrackPointExtension>
            <ns3:hr>134</ns3:hr>
            <ns3:cad>0</ns3:cad>
          </ns3:TrackPointExtension>
        </extensions>
      </trkpt>
      <trkpt lat="37.95539771206676959991455078125" lon="-107.1048366464674472808837890625">
        <ele>4028.800048828125</ele>
        <time>2026-01-06T19:44:46.000Z</time>
        <extensions>
          <ns3:TrackPointExtension>
            <ns3:hr>135</ns3:hr>
            <ns3:cad>0</ns3:cad>
          </ns3:TrackPointExtension>
        </extensions>
      </trkpt>
      <trkpt lat="37.955395616590976715087890625" lon="-107.10480588488280773162841796875">
        <ele>4029.800048828125</ele>
        <time>2026-01-06T19:44:50.000Z</time>
        <extensions>
          <ns3:TrackPointExtension>
            <ns3:hr>135</ns3:hr>
            <ns3:cad>70</ns3:cad>
          </ns3:TrackPointExtension>
        </extensions>
      </trkpt>
      <trkpt lat="37.95539536513388156890869140625" lon="-107.1048051305115222930908203125">
        <ele>4030</ele>
        <time>2026-01-06T19:44:51.000Z</time>
        <extensions>
          <ns3:TrackPointExtension>
            <ns3:hr>135</ns3:hr>
            <ns3:cad>70</ns3:cad>
          </ns3:TrackPointExtension>
        </extensions>
      </trkpt>
      <trkpt lat="37.95539620332419872283935546875" lon="-107.10478560067713260650634765625">
        <ele>4030.800048828125</ele>
        <time>2026-01-06T19:44:57.000Z</time>
        <extensions>
          <ns3:TrackPointExtension>
            <ns3:hr>138</ns3:hr>
            <ns3:cad>0</ns3:cad>
          </ns3:TrackPointExtension>
        </extensions>
      </trkpt>
      <trkpt lat="37.95539435930550098419189453125" lon="-107.10478023625910282135009765625">
        <ele>4031.199951171875</ele>
        <time>2026-01-06T19:44:58.000Z</time>
        <extensions>
          <ns3:TrackPointExtension>
            <ns3:hr>139</ns3:hr>
            <ns3:cad>0</ns3:cad>
          </ns3:TrackPointExtension>
        </extensions>
      </trkpt>
      <trkpt lat="37.95539720915257930755615234375" lon="-107.10477436892688274383544921875">
        <ele>4031.60009765625</ele>
        <time>2026-01-06T19:45:01.000Z</time>
        <extensions>
          <ns3:TrackPointExtension>
            <ns3:hr>142</ns3:hr>
            <ns3:cad>0</ns3:cad>
          </ns3:TrackPointExtension>
        </extensions>
      </trkpt>
      <trkpt lat="37.955405004322528839111328125" lon="-107.10476196371018886566162109375">
        <ele>4032</ele>
        <time>2026-01-06T19:45:05.000Z</time>
        <extensions>
          <ns3:TrackPointExtension>
            <ns3:hr>144</ns3:hr>
            <ns3:cad>0</ns3:cad>
          </ns3:TrackPointExtension>
        </extensions>
      </trkpt>
      <trkpt lat="37.9554061777889728546142578125" lon="-107.1047555096447467803955078125">
        <ele>4032.199951171875</ele>
        <time>2026-01-06T19:45:06.000Z</time>
        <extensions>
          <ns3:TrackPointExtension>
            <ns3:hr>144</ns3:hr>
            <ns3:cad>0</ns3:cad>
          </ns3:TrackPointExtension>
        </extensions>
      </trkpt>
      <trkpt lat="37.95541430823504924774169921875" lon="-107.10472826845943927764892578125">
        <ele>4033</ele>
        <time>2026-01-06T19:45:12.000Z</time>
        <extensions>
          <ns3:TrackPointExtension>
            <ns3:hr>145</ns3:hr>
            <ns3:cad>0</ns3:cad>
          </ns3:TrackPointExtension>
        </extensions>
      </trkpt>
      <trkpt lat="37.95541564933955669403076171875" lon="-107.10472726263105869293212890625">
        <ele>4033.199951171875</ele>
        <time>2026-01-06T19:45:13.000Z</time>
        <extensions>
          <ns3:TrackPointExtension>
            <ns3:hr>145</ns3:hr>
            <ns3:cad>0</ns3:cad>
          </ns3:TrackPointExtension>
        </extensions>
      </trkpt>
      <trkpt lat="37.9554145596921443939208984375" lon="-107.10472625680267810821533203125">
        <ele>4033.39990234375</ele>
        <time>2026-01-06T19:45:14.000Z</time>
        <extensions>
          <ns3:TrackPointExtension>
            <ns3:hr>146</ns3:hr>
            <ns3:cad>0</ns3:cad>
          </ns3:TrackPointExtension>
        </extensions>
      </trkpt>
      <trkpt lat="37.95540525577962398529052734375" lon="-107.1047260053455829620361328125">
        <ele>4034</ele>
        <time>2026-01-06T19:45:19.000Z</time>
        <extensions>
          <ns3:TrackPointExtension>
            <ns3:hr>146</ns3:hr>
            <ns3:cad>0</ns3:cad>
          </ns3:TrackPointExtension>
        </extensions>
      </trkpt>
      <trkpt lat="37.95540492050349712371826171875" lon="-107.10469256155192852020263671875">
        <ele>4034.199951171875</ele>
        <time>2026-01-06T19:45:25.000Z</time>
        <extensions>
          <ns3:TrackPointExtension>
            <ns3:hr>145</ns3:hr>
            <ns3:cad>0</ns3:cad>
          </ns3:TrackPointExtension>
        </extensions>
      </trkpt>
      <trkpt lat="37.9554051719605922698974609375" lon="-107.104685269296169281005859375">
        <ele>4034.60009765625</ele>
        <time>2026-01-06T19:45:26.000Z</time>
        <extensions>
          <ns3:TrackPointExtension>
            <ns3:hr>145</ns3:hr>
            <ns3:cad>0</ns3:cad>
          </ns3:TrackPointExtension>
        </extensions>
      </trkpt>
      <trkpt lat="37.95540802180767059326171875" lon="-107.10466925986111164093017578125">
        <ele>4035.60009765625</ele>
        <time>2026-01-06T19:45:31.000Z</time>
        <extensions>
          <ns3:TrackPointExtension>
            <ns3:hr>147</ns3:hr>
            <ns3:cad>0</ns3:cad>
          </ns3:TrackPointExtension>
        </extensions>
      </trkpt>
      <trkpt lat="37.9554118774831295013427734375" lon="-107.1046656556427478790283203125">
        <ele>4036</ele>
        <time>2026-01-06T19:45:32.000Z</time>
        <extensions>
          <ns3:TrackPointExtension>
            <ns3:hr>148</ns3:hr>
            <ns3:cad>0</ns3:cad>
          </ns3:TrackPointExtension>
        </extensions>
      </trkpt>
      <trkpt lat="37.9554128833115100860595703125" lon="-107.1046498976647853851318359375">
        <ele>4036.199951171875</ele>
        <time>2026-01-06T19:45:36.000Z</time>
        <extensions>
          <ns3:TrackPointExtension>
            <ns3:hr>145</ns3:hr>
            <ns3:cad>0</ns3:cad>
          </ns3:TrackPointExtension>
        </extensions>
      </trkpt>
      <trkpt lat="37.95541263185441493988037109375" lon="-107.10464470088481903076171875">
        <ele>4036.39990234375</ele>
        <time>2026-01-06T19:45:37.000Z</time>
        <extensions>
          <ns3:TrackPointExtension>
            <ns3:hr>145</ns3:hr>
            <ns3:cad>0</ns3:cad>
          </ns3:TrackPointExtension>
        </extensions>
      </trkpt>
      <trkpt lat="37.955415733158588409423828125" lon="-107.1046395041048526763916015625">
        <ele>4036.800048828125</ele>
        <time>2026-01-06T19:45:39.000Z</time>
        <extensions>
          <ns3:TrackPointExtension>
            <ns3:hr>145</ns3:hr>
            <ns3:cad>0</ns3:cad>
          </ns3:TrackPointExtension>
        </extensions>
      </trkpt>
      <trkpt lat="37.955427132546901702880859375" lon="-107.104602120816707611083984375">
        <ele>4037</ele>
        <time>2026-01-06T19:45:45.000Z</time>
        <extensions>
          <ns3:TrackPointExtension>
            <ns3:hr>142</ns3:hr>
            <ns3:cad>0</ns3:cad>
          </ns3:TrackPointExtension>
        </extensions>
      </trkpt>
      <trkpt lat="37.95542906038463115692138671875" lon="-107.1045962534844875335693359375">
        <ele>4037.199951171875</ele>
        <time>2026-01-06T19:45:47.000Z</time>
        <extensions>
          <ns3:TrackPointExtension>
            <ns3:hr>136</ns3:hr>
            <ns3:cad>0</ns3:cad>
          </ns3:TrackPointExtension>
        </extensions>
      </trkpt>
      <trkpt lat="37.95542956329882144927978515625" lon="-107.1045962534844875335693359375">
        <ele>4037.39990234375</ele>
        <time>2026-01-06T19:45:48.000Z</time>
        <extensions>
          <ns3:TrackPointExtension>
            <ns3:hr>133</ns3:hr>
            <ns3:cad>0</ns3:cad>
          </ns3:TrackPointExtension>
        </extensions>
      </trkpt>
      <trkpt lat="37.9554355144500732421875" lon="-107.10458778776228427886962890625">
        <ele>4038</ele>
        <time>2026-01-06T19:45:51.000Z</time>
        <extensions>
          <ns3:TrackPointExtension>
            <ns3:hr>131</ns3:hr>
            <ns3:cad>0</ns3:cad>
          </ns3:TrackPointExtension>
        </extensions>
      </trkpt>
      <trkpt lat="37.95544263906776905059814453125" lon="-107.1045694313943386077880859375">
        <ele>4038.60009765625</ele>
        <time>2026-01-06T19:45:57.000Z</time>
        <extensions>
          <ns3:TrackPointExtension>
            <ns3:hr>130</ns3:hr>
            <ns3:cad>0</ns3:cad>
          </ns3:TrackPointExtension>
        </extensions>
      </trkpt>
      <trkpt lat="37.95544951222836971282958984375" lon="-107.1045432798564434051513671875">
        <ele>4039</ele>
        <time>2026-01-06T19:46:02.000Z</time>
        <extensions>
          <ns3:TrackPointExtension>
            <ns3:hr>130</ns3:hr>
            <ns3:cad>0</ns3:cad>
          </ns3:TrackPointExtension>
        </extensions>
      </trkpt>
      <trkpt lat="37.95545135624706745147705078125" lon="-107.10453380830585956573486328125">
        <ele>4039.800048828125</ele>
        <time>2026-01-06T19:46:05.000Z</time>
        <extensions>
          <ns3:TrackPointExtension>
            <ns3:hr>130</ns3:hr>
            <ns3:cad>0</ns3:cad>
          </ns3:TrackPointExtension>
        </extensions>
      </trkpt>
      <trkpt lat="37.9554511047899723052978515625" lon="-107.10452995263040065765380859375">
        <ele>4040</ele>
        <time>2026-01-06T19:46:06.000Z</time>
        <extensions>
          <ns3:TrackPointExtension>
            <ns3:hr>131</ns3:hr>
            <ns3:cad>0</ns3:cad>
          </ns3:TrackPointExtension>
        </extensions>
      </trkpt>
      <trkpt lat="37.9554588161408901214599609375" lon="-107.104497849941253662109375">
        <ele>4041</ele>
        <time>2026-01-06T19:46:12.000Z</time>
        <extensions>
          <ns3:TrackPointExtension>
            <ns3:hr>129</ns3:hr>
            <ns3:cad>0</ns3:cad>
          </ns3:TrackPointExtension>
        </extensions>
      </trkpt>
      <trkpt lat="37.955459654331207275390625" lon="-107.10449424572288990020751953125">
        <ele>4041.60009765625</ele>
        <time>2026-01-06T19:46:18.000Z</time>
        <extensions>
          <ns3:TrackPointExtension>
            <ns3:hr>128</ns3:hr>
            <ns3:cad>0</ns3:cad>
          </ns3:TrackPointExtension>
        </extensions>
      </trkpt>
      <trkpt lat="37.955459654331207275390625" lon="-107.10449424572288990020751953125">
        <ele>4041.60009765625</ele>
        <time>2026-01-06T19:46:20.000Z</time>
        <extensions>
          <ns3:TrackPointExtension>
            <ns3:hr>129</ns3:hr>
            <ns3:cad>0</ns3:cad>
          </ns3:TrackPointExtension>
        </extensions>
      </trkpt>
      <trkpt lat="37.955459654331207275390625" lon="-107.10449424572288990020751953125">
        <ele>4041.800048828125</ele>
        <time>2026-01-06T19:46:26.000Z</time>
        <extensions>
          <ns3:TrackPointExtension>
            <ns3:hr>129</ns3:hr>
            <ns3:cad>0</ns3:cad>
          </ns3:TrackPointExtension>
        </extensions>
      </trkpt>
      <trkpt lat="37.955459654331207275390625" lon="-107.10449424572288990020751953125">
        <ele>4041.800048828125</ele>
        <time>2026-01-06T19:46:29.000Z</time>
        <extensions>
          <ns3:TrackPointExtension>
            <ns3:hr>133</ns3:hr>
            <ns3:cad>0</ns3:cad>
          </ns3:TrackPointExtension>
        </extensions>
      </trkpt>
      <trkpt lat="37.955459654331207275390625" lon="-107.10449424572288990020751953125">
        <ele>4041.60009765625</ele>
        <time>2026-01-06T19:46:34.000Z</time>
        <extensions>
          <ns3:TrackPointExtension>
            <ns3:hr>133</ns3:hr>
            <ns3:cad>0</ns3:cad>
          </ns3:TrackPointExtension>
        </extensions>
      </trkpt>
      <trkpt lat="37.955459654331207275390625" lon="-107.10449424572288990020751953125">
        <ele>4041.800048828125</ele>
        <time>2026-01-06T19:46:40.000Z</time>
        <extensions>
          <ns3:TrackPointExtension>
            <ns3:hr>134</ns3:hr>
            <ns3:cad>0</ns3:cad>
          </ns3:TrackPointExtension>
        </extensions>
      </trkpt>
      <trkpt lat="37.955459654331207275390625" lon="-107.10449424572288990020751953125">
        <ele>4041.800048828125</ele>
        <time>2026-01-06T19:46:46.000Z</time>
        <extensions>
          <ns3:TrackPointExtension>
            <ns3:hr>135</ns3:hr>
            <ns3:cad>0</ns3:cad>
          </ns3:TrackPointExtension>
        </extensions>
      </trkpt>
      <trkpt lat="37.955459654331207275390625" lon="-107.10449424572288990020751953125">
        <ele>4042</ele>
        <time>2026-01-06T19:46:47.000Z</time>
        <extensions>
          <ns3:TrackPointExtension>
            <ns3:hr>134</ns3:hr>
            <ns3:cad>0</ns3:cad>
          </ns3:TrackPointExtension>
        </extensions>
      </trkpt>
      <trkpt lat="37.955459654331207275390625" lon="-107.10449424572288990020751953125">
        <ele>4042.199951171875</ele>
        <time>2026-01-06T19:46:48.000Z</time>
        <extensions>
          <ns3:TrackPointExtension>
            <ns3:hr>134</ns3:hr>
            <ns3:cad>0</ns3:cad>
          </ns3:TrackPointExtension>
        </extensions>
      </trkpt>
      <trkpt lat="37.955459654331207275390625" lon="-107.10449424572288990020751953125">
        <ele>4042</ele>
        <time>2026-01-06T19:46:52.000Z</time>
        <extensions>
          <ns3:TrackPointExtension>
            <ns3:hr>137</ns3:hr>
            <ns3:cad>0</ns3:cad>
          </ns3:TrackPointExtension>
        </extensions>
      </trkpt>
      <trkpt lat="37.955459654331207275390625" lon="-107.10449424572288990020751953125">
        <ele>4042.800048828125</ele>
        <time>2026-01-06T19:46:58.000Z</time>
        <extensions>
          <ns3:TrackPointExtension>
            <ns3:hr>137</ns3:hr>
            <ns3:cad>0</ns3:cad>
          </ns3:TrackPointExtension>
        </extensions>
      </trkpt>
      <trkpt lat="37.955459654331207275390625" lon="-107.10449424572288990020751953125">
        <ele>4042.199951171875</ele>
        <time>2026-01-06T19:47:03.000Z</time>
        <extensions>
          <ns3:TrackPointExtension>
            <ns3:hr>140</ns3:hr>
            <ns3:cad>0</ns3:cad>
          </ns3:TrackPointExtension>
        </extensions>
      </trkpt>
      <trkpt lat="37.955459654331207275390625" lon="-107.10449424572288990020751953125">
        <ele>4042</ele>
        <time>2026-01-06T19:47:04.000Z</time>
        <extensions>
          <ns3:TrackPointExtension>
            <ns3:hr>140</ns3:hr>
            <ns3:cad>0</ns3:cad>
          </ns3:TrackPointExtension>
        </extensions>
      </trkpt>
      <trkpt lat="37.955459654331207275390625" lon="-107.10449424572288990020751953125">
        <ele>4041.60009765625</ele>
        <time>2026-01-06T19:47:09.000Z</time>
        <extensions>
          <ns3:TrackPointExtension>
            <ns3:hr>143</ns3:hr>
            <ns3:cad>0</ns3:cad>
          </ns3:TrackPointExtension>
        </extensions>
      </trkpt>
      <trkpt lat="37.955459654331207275390625" lon="-107.10449424572288990020751953125">
        <ele>4041.800048828125</ele>
        <time>2026-01-06T19:47:12.000Z</time>
        <extensions>
          <ns3:TrackPointExtension>
            <ns3:hr>145</ns3:hr>
            <ns3:cad>0</ns3:cad>
          </ns3:TrackPointExtension>
        </extensions>
      </trkpt>
      <trkpt lat="37.955459654331207275390625" lon="-107.10449424572288990020751953125">
        <ele>4042.199951171875</ele>
        <time>2026-01-06T19:47:18.000Z</time>
        <extensions>
          <ns3:TrackPointExtension>
            <ns3:hr>145</ns3:hr>
            <ns3:cad>0</ns3:cad>
          </ns3:TrackPointExtension>
        </extensions>
      </trkpt>
      <trkpt lat="37.955459654331207275390625" lon="-107.10449424572288990020751953125">
        <ele>4041.800048828125</ele>
        <time>2026-01-06T19:47:23.000Z</time>
        <extensions>
          <ns3:TrackPointExtension>
            <ns3:hr>146</ns3:hr>
            <ns3:cad>0</ns3:cad>
          </ns3:TrackPointExtension>
        </extensions>
      </trkpt>
      <trkpt lat="37.955459654331207275390625" lon="-107.10449424572288990020751953125">
        <ele>4041.60009765625</ele>
        <time>2026-01-06T19:47:29.000Z</time>
        <extensions>
          <ns3:TrackPointExtension>
            <ns3:hr>147</ns3:hr>
            <ns3:cad>0</ns3:cad>
          </ns3:TrackPointExtension>
        </extensions>
      </trkpt>
      <trkpt lat="37.955459654331207275390625" lon="-107.10449424572288990020751953125">
        <ele>4042.199951171875</ele>
        <time>2026-01-06T19:47:35.000Z</time>
        <extensions>
          <ns3:TrackPointExtension>
            <ns3:hr>146</ns3:hr>
            <ns3:cad>0</ns3:cad>
          </ns3:TrackPointExtension>
        </extensions>
      </trkpt>
      <trkpt lat="37.955459654331207275390625" lon="-107.10449424572288990020751953125">
        <ele>4042.199951171875</ele>
        <time>2026-01-06T19:47:36.000Z</time>
        <extensions>
          <ns3:TrackPointExtension>
            <ns3:hr>146</ns3:hr>
            <ns3:cad>0</ns3:cad>
          </ns3:TrackPointExtension>
        </extensions>
      </trkpt>
      <trkpt lat="37.955459654331207275390625" lon="-107.10449424572288990020751953125">
        <ele>4042</ele>
        <time>2026-01-06T19:47:42.000Z</time>
        <extensions>
          <ns3:TrackPointExtension>
            <ns3:hr>145</ns3:hr>
            <ns3:cad>0</ns3:cad>
          </ns3:TrackPointExtension>
        </extensions>
      </trkpt>
      <trkpt lat="37.95545789413154125213623046875" lon="-107.10449659265577793121337890625">
        <ele>4041.60009765625</ele>
        <time>2026-01-06T19:47:46.000Z</time>
        <extensions>
          <ns3:TrackPointExtension>
            <ns3:hr>145</ns3:hr>
            <ns3:cad>0</ns3:cad>
          </ns3:TrackPointExtension>
        </extensions>
      </trkpt>
      <trkpt lat="37.955459654331207275390625" lon="-107.10449424572288990020751953125">
        <ele>4042.39990234375</ele>
        <time>2026-01-06T19:47:51.000Z</time>
        <extensions>
          <ns3:TrackPointExtension>
            <ns3:hr>144</ns3:hr>
            <ns3:cad>0</ns3:cad>
          </ns3:TrackPointExtension>
        </extensions>
      </trkpt>
      <trkpt lat="37.955459654331207275390625" lon="-107.10449424572288990020751953125">
        <ele>4041.800048828125</ele>
        <time>2026-01-06T19:47:57.000Z</time>
        <extensions>
          <ns3:TrackPointExtension>
            <ns3:hr>142</ns3:hr>
            <ns3:cad>0</ns3:cad>
          </ns3:TrackPointExtension>
        </extensions>
      </trkpt>
      <trkpt lat="37.955459654331207275390625" lon="-107.10449424572288990020751953125">
        <ele>4042.199951171875</ele>
        <time>2026-01-06T19:48:00.000Z</time>
        <extensions>
          <ns3:TrackPointExtension>
            <ns3:hr>143</ns3:hr>
            <ns3:cad>0</ns3:cad>
          </ns3:TrackPointExtension>
        </extensions>
      </trkpt>
      <trkpt lat="37.955459654331207275390625" lon="-107.10449424572288990020751953125">
        <ele>4042.199951171875</ele>
        <time>2026-01-06T19:48:05.000Z</time>
        <extensions>
          <ns3:TrackPointExtension>
            <ns3:hr>140</ns3:hr>
            <ns3:cad>0</ns3:cad>
          </ns3:TrackPointExtension>
        </extensions>
      </trkpt>
      <trkpt lat="37.955459654331207275390625" lon="-107.10449424572288990020751953125">
        <ele>4042.199951171875</ele>
        <time>2026-01-06T19:48:06.000Z</time>
        <extensions>
          <ns3:TrackPointExtension>
            <ns3:hr>135</ns3:hr>
            <ns3:cad>0</ns3:cad>
          </ns3:TrackPointExtension>
        </extensions>
      </trkpt>
      <trkpt lat="37.955459654331207275390625" lon="-107.10449424572288990020751953125">
        <ele>4042.199951171875</ele>
        <time>2026-01-06T19:48:07.000Z</time>
        <extensions>
          <ns3:TrackPointExtension>
            <ns3:hr>127</ns3:hr>
            <ns3:cad>0</ns3:cad>
          </ns3:TrackPointExtension>
        </extensions>
      </trkpt>
      <trkpt lat="37.955459654331207275390625" lon="-107.10449424572288990020751953125">
        <ele>4042.199951171875</ele>
        <time>2026-01-06T19:48:08.000Z</time>
        <extensions>
          <ns3:TrackPointExtension>
            <ns3:hr>123</ns3:hr>
            <ns3:cad>0</ns3:cad>
          </ns3:TrackPointExtension>
        </extensions>
      </trkpt>
      <trkpt lat="37.955459654331207275390625" lon="-107.10449424572288990020751953125">
        <ele>4042.39990234375</ele>
        <time>2026-01-06T19:48:12.000Z</time>
        <extensions>
          <ns3:TrackPointExtension>
            <ns3:hr>120</ns3:hr>
            <ns3:cad>0</ns3:cad>
          </ns3:TrackPointExtension>
        </extensions>
      </trkpt>
      <trkpt lat="37.95545672066509723663330078125" lon="-107.104498855769634246826171875">
        <ele>4041.39990234375</ele>
        <time>2026-01-06T19:48:18.000Z</time>
        <extensions>
          <ns3:TrackPointExtension>
            <ns3:hr>120</ns3:hr>
            <ns3:cad>0</ns3:cad>
          </ns3:TrackPointExtension>
        </extensions>
      </trkpt>
      <trkpt lat="37.95545605011284351348876953125" lon="-107.10449961014091968536376953125">
        <ele>4041.800048828125</ele>
        <time>2026-01-06T19:48:19.000Z</time>
        <extensions>
          <ns3:TrackPointExtension>
            <ns3:hr>120</ns3:hr>
            <ns3:cad>0</ns3:cad>
          </ns3:TrackPointExtension>
        </extensions>
      </trkpt>
      <trkpt lat="37.95546728186309337615966796875" lon="-107.10449424572288990020751953125">
        <ele>4042.800048828125</ele>
        <time>2026-01-06T19:48:25.000Z</time>
        <extensions>
          <ns3:TrackPointExtension>
            <ns3:hr>120</ns3:hr>
            <ns3:cad>0</ns3:cad>
          </ns3:TrackPointExtension>
        </extensions>
      </trkpt>
      <trkpt lat="37.955459654331207275390625" lon="-107.10449424572288990020751953125">
        <ele>4042.800048828125</ele>
        <time>2026-01-06T19:48:26.000Z</time>
        <extensions>
          <ns3:TrackPointExtension>
            <ns3:hr>120</ns3:hr>
            <ns3:cad>0</ns3:cad>
          </ns3:TrackPointExtension>
        </extensions>
      </trkpt>
      <trkpt lat="37.955459654331207275390625" lon="-107.10449424572288990020751953125">
        <ele>4042</ele>
        <time>2026-01-06T19:48:32.000Z</time>
        <extensions>
          <ns3:TrackPointExtension>
            <ns3:hr>122</ns3:hr>
            <ns3:cad>0</ns3:cad>
          </ns3:TrackPointExtension>
        </extensions>
      </trkpt>
      <trkpt lat="37.95546225272119045257568359375" lon="-107.10450011305510997772216796875">
        <ele>4042.39990234375</ele>
        <time>2026-01-06T19:48:34.000Z</time>
        <extensions>
          <ns3:TrackPointExtension>
            <ns3:hr>123</ns3:hr>
            <ns3:cad>0</ns3:cad>
          </ns3:TrackPointExtension>
        </extensions>
      </trkpt>
      <trkpt lat="37.95546426437795162200927734375" lon="-107.10449508391320705413818359375">
        <ele>4041.800048828125</ele>
        <time>2026-01-06T19:48:40.000Z</time>
        <extensions>
          <ns3:TrackPointExtension>
            <ns3:hr>121</ns3:hr>
            <ns3:cad>0</ns3:cad>
          </ns3:TrackPointExtension>
        </extensions>
      </trkpt>
      <trkpt lat="37.955467365682125091552734375" lon="-107.104479409754276275634765625">
        <ele>4041.60009765625</ele>
        <time>2026-01-06T19:48:41.000Z</time>
        <extensions>
          <ns3:TrackPointExtension>
            <ns3:hr>120</ns3:hr>
            <ns3:cad>0</ns3:cad>
          </ns3:TrackPointExtension>
        </extensions>
      </trkpt>
      <trkpt lat="37.9554695449769496917724609375" lon="-107.10444160737097263336181640625">
        <ele>4042.800048828125</ele>
        <time>2026-01-06T19:48:47.000Z</time>
        <extensions>
          <ns3:TrackPointExtension>
            <ns3:hr>118</ns3:hr>
            <ns3:cad>0</ns3:cad>
          </ns3:TrackPointExtension>
        </extensions>
      </trkpt>
      <trkpt lat="37.95546560548245906829833984375" lon="-107.10443724878132343292236328125">
        <ele>4043</ele>
        <time>2026-01-06T19:48:48.000Z</time>
        <extensions>
          <ns3:TrackPointExtension>
            <ns3:hr>118</ns3:hr>
            <ns3:cad>0</ns3:cad>
          </ns3:TrackPointExtension>
        </extensions>
      </trkpt>
      <trkpt lat="37.95546837151050567626953125" lon="-107.10443171672523021697998046875">
        <ele>4043.199951171875</ele>
        <time>2026-01-06T19:48:49.000Z</time>
        <extensions>
          <ns3:TrackPointExtension>
            <ns3:hr>118</ns3:hr>
            <ns3:cad>0</ns3:cad>
          </ns3:TrackPointExtension>
        </extensions>
      </trkpt>
      <trkpt lat="37.9554658569395542144775390625" lon="-107.10440087132155895233154296875">
        <ele>4044</ele>
        <time>2026-01-06T19:48:55.000Z</time>
        <extensions>
          <ns3:TrackPointExtension>
            <ns3:hr>117</ns3:hr>
            <ns3:cad>0</ns3:cad>
          </ns3:TrackPointExtension>
        </extensions>
      </trkpt>
      <trkpt lat="37.95547314919531345367431640625" lon="-107.10438595153391361236572265625">
        <ele>4044.199951171875</ele>
        <time>2026-01-06T19:48:57.000Z</time>
        <extensions>
          <ns3:TrackPointExtension>
            <ns3:hr>117</ns3:hr>
            <ns3:cad>0</ns3:cad>
          </ns3:TrackPointExtension>
        </extensions>
      </trkpt>
      <trkpt lat="37.95547180809080600738525390625" lon="-107.1043463051319122314453125">
        <ele>4045</ele>
        <time>2026-01-06T19:49:02.000Z</time>
        <extensions>
          <ns3:TrackPointExtension>
            <ns3:hr>117</ns3:hr>
            <ns3:cad>0</ns3:cad>
          </ns3:TrackPointExtension>
        </extensions>
      </trkpt>
      <trkpt lat="37.955469377338886260986328125" lon="-107.104330547153949737548828125">
        <ele>4045.60009765625</ele>
        <time>2026-01-06T19:49:04.000Z</time>
        <extensions>
          <ns3:TrackPointExtension>
            <ns3:hr>117</ns3:hr>
            <ns3:cad>0</ns3:cad>
          </ns3:TrackPointExtension>
        </extensions>
      </trkpt>
      <trkpt lat="37.95545387081801891326904296875" lon="-107.10428419522941112518310546875">
        <ele>4046</ele>
        <time>2026-01-06T19:49:10.000Z</time>
        <extensions>
          <ns3:TrackPointExtension>
            <ns3:hr>119</ns3:hr>
            <ns3:cad>0</ns3:cad>
          </ns3:TrackPointExtension>
        </extensions>
      </trkpt>
      <trkpt lat="37.9554423876106739044189453125" lon="-107.10425837896764278411865234375">
        <ele>4046.800048828125</ele>
        <time>2026-01-06T19:49:15.000Z</time>
        <extensions>
          <ns3:TrackPointExtension>
            <ns3:hr>118</ns3:hr>
            <ns3:cad>0</ns3:cad>
          </ns3:TrackPointExtension>
        </extensions>
      </trkpt>
      <trkpt lat="37.95543693937361240386962890625" lon="-107.10425234399735927581787109375">
        <ele>4047.39990234375</ele>
        <time>2026-01-06T19:49:17.000Z</time>
        <extensions>
          <ns3:TrackPointExtension>
            <ns3:hr>119</ns3:hr>
            <ns3:cad>0</ns3:cad>
          </ns3:TrackPointExtension>
        </extensions>
      </trkpt>
      <trkpt lat="37.9554430581629276275634765625" lon="-107.1042197383940219879150390625">
        <ele>4047.60009765625</ele>
        <time>2026-01-06T19:49:22.000Z</time>
        <extensions>
          <ns3:TrackPointExtension>
            <ns3:hr>120</ns3:hr>
            <ns3:cad>0</ns3:cad>
          </ns3:TrackPointExtension>
        </extensions>
      </trkpt>
      <trkpt lat="37.9554494284093379974365234375" lon="-107.10418763570487499237060546875">
        <ele>4047.800048828125</ele>
        <time>2026-01-06T19:49:28.000Z</time>
        <extensions>
          <ns3:TrackPointExtension>
            <ns3:hr>120</ns3:hr>
            <ns3:cad>0</ns3:cad>
          </ns3:TrackPointExtension>
        </extensions>
      </trkpt>
      <trkpt lat="37.95543878339231014251708984375" lon="-107.10415209643542766571044921875">
        <ele>4048.800048828125</ele>
        <time>2026-01-06T19:49:34.000Z</time>
        <extensions>
          <ns3:TrackPointExtension>
            <ns3:hr>126</ns3:hr>
            <ns3:cad>0</ns3:cad>
          </ns3:TrackPointExtension>
        </extensions>
      </trkpt>
      <trkpt lat="37.95543878339231014251708984375" lon="-107.10414069704711437225341796875">
        <ele>4048.800048828125</ele>
        <time>2026-01-06T19:49:35.000Z</time>
        <extensions>
          <ns3:TrackPointExtension>
            <ns3:hr>130</ns3:hr>
            <ns3:cad>0</ns3:cad>
          </ns3:TrackPointExtension>
        </extensions>
      </trkpt>
      <trkpt lat="37.955437861382961273193359375" lon="-107.104129381477832794189453125">
        <ele>4049</ele>
        <time>2026-01-06T19:49:37.000Z</time>
        <extensions>
          <ns3:TrackPointExtension>
            <ns3:hr>133</ns3:hr>
            <ns3:cad>0</ns3:cad>
          </ns3:TrackPointExtension>
        </extensions>
      </trkpt>
      <trkpt lat="37.9554319940507411956787109375" lon="-107.1041087619960308074951171875">
        <ele>4049.60009765625</ele>
        <time>2026-01-06T19:49:40.000Z</time>
        <extensions>
          <ns3:TrackPointExtension>
            <ns3:hr>133</ns3:hr>
            <ns3:cad>0</ns3:cad>
          </ns3:TrackPointExtension>
        </extensions>
      </trkpt>
      <trkpt lat="37.9554313234984874725341796875" lon="-107.10409057326614856719970703125">
        <ele>4050</ele>
        <time>2026-01-06T19:49:45.000Z</time>
        <extensions>
          <ns3:TrackPointExtension>
            <ns3:hr>132</ns3:hr>
            <ns3:cad>0</ns3:cad>
          </ns3:TrackPointExtension>
        </extensions>
      </trkpt>
      <trkpt lat="37.955430485308170318603515625" lon="-107.10406936705112457275390625">
        <ele>4050.39990234375</ele>
        <time>2026-01-06T19:49:48.000Z</time>
        <extensions>
          <ns3:TrackPointExtension>
            <ns3:hr>133</ns3:hr>
            <ns3:cad>0</ns3:cad>
          </ns3:TrackPointExtension>
        </extensions>
      </trkpt>
      <trkpt lat="37.95542654581367969512939453125" lon="-107.10404455661773681640625">
        <ele>4051</ele>
        <time>2026-01-06T19:49:53.000Z</time>
        <extensions>
          <ns3:TrackPointExtension>
            <ns3:hr>133</ns3:hr>
            <ns3:cad>0</ns3:cad>
          </ns3:TrackPointExtension>
        </extensions>
      </trkpt>
      <trkpt lat="37.9554266296327114105224609375" lon="-107.10404497571289539337158203125">
        <ele>4051</ele>
        <time>2026-01-06T19:49:54.000Z</time>
        <extensions>
          <ns3:TrackPointExtension>
            <ns3:hr>133</ns3:hr>
            <ns3:cad>0</ns3:cad>
          </ns3:TrackPointExtension>
        </extensions>
      </trkpt>
      <trkpt lat="37.95541866682469844818115234375" lon="-107.10400876589119434356689453125">
        <ele>4051.60009765625</ele>
        <time>2026-01-06T19:50:00.000Z</time>
        <extensions>
          <ns3:TrackPointExtension>
            <ns3:hr>131</ns3:hr>
            <ns3:cad>0</ns3:cad>
          </ns3:TrackPointExtension>
        </extensions>
      </trkpt>
      <trkpt lat="37.95540927909314632415771484375" lon="-107.10399149917066097259521484375">
        <ele>4052</ele>
        <time>2026-01-06T19:50:06.000Z</time>
        <extensions>
          <ns3:TrackPointExtension>
            <ns3:hr>129</ns3:hr>
            <ns3:cad>0</ns3:cad>
          </ns3:TrackPointExtension>
        </extensions>
      </trkpt>
      <trkpt lat="37.95541246421635150909423828125" lon="-107.10394020192325115203857421875">
        <ele>4051.800048828125</ele>
        <time>2026-01-06T19:50:12.000Z</time>
        <extensions>
          <ns3:TrackPointExtension>
            <ns3:hr>128</ns3:hr>
            <ns3:cad>0</ns3:cad>
          </ns3:TrackPointExtension>
        </extensions>
      </trkpt>
      <trkpt lat="37.95541011728346347808837890625" lon="-107.1039226837456226348876953125">
        <ele>4052.199951171875</ele>
        <time>2026-01-06T19:50:14.000Z</time>
        <extensions>
          <ns3:TrackPointExtension>
            <ns3:hr>129</ns3:hr>
            <ns3:cad>0</ns3:cad>
          </ns3:TrackPointExtension>
        </extensions>
      </trkpt>
      <trkpt lat="37.95540357939898967742919921875" lon="-107.103886306285858154296875">
        <ele>4052.60009765625</ele>
        <time>2026-01-06T19:50:19.000Z</time>
        <extensions>
          <ns3:TrackPointExtension>
            <ns3:hr>129</ns3:hr>
            <ns3:cad>0</ns3:cad>
          </ns3:TrackPointExtension>
        </extensions>
      </trkpt>
      <trkpt lat="37.9553998075425624847412109375" lon="-107.10385034792125225067138671875">
        <ele>4053</ele>
        <time>2026-01-06T19:50:24.000Z</time>
        <extensions>
          <ns3:TrackPointExtension>
            <ns3:hr>132</ns3:hr>
            <ns3:cad>0</ns3:cad>
          </ns3:TrackPointExtension>
        </extensions>
      </trkpt>
      <trkpt lat="37.95539905317127704620361328125" lon="-107.1038412116467952728271484375">
        <ele>4053.199951171875</ele>
        <time>2026-01-06T19:50:25.000Z</time>
        <extensions>
          <ns3:TrackPointExtension>
            <ns3:hr>133</ns3:hr>
            <ns3:cad>0</ns3:cad>
          </ns3:TrackPointExtension>
        </extensions>
      </trkpt>
      <trkpt lat="37.95539821498095989227294921875" lon="-107.10383861325681209564208984375">
        <ele>4053.39990234375</ele>
        <time>2026-01-06T19:50:26.000Z</time>
        <extensions>
          <ns3:TrackPointExtension>
            <ns3:hr>133</ns3:hr>
            <ns3:cad>0</ns3:cad>
          </ns3:TrackPointExtension>
        </extensions>
      </trkpt>
      <trkpt lat="37.95539519749581813812255859375" lon="-107.10380827076733112335205078125">
        <ele>4054</ele>
        <time>2026-01-06T19:50:32.000Z</time>
        <extensions>
          <ns3:TrackPointExtension>
            <ns3:hr>132</ns3:hr>
            <ns3:cad>0</ns3:cad>
          </ns3:TrackPointExtension>
        </extensions>
      </trkpt>
      <trkpt lat="37.955394946038722991943359375" lon="-107.10380525328218936920166015625">
        <ele>4054.199951171875</ele>
        <time>2026-01-06T19:50:33.000Z</time>
        <extensions>
          <ns3:TrackPointExtension>
            <ns3:hr>133</ns3:hr>
            <ns3:cad>0</ns3:cad>
          </ns3:TrackPointExtension>
        </extensions>
      </trkpt>
      <trkpt lat="37.9553885757923126220703125" lon="-107.103789746761322021484375">
        <ele>4054.60009765625</ele>
        <time>2026-01-06T19:50:36.000Z</time>
        <extensions>
          <ns3:TrackPointExtension>
            <ns3:hr>132</ns3:hr>
            <ns3:cad>0</ns3:cad>
          </ns3:TrackPointExtension>
        </extensions>
      </trkpt>
      <trkpt lat="37.9553853906691074371337890625" lon="-107.10377440787851810455322265625">
        <ele>4054.800048828125</ele>
        <time>2026-01-06T19:50:39.000Z</time>
        <extensions>
          <ns3:TrackPointExtension>
            <ns3:hr>129</ns3:hr>
            <ns3:cad>0</ns3:cad>
          </ns3:TrackPointExtension>
        </extensions>
      </trkpt>
      <trkpt lat="37.9553853906691074371337890625" lon="-107.1037583984434604644775390625">
        <ele>4055.39990234375</ele>
        <time>2026-01-06T19:50:42.000Z</time>
        <extensions>
          <ns3:TrackPointExtension>
            <ns3:hr>128</ns3:hr>
            <ns3:cad>0</ns3:cad>
          </ns3:TrackPointExtension>
        </extensions>
      </trkpt>
      <trkpt lat="37.9553837142884731292724609375" lon="-107.10375546477735042572021484375">
        <ele>4055.800048828125</ele>
        <time>2026-01-06T19:50:43.000Z</time>
        <extensions>
          <ns3:TrackPointExtension>
            <ns3:hr>127</ns3:hr>
            <ns3:cad>0</ns3:cad>
          </ns3:TrackPointExtension>
        </extensions>
      </trkpt>
      <trkpt lat="37.95538111589848995208740234375" lon="-107.1037379465997219085693359375">
        <ele>4056.60009765625</ele>
        <time>2026-01-06T19:50:46.000Z</time>
        <extensions>
          <ns3:TrackPointExtension>
            <ns3:hr>126</ns3:hr>
            <ns3:cad>0</ns3:cad>
          </ns3:TrackPointExtension>
        </extensions>
      </trkpt>
      <trkpt lat="37.9553813673555850982666015625" lon="-107.1037188358604907989501953125">
        <ele>4056.60009765625</ele>
        <time>2026-01-06T19:50:50.000Z</time>
        <extensions>
          <ns3:TrackPointExtension>
            <ns3:hr>125</ns3:hr>
            <ns3:cad>0</ns3:cad>
          </ns3:TrackPointExtension>
        </extensions>
      </trkpt>
      <trkpt lat="37.95538480393588542938232421875" lon="-107.10369494743645191192626953125">
        <ele>4057</ele>
        <time>2026-01-06T19:50:56.000Z</time>
        <extensions>
          <ns3:TrackPointExtension>
            <ns3:hr>126</ns3:hr>
            <ns3:cad>0</ns3:cad>
          </ns3:TrackPointExtension>
        </extensions>
      </trkpt>
      <trkpt lat="37.9553770087659358978271484375" lon="-107.10368773899972438812255859375">
        <ele>4057.800048828125</ele>
        <time>2026-01-06T19:50:59.000Z</time>
        <extensions>
          <ns3:TrackPointExtension>
            <ns3:hr>126</ns3:hr>
            <ns3:cad>0</ns3:cad>
          </ns3:TrackPointExtension>
        </extensions>
      </trkpt>
      <trkpt lat="37.95537424273788928985595703125" lon="-107.1036822907626628875732421875">
        <ele>4058.39990234375</ele>
        <time>2026-01-06T19:51:02.000Z</time>
        <extensions>
          <ns3:TrackPointExtension>
            <ns3:hr>125</ns3:hr>
            <ns3:cad>0</ns3:cad>
          </ns3:TrackPointExtension>
        </extensions>
      </trkpt>
      <trkpt lat="37.95537809841334819793701171875" lon="-107.1036497689783573150634765625">
        <ele>4058.800048828125</ele>
        <time>2026-01-06T19:51:08.000Z</time>
        <extensions>
          <ns3:TrackPointExtension>
            <ns3:hr>125</ns3:hr>
            <ns3:cad>0</ns3:cad>
          </ns3:TrackPointExtension>
        </extensions>
      </trkpt>
      <trkpt lat="37.95538011007010936737060546875" lon="-107.10363711230456829071044921875">
        <ele>4059.39990234375</ele>
        <time>2026-01-06T19:51:10.000Z</time>
        <extensions>
          <ns3:TrackPointExtension>
            <ns3:hr>122</ns3:hr>
            <ns3:cad>0</ns3:cad>
          </ns3:TrackPointExtension>
        </extensions>
      </trkpt>
      <trkpt lat="37.955382205545902252197265625" lon="-107.10361146368086338043212890625">
        <ele>4060</ele>
        <time>2026-01-06T19:51:14.000Z</time>
        <extensions>
          <ns3:TrackPointExtension>
            <ns3:hr>120</ns3:hr>
            <ns3:cad>0</ns3:cad>
          </ns3:TrackPointExtension>
        </extensions>
      </trkpt>
      <trkpt lat="37.955380864441394805908203125" lon="-107.10360408760607242584228515625">
        <ele>4060</ele>
        <time>2026-01-06T19:51:17.000Z</time>
        <extensions>
          <ns3:TrackPointExtension>
            <ns3:hr>120</ns3:hr>
            <ns3:cad>0</ns3:cad>
          </ns3:TrackPointExtension>
        </extensions>
      </trkpt>
      <trkpt lat="37.95537491329014301300048828125" lon="-107.10357944481074810028076171875">
        <ele>4061</ele>
        <time>2026-01-06T19:51:23.000Z</time>
        <extensions>
          <ns3:TrackPointExtension>
            <ns3:hr>119</ns3:hr>
            <ns3:cad>0</ns3:cad>
          </ns3:TrackPointExtension>
        </extensions>
      </trkpt>
      <trkpt lat="37.9553711414337158203125" lon="-107.103572152554988861083984375">
        <ele>4061.199951171875</ele>
        <time>2026-01-06T19:51:24.000Z</time>
        <extensions>
          <ns3:TrackPointExtension>
            <ns3:hr>119</ns3:hr>
            <ns3:cad>0</ns3:cad>
          </ns3:TrackPointExtension>
        </extensions>
      </trkpt>
      <trkpt lat="37.95536552555859088897705078125" lon="-107.103549353778362274169921875">
        <ele>4062.199951171875</ele>
        <time>2026-01-06T19:51:30.000Z</time>
        <extensions>
          <ns3:TrackPointExtension>
            <ns3:hr>117</ns3:hr>
            <ns3:cad>0</ns3:cad>
          </ns3:TrackPointExtension>
        </extensions>
      </trkpt>
      <trkpt lat="37.95535882003605365753173828125" lon="-107.1035143174231052398681640625">
        <ele>4062.60009765625</ele>
        <time>2026-01-06T19:51:36.000Z</time>
        <extensions>
          <ns3:TrackPointExtension>
            <ns3:hr>117</ns3:hr>
            <ns3:cad>0</ns3:cad>
          </ns3:TrackPointExtension>
        </extensions>
      </trkpt>
      <trkpt lat="37.95535504817962646484375" lon="-107.10351507179439067840576171875">
        <ele>4062.60009765625</ele>
        <time>2026-01-06T19:51:37.000Z</time>
        <extensions>
          <ns3:TrackPointExtension>
            <ns3:hr>116</ns3:hr>
            <ns3:cad>0</ns3:cad>
          </ns3:TrackPointExtension>
        </extensions>
      </trkpt>
      <trkpt lat="37.95535169541835784912109375" lon="-107.10350182838737964630126953125">
        <ele>4063.199951171875</ele>
        <time>2026-01-06T19:51:41.000Z</time>
        <extensions>
          <ns3:TrackPointExtension>
            <ns3:hr>117</ns3:hr>
            <ns3:cad>0</ns3:cad>
          </ns3:TrackPointExtension>
        </extensions>
      </trkpt>
      <trkpt lat="37.95535027049481868743896484375" lon="-107.1034854836761951446533203125">
        <ele>4063.60009765625</ele>
        <time>2026-01-06T19:51:45.000Z</time>
        <extensions>
          <ns3:TrackPointExtension>
            <ns3:hr>116</ns3:hr>
            <ns3:cad>0</ns3:cad>
          </ns3:TrackPointExtension>
        </extensions>
      </trkpt>
      <trkpt lat="37.95534901320934295654296875" lon="-107.103454135358333587646484375">
        <ele>4064.39990234375</ele>
        <time>2026-01-06T19:51:50.000Z</time>
        <extensions>
          <ns3:TrackPointExtension>
            <ns3:hr>116</ns3:hr>
            <ns3:cad>0</ns3:cad>
          </ns3:TrackPointExtension>
        </extensions>
      </trkpt>
      <trkpt lat="37.95534792356193065643310546875" lon="-107.10344265215098857879638671875">
        <ele>4064.800048828125</ele>
        <time>2026-01-06T19:51:53.000Z</time>
        <extensions>
          <ns3:TrackPointExtension>
            <ns3:hr>117</ns3:hr>
            <ns3:cad>0</ns3:cad>
          </ns3:TrackPointExtension>
        </extensions>
      </trkpt>
      <trkpt lat="37.95534004457294940948486328125" lon="-107.103428654372692108154296875">
        <ele>4065.39990234375</ele>
        <time>2026-01-06T19:51:58.000Z</time>
        <extensions>
          <ns3:TrackPointExtension>
            <ns3:hr>118</ns3:hr>
            <ns3:cad>0</ns3:cad>
          </ns3:TrackPointExtension>
        </extensions>
      </trkpt>
      <trkpt lat="37.9553387872874736785888671875" lon="-107.10341817699372768402099609375">
        <ele>4065.60009765625</ele>
        <time>2026-01-06T19:52:00.000Z</time>
        <extensions>
          <ns3:TrackPointExtension>
            <ns3:hr>118</ns3:hr>
            <ns3:cad>0</ns3:cad>
          </ns3:TrackPointExtension>
        </extensions>
      </trkpt>
      <trkpt lat="37.9553344286978244781494140625" lon="-107.103408873081207275390625">
        <ele>4065.800048828125</ele>
        <time>2026-01-06T19:52:06.000Z</time>
        <extensions>
          <ns3:TrackPointExtension>
            <ns3:hr>120</ns3:hr>
            <ns3:cad>0</ns3:cad>
          </ns3:TrackPointExtension>
        </extensions>
      </trkpt>
      <trkpt lat="37.9553344286978244781494140625" lon="-107.103408873081207275390625">
        <ele>4065.800048828125</ele>
        <time>2026-01-06T19:52:08.000Z</time>
        <extensions>
          <ns3:TrackPointExtension>
            <ns3:hr>119</ns3:hr>
            <ns3:cad>0</ns3:cad>
          </ns3:TrackPointExtension>
        </extensions>
      </trkpt>
      <trkpt lat="37.95533602125942707061767578125" lon="-107.10339269600808620452880859375">
        <ele>4066.39990234375</ele>
        <time>2026-01-06T19:52:14.000Z</time>
        <extensions>
          <ns3:TrackPointExtension>
            <ns3:hr>117</ns3:hr>
            <ns3:cad>0</ns3:cad>
          </ns3:TrackPointExtension>
        </extensions>
      </trkpt>
      <trkpt lat="37.9553354345262050628662109375" lon="-107.1033838950097560882568359375">
        <ele>4066.39990234375</ele>
        <time>2026-01-06T19:52:16.000Z</time>
        <extensions>
          <ns3:TrackPointExtension>
            <ns3:hr>116</ns3:hr>
            <ns3:cad>0</ns3:cad>
          </ns3:TrackPointExtension>
        </extensions>
      </trkpt>
      <trkpt lat="37.95533317141234874725341796875" lon="-107.10334190167486667633056640625">
        <ele>4067.39990234375</ele>
        <time>2026-01-06T19:52:22.000Z</time>
        <extensions>
          <ns3:TrackPointExtension>
            <ns3:hr>115</ns3:hr>
            <ns3:cad>0</ns3:cad>
          </ns3:TrackPointExtension>
        </extensions>
      </trkpt>
      <trkpt lat="37.955326549708843231201171875" lon="-107.103342153131961822509765625">
        <ele>4067.800048828125</ele>
        <time>2026-01-06T19:52:23.000Z</time>
        <extensions>
          <ns3:TrackPointExtension>
            <ns3:hr>116</ns3:hr>
            <ns3:cad>0</ns3:cad>
          </ns3:TrackPointExtension>
        </extensions>
      </trkpt>
      <trkpt lat="37.9553263820707798004150390625" lon="-107.10334341041743755340576171875">
        <ele>4068</ele>
        <time>2026-01-06T19:52:24.000Z</time>
        <extensions>
          <ns3:TrackPointExtension>
            <ns3:hr>115</ns3:hr>
            <ns3:cad>0</ns3:cad>
          </ns3:TrackPointExtension>
        </extensions>
      </trkpt>
      <trkpt lat="37.95532646588981151580810546875" lon="-107.103343494236469268798828125">
        <ele>4068.199951171875</ele>
        <time>2026-01-06T19:52:30.000Z</time>
        <extensions>
          <ns3:TrackPointExtension>
            <ns3:hr>117</ns3:hr>
            <ns3:cad>0</ns3:cad>
          </ns3:TrackPointExtension>
        </extensions>
      </trkpt>
      <trkpt lat="37.95532646588981151580810546875" lon="-107.103343494236469268798828125">
        <ele>4068.39990234375</ele>
        <time>2026-01-06T19:52:36.000Z</time>
        <extensions>
          <ns3:TrackPointExtension>
            <ns3:hr>118</ns3:hr>
            <ns3:cad>0</ns3:cad>
          </ns3:TrackPointExtension>
        </extensions>
      </trkpt>
      <trkpt lat="37.95532646588981151580810546875" lon="-107.103343494236469268798828125">
        <ele>4068.39990234375</ele>
        <time>2026-01-06T19:52:37.000Z</time>
        <extensions>
          <ns3:TrackPointExtension>
            <ns3:hr>118</ns3:hr>
            <ns3:cad>0</ns3:cad>
          </ns3:TrackPointExtension>
        </extensions>
      </trkpt>
      <trkpt lat="37.95532646588981151580810546875" lon="-107.103343494236469268798828125">
        <ele>4068.800048828125</ele>
        <time>2026-01-06T19:52:43.000Z</time>
        <extensions>
          <ns3:TrackPointExtension>
            <ns3:hr>115</ns3:hr>
            <ns3:cad>0</ns3:cad>
          </ns3:TrackPointExtension>
        </extensions>
      </trkpt>
      <trkpt lat="37.95532646588981151580810546875" lon="-107.103343494236469268798828125">
        <ele>4069</ele>
        <time>2026-01-06T19:52:44.000Z</time>
        <extensions>
          <ns3:TrackPointExtension>
            <ns3:hr>115</ns3:hr>
            <ns3:cad>0</ns3:cad>
          </ns3:TrackPointExtension>
        </extensions>
      </trkpt>
      <trkpt lat="37.95532646588981151580810546875" lon="-107.103343494236469268798828125">
        <ele>4069</ele>
        <time>2026-01-06T19:52:50.000Z</time>
        <extensions>
          <ns3:TrackPointExtension>
            <ns3:hr>115</ns3:hr>
            <ns3:cad>0</ns3:cad>
          </ns3:TrackPointExtension>
        </extensions>
      </trkpt>
      <trkpt lat="37.95532646588981151580810546875" lon="-107.103343494236469268798828125">
        <ele>4068.60009765625</ele>
        <time>2026-01-06T19:52:52.000Z</time>
        <extensions>
          <ns3:TrackPointExtension>
            <ns3:hr>115</ns3:hr>
            <ns3:cad>0</ns3:cad>
          </ns3:TrackPointExtension>
        </extensions>
      </trkpt>
      <trkpt lat="37.95532646588981151580810546875" lon="-107.103343494236469268798828125">
        <ele>4068.199951171875</ele>
        <time>2026-01-06T19:52:58.000Z</time>
        <extensions>
          <ns3:TrackPointExtension>
            <ns3:hr>115</ns3:hr>
            <ns3:cad>0</ns3:cad>
          </ns3:TrackPointExtension>
        </extensions>
      </trkpt>
      <trkpt lat="37.95532646588981151580810546875" lon="-107.103343494236469268798828125">
        <ele>4068</ele>
        <time>2026-01-06T19:53:00.000Z</time>
        <extensions>
          <ns3:TrackPointExtension>
            <ns3:hr>115</ns3:hr>
            <ns3:cad>0</ns3:cad>
          </ns3:TrackPointExtension>
        </extensions>
      </trkpt>
      <trkpt lat="37.95533333905041217803955078125" lon="-107.1033243834972381591796875">
        <ele>4069.199951171875</ele>
        <time>2026-01-06T19:53:06.000Z</time>
        <extensions>
          <ns3:TrackPointExtension>
            <ns3:hr>116</ns3:hr>
            <ns3:cad>0</ns3:cad>
          </ns3:TrackPointExtension>
        </extensions>
      </trkpt>
      <trkpt lat="37.9553381167352199554443359375" lon="-107.1033195219933986663818359375">
        <ele>4069.39990234375</ele>
        <time>2026-01-06T19:53:07.000Z</time>
        <extensions>
          <ns3:TrackPointExtension>
            <ns3:hr>116</ns3:hr>
            <ns3:cad>0</ns3:cad>
          </ns3:TrackPointExtension>
        </extensions>
      </trkpt>
      <trkpt lat="37.955348007380962371826171875" lon="-107.1033084578812122344970703125">
        <ele>4069.800048828125</ele>
        <time>2026-01-06T19:53:10.000Z</time>
        <extensions>
          <ns3:TrackPointExtension>
            <ns3:hr>115</ns3:hr>
            <ns3:cad>44</ns3:cad>
          </ns3:TrackPointExtension>
        </extensions>
      </trkpt>
      <trkpt lat="37.95536502264440059661865234375" lon="-107.10328741930425167083740234375">
        <ele>4070</ele>
        <time>2026-01-06T19:53:13.000Z</time>
        <extensions>
          <ns3:TrackPointExtension>
            <ns3:hr>116</ns3:hr>
            <ns3:cad>48</ns3:cad>
          </ns3:TrackPointExtension>
        </extensions>
      </trkpt>
      <trkpt lat="37.9553912580013275146484375" lon="-107.1032564900815486907958984375">
        <ele>4071</ele>
        <time>2026-01-06T19:53:19.000Z</time>
        <extensions>
          <ns3:TrackPointExtension>
            <ns3:hr>115</ns3:hr>
            <ns3:cad>44</ns3:cad>
          </ns3:TrackPointExtension>
        </extensions>
      </trkpt>
      <trkpt lat="37.95540089718997478485107421875" lon="-107.1032266505062580108642578125">
        <ele>4072.199951171875</ele>
        <time>2026-01-06T19:53:25.000Z</time>
        <extensions>
          <ns3:TrackPointExtension>
            <ns3:hr>116</ns3:hr>
            <ns3:cad>45</ns3:cad>
          </ns3:TrackPointExtension>
        </extensions>
      </trkpt>
      <trkpt lat="37.95541648752987384796142578125" lon="-107.10319370962679386138916015625">
        <ele>4072.60009765625</ele>
        <time>2026-01-06T19:53:31.000Z</time>
        <extensions>
          <ns3:TrackPointExtension>
            <ns3:hr>118</ns3:hr>
            <ns3:cad>45</ns3:cad>
          </ns3:TrackPointExtension>
        </extensions>
      </trkpt>
      <trkpt lat="37.95541514642536640167236328125" lon="-107.10318918339908123016357421875">
        <ele>4072.60009765625</ele>
        <time>2026-01-06T19:53:32.000Z</time>
        <extensions>
          <ns3:TrackPointExtension>
            <ns3:hr>118</ns3:hr>
            <ns3:cad>45</ns3:cad>
          </ns3:TrackPointExtension>
        </extensions>
      </trkpt>
      <trkpt lat="37.95542143285274505615234375" lon="-107.10317728109657764434814453125">
        <ele>4073.39990234375</ele>
        <time>2026-01-06T19:53:36.000Z</time>
        <extensions>
          <ns3:TrackPointExtension>
            <ns3:hr>118</ns3:hr>
            <ns3:cad>0</ns3:cad>
          </ns3:TrackPointExtension>
        </extensions>
      </trkpt>
      <trkpt lat="37.955412380397319793701171875" lon="-107.10316546261310577392578125">
        <ele>4073.60009765625</ele>
        <time>2026-01-06T19:53:38.000Z</time>
        <extensions>
          <ns3:TrackPointExtension>
            <ns3:hr>118</ns3:hr>
            <ns3:cad>0</ns3:cad>
          </ns3:TrackPointExtension>
        </extensions>
      </trkpt>
      <trkpt lat="37.95540458522737026214599609375" lon="-107.10313688032329082489013671875">
        <ele>4073.39990234375</ele>
        <time>2026-01-06T19:53:44.000Z</time>
        <extensions>
          <ns3:TrackPointExtension>
            <ns3:hr>121</ns3:hr>
            <ns3:cad>74</ns3:cad>
          </ns3:TrackPointExtension>
        </extensions>
      </trkpt>
      <trkpt lat="37.95540592633187770843505859375" lon="-107.1031119860708713531494140625">
        <ele>4074.199951171875</ele>
        <time>2026-01-06T19:53:50.000Z</time>
        <extensions>
          <ns3:TrackPointExtension>
            <ns3:hr>122</ns3:hr>
            <ns3:cad>0</ns3:cad>
          </ns3:TrackPointExtension>
        </extensions>
      </trkpt>
      <trkpt lat="37.9554075188934803009033203125" lon="-107.1031113155186176300048828125">
        <ele>4074.39990234375</ele>
        <time>2026-01-06T19:53:51.000Z</time>
        <extensions>
          <ns3:TrackPointExtension>
            <ns3:hr>122</ns3:hr>
            <ns3:cad>0</ns3:cad>
          </ns3:TrackPointExtension>
        </extensions>
      </trkpt>
      <trkpt lat="37.95541699044406414031982421875" lon="-107.1031022630631923675537109375">
        <ele>4074.60009765625</ele>
        <time>2026-01-06T19:53:55.000Z</time>
        <extensions>
          <ns3:TrackPointExtension>
            <ns3:hr>125</ns3:hr>
            <ns3:cad>0</ns3:cad>
          </ns3:TrackPointExtension>
        </extensions>
      </trkpt>
      <trkpt lat="37.9554195888340473175048828125" lon="-107.10310184396803379058837890625">
        <ele>4074.60009765625</ele>
        <time>2026-01-06T19:53:56.000Z</time>
        <extensions>
          <ns3:TrackPointExtension>
            <ns3:hr>125</ns3:hr>
            <ns3:cad>0</ns3:cad>
          </ns3:TrackPointExtension>
        </extensions>
      </trkpt>
      <trkpt lat="37.955413050949573516845703125" lon="-107.103074602782726287841796875">
        <ele>4075.60009765625</ele>
        <time>2026-01-06T19:54:01.000Z</time>
        <extensions>
          <ns3:TrackPointExtension>
            <ns3:hr>123</ns3:hr>
            <ns3:cad>0</ns3:cad>
          </ns3:TrackPointExtension>
        </extensions>
      </trkpt>
      <trkpt lat="37.95541816391050815582275390625" lon="-107.10307803936302661895751953125">
        <ele>4076.800048828125</ele>
        <time>2026-01-06T19:54:05.000Z</time>
        <extensions>
          <ns3:TrackPointExtension>
            <ns3:hr>123</ns3:hr>
            <ns3:cad>0</ns3:cad>
          </ns3:TrackPointExtension>
        </extensions>
      </trkpt>
      <trkpt lat="37.955424785614013671875" lon="-107.10307586006820201873779296875">
        <ele>4077</ele>
        <time>2026-01-06T19:54:06.000Z</time>
        <extensions>
          <ns3:TrackPointExtension>
            <ns3:hr>123</ns3:hr>
            <ns3:cad>51</ns3:cad>
          </ns3:TrackPointExtension>
        </extensions>
      </trkpt>
      <trkpt lat="37.95545102097094058990478515625" lon="-107.1030509658157825469970703125">
        <ele>4077.199951171875</ele>
        <time>2026-01-06T19:54:12.000Z</time>
        <extensions>
          <ns3:TrackPointExtension>
            <ns3:hr>122</ns3:hr>
            <ns3:cad>0</ns3:cad>
          </ns3:TrackPointExtension>
        </extensions>
      </trkpt>
      <trkpt lat="37.955448925495147705078125" lon="-107.103049792349338531494140625">
        <ele>4077</ele>
        <time>2026-01-06T19:54:13.000Z</time>
        <extensions>
          <ns3:TrackPointExtension>
            <ns3:hr>122</ns3:hr>
            <ns3:cad>0</ns3:cad>
          </ns3:TrackPointExtension>
        </extensions>
      </trkpt>
      <trkpt lat="37.9554564692080020904541015625" lon="-107.10302866995334625244140625">
        <ele>4078.199951171875</ele>
        <time>2026-01-06T19:54:18.000Z</time>
        <extensions>
          <ns3:TrackPointExtension>
            <ns3:hr>123</ns3:hr>
            <ns3:cad>0</ns3:cad>
          </ns3:TrackPointExtension>
        </extensions>
      </trkpt>
      <trkpt lat="37.9554584808647632598876953125" lon="-107.10302070714533329010009765625">
        <ele>4078.39990234375</ele>
        <time>2026-01-06T19:54:19.000Z</time>
        <extensions>
          <ns3:TrackPointExtension>
            <ns3:hr>123</ns3:hr>
            <ns3:cad>0</ns3:cad>
          </ns3:TrackPointExtension>
        </extensions>
      </trkpt>
      <trkpt lat="37.95547046698629856109619140625" lon="-107.10300528444349765777587890625">
        <ele>4079</ele>
        <time>2026-01-06T19:54:25.000Z</time>
        <extensions>
          <ns3:TrackPointExtension>
            <ns3:hr>124</ns3:hr>
            <ns3:cad>0</ns3:cad>
          </ns3:TrackPointExtension>
        </extensions>
      </trkpt>
      <trkpt lat="37.95547046698629856109619140625" lon="-107.10300528444349765777587890625">
        <ele>4078</ele>
        <time>2026-01-06T19:54:31.000Z</time>
        <extensions>
          <ns3:TrackPointExtension>
            <ns3:hr>124</ns3:hr>
            <ns3:cad>0</ns3:cad>
          </ns3:TrackPointExtension>
        </extensions>
      </trkpt>
      <trkpt lat="37.95547046698629856109619140625" lon="-107.10300528444349765777587890625">
        <ele>4078.199951171875</ele>
        <time>2026-01-06T19:54:36.000Z</time>
        <extensions>
          <ns3:TrackPointExtension>
            <ns3:hr>122</ns3:hr>
            <ns3:cad>0</ns3:cad>
          </ns3:TrackPointExtension>
        </extensions>
      </trkpt>
      <trkpt lat="37.95548572205007076263427734375" lon="-107.10300595499575138092041015625">
        <ele>4077.60009765625</ele>
        <time>2026-01-06T19:54:42.000Z</time>
        <extensions>
          <ns3:TrackPointExtension>
            <ns3:hr>119</ns3:hr>
            <ns3:cad>0</ns3:cad>
          </ns3:TrackPointExtension>
        </extensions>
      </trkpt>
      <trkpt lat="37.9554826207458972930908203125" lon="-107.10301131941378116607666015625">
        <ele>4077.39990234375</ele>
        <time>2026-01-06T19:54:43.000Z</time>
        <extensions>
          <ns3:TrackPointExtension>
            <ns3:hr>119</ns3:hr>
            <ns3:cad>0</ns3:cad>
          </ns3:TrackPointExtension>
        </extensions>
      </trkpt>
      <trkpt lat="37.9555074311792850494384765625" lon="-107.102993465960025787353515625">
        <ele>4078.60009765625</ele>
        <time>2026-01-06T19:54:47.000Z</time>
        <extensions>
          <ns3:TrackPointExtension>
            <ns3:hr>119</ns3:hr>
            <ns3:cad>0</ns3:cad>
          </ns3:TrackPointExtension>
        </extensions>
      </trkpt>
      <trkpt lat="37.95550734736025333404541015625" lon="-107.10298080928623676300048828125">
        <ele>4078.800048828125</ele>
        <time>2026-01-06T19:54:48.000Z</time>
        <extensions>
          <ns3:TrackPointExtension>
            <ns3:hr>119</ns3:hr>
            <ns3:cad>0</ns3:cad>
          </ns3:TrackPointExtension>
        </extensions>
      </trkpt>
      <trkpt lat="37.95549779199063777923583984375" lon="-107.10293873213231563568115234375">
        <ele>4079.199951171875</ele>
        <time>2026-01-06T19:54:52.000Z</time>
        <extensions>
          <ns3:TrackPointExtension>
            <ns3:hr>119</ns3:hr>
            <ns3:cad>0</ns3:cad>
          </ns3:TrackPointExtension>
        </extensions>
      </trkpt>
      <trkpt lat="37.9555010609328746795654296875" lon="-107.10293118841946125030517578125">
        <ele>4078.39990234375</ele>
        <time>2026-01-06T19:54:56.000Z</time>
        <extensions>
          <ns3:TrackPointExtension>
            <ns3:hr>122</ns3:hr>
            <ns3:cad>0</ns3:cad>
          </ns3:TrackPointExtension>
        </extensions>
      </trkpt>
      <trkpt lat="37.9555003903806209564208984375" lon="-107.10293118841946125030517578125">
        <ele>4078.199951171875</ele>
        <time>2026-01-06T19:54:57.000Z</time>
        <extensions>
          <ns3:TrackPointExtension>
            <ns3:hr>122</ns3:hr>
            <ns3:cad>0</ns3:cad>
          </ns3:TrackPointExtension>
        </extensions>
      </trkpt>
      <trkpt lat="37.9555003903806209564208984375" lon="-107.102931104600429534912109375">
        <ele>4077.800048828125</ele>
        <time>2026-01-06T19:55:03.000Z</time>
        <extensions>
          <ns3:TrackPointExtension>
            <ns3:hr>127</ns3:hr>
            <ns3:cad>0</ns3:cad>
          </ns3:TrackPointExtension>
        </extensions>
      </trkpt>
      <trkpt lat="37.9555003903806209564208984375" lon="-107.102931104600429534912109375">
        <ele>4077.800048828125</ele>
        <time>2026-01-06T19:55:04.000Z</time>
        <extensions>
          <ns3:TrackPointExtension>
            <ns3:hr>127</ns3:hr>
            <ns3:cad>0</ns3:cad>
          </ns3:TrackPointExtension>
        </extensions>
      </trkpt>
      <trkpt lat="37.9555003903806209564208984375" lon="-107.102931104600429534912109375">
        <ele>4078.39990234375</ele>
        <time>2026-01-06T19:55:07.000Z</time>
        <extensions>
          <ns3:TrackPointExtension>
            <ns3:hr>129</ns3:hr>
            <ns3:cad>0</ns3:cad>
          </ns3:TrackPointExtension>
        </extensions>
      </trkpt>
      <trkpt lat="37.9555003903806209564208984375" lon="-107.102931104600429534912109375">
        <ele>4079</ele>
        <time>2026-01-06T19:55:10.000Z</time>
        <extensions>
          <ns3:TrackPointExtension>
            <ns3:hr>132</ns3:hr>
            <ns3:cad>0</ns3:cad>
          </ns3:TrackPointExtension>
        </extensions>
      </trkpt>
      <trkpt lat="37.9555003903806209564208984375" lon="-107.102931104600429534912109375">
        <ele>4078.60009765625</ele>
        <time>2026-01-06T19:55:15.000Z</time>
        <extensions>
          <ns3:TrackPointExtension>
            <ns3:hr>135</ns3:hr>
            <ns3:cad>0</ns3:cad>
          </ns3:TrackPointExtension>
        </extensions>
      </trkpt>
      <trkpt lat="37.9555003903806209564208984375" lon="-107.102931104600429534912109375">
        <ele>4078.60009765625</ele>
        <time>2026-01-06T19:55:18.000Z</time>
        <extensions>
          <ns3:TrackPointExtension>
            <ns3:hr>131</ns3:hr>
            <ns3:cad>0</ns3:cad>
          </ns3:TrackPointExtension>
        </extensions>
      </trkpt>
      <trkpt lat="37.9555003903806209564208984375" lon="-107.102931104600429534912109375">
        <ele>4078.800048828125</ele>
        <time>2026-01-06T19:55:20.000Z</time>
        <extensions>
          <ns3:TrackPointExtension>
            <ns3:hr>128</ns3:hr>
            <ns3:cad>0</ns3:cad>
          </ns3:TrackPointExtension>
        </extensions>
      </trkpt>
      <trkpt lat="37.9555003903806209564208984375" lon="-107.102931104600429534912109375">
        <ele>4078.60009765625</ele>
        <time>2026-01-06T19:55:26.000Z</time>
        <extensions>
          <ns3:TrackPointExtension>
            <ns3:hr>127</ns3:hr>
            <ns3:cad>0</ns3:cad>
          </ns3:TrackPointExtension>
        </extensions>
      </trkpt>
      <trkpt lat="37.9555003903806209564208984375" lon="-107.102931104600429534912109375">
        <ele>4078.60009765625</ele>
        <time>2026-01-06T19:55:27.000Z</time>
        <extensions>
          <ns3:TrackPointExtension>
            <ns3:hr>127</ns3:hr>
            <ns3:cad>0</ns3:cad>
          </ns3:TrackPointExtension>
        </extensions>
      </trkpt>
      <trkpt lat="37.9555003903806209564208984375" lon="-107.102931104600429534912109375">
        <ele>4078.60009765625</ele>
        <time>2026-01-06T19:55:32.000Z</time>
        <extensions>
          <ns3:TrackPointExtension>
            <ns3:hr>124</ns3:hr>
            <ns3:cad>0</ns3:cad>
          </ns3:TrackPointExtension>
        </extensions>
      </trkpt>
      <trkpt lat="37.9555003903806209564208984375" lon="-107.102931104600429534912109375">
        <ele>4078.60009765625</ele>
        <time>2026-01-06T19:55:38.000Z</time>
        <extensions>
          <ns3:TrackPointExtension>
            <ns3:hr>125</ns3:hr>
            <ns3:cad>0</ns3:cad>
          </ns3:TrackPointExtension>
        </extensions>
      </trkpt>
      <trkpt lat="37.9555003903806209564208984375" lon="-107.102931104600429534912109375">
        <ele>4078.800048828125</ele>
        <time>2026-01-06T19:55:40.000Z</time>
        <extensions>
          <ns3:TrackPointExtension>
            <ns3:hr>124</ns3:hr>
            <ns3:cad>0</ns3:cad>
          </ns3:TrackPointExtension>
        </extensions>
      </trkpt>
      <trkpt lat="37.9555003903806209564208984375" lon="-107.102931104600429534912109375">
        <ele>4078.800048828125</ele>
        <time>2026-01-06T19:55:42.000Z</time>
        <extensions>
          <ns3:TrackPointExtension>
            <ns3:hr>119</ns3:hr>
            <ns3:cad>0</ns3:cad>
          </ns3:TrackPointExtension>
        </extensions>
      </trkpt>
      <trkpt lat="37.9555003903806209564208984375" lon="-107.102931104600429534912109375">
        <ele>4078.60009765625</ele>
        <time>2026-01-06T19:55:44.000Z</time>
        <extensions>
          <ns3:TrackPointExtension>
            <ns3:hr>116</ns3:hr>
            <ns3:cad>0</ns3:cad>
          </ns3:TrackPointExtension>
        </extensions>
      </trkpt>
      <trkpt lat="37.9555003903806209564208984375" lon="-107.102931104600429534912109375">
        <ele>4078.800048828125</ele>
        <time>2026-01-06T19:55:50.000Z</time>
        <extensions>
          <ns3:TrackPointExtension>
            <ns3:hr>115</ns3:hr>
            <ns3:cad>0</ns3:cad>
          </ns3:TrackPointExtension>
        </extensions>
      </trkpt>
      <trkpt lat="37.9555003903806209564208984375" lon="-107.102931104600429534912109375">
        <ele>4078.60009765625</ele>
        <time>2026-01-06T19:55:52.000Z</time>
        <extensions>
          <ns3:TrackPointExtension>
            <ns3:hr>114</ns3:hr>
            <ns3:cad>0</ns3:cad>
          </ns3:TrackPointExtension>
        </extensions>
      </trkpt>
      <trkpt lat="37.9555003903806209564208984375" lon="-107.102931104600429534912109375">
        <ele>4078.800048828125</ele>
        <time>2026-01-06T19:55:54.000Z</time>
        <extensions>
          <ns3:TrackPointExtension>
            <ns3:hr>111</ns3:hr>
            <ns3:cad>0</ns3:cad>
          </ns3:TrackPointExtension>
        </extensions>
      </trkpt>
      <trkpt lat="37.9555003903806209564208984375" lon="-107.102931104600429534912109375">
        <ele>4078.800048828125</ele>
        <time>2026-01-06T19:55:55.000Z</time>
        <extensions>
          <ns3:TrackPointExtension>
            <ns3:hr>107</ns3:hr>
            <ns3:cad>0</ns3:cad>
          </ns3:TrackPointExtension>
        </extensions>
      </trkpt>
      <trkpt lat="37.9555003903806209564208984375" lon="-107.102931104600429534912109375">
        <ele>4078.39990234375</ele>
        <time>2026-01-06T19:56:01.000Z</time>
        <extensions>
          <ns3:TrackPointExtension>
            <ns3:hr>107</ns3:hr>
            <ns3:cad>0</ns3:cad>
          </ns3:TrackPointExtension>
        </extensions>
      </trkpt>
      <trkpt lat="37.9555003903806209564208984375" lon="-107.102931104600429534912109375">
        <ele>4077.60009765625</ele>
        <time>2026-01-06T19:56:07.000Z</time>
        <extensions>
          <ns3:TrackPointExtension>
            <ns3:hr>109</ns3:hr>
            <ns3:cad>0</ns3:cad>
          </ns3:TrackPointExtension>
        </extensions>
      </trkpt>
      <trkpt lat="37.9555003903806209564208984375" lon="-107.102931104600429534912109375">
        <ele>4077.800048828125</ele>
        <time>2026-01-06T19:56:08.000Z</time>
        <extensions>
          <ns3:TrackPointExtension>
            <ns3:hr>109</ns3:hr>
            <ns3:cad>0</ns3:cad>
          </ns3:TrackPointExtension>
        </extensions>
      </trkpt>
      <trkpt lat="37.9555003903806209564208984375" lon="-107.102931104600429534912109375">
        <ele>4079.800048828125</ele>
        <time>2026-01-06T19:56:11.000Z</time>
        <extensions>
          <ns3:TrackPointExtension>
            <ns3:hr>110</ns3:hr>
            <ns3:cad>0</ns3:cad>
          </ns3:TrackPointExtension>
        </extensions>
      </trkpt>
      <trkpt lat="37.9555003903806209564208984375" lon="-107.102931104600429534912109375">
        <ele>4080.39990234375</ele>
        <time>2026-01-06T19:56:17.000Z</time>
        <extensions>
          <ns3:TrackPointExtension>
            <ns3:hr>110</ns3:hr>
            <ns3:cad>0</ns3:cad>
          </ns3:TrackPointExtension>
        </extensions>
      </trkpt>
      <trkpt lat="37.9555003903806209564208984375" lon="-107.102931104600429534912109375">
        <ele>4079.199951171875</ele>
        <time>2026-01-06T19:56:23.000Z</time>
        <extensions>
          <ns3:TrackPointExtension>
            <ns3:hr>110</ns3:hr>
            <ns3:cad>0</ns3:cad>
          </ns3:TrackPointExtension>
        </extensions>
      </trkpt>
      <trkpt lat="37.9555003903806209564208984375" lon="-107.102931104600429534912109375">
        <ele>4079.199951171875</ele>
        <time>2026-01-06T19:56:24.000Z</time>
        <extensions>
          <ns3:TrackPointExtension>
            <ns3:hr>110</ns3:hr>
            <ns3:cad>0</ns3:cad>
          </ns3:TrackPointExtension>
        </extensions>
      </trkpt>
      <trkpt lat="37.9555003903806209564208984375" lon="-107.102931104600429534912109375">
        <ele>4079.39990234375</ele>
        <time>2026-01-06T19:56:30.000Z</time>
        <extensions>
          <ns3:TrackPointExtension>
            <ns3:hr>108</ns3:hr>
            <ns3:cad>0</ns3:cad>
          </ns3:TrackPointExtension>
        </extensions>
      </trkpt>
      <trkpt lat="37.9555003903806209564208984375" lon="-107.102931104600429534912109375">
        <ele>4079.60009765625</ele>
        <time>2026-01-06T19:56:32.000Z</time>
        <extensions>
          <ns3:TrackPointExtension>
            <ns3:hr>111</ns3:hr>
            <ns3:cad>0</ns3:cad>
          </ns3:TrackPointExtension>
        </extensions>
      </trkpt>
      <trkpt lat="37.9555003903806209564208984375" lon="-107.102931104600429534912109375">
        <ele>4079</ele>
        <time>2026-01-06T19:56:38.000Z</time>
        <extensions>
          <ns3:TrackPointExtension>
            <ns3:hr>111</ns3:hr>
            <ns3:cad>0</ns3:cad>
          </ns3:TrackPointExtension>
        </extensions>
      </trkpt>
      <trkpt lat="37.9555003903806209564208984375" lon="-107.102931104600429534912109375">
        <ele>4078.800048828125</ele>
        <time>2026-01-06T19:56:41.000Z</time>
        <extensions>
          <ns3:TrackPointExtension>
            <ns3:hr>112</ns3:hr>
            <ns3:cad>0</ns3:cad>
          </ns3:TrackPointExtension>
        </extensions>
      </trkpt>
      <trkpt lat="37.9555003903806209564208984375" lon="-107.102931104600429534912109375">
        <ele>4078.60009765625</ele>
        <time>2026-01-06T19:56:42.000Z</time>
        <extensions>
          <ns3:TrackPointExtension>
            <ns3:hr>111</ns3:hr>
            <ns3:cad>0</ns3:cad>
          </ns3:TrackPointExtension>
        </extensions>
      </trkpt>
      <trkpt lat="37.9555003903806209564208984375" lon="-107.102931104600429534912109375">
        <ele>4078.39990234375</ele>
        <time>2026-01-06T19:56:46.000Z</time>
        <extensions>
          <ns3:TrackPointExtension>
            <ns3:hr>108</ns3:hr>
            <ns3:cad>0</ns3:cad>
          </ns3:TrackPointExtension>
        </extensions>
      </trkpt>
      <trkpt lat="37.9555003903806209564208984375" lon="-107.102931104600429534912109375">
        <ele>4078.39990234375</ele>
        <time>2026-01-06T19:56:52.000Z</time>
        <extensions>
          <ns3:TrackPointExtension>
            <ns3:hr>106</ns3:hr>
            <ns3:cad>0</ns3:cad>
          </ns3:TrackPointExtension>
        </extensions>
      </trkpt>
      <trkpt lat="37.9555003903806209564208984375" lon="-107.102931104600429534912109375">
        <ele>4078.39990234375</ele>
        <time>2026-01-06T19:56:56.000Z</time>
        <extensions>
          <ns3:TrackPointExtension>
            <ns3:hr>103</ns3:hr>
            <ns3:cad>0</ns3:cad>
          </ns3:TrackPointExtension>
        </extensions>
      </trkpt>
      <trkpt lat="37.9555003903806209564208984375" lon="-107.102931104600429534912109375">
        <ele>4078.39990234375</ele>
        <time>2026-01-06T19:56:57.000Z</time>
        <extensions>
          <ns3:TrackPointExtension>
            <ns3:hr>103</ns3:hr>
            <ns3:cad>0</ns3:cad>
          </ns3:TrackPointExtension>
        </extensions>
      </trkpt>
      <trkpt lat="37.9555003903806209564208984375" lon="-107.102931104600429534912109375">
        <ele>4078.199951171875</ele>
        <time>2026-01-06T19:57:03.000Z</time>
        <extensions>
          <ns3:TrackPointExtension>
            <ns3:hr>104</ns3:hr>
            <ns3:cad>0</ns3:cad>
          </ns3:TrackPointExtension>
        </extensions>
      </trkpt>
      <trkpt lat="37.9555003903806209564208984375" lon="-107.102931104600429534912109375">
        <ele>4078.60009765625</ele>
        <time>2026-01-06T19:57:05.000Z</time>
        <extensions>
          <ns3:TrackPointExtension>
            <ns3:hr>105</ns3:hr>
            <ns3:cad>0</ns3:cad>
          </ns3:TrackPointExtension>
        </extensions>
      </trkpt>
      <trkpt lat="37.9555003903806209564208984375" lon="-107.102931104600429534912109375">
        <ele>4078.39990234375</ele>
        <time>2026-01-06T19:57:11.000Z</time>
        <extensions>
          <ns3:TrackPointExtension>
            <ns3:hr>105</ns3:hr>
            <ns3:cad>0</ns3:cad>
          </ns3:TrackPointExtension>
        </extensions>
      </trkpt>
      <trkpt lat="37.95550516806542873382568359375" lon="-107.1029316075146198272705078125">
        <ele>4077.800048828125</ele>
        <time>2026-01-06T19:57:15.000Z</time>
        <extensions>
          <ns3:TrackPointExtension>
            <ns3:hr>107</ns3:hr>
            <ns3:cad>0</ns3:cad>
          </ns3:TrackPointExtension>
        </extensions>
      </trkpt>
      <trkpt lat="37.9555003903806209564208984375" lon="-107.102931104600429534912109375">
        <ele>4078.39990234375</ele>
        <time>2026-01-06T19:57:21.000Z</time>
        <extensions>
          <ns3:TrackPointExtension>
            <ns3:hr>107</ns3:hr>
            <ns3:cad>0</ns3:cad>
          </ns3:TrackPointExtension>
        </extensions>
      </trkpt>
      <trkpt lat="37.9555003903806209564208984375" lon="-107.102931104600429534912109375">
        <ele>4078.39990234375</ele>
        <time>2026-01-06T19:57:27.000Z</time>
        <extensions>
          <ns3:TrackPointExtension>
            <ns3:hr>106</ns3:hr>
            <ns3:cad>0</ns3:cad>
          </ns3:TrackPointExtension>
        </extensions>
      </trkpt>
      <trkpt lat="37.9555003903806209564208984375" lon="-107.102931104600429534912109375">
        <ele>4079</ele>
        <time>2026-01-06T19:57:31.000Z</time>
        <extensions>
          <ns3:TrackPointExtension>
            <ns3:hr>104</ns3:hr>
            <ns3:cad>0</ns3:cad>
          </ns3:TrackPointExtension>
        </extensions>
      </trkpt>
      <trkpt lat="37.9555003903806209564208984375" lon="-107.102931104600429534912109375">
        <ele>4079</ele>
        <time>2026-01-06T19:57:32.000Z</time>
        <extensions>
          <ns3:TrackPointExtension>
            <ns3:hr>101</ns3:hr>
            <ns3:cad>0</ns3:cad>
          </ns3:TrackPointExtension>
        </extensions>
      </trkpt>
      <trkpt lat="37.9555003903806209564208984375" lon="-107.102931104600429534912109375">
        <ele>4078.39990234375</ele>
        <time>2026-01-06T19:57:36.000Z</time>
        <extensions>
          <ns3:TrackPointExtension>
            <ns3:hr>108</ns3:hr>
            <ns3:cad>0</ns3:cad>
          </ns3:TrackPointExtension>
        </extensions>
      </trkpt>
      <trkpt lat="37.9555003903806209564208984375" lon="-107.102931104600429534912109375">
        <ele>4078.60009765625</ele>
        <time>2026-01-06T19:57:37.000Z</time>
        <extensions>
          <ns3:TrackPointExtension>
            <ns3:hr>113</ns3:hr>
            <ns3:cad>0</ns3:cad>
          </ns3:TrackPointExtension>
        </extensions>
      </trkpt>
      <trkpt lat="37.9555003903806209564208984375" lon="-107.102931104600429534912109375">
        <ele>4078.60009765625</ele>
        <time>2026-01-06T19:57:39.000Z</time>
        <extensions>
          <ns3:TrackPointExtension>
            <ns3:hr>115</ns3:hr>
            <ns3:cad>0</ns3:cad>
          </ns3:TrackPointExtension>
        </extensions>
      </trkpt>
      <trkpt lat="37.9555003903806209564208984375" lon="-107.102931104600429534912109375">
        <ele>4078.60009765625</ele>
        <time>2026-01-06T19:57:43.000Z</time>
        <extensions>
          <ns3:TrackPointExtension>
            <ns3:hr>112</ns3:hr>
            <ns3:cad>0</ns3:cad>
          </ns3:TrackPointExtension>
        </extensions>
      </trkpt>
      <trkpt lat="37.9555003903806209564208984375" lon="-107.102931104600429534912109375">
        <ele>4078.60009765625</ele>
        <time>2026-01-06T19:57:45.000Z</time>
        <extensions>
          <ns3:TrackPointExtension>
            <ns3:hr>111</ns3:hr>
            <ns3:cad>0</ns3:cad>
          </ns3:TrackPointExtension>
        </extensions>
      </trkpt>
      <trkpt lat="37.9555037431418895721435546875" lon="-107.102939151227474212646484375">
        <ele>4078.39990234375</ele>
        <time>2026-01-06T19:57:46.000Z</time>
        <extensions>
          <ns3:TrackPointExtension>
            <ns3:hr>107</ns3:hr>
            <ns3:cad>0</ns3:cad>
          </ns3:TrackPointExtension>
        </extensions>
      </trkpt>
      <trkpt lat="37.9555003903806209564208984375" lon="-107.102931104600429534912109375">
        <ele>4078.39990234375</ele>
        <time>2026-01-06T19:57:49.000Z</time>
        <extensions>
          <ns3:TrackPointExtension>
            <ns3:hr>104</ns3:hr>
            <ns3:cad>0</ns3:cad>
          </ns3:TrackPointExtension>
        </extensions>
      </trkpt>
      <trkpt lat="37.9555003903806209564208984375" lon="-107.102931104600429534912109375">
        <ele>4078.39990234375</ele>
        <time>2026-01-06T19:57:51.000Z</time>
        <extensions>
          <ns3:TrackPointExtension>
            <ns3:hr>103</ns3:hr>
            <ns3:cad>0</ns3:cad>
          </ns3:TrackPointExtension>
        </extensions>
      </trkpt>
      <trkpt lat="37.9555003903806209564208984375" lon="-107.102931104600429534912109375">
        <ele>4078.39990234375</ele>
        <time>2026-01-06T19:57:53.000Z</time>
        <extensions>
          <ns3:TrackPointExtension>
            <ns3:hr>106</ns3:hr>
            <ns3:cad>0</ns3:cad>
          </ns3:TrackPointExtension>
        </extensions>
      </trkpt>
      <trkpt lat="37.9555003903806209564208984375" lon="-107.102931104600429534912109375">
        <ele>4078.199951171875</ele>
        <time>2026-01-06T19:57:55.000Z</time>
        <extensions>
          <ns3:TrackPointExtension>
            <ns3:hr>109</ns3:hr>
            <ns3:cad>0</ns3:cad>
          </ns3:TrackPointExtension>
        </extensions>
      </trkpt>
      <trkpt lat="37.9555003903806209564208984375" lon="-107.102931104600429534912109375">
        <ele>4077.60009765625</ele>
        <time>2026-01-06T19:57:59.000Z</time>
        <extensions>
          <ns3:TrackPointExtension>
            <ns3:hr>111</ns3:hr>
            <ns3:cad>0</ns3:cad>
          </ns3:TrackPointExtension>
        </extensions>
      </trkpt>
      <trkpt lat="37.9555003903806209564208984375" lon="-107.102931104600429534912109375">
        <ele>4077.60009765625</ele>
        <time>2026-01-06T19:58:01.000Z</time>
        <extensions>
          <ns3:TrackPointExtension>
            <ns3:hr>113</ns3:hr>
            <ns3:cad>0</ns3:cad>
          </ns3:TrackPointExtension>
        </extensions>
      </trkpt>
      <trkpt lat="37.9555003903806209564208984375" lon="-107.102931104600429534912109375">
        <ele>4077.800048828125</ele>
        <time>2026-01-06T19:58:07.000Z</time>
        <extensions>
          <ns3:TrackPointExtension>
            <ns3:hr>114</ns3:hr>
            <ns3:cad>0</ns3:cad>
          </ns3:TrackPointExtension>
        </extensions>
      </trkpt>
      <trkpt lat="37.9555003903806209564208984375" lon="-107.102931104600429534912109375">
        <ele>4077.800048828125</ele>
        <time>2026-01-06T19:58:13.000Z</time>
        <extensions>
          <ns3:TrackPointExtension>
            <ns3:hr>113</ns3:hr>
            <ns3:cad>0</ns3:cad>
          </ns3:TrackPointExtension>
        </extensions>
      </trkpt>
      <trkpt lat="37.9555003903806209564208984375" lon="-107.102931104600429534912109375">
        <ele>4078.199951171875</ele>
        <time>2026-01-06T19:58:16.000Z</time>
        <extensions>
          <ns3:TrackPointExtension>
            <ns3:hr>114</ns3:hr>
            <ns3:cad>0</ns3:cad>
          </ns3:TrackPointExtension>
        </extensions>
      </trkpt>
      <trkpt lat="37.9555003903806209564208984375" lon="-107.102931104600429534912109375">
        <ele>4077.800048828125</ele>
        <time>2026-01-06T19:58:22.000Z</time>
        <extensions>
          <ns3:TrackPointExtension>
            <ns3:hr>114</ns3:hr>
            <ns3:cad>0</ns3:cad>
          </ns3:TrackPointExtension>
        </extensions>
      </trkpt>
      <trkpt lat="37.9555003903806209564208984375" lon="-107.102931104600429534912109375">
        <ele>4077.60009765625</ele>
        <time>2026-01-06T19:58:28.000Z</time>
        <extensions>
          <ns3:TrackPointExtension>
            <ns3:hr>114</ns3:hr>
            <ns3:cad>0</ns3:cad>
          </ns3:TrackPointExtension>
        </extensions>
      </trkpt>
      <trkpt lat="37.9555003903806209564208984375" lon="-107.102931104600429534912109375">
        <ele>4077.800048828125</ele>
        <time>2026-01-06T19:58:34.000Z</time>
        <extensions>
          <ns3:TrackPointExtension>
            <ns3:hr>112</ns3:hr>
            <ns3:cad>0</ns3:cad>
          </ns3:TrackPointExtension>
        </extensions>
      </trkpt>
      <trkpt lat="37.9555003903806209564208984375" lon="-107.102931104600429534912109375">
        <ele>4078</ele>
        <time>2026-01-06T19:58:40.000Z</time>
        <extensions>
          <ns3:TrackPointExtension>
            <ns3:hr>110</ns3:hr>
            <ns3:cad>0</ns3:cad>
          </ns3:TrackPointExtension>
        </extensions>
      </trkpt>
      <trkpt lat="37.9555003903806209564208984375" lon="-107.102931104600429534912109375">
        <ele>4078.199951171875</ele>
        <time>2026-01-06T19:58:41.000Z</time>
        <extensions>
          <ns3:TrackPointExtension>
            <ns3:hr>110</ns3:hr>
            <ns3:cad>0</ns3:cad>
          </ns3:TrackPointExtension>
        </extensions>
      </trkpt>
      <trkpt lat="37.95550935901701450347900390625" lon="-107.1029342897236347198486328125">
        <ele>4078.800048828125</ele>
        <time>2026-01-06T19:58:46.000Z</time>
        <extensions>
          <ns3:TrackPointExtension>
            <ns3:hr>111</ns3:hr>
            <ns3:cad>0</ns3:cad>
          </ns3:TrackPointExtension>
        </extensions>
      </trkpt>
      <trkpt lat="37.9555003903806209564208984375" lon="-107.102931104600429534912109375">
        <ele>4078.800048828125</ele>
        <time>2026-01-06T19:58:47.000Z</time>
        <extensions>
          <ns3:TrackPointExtension>
            <ns3:hr>111</ns3:hr>
            <ns3:cad>0</ns3:cad>
          </ns3:TrackPointExtension>
        </extensions>
      </trkpt>
      <trkpt lat="37.95551170594990253448486328125" lon="-107.102949880063533782958984375">
        <ele>4076.800048828125</ele>
        <time>2026-01-06T19:58:51.000Z</time>
        <extensions>
          <ns3:TrackPointExtension>
            <ns3:hr>110</ns3:hr>
            <ns3:cad>0</ns3:cad>
          </ns3:TrackPointExtension>
        </extensions>
      </trkpt>
      <trkpt lat="37.9555117897689342498779296875" lon="-107.1029497124254703521728515625">
        <ele>4076.39990234375</ele>
        <time>2026-01-06T19:58:53.000Z</time>
        <extensions>
          <ns3:TrackPointExtension>
            <ns3:hr>111</ns3:hr>
            <ns3:cad>0</ns3:cad>
          </ns3:TrackPointExtension>
        </extensions>
      </trkpt>
      <trkpt lat="37.9555107839405536651611328125" lon="-107.10294962860643863677978515625">
        <ele>4077.39990234375</ele>
        <time>2026-01-06T19:58:56.000Z</time>
        <extensions>
          <ns3:TrackPointExtension>
            <ns3:hr>117</ns3:hr>
            <ns3:cad>0</ns3:cad>
          </ns3:TrackPointExtension>
        </extensions>
      </trkpt>
      <trkpt lat="37.955507598817348480224609375" lon="-107.10294141434133052825927734375">
        <ele>4077.60009765625</ele>
        <time>2026-01-06T19:58:57.000Z</time>
        <extensions>
          <ns3:TrackPointExtension>
            <ns3:hr>124</ns3:hr>
            <ns3:cad>0</ns3:cad>
          </ns3:TrackPointExtension>
        </extensions>
      </trkpt>
      <trkpt lat="37.95550801791250705718994140625" lon="-107.10294015705585479736328125">
        <ele>4077.800048828125</ele>
        <time>2026-01-06T19:58:58.000Z</time>
        <extensions>
          <ns3:TrackPointExtension>
            <ns3:hr>129</ns3:hr>
            <ns3:cad>0</ns3:cad>
          </ns3:TrackPointExtension>
        </extensions>
      </trkpt>
      <trkpt lat="37.9555065929889678955078125" lon="-107.1029369719326496124267578125">
        <ele>4078</ele>
        <time>2026-01-06T19:58:59.000Z</time>
        <extensions>
          <ns3:TrackPointExtension>
            <ns3:hr>132</ns3:hr>
            <ns3:cad>0</ns3:cad>
          </ns3:TrackPointExtension>
        </extensions>
      </trkpt>
      <trkpt lat="37.9555117897689342498779296875" lon="-107.1029497124254703521728515625">
        <ele>4078</ele>
        <time>2026-01-06T19:59:00.000Z</time>
        <extensions>
          <ns3:TrackPointExtension>
            <ns3:hr>132</ns3:hr>
            <ns3:cad>0</ns3:cad>
          </ns3:TrackPointExtension>
        </extensions>
      </trkpt>
      <trkpt lat="37.9555117897689342498779296875" lon="-107.1029497124254703521728515625">
        <ele>4077.800048828125</ele>
        <time>2026-01-06T19:59:04.000Z</time>
        <extensions>
          <ns3:TrackPointExtension>
            <ns3:hr>132</ns3:hr>
            <ns3:cad>0</ns3:cad>
          </ns3:TrackPointExtension>
        </extensions>
      </trkpt>
      <trkpt lat="37.9555117897689342498779296875" lon="-107.1029497124254703521728515625">
        <ele>4078.39990234375</ele>
        <time>2026-01-06T19:59:10.000Z</time>
        <extensions>
          <ns3:TrackPointExtension>
            <ns3:hr>130</ns3:hr>
            <ns3:cad>0</ns3:cad>
          </ns3:TrackPointExtension>
        </extensions>
      </trkpt>
      <trkpt lat="37.9555117897689342498779296875" lon="-107.1029497124254703521728515625">
        <ele>4078.60009765625</ele>
        <time>2026-01-06T19:59:11.000Z</time>
        <extensions>
          <ns3:TrackPointExtension>
            <ns3:hr>129</ns3:hr>
            <ns3:cad>0</ns3:cad>
          </ns3:TrackPointExtension>
        </extensions>
      </trkpt>
      <trkpt lat="37.9555117897689342498779296875" lon="-107.1029497124254703521728515625">
        <ele>4078</ele>
        <time>2026-01-06T19:59:17.000Z</time>
        <extensions>
          <ns3:TrackPointExtension>
            <ns3:hr>127</ns3:hr>
            <ns3:cad>0</ns3:cad>
          </ns3:TrackPointExtension>
        </extensions>
      </trkpt>
      <trkpt lat="37.9555117897689342498779296875" lon="-107.1029497124254703521728515625">
        <ele>4077.800048828125</ele>
        <time>2026-01-06T19:59:23.000Z</time>
        <extensions>
          <ns3:TrackPointExtension>
            <ns3:hr>125</ns3:hr>
            <ns3:cad>0</ns3:cad>
          </ns3:TrackPointExtension>
        </extensions>
      </trkpt>
      <trkpt lat="37.9555117897689342498779296875" lon="-107.1029497124254703521728515625">
        <ele>4078</ele>
        <time>2026-01-06T19:59:24.000Z</time>
        <extensions>
          <ns3:TrackPointExtension>
            <ns3:hr>124</ns3:hr>
            <ns3:cad>0</ns3:cad>
          </ns3:TrackPointExtension>
        </extensions>
      </trkpt>
      <trkpt lat="37.9555117897689342498779296875" lon="-107.1029497124254703521728515625">
        <ele>4077.800048828125</ele>
        <time>2026-01-06T19:59:30.000Z</time>
        <extensions>
          <ns3:TrackPointExtension>
            <ns3:hr>124</ns3:hr>
            <ns3:cad>0</ns3:cad>
          </ns3:TrackPointExtension>
        </extensions>
      </trkpt>
      <trkpt lat="37.955494187772274017333984375" lon="-107.102955915033817291259765625">
        <ele>4077.800048828125</ele>
        <time>2026-01-06T19:59:33.000Z</time>
        <extensions>
          <ns3:TrackPointExtension>
            <ns3:hr>124</ns3:hr>
            <ns3:cad>0</ns3:cad>
          </ns3:TrackPointExtension>
        </extensions>
      </trkpt>
      <trkpt lat="37.95550064183771610260009765625" lon="-107.10298500023782253265380859375">
        <ele>4078</ele>
        <time>2026-01-06T19:59:37.000Z</time>
        <extensions>
          <ns3:TrackPointExtension>
            <ns3:hr>124</ns3:hr>
            <ns3:cad>0</ns3:cad>
          </ns3:TrackPointExtension>
        </extensions>
      </trkpt>
      <trkpt lat="37.95550215058028697967529296875" lon="-107.10298919118940830230712890625">
        <ele>4078.199951171875</ele>
        <time>2026-01-06T19:59:43.000Z</time>
        <extensions>
          <ns3:TrackPointExtension>
            <ns3:hr>123</ns3:hr>
            <ns3:cad>0</ns3:cad>
          </ns3:TrackPointExtension>
        </extensions>
      </trkpt>
      <trkpt lat="37.955502234399318695068359375" lon="-107.10298843681812286376953125">
        <ele>4078.39990234375</ele>
        <time>2026-01-06T19:59:45.000Z</time>
        <extensions>
          <ns3:TrackPointExtension>
            <ns3:hr>120</ns3:hr>
            <ns3:cad>0</ns3:cad>
          </ns3:TrackPointExtension>
        </extensions>
      </trkpt>
      <trkpt lat="37.9554923437535762786865234375" lon="-107.10301903076469898223876953125">
        <ele>4077.800048828125</ele>
        <time>2026-01-06T19:59:50.000Z</time>
        <extensions>
          <ns3:TrackPointExtension>
            <ns3:hr>118</ns3:hr>
            <ns3:cad>0</ns3:cad>
          </ns3:TrackPointExtension>
        </extensions>
      </trkpt>
      <trkpt lat="37.9554832912981510162353515625" lon="-107.10304099135100841522216796875">
        <ele>4077.800048828125</ele>
        <time>2026-01-06T19:59:55.000Z</time>
        <extensions>
          <ns3:TrackPointExtension>
            <ns3:hr>118</ns3:hr>
            <ns3:cad>0</ns3:cad>
          </ns3:TrackPointExtension>
        </extensions>
      </trkpt>
      <trkpt lat="37.95546392910182476043701171875" lon="-107.10304669104516506195068359375">
        <ele>4077.199951171875</ele>
        <time>2026-01-06T19:59:59.000Z</time>
        <extensions>
          <ns3:TrackPointExtension>
            <ns3:hr>119</ns3:hr>
            <ns3:cad>0</ns3:cad>
          </ns3:TrackPointExtension>
        </extensions>
      </trkpt>
      <trkpt lat="37.95545856468379497528076171875" lon="-107.10305272601544857025146484375">
        <ele>4076.800048828125</ele>
        <time>2026-01-06T20:00:03.000Z</time>
        <extensions>
          <ns3:TrackPointExtension>
            <ns3:hr>119</ns3:hr>
            <ns3:cad>0</ns3:cad>
          </ns3:TrackPointExtension>
        </extensions>
      </trkpt>
      <trkpt lat="37.95545856468379497528076171875" lon="-107.10305272601544857025146484375">
        <ele>4075.800048828125</ele>
        <time>2026-01-06T20:00:06.000Z</time>
        <extensions>
          <ns3:TrackPointExtension>
            <ns3:hr>119</ns3:hr>
            <ns3:cad>0</ns3:cad>
          </ns3:TrackPointExtension>
        </extensions>
      </trkpt>
      <trkpt lat="37.95545856468379497528076171875" lon="-107.10305272601544857025146484375">
        <ele>4075.60009765625</ele>
        <time>2026-01-06T20:00:07.000Z</time>
        <extensions>
          <ns3:TrackPointExtension>
            <ns3:hr>119</ns3:hr>
            <ns3:cad>0</ns3:cad>
          </ns3:TrackPointExtension>
        </extensions>
      </trkpt>
      <trkpt lat="37.9554502665996551513671875" lon="-107.103092037141323089599609375">
        <ele>4075</ele>
        <time>2026-01-06T20:00:13.000Z</time>
        <extensions>
          <ns3:TrackPointExtension>
            <ns3:hr>118</ns3:hr>
            <ns3:cad>0</ns3:cad>
          </ns3:TrackPointExtension>
        </extensions>
      </trkpt>
      <trkpt lat="37.9554521106183528900146484375" lon="-107.103103436529636383056640625">
        <ele>4074.60009765625</ele>
        <time>2026-01-06T20:00:15.000Z</time>
        <extensions>
          <ns3:TrackPointExtension>
            <ns3:hr>117</ns3:hr>
            <ns3:cad>0</ns3:cad>
          </ns3:TrackPointExtension>
        </extensions>
      </trkpt>
      <trkpt lat="37.95545219443738460540771484375" lon="-107.10310402326285839080810546875">
        <ele>4073.39990234375</ele>
        <time>2026-01-06T20:00:19.000Z</time>
        <extensions>
          <ns3:TrackPointExtension>
            <ns3:hr>116</ns3:hr>
            <ns3:cad>0</ns3:cad>
          </ns3:TrackPointExtension>
        </extensions>
      </trkpt>
      <trkpt lat="37.95545336790382862091064453125" lon="-107.10312095470726490020751953125">
        <ele>4072.199951171875</ele>
        <time>2026-01-06T20:00:22.000Z</time>
        <extensions>
          <ns3:TrackPointExtension>
            <ns3:hr>116</ns3:hr>
            <ns3:cad>0</ns3:cad>
          </ns3:TrackPointExtension>
        </extensions>
      </trkpt>
      <trkpt lat="37.9554514400660991668701171875" lon="-107.10312330164015293121337890625">
        <ele>4071.39990234375</ele>
        <time>2026-01-06T20:00:25.000Z</time>
        <extensions>
          <ns3:TrackPointExtension>
            <ns3:hr>116</ns3:hr>
            <ns3:cad>0</ns3:cad>
          </ns3:TrackPointExtension>
        </extensions>
      </trkpt>
      <trkpt lat="37.9554514400660991668701171875" lon="-107.10312330164015293121337890625">
        <ele>4072.199951171875</ele>
        <time>2026-01-06T20:00:31.000Z</time>
        <extensions>
          <ns3:TrackPointExtension>
            <ns3:hr>117</ns3:hr>
            <ns3:cad>0</ns3:cad>
          </ns3:TrackPointExtension>
        </extensions>
      </trkpt>
      <trkpt lat="37.9554514400660991668701171875" lon="-107.10312330164015293121337890625">
        <ele>4072.199951171875</ele>
        <time>2026-01-06T20:00:32.000Z</time>
        <extensions>
          <ns3:TrackPointExtension>
            <ns3:hr>117</ns3:hr>
            <ns3:cad>0</ns3:cad>
          </ns3:TrackPointExtension>
        </extensions>
      </trkpt>
      <trkpt lat="37.9554350115358829498291015625" lon="-107.10314593277871608734130859375">
        <ele>4071.800048828125</ele>
        <time>2026-01-06T20:00:36.000Z</time>
        <extensions>
          <ns3:TrackPointExtension>
            <ns3:hr>120</ns3:hr>
            <ns3:cad>0</ns3:cad>
          </ns3:TrackPointExtension>
        </extensions>
      </trkpt>
      <trkpt lat="37.95543274842202663421630859375" lon="-107.10314802825450897216796875">
        <ele>4071.800048828125</ele>
        <time>2026-01-06T20:00:37.000Z</time>
        <extensions>
          <ns3:TrackPointExtension>
            <ns3:hr>121</ns3:hr>
            <ns3:cad>0</ns3:cad>
          </ns3:TrackPointExtension>
        </extensions>
      </trkpt>
      <trkpt lat="37.95543056912720203399658203125" lon="-107.1031875908374786376953125">
        <ele>4071.199951171875</ele>
        <time>2026-01-06T20:00:43.000Z</time>
        <extensions>
          <ns3:TrackPointExtension>
            <ns3:hr>121</ns3:hr>
            <ns3:cad>55</ns3:cad>
          </ns3:TrackPointExtension>
        </extensions>
      </trkpt>
      <trkpt lat="37.95543082058429718017578125" lon="-107.10319496691226959228515625">
        <ele>4071</ele>
        <time>2026-01-06T20:00:44.000Z</time>
        <extensions>
          <ns3:TrackPointExtension>
            <ns3:hr>120</ns3:hr>
            <ns3:cad>55</ns3:cad>
          </ns3:TrackPointExtension>
        </extensions>
      </trkpt>
      <trkpt lat="37.95542704872786998748779296875" lon="-107.1032460965216159820556640625">
        <ele>4070</ele>
        <time>2026-01-06T20:00:49.000Z</time>
        <extensions>
          <ns3:TrackPointExtension>
            <ns3:hr>120</ns3:hr>
            <ns3:cad>0</ns3:cad>
          </ns3:TrackPointExtension>
        </extensions>
      </trkpt>
      <trkpt lat="37.95542570762336254119873046875" lon="-107.1032568253576755523681640625">
        <ele>4069.800048828125</ele>
        <time>2026-01-06T20:00:51.000Z</time>
        <extensions>
          <ns3:TrackPointExtension>
            <ns3:hr>119</ns3:hr>
            <ns3:cad>0</ns3:cad>
          </ns3:TrackPointExtension>
        </extensions>
      </trkpt>
      <trkpt lat="37.95538295991718769073486328125" lon="-107.10328741930425167083740234375">
        <ele>4069.60009765625</ele>
        <time>2026-01-06T20:00:57.000Z</time>
        <extensions>
          <ns3:TrackPointExtension>
            <ns3:hr>119</ns3:hr>
            <ns3:cad>50</ns3:cad>
          </ns3:TrackPointExtension>
        </extensions>
      </trkpt>
      <trkpt lat="37.9553599096834659576416015625" lon="-107.103313319385051727294921875">
        <ele>4068.800048828125</ele>
        <time>2026-01-06T20:01:00.000Z</time>
        <extensions>
          <ns3:TrackPointExtension>
            <ns3:hr>119</ns3:hr>
            <ns3:cad>48</ns3:cad>
          </ns3:TrackPointExtension>
        </extensions>
      </trkpt>
      <trkpt lat="37.955350689589977264404296875" lon="-107.103341482579708099365234375">
        <ele>4067.800048828125</ele>
        <time>2026-01-06T20:01:03.000Z</time>
        <extensions>
          <ns3:TrackPointExtension>
            <ns3:hr>119</ns3:hr>
            <ns3:cad>49</ns3:cad>
          </ns3:TrackPointExtension>
        </extensions>
      </trkpt>
      <trkpt lat="37.95534230768680572509765625" lon="-107.10334508679807186126708984375">
        <ele>4066.800048828125</ele>
        <time>2026-01-06T20:01:07.000Z</time>
        <extensions>
          <ns3:TrackPointExtension>
            <ns3:hr>119</ns3:hr>
            <ns3:cad>0</ns3:cad>
          </ns3:TrackPointExtension>
        </extensions>
      </trkpt>
      <trkpt lat="37.9553424753248691558837890625" lon="-107.10334491916000843048095703125">
        <ele>4066.199951171875</ele>
        <time>2026-01-06T20:01:09.000Z</time>
        <extensions>
          <ns3:TrackPointExtension>
            <ns3:hr>118</ns3:hr>
            <ns3:cad>0</ns3:cad>
          </ns3:TrackPointExtension>
        </extensions>
      </trkpt>
      <trkpt lat="37.9553424753248691558837890625" lon="-107.10334491916000843048095703125">
        <ele>4066</ele>
        <time>2026-01-06T20:01:15.000Z</time>
        <extensions>
          <ns3:TrackPointExtension>
            <ns3:hr>119</ns3:hr>
            <ns3:cad>0</ns3:cad>
          </ns3:TrackPointExtension>
        </extensions>
      </trkpt>
      <trkpt lat="37.9553424753248691558837890625" lon="-107.10334491916000843048095703125">
        <ele>4066</ele>
        <time>2026-01-06T20:01:17.000Z</time>
        <extensions>
          <ns3:TrackPointExtension>
            <ns3:hr>119</ns3:hr>
            <ns3:cad>0</ns3:cad>
          </ns3:TrackPointExtension>
        </extensions>
      </trkpt>
      <trkpt lat="37.9553424753248691558837890625" lon="-107.10334491916000843048095703125">
        <ele>4065.60009765625</ele>
        <time>2026-01-06T20:01:19.000Z</time>
        <extensions>
          <ns3:TrackPointExtension>
            <ns3:hr>119</ns3:hr>
            <ns3:cad>0</ns3:cad>
          </ns3:TrackPointExtension>
        </extensions>
      </trkpt>
      <trkpt lat="37.9553327523171901702880859375" lon="-107.10334257222712039947509765625">
        <ele>4065.199951171875</ele>
        <time>2026-01-06T20:01:25.000Z</time>
        <extensions>
          <ns3:TrackPointExtension>
            <ns3:hr>119</ns3:hr>
            <ns3:cad>0</ns3:cad>
          </ns3:TrackPointExtension>
        </extensions>
      </trkpt>
      <trkpt lat="37.9553424753248691558837890625" lon="-107.10334491916000843048095703125">
        <ele>4065.199951171875</ele>
        <time>2026-01-06T20:01:26.000Z</time>
        <extensions>
          <ns3:TrackPointExtension>
            <ns3:hr>120</ns3:hr>
            <ns3:cad>0</ns3:cad>
          </ns3:TrackPointExtension>
        </extensions>
      </trkpt>
      <trkpt lat="37.9553424753248691558837890625" lon="-107.10334491916000843048095703125">
        <ele>4065.60009765625</ele>
        <time>2026-01-06T20:01:32.000Z</time>
        <extensions>
          <ns3:TrackPointExtension>
            <ns3:hr>119</ns3:hr>
            <ns3:cad>0</ns3:cad>
          </ns3:TrackPointExtension>
        </extensions>
      </trkpt>
      <trkpt lat="37.9553424753248691558837890625" lon="-107.10334491916000843048095703125">
        <ele>4065.39990234375</ele>
        <time>2026-01-06T20:01:34.000Z</time>
        <extensions>
          <ns3:TrackPointExtension>
            <ns3:hr>120</ns3:hr>
            <ns3:cad>0</ns3:cad>
          </ns3:TrackPointExtension>
        </extensions>
      </trkpt>
      <trkpt lat="37.9553334228694438934326171875" lon="-107.10334341041743755340576171875">
        <ele>4065.60009765625</ele>
        <time>2026-01-06T20:01:40.000Z</time>
        <extensions>
          <ns3:TrackPointExtension>
            <ns3:hr>121</ns3:hr>
            <ns3:cad>77</ns3:cad>
          </ns3:TrackPointExtension>
        </extensions>
      </trkpt>
      <trkpt lat="37.9553424753248691558837890625" lon="-107.10334491916000843048095703125">
        <ele>4065.39990234375</ele>
        <time>2026-01-06T20:01:43.000Z</time>
        <extensions>
          <ns3:TrackPointExtension>
            <ns3:hr>120</ns3:hr>
            <ns3:cad>0</ns3:cad>
          </ns3:TrackPointExtension>
        </extensions>
      </trkpt>
      <trkpt lat="37.9553424753248691558837890625" lon="-107.10334491916000843048095703125">
        <ele>4065.199951171875</ele>
        <time>2026-01-06T20:01:49.000Z</time>
        <extensions>
          <ns3:TrackPointExtension>
            <ns3:hr>122</ns3:hr>
            <ns3:cad>0</ns3:cad>
          </ns3:TrackPointExtension>
        </extensions>
      </trkpt>
      <trkpt lat="37.9553424753248691558837890625" lon="-107.10334491916000843048095703125">
        <ele>4065.800048828125</ele>
        <time>2026-01-06T20:01:51.000Z</time>
        <extensions>
          <ns3:TrackPointExtension>
            <ns3:hr>122</ns3:hr>
            <ns3:cad>0</ns3:cad>
          </ns3:TrackPointExtension>
        </extensions>
      </trkpt>
      <trkpt lat="37.9553424753248691558837890625" lon="-107.10334491916000843048095703125">
        <ele>4065.60009765625</ele>
        <time>2026-01-06T20:01:57.000Z</time>
        <extensions>
          <ns3:TrackPointExtension>
            <ns3:hr>123</ns3:hr>
            <ns3:cad>0</ns3:cad>
          </ns3:TrackPointExtension>
        </extensions>
      </trkpt>
      <trkpt lat="37.9553424753248691558837890625" lon="-107.10334491916000843048095703125">
        <ele>4065.60009765625</ele>
        <time>2026-01-06T20:02:01.000Z</time>
        <extensions>
          <ns3:TrackPointExtension>
            <ns3:hr>119</ns3:hr>
            <ns3:cad>0</ns3:cad>
          </ns3:TrackPointExtension>
        </extensions>
      </trkpt>
      <trkpt lat="37.9553424753248691558837890625" lon="-107.10334491916000843048095703125">
        <ele>4065.800048828125</ele>
        <time>2026-01-06T20:02:02.000Z</time>
        <extensions>
          <ns3:TrackPointExtension>
            <ns3:hr>116</ns3:hr>
            <ns3:cad>0</ns3:cad>
          </ns3:TrackPointExtension>
        </extensions>
      </trkpt>
      <trkpt lat="37.9553424753248691558837890625" lon="-107.10334491916000843048095703125">
        <ele>4065.800048828125</ele>
        <time>2026-01-06T20:02:03.000Z</time>
        <extensions>
          <ns3:TrackPointExtension>
            <ns3:hr>114</ns3:hr>
            <ns3:cad>0</ns3:cad>
          </ns3:TrackPointExtension>
        </extensions>
      </trkpt>
      <trkpt lat="37.9553424753248691558837890625" lon="-107.10334491916000843048095703125">
        <ele>4066</ele>
        <time>2026-01-06T20:02:06.000Z</time>
        <extensions>
          <ns3:TrackPointExtension>
            <ns3:hr>111</ns3:hr>
            <ns3:cad>0</ns3:cad>
          </ns3:TrackPointExtension>
        </extensions>
      </trkpt>
      <trkpt lat="37.9553424753248691558837890625" lon="-107.10334491916000843048095703125">
        <ele>4066.39990234375</ele>
        <time>2026-01-06T20:02:12.000Z</time>
        <extensions>
          <ns3:TrackPointExtension>
            <ns3:hr>111</ns3:hr>
            <ns3:cad>0</ns3:cad>
          </ns3:TrackPointExtension>
        </extensions>
      </trkpt>
      <trkpt lat="37.9553424753248691558837890625" lon="-107.10334491916000843048095703125">
        <ele>4066.199951171875</ele>
        <time>2026-01-06T20:02:15.000Z</time>
        <extensions>
          <ns3:TrackPointExtension>
            <ns3:hr>112</ns3:hr>
            <ns3:cad>0</ns3:cad>
          </ns3:TrackPointExtension>
        </extensions>
      </trkpt>
      <trkpt lat="37.95533451251685619354248046875" lon="-107.10333771072328090667724609375">
        <ele>4066.39990234375</ele>
        <time>2026-01-06T20:02:21.000Z</time>
        <extensions>
          <ns3:TrackPointExtension>
            <ns3:hr>112</ns3:hr>
            <ns3:cad>0</ns3:cad>
          </ns3:TrackPointExtension>
        </extensions>
      </trkpt>
      <trkpt lat="37.9553424753248691558837890625" lon="-107.10334491916000843048095703125">
        <ele>4066.800048828125</ele>
        <time>2026-01-06T20:02:22.000Z</time>
        <extensions>
          <ns3:TrackPointExtension>
            <ns3:hr>112</ns3:hr>
            <ns3:cad>0</ns3:cad>
          </ns3:TrackPointExtension>
        </extensions>
      </trkpt>
      <trkpt lat="37.9553424753248691558837890625" lon="-107.10334491916000843048095703125">
        <ele>4067</ele>
        <time>2026-01-06T20:02:23.000Z</time>
        <extensions>
          <ns3:TrackPointExtension>
            <ns3:hr>112</ns3:hr>
            <ns3:cad>0</ns3:cad>
          </ns3:TrackPointExtension>
        </extensions>
      </trkpt>
      <trkpt lat="37.9553424753248691558837890625" lon="-107.10334491916000843048095703125">
        <ele>4067.39990234375</ele>
        <time>2026-01-06T20:02:29.000Z</time>
        <extensions>
          <ns3:TrackPointExtension>
            <ns3:hr>111</ns3:hr>
            <ns3:cad>0</ns3:cad>
          </ns3:TrackPointExtension>
        </extensions>
      </trkpt>
      <trkpt lat="37.9553424753248691558837890625" lon="-107.10334491916000843048095703125">
        <ele>4067.60009765625</ele>
        <time>2026-01-06T20:02:32.000Z</time>
        <extensions>
          <ns3:TrackPointExtension>
            <ns3:hr>107</ns3:hr>
            <ns3:cad>0</ns3:cad>
          </ns3:TrackPointExtension>
        </extensions>
      </trkpt>
      <trkpt lat="37.9553424753248691558837890625" lon="-107.10334491916000843048095703125">
        <ele>4067.39990234375</ele>
        <time>2026-01-06T20:02:36.000Z</time>
        <extensions>
          <ns3:TrackPointExtension>
            <ns3:hr>104</ns3:hr>
            <ns3:cad>0</ns3:cad>
          </ns3:TrackPointExtension>
        </extensions>
      </trkpt>
      <trkpt lat="37.9553424753248691558837890625" lon="-107.10334491916000843048095703125">
        <ele>4067.39990234375</ele>
        <time>2026-01-06T20:02:37.000Z</time>
        <extensions>
          <ns3:TrackPointExtension>
            <ns3:hr>103</ns3:hr>
            <ns3:cad>0</ns3:cad>
          </ns3:TrackPointExtension>
        </extensions>
      </trkpt>
      <trkpt lat="37.9553424753248691558837890625" lon="-107.10334491916000843048095703125">
        <ele>4067</ele>
        <time>2026-01-06T20:02:41.000Z</time>
        <extensions>
          <ns3:TrackPointExtension>
            <ns3:hr>100</ns3:hr>
            <ns3:cad>0</ns3:cad>
          </ns3:TrackPointExtension>
        </extensions>
      </trkpt>
      <trkpt lat="37.9553424753248691558837890625" lon="-107.10334491916000843048095703125">
        <ele>4068</ele>
        <time>2026-01-06T20:02:45.000Z</time>
        <extensions>
          <ns3:TrackPointExtension>
            <ns3:hr>100</ns3:hr>
            <ns3:cad>0</ns3:cad>
          </ns3:TrackPointExtension>
        </extensions>
      </trkpt>
      <trkpt lat="37.9553424753248691558837890625" lon="-107.10334491916000843048095703125">
        <ele>4067.60009765625</ele>
        <time>2026-01-06T20:02:50.000Z</time>
        <extensions>
          <ns3:TrackPointExtension>
            <ns3:hr>103</ns3:hr>
            <ns3:cad>0</ns3:cad>
          </ns3:TrackPointExtension>
        </extensions>
      </trkpt>
      <trkpt lat="37.9553424753248691558837890625" lon="-107.10334491916000843048095703125">
        <ele>4067.39990234375</ele>
        <time>2026-01-06T20:02:53.000Z</time>
        <extensions>
          <ns3:TrackPointExtension>
            <ns3:hr>104</ns3:hr>
            <ns3:cad>0</ns3:cad>
          </ns3:TrackPointExtension>
        </extensions>
      </trkpt>
      <trkpt lat="37.95532948337495326995849609375" lon="-107.10334206931293010711669921875">
        <ele>4067.199951171875</ele>
        <time>2026-01-06T20:02:59.000Z</time>
        <extensions>
          <ns3:TrackPointExtension>
            <ns3:hr>105</ns3:hr>
            <ns3:cad>0</ns3:cad>
          </ns3:TrackPointExtension>
        </extensions>
      </trkpt>
      <trkpt lat="37.9553424753248691558837890625" lon="-107.10334491916000843048095703125">
        <ele>4068.39990234375</ele>
        <time>2026-01-06T20:03:05.000Z</time>
        <extensions>
          <ns3:TrackPointExtension>
            <ns3:hr>105</ns3:hr>
            <ns3:cad>0</ns3:cad>
          </ns3:TrackPointExtension>
        </extensions>
      </trkpt>
      <trkpt lat="37.9553424753248691558837890625" lon="-107.10334491916000843048095703125">
        <ele>4067.60009765625</ele>
        <time>2026-01-06T20:03:09.000Z</time>
        <extensions>
          <ns3:TrackPointExtension>
            <ns3:hr>102</ns3:hr>
            <ns3:cad>0</ns3:cad>
          </ns3:TrackPointExtension>
        </extensions>
      </trkpt>
      <trkpt lat="37.9553424753248691558837890625" lon="-107.10334491916000843048095703125">
        <ele>4067.39990234375</ele>
        <time>2026-01-06T20:03:15.000Z</time>
        <extensions>
          <ns3:TrackPointExtension>
            <ns3:hr>101</ns3:hr>
            <ns3:cad>0</ns3:cad>
          </ns3:TrackPointExtension>
        </extensions>
      </trkpt>
      <trkpt lat="37.9553424753248691558837890625" lon="-107.10334491916000843048095703125">
        <ele>4067.60009765625</ele>
        <time>2026-01-06T20:03:19.000Z</time>
        <extensions>
          <ns3:TrackPointExtension>
            <ns3:hr>101</ns3:hr>
            <ns3:cad>0</ns3:cad>
          </ns3:TrackPointExtension>
        </extensions>
      </trkpt>
      <trkpt lat="37.9553424753248691558837890625" lon="-107.10334491916000843048095703125">
        <ele>4067.39990234375</ele>
        <time>2026-01-06T20:03:25.000Z</time>
        <extensions>
          <ns3:TrackPointExtension>
            <ns3:hr>100</ns3:hr>
            <ns3:cad>0</ns3:cad>
          </ns3:TrackPointExtension>
        </extensions>
      </trkpt>
      <trkpt lat="37.9553424753248691558837890625" lon="-107.10334491916000843048095703125">
        <ele>4067.39990234375</ele>
        <time>2026-01-06T20:03:31.000Z</time>
        <extensions>
          <ns3:TrackPointExtension>
            <ns3:hr>99</ns3:hr>
            <ns3:cad>0</ns3:cad>
          </ns3:TrackPointExtension>
        </extensions>
      </trkpt>
      <trkpt lat="37.9553424753248691558837890625" lon="-107.10334491916000843048095703125">
        <ele>4067.800048828125</ele>
        <time>2026-01-06T20:03:35.000Z</time>
        <extensions>
          <ns3:TrackPointExtension>
            <ns3:hr>99</ns3:hr>
            <ns3:cad>0</ns3:cad>
          </ns3:TrackPointExtension>
        </extensions>
      </trkpt>
      <trkpt lat="37.9553424753248691558837890625" lon="-107.10334491916000843048095703125">
        <ele>4066.60009765625</ele>
        <time>2026-01-06T20:03:41.000Z</time>
        <extensions>
          <ns3:TrackPointExtension>
            <ns3:hr>98</ns3:hr>
            <ns3:cad>0</ns3:cad>
          </ns3:TrackPointExtension>
        </extensions>
      </trkpt>
      <trkpt lat="37.9553424753248691558837890625" lon="-107.10334491916000843048095703125">
        <ele>4066.60009765625</ele>
        <time>2026-01-06T20:03:47.000Z</time>
        <extensions>
          <ns3:TrackPointExtension>
            <ns3:hr>97</ns3:hr>
            <ns3:cad>0</ns3:cad>
          </ns3:TrackPointExtension>
        </extensions>
      </trkpt>
      <trkpt lat="37.9553314112126827239990234375" lon="-107.103342823684215545654296875">
        <ele>4067.39990234375</ele>
        <time>2026-01-06T20:03:53.000Z</time>
        <extensions>
          <ns3:TrackPointExtension>
            <ns3:hr>97</ns3:hr>
            <ns3:cad>0</ns3:cad>
          </ns3:TrackPointExtension>
        </extensions>
      </trkpt>
      <trkpt lat="37.9553424753248691558837890625" lon="-107.10334491916000843048095703125">
        <ele>4066.800048828125</ele>
        <time>2026-01-06T20:03:59.000Z</time>
        <extensions>
          <ns3:TrackPointExtension>
            <ns3:hr>97</ns3:hr>
            <ns3:cad>0</ns3:cad>
          </ns3:TrackPointExtension>
        </extensions>
      </trkpt>
      <trkpt lat="37.9553424753248691558837890625" lon="-107.10334491916000843048095703125">
        <ele>4066.800048828125</ele>
        <time>2026-01-06T20:04:00.000Z</time>
        <extensions>
          <ns3:TrackPointExtension>
            <ns3:hr>98</ns3:hr>
            <ns3:cad>0</ns3:cad>
          </ns3:TrackPointExtension>
        </extensions>
      </trkpt>
      <trkpt lat="37.9553424753248691558837890625" lon="-107.10334491916000843048095703125">
        <ele>4067.800048828125</ele>
        <time>2026-01-06T20:04:03.000Z</time>
        <extensions>
          <ns3:TrackPointExtension>
            <ns3:hr>97</ns3:hr>
            <ns3:cad>0</ns3:cad>
          </ns3:TrackPointExtension>
        </extensions>
      </trkpt>
      <trkpt lat="37.95532814227044582366943359375" lon="-107.10335078649222850799560546875">
        <ele>4067.39990234375</ele>
        <time>2026-01-06T20:04:09.000Z</time>
        <extensions>
          <ns3:TrackPointExtension>
            <ns3:hr>98</ns3:hr>
            <ns3:cad>0</ns3:cad>
          </ns3:TrackPointExtension>
        </extensions>
      </trkpt>
      <trkpt lat="37.95532814227044582366943359375" lon="-107.10335078649222850799560546875">
        <ele>4067</ele>
        <time>2026-01-06T20:04:14.000Z</time>
        <extensions>
          <ns3:TrackPointExtension>
            <ns3:hr>101</ns3:hr>
            <ns3:cad>0</ns3:cad>
          </ns3:TrackPointExtension>
        </extensions>
      </trkpt>
      <trkpt lat="37.95530668459832668304443359375" lon="-107.10335028357803821563720703125">
        <ele>4067.39990234375</ele>
        <time>2026-01-06T20:04:19.000Z</time>
        <extensions>
          <ns3:TrackPointExtension>
            <ns3:hr>100</ns3:hr>
            <ns3:cad>0</ns3:cad>
          </ns3:TrackPointExtension>
        </extensions>
      </trkpt>
      <trkpt lat="37.95528707094490528106689453125" lon="-107.1033641137182712554931640625">
        <ele>4067</ele>
        <time>2026-01-06T20:04:25.000Z</time>
        <extensions>
          <ns3:TrackPointExtension>
            <ns3:hr>100</ns3:hr>
            <ns3:cad>0</ns3:cad>
          </ns3:TrackPointExtension>
        </extensions>
      </trkpt>
      <trkpt lat="37.95528774149715900421142578125" lon="-107.103368304669857025146484375">
        <ele>4066.800048828125</ele>
        <time>2026-01-06T20:04:26.000Z</time>
        <extensions>
          <ns3:TrackPointExtension>
            <ns3:hr>102</ns3:hr>
            <ns3:cad>0</ns3:cad>
          </ns3:TrackPointExtension>
        </extensions>
      </trkpt>
      <trkpt lat="37.9552884958684444427490234375" lon="-107.1033728308975696563720703125">
        <ele>4066.60009765625</ele>
        <time>2026-01-06T20:04:27.000Z</time>
        <extensions>
          <ns3:TrackPointExtension>
            <ns3:hr>103</ns3:hr>
            <ns3:cad>0</ns3:cad>
          </ns3:TrackPointExtension>
        </extensions>
      </trkpt>
      <trkpt lat="37.9552864842116832733154296875" lon="-107.10337442345917224884033203125">
        <ele>4066.39990234375</ele>
        <time>2026-01-06T20:04:29.000Z</time>
        <extensions>
          <ns3:TrackPointExtension>
            <ns3:hr>106</ns3:hr>
            <ns3:cad>0</ns3:cad>
          </ns3:TrackPointExtension>
        </extensions>
      </trkpt>
      <trkpt lat="37.9552732408046722412109375" lon="-107.103387750685214996337890625">
        <ele>4066</ele>
        <time>2026-01-06T20:04:34.000Z</time>
        <extensions>
          <ns3:TrackPointExtension>
            <ns3:hr>106</ns3:hr>
            <ns3:cad>0</ns3:cad>
          </ns3:TrackPointExtension>
        </extensions>
      </trkpt>
      <trkpt lat="37.95523879118263721466064453125" lon="-107.10340728051960468292236328125">
        <ele>4065.60009765625</ele>
        <time>2026-01-06T20:04:39.000Z</time>
        <extensions>
          <ns3:TrackPointExtension>
            <ns3:hr>106</ns3:hr>
            <ns3:cad>0</ns3:cad>
          </ns3:TrackPointExtension>
        </extensions>
      </trkpt>
      <trkpt lat="37.95522135682404041290283203125" lon="-107.10342002101242542266845703125">
        <ele>4065.199951171875</ele>
        <time>2026-01-06T20:04:42.000Z</time>
        <extensions>
          <ns3:TrackPointExtension>
            <ns3:hr>106</ns3:hr>
            <ns3:cad>0</ns3:cad>
          </ns3:TrackPointExtension>
        </extensions>
      </trkpt>
      <trkpt lat="37.95519017614424228668212890625" lon="-107.10343041457235813140869140625">
        <ele>4064.39990234375</ele>
        <time>2026-01-06T20:04:47.000Z</time>
        <extensions>
          <ns3:TrackPointExtension>
            <ns3:hr>104</ns3:hr>
            <ns3:cad>0</ns3:cad>
          </ns3:TrackPointExtension>
        </extensions>
      </trkpt>
      <trkpt lat="37.95514642260968685150146484375" lon="-107.10344952531158924102783203125">
        <ele>4063.800048828125</ele>
        <time>2026-01-06T20:04:53.000Z</time>
        <extensions>
          <ns3:TrackPointExtension>
            <ns3:hr>106</ns3:hr>
            <ns3:cad>51</ns3:cad>
          </ns3:TrackPointExtension>
        </extensions>
      </trkpt>
      <trkpt lat="37.95513711869716644287109375" lon="-107.10345941595733165740966796875">
        <ele>4063.199951171875</ele>
        <time>2026-01-06T20:04:55.000Z</time>
        <extensions>
          <ns3:TrackPointExtension>
            <ns3:hr>106</ns3:hr>
            <ns3:cad>51</ns3:cad>
          </ns3:TrackPointExtension>
        </extensions>
      </trkpt>
      <trkpt lat="37.955109290778636932373046875" lon="-107.10347400046885013580322265625">
        <ele>4062</ele>
        <time>2026-01-06T20:04:59.000Z</time>
        <extensions>
          <ns3:TrackPointExtension>
            <ns3:hr>105</ns3:hr>
            <ns3:cad>0</ns3:cad>
          </ns3:TrackPointExtension>
        </extensions>
      </trkpt>
      <trkpt lat="37.9550997354090213775634765625" lon="-107.10347349755465984344482421875">
        <ele>4061.60009765625</ele>
        <time>2026-01-06T20:05:00.000Z</time>
        <extensions>
          <ns3:TrackPointExtension>
            <ns3:hr>105</ns3:hr>
            <ns3:cad>0</ns3:cad>
          </ns3:TrackPointExtension>
        </extensions>
      </trkpt>
      <trkpt lat="37.95508355833590030670166015625" lon="-107.10347316227853298187255859375">
        <ele>4060.800048828125</ele>
        <time>2026-01-06T20:05:02.000Z</time>
        <extensions>
          <ns3:TrackPointExtension>
            <ns3:hr>106</ns3:hr>
            <ns3:cad>0</ns3:cad>
          </ns3:TrackPointExtension>
        </extensions>
      </trkpt>
      <trkpt lat="37.95505790971219539642333984375" lon="-107.1034730784595012664794921875">
        <ele>4059.800048828125</ele>
        <time>2026-01-06T20:05:06.000Z</time>
        <extensions>
          <ns3:TrackPointExtension>
            <ns3:hr>106</ns3:hr>
            <ns3:cad>0</ns3:cad>
          </ns3:TrackPointExtension>
        </extensions>
      </trkpt>
      <trkpt lat="37.95505003072321414947509765625" lon="-107.10347718559205532073974609375">
        <ele>4059.60009765625</ele>
        <time>2026-01-06T20:05:07.000Z</time>
        <extensions>
          <ns3:TrackPointExtension>
            <ns3:hr>106</ns3:hr>
            <ns3:cad>0</ns3:cad>
          </ns3:TrackPointExtension>
        </extensions>
      </trkpt>
      <trkpt lat="37.95501516200602054595947265625" lon="-107.1034908480942249298095703125">
        <ele>4059</ele>
        <time>2026-01-06T20:05:13.000Z</time>
        <extensions>
          <ns3:TrackPointExtension>
            <ns3:hr>103</ns3:hr>
            <ns3:cad>0</ns3:cad>
          </ns3:TrackPointExtension>
        </extensions>
      </trkpt>
      <trkpt lat="37.955005355179309844970703125" lon="-107.10350073873996734619140625">
        <ele>4058.60009765625</ele>
        <time>2026-01-06T20:05:15.000Z</time>
        <extensions>
          <ns3:TrackPointExtension>
            <ns3:hr>98</ns3:hr>
            <ns3:cad>0</ns3:cad>
          </ns3:TrackPointExtension>
        </extensions>
      </trkpt>
      <trkpt lat="37.954963110387325286865234375" lon="-107.1035112999379634857177734375">
        <ele>4057.800048828125</ele>
        <time>2026-01-06T20:05:21.000Z</time>
        <extensions>
          <ns3:TrackPointExtension>
            <ns3:hr>99</ns3:hr>
            <ns3:cad>51</ns3:cad>
          </ns3:TrackPointExtension>
        </extensions>
      </trkpt>
      <trkpt lat="37.95495397411286830902099609375" lon="-107.10351356305181980133056640625">
        <ele>4057.60009765625</ele>
        <time>2026-01-06T20:05:22.000Z</time>
        <extensions>
          <ns3:TrackPointExtension>
            <ns3:hr>99</ns3:hr>
            <ns3:cad>50</ns3:cad>
          </ns3:TrackPointExtension>
        </extensions>
      </trkpt>
      <trkpt lat="37.95494626276195049285888671875" lon="-107.1035156585276126861572265625">
        <ele>4057.60009765625</ele>
        <time>2026-01-06T20:05:23.000Z</time>
        <extensions>
          <ns3:TrackPointExtension>
            <ns3:hr>99</ns3:hr>
            <ns3:cad>50</ns3:cad>
          </ns3:TrackPointExtension>
        </extensions>
      </trkpt>
      <trkpt lat="37.95490636490285396575927734375" lon="-107.10352630354464054107666015625">
        <ele>4057.39990234375</ele>
        <time>2026-01-06T20:05:29.000Z</time>
        <extensions>
          <ns3:TrackPointExtension>
            <ns3:hr>98</ns3:hr>
            <ns3:cad>50</ns3:cad>
          </ns3:TrackPointExtension>
        </extensions>
      </trkpt>
      <trkpt lat="37.954888679087162017822265625" lon="-107.1035349369049072265625">
        <ele>4057</ele>
        <time>2026-01-06T20:05:32.000Z</time>
        <extensions>
          <ns3:TrackPointExtension>
            <ns3:hr>98</ns3:hr>
            <ns3:cad>50</ns3:cad>
          </ns3:TrackPointExtension>
        </extensions>
      </trkpt>
      <trkpt lat="37.95484987087547779083251953125" lon="-107.103554718196392059326171875">
        <ele>4056.39990234375</ele>
        <time>2026-01-06T20:05:38.000Z</time>
        <extensions>
          <ns3:TrackPointExtension>
            <ns3:hr>97</ns3:hr>
            <ns3:cad>53</ns3:cad>
          </ns3:TrackPointExtension>
        </extensions>
      </trkpt>
      <trkpt lat="37.954810224473476409912109375" lon="-107.10356720723211765289306640625">
        <ele>4055.199951171875</ele>
        <time>2026-01-06T20:05:43.000Z</time>
        <extensions>
          <ns3:TrackPointExtension>
            <ns3:hr>96</ns3:hr>
            <ns3:cad>0</ns3:cad>
          </ns3:TrackPointExtension>
        </extensions>
      </trkpt>
      <trkpt lat="37.95478952117264270782470703125" lon="-107.10357475094497203826904296875">
        <ele>4054.39990234375</ele>
        <time>2026-01-06T20:05:46.000Z</time>
        <extensions>
          <ns3:TrackPointExtension>
            <ns3:hr>96</ns3:hr>
            <ns3:cad>0</ns3:cad>
          </ns3:TrackPointExtension>
        </extensions>
      </trkpt>
      <trkpt lat="37.95476521365344524383544921875" lon="-107.10358028300106525421142578125">
        <ele>4054.199951171875</ele>
        <time>2026-01-06T20:05:49.000Z</time>
        <extensions>
          <ns3:TrackPointExtension>
            <ns3:hr>96</ns3:hr>
            <ns3:cad>0</ns3:cad>
          </ns3:TrackPointExtension>
        </extensions>
      </trkpt>
      <trkpt lat="37.95473746955394744873046875" lon="-107.10360140539705753326416015625">
        <ele>4053.60009765625</ele>
        <time>2026-01-06T20:05:55.000Z</time>
        <extensions>
          <ns3:TrackPointExtension>
            <ns3:hr>96</ns3:hr>
            <ns3:cad>0</ns3:cad>
          </ns3:TrackPointExtension>
        </extensions>
      </trkpt>
      <trkpt lat="37.9547259025275707244873046875" lon="-107.10361364297568798065185546875">
        <ele>4053.199951171875</ele>
        <time>2026-01-06T20:05:57.000Z</time>
        <extensions>
          <ns3:TrackPointExtension>
            <ns3:hr>95</ns3:hr>
            <ns3:cad>0</ns3:cad>
          </ns3:TrackPointExtension>
        </extensions>
      </trkpt>
      <trkpt lat="37.95470017008483409881591796875" lon="-107.1036350168287754058837890625">
        <ele>4053.199951171875</ele>
        <time>2026-01-06T20:06:01.000Z</time>
        <extensions>
          <ns3:TrackPointExtension>
            <ns3:hr>96</ns3:hr>
            <ns3:cad>40</ns3:cad>
          </ns3:TrackPointExtension>
        </extensions>
      </trkpt>
      <trkpt lat="37.9546541534364223480224609375" lon="-107.10364826023578643798828125">
        <ele>4052.39990234375</ele>
        <time>2026-01-06T20:06:07.000Z</time>
        <extensions>
          <ns3:TrackPointExtension>
            <ns3:hr>98</ns3:hr>
            <ns3:cad>47</ns3:cad>
          </ns3:TrackPointExtension>
        </extensions>
      </trkpt>
      <trkpt lat="37.95464585535228252410888671875" lon="-107.103652618825435638427734375">
        <ele>4052.199951171875</ele>
        <time>2026-01-06T20:06:09.000Z</time>
        <extensions>
          <ns3:TrackPointExtension>
            <ns3:hr>98</ns3:hr>
            <ns3:cad>0</ns3:cad>
          </ns3:TrackPointExtension>
        </extensions>
      </trkpt>
      <trkpt lat="37.95462205074727535247802734375" lon="-107.10364960134029388427734375">
        <ele>4050.800048828125</ele>
        <time>2026-01-06T20:06:13.000Z</time>
        <extensions>
          <ns3:TrackPointExtension>
            <ns3:hr>97</ns3:hr>
            <ns3:cad>0</ns3:cad>
          </ns3:TrackPointExtension>
        </extensions>
      </trkpt>
      <trkpt lat="37.9546015150845050811767578125" lon="-107.10365035571157932281494140625">
        <ele>4050</ele>
        <time>2026-01-06T20:06:16.000Z</time>
        <extensions>
          <ns3:TrackPointExtension>
            <ns3:hr>99</ns3:hr>
            <ns3:cad>0</ns3:cad>
          </ns3:TrackPointExtension>
        </extensions>
      </trkpt>
      <trkpt lat="37.9545974917709827423095703125" lon="-107.103652618825435638427734375">
        <ele>4049.800048828125</ele>
        <time>2026-01-06T20:06:17.000Z</time>
        <extensions>
          <ns3:TrackPointExtension>
            <ns3:hr>100</ns3:hr>
            <ns3:cad>0</ns3:cad>
          </ns3:TrackPointExtension>
        </extensions>
      </trkpt>
      <trkpt lat="37.95457276515662670135498046875" lon="-107.10366561077535152435302734375">
        <ele>4048.800048828125</ele>
        <time>2026-01-06T20:06:22.000Z</time>
        <extensions>
          <ns3:TrackPointExtension>
            <ns3:hr>101</ns3:hr>
            <ns3:cad>45</ns3:cad>
          </ns3:TrackPointExtension>
        </extensions>
      </trkpt>
      <trkpt lat="37.954570166766643524169921875" lon="-107.10366846062242984771728515625">
        <ele>4048.60009765625</ele>
        <time>2026-01-06T20:06:23.000Z</time>
        <extensions>
          <ns3:TrackPointExtension>
            <ns3:hr>101</ns3:hr>
            <ns3:cad>0</ns3:cad>
          </ns3:TrackPointExtension>
        </extensions>
      </trkpt>
      <trkpt lat="37.95455499552190303802490234375" lon="-107.10368187166750431060791015625">
        <ele>4047.800048828125</ele>
        <time>2026-01-06T20:06:29.000Z</time>
        <extensions>
          <ns3:TrackPointExtension>
            <ns3:hr>100</ns3:hr>
            <ns3:cad>0</ns3:cad>
          </ns3:TrackPointExtension>
        </extensions>
      </trkpt>
      <trkpt lat="37.9545495472848415374755859375" lon="-107.10368555970489978790283203125">
        <ele>4047.800048828125</ele>
        <time>2026-01-06T20:06:30.000Z</time>
        <extensions>
          <ns3:TrackPointExtension>
            <ns3:hr>102</ns3:hr>
            <ns3:cad>0</ns3:cad>
          </ns3:TrackPointExtension>
        </extensions>
      </trkpt>
      <trkpt lat="37.95453454367816448211669921875" lon="-107.1036950312554836273193359375">
        <ele>4047.60009765625</ele>
        <time>2026-01-06T20:06:32.000Z</time>
        <extensions>
          <ns3:TrackPointExtension>
            <ns3:hr>105</ns3:hr>
            <ns3:cad>0</ns3:cad>
          </ns3:TrackPointExtension>
        </extensions>
      </trkpt>
      <trkpt lat="37.9545275866985321044921875" lon="-107.1036997251212596893310546875">
        <ele>4047.60009765625</ele>
        <time>2026-01-06T20:06:33.000Z</time>
        <extensions>
          <ns3:TrackPointExtension>
            <ns3:hr>106</ns3:hr>
            <ns3:cad>0</ns3:cad>
          </ns3:TrackPointExtension>
        </extensions>
      </trkpt>
      <trkpt lat="37.9544938914477825164794921875" lon="-107.10370869375765323638916015625">
        <ele>4048</ele>
        <time>2026-01-06T20:06:37.000Z</time>
        <extensions>
          <ns3:TrackPointExtension>
            <ns3:hr>107</ns3:hr>
            <ns3:cad>0</ns3:cad>
          </ns3:TrackPointExtension>
        </extensions>
      </trkpt>
      <trkpt lat="37.954462207853794097900390625" lon="-107.10372730158269405364990234375">
        <ele>4047.39990234375</ele>
        <time>2026-01-06T20:06:42.000Z</time>
        <extensions>
          <ns3:TrackPointExtension>
            <ns3:hr>107</ns3:hr>
            <ns3:cad>0</ns3:cad>
          </ns3:TrackPointExtension>
        </extensions>
      </trkpt>
      <trkpt lat="37.95445273630321025848388671875" lon="-107.103734426200389862060546875">
        <ele>4046.39990234375</ele>
        <time>2026-01-06T20:06:45.000Z</time>
        <extensions>
          <ns3:TrackPointExtension>
            <ns3:hr>107</ns3:hr>
            <ns3:cad>0</ns3:cad>
          </ns3:TrackPointExtension>
        </extensions>
      </trkpt>
      <trkpt lat="37.95443144626915454864501953125" lon="-107.10373434238135814666748046875">
        <ele>4045.800048828125</ele>
        <time>2026-01-06T20:06:49.000Z</time>
        <extensions>
          <ns3:TrackPointExtension>
            <ns3:hr>107</ns3:hr>
            <ns3:cad>0</ns3:cad>
          </ns3:TrackPointExtension>
        </extensions>
      </trkpt>
      <trkpt lat="37.95442163944244384765625" lon="-107.1037359349429607391357421875">
        <ele>4045.39990234375</ele>
        <time>2026-01-06T20:06:52.000Z</time>
        <extensions>
          <ns3:TrackPointExtension>
            <ns3:hr>107</ns3:hr>
            <ns3:cad>0</ns3:cad>
          </ns3:TrackPointExtension>
        </extensions>
      </trkpt>
      <trkpt lat="37.95440730638802051544189453125" lon="-107.10374423302710056304931640625">
        <ele>4045</ele>
        <time>2026-01-06T20:06:55.000Z</time>
        <extensions>
          <ns3:TrackPointExtension>
            <ns3:hr>107</ns3:hr>
            <ns3:cad>0</ns3:cad>
          </ns3:TrackPointExtension>
        </extensions>
      </trkpt>
      <trkpt lat="37.9543654806911945343017578125" lon="-107.10375965572893619537353515625">
        <ele>4045</ele>
        <time>2026-01-06T20:07:01.000Z</time>
        <extensions>
          <ns3:TrackPointExtension>
            <ns3:hr>107</ns3:hr>
            <ns3:cad>0</ns3:cad>
          </ns3:TrackPointExtension>
        </extensions>
      </trkpt>
      <trkpt lat="37.9543430171906948089599609375" lon="-107.10375881753861904144287109375">
        <ele>4044.39990234375</ele>
        <time>2026-01-06T20:07:04.000Z</time>
        <extensions>
          <ns3:TrackPointExtension>
            <ns3:hr>107</ns3:hr>
            <ns3:cad>0</ns3:cad>
          </ns3:TrackPointExtension>
        </extensions>
      </trkpt>
      <trkpt lat="37.95431141741573810577392578125" lon="-107.10376703180372714996337890625">
        <ele>4043.39990234375</ele>
        <time>2026-01-06T20:07:08.000Z</time>
        <extensions>
          <ns3:TrackPointExtension>
            <ns3:hr>106</ns3:hr>
            <ns3:cad>0</ns3:cad>
          </ns3:TrackPointExtension>
        </extensions>
      </trkpt>
      <trkpt lat="37.954275794327259063720703125" lon="-107.10377407260239124298095703125">
        <ele>4043.199951171875</ele>
        <time>2026-01-06T20:07:12.000Z</time>
        <extensions>
          <ns3:TrackPointExtension>
            <ns3:hr>106</ns3:hr>
            <ns3:cad>61</ns3:cad>
          </ns3:TrackPointExtension>
        </extensions>
      </trkpt>
      <trkpt lat="37.9542420990765094757080078125" lon="-107.10378832183778285980224609375">
        <ele>4042.199951171875</ele>
        <time>2026-01-06T20:07:16.000Z</time>
        <extensions>
          <ns3:TrackPointExtension>
            <ns3:hr>105</ns3:hr>
            <ns3:cad>44</ns3:cad>
          </ns3:TrackPointExtension>
        </extensions>
      </trkpt>
      <trkpt lat="37.95423321425914764404296875" lon="-107.10379351861774921417236328125">
        <ele>4042</ele>
        <time>2026-01-06T20:07:17.000Z</time>
        <extensions>
          <ns3:TrackPointExtension>
            <ns3:hr>105</ns3:hr>
            <ns3:cad>44</ns3:cad>
          </ns3:TrackPointExtension>
        </extensions>
      </trkpt>
      <trkpt lat="37.95419289730489253997802734375" lon="-107.10379821248352527618408203125">
        <ele>4041</ele>
        <time>2026-01-06T20:07:23.000Z</time>
        <extensions>
          <ns3:TrackPointExtension>
            <ns3:hr>104</ns3:hr>
            <ns3:cad>45</ns3:cad>
          </ns3:TrackPointExtension>
        </extensions>
      </trkpt>
      <trkpt lat="37.9541519097983837127685546875" lon="-107.10380122996866703033447265625">
        <ele>4040</ele>
        <time>2026-01-06T20:07:29.000Z</time>
        <extensions>
          <ns3:TrackPointExtension>
            <ns3:hr>102</ns3:hr>
            <ns3:cad>0</ns3:cad>
          </ns3:TrackPointExtension>
        </extensions>
      </trkpt>
      <trkpt lat="37.95414160005748271942138671875" lon="-107.1038046665489673614501953125">
        <ele>4039.60009765625</ele>
        <time>2026-01-06T20:07:30.000Z</time>
        <extensions>
          <ns3:TrackPointExtension>
            <ns3:hr>102</ns3:hr>
            <ns3:cad>0</ns3:cad>
          </ns3:TrackPointExtension>
        </extensions>
      </trkpt>
      <trkpt lat="37.95409239828586578369140625" lon="-107.10381346754729747772216796875">
        <ele>4038.800048828125</ele>
        <time>2026-01-06T20:07:36.000Z</time>
        <extensions>
          <ns3:TrackPointExtension>
            <ns3:hr>100</ns3:hr>
            <ns3:cad>0</ns3:cad>
          </ns3:TrackPointExtension>
        </extensions>
      </trkpt>
      <trkpt lat="37.95405459590256214141845703125" lon="-107.10381162352859973907470703125">
        <ele>4038.60009765625</ele>
        <time>2026-01-06T20:07:42.000Z</time>
        <extensions>
          <ns3:TrackPointExtension>
            <ns3:hr>100</ns3:hr>
            <ns3:cad>0</ns3:cad>
          </ns3:TrackPointExtension>
        </extensions>
      </trkpt>
      <trkpt lat="37.95402123592793941497802734375" lon="-107.103819586336612701416015625">
        <ele>4038.199951171875</ele>
        <time>2026-01-06T20:07:47.000Z</time>
        <extensions>
          <ns3:TrackPointExtension>
            <ns3:hr>101</ns3:hr>
            <ns3:cad>76</ns3:cad>
          </ns3:TrackPointExtension>
        </extensions>
      </trkpt>
      <trkpt lat="37.9539755545556545257568359375" lon="-107.10383106954395771026611328125">
        <ele>4038.800048828125</ele>
        <time>2026-01-06T20:07:53.000Z</time>
        <extensions>
          <ns3:TrackPointExtension>
            <ns3:hr>102</ns3:hr>
            <ns3:cad>0</ns3:cad>
          </ns3:TrackPointExtension>
        </extensions>
      </trkpt>
      <trkpt lat="37.95396775938570499420166015625" lon="-107.10383190773427486419677734375">
        <ele>4038.60009765625</ele>
        <time>2026-01-06T20:07:54.000Z</time>
        <extensions>
          <ns3:TrackPointExtension>
            <ns3:hr>102</ns3:hr>
            <ns3:cad>0</ns3:cad>
          </ns3:TrackPointExtension>
        </extensions>
      </trkpt>
      <trkpt lat="37.9539209045469760894775390625" lon="-107.1038485877215862274169921875">
        <ele>4037.800048828125</ele>
        <time>2026-01-06T20:08:00.000Z</time>
        <extensions>
          <ns3:TrackPointExtension>
            <ns3:hr>100</ns3:hr>
            <ns3:cad>0</ns3:cad>
          </ns3:TrackPointExtension>
        </extensions>
      </trkpt>
      <trkpt lat="37.95386114157736301422119140625" lon="-107.10386677645146846771240234375">
        <ele>4037.39990234375</ele>
        <time>2026-01-06T20:08:06.000Z</time>
        <extensions>
          <ns3:TrackPointExtension>
            <ns3:hr>99</ns3:hr>
            <ns3:cad>53</ns3:cad>
          </ns3:TrackPointExtension>
        </extensions>
      </trkpt>
      <trkpt lat="37.95385368168354034423828125" lon="-107.10387649945914745330810546875">
        <ele>4037</ele>
        <time>2026-01-06T20:08:08.000Z</time>
        <extensions>
          <ns3:TrackPointExtension>
            <ns3:hr>99</ns3:hr>
            <ns3:cad>0</ns3:cad>
          </ns3:TrackPointExtension>
        </extensions>
      </trkpt>
      <trkpt lat="37.953817136585712432861328125" lon="-107.10389711894094944000244140625">
        <ele>4037.199951171875</ele>
        <time>2026-01-06T20:08:13.000Z</time>
        <extensions>
          <ns3:TrackPointExtension>
            <ns3:hr>98</ns3:hr>
            <ns3:cad>0</ns3:cad>
          </ns3:TrackPointExtension>
        </extensions>
      </trkpt>
      <trkpt lat="37.95377564616501331329345703125" lon="-107.103906087577342987060546875">
        <ele>4037.199951171875</ele>
        <time>2026-01-06T20:08:18.000Z</time>
        <extensions>
          <ns3:TrackPointExtension>
            <ns3:hr>99</ns3:hr>
            <ns3:cad>0</ns3:cad>
          </ns3:TrackPointExtension>
        </extensions>
      </trkpt>
      <trkpt lat="37.95375720597803592681884765625" lon="-107.103907763957977294921875">
        <ele>4036.800048828125</ele>
        <time>2026-01-06T20:08:20.000Z</time>
        <extensions>
          <ns3:TrackPointExtension>
            <ns3:hr>98</ns3:hr>
            <ns3:cad>0</ns3:cad>
          </ns3:TrackPointExtension>
        </extensions>
      </trkpt>
      <trkpt lat="37.95374463312327861785888671875" lon="-107.103926874697208404541015625">
        <ele>4035.60009765625</ele>
        <time>2026-01-06T20:08:24.000Z</time>
        <extensions>
          <ns3:TrackPointExtension>
            <ns3:hr>98</ns3:hr>
            <ns3:cad>0</ns3:cad>
          </ns3:TrackPointExtension>
        </extensions>
      </trkpt>
      <trkpt lat="37.95373725704848766326904296875" lon="-107.10392050445079803466796875">
        <ele>4035.199951171875</ele>
        <time>2026-01-06T20:08:25.000Z</time>
        <extensions>
          <ns3:TrackPointExtension>
            <ns3:hr>98</ns3:hr>
            <ns3:cad>0</ns3:cad>
          </ns3:TrackPointExtension>
        </extensions>
      </trkpt>
      <trkpt lat="37.953707166016101837158203125" lon="-107.10393391549587249755859375">
        <ele>4035.199951171875</ele>
        <time>2026-01-06T20:08:30.000Z</time>
        <extensions>
          <ns3:TrackPointExtension>
            <ns3:hr>97</ns3:hr>
            <ns3:cad>0</ns3:cad>
          </ns3:TrackPointExtension>
        </extensions>
      </trkpt>
      <trkpt lat="37.95368813909590244293212890625" lon="-107.10395579226315021514892578125">
        <ele>4035.800048828125</ele>
        <time>2026-01-06T20:08:33.000Z</time>
        <extensions>
          <ns3:TrackPointExtension>
            <ns3:hr>100</ns3:hr>
            <ns3:cad>0</ns3:cad>
          </ns3:TrackPointExtension>
        </extensions>
      </trkpt>
      <trkpt lat="37.95364924706518650054931640625" lon="-107.10398060269653797149658203125">
        <ele>4034.60009765625</ele>
        <time>2026-01-06T20:08:38.000Z</time>
        <extensions>
          <ns3:TrackPointExtension>
            <ns3:hr>99</ns3:hr>
            <ns3:cad>51</ns3:cad>
          </ns3:TrackPointExtension>
        </extensions>
      </trkpt>
      <trkpt lat="37.95362561009824275970458984375" lon="-107.1039944328367710113525390625">
        <ele>4034.39990234375</ele>
        <time>2026-01-06T20:08:40.000Z</time>
        <extensions>
          <ns3:TrackPointExtension>
            <ns3:hr>99</ns3:hr>
            <ns3:cad>51</ns3:cad>
          </ns3:TrackPointExtension>
        </extensions>
      </trkpt>
      <trkpt lat="37.95356760732829570770263671875" lon="-107.10402955301105976104736328125">
        <ele>4034.60009765625</ele>
        <time>2026-01-06T20:08:46.000Z</time>
        <extensions>
          <ns3:TrackPointExtension>
            <ns3:hr>100</ns3:hr>
            <ns3:cad>0</ns3:cad>
          </ns3:TrackPointExtension>
        </extensions>
      </trkpt>
      <trkpt lat="37.95356090180575847625732421875" lon="-107.10403692908585071563720703125">
        <ele>4034.60009765625</ele>
        <time>2026-01-06T20:08:47.000Z</time>
        <extensions>
          <ns3:TrackPointExtension>
            <ns3:hr>100</ns3:hr>
            <ns3:cad>0</ns3:cad>
          </ns3:TrackPointExtension>
        </extensions>
      </trkpt>
      <trkpt lat="37.95350507833063602447509765625" lon="-107.10406375117599964141845703125">
        <ele>4034</ele>
        <time>2026-01-06T20:08:53.000Z</time>
        <extensions>
          <ns3:TrackPointExtension>
            <ns3:hr>100</ns3:hr>
            <ns3:cad>0</ns3:cad>
          </ns3:TrackPointExtension>
        </extensions>
      </trkpt>
      <trkpt lat="37.95348747633397579193115234375" lon="-107.10407263599336147308349609375">
        <ele>4033.800048828125</ele>
        <time>2026-01-06T20:08:55.000Z</time>
        <extensions>
          <ns3:TrackPointExtension>
            <ns3:hr>100</ns3:hr>
            <ns3:cad>0</ns3:cad>
          </ns3:TrackPointExtension>
        </extensions>
      </trkpt>
      <trkpt lat="37.95342855155467987060546875" lon="-107.1041142940521240234375">
        <ele>4033.39990234375</ele>
        <time>2026-01-06T20:09:01.000Z</time>
        <extensions>
          <ns3:TrackPointExtension>
            <ns3:hr>103</ns3:hr>
            <ns3:cad>0</ns3:cad>
          </ns3:TrackPointExtension>
        </extensions>
      </trkpt>
      <trkpt lat="37.9534230194985866546630859375" lon="-107.10411898791790008544921875">
        <ele>4033.39990234375</ele>
        <time>2026-01-06T20:09:02.000Z</time>
        <extensions>
          <ns3:TrackPointExtension>
            <ns3:hr>103</ns3:hr>
            <ns3:cad>51</ns3:cad>
          </ns3:TrackPointExtension>
        </extensions>
      </trkpt>
      <trkpt lat="37.95337851159274578094482421875" lon="-107.1041496656835079193115234375">
        <ele>4032.60009765625</ele>
        <time>2026-01-06T20:09:08.000Z</time>
        <extensions>
          <ns3:TrackPointExtension>
            <ns3:hr>104</ns3:hr>
            <ns3:cad>53</ns3:cad>
          </ns3:TrackPointExtension>
        </extensions>
      </trkpt>
      <trkpt lat="37.9533328302204608917236328125" lon="-107.10416500456631183624267578125">
        <ele>4032.39990234375</ele>
        <time>2026-01-06T20:09:14.000Z</time>
        <extensions>
          <ns3:TrackPointExtension>
            <ns3:hr>103</ns3:hr>
            <ns3:cad>0</ns3:cad>
          </ns3:TrackPointExtension>
        </extensions>
      </trkpt>
      <trkpt lat="37.95328346081078052520751953125" lon="-107.10419543087482452392578125">
        <ele>4032.39990234375</ele>
        <time>2026-01-06T20:09:20.000Z</time>
        <extensions>
          <ns3:TrackPointExtension>
            <ns3:hr>101</ns3:hr>
            <ns3:cad>0</ns3:cad>
          </ns3:TrackPointExtension>
        </extensions>
      </trkpt>
      <trkpt lat="37.953278683125972747802734375" lon="-107.1042036451399326324462890625">
        <ele>4032.39990234375</ele>
        <time>2026-01-06T20:09:21.000Z</time>
        <extensions>
          <ns3:TrackPointExtension>
            <ns3:hr>101</ns3:hr>
            <ns3:cad>0</ns3:cad>
          </ns3:TrackPointExtension>
        </extensions>
      </trkpt>
      <trkpt lat="37.95323811471462249755859375" lon="-107.10424840450286865234375">
        <ele>4032.39990234375</ele>
        <time>2026-01-06T20:09:26.000Z</time>
        <extensions>
          <ns3:TrackPointExtension>
            <ns3:hr>100</ns3:hr>
            <ns3:cad>0</ns3:cad>
          </ns3:TrackPointExtension>
        </extensions>
      </trkpt>
      <trkpt lat="37.953185141086578369140625" lon="-107.10426726378500461578369140625">
        <ele>4032.60009765625</ele>
        <time>2026-01-06T20:09:32.000Z</time>
        <extensions>
          <ns3:TrackPointExtension>
            <ns3:hr>99</ns3:hr>
            <ns3:cad>0</ns3:cad>
          </ns3:TrackPointExtension>
        </extensions>
      </trkpt>
      <trkpt lat="37.95317717827856540679931640625" lon="-107.1042747236788272857666015625">
        <ele>4032.39990234375</ele>
        <time>2026-01-06T20:09:36.000Z</time>
        <extensions>
          <ns3:TrackPointExtension>
            <ns3:hr>100</ns3:hr>
            <ns3:cad>0</ns3:cad>
          </ns3:TrackPointExtension>
        </extensions>
      </trkpt>
      <trkpt lat="37.95316929928958415985107421875" lon="-107.104277573525905609130859375">
        <ele>4032.199951171875</ele>
        <time>2026-01-06T20:09:37.000Z</time>
        <extensions>
          <ns3:TrackPointExtension>
            <ns3:hr>100</ns3:hr>
            <ns3:cad>0</ns3:cad>
          </ns3:TrackPointExtension>
        </extensions>
      </trkpt>
      <trkpt lat="37.95310442335903644561767578125" lon="-107.104283608496189117431640625">
        <ele>4032.199951171875</ele>
        <time>2026-01-06T20:09:43.000Z</time>
        <extensions>
          <ns3:TrackPointExtension>
            <ns3:hr>100</ns3:hr>
            <ns3:cad>50</ns3:cad>
          </ns3:TrackPointExtension>
        </extensions>
      </trkpt>
      <trkpt lat="37.95307190157473087310791015625" lon="-107.104279585182666778564453125">
        <ele>4031.800048828125</ele>
        <time>2026-01-06T20:09:48.000Z</time>
        <extensions>
          <ns3:TrackPointExtension>
            <ns3:hr>100</ns3:hr>
            <ns3:cad>0</ns3:cad>
          </ns3:TrackPointExtension>
        </extensions>
      </trkpt>
      <trkpt lat="37.95304005034267902374267578125" lon="-107.10427053272724151611328125">
        <ele>4032</ele>
        <time>2026-01-06T20:09:52.000Z</time>
        <extensions>
          <ns3:TrackPointExtension>
            <ns3:hr>103</ns3:hr>
            <ns3:cad>0</ns3:cad>
          </ns3:TrackPointExtension>
        </extensions>
      </trkpt>
      <trkpt lat="37.95301523990929126739501953125" lon="-107.10426709614694118499755859375">
        <ele>4032</ele>
        <time>2026-01-06T20:09:55.000Z</time>
        <extensions>
          <ns3:TrackPointExtension>
            <ns3:hr>103</ns3:hr>
            <ns3:cad>0</ns3:cad>
          </ns3:TrackPointExtension>
        </extensions>
      </trkpt>
      <trkpt lat="37.95296025462448596954345703125" lon="-107.10426407866179943084716796875">
        <ele>4032</ele>
        <time>2026-01-06T20:10:00.000Z</time>
        <extensions>
          <ns3:TrackPointExtension>
            <ns3:hr>103</ns3:hr>
            <ns3:cad>55</ns3:cad>
          </ns3:TrackPointExtension>
        </extensions>
      </trkpt>
      <trkpt lat="37.952919267117977142333984375" lon="-107.10427187383174896240234375">
        <ele>4031.39990234375</ele>
        <time>2026-01-06T20:10:04.000Z</time>
        <extensions>
          <ns3:TrackPointExtension>
            <ns3:hr>103</ns3:hr>
            <ns3:cad>0</ns3:cad>
          </ns3:TrackPointExtension>
        </extensions>
      </trkpt>
      <trkpt lat="37.95290007255971431732177734375" lon="-107.10427857935428619384765625">
        <ele>4031</ele>
        <time>2026-01-06T20:10:06.000Z</time>
        <extensions>
          <ns3:TrackPointExtension>
            <ns3:hr>102</ns3:hr>
            <ns3:cad>0</ns3:cad>
          </ns3:TrackPointExtension>
        </extensions>
      </trkpt>
      <trkpt lat="37.95285531319677829742431640625" lon="-107.10431084968149662017822265625">
        <ele>4031.199951171875</ele>
        <time>2026-01-06T20:10:11.000Z</time>
        <extensions>
          <ns3:TrackPointExtension>
            <ns3:hr>102</ns3:hr>
            <ns3:cad>0</ns3:cad>
          </ns3:TrackPointExtension>
        </extensions>
      </trkpt>
      <trkpt lat="37.952816002070903778076171875" lon="-107.1043632365763187408447265625">
        <ele>4031</ele>
        <time>2026-01-06T20:10:16.000Z</time>
        <extensions>
          <ns3:TrackPointExtension>
            <ns3:hr>102</ns3:hr>
            <ns3:cad>0</ns3:cad>
          </ns3:TrackPointExtension>
        </extensions>
      </trkpt>
      <trkpt lat="37.9528074525296688079833984375" lon="-107.1043662540614604949951171875">
        <ele>4030.800048828125</ele>
        <time>2026-01-06T20:10:17.000Z</time>
        <extensions>
          <ns3:TrackPointExtension>
            <ns3:hr>102</ns3:hr>
            <ns3:cad>0</ns3:cad>
          </ns3:TrackPointExtension>
        </extensions>
      </trkpt>
      <trkpt lat="37.95276747085154056549072265625" lon="-107.10439617745578289031982421875">
        <ele>4031.60009765625</ele>
        <time>2026-01-06T20:10:22.000Z</time>
        <extensions>
          <ns3:TrackPointExtension>
            <ns3:hr>103</ns3:hr>
            <ns3:cad>0</ns3:cad>
          </ns3:TrackPointExtension>
        </extensions>
      </trkpt>
      <trkpt lat="37.9527165926992893218994140625" lon="-107.1044375002384185791015625">
        <ele>4031.60009765625</ele>
        <time>2026-01-06T20:10:28.000Z</time>
        <extensions>
          <ns3:TrackPointExtension>
            <ns3:hr>102</ns3:hr>
            <ns3:cad>0</ns3:cad>
          </ns3:TrackPointExtension>
        </extensions>
      </trkpt>
      <trkpt lat="37.95266353525221347808837890625" lon="-107.1044266037642955780029296875">
        <ele>4031</ele>
        <time>2026-01-06T20:10:33.000Z</time>
        <extensions>
          <ns3:TrackPointExtension>
            <ns3:hr>99</ns3:hr>
            <ns3:cad>0</ns3:cad>
          </ns3:TrackPointExtension>
        </extensions>
      </trkpt>
      <trkpt lat="37.95265096239745616912841796875" lon="-107.10442115552723407745361328125">
        <ele>4030.800048828125</ele>
        <time>2026-01-06T20:10:34.000Z</time>
        <extensions>
          <ns3:TrackPointExtension>
            <ns3:hr>98</ns3:hr>
            <ns3:cad>0</ns3:cad>
          </ns3:TrackPointExtension>
        </extensions>
      </trkpt>
      <trkpt lat="37.9526223801076412200927734375" lon="-107.10439919494092464447021484375">
        <ele>4030.199951171875</ele>
        <time>2026-01-06T20:10:37.000Z</time>
        <extensions>
          <ns3:TrackPointExtension>
            <ns3:hr>97</ns3:hr>
            <ns3:cad>0</ns3:cad>
          </ns3:TrackPointExtension>
        </extensions>
      </trkpt>
      <trkpt lat="37.952593378722667694091796875" lon="-107.10439349524676799774169921875">
        <ele>4029.39990234375</ele>
        <time>2026-01-06T20:10:40.000Z</time>
        <extensions>
          <ns3:TrackPointExtension>
            <ns3:hr>96</ns3:hr>
            <ns3:cad>0</ns3:cad>
          </ns3:TrackPointExtension>
        </extensions>
      </trkpt>
      <trkpt lat="37.9525803029537200927734375" lon="-107.1043826825916767120361328125">
        <ele>4029</ele>
        <time>2026-01-06T20:10:43.000Z</time>
        <extensions>
          <ns3:TrackPointExtension>
            <ns3:hr>97</ns3:hr>
            <ns3:cad>0</ns3:cad>
          </ns3:TrackPointExtension>
        </extensions>
      </trkpt>
      <trkpt lat="37.9525588452816009521484375" lon="-107.104372121393680572509765625">
        <ele>4028.60009765625</ele>
        <time>2026-01-06T20:10:46.000Z</time>
        <extensions>
          <ns3:TrackPointExtension>
            <ns3:hr>99</ns3:hr>
            <ns3:cad>0</ns3:cad>
          </ns3:TrackPointExtension>
        </extensions>
      </trkpt>
      <trkpt lat="37.952525317668914794921875" lon="-107.10437337867915630340576171875">
        <ele>4027.800048828125</ele>
        <time>2026-01-06T20:10:50.000Z</time>
        <extensions>
          <ns3:TrackPointExtension>
            <ns3:hr>99</ns3:hr>
            <ns3:cad>0</ns3:cad>
          </ns3:TrackPointExtension>
        </extensions>
      </trkpt>
      <trkpt lat="37.95250897295773029327392578125" lon="-107.10437555797398090362548828125">
        <ele>4027.800048828125</ele>
        <time>2026-01-06T20:10:52.000Z</time>
        <extensions>
          <ns3:TrackPointExtension>
            <ns3:hr>99</ns3:hr>
            <ns3:cad>0</ns3:cad>
          </ns3:TrackPointExtension>
        </extensions>
      </trkpt>
      <trkpt lat="37.95245918445289134979248046875" lon="-107.104359380900859832763671875">
        <ele>4027.199951171875</ele>
        <time>2026-01-06T20:10:58.000Z</time>
        <extensions>
          <ns3:TrackPointExtension>
            <ns3:hr>99</ns3:hr>
            <ns3:cad>0</ns3:cad>
          </ns3:TrackPointExtension>
        </extensions>
      </trkpt>
      <trkpt lat="37.95243479311466217041015625" lon="-107.10435569286346435546875">
        <ele>4026.800048828125</ele>
        <time>2026-01-06T20:11:02.000Z</time>
        <extensions>
          <ns3:TrackPointExtension>
            <ns3:hr>99</ns3:hr>
            <ns3:cad>0</ns3:cad>
          </ns3:TrackPointExtension>
        </extensions>
      </trkpt>
      <trkpt lat="37.95242783613502979278564453125" lon="-107.10435175336897373199462890625">
        <ele>4026.60009765625</ele>
        <time>2026-01-06T20:11:03.000Z</time>
        <extensions>
          <ns3:TrackPointExtension>
            <ns3:hr>99</ns3:hr>
            <ns3:cad>0</ns3:cad>
          </ns3:TrackPointExtension>
        </extensions>
      </trkpt>
      <trkpt lat="37.95237402431666851043701171875" lon="-107.10434655658900737762451171875">
        <ele>4026.39990234375</ele>
        <time>2026-01-06T20:11:09.000Z</time>
        <extensions>
          <ns3:TrackPointExtension>
            <ns3:hr>99</ns3:hr>
            <ns3:cad>0</ns3:cad>
          </ns3:TrackPointExtension>
        </extensions>
      </trkpt>
      <trkpt lat="37.95233446173369884490966796875" lon="-107.10434420965611934661865234375">
        <ele>4025.800048828125</ele>
        <time>2026-01-06T20:11:14.000Z</time>
        <extensions>
          <ns3:TrackPointExtension>
            <ns3:hr>97</ns3:hr>
            <ns3:cad>0</ns3:cad>
          </ns3:TrackPointExtension>
        </extensions>
      </trkpt>
      <trkpt lat="37.95228383503854274749755859375" lon="-107.104336582124233245849609375">
        <ele>4025</ele>
        <time>2026-01-06T20:11:20.000Z</time>
        <extensions>
          <ns3:TrackPointExtension>
            <ns3:hr>98</ns3:hr>
            <ns3:cad>49</ns3:cad>
          </ns3:TrackPointExtension>
        </extensions>
      </trkpt>
      <trkpt lat="37.95225935988128185272216796875" lon="-107.104343287646770477294921875">
        <ele>4024.800048828125</ele>
        <time>2026-01-06T20:11:23.000Z</time>
        <extensions>
          <ns3:TrackPointExtension>
            <ns3:hr>100</ns3:hr>
            <ns3:cad>49</ns3:cad>
          </ns3:TrackPointExtension>
        </extensions>
      </trkpt>
      <trkpt lat="37.952251397073268890380859375" lon="-107.10434001870453357696533203125">
        <ele>4024.39990234375</ele>
        <time>2026-01-06T20:11:25.000Z</time>
        <extensions>
          <ns3:TrackPointExtension>
            <ns3:hr>103</ns3:hr>
            <ns3:cad>0</ns3:cad>
          </ns3:TrackPointExtension>
        </extensions>
      </trkpt>
      <trkpt lat="37.952244020998477935791015625" lon="-107.10433951579034328460693359375">
        <ele>4024</ele>
        <time>2026-01-06T20:11:26.000Z</time>
        <extensions>
          <ns3:TrackPointExtension>
            <ns3:hr>103</ns3:hr>
            <ns3:cad>0</ns3:cad>
          </ns3:TrackPointExtension>
        </extensions>
      </trkpt>
      <trkpt lat="37.9522381536662578582763671875" lon="-107.10433716885745525360107421875">
        <ele>4023.800048828125</ele>
        <time>2026-01-06T20:11:28.000Z</time>
        <extensions>
          <ns3:TrackPointExtension>
            <ns3:hr>103</ns3:hr>
            <ns3:cad>0</ns3:cad>
          </ns3:TrackPointExtension>
        </extensions>
      </trkpt>
      <trkpt lat="37.9522193782031536102294921875" lon="-107.10433364845812320709228515625">
        <ele>4023.39990234375</ele>
        <time>2026-01-06T20:11:32.000Z</time>
        <extensions>
          <ns3:TrackPointExtension>
            <ns3:hr>102</ns3:hr>
            <ns3:cad>0</ns3:cad>
          </ns3:TrackPointExtension>
        </extensions>
      </trkpt>
      <trkpt lat="37.952185682952404022216796875" lon="-107.1043273620307445526123046875">
        <ele>4023.39990234375</ele>
        <time>2026-01-06T20:11:38.000Z</time>
        <extensions>
          <ns3:TrackPointExtension>
            <ns3:hr>104</ns3:hr>
            <ns3:cad>0</ns3:cad>
          </ns3:TrackPointExtension>
        </extensions>
      </trkpt>
      <trkpt lat="37.95217671431601047515869140625" lon="-107.1043283678591251373291015625">
        <ele>4023</ele>
        <time>2026-01-06T20:11:39.000Z</time>
        <extensions>
          <ns3:TrackPointExtension>
            <ns3:hr>105</ns3:hr>
            <ns3:cad>0</ns3:cad>
          </ns3:TrackPointExtension>
        </extensions>
      </trkpt>
      <trkpt lat="37.95212374068796634674072265625" lon="-107.10434152744710445404052734375">
        <ele>4023</ele>
        <time>2026-01-06T20:11:45.000Z</time>
        <extensions>
          <ns3:TrackPointExtension>
            <ns3:hr>106</ns3:hr>
            <ns3:cad>0</ns3:cad>
          </ns3:TrackPointExtension>
        </extensions>
      </trkpt>
      <trkpt lat="37.9521109163761138916015625" lon="-107.10434404201805591583251953125">
        <ele>4022.60009765625</ele>
        <time>2026-01-06T20:11:48.000Z</time>
        <extensions>
          <ns3:TrackPointExtension>
            <ns3:hr>105</ns3:hr>
            <ns3:cad>45</ns3:cad>
          </ns3:TrackPointExtension>
        </extensions>
      </trkpt>
      <trkpt lat="37.95210194773972034454345703125" lon="-107.10433649830520153045654296875">
        <ele>4021.800048828125</ele>
        <time>2026-01-06T20:11:52.000Z</time>
        <extensions>
          <ns3:TrackPointExtension>
            <ns3:hr>102</ns3:hr>
            <ns3:cad>0</ns3:cad>
          </ns3:TrackPointExtension>
        </extensions>
      </trkpt>
      <trkpt lat="37.95209188945591449737548828125" lon="-107.104327194392681121826171875">
        <ele>4022.199951171875</ele>
        <time>2026-01-06T20:11:58.000Z</time>
        <extensions>
          <ns3:TrackPointExtension>
            <ns3:hr>101</ns3:hr>
            <ns3:cad>0</ns3:cad>
          </ns3:TrackPointExtension>
        </extensions>
      </trkpt>
      <trkpt lat="37.95206892304122447967529296875" lon="-107.1043119393289089202880859375">
        <ele>4022.39990234375</ele>
        <time>2026-01-06T20:12:04.000Z</time>
        <extensions>
          <ns3:TrackPointExtension>
            <ns3:hr>100</ns3:hr>
            <ns3:cad>0</ns3:cad>
          </ns3:TrackPointExtension>
        </extensions>
      </trkpt>
      <trkpt lat="37.95205551199615001678466796875" lon="-107.10431772284209728240966796875">
        <ele>4022.60009765625</ele>
        <time>2026-01-06T20:12:06.000Z</time>
        <extensions>
          <ns3:TrackPointExtension>
            <ns3:hr>99</ns3:hr>
            <ns3:cad>0</ns3:cad>
          </ns3:TrackPointExtension>
        </extensions>
      </trkpt>
      <trkpt lat="37.95203556306660175323486328125" lon="-107.10431302897632122039794921875">
        <ele>4022.39990234375</ele>
        <time>2026-01-06T20:12:08.000Z</time>
        <extensions>
          <ns3:TrackPointExtension>
            <ns3:hr>102</ns3:hr>
            <ns3:cad>0</ns3:cad>
          </ns3:TrackPointExtension>
        </extensions>
      </trkpt>
      <trkpt lat="37.951991222798824310302734375" lon="-107.1043226681649684906005859375">
        <ele>4022</ele>
        <time>2026-01-06T20:12:13.000Z</time>
        <extensions>
          <ns3:TrackPointExtension>
            <ns3:hr>102</ns3:hr>
            <ns3:cad>0</ns3:cad>
          </ns3:TrackPointExtension>
        </extensions>
      </trkpt>
      <trkpt lat="37.95194956474006175994873046875" lon="-107.10433146916329860687255859375">
        <ele>4021.39990234375</ele>
        <time>2026-01-06T20:12:18.000Z</time>
        <extensions>
          <ns3:TrackPointExtension>
            <ns3:hr>102</ns3:hr>
            <ns3:cad>54</ns3:cad>
          </ns3:TrackPointExtension>
        </extensions>
      </trkpt>
      <trkpt lat="37.95194000937044620513916015625" lon="-107.10433264262974262237548828125">
        <ele>4021</ele>
        <time>2026-01-06T20:12:19.000Z</time>
        <extensions>
          <ns3:TrackPointExtension>
            <ns3:hr>101</ns3:hr>
            <ns3:cad>54</ns3:cad>
          </ns3:TrackPointExtension>
        </extensions>
      </trkpt>
      <trkpt lat="37.95188904739916324615478515625" lon="-107.10435192100703716278076171875">
        <ele>4020.199951171875</ele>
        <time>2026-01-06T20:12:25.000Z</time>
        <extensions>
          <ns3:TrackPointExtension>
            <ns3:hr>101</ns3:hr>
            <ns3:cad>0</ns3:cad>
          </ns3:TrackPointExtension>
        </extensions>
      </trkpt>
      <trkpt lat="37.95185099355876445770263671875" lon="-107.10436063818633556365966796875">
        <ele>4019.60009765625</ele>
        <time>2026-01-06T20:12:30.000Z</time>
        <extensions>
          <ns3:TrackPointExtension>
            <ns3:hr>99</ns3:hr>
            <ns3:cad>0</ns3:cad>
          </ns3:TrackPointExtension>
        </extensions>
      </trkpt>
      <trkpt lat="37.9517999477684497833251953125" lon="-107.1043481491506099700927734375">
        <ele>4020</ele>
        <time>2026-01-06T20:12:36.000Z</time>
        <extensions>
          <ns3:TrackPointExtension>
            <ns3:hr>99</ns3:hr>
            <ns3:cad>45</ns3:cad>
          </ns3:TrackPointExtension>
        </extensions>
      </trkpt>
      <trkpt lat="37.9517875425517559051513671875" lon="-107.1043575368821620941162109375">
        <ele>4019.800048828125</ele>
        <time>2026-01-06T20:12:38.000Z</time>
        <extensions>
          <ns3:TrackPointExtension>
            <ns3:hr>98</ns3:hr>
            <ns3:cad>45</ns3:cad>
          </ns3:TrackPointExtension>
        </extensions>
      </trkpt>
      <trkpt lat="37.95174001716077327728271484375" lon="-107.1043642424046993255615234375">
        <ele>4019.199951171875</ele>
        <time>2026-01-06T20:12:44.000Z</time>
        <extensions>
          <ns3:TrackPointExtension>
            <ns3:hr>98</ns3:hr>
            <ns3:cad>0</ns3:cad>
          </ns3:TrackPointExtension>
        </extensions>
      </trkpt>
      <trkpt lat="37.95173448510468006134033203125" lon="-107.1043659187853336334228515625">
        <ele>4019.199951171875</ele>
        <time>2026-01-06T20:12:45.000Z</time>
        <extensions>
          <ns3:TrackPointExtension>
            <ns3:hr>98</ns3:hr>
            <ns3:cad>0</ns3:cad>
          </ns3:TrackPointExtension>
        </extensions>
      </trkpt>
      <trkpt lat="37.9517261870205402374267578125" lon="-107.10437069647014141082763671875">
        <ele>4019</ele>
        <time>2026-01-06T20:12:46.000Z</time>
        <extensions>
          <ns3:TrackPointExtension>
            <ns3:hr>98</ns3:hr>
            <ns3:cad>0</ns3:cad>
          </ns3:TrackPointExtension>
        </extensions>
      </trkpt>
      <trkpt lat="37.9516997002065181732177734375" lon="-107.104374803602695465087890625">
        <ele>4018.199951171875</ele>
        <time>2026-01-06T20:12:50.000Z</time>
        <extensions>
          <ns3:TrackPointExtension>
            <ns3:hr>97</ns3:hr>
            <ns3:cad>42</ns3:cad>
          </ns3:TrackPointExtension>
        </extensions>
      </trkpt>
      <trkpt lat="37.9516775719821453094482421875" lon="-107.1043612249195575714111328125">
        <ele>4017.60009765625</ele>
        <time>2026-01-06T20:12:53.000Z</time>
        <extensions>
          <ns3:TrackPointExtension>
            <ns3:hr>96</ns3:hr>
            <ns3:cad>42</ns3:cad>
          </ns3:TrackPointExtension>
        </extensions>
      </trkpt>
      <trkpt lat="37.95163943432271480560302734375" lon="-107.10437321104109287261962890625">
        <ele>4017</ele>
        <time>2026-01-06T20:12:57.000Z</time>
        <extensions>
          <ns3:TrackPointExtension>
            <ns3:hr>97</ns3:hr>
            <ns3:cad>0</ns3:cad>
          </ns3:TrackPointExtension>
        </extensions>
      </trkpt>
      <trkpt lat="37.9516227543354034423828125" lon="-107.1043863706290721893310546875">
        <ele>4016.60009765625</ele>
        <time>2026-01-06T20:12:59.000Z</time>
        <extensions>
          <ns3:TrackPointExtension>
            <ns3:hr>100</ns3:hr>
            <ns3:cad>0</ns3:cad>
          </ns3:TrackPointExtension>
        </extensions>
      </trkpt>
      <trkpt lat="37.9515803419053554534912109375" lon="-107.10440623573958873748779296875">
        <ele>4016.199951171875</ele>
        <time>2026-01-06T20:13:04.000Z</time>
        <extensions>
          <ns3:TrackPointExtension>
            <ns3:hr>103</ns3:hr>
            <ns3:cad>0</ns3:cad>
          </ns3:TrackPointExtension>
        </extensions>
      </trkpt>
      <trkpt lat="37.95155511237680912017822265625" lon="-107.1044038049876689910888671875">
        <ele>4015.800048828125</ele>
        <time>2026-01-06T20:13:06.000Z</time>
        <extensions>
          <ns3:TrackPointExtension>
            <ns3:hr>103</ns3:hr>
            <ns3:cad>0</ns3:cad>
          </ns3:TrackPointExtension>
        </extensions>
      </trkpt>
      <trkpt lat="37.9515045695006847381591796875" lon="-107.1044007875025272369384765625">
        <ele>4015.199951171875</ele>
        <time>2026-01-06T20:13:11.000Z</time>
        <extensions>
          <ns3:TrackPointExtension>
            <ns3:hr>103</ns3:hr>
            <ns3:cad>51</ns3:cad>
          </ns3:TrackPointExtension>
        </extensions>
      </trkpt>
      <trkpt lat="37.95147456228733062744140625" lon="-107.10440120659768581390380859375">
        <ele>4014.800048828125</ele>
        <time>2026-01-06T20:13:14.000Z</time>
        <extensions>
          <ns3:TrackPointExtension>
            <ns3:hr>103</ns3:hr>
            <ns3:cad>0</ns3:cad>
          </ns3:TrackPointExtension>
        </extensions>
      </trkpt>
      <trkpt lat="37.9514415375888347625732421875" lon="-107.10440455935895442962646484375">
        <ele>4014.39990234375</ele>
        <time>2026-01-06T20:13:17.000Z</time>
        <extensions>
          <ns3:TrackPointExtension>
            <ns3:hr>102</ns3:hr>
            <ns3:cad>0</ns3:cad>
          </ns3:TrackPointExtension>
        </extensions>
      </trkpt>
      <trkpt lat="37.9514130391180515289306640625" lon="-107.10440020076930522918701171875">
        <ele>4013.800048828125</ele>
        <time>2026-01-06T20:13:20.000Z</time>
        <extensions>
          <ns3:TrackPointExtension>
            <ns3:hr>101</ns3:hr>
            <ns3:cad>54</ns3:cad>
          </ns3:TrackPointExtension>
        </extensions>
      </trkpt>
      <trkpt lat="37.9513778351247310638427734375" lon="-107.1043987758457660675048828125">
        <ele>4013.199951171875</ele>
        <time>2026-01-06T20:13:23.000Z</time>
        <extensions>
          <ns3:TrackPointExtension>
            <ns3:hr>100</ns3:hr>
            <ns3:cad>54</ns3:cad>
          </ns3:TrackPointExtension>
        </extensions>
      </trkpt>
      <trkpt lat="37.9513553716242313385009765625" lon="-107.10439818911254405975341796875">
        <ele>4012.60009765625</ele>
        <time>2026-01-06T20:13:25.000Z</time>
        <extensions>
          <ns3:TrackPointExtension>
            <ns3:hr>100</ns3:hr>
            <ns3:cad>55</ns3:cad>
          </ns3:TrackPointExtension>
        </extensions>
      </trkpt>
      <trkpt lat="37.951304912567138671875" lon="-107.10439927875995635986328125">
        <ele>4012.60009765625</ele>
        <time>2026-01-06T20:13:30.000Z</time>
        <extensions>
          <ns3:TrackPointExtension>
            <ns3:hr>102</ns3:hr>
            <ns3:cad>53</ns3:cad>
          </ns3:TrackPointExtension>
        </extensions>
      </trkpt>
      <trkpt lat="37.95124682597815990447998046875" lon="-107.1044195629656314849853515625">
        <ele>4012.39990234375</ele>
        <time>2026-01-06T20:13:36.000Z</time>
        <extensions>
          <ns3:TrackPointExtension>
            <ns3:hr>101</ns3:hr>
            <ns3:cad>51</ns3:cad>
          </ns3:TrackPointExtension>
        </extensions>
      </trkpt>
      <trkpt lat="37.95118161477148532867431640625" lon="-107.104413025081157684326171875">
        <ele>4011.800048828125</ele>
        <time>2026-01-06T20:13:42.000Z</time>
        <extensions>
          <ns3:TrackPointExtension>
            <ns3:hr>100</ns3:hr>
            <ns3:cad>51</ns3:cad>
          </ns3:TrackPointExtension>
        </extensions>
      </trkpt>
      <trkpt lat="37.951159067451953887939453125" lon="-107.10441813804209232330322265625">
        <ele>4011.39990234375</ele>
        <time>2026-01-06T20:13:44.000Z</time>
        <extensions>
          <ns3:TrackPointExtension>
            <ns3:hr>100</ns3:hr>
            <ns3:cad>0</ns3:cad>
          </ns3:TrackPointExtension>
        </extensions>
      </trkpt>
      <trkpt lat="37.95111623592674732208251953125" lon="-107.10442006587982177734375">
        <ele>4010.39990234375</ele>
        <time>2026-01-06T20:13:48.000Z</time>
        <extensions>
          <ns3:TrackPointExtension>
            <ns3:hr>101</ns3:hr>
            <ns3:cad>0</ns3:cad>
          </ns3:TrackPointExtension>
        </extensions>
      </trkpt>
      <trkpt lat="37.95105001889169216156005859375" lon="-107.104427106678485870361328125">
        <ele>4010.800048828125</ele>
        <time>2026-01-06T20:13:54.000Z</time>
        <extensions>
          <ns3:TrackPointExtension>
            <ns3:hr>101</ns3:hr>
            <ns3:cad>55</ns3:cad>
          </ns3:TrackPointExtension>
        </extensions>
      </trkpt>
      <trkpt lat="37.95102386735379695892333984375" lon="-107.1044306270778179168701171875">
        <ele>4010.199951171875</ele>
        <time>2026-01-06T20:13:56.000Z</time>
        <extensions>
          <ns3:TrackPointExtension>
            <ns3:hr>102</ns3:hr>
            <ns3:cad>55</ns3:cad>
          </ns3:TrackPointExtension>
        </extensions>
      </trkpt>
      <trkpt lat="37.950990758836269378662109375" lon="-107.1044336445629596710205078125">
        <ele>4009</ele>
        <time>2026-01-06T20:13:59.000Z</time>
        <extensions>
          <ns3:TrackPointExtension>
            <ns3:hr>102</ns3:hr>
            <ns3:cad>0</ns3:cad>
          </ns3:TrackPointExtension>
        </extensions>
      </trkpt>
      <trkpt lat="37.950968630611896514892578125" lon="-107.10443238727748394012451171875">
        <ele>4008.39990234375</ele>
        <time>2026-01-06T20:14:02.000Z</time>
        <extensions>
          <ns3:TrackPointExtension>
            <ns3:hr>102</ns3:hr>
            <ns3:cad>0</ns3:cad>
          </ns3:TrackPointExtension>
        </extensions>
      </trkpt>
      <trkpt lat="37.950900234282016754150390625" lon="-107.10443641059100627899169921875">
        <ele>4008</ele>
        <time>2026-01-06T20:14:08.000Z</time>
        <extensions>
          <ns3:TrackPointExtension>
            <ns3:hr>102</ns3:hr>
            <ns3:cad>55</ns3:cad>
          </ns3:TrackPointExtension>
        </extensions>
      </trkpt>
      <trkpt lat="37.950890175998210906982421875" lon="-107.104437164962291717529296875">
        <ele>4007.800048828125</ele>
        <time>2026-01-06T20:14:09.000Z</time>
        <extensions>
          <ns3:TrackPointExtension>
            <ns3:hr>102</ns3:hr>
            <ns3:cad>55</ns3:cad>
          </ns3:TrackPointExtension>
        </extensions>
      </trkpt>
      <trkpt lat="37.95087483711540699005126953125" lon="-107.10443708114326000213623046875">
        <ele>4007.39990234375</ele>
        <time>2026-01-06T20:14:10.000Z</time>
        <extensions>
          <ns3:TrackPointExtension>
            <ns3:hr>101</ns3:hr>
            <ns3:cad>55</ns3:cad>
          </ns3:TrackPointExtension>
        </extensions>
      </trkpt>
      <trkpt lat="37.950815744698047637939453125" lon="-107.1044386737048625946044921875">
        <ele>4007.39990234375</ele>
        <time>2026-01-06T20:14:15.000Z</time>
        <extensions>
          <ns3:TrackPointExtension>
            <ns3:hr>99</ns3:hr>
            <ns3:cad>0</ns3:cad>
          </ns3:TrackPointExtension>
        </extensions>
      </trkpt>
      <trkpt lat="37.950756736099720001220703125" lon="-107.104433476924896240234375">
        <ele>4007.199951171875</ele>
        <time>2026-01-06T20:14:21.000Z</time>
        <extensions>
          <ns3:TrackPointExtension>
            <ns3:hr>100</ns3:hr>
            <ns3:cad>57</ns3:cad>
          </ns3:TrackPointExtension>
        </extensions>
      </trkpt>
      <trkpt lat="37.95070669613778591156005859375" lon="-107.1044428646564483642578125">
        <ele>4006.800048828125</ele>
        <time>2026-01-06T20:14:26.000Z</time>
        <extensions>
          <ns3:TrackPointExtension>
            <ns3:hr>100</ns3:hr>
            <ns3:cad>57</ns3:cad>
          </ns3:TrackPointExtension>
        </extensions>
      </trkpt>
      <trkpt lat="37.95069781132042407989501953125" lon="-107.104444541037082672119140625">
        <ele>4006.60009765625</ele>
        <time>2026-01-06T20:14:27.000Z</time>
        <extensions>
          <ns3:TrackPointExtension>
            <ns3:hr>100</ns3:hr>
            <ns3:cad>57</ns3:cad>
          </ns3:TrackPointExtension>
        </extensions>
      </trkpt>
      <trkpt lat="37.9506549797952175140380859375" lon="-107.104467339813709259033203125">
        <ele>4006.199951171875</ele>
        <time>2026-01-06T20:14:33.000Z</time>
        <extensions>
          <ns3:TrackPointExtension>
            <ns3:hr>100</ns3:hr>
            <ns3:cad>55</ns3:cad>
          </ns3:TrackPointExtension>
        </extensions>
      </trkpt>
      <trkpt lat="37.9506499506533145904541015625" lon="-107.10446775890886783599853515625">
        <ele>4006.39990234375</ele>
        <time>2026-01-06T20:14:34.000Z</time>
        <extensions>
          <ns3:TrackPointExtension>
            <ns3:hr>101</ns3:hr>
            <ns3:cad>55</ns3:cad>
          </ns3:TrackPointExtension>
        </extensions>
      </trkpt>
      <trkpt lat="37.9506315104663372039794921875" lon="-107.10448401980102062225341796875">
        <ele>4006.39990234375</ele>
        <time>2026-01-06T20:14:37.000Z</time>
        <extensions>
          <ns3:TrackPointExtension>
            <ns3:hr>100</ns3:hr>
            <ns3:cad>55</ns3:cad>
          </ns3:TrackPointExtension>
        </extensions>
      </trkpt>
      <trkpt lat="37.9506348632276058197021484375" lon="-107.1045013703405857086181640625">
        <ele>4005.60009765625</ele>
        <time>2026-01-06T20:14:40.000Z</time>
        <extensions>
          <ns3:TrackPointExtension>
            <ns3:hr>100</ns3:hr>
            <ns3:cad>54</ns3:cad>
          </ns3:TrackPointExtension>
        </extensions>
      </trkpt>
      <trkpt lat="37.95063528232276439666748046875" lon="-107.104503549635410308837890625">
        <ele>4004</ele>
        <time>2026-01-06T20:14:43.000Z</time>
        <extensions>
          <ns3:TrackPointExtension>
            <ns3:hr>100</ns3:hr>
            <ns3:cad>0</ns3:cad>
          </ns3:TrackPointExtension>
        </extensions>
      </trkpt>
      <trkpt lat="37.95063528232276439666748046875" lon="-107.104503549635410308837890625">
        <ele>4003.800048828125</ele>
        <time>2026-01-06T20:14:49.000Z</time>
        <extensions>
          <ns3:TrackPointExtension>
            <ns3:hr>100</ns3:hr>
            <ns3:cad>0</ns3:cad>
          </ns3:TrackPointExtension>
        </extensions>
      </trkpt>
      <trkpt lat="37.95063327066600322723388671875" lon="-107.1045045554637908935546875">
        <ele>4004.199951171875</ele>
        <time>2026-01-06T20:14:52.000Z</time>
        <extensions>
          <ns3:TrackPointExtension>
            <ns3:hr>99</ns3:hr>
            <ns3:cad>0</ns3:cad>
          </ns3:TrackPointExtension>
        </extensions>
      </trkpt>
      <trkpt lat="37.95063343830406665802001953125" lon="-107.10451402701437473297119140625">
        <ele>4005.60009765625</ele>
        <time>2026-01-06T20:14:55.000Z</time>
        <extensions>
          <ns3:TrackPointExtension>
            <ns3:hr>99</ns3:hr>
            <ns3:cad>0</ns3:cad>
          </ns3:TrackPointExtension>
        </extensions>
      </trkpt>
      <trkpt lat="37.95063528232276439666748046875" lon="-107.104503549635410308837890625">
        <ele>4006.39990234375</ele>
        <time>2026-01-06T20:14:58.000Z</time>
        <extensions>
          <ns3:TrackPointExtension>
            <ns3:hr>98</ns3:hr>
            <ns3:cad>0</ns3:cad>
          </ns3:TrackPointExtension>
        </extensions>
      </trkpt>
      <trkpt lat="37.95062002725899219512939453125" lon="-107.1045389212667942047119140625">
        <ele>4003.800048828125</ele>
        <time>2026-01-06T20:15:04.000Z</time>
        <extensions>
          <ns3:TrackPointExtension>
            <ns3:hr>97</ns3:hr>
            <ns3:cad>0</ns3:cad>
          </ns3:TrackPointExtension>
        </extensions>
      </trkpt>
      <trkpt lat="37.9506169259548187255859375" lon="-107.10454336367547512054443359375">
        <ele>4003.39990234375</ele>
        <time>2026-01-06T20:15:06.000Z</time>
        <extensions>
          <ns3:TrackPointExtension>
            <ns3:hr>97</ns3:hr>
            <ns3:cad>0</ns3:cad>
          </ns3:TrackPointExtension>
        </extensions>
      </trkpt>
      <trkpt lat="37.9506093822419643402099609375" lon="-107.10455224849283695220947265625">
        <ele>4002.60009765625</ele>
        <time>2026-01-06T20:15:12.000Z</time>
        <extensions>
          <ns3:TrackPointExtension>
            <ns3:hr>99</ns3:hr>
            <ns3:cad>0</ns3:cad>
          </ns3:TrackPointExtension>
        </extensions>
      </trkpt>
      <trkpt lat="37.95060443691909313201904296875" lon="-107.10455291904509067535400390625">
        <ele>4002.199951171875</ele>
        <time>2026-01-06T20:15:13.000Z</time>
        <extensions>
          <ns3:TrackPointExtension>
            <ns3:hr>98</ns3:hr>
            <ns3:cad>0</ns3:cad>
          </ns3:TrackPointExtension>
        </extensions>
      </trkpt>
      <trkpt lat="37.950595133006572723388671875" lon="-107.10455392487347126007080078125">
        <ele>4001</ele>
        <time>2026-01-06T20:15:15.000Z</time>
        <extensions>
          <ns3:TrackPointExtension>
            <ns3:hr>98</ns3:hr>
            <ns3:cad>64</ns3:cad>
          </ns3:TrackPointExtension>
        </extensions>
      </trkpt>
      <trkpt lat="37.95058549381792545318603515625" lon="-107.10455727763473987579345703125">
        <ele>4000</ele>
        <time>2026-01-06T20:15:17.000Z</time>
        <extensions>
          <ns3:TrackPointExtension>
            <ns3:hr>98</ns3:hr>
            <ns3:cad>0</ns3:cad>
          </ns3:TrackPointExtension>
        </extensions>
      </trkpt>
      <trkpt lat="37.9505725018680095672607421875" lon="-107.1045581996440887451171875">
        <ele>3999.199951171875</ele>
        <time>2026-01-06T20:15:19.000Z</time>
        <extensions>
          <ns3:TrackPointExtension>
            <ns3:hr>97</ns3:hr>
            <ns3:cad>65</ns3:cad>
          </ns3:TrackPointExtension>
        </extensions>
      </trkpt>
      <trkpt lat="37.9505678080022335052490234375" lon="-107.1045563556253910064697265625">
        <ele>3998.800048828125</ele>
        <time>2026-01-06T20:15:20.000Z</time>
        <extensions>
          <ns3:TrackPointExtension>
            <ns3:hr>97</ns3:hr>
            <ns3:cad>65</ns3:cad>
          </ns3:TrackPointExtension>
        </extensions>
      </trkpt>
      <trkpt lat="37.9505503736436367034912109375" lon="-107.10457119159400463104248046875">
        <ele>3997.800048828125</ele>
        <time>2026-01-06T20:15:24.000Z</time>
        <extensions>
          <ns3:TrackPointExtension>
            <ns3:hr>97</ns3:hr>
            <ns3:cad>0</ns3:cad>
          </ns3:TrackPointExtension>
        </extensions>
      </trkpt>
      <trkpt lat="37.95054643414914608001708984375" lon="-107.10457487963140010833740234375">
        <ele>3997.60009765625</ele>
        <time>2026-01-06T20:15:25.000Z</time>
        <extensions>
          <ns3:TrackPointExtension>
            <ns3:hr>97</ns3:hr>
            <ns3:cad>0</ns3:cad>
          </ns3:TrackPointExtension>
        </extensions>
      </trkpt>
      <trkpt lat="37.95053847134113311767578125" lon="-107.10459114052355289459228515625">
        <ele>3996.800048828125</ele>
        <time>2026-01-06T20:15:31.000Z</time>
        <extensions>
          <ns3:TrackPointExtension>
            <ns3:hr>94</ns3:hr>
            <ns3:cad>0</ns3:cad>
          </ns3:TrackPointExtension>
        </extensions>
      </trkpt>
      <trkpt lat="37.95053821988403797149658203125" lon="-107.1045915596187114715576171875">
        <ele>3996.800048828125</ele>
        <time>2026-01-06T20:15:32.000Z</time>
        <extensions>
          <ns3:TrackPointExtension>
            <ns3:hr>94</ns3:hr>
            <ns3:cad>0</ns3:cad>
          </ns3:TrackPointExtension>
        </extensions>
      </trkpt>
      <trkpt lat="37.95053034089505672454833984375" lon="-107.10460807196795940399169921875">
        <ele>3996.800048828125</ele>
        <time>2026-01-06T20:15:34.000Z</time>
        <extensions>
          <ns3:TrackPointExtension>
            <ns3:hr>91</ns3:hr>
            <ns3:cad>0</ns3:cad>
          </ns3:TrackPointExtension>
        </extensions>
      </trkpt>
      <trkpt lat="37.95051843859255313873291015625" lon="-107.10462458431720733642578125">
        <ele>3996.800048828125</ele>
        <time>2026-01-06T20:15:36.000Z</time>
        <extensions>
          <ns3:TrackPointExtension>
            <ns3:hr>90</ns3:hr>
            <ns3:cad>0</ns3:cad>
          </ns3:TrackPointExtension>
        </extensions>
      </trkpt>
      <trkpt lat="37.9505121521651744842529296875" lon="-107.10464511997997760772705078125">
        <ele>3996</ele>
        <time>2026-01-06T20:15:39.000Z</time>
        <extensions>
          <ns3:TrackPointExtension>
            <ns3:hr>91</ns3:hr>
            <ns3:cad>0</ns3:cad>
          </ns3:TrackPointExtension>
        </extensions>
      </trkpt>
      <trkpt lat="37.95051307417452335357666015625" lon="-107.10465467534959316253662109375">
        <ele>3995.800048828125</ele>
        <time>2026-01-06T20:15:40.000Z</time>
        <extensions>
          <ns3:TrackPointExtension>
            <ns3:hr>91</ns3:hr>
            <ns3:cad>0</ns3:cad>
          </ns3:TrackPointExtension>
        </extensions>
      </trkpt>
      <trkpt lat="37.95051491819322109222412109375" lon="-107.1046894602477550506591796875">
        <ele>3994.800048828125</ele>
        <time>2026-01-06T20:15:44.000Z</time>
        <extensions>
          <ns3:TrackPointExtension>
            <ns3:hr>93</ns3:hr>
            <ns3:cad>0</ns3:cad>
          </ns3:TrackPointExtension>
        </extensions>
      </trkpt>
      <trkpt lat="37.95051508583128452301025390625" lon="-107.104691304266452789306640625">
        <ele>3994.39990234375</ele>
        <time>2026-01-06T20:15:45.000Z</time>
        <extensions>
          <ns3:TrackPointExtension>
            <ns3:hr>94</ns3:hr>
            <ns3:cad>0</ns3:cad>
          </ns3:TrackPointExtension>
        </extensions>
      </trkpt>
      <trkpt lat="37.95051240362226963043212890625" lon="-107.10469390265643596649169921875">
        <ele>3994.199951171875</ele>
        <time>2026-01-06T20:15:47.000Z</time>
        <extensions>
          <ns3:TrackPointExtension>
            <ns3:hr>95</ns3:hr>
            <ns3:cad>0</ns3:cad>
          </ns3:TrackPointExtension>
        </extensions>
      </trkpt>
      <trkpt lat="37.95050720684230327606201171875" lon="-107.10471586324274539947509765625">
        <ele>3994.199951171875</ele>
        <time>2026-01-06T20:15:52.000Z</time>
        <extensions>
          <ns3:TrackPointExtension>
            <ns3:hr>96</ns3:hr>
            <ns3:cad>0</ns3:cad>
          </ns3:TrackPointExtension>
        </extensions>
      </trkpt>
      <trkpt lat="37.950505279004573822021484375" lon="-107.10471787489950656890869140625">
        <ele>3993.60009765625</ele>
        <time>2026-01-06T20:15:58.000Z</time>
        <extensions>
          <ns3:TrackPointExtension>
            <ns3:hr>97</ns3:hr>
            <ns3:cad>0</ns3:cad>
          </ns3:TrackPointExtension>
        </extensions>
      </trkpt>
      <trkpt lat="37.950505279004573822021484375" lon="-107.10471787489950656890869140625">
        <ele>3993.60009765625</ele>
        <time>2026-01-06T20:15:59.000Z</time>
        <extensions>
          <ns3:TrackPointExtension>
            <ns3:hr>97</ns3:hr>
            <ns3:cad>0</ns3:cad>
          </ns3:TrackPointExtension>
        </extensions>
      </trkpt>
      <trkpt lat="37.9505047760903835296630859375" lon="-107.1047270111739635467529296875">
        <ele>3993.39990234375</ele>
        <time>2026-01-06T20:16:01.000Z</time>
        <extensions>
          <ns3:TrackPointExtension>
            <ns3:hr>98</ns3:hr>
            <ns3:cad>0</ns3:cad>
          </ns3:TrackPointExtension>
        </extensions>
      </trkpt>
      <trkpt lat="37.950508631765842437744140625" lon="-107.10475106723606586456298828125">
        <ele>3992.39990234375</ele>
        <time>2026-01-06T20:16:05.000Z</time>
        <extensions>
          <ns3:TrackPointExtension>
            <ns3:hr>97</ns3:hr>
            <ns3:cad>0</ns3:cad>
          </ns3:TrackPointExtension>
        </extensions>
      </trkpt>
      <trkpt lat="37.9505094699561595916748046875" lon="-107.104754336178302764892578125">
        <ele>3992.199951171875</ele>
        <time>2026-01-06T20:16:06.000Z</time>
        <extensions>
          <ns3:TrackPointExtension>
            <ns3:hr>97</ns3:hr>
            <ns3:cad>0</ns3:cad>
          </ns3:TrackPointExtension>
        </extensions>
      </trkpt>
      <trkpt lat="37.95051097869873046875" lon="-107.10478325374424457550048828125">
        <ele>3991.199951171875</ele>
        <time>2026-01-06T20:16:10.000Z</time>
        <extensions>
          <ns3:TrackPointExtension>
            <ns3:hr>101</ns3:hr>
            <ns3:cad>0</ns3:cad>
          </ns3:TrackPointExtension>
        </extensions>
      </trkpt>
      <trkpt lat="37.95051005668938159942626953125" lon="-107.10481979884207248687744140625">
        <ele>3991.199951171875</ele>
        <time>2026-01-06T20:16:16.000Z</time>
        <extensions>
          <ns3:TrackPointExtension>
            <ns3:hr>102</ns3:hr>
            <ns3:cad>0</ns3:cad>
          </ns3:TrackPointExtension>
        </extensions>
      </trkpt>
      <trkpt lat="37.95051123015582561492919921875" lon="-107.10483170114457607269287109375">
        <ele>3991</ele>
        <time>2026-01-06T20:16:17.000Z</time>
        <extensions>
          <ns3:TrackPointExtension>
            <ns3:hr>100</ns3:hr>
            <ns3:cad>0</ns3:cad>
          </ns3:TrackPointExtension>
        </extensions>
      </trkpt>
      <trkpt lat="37.950507961213588714599609375" lon="-107.10485349409282207489013671875">
        <ele>3990.60009765625</ele>
        <time>2026-01-06T20:16:21.000Z</time>
        <extensions>
          <ns3:TrackPointExtension>
            <ns3:hr>96</ns3:hr>
            <ns3:cad>0</ns3:cad>
          </ns3:TrackPointExtension>
        </extensions>
      </trkpt>
      <trkpt lat="37.95050762593746185302734375" lon="-107.10485718213021755218505859375">
        <ele>3990.60009765625</ele>
        <time>2026-01-06T20:16:22.000Z</time>
        <extensions>
          <ns3:TrackPointExtension>
            <ns3:hr>95</ns3:hr>
            <ns3:cad>0</ns3:cad>
          </ns3:TrackPointExtension>
        </extensions>
      </trkpt>
      <trkpt lat="37.95050762593746185302734375" lon="-107.10485718213021755218505859375">
        <ele>3990.800048828125</ele>
        <time>2026-01-06T20:16:28.000Z</time>
        <extensions>
          <ns3:TrackPointExtension>
            <ns3:hr>93</ns3:hr>
            <ns3:cad>0</ns3:cad>
          </ns3:TrackPointExtension>
        </extensions>
      </trkpt>
      <trkpt lat="37.95048155821859836578369140625" lon="-107.1048912964761257171630859375">
        <ele>3990.60009765625</ele>
        <time>2026-01-06T20:16:34.000Z</time>
        <extensions>
          <ns3:TrackPointExtension>
            <ns3:hr>94</ns3:hr>
            <ns3:cad>0</ns3:cad>
          </ns3:TrackPointExtension>
        </extensions>
      </trkpt>
      <trkpt lat="37.95047669671475887298583984375" lon="-107.10490965284407138824462890625">
        <ele>3990.60009765625</ele>
        <time>2026-01-06T20:16:36.000Z</time>
        <extensions>
          <ns3:TrackPointExtension>
            <ns3:hr>94</ns3:hr>
            <ns3:cad>0</ns3:cad>
          </ns3:TrackPointExtension>
        </extensions>
      </trkpt>
      <trkpt lat="37.95047166757285594940185546875" lon="-107.1049399115145206451416015625">
        <ele>3990.199951171875</ele>
        <time>2026-01-06T20:16:41.000Z</time>
        <extensions>
          <ns3:TrackPointExtension>
            <ns3:hr>95</ns3:hr>
            <ns3:cad>0</ns3:cad>
          </ns3:TrackPointExtension>
        </extensions>
      </trkpt>
      <trkpt lat="37.95047334395349025726318359375" lon="-107.104949466884136199951171875">
        <ele>3990.199951171875</ele>
        <time>2026-01-06T20:16:43.000Z</time>
        <extensions>
          <ns3:TrackPointExtension>
            <ns3:hr>100</ns3:hr>
            <ns3:cad>0</ns3:cad>
          </ns3:TrackPointExtension>
        </extensions>
      </trkpt>
      <trkpt lat="37.95047351159155368804931640625" lon="-107.10495340637862682342529296875">
        <ele>3990.199951171875</ele>
        <time>2026-01-06T20:16:44.000Z</time>
        <extensions>
          <ns3:TrackPointExtension>
            <ns3:hr>103</ns3:hr>
            <ns3:cad>0</ns3:cad>
          </ns3:TrackPointExtension>
        </extensions>
      </trkpt>
      <trkpt lat="37.950472421944141387939453125" lon="-107.10496178828179836273193359375">
        <ele>3990</ele>
        <time>2026-01-06T20:16:45.000Z</time>
        <extensions>
          <ns3:TrackPointExtension>
            <ns3:hr>103</ns3:hr>
            <ns3:cad>0</ns3:cad>
          </ns3:TrackPointExtension>
        </extensions>
      </trkpt>
      <trkpt lat="37.950467057526111602783203125" lon="-107.104982323944568634033203125">
        <ele>3989.800048828125</ele>
        <time>2026-01-06T20:16:48.000Z</time>
        <extensions>
          <ns3:TrackPointExtension>
            <ns3:hr>104</ns3:hr>
            <ns3:cad>0</ns3:cad>
          </ns3:TrackPointExtension>
        </extensions>
      </trkpt>
      <trkpt lat="37.95047015883028507232666015625" lon="-107.10500545799732208251953125">
        <ele>3989.39990234375</ele>
        <time>2026-01-06T20:16:53.000Z</time>
        <extensions>
          <ns3:TrackPointExtension>
            <ns3:hr>104</ns3:hr>
            <ns3:cad>0</ns3:cad>
          </ns3:TrackPointExtension>
        </extensions>
      </trkpt>
      <trkpt lat="37.95047317631542682647705078125" lon="-107.1050512231886386871337890625">
        <ele>3989</ele>
        <time>2026-01-06T20:16:58.000Z</time>
        <extensions>
          <ns3:TrackPointExtension>
            <ns3:hr>104</ns3:hr>
            <ns3:cad>0</ns3:cad>
          </ns3:TrackPointExtension>
        </extensions>
      </trkpt>
      <trkpt lat="37.95046881772577762603759765625" lon="-107.1050592698156833648681640625">
        <ele>3988.60009765625</ele>
        <time>2026-01-06T20:16:59.000Z</time>
        <extensions>
          <ns3:TrackPointExtension>
            <ns3:hr>103</ns3:hr>
            <ns3:cad>0</ns3:cad>
          </ns3:TrackPointExtension>
        </extensions>
      </trkpt>
      <trkpt lat="37.95045976527035236358642578125" lon="-107.10507527925074100494384765625">
        <ele>3987.800048828125</ele>
        <time>2026-01-06T20:17:01.000Z</time>
        <extensions>
          <ns3:TrackPointExtension>
            <ns3:hr>103</ns3:hr>
            <ns3:cad>0</ns3:cad>
          </ns3:TrackPointExtension>
        </extensions>
      </trkpt>
      <trkpt lat="37.9504491202533245086669921875" lon="-107.1050944738090038299560546875">
        <ele>3986.800048828125</ele>
        <time>2026-01-06T20:17:04.000Z</time>
        <extensions>
          <ns3:TrackPointExtension>
            <ns3:hr>104</ns3:hr>
            <ns3:cad>0</ns3:cad>
          </ns3:TrackPointExtension>
        </extensions>
      </trkpt>
      <trkpt lat="37.95043897815048694610595703125" lon="-107.10511140525341033935546875">
        <ele>3986.199951171875</ele>
        <time>2026-01-06T20:17:07.000Z</time>
        <extensions>
          <ns3:TrackPointExtension>
            <ns3:hr>104</ns3:hr>
            <ns3:cad>0</ns3:cad>
          </ns3:TrackPointExtension>
        </extensions>
      </trkpt>
      <trkpt lat="37.95043311081826686859130859375" lon="-107.10512842051684856414794921875">
        <ele>3985.60009765625</ele>
        <time>2026-01-06T20:17:09.000Z</time>
        <extensions>
          <ns3:TrackPointExtension>
            <ns3:hr>104</ns3:hr>
            <ns3:cad>0</ns3:cad>
          </ns3:TrackPointExtension>
        </extensions>
      </trkpt>
      <trkpt lat="37.9504303447902202606201171875" lon="-107.1051578409969806671142578125">
        <ele>3984.60009765625</ele>
        <time>2026-01-06T20:17:13.000Z</time>
        <extensions>
          <ns3:TrackPointExtension>
            <ns3:hr>104</ns3:hr>
            <ns3:cad>0</ns3:cad>
          </ns3:TrackPointExtension>
        </extensions>
      </trkpt>
      <trkpt lat="37.95042715966701507568359375" lon="-107.10517116822302341461181640625">
        <ele>3984.39990234375</ele>
        <time>2026-01-06T20:17:14.000Z</time>
        <extensions>
          <ns3:TrackPointExtension>
            <ns3:hr>104</ns3:hr>
            <ns3:cad>0</ns3:cad>
          </ns3:TrackPointExtension>
        </extensions>
      </trkpt>
      <trkpt lat="37.95042120851576328277587890625" lon="-107.10521332919597625732421875">
        <ele>3983.39990234375</ele>
        <time>2026-01-06T20:17:20.000Z</time>
        <extensions>
          <ns3:TrackPointExtension>
            <ns3:hr>104</ns3:hr>
            <ns3:cad>0</ns3:cad>
          </ns3:TrackPointExtension>
        </extensions>
      </trkpt>
      <trkpt lat="37.950417436659336090087890625" lon="-107.10522481240332126617431640625">
        <ele>3982.60009765625</ele>
        <time>2026-01-06T20:17:26.000Z</time>
        <extensions>
          <ns3:TrackPointExtension>
            <ns3:hr>105</ns3:hr>
            <ns3:cad>0</ns3:cad>
          </ns3:TrackPointExtension>
        </extensions>
      </trkpt>
      <trkpt lat="37.950417436659336090087890625" lon="-107.10522481240332126617431640625">
        <ele>3983</ele>
        <time>2026-01-06T20:17:31.000Z</time>
        <extensions>
          <ns3:TrackPointExtension>
            <ns3:hr>102</ns3:hr>
            <ns3:cad>0</ns3:cad>
          </ns3:TrackPointExtension>
        </extensions>
      </trkpt>
      <trkpt lat="37.950417436659336090087890625" lon="-107.10522481240332126617431640625">
        <ele>3983</ele>
        <time>2026-01-06T20:17:35.000Z</time>
        <extensions>
          <ns3:TrackPointExtension>
            <ns3:hr>102</ns3:hr>
            <ns3:cad>0</ns3:cad>
          </ns3:TrackPointExtension>
        </extensions>
      </trkpt>
      <trkpt lat="37.9504062049090862274169921875" lon="-107.10523470304906368255615234375">
        <ele>3982.800048828125</ele>
        <time>2026-01-06T20:17:40.000Z</time>
        <extensions>
          <ns3:TrackPointExtension>
            <ns3:hr>105</ns3:hr>
            <ns3:cad>0</ns3:cad>
          </ns3:TrackPointExtension>
        </extensions>
      </trkpt>
      <trkpt lat="37.9503958113491535186767578125" lon="-107.10525129921734333038330078125">
        <ele>3982.800048828125</ele>
        <time>2026-01-06T20:17:42.000Z</time>
        <extensions>
          <ns3:TrackPointExtension>
            <ns3:hr>106</ns3:hr>
            <ns3:cad>0</ns3:cad>
          </ns3:TrackPointExtension>
        </extensions>
      </trkpt>
      <trkpt lat="37.9503743536770343780517578125" lon="-107.10528365336358547210693359375">
        <ele>3982.800048828125</ele>
        <time>2026-01-06T20:17:47.000Z</time>
        <extensions>
          <ns3:TrackPointExtension>
            <ns3:hr>106</ns3:hr>
            <ns3:cad>0</ns3:cad>
          </ns3:TrackPointExtension>
        </extensions>
      </trkpt>
      <trkpt lat="37.95036605559289455413818359375" lon="-107.1052926219999790191650390625">
        <ele>3982.199951171875</ele>
        <time>2026-01-06T20:17:49.000Z</time>
        <extensions>
          <ns3:TrackPointExtension>
            <ns3:hr>106</ns3:hr>
            <ns3:cad>0</ns3:cad>
          </ns3:TrackPointExtension>
        </extensions>
      </trkpt>
      <trkpt lat="37.95035566203296184539794921875" lon="-107.1053177677094936370849609375">
        <ele>3981</ele>
        <time>2026-01-06T20:17:52.000Z</time>
        <extensions>
          <ns3:TrackPointExtension>
            <ns3:hr>106</ns3:hr>
            <ns3:cad>53</ns3:cad>
          </ns3:TrackPointExtension>
        </extensions>
      </trkpt>
      <trkpt lat="37.95034660957753658294677734375" lon="-107.10533377714455127716064453125">
        <ele>3980.39990234375</ele>
        <time>2026-01-06T20:17:54.000Z</time>
        <extensions>
          <ns3:TrackPointExtension>
            <ns3:hr>107</ns3:hr>
            <ns3:cad>0</ns3:cad>
          </ns3:TrackPointExtension>
        </extensions>
      </trkpt>
      <trkpt lat="37.9503398202359676361083984375" lon="-107.10535489954054355621337890625">
        <ele>3979.800048828125</ele>
        <time>2026-01-06T20:17:56.000Z</time>
        <extensions>
          <ns3:TrackPointExtension>
            <ns3:hr>106</ns3:hr>
            <ns3:cad>0</ns3:cad>
          </ns3:TrackPointExtension>
        </extensions>
      </trkpt>
      <trkpt lat="37.9503428377211093902587890625" lon="-107.1053640358150005340576171875">
        <ele>3979.60009765625</ele>
        <time>2026-01-06T20:17:57.000Z</time>
        <extensions>
          <ns3:TrackPointExtension>
            <ns3:hr>106</ns3:hr>
            <ns3:cad>0</ns3:cad>
          </ns3:TrackPointExtension>
        </extensions>
      </trkpt>
      <trkpt lat="37.9503468610346317291259765625" lon="-107.1053762733936309814453125">
        <ele>3979</ele>
        <time>2026-01-06T20:17:59.000Z</time>
        <extensions>
          <ns3:TrackPointExtension>
            <ns3:hr>106</ns3:hr>
            <ns3:cad>0</ns3:cad>
          </ns3:TrackPointExtension>
        </extensions>
      </trkpt>
      <trkpt lat="37.95034401118755340576171875" lon="-107.10538306273519992828369140625">
        <ele>3978.800048828125</ele>
        <time>2026-01-06T20:18:00.000Z</time>
        <extensions>
          <ns3:TrackPointExtension>
            <ns3:hr>106</ns3:hr>
            <ns3:cad>0</ns3:cad>
          </ns3:TrackPointExtension>
        </extensions>
      </trkpt>
      <trkpt lat="37.950329594314098358154296875" lon="-107.10542094893753528594970703125">
        <ele>3978.800048828125</ele>
        <time>2026-01-06T20:18:06.000Z</time>
        <extensions>
          <ns3:TrackPointExtension>
            <ns3:hr>105</ns3:hr>
            <ns3:cad>0</ns3:cad>
          </ns3:TrackPointExtension>
        </extensions>
      </trkpt>
      <trkpt lat="37.95031450688838958740234375" lon="-107.10543989203870296478271484375">
        <ele>3977.60009765625</ele>
        <time>2026-01-06T20:18:10.000Z</time>
        <extensions>
          <ns3:TrackPointExtension>
            <ns3:hr>105</ns3:hr>
            <ns3:cad>59</ns3:cad>
          </ns3:TrackPointExtension>
        </extensions>
      </trkpt>
      <trkpt lat="37.95030838809907436370849609375" lon="-107.10544995032250881195068359375">
        <ele>3977.199951171875</ele>
        <time>2026-01-06T20:18:12.000Z</time>
        <extensions>
          <ns3:TrackPointExtension>
            <ns3:hr>105</ns3:hr>
            <ns3:cad>0</ns3:cad>
          </ns3:TrackPointExtension>
        </extensions>
      </trkpt>
      <trkpt lat="37.95028156600892543792724609375" lon="-107.10549890063703060150146484375">
        <ele>3976.60009765625</ele>
        <time>2026-01-06T20:18:18.000Z</time>
        <extensions>
          <ns3:TrackPointExtension>
            <ns3:hr>103</ns3:hr>
            <ns3:cad>0</ns3:cad>
          </ns3:TrackPointExtension>
        </extensions>
      </trkpt>
      <trkpt lat="37.950264550745487213134765625" lon="-107.10553653538227081298828125">
        <ele>3975.39990234375</ele>
        <time>2026-01-06T20:18:24.000Z</time>
        <extensions>
          <ns3:TrackPointExtension>
            <ns3:hr>103</ns3:hr>
            <ns3:cad>0</ns3:cad>
          </ns3:TrackPointExtension>
        </extensions>
      </trkpt>
      <trkpt lat="37.950253151357173919677734375" lon="-107.105573751032352447509765625">
        <ele>3974.60009765625</ele>
        <time>2026-01-06T20:18:30.000Z</time>
        <extensions>
          <ns3:TrackPointExtension>
            <ns3:hr>103</ns3:hr>
            <ns3:cad>0</ns3:cad>
          </ns3:TrackPointExtension>
        </extensions>
      </trkpt>
      <trkpt lat="37.95025005005300045013427734375" lon="-107.10558255203068256378173828125">
        <ele>3974.60009765625</ele>
        <time>2026-01-06T20:18:31.000Z</time>
        <extensions>
          <ns3:TrackPointExtension>
            <ns3:hr>104</ns3:hr>
            <ns3:cad>0</ns3:cad>
          </ns3:TrackPointExtension>
        </extensions>
      </trkpt>
      <trkpt lat="37.95023831538856029510498046875" lon="-107.10559646598994731903076171875">
        <ele>3974.39990234375</ele>
        <time>2026-01-06T20:18:34.000Z</time>
        <extensions>
          <ns3:TrackPointExtension>
            <ns3:hr>106</ns3:hr>
            <ns3:cad>0</ns3:cad>
          </ns3:TrackPointExtension>
        </extensions>
      </trkpt>
      <trkpt lat="37.9502333700656890869140625" lon="-107.105621360242366790771484375">
        <ele>3973.800048828125</ele>
        <time>2026-01-06T20:18:37.000Z</time>
        <extensions>
          <ns3:TrackPointExtension>
            <ns3:hr>106</ns3:hr>
            <ns3:cad>0</ns3:cad>
          </ns3:TrackPointExtension>
        </extensions>
      </trkpt>
      <trkpt lat="37.950233034789562225341796875" lon="-107.1056466735899448394775390625">
        <ele>3973</ele>
        <time>2026-01-06T20:18:40.000Z</time>
        <extensions>
          <ns3:TrackPointExtension>
            <ns3:hr>105</ns3:hr>
            <ns3:cad>0</ns3:cad>
          </ns3:TrackPointExtension>
        </extensions>
      </trkpt>
      <trkpt lat="37.9502315260469913482666015625" lon="-107.10567156784236431121826171875">
        <ele>3971.800048828125</ele>
        <time>2026-01-06T20:18:44.000Z</time>
        <extensions>
          <ns3:TrackPointExtension>
            <ns3:hr>105</ns3:hr>
            <ns3:cad>48</ns3:cad>
          </ns3:TrackPointExtension>
        </extensions>
      </trkpt>
      <trkpt lat="37.950233034789562225341796875" lon="-107.10571062751114368438720703125">
        <ele>3971</ele>
        <time>2026-01-06T20:18:50.000Z</time>
        <extensions>
          <ns3:TrackPointExtension>
            <ns3:hr>106</ns3:hr>
            <ns3:cad>0</ns3:cad>
          </ns3:TrackPointExtension>
        </extensions>
      </trkpt>
      <trkpt lat="37.9502372257411479949951171875" lon="-107.10571817122399806976318359375">
        <ele>3970.800048828125</ele>
        <time>2026-01-06T20:18:51.000Z</time>
        <extensions>
          <ns3:TrackPointExtension>
            <ns3:hr>107</ns3:hr>
            <ns3:cad>0</ns3:cad>
          </ns3:TrackPointExtension>
        </extensions>
      </trkpt>
      <trkpt lat="37.9502368904650211334228515625" lon="-107.10572169162333011627197265625">
        <ele>3970.39990234375</ele>
        <time>2026-01-06T20:18:52.000Z</time>
        <extensions>
          <ns3:TrackPointExtension>
            <ns3:hr>107</ns3:hr>
            <ns3:cad>0</ns3:cad>
          </ns3:TrackPointExtension>
        </extensions>
      </trkpt>
      <trkpt lat="37.95022666454315185546875" lon="-107.10573979653418064117431640625">
        <ele>3969.60009765625</ele>
        <time>2026-01-06T20:18:55.000Z</time>
        <extensions>
          <ns3:TrackPointExtension>
            <ns3:hr>106</ns3:hr>
            <ns3:cad>0</ns3:cad>
          </ns3:TrackPointExtension>
        </extensions>
      </trkpt>
      <trkpt lat="37.95021937228739261627197265625" lon="-107.105769217014312744140625">
        <ele>3968.60009765625</ele>
        <time>2026-01-06T20:18:59.000Z</time>
        <extensions>
          <ns3:TrackPointExtension>
            <ns3:hr>105</ns3:hr>
            <ns3:cad>60</ns3:cad>
          </ns3:TrackPointExtension>
        </extensions>
      </trkpt>
      <trkpt lat="37.9502164386212825775146484375" lon="-107.10577801801264286041259765625">
        <ele>3968.39990234375</ele>
        <time>2026-01-06T20:19:00.000Z</time>
        <extensions>
          <ns3:TrackPointExtension>
            <ns3:hr>105</ns3:hr>
            <ns3:cad>60</ns3:cad>
          </ns3:TrackPointExtension>
        </extensions>
      </trkpt>
      <trkpt lat="37.95020998455584049224853515625" lon="-107.10581456311047077178955078125">
        <ele>3967.39990234375</ele>
        <time>2026-01-06T20:19:06.000Z</time>
        <extensions>
          <ns3:TrackPointExtension>
            <ns3:hr>102</ns3:hr>
            <ns3:cad>0</ns3:cad>
          </ns3:TrackPointExtension>
        </extensions>
      </trkpt>
      <trkpt lat="37.95020931400358676910400390625" lon="-107.10582143627107143402099609375">
        <ele>3967.39990234375</ele>
        <time>2026-01-06T20:19:07.000Z</time>
        <extensions>
          <ns3:TrackPointExtension>
            <ns3:hr>101</ns3:hr>
            <ns3:cad>0</ns3:cad>
          </ns3:TrackPointExtension>
        </extensions>
      </trkpt>
      <trkpt lat="37.95020847581326961517333984375" lon="-107.10582965053617954254150390625">
        <ele>3967</ele>
        <time>2026-01-06T20:19:08.000Z</time>
        <extensions>
          <ns3:TrackPointExtension>
            <ns3:hr>101</ns3:hr>
            <ns3:cad>43</ns3:cad>
          </ns3:TrackPointExtension>
        </extensions>
      </trkpt>
      <trkpt lat="37.95020076446235179901123046875" lon="-107.10585127584636211395263671875">
        <ele>3966.199951171875</ele>
        <time>2026-01-06T20:19:11.000Z</time>
        <extensions>
          <ns3:TrackPointExtension>
            <ns3:hr>101</ns3:hr>
            <ns3:cad>43</ns3:cad>
          </ns3:TrackPointExtension>
        </extensions>
      </trkpt>
      <trkpt lat="37.9501986689865589141845703125" lon="-107.10588044486939907073974609375">
        <ele>3965.39990234375</ele>
        <time>2026-01-06T20:19:15.000Z</time>
        <extensions>
          <ns3:TrackPointExtension>
            <ns3:hr>102</ns3:hr>
            <ns3:cad>43</ns3:cad>
          </ns3:TrackPointExtension>
        </extensions>
      </trkpt>
      <trkpt lat="37.9502010159194469451904296875" lon="-107.10588865913450717926025390625">
        <ele>3965.199951171875</ele>
        <time>2026-01-06T20:19:16.000Z</time>
        <extensions>
          <ns3:TrackPointExtension>
            <ns3:hr>102</ns3:hr>
            <ns3:cad>43</ns3:cad>
          </ns3:TrackPointExtension>
        </extensions>
      </trkpt>
      <trkpt lat="37.9502006806433200836181640625" lon="-107.10592621006071567535400390625">
        <ele>3964</ele>
        <time>2026-01-06T20:19:21.000Z</time>
        <extensions>
          <ns3:TrackPointExtension>
            <ns3:hr>102</ns3:hr>
            <ns3:cad>43</ns3:cad>
          </ns3:TrackPointExtension>
        </extensions>
      </trkpt>
      <trkpt lat="37.95019858516752719879150390625" lon="-107.10596459917724132537841796875">
        <ele>3963</ele>
        <time>2026-01-06T20:19:27.000Z</time>
        <extensions>
          <ns3:TrackPointExtension>
            <ns3:hr>103</ns3:hr>
            <ns3:cad>59</ns3:cad>
          </ns3:TrackPointExtension>
        </extensions>
      </trkpt>
      <trkpt lat="37.950194142758846282958984375" lon="-107.10596962831914424896240234375">
        <ele>3962.800048828125</ele>
        <time>2026-01-06T20:19:28.000Z</time>
        <extensions>
          <ns3:TrackPointExtension>
            <ns3:hr>103</ns3:hr>
            <ns3:cad>0</ns3:cad>
          </ns3:TrackPointExtension>
        </extensions>
      </trkpt>
      <trkpt lat="37.950165309011936187744140625" lon="-107.10599494166672229766845703125">
        <ele>3961.800048828125</ele>
        <time>2026-01-06T20:19:32.000Z</time>
        <extensions>
          <ns3:TrackPointExtension>
            <ns3:hr>104</ns3:hr>
            <ns3:cad>0</ns3:cad>
          </ns3:TrackPointExtension>
        </extensions>
      </trkpt>
      <trkpt lat="37.95016153715550899505615234375" lon="-107.10599728859961032867431640625">
        <ele>3961.39990234375</ele>
        <time>2026-01-06T20:19:33.000Z</time>
        <extensions>
          <ns3:TrackPointExtension>
            <ns3:hr>105</ns3:hr>
            <ns3:cad>0</ns3:cad>
          </ns3:TrackPointExtension>
        </extensions>
      </trkpt>
      <trkpt lat="37.95014024712145328521728515625" lon="-107.106015644967555999755859375">
        <ele>3961</ele>
        <time>2026-01-06T20:19:38.000Z</time>
        <extensions>
          <ns3:TrackPointExtension>
            <ns3:hr>108</ns3:hr>
            <ns3:cad>40</ns3:cad>
          </ns3:TrackPointExtension>
        </extensions>
      </trkpt>
      <trkpt lat="37.9501420073211193084716796875" lon="-107.1060309000313282012939453125">
        <ele>3960.60009765625</ele>
        <time>2026-01-06T20:19:40.000Z</time>
        <extensions>
          <ns3:TrackPointExtension>
            <ns3:hr>109</ns3:hr>
            <ns3:cad>0</ns3:cad>
          </ns3:TrackPointExtension>
        </extensions>
      </trkpt>
      <trkpt lat="37.9501475393772125244140625" lon="-107.1060506813228130340576171875">
        <ele>3959.39990234375</ele>
        <time>2026-01-06T20:19:44.000Z</time>
        <extensions>
          <ns3:TrackPointExtension>
            <ns3:hr>108</ns3:hr>
            <ns3:cad>0</ns3:cad>
          </ns3:TrackPointExtension>
        </extensions>
      </trkpt>
      <trkpt lat="37.9501493833959102630615234375" lon="-107.10606920532882213592529296875">
        <ele>3959</ele>
        <time>2026-01-06T20:19:47.000Z</time>
        <extensions>
          <ns3:TrackPointExtension>
            <ns3:hr>108</ns3:hr>
            <ns3:cad>0</ns3:cad>
          </ns3:TrackPointExtension>
        </extensions>
      </trkpt>
      <trkpt lat="37.9501534067094326019287109375" lon="-107.1060902439057826995849609375">
        <ele>3958.39990234375</ele>
        <time>2026-01-06T20:19:50.000Z</time>
        <extensions>
          <ns3:TrackPointExtension>
            <ns3:hr>108</ns3:hr>
            <ns3:cad>0</ns3:cad>
          </ns3:TrackPointExtension>
        </extensions>
      </trkpt>
      <trkpt lat="37.95014980249106884002685546875" lon="-107.10610155947506427764892578125">
        <ele>3957.60009765625</ele>
        <time>2026-01-06T20:19:53.000Z</time>
        <extensions>
          <ns3:TrackPointExtension>
            <ns3:hr>105</ns3:hr>
            <ns3:cad>0</ns3:cad>
          </ns3:TrackPointExtension>
        </extensions>
      </trkpt>
      <trkpt lat="37.95015013776719570159912109375" lon="-107.106113545596599578857421875">
        <ele>3957.39990234375</ele>
        <time>2026-01-06T20:19:55.000Z</time>
        <extensions>
          <ns3:TrackPointExtension>
            <ns3:hr>102</ns3:hr>
            <ns3:cad>0</ns3:cad>
          </ns3:TrackPointExtension>
        </extensions>
      </trkpt>
      <trkpt lat="37.95015181414783000946044921875" lon="-107.106143720448017120361328125">
        <ele>3956.39990234375</ele>
        <time>2026-01-06T20:20:00.000Z</time>
        <extensions>
          <ns3:TrackPointExtension>
            <ns3:hr>100</ns3:hr>
            <ns3:cad>0</ns3:cad>
          </ns3:TrackPointExtension>
        </extensions>
      </trkpt>
      <trkpt lat="37.95015047304332256317138671875" lon="-107.1061514317989349365234375">
        <ele>3956.199951171875</ele>
        <time>2026-01-06T20:20:01.000Z</time>
        <extensions>
          <ns3:TrackPointExtension>
            <ns3:hr>99</ns3:hr>
            <ns3:cad>0</ns3:cad>
          </ns3:TrackPointExtension>
        </extensions>
      </trkpt>
      <trkpt lat="37.950147874653339385986328125" lon="-107.10618906654417514801025390625">
        <ele>3955.199951171875</ele>
        <time>2026-01-06T20:20:05.000Z</time>
        <extensions>
          <ns3:TrackPointExtension>
            <ns3:hr>99</ns3:hr>
            <ns3:cad>0</ns3:cad>
          </ns3:TrackPointExtension>
        </extensions>
      </trkpt>
      <trkpt lat="37.95014477334916591644287109375" lon="-107.1062059141695499420166015625">
        <ele>3955</ele>
        <time>2026-01-06T20:20:07.000Z</time>
        <extensions>
          <ns3:TrackPointExtension>
            <ns3:hr>99</ns3:hr>
            <ns3:cad>0</ns3:cad>
          </ns3:TrackPointExtension>
        </extensions>
      </trkpt>
      <trkpt lat="37.9501353017985820770263671875" lon="-107.10624589584767818450927734375">
        <ele>3954</ele>
        <time>2026-01-06T20:20:12.000Z</time>
        <extensions>
          <ns3:TrackPointExtension>
            <ns3:hr>100</ns3:hr>
            <ns3:cad>0</ns3:cad>
          </ns3:TrackPointExtension>
        </extensions>
      </trkpt>
      <trkpt lat="37.95013287104666233062744140625" lon="-107.10627255029976367950439453125">
        <ele>3953</ele>
        <time>2026-01-06T20:20:15.000Z</time>
        <extensions>
          <ns3:TrackPointExtension>
            <ns3:hr>101</ns3:hr>
            <ns3:cad>75</ns3:cad>
          </ns3:TrackPointExtension>
        </extensions>
      </trkpt>
      <trkpt lat="37.950132787227630615234375" lon="-107.106281854212284088134765625">
        <ele>3952.800048828125</ele>
        <time>2026-01-06T20:20:16.000Z</time>
        <extensions>
          <ns3:TrackPointExtension>
            <ns3:hr>101</ns3:hr>
            <ns3:cad>75</ns3:cad>
          </ns3:TrackPointExtension>
        </extensions>
      </trkpt>
      <trkpt lat="37.950127422809600830078125" lon="-107.106322757899761199951171875">
        <ele>3951.60009765625</ele>
        <time>2026-01-06T20:20:21.000Z</time>
        <extensions>
          <ns3:TrackPointExtension>
            <ns3:hr>101</ns3:hr>
            <ns3:cad>0</ns3:cad>
          </ns3:TrackPointExtension>
        </extensions>
      </trkpt>
      <trkpt lat="37.95012666843831539154052734375" lon="-107.10632971487939357757568359375">
        <ele>3951.199951171875</ele>
        <time>2026-01-06T20:20:22.000Z</time>
        <extensions>
          <ns3:TrackPointExtension>
            <ns3:hr>101</ns3:hr>
            <ns3:cad>0</ns3:cad>
          </ns3:TrackPointExtension>
        </extensions>
      </trkpt>
      <trkpt lat="37.95012901537120342254638671875" lon="-107.1063713729381561279296875">
        <ele>3950.60009765625</ele>
        <time>2026-01-06T20:20:27.000Z</time>
        <extensions>
          <ns3:TrackPointExtension>
            <ns3:hr>101</ns3:hr>
            <ns3:cad>0</ns3:cad>
          </ns3:TrackPointExtension>
        </extensions>
      </trkpt>
      <trkpt lat="37.95012901537120342254638671875" lon="-107.10642023943364620208740234375">
        <ele>3949.60009765625</ele>
        <time>2026-01-06T20:20:33.000Z</time>
        <extensions>
          <ns3:TrackPointExtension>
            <ns3:hr>101</ns3:hr>
            <ns3:cad>75</ns3:cad>
          </ns3:TrackPointExtension>
        </extensions>
      </trkpt>
      <trkpt lat="37.9501289315521717071533203125" lon="-107.10642912425100803375244140625">
        <ele>3949.39990234375</ele>
        <time>2026-01-06T20:20:34.000Z</time>
        <extensions>
          <ns3:TrackPointExtension>
            <ns3:hr>100</ns3:hr>
            <ns3:cad>75</ns3:cad>
          </ns3:TrackPointExtension>
        </extensions>
      </trkpt>
      <trkpt lat="37.95011711306869983673095703125" lon="-107.10648595355451107025146484375">
        <ele>3948.39990234375</ele>
        <time>2026-01-06T20:20:40.000Z</time>
        <extensions>
          <ns3:TrackPointExtension>
            <ns3:hr>99</ns3:hr>
            <ns3:cad>65</ns3:cad>
          </ns3:TrackPointExtension>
        </extensions>
      </trkpt>
      <trkpt lat="37.95011510141193866729736328125" lon="-107.106493748724460601806640625">
        <ele>3948.39990234375</ele>
        <time>2026-01-06T20:20:41.000Z</time>
        <extensions>
          <ns3:TrackPointExtension>
            <ns3:hr>98</ns3:hr>
            <ns3:cad>0</ns3:cad>
          </ns3:TrackPointExtension>
        </extensions>
      </trkpt>
      <trkpt lat="37.9500858485698699951171875" lon="-107.10654093883931636810302734375">
        <ele>3947.199951171875</ele>
        <time>2026-01-06T20:20:47.000Z</time>
        <extensions>
          <ns3:TrackPointExtension>
            <ns3:hr>96</ns3:hr>
            <ns3:cad>0</ns3:cad>
          </ns3:TrackPointExtension>
        </extensions>
      </trkpt>
      <trkpt lat="37.95007252134382724761962890625" lon="-107.10660095326602458953857421875">
        <ele>3946</ele>
        <time>2026-01-06T20:20:53.000Z</time>
        <extensions>
          <ns3:TrackPointExtension>
            <ns3:hr>95</ns3:hr>
            <ns3:cad>0</ns3:cad>
          </ns3:TrackPointExtension>
        </extensions>
      </trkpt>
      <trkpt lat="37.950051315128803253173828125" lon="-107.10663850419223308563232421875">
        <ele>3945</ele>
        <time>2026-01-06T20:20:58.000Z</time>
        <extensions>
          <ns3:TrackPointExtension>
            <ns3:hr>94</ns3:hr>
            <ns3:cad>17</ns3:cad>
          </ns3:TrackPointExtension>
        </extensions>
      </trkpt>
      <trkpt lat="37.950046956539154052734375" lon="-107.10665660910308361053466796875">
        <ele>3944.800048828125</ele>
        <time>2026-01-06T20:21:00.000Z</time>
        <extensions>
          <ns3:TrackPointExtension>
            <ns3:hr>94</ns3:hr>
            <ns3:cad>17</ns3:cad>
          </ns3:TrackPointExtension>
        </extensions>
      </trkpt>
      <trkpt lat="37.95003832317888736724853515625" lon="-107.10668611340224742889404296875">
        <ele>3944</ele>
        <time>2026-01-06T20:21:03.000Z</time>
        <extensions>
          <ns3:TrackPointExtension>
            <ns3:hr>94</ns3:hr>
            <ns3:cad>0</ns3:cad>
          </ns3:TrackPointExtension>
        </extensions>
      </trkpt>
      <trkpt lat="37.950029186904430389404296875" lon="-107.10671762935817241668701171875">
        <ele>3942.800048828125</ele>
        <time>2026-01-06T20:21:06.000Z</time>
        <extensions>
          <ns3:TrackPointExtension>
            <ns3:hr>94</ns3:hr>
            <ns3:cad>52</ns3:cad>
          </ns3:TrackPointExtension>
        </extensions>
      </trkpt>
      <trkpt lat="37.95000814832746982574462890625" lon="-107.10678317584097385406494140625">
        <ele>3942</ele>
        <time>2026-01-06T20:21:12.000Z</time>
        <extensions>
          <ns3:TrackPointExtension>
            <ns3:hr>94</ns3:hr>
            <ns3:cad>52</ns3:cad>
          </ns3:TrackPointExtension>
        </extensions>
      </trkpt>
      <trkpt lat="37.95000613667070865631103515625" lon="-107.10678887553513050079345703125">
        <ele>3941.800048828125</ele>
        <time>2026-01-06T20:21:13.000Z</time>
        <extensions>
          <ns3:TrackPointExtension>
            <ns3:hr>94</ns3:hr>
            <ns3:cad>52</ns3:cad>
          </ns3:TrackPointExtension>
        </extensions>
      </trkpt>
      <trkpt lat="37.95000228099524974822998046875" lon="-107.106793485581874847412109375">
        <ele>3941.60009765625</ele>
        <time>2026-01-06T20:21:14.000Z</time>
        <extensions>
          <ns3:TrackPointExtension>
            <ns3:hr>94</ns3:hr>
            <ns3:cad>52</ns3:cad>
          </ns3:TrackPointExtension>
        </extensions>
      </trkpt>
      <trkpt lat="37.9499975033104419708251953125" lon="-107.10679776035249233245849609375">
        <ele>3941.39990234375</ele>
        <time>2026-01-06T20:21:20.000Z</time>
        <extensions>
          <ns3:TrackPointExtension>
            <ns3:hr>96</ns3:hr>
            <ns3:cad>0</ns3:cad>
          </ns3:TrackPointExtension>
        </extensions>
      </trkpt>
      <trkpt lat="37.94999775476753711700439453125" lon="-107.106797508895397186279296875">
        <ele>3941.60009765625</ele>
        <time>2026-01-06T20:21:21.000Z</time>
        <extensions>
          <ns3:TrackPointExtension>
            <ns3:hr>96</ns3:hr>
            <ns3:cad>0</ns3:cad>
          </ns3:TrackPointExtension>
        </extensions>
      </trkpt>
      <trkpt lat="37.95000714249908924102783203125" lon="-107.1068385802209377288818359375">
        <ele>3940.39990234375</ele>
        <time>2026-01-06T20:21:27.000Z</time>
        <extensions>
          <ns3:TrackPointExtension>
            <ns3:hr>97</ns3:hr>
            <ns3:cad>0</ns3:cad>
          </ns3:TrackPointExtension>
        </extensions>
      </trkpt>
      <trkpt lat="37.9500149376690387725830078125" lon="-107.10684671066701412200927734375">
        <ele>3939.199951171875</ele>
        <time>2026-01-06T20:21:28.000Z</time>
        <extensions>
          <ns3:TrackPointExtension>
            <ns3:hr>97</ns3:hr>
            <ns3:cad>0</ns3:cad>
          </ns3:TrackPointExtension>
        </extensions>
      </trkpt>
      <trkpt lat="37.9500209726393222808837890625" lon="-107.10685324855148792266845703125">
        <ele>3937.60009765625</ele>
        <time>2026-01-06T20:21:29.000Z</time>
        <extensions>
          <ns3:TrackPointExtension>
            <ns3:hr>97</ns3:hr>
            <ns3:cad>0</ns3:cad>
          </ns3:TrackPointExtension>
        </extensions>
      </trkpt>
      <trkpt lat="37.95006564818322658538818359375" lon="-107.10688610561192035675048828125">
        <ele>3937.60009765625</ele>
        <time>2026-01-06T20:21:35.000Z</time>
        <extensions>
          <ns3:TrackPointExtension>
            <ns3:hr>98</ns3:hr>
            <ns3:cad>0</ns3:cad>
          </ns3:TrackPointExtension>
        </extensions>
      </trkpt>
      <trkpt lat="37.95009481720626354217529296875" lon="-107.1069368161261081695556640625">
        <ele>3936.800048828125</ele>
        <time>2026-01-06T20:21:41.000Z</time>
        <extensions>
          <ns3:TrackPointExtension>
            <ns3:hr>98</ns3:hr>
            <ns3:cad>49</ns3:cad>
          </ns3:TrackPointExtension>
        </extensions>
      </trkpt>
      <trkpt lat="37.95009632594883441925048828125" lon="-107.10694192908704280853271484375">
        <ele>3936.60009765625</ele>
        <time>2026-01-06T20:21:42.000Z</time>
        <extensions>
          <ns3:TrackPointExtension>
            <ns3:hr>98</ns3:hr>
            <ns3:cad>0</ns3:cad>
          </ns3:TrackPointExtension>
        </extensions>
      </trkpt>
      <trkpt lat="37.95009993016719818115234375" lon="-107.10695299319922924041748046875">
        <ele>3936.60009765625</ele>
        <time>2026-01-06T20:21:43.000Z</time>
        <extensions>
          <ns3:TrackPointExtension>
            <ns3:hr>98</ns3:hr>
            <ns3:cad>0</ns3:cad>
          </ns3:TrackPointExtension>
        </extensions>
      </trkpt>
      <trkpt lat="37.95010554604232311248779296875" lon="-107.10698752664029598236083984375">
        <ele>3936.60009765625</ele>
        <time>2026-01-06T20:21:47.000Z</time>
        <extensions>
          <ns3:TrackPointExtension>
            <ns3:hr>99</ns3:hr>
            <ns3:cad>70</ns3:cad>
          </ns3:TrackPointExtension>
        </extensions>
      </trkpt>
      <trkpt lat="37.9501014389097690582275390625" lon="-107.10701887495815753936767578125">
        <ele>3937</ele>
        <time>2026-01-06T20:21:53.000Z</time>
        <extensions>
          <ns3:TrackPointExtension>
            <ns3:hr>101</ns3:hr>
            <ns3:cad>0</ns3:cad>
          </ns3:TrackPointExtension>
        </extensions>
      </trkpt>
      <trkpt lat="37.95010018162429332733154296875" lon="-107.10702356882393360137939453125">
        <ele>3936.800048828125</ele>
        <time>2026-01-06T20:21:54.000Z</time>
        <extensions>
          <ns3:TrackPointExtension>
            <ns3:hr>101</ns3:hr>
            <ns3:cad>0</ns3:cad>
          </ns3:TrackPointExtension>
        </extensions>
      </trkpt>
      <trkpt lat="37.95010068453848361968994140625" lon="-107.1070337109267711639404296875">
        <ele>3935.39990234375</ele>
        <time>2026-01-06T20:21:57.000Z</time>
        <extensions>
          <ns3:TrackPointExtension>
            <ns3:hr>101</ns3:hr>
            <ns3:cad>47</ns3:cad>
          </ns3:TrackPointExtension>
        </extensions>
      </trkpt>
      <trkpt lat="37.95009163208305835723876953125" lon="-107.1070457808673381805419921875">
        <ele>3935</ele>
        <time>2026-01-06T20:22:00.000Z</time>
        <extensions>
          <ns3:TrackPointExtension>
            <ns3:hr>101</ns3:hr>
            <ns3:cad>0</ns3:cad>
          </ns3:TrackPointExtension>
        </extensions>
      </trkpt>
      <trkpt lat="37.95008710585534572601318359375" lon="-107.10706447251141071319580078125">
        <ele>3934.60009765625</ele>
        <time>2026-01-06T20:22:06.000Z</time>
        <extensions>
          <ns3:TrackPointExtension>
            <ns3:hr>103</ns3:hr>
            <ns3:cad>0</ns3:cad>
          </ns3:TrackPointExtension>
        </extensions>
      </trkpt>
      <trkpt lat="37.95008643530309200286865234375" lon="-107.10706916637718677520751953125">
        <ele>3934.39990234375</ele>
        <time>2026-01-06T20:22:07.000Z</time>
        <extensions>
          <ns3:TrackPointExtension>
            <ns3:hr>103</ns3:hr>
            <ns3:cad>0</ns3:cad>
          </ns3:TrackPointExtension>
        </extensions>
      </trkpt>
      <trkpt lat="37.95008643530309200286865234375" lon="-107.1070714294910430908203125">
        <ele>3934.39990234375</ele>
        <time>2026-01-06T20:22:08.000Z</time>
        <extensions>
          <ns3:TrackPointExtension>
            <ns3:hr>104</ns3:hr>
            <ns3:cad>0</ns3:cad>
          </ns3:TrackPointExtension>
        </extensions>
      </trkpt>
      <trkpt lat="37.9500831663608551025390625" lon="-107.107083164155483245849609375">
        <ele>3933.60009765625</ele>
        <time>2026-01-06T20:22:14.000Z</time>
        <extensions>
          <ns3:TrackPointExtension>
            <ns3:hr>107</ns3:hr>
            <ns3:cad>0</ns3:cad>
          </ns3:TrackPointExtension>
        </extensions>
      </trkpt>
      <trkpt lat="37.95008643530309200286865234375" lon="-107.1070714294910430908203125">
        <ele>3933.199951171875</ele>
        <time>2026-01-06T20:22:16.000Z</time>
        <extensions>
          <ns3:TrackPointExtension>
            <ns3:hr>107</ns3:hr>
            <ns3:cad>0</ns3:cad>
          </ns3:TrackPointExtension>
        </extensions>
      </trkpt>
      <trkpt lat="37.95008643530309200286865234375" lon="-107.1070714294910430908203125">
        <ele>3933</ele>
        <time>2026-01-06T20:22:21.000Z</time>
        <extensions>
          <ns3:TrackPointExtension>
            <ns3:hr>104</ns3:hr>
            <ns3:cad>0</ns3:cad>
          </ns3:TrackPointExtension>
        </extensions>
      </trkpt>
      <trkpt lat="37.95008383691310882568359375" lon="-107.10711392574012279510498046875">
        <ele>3933.199951171875</ele>
        <time>2026-01-06T20:22:26.000Z</time>
        <extensions>
          <ns3:TrackPointExtension>
            <ns3:hr>101</ns3:hr>
            <ns3:cad>0</ns3:cad>
          </ns3:TrackPointExtension>
        </extensions>
      </trkpt>
      <trkpt lat="37.9500858485698699951171875" lon="-107.10713244974613189697265625">
        <ele>3932.800048828125</ele>
        <time>2026-01-06T20:22:28.000Z</time>
        <extensions>
          <ns3:TrackPointExtension>
            <ns3:hr>98</ns3:hr>
            <ns3:cad>0</ns3:cad>
          </ns3:TrackPointExtension>
        </extensions>
      </trkpt>
      <trkpt lat="37.9500876925885677337646484375" lon="-107.10713773034512996673583984375">
        <ele>3932.60009765625</ele>
        <time>2026-01-06T20:22:29.000Z</time>
        <extensions>
          <ns3:TrackPointExtension>
            <ns3:hr>99</ns3:hr>
            <ns3:cad>0</ns3:cad>
          </ns3:TrackPointExtension>
        </extensions>
      </trkpt>
      <trkpt lat="37.95009112916886806488037109375" lon="-107.1071567572653293609619140625">
        <ele>3932</ele>
        <time>2026-01-06T20:22:32.000Z</time>
        <extensions>
          <ns3:TrackPointExtension>
            <ns3:hr>101</ns3:hr>
            <ns3:cad>0</ns3:cad>
          </ns3:TrackPointExtension>
        </extensions>
      </trkpt>
      <trkpt lat="37.95010571368038654327392578125" lon="-107.1071892790496349334716796875">
        <ele>3930.800048828125</ele>
        <time>2026-01-06T20:22:36.000Z</time>
        <extensions>
          <ns3:TrackPointExtension>
            <ns3:hr>103</ns3:hr>
            <ns3:cad>0</ns3:cad>
          </ns3:TrackPointExtension>
        </extensions>
      </trkpt>
      <trkpt lat="37.95010772533714771270751953125" lon="-107.10719556547701358795166015625">
        <ele>3930.60009765625</ele>
        <time>2026-01-06T20:22:37.000Z</time>
        <extensions>
          <ns3:TrackPointExtension>
            <ns3:hr>104</ns3:hr>
            <ns3:cad>0</ns3:cad>
          </ns3:TrackPointExtension>
        </extensions>
      </trkpt>
      <trkpt lat="37.95011426322162151336669921875" lon="-107.107219956815242767333984375">
        <ele>3929.800048828125</ele>
        <time>2026-01-06T20:22:40.000Z</time>
        <extensions>
          <ns3:TrackPointExtension>
            <ns3:hr>106</ns3:hr>
            <ns3:cad>0</ns3:cad>
          </ns3:TrackPointExtension>
        </extensions>
      </trkpt>
      <trkpt lat="37.9501262493431568145751953125" lon="-107.10725775919854640960693359375">
        <ele>3930.199951171875</ele>
        <time>2026-01-06T20:22:44.000Z</time>
        <extensions>
          <ns3:TrackPointExtension>
            <ns3:hr>104</ns3:hr>
            <ns3:cad>0</ns3:cad>
          </ns3:TrackPointExtension>
        </extensions>
      </trkpt>
      <trkpt lat="37.9501389898359775543212890625" lon="-107.10728893987834453582763671875">
        <ele>3929.60009765625</ele>
        <time>2026-01-06T20:22:50.000Z</time>
        <extensions>
          <ns3:TrackPointExtension>
            <ns3:hr>104</ns3:hr>
            <ns3:cad>0</ns3:cad>
          </ns3:TrackPointExtension>
        </extensions>
      </trkpt>
      <trkpt lat="37.9501393251121044158935546875" lon="-107.10730134509503841400146484375">
        <ele>3929.199951171875</ele>
        <time>2026-01-06T20:22:52.000Z</time>
        <extensions>
          <ns3:TrackPointExtension>
            <ns3:hr>105</ns3:hr>
            <ns3:cad>0</ns3:cad>
          </ns3:TrackPointExtension>
        </extensions>
      </trkpt>
      <trkpt lat="37.95013706199824810028076171875" lon="-107.107349373400211334228515625">
        <ele>3928.60009765625</ele>
        <time>2026-01-06T20:22:58.000Z</time>
        <extensions>
          <ns3:TrackPointExtension>
            <ns3:hr>104</ns3:hr>
            <ns3:cad>0</ns3:cad>
          </ns3:TrackPointExtension>
        </extensions>
      </trkpt>
      <trkpt lat="37.95013488270342350006103515625" lon="-107.107380889356136322021484375">
        <ele>3927.60009765625</ele>
        <time>2026-01-06T20:23:02.000Z</time>
        <extensions>
          <ns3:TrackPointExtension>
            <ns3:hr>104</ns3:hr>
            <ns3:cad>0</ns3:cad>
          </ns3:TrackPointExtension>
        </extensions>
      </trkpt>
      <trkpt lat="37.950132787227630615234375" lon="-107.107400000095367431640625">
        <ele>3926.800048828125</ele>
        <time>2026-01-06T20:23:04.000Z</time>
        <extensions>
          <ns3:TrackPointExtension>
            <ns3:hr>104</ns3:hr>
            <ns3:cad>0</ns3:cad>
          </ns3:TrackPointExtension>
        </extensions>
      </trkpt>
      <trkpt lat="37.95013538561761379241943359375" lon="-107.107412405312061309814453125">
        <ele>3926.199951171875</ele>
        <time>2026-01-06T20:23:06.000Z</time>
        <extensions>
          <ns3:TrackPointExtension>
            <ns3:hr>104</ns3:hr>
            <ns3:cad>0</ns3:cad>
          </ns3:TrackPointExtension>
        </extensions>
      </trkpt>
      <trkpt lat="37.9501366429030895233154296875" lon="-107.10745406337082386016845703125">
        <ele>3925.199951171875</ele>
        <time>2026-01-06T20:23:10.000Z</time>
        <extensions>
          <ns3:TrackPointExtension>
            <ns3:hr>103</ns3:hr>
            <ns3:cad>0</ns3:cad>
          </ns3:TrackPointExtension>
        </extensions>
      </trkpt>
      <trkpt lat="37.95013706199824810028076171875" lon="-107.10746638476848602294921875">
        <ele>3925</ele>
        <time>2026-01-06T20:23:11.000Z</time>
        <extensions>
          <ns3:TrackPointExtension>
            <ns3:hr>103</ns3:hr>
            <ns3:cad>0</ns3:cad>
          </ns3:TrackPointExtension>
        </extensions>
      </trkpt>
      <trkpt lat="37.9501369781792163848876953125" lon="-107.107487507164478302001953125">
        <ele>3924</ele>
        <time>2026-01-06T20:23:15.000Z</time>
        <extensions>
          <ns3:TrackPointExtension>
            <ns3:hr>103</ns3:hr>
            <ns3:cad>0</ns3:cad>
          </ns3:TrackPointExtension>
        </extensions>
      </trkpt>
      <trkpt lat="37.9501403309404850006103515625" lon="-107.10748247802257537841796875">
        <ele>3923.60009765625</ele>
        <time>2026-01-06T20:23:16.000Z</time>
        <extensions>
          <ns3:TrackPointExtension>
            <ns3:hr>103</ns3:hr>
            <ns3:cad>0</ns3:cad>
          </ns3:TrackPointExtension>
        </extensions>
      </trkpt>
      <trkpt lat="37.95013387687504291534423828125" lon="-107.10748725570738315582275390625">
        <ele>3923</ele>
        <time>2026-01-06T20:23:20.000Z</time>
        <extensions>
          <ns3:TrackPointExtension>
            <ns3:hr>99</ns3:hr>
            <ns3:cad>0</ns3:cad>
          </ns3:TrackPointExtension>
        </extensions>
      </trkpt>
      <trkpt lat="37.95013756491243839263916015625" lon="-107.10749278776347637176513671875">
        <ele>3923</ele>
        <time>2026-01-06T20:23:22.000Z</time>
        <extensions>
          <ns3:TrackPointExtension>
            <ns3:hr>95</ns3:hr>
            <ns3:cad>0</ns3:cad>
          </ns3:TrackPointExtension>
        </extensions>
      </trkpt>
      <trkpt lat="37.95013806782662868499755859375" lon="-107.10749262012541294097900390625">
        <ele>3923.800048828125</ele>
        <time>2026-01-06T20:23:28.000Z</time>
        <extensions>
          <ns3:TrackPointExtension>
            <ns3:hr>93</ns3:hr>
            <ns3:cad>0</ns3:cad>
          </ns3:TrackPointExtension>
        </extensions>
      </trkpt>
      <trkpt lat="37.95013806782662868499755859375" lon="-107.10749262012541294097900390625">
        <ele>3923.800048828125</ele>
        <time>2026-01-06T20:23:34.000Z</time>
        <extensions>
          <ns3:TrackPointExtension>
            <ns3:hr>95</ns3:hr>
            <ns3:cad>0</ns3:cad>
          </ns3:TrackPointExtension>
        </extensions>
      </trkpt>
      <trkpt lat="37.95013806782662868499755859375" lon="-107.10749262012541294097900390625">
        <ele>3923.199951171875</ele>
        <time>2026-01-06T20:23:36.000Z</time>
        <extensions>
          <ns3:TrackPointExtension>
            <ns3:hr>95</ns3:hr>
            <ns3:cad>0</ns3:cad>
          </ns3:TrackPointExtension>
        </extensions>
      </trkpt>
      <trkpt lat="37.95013806782662868499755859375" lon="-107.10749262012541294097900390625">
        <ele>3922.39990234375</ele>
        <time>2026-01-06T20:23:39.000Z</time>
        <extensions>
          <ns3:TrackPointExtension>
            <ns3:hr>95</ns3:hr>
            <ns3:cad>0</ns3:cad>
          </ns3:TrackPointExtension>
        </extensions>
      </trkpt>
      <trkpt lat="37.95013806782662868499755859375" lon="-107.10749262012541294097900390625">
        <ele>3924</ele>
        <time>2026-01-06T20:23:40.000Z</time>
        <extensions>
          <ns3:TrackPointExtension>
            <ns3:hr>95</ns3:hr>
            <ns3:cad>0</ns3:cad>
          </ns3:TrackPointExtension>
        </extensions>
      </trkpt>
      <trkpt lat="37.95013806782662868499755859375" lon="-107.10749262012541294097900390625">
        <ele>3925</ele>
        <time>2026-01-06T20:23:41.000Z</time>
        <extensions>
          <ns3:TrackPointExtension>
            <ns3:hr>95</ns3:hr>
            <ns3:cad>0</ns3:cad>
          </ns3:TrackPointExtension>
        </extensions>
      </trkpt>
      <trkpt lat="37.95013806782662868499755859375" lon="-107.10749262012541294097900390625">
        <ele>3925.199951171875</ele>
        <time>2026-01-06T20:23:44.000Z</time>
        <extensions>
          <ns3:TrackPointExtension>
            <ns3:hr>95</ns3:hr>
            <ns3:cad>0</ns3:cad>
          </ns3:TrackPointExtension>
        </extensions>
      </trkpt>
      <trkpt lat="37.950137816369533538818359375" lon="-107.10748842917382717132568359375">
        <ele>3925.60009765625</ele>
        <time>2026-01-06T20:23:50.000Z</time>
        <extensions>
          <ns3:TrackPointExtension>
            <ns3:hr>96</ns3:hr>
            <ns3:cad>0</ns3:cad>
          </ns3:TrackPointExtension>
        </extensions>
      </trkpt>
      <trkpt lat="37.95013806782662868499755859375" lon="-107.10749262012541294097900390625">
        <ele>3925.800048828125</ele>
        <time>2026-01-06T20:23:53.000Z</time>
        <extensions>
          <ns3:TrackPointExtension>
            <ns3:hr>98</ns3:hr>
            <ns3:cad>0</ns3:cad>
          </ns3:TrackPointExtension>
        </extensions>
      </trkpt>
      <trkpt lat="37.95013521797955036163330078125" lon="-107.1074853278696537017822265625">
        <ele>3926</ele>
        <time>2026-01-06T20:23:59.000Z</time>
        <extensions>
          <ns3:TrackPointExtension>
            <ns3:hr>99</ns3:hr>
            <ns3:cad>0</ns3:cad>
          </ns3:TrackPointExtension>
        </extensions>
      </trkpt>
      <trkpt lat="37.95013806782662868499755859375" lon="-107.10749262012541294097900390625">
        <ele>3926</ele>
        <time>2026-01-06T20:24:02.000Z</time>
        <extensions>
          <ns3:TrackPointExtension>
            <ns3:hr>99</ns3:hr>
            <ns3:cad>0</ns3:cad>
          </ns3:TrackPointExtension>
        </extensions>
      </trkpt>
      <trkpt lat="37.95013806782662868499755859375" lon="-107.10749262012541294097900390625">
        <ele>3926.199951171875</ele>
        <time>2026-01-06T20:24:03.000Z</time>
        <extensions>
          <ns3:TrackPointExtension>
            <ns3:hr>99</ns3:hr>
            <ns3:cad>0</ns3:cad>
          </ns3:TrackPointExtension>
        </extensions>
      </trkpt>
      <trkpt lat="37.95013806782662868499755859375" lon="-107.10749262012541294097900390625">
        <ele>3927.199951171875</ele>
        <time>2026-01-06T20:24:06.000Z</time>
        <extensions>
          <ns3:TrackPointExtension>
            <ns3:hr>98</ns3:hr>
            <ns3:cad>0</ns3:cad>
          </ns3:TrackPointExtension>
        </extensions>
      </trkpt>
      <trkpt lat="37.95013806782662868499755859375" lon="-107.10749262012541294097900390625">
        <ele>3926</ele>
        <time>2026-01-06T20:24:12.000Z</time>
        <extensions>
          <ns3:TrackPointExtension>
            <ns3:hr>96</ns3:hr>
            <ns3:cad>0</ns3:cad>
          </ns3:TrackPointExtension>
        </extensions>
      </trkpt>
      <trkpt lat="37.95013806782662868499755859375" lon="-107.10749262012541294097900390625">
        <ele>3926.199951171875</ele>
        <time>2026-01-06T20:24:18.000Z</time>
        <extensions>
          <ns3:TrackPointExtension>
            <ns3:hr>97</ns3:hr>
            <ns3:cad>0</ns3:cad>
          </ns3:TrackPointExtension>
        </extensions>
      </trkpt>
      <trkpt lat="37.95013806782662868499755859375" lon="-107.10749262012541294097900390625">
        <ele>3926</ele>
        <time>2026-01-06T20:24:21.000Z</time>
        <extensions>
          <ns3:TrackPointExtension>
            <ns3:hr>97</ns3:hr>
            <ns3:cad>0</ns3:cad>
          </ns3:TrackPointExtension>
        </extensions>
      </trkpt>
      <trkpt lat="37.95013806782662868499755859375" lon="-107.10749262012541294097900390625">
        <ele>3924.800048828125</ele>
        <time>2026-01-06T20:24:25.000Z</time>
        <extensions>
          <ns3:TrackPointExtension>
            <ns3:hr>96</ns3:hr>
            <ns3:cad>0</ns3:cad>
          </ns3:TrackPointExtension>
        </extensions>
      </trkpt>
      <trkpt lat="37.95013806782662868499755859375" lon="-107.10749262012541294097900390625">
        <ele>3923.800048828125</ele>
        <time>2026-01-06T20:24:28.000Z</time>
        <extensions>
          <ns3:TrackPointExtension>
            <ns3:hr>95</ns3:hr>
            <ns3:cad>0</ns3:cad>
          </ns3:TrackPointExtension>
        </extensions>
      </trkpt>
      <trkpt lat="37.950132787227630615234375" lon="-107.10748172365128993988037109375">
        <ele>3924.39990234375</ele>
        <time>2026-01-06T20:24:29.000Z</time>
        <extensions>
          <ns3:TrackPointExtension>
            <ns3:hr>95</ns3:hr>
            <ns3:cad>0</ns3:cad>
          </ns3:TrackPointExtension>
        </extensions>
      </trkpt>
      <trkpt lat="37.9501282609999179840087890625" lon="-107.1074776165187358856201171875">
        <ele>3926.39990234375</ele>
        <time>2026-01-06T20:24:32.000Z</time>
        <extensions>
          <ns3:TrackPointExtension>
            <ns3:hr>94</ns3:hr>
            <ns3:cad>0</ns3:cad>
          </ns3:TrackPointExtension>
        </extensions>
      </trkpt>
      <trkpt lat="37.9501282609999179840087890625" lon="-107.1074776165187358856201171875">
        <ele>3927.800048828125</ele>
        <time>2026-01-06T20:24:33.000Z</time>
        <extensions>
          <ns3:TrackPointExtension>
            <ns3:hr>94</ns3:hr>
            <ns3:cad>0</ns3:cad>
          </ns3:TrackPointExtension>
        </extensions>
      </trkpt>
      <trkpt lat="37.95012817718088626861572265625" lon="-107.1074779517948627471923828125">
        <ele>3927.800048828125</ele>
        <time>2026-01-06T20:24:36.000Z</time>
        <extensions>
          <ns3:TrackPointExtension>
            <ns3:hr>93</ns3:hr>
            <ns3:cad>0</ns3:cad>
          </ns3:TrackPointExtension>
        </extensions>
      </trkpt>
      <trkpt lat="37.95012666843831539154052734375" lon="-107.10748574696481227874755859375">
        <ele>3926.39990234375</ele>
        <time>2026-01-06T20:24:40.000Z</time>
        <extensions>
          <ns3:TrackPointExtension>
            <ns3:hr>94</ns3:hr>
            <ns3:cad>0</ns3:cad>
          </ns3:TrackPointExtension>
        </extensions>
      </trkpt>
      <trkpt lat="37.950122393667697906494140625" lon="-107.1074927039444446563720703125">
        <ele>3925.199951171875</ele>
        <time>2026-01-06T20:24:42.000Z</time>
        <extensions>
          <ns3:TrackPointExtension>
            <ns3:hr>93</ns3:hr>
            <ns3:cad>0</ns3:cad>
          </ns3:TrackPointExtension>
        </extensions>
      </trkpt>
      <trkpt lat="37.95012448914349079132080078125" lon="-107.1074923686683177947998046875">
        <ele>3923.800048828125</ele>
        <time>2026-01-06T20:24:44.000Z</time>
        <extensions>
          <ns3:TrackPointExtension>
            <ns3:hr>93</ns3:hr>
            <ns3:cad>0</ns3:cad>
          </ns3:TrackPointExtension>
        </extensions>
      </trkpt>
      <trkpt lat="37.9501436837017536163330078125" lon="-107.1074816398322582244873046875">
        <ele>3924.39990234375</ele>
        <time>2026-01-06T20:24:50.000Z</time>
        <extensions>
          <ns3:TrackPointExtension>
            <ns3:hr>94</ns3:hr>
            <ns3:cad>0</ns3:cad>
          </ns3:TrackPointExtension>
        </extensions>
      </trkpt>
      <trkpt lat="37.9501436837017536163330078125" lon="-107.1074816398322582244873046875">
        <ele>3925.39990234375</ele>
        <time>2026-01-06T20:24:51.000Z</time>
        <extensions>
          <ns3:TrackPointExtension>
            <ns3:hr>94</ns3:hr>
            <ns3:cad>0</ns3:cad>
          </ns3:TrackPointExtension>
        </extensions>
      </trkpt>
      <trkpt lat="37.9501436837017536163330078125" lon="-107.1074816398322582244873046875">
        <ele>3926.60009765625</ele>
        <time>2026-01-06T20:24:54.000Z</time>
        <extensions>
          <ns3:TrackPointExtension>
            <ns3:hr>94</ns3:hr>
            <ns3:cad>0</ns3:cad>
          </ns3:TrackPointExtension>
        </extensions>
      </trkpt>
      <trkpt lat="37.9501436837017536163330078125" lon="-107.1074816398322582244873046875">
        <ele>3924.800048828125</ele>
        <time>2026-01-06T20:25:00.000Z</time>
        <extensions>
          <ns3:TrackPointExtension>
            <ns3:hr>94</ns3:hr>
            <ns3:cad>0</ns3:cad>
          </ns3:TrackPointExtension>
        </extensions>
      </trkpt>
      <trkpt lat="37.9501436837017536163330078125" lon="-107.1074816398322582244873046875">
        <ele>3924.199951171875</ele>
        <time>2026-01-06T20:25:02.000Z</time>
        <extensions>
          <ns3:TrackPointExtension>
            <ns3:hr>95</ns3:hr>
            <ns3:cad>0</ns3:cad>
          </ns3:TrackPointExtension>
        </extensions>
      </trkpt>
      <trkpt lat="37.9501436837017536163330078125" lon="-107.1074816398322582244873046875">
        <ele>3925.199951171875</ele>
        <time>2026-01-06T20:25:05.000Z</time>
        <extensions>
          <ns3:TrackPointExtension>
            <ns3:hr>98</ns3:hr>
            <ns3:cad>0</ns3:cad>
          </ns3:TrackPointExtension>
        </extensions>
      </trkpt>
      <trkpt lat="37.9501436837017536163330078125" lon="-107.1074816398322582244873046875">
        <ele>3926.199951171875</ele>
        <time>2026-01-06T20:25:06.000Z</time>
        <extensions>
          <ns3:TrackPointExtension>
            <ns3:hr>101</ns3:hr>
            <ns3:cad>0</ns3:cad>
          </ns3:TrackPointExtension>
        </extensions>
      </trkpt>
      <trkpt lat="37.9501436837017536163330078125" lon="-107.1074816398322582244873046875">
        <ele>3927</ele>
        <time>2026-01-06T20:25:09.000Z</time>
        <extensions>
          <ns3:TrackPointExtension>
            <ns3:hr>104</ns3:hr>
            <ns3:cad>0</ns3:cad>
          </ns3:TrackPointExtension>
        </extensions>
      </trkpt>
      <trkpt lat="37.9501436837017536163330078125" lon="-107.1074816398322582244873046875">
        <ele>3927.199951171875</ele>
        <time>2026-01-06T20:25:10.000Z</time>
        <extensions>
          <ns3:TrackPointExtension>
            <ns3:hr>104</ns3:hr>
            <ns3:cad>0</ns3:cad>
          </ns3:TrackPointExtension>
        </extensions>
      </trkpt>
      <trkpt lat="37.9501436837017536163330078125" lon="-107.1074816398322582244873046875">
        <ele>3927</ele>
        <time>2026-01-06T20:25:13.000Z</time>
        <extensions>
          <ns3:TrackPointExtension>
            <ns3:hr>104</ns3:hr>
            <ns3:cad>0</ns3:cad>
          </ns3:TrackPointExtension>
        </extensions>
      </trkpt>
      <trkpt lat="37.9501436837017536163330078125" lon="-107.1074816398322582244873046875">
        <ele>3926</ele>
        <time>2026-01-06T20:25:19.000Z</time>
        <extensions>
          <ns3:TrackPointExtension>
            <ns3:hr>104</ns3:hr>
            <ns3:cad>0</ns3:cad>
          </ns3:TrackPointExtension>
        </extensions>
      </trkpt>
      <trkpt lat="37.9501436837017536163330078125" lon="-107.1074816398322582244873046875">
        <ele>3926.39990234375</ele>
        <time>2026-01-06T20:25:25.000Z</time>
        <extensions>
          <ns3:TrackPointExtension>
            <ns3:hr>103</ns3:hr>
            <ns3:cad>0</ns3:cad>
          </ns3:TrackPointExtension>
        </extensions>
      </trkpt>
      <trkpt lat="37.9501436837017536163330078125" lon="-107.1074816398322582244873046875">
        <ele>3928</ele>
        <time>2026-01-06T20:25:26.000Z</time>
        <extensions>
          <ns3:TrackPointExtension>
            <ns3:hr>102</ns3:hr>
            <ns3:cad>0</ns3:cad>
          </ns3:TrackPointExtension>
        </extensions>
      </trkpt>
      <trkpt lat="37.9501436837017536163330078125" lon="-107.1074816398322582244873046875">
        <ele>3926.39990234375</ele>
        <time>2026-01-06T20:25:32.000Z</time>
        <extensions>
          <ns3:TrackPointExtension>
            <ns3:hr>102</ns3:hr>
            <ns3:cad>0</ns3:cad>
          </ns3:TrackPointExtension>
        </extensions>
      </trkpt>
      <trkpt lat="37.9501436837017536163330078125" lon="-107.1074816398322582244873046875">
        <ele>3925.800048828125</ele>
        <time>2026-01-06T20:25:34.000Z</time>
        <extensions>
          <ns3:TrackPointExtension>
            <ns3:hr>101</ns3:hr>
            <ns3:cad>0</ns3:cad>
          </ns3:TrackPointExtension>
        </extensions>
      </trkpt>
      <trkpt lat="37.9501436837017536163330078125" lon="-107.1074816398322582244873046875">
        <ele>3924.800048828125</ele>
        <time>2026-01-06T20:25:38.000Z</time>
        <extensions>
          <ns3:TrackPointExtension>
            <ns3:hr>103</ns3:hr>
            <ns3:cad>0</ns3:cad>
          </ns3:TrackPointExtension>
        </extensions>
      </trkpt>
      <trkpt lat="37.9501436837017536163330078125" lon="-107.1074816398322582244873046875">
        <ele>3925.60009765625</ele>
        <time>2026-01-06T20:25:44.000Z</time>
        <extensions>
          <ns3:TrackPointExtension>
            <ns3:hr>105</ns3:hr>
            <ns3:cad>0</ns3:cad>
          </ns3:TrackPointExtension>
        </extensions>
      </trkpt>
      <trkpt lat="37.9501436837017536163330078125" lon="-107.1074816398322582244873046875">
        <ele>3925</ele>
        <time>2026-01-06T20:25:45.000Z</time>
        <extensions>
          <ns3:TrackPointExtension>
            <ns3:hr>105</ns3:hr>
            <ns3:cad>0</ns3:cad>
          </ns3:TrackPointExtension>
        </extensions>
      </trkpt>
      <trkpt lat="37.9501436837017536163330078125" lon="-107.1074816398322582244873046875">
        <ele>3924.199951171875</ele>
        <time>2026-01-06T20:25:47.000Z</time>
        <extensions>
          <ns3:TrackPointExtension>
            <ns3:hr>104</ns3:hr>
            <ns3:cad>0</ns3:cad>
          </ns3:TrackPointExtension>
        </extensions>
      </trkpt>
      <trkpt lat="37.9501436837017536163330078125" lon="-107.1074816398322582244873046875">
        <ele>3923.199951171875</ele>
        <time>2026-01-06T20:25:50.000Z</time>
        <extensions>
          <ns3:TrackPointExtension>
            <ns3:hr>102</ns3:hr>
            <ns3:cad>0</ns3:cad>
          </ns3:TrackPointExtension>
        </extensions>
      </trkpt>
      <trkpt lat="37.9501436837017536163330078125" lon="-107.1074816398322582244873046875">
        <ele>3923.199951171875</ele>
        <time>2026-01-06T20:25:51.000Z</time>
        <extensions>
          <ns3:TrackPointExtension>
            <ns3:hr>101</ns3:hr>
            <ns3:cad>0</ns3:cad>
          </ns3:TrackPointExtension>
        </extensions>
      </trkpt>
      <trkpt lat="37.9501529037952423095703125" lon="-107.10749396122992038726806640625">
        <ele>3925.39990234375</ele>
        <time>2026-01-06T20:25:57.000Z</time>
        <extensions>
          <ns3:TrackPointExtension>
            <ns3:hr>99</ns3:hr>
            <ns3:cad>0</ns3:cad>
          </ns3:TrackPointExtension>
        </extensions>
      </trkpt>
      <trkpt lat="37.9501529037952423095703125" lon="-107.10749396122992038726806640625">
        <ele>3927</ele>
        <time>2026-01-06T20:25:59.000Z</time>
        <extensions>
          <ns3:TrackPointExtension>
            <ns3:hr>98</ns3:hr>
            <ns3:cad>0</ns3:cad>
          </ns3:TrackPointExtension>
        </extensions>
      </trkpt>
      <trkpt lat="37.9501529037952423095703125" lon="-107.10749396122992038726806640625">
        <ele>3925.60009765625</ele>
        <time>2026-01-06T20:26:03.000Z</time>
        <extensions>
          <ns3:TrackPointExtension>
            <ns3:hr>97</ns3:hr>
            <ns3:cad>0</ns3:cad>
          </ns3:TrackPointExtension>
        </extensions>
      </trkpt>
      <trkpt lat="37.9501529037952423095703125" lon="-107.10749396122992038726806640625">
        <ele>3925</ele>
        <time>2026-01-06T20:26:08.000Z</time>
        <extensions>
          <ns3:TrackPointExtension>
            <ns3:hr>97</ns3:hr>
            <ns3:cad>0</ns3:cad>
          </ns3:TrackPointExtension>
        </extensions>
      </trkpt>
      <trkpt lat="37.95014913193881511688232421875" lon="-107.107500918209552764892578125">
        <ele>3926.800048828125</ele>
        <time>2026-01-06T20:26:13.000Z</time>
        <extensions>
          <ns3:TrackPointExtension>
            <ns3:hr>97</ns3:hr>
            <ns3:cad>0</ns3:cad>
          </ns3:TrackPointExtension>
        </extensions>
      </trkpt>
      <trkpt lat="37.9501529037952423095703125" lon="-107.10749396122992038726806640625">
        <ele>3928.199951171875</ele>
        <time>2026-01-06T20:26:15.000Z</time>
        <extensions>
          <ns3:TrackPointExtension>
            <ns3:hr>97</ns3:hr>
            <ns3:cad>0</ns3:cad>
          </ns3:TrackPointExtension>
        </extensions>
      </trkpt>
      <trkpt lat="37.9501529037952423095703125" lon="-107.10749396122992038726806640625">
        <ele>3928</ele>
        <time>2026-01-06T20:26:21.000Z</time>
        <extensions>
          <ns3:TrackPointExtension>
            <ns3:hr>97</ns3:hr>
            <ns3:cad>0</ns3:cad>
          </ns3:TrackPointExtension>
        </extensions>
      </trkpt>
      <trkpt lat="37.9501529037952423095703125" lon="-107.10749396122992038726806640625">
        <ele>3927.60009765625</ele>
        <time>2026-01-06T20:26:27.000Z</time>
        <extensions>
          <ns3:TrackPointExtension>
            <ns3:hr>99</ns3:hr>
            <ns3:cad>0</ns3:cad>
          </ns3:TrackPointExtension>
        </extensions>
      </trkpt>
      <trkpt lat="37.9501529037952423095703125" lon="-107.10749396122992038726806640625">
        <ele>3927.800048828125</ele>
        <time>2026-01-06T20:26:29.000Z</time>
        <extensions>
          <ns3:TrackPointExtension>
            <ns3:hr>100</ns3:hr>
            <ns3:cad>0</ns3:cad>
          </ns3:TrackPointExtension>
        </extensions>
      </trkpt>
      <trkpt lat="37.9501529037952423095703125" lon="-107.10749396122992038726806640625">
        <ele>3928.199951171875</ele>
        <time>2026-01-06T20:26:33.000Z</time>
        <extensions>
          <ns3:TrackPointExtension>
            <ns3:hr>97</ns3:hr>
            <ns3:cad>0</ns3:cad>
          </ns3:TrackPointExtension>
        </extensions>
      </trkpt>
      <trkpt lat="37.9501529037952423095703125" lon="-107.10749396122992038726806640625">
        <ele>3928</ele>
        <time>2026-01-06T20:26:34.000Z</time>
        <extensions>
          <ns3:TrackPointExtension>
            <ns3:hr>93</ns3:hr>
            <ns3:cad>0</ns3:cad>
          </ns3:TrackPointExtension>
        </extensions>
      </trkpt>
      <trkpt lat="37.9501529037952423095703125" lon="-107.10749396122992038726806640625">
        <ele>3927.800048828125</ele>
        <time>2026-01-06T20:26:35.000Z</time>
        <extensions>
          <ns3:TrackPointExtension>
            <ns3:hr>89</ns3:hr>
            <ns3:cad>0</ns3:cad>
          </ns3:TrackPointExtension>
        </extensions>
      </trkpt>
      <trkpt lat="37.9501529037952423095703125" lon="-107.10749396122992038726806640625">
        <ele>3927.60009765625</ele>
        <time>2026-01-06T20:26:36.000Z</time>
        <extensions>
          <ns3:TrackPointExtension>
            <ns3:hr>89</ns3:hr>
            <ns3:cad>0</ns3:cad>
          </ns3:TrackPointExtension>
        </extensions>
      </trkpt>
      <trkpt lat="37.9501529037952423095703125" lon="-107.10749396122992038726806640625">
        <ele>3927</ele>
        <time>2026-01-06T20:26:37.000Z</time>
        <extensions>
          <ns3:TrackPointExtension>
            <ns3:hr>89</ns3:hr>
            <ns3:cad>0</ns3:cad>
          </ns3:TrackPointExtension>
        </extensions>
      </trkpt>
      <trkpt lat="37.9501529037952423095703125" lon="-107.10749396122992038726806640625">
        <ele>3926.39990234375</ele>
        <time>2026-01-06T20:26:38.000Z</time>
        <extensions>
          <ns3:TrackPointExtension>
            <ns3:hr>88</ns3:hr>
            <ns3:cad>0</ns3:cad>
          </ns3:TrackPointExtension>
        </extensions>
      </trkpt>
      <trkpt lat="37.9501529037952423095703125" lon="-107.10749396122992038726806640625">
        <ele>3925.800048828125</ele>
        <time>2026-01-06T20:26:39.000Z</time>
        <extensions>
          <ns3:TrackPointExtension>
            <ns3:hr>88</ns3:hr>
            <ns3:cad>0</ns3:cad>
          </ns3:TrackPointExtension>
        </extensions>
      </trkpt>
      <trkpt lat="37.95014225877821445465087890625" lon="-107.10749857127666473388671875">
        <ele>3926.800048828125</ele>
        <time>2026-01-06T20:26:45.000Z</time>
        <extensions>
          <ns3:TrackPointExtension>
            <ns3:hr>89</ns3:hr>
            <ns3:cad>0</ns3:cad>
          </ns3:TrackPointExtension>
        </extensions>
      </trkpt>
      <trkpt lat="37.9501394927501678466796875" lon="-107.1074990741908550262451171875">
        <ele>3927.199951171875</ele>
        <time>2026-01-06T20:26:46.000Z</time>
        <extensions>
          <ns3:TrackPointExtension>
            <ns3:hr>90</ns3:hr>
            <ns3:cad>53</ns3:cad>
          </ns3:TrackPointExtension>
        </extensions>
      </trkpt>
      <trkpt lat="37.9501346312463283538818359375" lon="-107.10749731399118900299072265625">
        <ele>3927.60009765625</ele>
        <time>2026-01-06T20:26:52.000Z</time>
        <extensions>
          <ns3:TrackPointExtension>
            <ns3:hr>92</ns3:hr>
            <ns3:cad>0</ns3:cad>
          </ns3:TrackPointExtension>
        </extensions>
      </trkpt>
      <trkpt lat="37.9501346312463283538818359375" lon="-107.10749731399118900299072265625">
        <ele>3928</ele>
        <time>2026-01-06T20:26:53.000Z</time>
        <extensions>
          <ns3:TrackPointExtension>
            <ns3:hr>92</ns3:hr>
            <ns3:cad>0</ns3:cad>
          </ns3:TrackPointExtension>
        </extensions>
      </trkpt>
      <trkpt lat="37.9501346312463283538818359375" lon="-107.10749731399118900299072265625">
        <ele>3928.199951171875</ele>
        <time>2026-01-06T20:26:55.000Z</time>
        <extensions>
          <ns3:TrackPointExtension>
            <ns3:hr>92</ns3:hr>
            <ns3:cad>0</ns3:cad>
          </ns3:TrackPointExtension>
        </extensions>
      </trkpt>
      <trkpt lat="37.95012541115283966064453125" lon="-107.10751776583492755889892578125">
        <ele>3928</ele>
        <time>2026-01-06T20:27:00.000Z</time>
        <extensions>
          <ns3:TrackPointExtension>
            <ns3:hr>90</ns3:hr>
            <ns3:cad>0</ns3:cad>
          </ns3:TrackPointExtension>
        </extensions>
      </trkpt>
      <trkpt lat="37.9501218907535076141357421875" lon="-107.10752229206264019012451171875">
        <ele>3927.800048828125</ele>
        <time>2026-01-06T20:27:06.000Z</time>
        <extensions>
          <ns3:TrackPointExtension>
            <ns3:hr>89</ns3:hr>
            <ns3:cad>0</ns3:cad>
          </ns3:TrackPointExtension>
        </extensions>
      </trkpt>
      <trkpt lat="37.95012163929641246795654296875" lon="-107.10752296261489391326904296875">
        <ele>3927.800048828125</ele>
        <time>2026-01-06T20:27:08.000Z</time>
        <extensions>
          <ns3:TrackPointExtension>
            <ns3:hr>90</ns3:hr>
            <ns3:cad>0</ns3:cad>
          </ns3:TrackPointExtension>
        </extensions>
      </trkpt>
      <trkpt lat="37.95011761598289012908935546875" lon="-107.10756336338818073272705078125">
        <ele>3927.199951171875</ele>
        <time>2026-01-06T20:27:12.000Z</time>
        <extensions>
          <ns3:TrackPointExtension>
            <ns3:hr>89</ns3:hr>
            <ns3:cad>79</ns3:cad>
          </ns3:TrackPointExtension>
        </extensions>
      </trkpt>
      <trkpt lat="37.95011870563030242919921875" lon="-107.10758767090737819671630859375">
        <ele>3927</ele>
        <time>2026-01-06T20:27:15.000Z</time>
        <extensions>
          <ns3:TrackPointExtension>
            <ns3:hr>90</ns3:hr>
            <ns3:cad>44</ns3:cad>
          </ns3:TrackPointExtension>
        </extensions>
      </trkpt>
      <trkpt lat="37.9501121677458286285400390625" lon="-107.10761331953108310699462890625">
        <ele>3926</ele>
        <time>2026-01-06T20:27:19.000Z</time>
        <extensions>
          <ns3:TrackPointExtension>
            <ns3:hr>89</ns3:hr>
            <ns3:cad>47</ns3:cad>
          </ns3:TrackPointExtension>
        </extensions>
      </trkpt>
      <trkpt lat="37.950110323727130889892578125" lon="-107.10763662122189998626708984375">
        <ele>3925</ele>
        <time>2026-01-06T20:27:22.000Z</time>
        <extensions>
          <ns3:TrackPointExtension>
            <ns3:hr>89</ns3:hr>
            <ns3:cad>45</ns3:cad>
          </ns3:TrackPointExtension>
        </extensions>
      </trkpt>
      <trkpt lat="37.95010873116552829742431640625" lon="-107.10764399729669094085693359375">
        <ele>3924.800048828125</ele>
        <time>2026-01-06T20:27:23.000Z</time>
        <extensions>
          <ns3:TrackPointExtension>
            <ns3:hr>89</ns3:hr>
            <ns3:cad>45</ns3:cad>
          </ns3:TrackPointExtension>
        </extensions>
      </trkpt>
      <trkpt lat="37.950106970965862274169921875" lon="-107.10766059346497058868408203125">
        <ele>3923.800048828125</ele>
        <time>2026-01-06T20:27:26.000Z</time>
        <extensions>
          <ns3:TrackPointExtension>
            <ns3:hr>89</ns3:hr>
            <ns3:cad>47</ns3:cad>
          </ns3:TrackPointExtension>
        </extensions>
      </trkpt>
      <trkpt lat="37.95009397901594638824462890625" lon="-107.1076888404786586761474609375">
        <ele>3922.800048828125</ele>
        <time>2026-01-06T20:27:31.000Z</time>
        <extensions>
          <ns3:TrackPointExtension>
            <ns3:hr>88</ns3:hr>
            <ns3:cad>0</ns3:cad>
          </ns3:TrackPointExtension>
        </extensions>
      </trkpt>
      <trkpt lat="37.95008677057921886444091796875" lon="-107.10770317353308200836181640625">
        <ele>3922.60009765625</ele>
        <time>2026-01-06T20:27:33.000Z</time>
        <extensions>
          <ns3:TrackPointExtension>
            <ns3:hr>88</ns3:hr>
            <ns3:cad>0</ns3:cad>
          </ns3:TrackPointExtension>
        </extensions>
      </trkpt>
      <trkpt lat="37.95006983913481235504150390625" lon="-107.107745669782161712646484375">
        <ele>3922.199951171875</ele>
        <time>2026-01-06T20:27:39.000Z</time>
        <extensions>
          <ns3:TrackPointExtension>
            <ns3:hr>88</ns3:hr>
            <ns3:cad>78</ns3:cad>
          </ns3:TrackPointExtension>
        </extensions>
      </trkpt>
      <trkpt lat="37.95006765983998775482177734375" lon="-107.1077528782188892364501953125">
        <ele>3921.800048828125</ele>
        <time>2026-01-06T20:27:40.000Z</time>
        <extensions>
          <ns3:TrackPointExtension>
            <ns3:hr>88</ns3:hr>
            <ns3:cad>78</ns3:cad>
          </ns3:TrackPointExtension>
        </extensions>
      </trkpt>
      <trkpt lat="37.95006313361227512359619140625" lon="-107.10776017047464847564697265625">
        <ele>3921.39990234375</ele>
        <time>2026-01-06T20:27:41.000Z</time>
        <extensions>
          <ns3:TrackPointExtension>
            <ns3:hr>88</ns3:hr>
            <ns3:cad>73</ns3:cad>
          </ns3:TrackPointExtension>
        </extensions>
      </trkpt>
      <trkpt lat="37.95005341060459613800048828125" lon="-107.1077884174883365631103515625">
        <ele>3920.199951171875</ele>
        <time>2026-01-06T20:27:45.000Z</time>
        <extensions>
          <ns3:TrackPointExtension>
            <ns3:hr>89</ns3:hr>
            <ns3:cad>73</ns3:cad>
          </ns3:TrackPointExtension>
        </extensions>
      </trkpt>
      <trkpt lat="37.9500482976436614990234375" lon="-107.10781347937881946563720703125">
        <ele>3919</ele>
        <time>2026-01-06T20:27:49.000Z</time>
        <extensions>
          <ns3:TrackPointExtension>
            <ns3:hr>89</ns3:hr>
            <ns3:cad>77</ns3:cad>
          </ns3:TrackPointExtension>
        </extensions>
      </trkpt>
      <trkpt lat="37.9500414244830608367919921875" lon="-107.107838876545429229736328125">
        <ele>3918</ele>
        <time>2026-01-06T20:27:55.000Z</time>
        <extensions>
          <ns3:TrackPointExtension>
            <ns3:hr>90</ns3:hr>
            <ns3:cad>0</ns3:cad>
          </ns3:TrackPointExtension>
        </extensions>
      </trkpt>
      <trkpt lat="37.9500410892069339752197265625" lon="-107.10784449242055416107177734375">
        <ele>3917.800048828125</ele>
        <time>2026-01-06T20:27:56.000Z</time>
        <extensions>
          <ns3:TrackPointExtension>
            <ns3:hr>91</ns3:hr>
            <ns3:cad>0</ns3:cad>
          </ns3:TrackPointExtension>
        </extensions>
      </trkpt>
      <trkpt lat="37.95003949664533138275146484375" lon="-107.1078680455684661865234375">
        <ele>3917.199951171875</ele>
        <time>2026-01-06T20:28:00.000Z</time>
        <extensions>
          <ns3:TrackPointExtension>
            <ns3:hr>94</ns3:hr>
            <ns3:cad>0</ns3:cad>
          </ns3:TrackPointExtension>
        </extensions>
      </trkpt>
      <trkpt lat="37.95003698207437992095947265625" lon="-107.10788874886929988861083984375">
        <ele>3916.60009765625</ele>
        <time>2026-01-06T20:28:03.000Z</time>
        <extensions>
          <ns3:TrackPointExtension>
            <ns3:hr>95</ns3:hr>
            <ns3:cad>72</ns3:cad>
          </ns3:TrackPointExtension>
        </extensions>
      </trkpt>
      <trkpt lat="37.95003153383731842041015625" lon="-107.1079168282449245452880859375">
        <ele>3915.60009765625</ele>
        <time>2026-01-06T20:28:07.000Z</time>
        <extensions>
          <ns3:TrackPointExtension>
            <ns3:hr>96</ns3:hr>
            <ns3:cad>72</ns3:cad>
          </ns3:TrackPointExtension>
        </extensions>
      </trkpt>
      <trkpt lat="37.95002122409641742706298828125" lon="-107.1079377830028533935546875">
        <ele>3915</ele>
        <time>2026-01-06T20:28:10.000Z</time>
        <extensions>
          <ns3:TrackPointExtension>
            <ns3:hr>97</ns3:hr>
            <ns3:cad>47</ns3:cad>
          </ns3:TrackPointExtension>
        </extensions>
      </trkpt>
      <trkpt lat="37.9500166140496730804443359375" lon="-107.107954211533069610595703125">
        <ele>3914.60009765625</ele>
        <time>2026-01-06T20:28:13.000Z</time>
        <extensions>
          <ns3:TrackPointExtension>
            <ns3:hr>97</ns3:hr>
            <ns3:cad>47</ns3:cad>
          </ns3:TrackPointExtension>
        </extensions>
      </trkpt>
      <trkpt lat="37.95000546611845493316650390625" lon="-107.10798027925193309783935546875">
        <ele>3913.60009765625</ele>
        <time>2026-01-06T20:28:17.000Z</time>
        <extensions>
          <ns3:TrackPointExtension>
            <ns3:hr>96</ns3:hr>
            <ns3:cad>0</ns3:cad>
          </ns3:TrackPointExtension>
        </extensions>
      </trkpt>
      <trkpt lat="37.95000161044299602508544921875" lon="-107.1080157347023487091064453125">
        <ele>3912.199951171875</ele>
        <time>2026-01-06T20:28:23.000Z</time>
        <extensions>
          <ns3:TrackPointExtension>
            <ns3:hr>95</ns3:hr>
            <ns3:cad>44</ns3:cad>
          </ns3:TrackPointExtension>
        </extensions>
      </trkpt>
      <trkpt lat="37.94999976642429828643798828125" lon="-107.10802587680518627166748046875">
        <ele>3911.800048828125</ele>
        <time>2026-01-06T20:28:24.000Z</time>
        <extensions>
          <ns3:TrackPointExtension>
            <ns3:hr>94</ns3:hr>
            <ns3:cad>44</ns3:cad>
          </ns3:TrackPointExtension>
        </extensions>
      </trkpt>
      <trkpt lat="37.9499924741685390472412109375" lon="-107.1080482564866542816162109375">
        <ele>3911</ele>
        <time>2026-01-06T20:28:27.000Z</time>
        <extensions>
          <ns3:TrackPointExtension>
            <ns3:hr>95</ns3:hr>
            <ns3:cad>79</ns3:cad>
          </ns3:TrackPointExtension>
        </extensions>
      </trkpt>
      <trkpt lat="37.94998467899858951568603515625" lon="-107.1080589853227138519287109375">
        <ele>3910.39990234375</ele>
        <time>2026-01-06T20:28:30.000Z</time>
        <extensions>
          <ns3:TrackPointExtension>
            <ns3:hr>95</ns3:hr>
            <ns3:cad>79</ns3:cad>
          </ns3:TrackPointExtension>
        </extensions>
      </trkpt>
      <trkpt lat="37.949979566037654876708984375" lon="-107.10808656178414821624755859375">
        <ele>3910</ele>
        <time>2026-01-06T20:28:35.000Z</time>
        <extensions>
          <ns3:TrackPointExtension>
            <ns3:hr>94</ns3:hr>
            <ns3:cad>77</ns3:cad>
          </ns3:TrackPointExtension>
        </extensions>
      </trkpt>
      <trkpt lat="37.94997160322964191436767578125" lon="-107.10810366086661815643310546875">
        <ele>3909</ele>
        <time>2026-01-06T20:28:38.000Z</time>
        <extensions>
          <ns3:TrackPointExtension>
            <ns3:hr>95</ns3:hr>
            <ns3:cad>77</ns3:cad>
          </ns3:TrackPointExtension>
        </extensions>
      </trkpt>
      <trkpt lat="37.9499703459441661834716796875" lon="-107.10811003111302852630615234375">
        <ele>3908.60009765625</ele>
        <time>2026-01-06T20:28:39.000Z</time>
        <extensions>
          <ns3:TrackPointExtension>
            <ns3:hr>95</ns3:hr>
            <ns3:cad>77</ns3:cad>
          </ns3:TrackPointExtension>
        </extensions>
      </trkpt>
      <trkpt lat="37.9499757103621959686279296875" lon="-107.1081515215337276458740234375">
        <ele>3907.60009765625</ele>
        <time>2026-01-06T20:28:45.000Z</time>
        <extensions>
          <ns3:TrackPointExtension>
            <ns3:hr>96</ns3:hr>
            <ns3:cad>0</ns3:cad>
          </ns3:TrackPointExtension>
        </extensions>
      </trkpt>
      <trkpt lat="37.949977554380893707275390625" lon="-107.10820541717112064361572265625">
        <ele>3906.39990234375</ele>
        <time>2026-01-06T20:28:51.000Z</time>
        <extensions>
          <ns3:TrackPointExtension>
            <ns3:hr>97</ns3:hr>
            <ns3:cad>0</ns3:cad>
          </ns3:TrackPointExtension>
        </extensions>
      </trkpt>
      <trkpt lat="37.94998400844633579254150390625" lon="-107.1082430519163608551025390625">
        <ele>3905.199951171875</ele>
        <time>2026-01-06T20:28:55.000Z</time>
        <extensions>
          <ns3:TrackPointExtension>
            <ns3:hr>100</ns3:hr>
            <ns3:cad>45</ns3:cad>
          </ns3:TrackPointExtension>
        </extensions>
      </trkpt>
      <trkpt lat="37.94998367317020893096923828125" lon="-107.10824799723923206329345703125">
        <ele>3905</ele>
        <time>2026-01-06T20:28:56.000Z</time>
        <extensions>
          <ns3:TrackPointExtension>
            <ns3:hr>100</ns3:hr>
            <ns3:cad>42</ns3:cad>
          </ns3:TrackPointExtension>
        </extensions>
      </trkpt>
      <trkpt lat="37.94998166151344776153564453125" lon="-107.1082718856632709503173828125">
        <ele>3904.199951171875</ele>
        <time>2026-01-06T20:29:01.000Z</time>
        <extensions>
          <ns3:TrackPointExtension>
            <ns3:hr>100</ns3:hr>
            <ns3:cad>0</ns3:cad>
          </ns3:TrackPointExtension>
        </extensions>
      </trkpt>
      <trkpt lat="37.94997788965702056884765625" lon="-107.108290493488311767578125">
        <ele>3904</ele>
        <time>2026-01-06T20:29:04.000Z</time>
        <extensions>
          <ns3:TrackPointExtension>
            <ns3:hr>100</ns3:hr>
            <ns3:cad>74</ns3:cad>
          </ns3:TrackPointExtension>
        </extensions>
      </trkpt>
      <trkpt lat="37.94996473006904125213623046875" lon="-107.10832796059548854827880859375">
        <ele>3902.800048828125</ele>
        <time>2026-01-06T20:29:10.000Z</time>
        <extensions>
          <ns3:TrackPointExtension>
            <ns3:hr>99</ns3:hr>
            <ns3:cad>77</ns3:cad>
          </ns3:TrackPointExtension>
        </extensions>
      </trkpt>
      <trkpt lat="37.94996221549808979034423828125" lon="-107.1083345822989940643310546875">
        <ele>3902.39990234375</ele>
        <time>2026-01-06T20:29:11.000Z</time>
        <extensions>
          <ns3:TrackPointExtension>
            <ns3:hr>99</ns3:hr>
            <ns3:cad>77</ns3:cad>
          </ns3:TrackPointExtension>
        </extensions>
      </trkpt>
      <trkpt lat="37.94995919801294803619384765625" lon="-107.108346484601497650146484375">
        <ele>3901.800048828125</ele>
        <time>2026-01-06T20:29:13.000Z</time>
        <extensions>
          <ns3:TrackPointExtension>
            <ns3:hr>98</ns3:hr>
            <ns3:cad>63</ns3:cad>
          </ns3:TrackPointExtension>
        </extensions>
      </trkpt>
      <trkpt lat="37.94995148666203022003173828125" lon="-107.1083696186542510986328125">
        <ele>3901.199951171875</ele>
        <time>2026-01-06T20:29:16.000Z</time>
        <extensions>
          <ns3:TrackPointExtension>
            <ns3:hr>97</ns3:hr>
            <ns3:cad>74</ns3:cad>
          </ns3:TrackPointExtension>
        </extensions>
      </trkpt>
      <trkpt lat="37.9499468766152858734130859375" lon="-107.10838059894740581512451171875">
        <ele>3900.800048828125</ele>
        <time>2026-01-06T20:29:18.000Z</time>
        <extensions>
          <ns3:TrackPointExtension>
            <ns3:hr>97</ns3:hr>
            <ns3:cad>71</ns3:cad>
          </ns3:TrackPointExtension>
        </extensions>
      </trkpt>
      <trkpt lat="37.94993631541728973388671875" lon="-107.10840524174273014068603515625">
        <ele>3900</ele>
        <time>2026-01-06T20:29:22.000Z</time>
        <extensions>
          <ns3:TrackPointExtension>
            <ns3:hr>96</ns3:hr>
            <ns3:cad>40</ns3:cad>
          </ns3:TrackPointExtension>
        </extensions>
      </trkpt>
      <trkpt lat="37.9499338008463382720947265625" lon="-107.10842116735875606536865234375">
        <ele>3899.800048828125</ele>
        <time>2026-01-06T20:29:24.000Z</time>
        <extensions>
          <ns3:TrackPointExtension>
            <ns3:hr>96</ns3:hr>
            <ns3:cad>79</ns3:cad>
          </ns3:TrackPointExtension>
        </extensions>
      </trkpt>
      <trkpt lat="37.94992885552346706390380859375" lon="-107.108449079096317291259765625">
        <ele>3899</ele>
        <time>2026-01-06T20:29:27.000Z</time>
        <extensions>
          <ns3:TrackPointExtension>
            <ns3:hr>97</ns3:hr>
            <ns3:cad>79</ns3:cad>
          </ns3:TrackPointExtension>
        </extensions>
      </trkpt>
      <trkpt lat="37.949922569096088409423828125" lon="-107.1084650047123432159423828125">
        <ele>3898.60009765625</ele>
        <time>2026-01-06T20:29:29.000Z</time>
        <extensions>
          <ns3:TrackPointExtension>
            <ns3:hr>97</ns3:hr>
            <ns3:cad>79</ns3:cad>
          </ns3:TrackPointExtension>
        </extensions>
      </trkpt>
      <trkpt lat="37.94991494156420230865478515625" lon="-107.1084810979664325714111328125">
        <ele>3898</ele>
        <time>2026-01-06T20:29:33.000Z</time>
        <extensions>
          <ns3:TrackPointExtension>
            <ns3:hr>96</ns3:hr>
            <ns3:cad>79</ns3:cad>
          </ns3:TrackPointExtension>
        </extensions>
      </trkpt>
      <trkpt lat="37.94990622438490390777587890625" lon="-107.1085042320191860198974609375">
        <ele>3897.39990234375</ele>
        <time>2026-01-06T20:29:36.000Z</time>
        <extensions>
          <ns3:TrackPointExtension>
            <ns3:hr>96</ns3:hr>
            <ns3:cad>0</ns3:cad>
          </ns3:TrackPointExtension>
        </extensions>
      </trkpt>
      <trkpt lat="37.94990144670009613037109375" lon="-107.10851646959781646728515625">
        <ele>3897</ele>
        <time>2026-01-06T20:29:38.000Z</time>
        <extensions>
          <ns3:TrackPointExtension>
            <ns3:hr>96</ns3:hr>
            <ns3:cad>0</ns3:cad>
          </ns3:TrackPointExtension>
        </extensions>
      </trkpt>
      <trkpt lat="37.94988929294049739837646484375" lon="-107.108541615307331085205078125">
        <ele>3896.199951171875</ele>
        <time>2026-01-06T20:29:41.000Z</time>
        <extensions>
          <ns3:TrackPointExtension>
            <ns3:hr>95</ns3:hr>
            <ns3:cad>0</ns3:cad>
          </ns3:TrackPointExtension>
        </extensions>
      </trkpt>
      <trkpt lat="37.94988510198891162872314453125" lon="-107.108561061322689056396484375">
        <ele>3895.60009765625</ele>
        <time>2026-01-06T20:29:44.000Z</time>
        <extensions>
          <ns3:TrackPointExtension>
            <ns3:hr>95</ns3:hr>
            <ns3:cad>0</ns3:cad>
          </ns3:TrackPointExtension>
        </extensions>
      </trkpt>
      <trkpt lat="37.94987261295318603515625" lon="-107.10859668441116809844970703125">
        <ele>3895</ele>
        <time>2026-01-06T20:29:48.000Z</time>
        <extensions>
          <ns3:TrackPointExtension>
            <ns3:hr>94</ns3:hr>
            <ns3:cad>0</ns3:cad>
          </ns3:TrackPointExtension>
        </extensions>
      </trkpt>
      <trkpt lat="37.9498623870313167572021484375" lon="-107.10862048901617527008056640625">
        <ele>3893.800048828125</ele>
        <time>2026-01-06T20:29:51.000Z</time>
        <extensions>
          <ns3:TrackPointExtension>
            <ns3:hr>93</ns3:hr>
            <ns3:cad>0</ns3:cad>
          </ns3:TrackPointExtension>
        </extensions>
      </trkpt>
      <trkpt lat="37.94985107146203517913818359375" lon="-107.1086561121046543121337890625">
        <ele>3892.800048828125</ele>
        <time>2026-01-06T20:29:55.000Z</time>
        <extensions>
          <ns3:TrackPointExtension>
            <ns3:hr>93</ns3:hr>
            <ns3:cad>0</ns3:cad>
          </ns3:TrackPointExtension>
        </extensions>
      </trkpt>
      <trkpt lat="37.94984788633882999420166015625" lon="-107.1086715348064899444580078125">
        <ele>3892.60009765625</ele>
        <time>2026-01-06T20:29:57.000Z</time>
        <extensions>
          <ns3:TrackPointExtension>
            <ns3:hr>94</ns3:hr>
            <ns3:cad>45</ns3:cad>
          </ns3:TrackPointExtension>
        </extensions>
      </trkpt>
      <trkpt lat="37.94983363710343837738037109375" lon="-107.10871403105556964874267578125">
        <ele>3891.39990234375</ele>
        <time>2026-01-06T20:30:02.000Z</time>
        <extensions>
          <ns3:TrackPointExtension>
            <ns3:hr>93</ns3:hr>
            <ns3:cad>79</ns3:cad>
          </ns3:TrackPointExtension>
        </extensions>
      </trkpt>
      <trkpt lat="37.94982902705669403076171875" lon="-107.1087281964719295501708984375">
        <ele>3890.800048828125</ele>
        <time>2026-01-06T20:30:04.000Z</time>
        <extensions>
          <ns3:TrackPointExtension>
            <ns3:hr>93</ns3:hr>
            <ns3:cad>79</ns3:cad>
          </ns3:TrackPointExtension>
        </extensions>
      </trkpt>
      <trkpt lat="37.94982508756220340728759765625" lon="-107.10874236188828945159912109375">
        <ele>3890.39990234375</ele>
        <time>2026-01-06T20:30:06.000Z</time>
        <extensions>
          <ns3:TrackPointExtension>
            <ns3:hr>93</ns3:hr>
            <ns3:cad>79</ns3:cad>
          </ns3:TrackPointExtension>
        </extensions>
      </trkpt>
      <trkpt lat="37.94981159269809722900390625" lon="-107.108779661357402801513671875">
        <ele>3889.39990234375</ele>
        <time>2026-01-06T20:30:11.000Z</time>
        <extensions>
          <ns3:TrackPointExtension>
            <ns3:hr>93</ns3:hr>
            <ns3:cad>68</ns3:cad>
          </ns3:TrackPointExtension>
        </extensions>
      </trkpt>
      <trkpt lat="37.949808575212955474853515625" lon="-107.10878846235573291778564453125">
        <ele>3889.199951171875</ele>
        <time>2026-01-06T20:30:12.000Z</time>
        <extensions>
          <ns3:TrackPointExtension>
            <ns3:hr>94</ns3:hr>
            <ns3:cad>68</ns3:cad>
          </ns3:TrackPointExtension>
        </extensions>
      </trkpt>
      <trkpt lat="37.94980145059525966644287109375" lon="-107.10881947539746761322021484375">
        <ele>3888.199951171875</ele>
        <time>2026-01-06T20:30:16.000Z</time>
        <extensions>
          <ns3:TrackPointExtension>
            <ns3:hr>94</ns3:hr>
            <ns3:cad>73</ns3:cad>
          </ns3:TrackPointExtension>
        </extensions>
      </trkpt>
      <trkpt lat="37.9498027078807353973388671875" lon="-107.1088193915784358978271484375">
        <ele>3887.800048828125</ele>
        <time>2026-01-06T20:30:17.000Z</time>
        <extensions>
          <ns3:TrackPointExtension>
            <ns3:hr>95</ns3:hr>
            <ns3:cad>0</ns3:cad>
          </ns3:TrackPointExtension>
        </extensions>
      </trkpt>
      <trkpt lat="37.94978971593081951141357421875" lon="-107.1088545955717563629150390625">
        <ele>3887.199951171875</ele>
        <time>2026-01-06T20:30:21.000Z</time>
        <extensions>
          <ns3:TrackPointExtension>
            <ns3:hr>95</ns3:hr>
            <ns3:cad>0</ns3:cad>
          </ns3:TrackPointExtension>
        </extensions>
      </trkpt>
      <trkpt lat="37.9497866146266460418701171875" lon="-107.1088633127510547637939453125">
        <ele>3886.800048828125</ele>
        <time>2026-01-06T20:30:22.000Z</time>
        <extensions>
          <ns3:TrackPointExtension>
            <ns3:hr>96</ns3:hr>
            <ns3:cad>0</ns3:cad>
          </ns3:TrackPointExtension>
        </extensions>
      </trkpt>
      <trkpt lat="37.94976892881095409393310546875" lon="-107.10890983231365680694580078125">
        <ele>3885.800048828125</ele>
        <time>2026-01-06T20:30:27.000Z</time>
        <extensions>
          <ns3:TrackPointExtension>
            <ns3:hr>97</ns3:hr>
            <ns3:cad>41</ns3:cad>
          </ns3:TrackPointExtension>
        </extensions>
      </trkpt>
      <trkpt lat="37.949768006801605224609375" lon="-107.1089152805507183074951171875">
        <ele>3885.60009765625</ele>
        <time>2026-01-06T20:30:28.000Z</time>
        <extensions>
          <ns3:TrackPointExtension>
            <ns3:hr>98</ns3:hr>
            <ns3:cad>41</ns3:cad>
          </ns3:TrackPointExtension>
        </extensions>
      </trkpt>
      <trkpt lat="37.9497547633945941925048828125" lon="-107.10894587449729442596435546875">
        <ele>3884.800048828125</ele>
        <time>2026-01-06T20:30:32.000Z</time>
        <extensions>
          <ns3:TrackPointExtension>
            <ns3:hr>98</ns3:hr>
            <ns3:cad>77</ns3:cad>
          </ns3:TrackPointExtension>
        </extensions>
      </trkpt>
      <trkpt lat="37.9497450403869152069091796875" lon="-107.1089665777981281280517578125">
        <ele>3884.800048828125</ele>
        <time>2026-01-06T20:30:34.000Z</time>
        <extensions>
          <ns3:TrackPointExtension>
            <ns3:hr>100</ns3:hr>
            <ns3:cad>77</ns3:cad>
          </ns3:TrackPointExtension>
        </extensions>
      </trkpt>
      <trkpt lat="37.94973992742598056793212890625" lon="-107.1089769713580608367919921875">
        <ele>3884.800048828125</ele>
        <time>2026-01-06T20:30:35.000Z</time>
        <extensions>
          <ns3:TrackPointExtension>
            <ns3:hr>100</ns3:hr>
            <ns3:cad>77</ns3:cad>
          </ns3:TrackPointExtension>
        </extensions>
      </trkpt>
      <trkpt lat="37.9497272707521915435791015625" lon="-107.10901963524520397186279296875">
        <ele>3883.60009765625</ele>
        <time>2026-01-06T20:30:40.000Z</time>
        <extensions>
          <ns3:TrackPointExtension>
            <ns3:hr>101</ns3:hr>
            <ns3:cad>41</ns3:cad>
          </ns3:TrackPointExtension>
        </extensions>
      </trkpt>
      <trkpt lat="37.9497242532670497894287109375" lon="-107.1090423502027988433837890625">
        <ele>3883.199951171875</ele>
        <time>2026-01-06T20:30:42.000Z</time>
        <extensions>
          <ns3:TrackPointExtension>
            <ns3:hr>100</ns3:hr>
            <ns3:cad>79</ns3:cad>
          </ns3:TrackPointExtension>
        </extensions>
      </trkpt>
      <trkpt lat="37.94971771538257598876953125" lon="-107.10908568464219570159912109375">
        <ele>3882.60009765625</ele>
        <time>2026-01-06T20:30:46.000Z</time>
        <extensions>
          <ns3:TrackPointExtension>
            <ns3:hr>100</ns3:hr>
            <ns3:cad>41</ns3:cad>
          </ns3:TrackPointExtension>
        </extensions>
      </trkpt>
      <trkpt lat="37.9497128538787364959716796875" lon="-107.109114937484264373779296875">
        <ele>3881.199951171875</ele>
        <time>2026-01-06T20:30:49.000Z</time>
        <extensions>
          <ns3:TrackPointExtension>
            <ns3:hr>100</ns3:hr>
            <ns3:cad>78</ns3:cad>
          </ns3:TrackPointExtension>
        </extensions>
      </trkpt>
      <trkpt lat="37.949708662927150726318359375" lon="-107.10913027636706829071044921875">
        <ele>3880.60009765625</ele>
        <time>2026-01-06T20:30:51.000Z</time>
        <extensions>
          <ns3:TrackPointExtension>
            <ns3:hr>99</ns3:hr>
            <ns3:cad>77</ns3:cad>
          </ns3:TrackPointExtension>
        </extensions>
      </trkpt>
      <trkpt lat="37.94970564544200897216796875" lon="-107.1091479621827602386474609375">
        <ele>3880.199951171875</ele>
        <time>2026-01-06T20:30:53.000Z</time>
        <extensions>
          <ns3:TrackPointExtension>
            <ns3:hr>99</ns3:hr>
            <ns3:cad>40</ns3:cad>
          </ns3:TrackPointExtension>
        </extensions>
      </trkpt>
      <trkpt lat="37.94969868846237659454345703125" lon="-107.109175957739353179931640625">
        <ele>3879.199951171875</ele>
        <time>2026-01-06T20:30:57.000Z</time>
        <extensions>
          <ns3:TrackPointExtension>
            <ns3:hr>98</ns3:hr>
            <ns3:cad>0</ns3:cad>
          </ns3:TrackPointExtension>
        </extensions>
      </trkpt>
      <trkpt lat="37.94969701208174228668212890625" lon="-107.109184674918651580810546875">
        <ele>3878.800048828125</ele>
        <time>2026-01-06T20:30:58.000Z</time>
        <extensions>
          <ns3:TrackPointExtension>
            <ns3:hr>98</ns3:hr>
            <ns3:cad>0</ns3:cad>
          </ns3:TrackPointExtension>
        </extensions>
      </trkpt>
      <trkpt lat="37.94968879781663417816162109375" lon="-107.1092252433300018310546875">
        <ele>3877.800048828125</ele>
        <time>2026-01-06T20:31:04.000Z</time>
        <extensions>
          <ns3:TrackPointExtension>
            <ns3:hr>96</ns3:hr>
            <ns3:cad>0</ns3:cad>
          </ns3:TrackPointExtension>
        </extensions>
      </trkpt>
      <trkpt lat="37.94968192465603351593017578125" lon="-107.10929439403116703033447265625">
        <ele>3876.800048828125</ele>
        <time>2026-01-06T20:31:10.000Z</time>
        <extensions>
          <ns3:TrackPointExtension>
            <ns3:hr>97</ns3:hr>
            <ns3:cad>0</ns3:cad>
          </ns3:TrackPointExtension>
        </extensions>
      </trkpt>
      <trkpt lat="37.9496823437511920928955078125" lon="-107.109304703772068023681640625">
        <ele>3876.60009765625</ele>
        <time>2026-01-06T20:31:11.000Z</time>
        <extensions>
          <ns3:TrackPointExtension>
            <ns3:hr>96</ns3:hr>
            <ns3:cad>0</ns3:cad>
          </ns3:TrackPointExtension>
        </extensions>
      </trkpt>
      <trkpt lat="37.9496568627655506134033203125" lon="-107.10936999879777431488037109375">
        <ele>3876</ele>
        <time>2026-01-06T20:31:17.000Z</time>
        <extensions>
          <ns3:TrackPointExtension>
            <ns3:hr>97</ns3:hr>
            <ns3:cad>45</ns3:cad>
          </ns3:TrackPointExtension>
        </extensions>
      </trkpt>
      <trkpt lat="37.94965376146137714385986328125" lon="-107.109375782310962677001953125">
        <ele>3876</ele>
        <time>2026-01-06T20:31:18.000Z</time>
        <extensions>
          <ns3:TrackPointExtension>
            <ns3:hr>97</ns3:hr>
            <ns3:cad>45</ns3:cad>
          </ns3:TrackPointExtension>
        </extensions>
      </trkpt>
      <trkpt lat="37.949648983776569366455078125" lon="-107.10938827134668827056884765625">
        <ele>3875.800048828125</ele>
        <time>2026-01-06T20:31:19.000Z</time>
        <extensions>
          <ns3:TrackPointExtension>
            <ns3:hr>97</ns3:hr>
            <ns3:cad>44</ns3:cad>
          </ns3:TrackPointExtension>
        </extensions>
      </trkpt>
      <trkpt lat="37.94963750056922435760498046875" lon="-107.1094329468905925750732421875">
        <ele>3874.60009765625</ele>
        <time>2026-01-06T20:31:23.000Z</time>
        <extensions>
          <ns3:TrackPointExtension>
            <ns3:hr>96</ns3:hr>
            <ns3:cad>41</ns3:cad>
          </ns3:TrackPointExtension>
        </extensions>
      </trkpt>
      <trkpt lat="37.94963129796087741851806640625" lon="-107.1094691567122936248779296875">
        <ele>3873.60009765625</ele>
        <time>2026-01-06T20:31:26.000Z</time>
        <extensions>
          <ns3:TrackPointExtension>
            <ns3:hr>95</ns3:hr>
            <ns3:cad>40</ns3:cad>
          </ns3:TrackPointExtension>
        </extensions>
      </trkpt>
      <trkpt lat="37.94963230378925800323486328125" lon="-107.1095070429146289825439453125">
        <ele>3872.39990234375</ele>
        <time>2026-01-06T20:31:29.000Z</time>
        <extensions>
          <ns3:TrackPointExtension>
            <ns3:hr>96</ns3:hr>
            <ns3:cad>43</ns3:cad>
          </ns3:TrackPointExtension>
        </extensions>
      </trkpt>
      <trkpt lat="37.94963381253182888031005859375" lon="-107.109518945217132568359375">
        <ele>3872</ele>
        <time>2026-01-06T20:31:30.000Z</time>
        <extensions>
          <ns3:TrackPointExtension>
            <ns3:hr>96</ns3:hr>
            <ns3:cad>44</ns3:cad>
          </ns3:TrackPointExtension>
        </extensions>
      </trkpt>
      <trkpt lat="37.94963188469409942626953125" lon="-107.1095506288111209869384765625">
        <ele>3871.199951171875</ele>
        <time>2026-01-06T20:31:33.000Z</time>
        <extensions>
          <ns3:TrackPointExtension>
            <ns3:hr>95</ns3:hr>
            <ns3:cad>44</ns3:cad>
          </ns3:TrackPointExtension>
        </extensions>
      </trkpt>
      <trkpt lat="37.94961805455386638641357421875" lon="-107.109605111181735992431640625">
        <ele>3870</ele>
        <time>2026-01-06T20:31:38.000Z</time>
        <extensions>
          <ns3:TrackPointExtension>
            <ns3:hr>95</ns3:hr>
            <ns3:cad>45</ns3:cad>
          </ns3:TrackPointExtension>
        </extensions>
      </trkpt>
      <trkpt lat="37.9496139474213123321533203125" lon="-107.10961793549358844757080078125">
        <ele>3869.800048828125</ele>
        <time>2026-01-06T20:31:39.000Z</time>
        <extensions>
          <ns3:TrackPointExtension>
            <ns3:hr>95</ns3:hr>
            <ns3:cad>45</ns3:cad>
          </ns3:TrackPointExtension>
        </extensions>
      </trkpt>
      <trkpt lat="37.9495918191969394683837890625" lon="-107.10966001264750957489013671875">
        <ele>3869</ele>
        <time>2026-01-06T20:31:43.000Z</time>
        <extensions>
          <ns3:TrackPointExtension>
            <ns3:hr>95</ns3:hr>
            <ns3:cad>41</ns3:cad>
          </ns3:TrackPointExtension>
        </extensions>
      </trkpt>
      <trkpt lat="37.94958553276956081390380859375" lon="-107.1096699871122837066650390625">
        <ele>3868.800048828125</ele>
        <time>2026-01-06T20:31:44.000Z</time>
        <extensions>
          <ns3:TrackPointExtension>
            <ns3:hr>96</ns3:hr>
            <ns3:cad>41</ns3:cad>
          </ns3:TrackPointExtension>
        </extensions>
      </trkpt>
      <trkpt lat="37.94956943951547145843505859375" lon="-107.1096931211650371551513671875">
        <ele>3867.800048828125</ele>
        <time>2026-01-06T20:31:48.000Z</time>
        <extensions>
          <ns3:TrackPointExtension>
            <ns3:hr>95</ns3:hr>
            <ns3:cad>41</ns3:cad>
          </ns3:TrackPointExtension>
        </extensions>
      </trkpt>
      <trkpt lat="37.9495639912784099578857421875" lon="-107.10970359854400157928466796875">
        <ele>3867.60009765625</ele>
        <time>2026-01-06T20:31:49.000Z</time>
        <extensions>
          <ns3:TrackPointExtension>
            <ns3:hr>95</ns3:hr>
            <ns3:cad>41</ns3:cad>
          </ns3:TrackPointExtension>
        </extensions>
      </trkpt>
      <trkpt lat="37.94955854304134845733642578125" lon="-107.10972488857805728912353515625">
        <ele>3866.800048828125</ele>
        <time>2026-01-06T20:31:51.000Z</time>
        <extensions>
          <ns3:TrackPointExtension>
            <ns3:hr>95</ns3:hr>
            <ns3:cad>41</ns3:cad>
          </ns3:TrackPointExtension>
        </extensions>
      </trkpt>
      <trkpt lat="37.949550412595272064208984375" lon="-107.1097564883530139923095703125">
        <ele>3865.800048828125</ele>
        <time>2026-01-06T20:31:54.000Z</time>
        <extensions>
          <ns3:TrackPointExtension>
            <ns3:hr>95</ns3:hr>
            <ns3:cad>47</ns3:cad>
          </ns3:TrackPointExtension>
        </extensions>
      </trkpt>
      <trkpt lat="37.94954932294785976409912109375" lon="-107.10976713337004184722900390625">
        <ele>3865.60009765625</ele>
        <time>2026-01-06T20:31:55.000Z</time>
        <extensions>
          <ns3:TrackPointExtension>
            <ns3:hr>95</ns3:hr>
            <ns3:cad>47</ns3:cad>
          </ns3:TrackPointExtension>
        </extensions>
      </trkpt>
      <trkpt lat="37.94952702708542346954345703125" lon="-107.10982161574065685272216796875">
        <ele>3865</ele>
        <time>2026-01-06T20:32:00.000Z</time>
        <extensions>
          <ns3:TrackPointExtension>
            <ns3:hr>96</ns3:hr>
            <ns3:cad>43</ns3:cad>
          </ns3:TrackPointExtension>
        </extensions>
      </trkpt>
      <trkpt lat="37.949520237743854522705078125" lon="-107.1098555624485015869140625">
        <ele>3864.39990234375</ele>
        <time>2026-01-06T20:32:03.000Z</time>
        <extensions>
          <ns3:TrackPointExtension>
            <ns3:hr>96</ns3:hr>
            <ns3:cad>44</ns3:cad>
          </ns3:TrackPointExtension>
        </extensions>
      </trkpt>
      <trkpt lat="37.9495046474039554595947265625" lon="-107.1098922751843929290771484375">
        <ele>3863.199951171875</ele>
        <time>2026-01-06T20:32:07.000Z</time>
        <extensions>
          <ns3:TrackPointExtension>
            <ns3:hr>97</ns3:hr>
            <ns3:cad>43</ns3:cad>
          </ns3:TrackPointExtension>
        </extensions>
      </trkpt>
      <trkpt lat="37.9494935832917690277099609375" lon="-107.10991649888455867767333984375">
        <ele>3862.60009765625</ele>
        <time>2026-01-06T20:32:09.000Z</time>
        <extensions>
          <ns3:TrackPointExtension>
            <ns3:hr>97</ns3:hr>
            <ns3:cad>42</ns3:cad>
          </ns3:TrackPointExtension>
        </extensions>
      </trkpt>
      <trkpt lat="37.9494885541498661041259765625" lon="-107.10994130931794643402099609375">
        <ele>3862.199951171875</ele>
        <time>2026-01-06T20:32:11.000Z</time>
        <extensions>
          <ns3:TrackPointExtension>
            <ns3:hr>97</ns3:hr>
            <ns3:cad>0</ns3:cad>
          </ns3:TrackPointExtension>
        </extensions>
      </trkpt>
      <trkpt lat="37.949465923011302947998046875" lon="-107.10998355410993099212646484375">
        <ele>3861.39990234375</ele>
        <time>2026-01-06T20:32:15.000Z</time>
        <extensions>
          <ns3:TrackPointExtension>
            <ns3:hr>97</ns3:hr>
            <ns3:cad>0</ns3:cad>
          </ns3:TrackPointExtension>
        </extensions>
      </trkpt>
      <trkpt lat="37.94945695437490940093994140625" lon="-107.11000082083046436309814453125">
        <ele>3861</ele>
        <time>2026-01-06T20:32:17.000Z</time>
        <extensions>
          <ns3:TrackPointExtension>
            <ns3:hr>96</ns3:hr>
            <ns3:cad>0</ns3:cad>
          </ns3:TrackPointExtension>
        </extensions>
      </trkpt>
      <trkpt lat="37.9494369216263294219970703125" lon="-107.1100394614040851593017578125">
        <ele>3860.39990234375</ele>
        <time>2026-01-06T20:32:20.000Z</time>
        <extensions>
          <ns3:TrackPointExtension>
            <ns3:hr>96</ns3:hr>
            <ns3:cad>45</ns3:cad>
          </ns3:TrackPointExtension>
        </extensions>
      </trkpt>
      <trkpt lat="37.9494282044470310211181640625" lon="-107.11006200872361660003662109375">
        <ele>3859.800048828125</ele>
        <time>2026-01-06T20:32:22.000Z</time>
        <extensions>
          <ns3:TrackPointExtension>
            <ns3:hr>96</ns3:hr>
            <ns3:cad>45</ns3:cad>
          </ns3:TrackPointExtension>
        </extensions>
      </trkpt>
      <trkpt lat="37.94941194355487823486328125" lon="-107.1101014874875545501708984375">
        <ele>3858.800048828125</ele>
        <time>2026-01-06T20:32:26.000Z</time>
        <extensions>
          <ns3:TrackPointExtension>
            <ns3:hr>97</ns3:hr>
            <ns3:cad>45</ns3:cad>
          </ns3:TrackPointExtension>
        </extensions>
      </trkpt>
      <trkpt lat="37.94940213672816753387451171875" lon="-107.1101209335029125213623046875">
        <ele>3858.60009765625</ele>
        <time>2026-01-06T20:32:28.000Z</time>
        <extensions>
          <ns3:TrackPointExtension>
            <ns3:hr>97</ns3:hr>
            <ns3:cad>44</ns3:cad>
          </ns3:TrackPointExtension>
        </extensions>
      </trkpt>
      <trkpt lat="37.94938243925571441650390625" lon="-107.11017365567386150360107421875">
        <ele>3857.39990234375</ele>
        <time>2026-01-06T20:32:33.000Z</time>
        <extensions>
          <ns3:TrackPointExtension>
            <ns3:hr>95</ns3:hr>
            <ns3:cad>48</ns3:cad>
          </ns3:TrackPointExtension>
        </extensions>
      </trkpt>
      <trkpt lat="37.94937715865671634674072265625" lon="-107.110185138881206512451171875">
        <ele>3857.199951171875</ele>
        <time>2026-01-06T20:32:34.000Z</time>
        <extensions>
          <ns3:TrackPointExtension>
            <ns3:hr>94</ns3:hr>
            <ns3:cad>48</ns3:cad>
          </ns3:TrackPointExtension>
        </extensions>
      </trkpt>
      <trkpt lat="37.94935184530913829803466796875" lon="-107.11024154908955097198486328125">
        <ele>3856.199951171875</ele>
        <time>2026-01-06T20:32:40.000Z</time>
        <extensions>
          <ns3:TrackPointExtension>
            <ns3:hr>91</ns3:hr>
            <ns3:cad>44</ns3:cad>
          </ns3:TrackPointExtension>
        </extensions>
      </trkpt>
      <trkpt lat="37.94934547506272792816162109375" lon="-107.1102547086775302886962890625">
        <ele>3855.800048828125</ele>
        <time>2026-01-06T20:32:41.000Z</time>
        <extensions>
          <ns3:TrackPointExtension>
            <ns3:hr>91</ns3:hr>
            <ns3:cad>44</ns3:cad>
          </ns3:TrackPointExtension>
        </extensions>
      </trkpt>
      <trkpt lat="37.9493360035121440887451171875" lon="-107.110290415585041046142578125">
        <ele>3855</ele>
        <time>2026-01-06T20:32:44.000Z</time>
        <extensions>
          <ns3:TrackPointExtension>
            <ns3:hr>89</ns3:hr>
            <ns3:cad>44</ns3:cad>
          </ns3:TrackPointExtension>
        </extensions>
      </trkpt>
      <trkpt lat="37.94932703487575054168701171875" lon="-107.110310532152652740478515625">
        <ele>3854.39990234375</ele>
        <time>2026-01-06T20:32:46.000Z</time>
        <extensions>
          <ns3:TrackPointExtension>
            <ns3:hr>88</ns3:hr>
            <ns3:cad>43</ns3:cad>
          </ns3:TrackPointExtension>
        </extensions>
      </trkpt>
      <trkpt lat="37.949317730963230133056640625" lon="-107.1103469096124172210693359375">
        <ele>3854</ele>
        <time>2026-01-06T20:32:49.000Z</time>
        <extensions>
          <ns3:TrackPointExtension>
            <ns3:hr>87</ns3:hr>
            <ns3:cad>43</ns3:cad>
          </ns3:TrackPointExtension>
        </extensions>
      </trkpt>
      <trkpt lat="37.949306666851043701171875" lon="-107.1103931777179241180419921875">
        <ele>3853.60009765625</ele>
        <time>2026-01-06T20:32:53.000Z</time>
        <extensions>
          <ns3:TrackPointExtension>
            <ns3:hr>86</ns3:hr>
            <ns3:cad>42</ns3:cad>
          </ns3:TrackPointExtension>
        </extensions>
      </trkpt>
      <trkpt lat="37.94929753057658672332763671875" lon="-107.11043802089989185333251953125">
        <ele>3852.800048828125</ele>
        <time>2026-01-06T20:32:56.000Z</time>
        <extensions>
          <ns3:TrackPointExtension>
            <ns3:hr>85</ns3:hr>
            <ns3:cad>42</ns3:cad>
          </ns3:TrackPointExtension>
        </extensions>
      </trkpt>
      <trkpt lat="37.9492890648543834686279296875" lon="-107.1104719676077365875244140625">
        <ele>3851.800048828125</ele>
        <time>2026-01-06T20:32:59.000Z</time>
        <extensions>
          <ns3:TrackPointExtension>
            <ns3:hr>84</ns3:hr>
            <ns3:cad>43</ns3:cad>
          </ns3:TrackPointExtension>
        </extensions>
      </trkpt>
      <trkpt lat="37.94928747229278087615966796875" lon="-107.110484205186367034912109375">
        <ele>3851.60009765625</ele>
        <time>2026-01-06T20:33:00.000Z</time>
        <extensions>
          <ns3:TrackPointExtension>
            <ns3:hr>85</ns3:hr>
            <ns3:cad>43</ns3:cad>
          </ns3:TrackPointExtension>
        </extensions>
      </trkpt>
      <trkpt lat="37.9492756538093090057373046875" lon="-107.11054178886115550994873046875">
        <ele>3850.199951171875</ele>
        <time>2026-01-06T20:33:04.000Z</time>
        <extensions>
          <ns3:TrackPointExtension>
            <ns3:hr>84</ns3:hr>
            <ns3:cad>41</ns3:cad>
          </ns3:TrackPointExtension>
        </extensions>
      </trkpt>
      <trkpt lat="37.949266768991947174072265625" lon="-107.1105681918561458587646484375">
        <ele>3849.800048828125</ele>
        <time>2026-01-06T20:33:06.000Z</time>
        <extensions>
          <ns3:TrackPointExtension>
            <ns3:hr>83</ns3:hr>
            <ns3:cad>43</ns3:cad>
          </ns3:TrackPointExtension>
        </extensions>
      </trkpt>
      <trkpt lat="37.949253357946872711181640625" lon="-107.11060322821140289306640625">
        <ele>3849.199951171875</ele>
        <time>2026-01-06T20:33:09.000Z</time>
        <extensions>
          <ns3:TrackPointExtension>
            <ns3:hr>83</ns3:hr>
            <ns3:cad>43</ns3:cad>
          </ns3:TrackPointExtension>
        </extensions>
      </trkpt>
      <trkpt lat="37.94924438931047916412353515625" lon="-107.11064253933727741241455078125">
        <ele>3848.39990234375</ele>
        <time>2026-01-06T20:33:12.000Z</time>
        <extensions>
          <ns3:TrackPointExtension>
            <ns3:hr>82</ns3:hr>
            <ns3:cad>44</ns3:cad>
          </ns3:TrackPointExtension>
        </extensions>
      </trkpt>
      <trkpt lat="37.94923919253051280975341796875" lon="-107.11065829731523990631103515625">
        <ele>3848</ele>
        <time>2026-01-06T20:33:13.000Z</time>
        <extensions>
          <ns3:TrackPointExtension>
            <ns3:hr>81</ns3:hr>
            <ns3:cad>45</ns3:cad>
          </ns3:TrackPointExtension>
        </extensions>
      </trkpt>
      <trkpt lat="37.9492342472076416015625" lon="-107.11066986434161663055419921875">
        <ele>3847.800048828125</ele>
        <time>2026-01-06T20:33:14.000Z</time>
        <extensions>
          <ns3:TrackPointExtension>
            <ns3:hr>78</ns3:hr>
            <ns3:cad>45</ns3:cad>
          </ns3:TrackPointExtension>
        </extensions>
      </trkpt>
      <trkpt lat="37.94922553002834320068359375" lon="-107.11072065867483615875244140625">
        <ele>3847.60009765625</ele>
        <time>2026-01-06T20:33:18.000Z</time>
        <extensions>
          <ns3:TrackPointExtension>
            <ns3:hr>78</ns3:hr>
            <ns3:cad>42</ns3:cad>
          </ns3:TrackPointExtension>
        </extensions>
      </trkpt>
      <trkpt lat="37.9492109455168247222900390625" lon="-107.11076290346682071685791015625">
        <ele>3846.800048828125</ele>
        <time>2026-01-06T20:33:21.000Z</time>
        <extensions>
          <ns3:TrackPointExtension>
            <ns3:hr>78</ns3:hr>
            <ns3:cad>43</ns3:cad>
          </ns3:TrackPointExtension>
        </extensions>
      </trkpt>
      <trkpt lat="37.9491998814046382904052734375" lon="-107.1107827685773372650146484375">
        <ele>3845.800048828125</ele>
        <time>2026-01-06T20:33:24.000Z</time>
        <extensions>
          <ns3:TrackPointExtension>
            <ns3:hr>78</ns3:hr>
            <ns3:cad>45</ns3:cad>
          </ns3:TrackPointExtension>
        </extensions>
      </trkpt>
      <trkpt lat="37.94918286614120006561279296875" lon="-107.11083163507282733917236328125">
        <ele>3844.800048828125</ele>
        <time>2026-01-06T20:33:29.000Z</time>
        <extensions>
          <ns3:TrackPointExtension>
            <ns3:hr>79</ns3:hr>
            <ns3:cad>47</ns3:cad>
          </ns3:TrackPointExtension>
        </extensions>
      </trkpt>
      <trkpt lat="37.94918336905539035797119140625" lon="-107.11083414964377880096435546875">
        <ele>3844.39990234375</ele>
        <time>2026-01-06T20:33:30.000Z</time>
        <extensions>
          <ns3:TrackPointExtension>
            <ns3:hr>78</ns3:hr>
            <ns3:cad>47</ns3:cad>
          </ns3:TrackPointExtension>
        </extensions>
      </trkpt>
      <trkpt lat="37.94918663799762725830078125" lon="-107.110832892358303070068359375">
        <ele>3843</ele>
        <time>2026-01-06T20:33:32.000Z</time>
        <extensions>
          <ns3:TrackPointExtension>
            <ns3:hr>78</ns3:hr>
            <ns3:cad>0</ns3:cad>
          </ns3:TrackPointExtension>
        </extensions>
      </trkpt>
      <trkpt lat="37.94918663799762725830078125" lon="-107.110832892358303070068359375">
        <ele>3841.800048828125</ele>
        <time>2026-01-06T20:33:34.000Z</time>
        <extensions>
          <ns3:TrackPointExtension>
            <ns3:hr>77</ns3:hr>
            <ns3:cad>0</ns3:cad>
          </ns3:TrackPointExtension>
        </extensions>
      </trkpt>
      <trkpt lat="37.94918663799762725830078125" lon="-107.110832892358303070068359375">
        <ele>3841.800048828125</ele>
        <time>2026-01-06T20:33:36.000Z</time>
        <extensions>
          <ns3:TrackPointExtension>
            <ns3:hr>77</ns3:hr>
            <ns3:cad>0</ns3:cad>
          </ns3:TrackPointExtension>
        </extensions>
      </trkpt>
      <trkpt lat="37.94918663799762725830078125" lon="-107.110832892358303070068359375">
        <ele>3842.800048828125</ele>
        <time>2026-01-06T20:33:40.000Z</time>
        <extensions>
          <ns3:TrackPointExtension>
            <ns3:hr>78</ns3:hr>
            <ns3:cad>0</ns3:cad>
          </ns3:TrackPointExtension>
        </extensions>
      </trkpt>
      <trkpt lat="37.94918663799762725830078125" lon="-107.110832892358303070068359375">
        <ele>3844</ele>
        <time>2026-01-06T20:33:44.000Z</time>
        <extensions>
          <ns3:TrackPointExtension>
            <ns3:hr>78</ns3:hr>
            <ns3:cad>0</ns3:cad>
          </ns3:TrackPointExtension>
        </extensions>
      </trkpt>
      <trkpt lat="37.94918663799762725830078125" lon="-107.110832892358303070068359375">
        <ele>3843.60009765625</ele>
        <time>2026-01-06T20:33:46.000Z</time>
        <extensions>
          <ns3:TrackPointExtension>
            <ns3:hr>80</ns3:hr>
            <ns3:cad>0</ns3:cad>
          </ns3:TrackPointExtension>
        </extensions>
      </trkpt>
      <trkpt lat="37.94918437488377094268798828125" lon="-107.11084001697599887847900390625">
        <ele>3842.60009765625</ele>
        <time>2026-01-06T20:33:51.000Z</time>
        <extensions>
          <ns3:TrackPointExtension>
            <ns3:hr>83</ns3:hr>
            <ns3:cad>0</ns3:cad>
          </ns3:TrackPointExtension>
        </extensions>
      </trkpt>
      <trkpt lat="37.94916761107742786407470703125" lon="-107.1108840219676494598388671875">
        <ele>3842.39990234375</ele>
        <time>2026-01-06T20:33:54.000Z</time>
        <extensions>
          <ns3:TrackPointExtension>
            <ns3:hr>83</ns3:hr>
            <ns3:cad>0</ns3:cad>
          </ns3:TrackPointExtension>
        </extensions>
      </trkpt>
      <trkpt lat="37.94914497993886470794677734375" lon="-107.11095367558300495147705078125">
        <ele>3842.60009765625</ele>
        <time>2026-01-06T20:34:00.000Z</time>
        <extensions>
          <ns3:TrackPointExtension>
            <ns3:hr>81</ns3:hr>
            <ns3:cad>0</ns3:cad>
          </ns3:TrackPointExtension>
        </extensions>
      </trkpt>
      <trkpt lat="37.949141375720500946044921875" lon="-107.11096691899001598358154296875">
        <ele>3842.199951171875</ele>
        <time>2026-01-06T20:34:01.000Z</time>
        <extensions>
          <ns3:TrackPointExtension>
            <ns3:hr>81</ns3:hr>
            <ns3:cad>0</ns3:cad>
          </ns3:TrackPointExtension>
        </extensions>
      </trkpt>
      <trkpt lat="37.94913232326507568359375" lon="-107.1109849400818347930908203125">
        <ele>3841.39990234375</ele>
        <time>2026-01-06T20:34:03.000Z</time>
        <extensions>
          <ns3:TrackPointExtension>
            <ns3:hr>80</ns3:hr>
            <ns3:cad>43</ns3:cad>
          </ns3:TrackPointExtension>
        </extensions>
      </trkpt>
      <trkpt lat="37.94912788085639476776123046875" lon="-107.1110419370234012603759765625">
        <ele>3840.199951171875</ele>
        <time>2026-01-06T20:34:07.000Z</time>
        <extensions>
          <ns3:TrackPointExtension>
            <ns3:hr>81</ns3:hr>
            <ns3:cad>48</ns3:cad>
          </ns3:TrackPointExtension>
        </extensions>
      </trkpt>
      <trkpt lat="37.94912385754287242889404296875" lon="-107.111069597303867340087890625">
        <ele>3839.199951171875</ele>
        <time>2026-01-06T20:34:09.000Z</time>
        <extensions>
          <ns3:TrackPointExtension>
            <ns3:hr>81</ns3:hr>
            <ns3:cad>80</ns3:cad>
          </ns3:TrackPointExtension>
        </extensions>
      </trkpt>
      <trkpt lat="37.9491086862981319427490234375" lon="-107.11112315766513347625732421875">
        <ele>3838.60009765625</ele>
        <time>2026-01-06T20:34:13.000Z</time>
        <extensions>
          <ns3:TrackPointExtension>
            <ns3:hr>80</ns3:hr>
            <ns3:cad>78</ns3:cad>
          </ns3:TrackPointExtension>
        </extensions>
      </trkpt>
      <trkpt lat="37.94910374097526073455810546875" lon="-107.11116573773324489593505859375">
        <ele>3838.199951171875</ele>
        <time>2026-01-06T20:34:16.000Z</time>
        <extensions>
          <ns3:TrackPointExtension>
            <ns3:hr>80</ns3:hr>
            <ns3:cad>43</ns3:cad>
          </ns3:TrackPointExtension>
        </extensions>
      </trkpt>
      <trkpt lat="37.9490956105291843414306640625" lon="-107.11119473911821842193603515625">
        <ele>3837.60009765625</ele>
        <time>2026-01-06T20:34:18.000Z</time>
        <extensions>
          <ns3:TrackPointExtension>
            <ns3:hr>81</ns3:hr>
            <ns3:cad>43</ns3:cad>
          </ns3:TrackPointExtension>
        </extensions>
      </trkpt>
      <trkpt lat="37.94908999465405941009521484375" lon="-107.11123220622539520263671875">
        <ele>3837</ele>
        <time>2026-01-06T20:34:21.000Z</time>
        <extensions>
          <ns3:TrackPointExtension>
            <ns3:hr>81</ns3:hr>
            <ns3:cad>44</ns3:cad>
          </ns3:TrackPointExtension>
        </extensions>
      </trkpt>
      <trkpt lat="37.94908748008310794830322265625" lon="-107.1112568490207195281982421875">
        <ele>3836.39990234375</ele>
        <time>2026-01-06T20:34:23.000Z</time>
        <extensions>
          <ns3:TrackPointExtension>
            <ns3:hr>85</ns3:hr>
            <ns3:cad>43</ns3:cad>
          </ns3:TrackPointExtension>
        </extensions>
      </trkpt>
      <trkpt lat="37.9490855522453784942626953125" lon="-107.11126975715160369873046875">
        <ele>3836</ele>
        <time>2026-01-06T20:34:24.000Z</time>
        <extensions>
          <ns3:TrackPointExtension>
            <ns3:hr>86</ns3:hr>
            <ns3:cad>43</ns3:cad>
          </ns3:TrackPointExtension>
        </extensions>
      </trkpt>
      <trkpt lat="37.949083708226680755615234375" lon="-107.1112880297005176544189453125">
        <ele>3835.800048828125</ele>
        <time>2026-01-06T20:34:25.000Z</time>
        <extensions>
          <ns3:TrackPointExtension>
            <ns3:hr>86</ns3:hr>
            <ns3:cad>43</ns3:cad>
          </ns3:TrackPointExtension>
        </extensions>
      </trkpt>
      <trkpt lat="37.9490634240210056304931640625" lon="-107.1113416738808155059814453125">
        <ele>3834.60009765625</ele>
        <time>2026-01-06T20:34:30.000Z</time>
        <extensions>
          <ns3:TrackPointExtension>
            <ns3:hr>86</ns3:hr>
            <ns3:cad>0</ns3:cad>
          </ns3:TrackPointExtension>
        </extensions>
      </trkpt>
      <trkpt lat="37.94905311428010463714599609375" lon="-107.11134351789951324462890625">
        <ele>3834.39990234375</ele>
        <time>2026-01-06T20:34:31.000Z</time>
        <extensions>
          <ns3:TrackPointExtension>
            <ns3:hr>86</ns3:hr>
            <ns3:cad>0</ns3:cad>
          </ns3:TrackPointExtension>
        </extensions>
      </trkpt>
      <trkpt lat="37.9490064270794391632080078125" lon="-107.111358940601348876953125">
        <ele>3833.60009765625</ele>
        <time>2026-01-06T20:34:35.000Z</time>
        <extensions>
          <ns3:TrackPointExtension>
            <ns3:hr>85</ns3:hr>
            <ns3:cad>0</ns3:cad>
          </ns3:TrackPointExtension>
        </extensions>
      </trkpt>
      <trkpt lat="37.94895621947944164276123046875" lon="-107.11139573715627193450927734375">
        <ele>3832.60009765625</ele>
        <time>2026-01-06T20:34:41.000Z</time>
        <extensions>
          <ns3:TrackPointExtension>
            <ns3:hr>85</ns3:hr>
            <ns3:cad>0</ns3:cad>
          </ns3:TrackPointExtension>
        </extensions>
      </trkpt>
      <trkpt lat="37.9488922655582427978515625" lon="-107.11141870357096195220947265625">
        <ele>3832</ele>
        <time>2026-01-06T20:34:47.000Z</time>
        <extensions>
          <ns3:TrackPointExtension>
            <ns3:hr>86</ns3:hr>
            <ns3:cad>46</ns3:cad>
          </ns3:TrackPointExtension>
        </extensions>
      </trkpt>
      <trkpt lat="37.94882378540933132171630859375" lon="-107.11144753731787204742431640625">
        <ele>3831.60009765625</ele>
        <time>2026-01-06T20:34:53.000Z</time>
        <extensions>
          <ns3:TrackPointExtension>
            <ns3:hr>85</ns3:hr>
            <ns3:cad>49</ns3:cad>
          </ns3:TrackPointExtension>
        </extensions>
      </trkpt>
      <trkpt lat="37.94881070964038372039794921875" lon="-107.11145256645977497100830078125">
        <ele>3831.199951171875</ele>
        <time>2026-01-06T20:34:54.000Z</time>
        <extensions>
          <ns3:TrackPointExtension>
            <ns3:hr>84</ns3:hr>
            <ns3:cad>49</ns3:cad>
          </ns3:TrackPointExtension>
        </extensions>
      </trkpt>
      <trkpt lat="37.94876125641167163848876953125" lon="-107.111481986939907073974609375">
        <ele>3830</ele>
        <time>2026-01-06T20:34:59.000Z</time>
        <extensions>
          <ns3:TrackPointExtension>
            <ns3:hr>83</ns3:hr>
            <ns3:cad>47</ns3:cad>
          </ns3:TrackPointExtension>
        </extensions>
      </trkpt>
      <trkpt lat="37.94873476959764957427978515625" lon="-107.111492715775966644287109375">
        <ele>3829.39990234375</ele>
        <time>2026-01-06T20:35:01.000Z</time>
        <extensions>
          <ns3:TrackPointExtension>
            <ns3:hr>80</ns3:hr>
            <ns3:cad>47</ns3:cad>
          </ns3:TrackPointExtension>
        </extensions>
      </trkpt>
      <trkpt lat="37.9487298242747783660888671875" lon="-107.11149933747947216033935546875">
        <ele>3829</ele>
        <time>2026-01-06T20:35:02.000Z</time>
        <extensions>
          <ns3:TrackPointExtension>
            <ns3:hr>79</ns3:hr>
            <ns3:cad>0</ns3:cad>
          </ns3:TrackPointExtension>
        </extensions>
      </trkpt>
      <trkpt lat="37.9487120546400547027587890625" lon="-107.1115150116384029388427734375">
        <ele>3828.60009765625</ele>
        <time>2026-01-06T20:35:04.000Z</time>
        <extensions>
          <ns3:TrackPointExtension>
            <ns3:hr>79</ns3:hr>
            <ns3:cad>0</ns3:cad>
          </ns3:TrackPointExtension>
        </extensions>
      </trkpt>
      <trkpt lat="37.94866151176393032073974609375" lon="-107.1115374751389026641845703125">
        <ele>3828.60009765625</ele>
        <time>2026-01-06T20:35:10.000Z</time>
        <extensions>
          <ns3:TrackPointExtension>
            <ns3:hr>77</ns3:hr>
            <ns3:cad>0</ns3:cad>
          </ns3:TrackPointExtension>
        </extensions>
      </trkpt>
      <trkpt lat="37.948639802634716033935546875" lon="-107.11155097000300884246826171875">
        <ele>3828</ele>
        <time>2026-01-06T20:35:12.000Z</time>
        <extensions>
          <ns3:TrackPointExtension>
            <ns3:hr>77</ns3:hr>
            <ns3:cad>0</ns3:cad>
          </ns3:TrackPointExtension>
        </extensions>
      </trkpt>
      <trkpt lat="37.94860401190817356109619140625" lon="-107.11157846264541149139404296875">
        <ele>3827.39990234375</ele>
        <time>2026-01-06T20:35:16.000Z</time>
        <extensions>
          <ns3:TrackPointExtension>
            <ns3:hr>78</ns3:hr>
            <ns3:cad>0</ns3:cad>
          </ns3:TrackPointExtension>
        </extensions>
      </trkpt>
      <trkpt lat="37.94858121313154697418212890625" lon="-107.11160025559365749359130859375">
        <ele>3826.60009765625</ele>
        <time>2026-01-06T20:35:18.000Z</time>
        <extensions>
          <ns3:TrackPointExtension>
            <ns3:hr>78</ns3:hr>
            <ns3:cad>0</ns3:cad>
          </ns3:TrackPointExtension>
        </extensions>
      </trkpt>
      <trkpt lat="37.94854869134724140167236328125" lon="-107.11161819286644458770751953125">
        <ele>3825.39990234375</ele>
        <time>2026-01-06T20:35:21.000Z</time>
        <extensions>
          <ns3:TrackPointExtension>
            <ns3:hr>78</ns3:hr>
            <ns3:cad>46</ns3:cad>
          </ns3:TrackPointExtension>
        </extensions>
      </trkpt>
      <trkpt lat="37.94849823229014873504638671875" lon="-107.11164702661335468292236328125">
        <ele>3824.60009765625</ele>
        <time>2026-01-06T20:35:27.000Z</time>
        <extensions>
          <ns3:TrackPointExtension>
            <ns3:hr>76</ns3:hr>
            <ns3:cad>0</ns3:cad>
          </ns3:TrackPointExtension>
        </extensions>
      </trkpt>
      <trkpt lat="37.94849102385342121124267578125" lon="-107.1116484515368938446044921875">
        <ele>3824.39990234375</ele>
        <time>2026-01-06T20:35:28.000Z</time>
        <extensions>
          <ns3:TrackPointExtension>
            <ns3:hr>76</ns3:hr>
            <ns3:cad>0</ns3:cad>
          </ns3:TrackPointExtension>
        </extensions>
      </trkpt>
      <trkpt lat="37.94843318872153759002685546875" lon="-107.11167938075959682464599609375">
        <ele>3823.60009765625</ele>
        <time>2026-01-06T20:35:34.000Z</time>
        <extensions>
          <ns3:TrackPointExtension>
            <ns3:hr>78</ns3:hr>
            <ns3:cad>0</ns3:cad>
          </ns3:TrackPointExtension>
        </extensions>
      </trkpt>
      <trkpt lat="37.94842715375125408172607421875" lon="-107.111685834825038909912109375">
        <ele>3823.39990234375</ele>
        <time>2026-01-06T20:35:35.000Z</time>
        <extensions>
          <ns3:TrackPointExtension>
            <ns3:hr>78</ns3:hr>
            <ns3:cad>0</ns3:cad>
          </ns3:TrackPointExtension>
        </extensions>
      </trkpt>
      <trkpt lat="37.94837032444775104522705078125" lon="-107.111728750169277191162109375">
        <ele>3822.800048828125</ele>
        <time>2026-01-06T20:35:41.000Z</time>
        <extensions>
          <ns3:TrackPointExtension>
            <ns3:hr>80</ns3:hr>
            <ns3:cad>50</ns3:cad>
          </ns3:TrackPointExtension>
        </extensions>
      </trkpt>
      <trkpt lat="37.948359511792659759521484375" lon="-107.1117386408150196075439453125">
        <ele>3822.60009765625</ele>
        <time>2026-01-06T20:35:42.000Z</time>
        <extensions>
          <ns3:TrackPointExtension>
            <ns3:hr>80</ns3:hr>
            <ns3:cad>50</ns3:cad>
          </ns3:TrackPointExtension>
        </extensions>
      </trkpt>
      <trkpt lat="37.9483492858707904815673828125" lon="-107.111745513975620269775390625">
        <ele>3822.199951171875</ele>
        <time>2026-01-06T20:35:43.000Z</time>
        <extensions>
          <ns3:TrackPointExtension>
            <ns3:hr>80</ns3:hr>
            <ns3:cad>50</ns3:cad>
          </ns3:TrackPointExtension>
        </extensions>
      </trkpt>
      <trkpt lat="37.94829656369984149932861328125" lon="-107.11178231053054332733154296875">
        <ele>3821.199951171875</ele>
        <time>2026-01-06T20:35:49.000Z</time>
        <extensions>
          <ns3:TrackPointExtension>
            <ns3:hr>80</ns3:hr>
            <ns3:cad>43</ns3:cad>
          </ns3:TrackPointExtension>
        </extensions>
      </trkpt>
      <trkpt lat="37.948249876499176025390625" lon="-107.111807875335216522216796875">
        <ele>3820</ele>
        <time>2026-01-06T20:35:54.000Z</time>
        <extensions>
          <ns3:TrackPointExtension>
            <ns3:hr>80</ns3:hr>
            <ns3:cad>45</ns3:cad>
          </ns3:TrackPointExtension>
        </extensions>
      </trkpt>
      <trkpt lat="37.94823311269283294677734375" lon="-107.11182371713221073150634765625">
        <ele>3820</ele>
        <time>2026-01-06T20:35:56.000Z</time>
        <extensions>
          <ns3:TrackPointExtension>
            <ns3:hr>80</ns3:hr>
            <ns3:cad>45</ns3:cad>
          </ns3:TrackPointExtension>
        </extensions>
      </trkpt>
      <trkpt lat="37.948189191520214080810546875" lon="-107.11187082342803478240966796875">
        <ele>3819</ele>
        <time>2026-01-06T20:36:02.000Z</time>
        <extensions>
          <ns3:TrackPointExtension>
            <ns3:hr>80</ns3:hr>
            <ns3:cad>43</ns3:cad>
          </ns3:TrackPointExtension>
        </extensions>
      </trkpt>
      <trkpt lat="37.9481628723442554473876953125" lon="-107.11189127527177333831787109375">
        <ele>3817.800048828125</ele>
        <time>2026-01-06T20:36:06.000Z</time>
        <extensions>
          <ns3:TrackPointExtension>
            <ns3:hr>79</ns3:hr>
            <ns3:cad>43</ns3:cad>
          </ns3:TrackPointExtension>
        </extensions>
      </trkpt>
      <trkpt lat="37.948153316974639892578125" lon="-107.111895717680454254150390625">
        <ele>3817.60009765625</ele>
        <time>2026-01-06T20:36:07.000Z</time>
        <extensions>
          <ns3:TrackPointExtension>
            <ns3:hr>79</ns3:hr>
            <ns3:cad>43</ns3:cad>
          </ns3:TrackPointExtension>
        </extensions>
      </trkpt>
      <trkpt lat="37.94810193590819835662841796875" lon="-107.11192329414188861846923828125">
        <ele>3816.800048828125</ele>
        <time>2026-01-06T20:36:13.000Z</time>
        <extensions>
          <ns3:TrackPointExtension>
            <ns3:hr>79</ns3:hr>
            <ns3:cad>40</ns3:cad>
          </ns3:TrackPointExtension>
        </extensions>
      </trkpt>
      <trkpt lat="37.94809707440435886383056640625" lon="-107.11192899383604526519775390625">
        <ele>3816.60009765625</ele>
        <time>2026-01-06T20:36:14.000Z</time>
        <extensions>
          <ns3:TrackPointExtension>
            <ns3:hr>79</ns3:hr>
            <ns3:cad>40</ns3:cad>
          </ns3:TrackPointExtension>
        </extensions>
      </trkpt>
      <trkpt lat="37.94805935584008693695068359375" lon="-107.1119619347155094146728515625">
        <ele>3815.800048828125</ele>
        <time>2026-01-06T20:36:18.000Z</time>
        <extensions>
          <ns3:TrackPointExtension>
            <ns3:hr>78</ns3:hr>
            <ns3:cad>43</ns3:cad>
          </ns3:TrackPointExtension>
        </extensions>
      </trkpt>
      <trkpt lat="37.94801694341003894805908203125" lon="-107.11198112927377223968505859375">
        <ele>3815.39990234375</ele>
        <time>2026-01-06T20:36:22.000Z</time>
        <extensions>
          <ns3:TrackPointExtension>
            <ns3:hr>80</ns3:hr>
            <ns3:cad>47</ns3:cad>
          </ns3:TrackPointExtension>
        </extensions>
      </trkpt>
      <trkpt lat="37.9479881934821605682373046875" lon="-107.112003676593303680419921875">
        <ele>3815.199951171875</ele>
        <time>2026-01-06T20:36:25.000Z</time>
        <extensions>
          <ns3:TrackPointExtension>
            <ns3:hr>79</ns3:hr>
            <ns3:cad>45</ns3:cad>
          </ns3:TrackPointExtension>
        </extensions>
      </trkpt>
      <trkpt lat="37.94795307330787181854248046875" lon="-107.1120393835008144378662109375">
        <ele>3814.39990234375</ele>
        <time>2026-01-06T20:36:29.000Z</time>
        <extensions>
          <ns3:TrackPointExtension>
            <ns3:hr>78</ns3:hr>
            <ns3:cad>48</ns3:cad>
          </ns3:TrackPointExtension>
        </extensions>
      </trkpt>
      <trkpt lat="37.9479442723095417022705078125" lon="-107.11205572821199893951416015625">
        <ele>3814.199951171875</ele>
        <time>2026-01-06T20:36:31.000Z</time>
        <extensions>
          <ns3:TrackPointExtension>
            <ns3:hr>78</ns3:hr>
            <ns3:cad>0</ns3:cad>
          </ns3:TrackPointExtension>
        </extensions>
      </trkpt>
      <trkpt lat="37.94791770167648792266845703125" lon="-107.1120725758373737335205078125">
        <ele>3813.199951171875</ele>
        <time>2026-01-06T20:36:34.000Z</time>
        <extensions>
          <ns3:TrackPointExtension>
            <ns3:hr>79</ns3:hr>
            <ns3:cad>0</ns3:cad>
          </ns3:TrackPointExtension>
        </extensions>
      </trkpt>
      <trkpt lat="37.94788870029151439666748046875" lon="-107.11208774708211421966552734375">
        <ele>3812</ele>
        <time>2026-01-06T20:36:37.000Z</time>
        <extensions>
          <ns3:TrackPointExtension>
            <ns3:hr>78</ns3:hr>
            <ns3:cad>47</ns3:cad>
          </ns3:TrackPointExtension>
        </extensions>
      </trkpt>
      <trkpt lat="37.94784553349018096923828125" lon="-107.11210132576525211334228515625">
        <ele>3810.800048828125</ele>
        <time>2026-01-06T20:36:42.000Z</time>
        <extensions>
          <ns3:TrackPointExtension>
            <ns3:hr>78</ns3:hr>
            <ns3:cad>41</ns3:cad>
          </ns3:TrackPointExtension>
        </extensions>
      </trkpt>
      <trkpt lat="37.9478393308818340301513671875" lon="-107.11210752837359905242919921875">
        <ele>3810.800048828125</ele>
        <time>2026-01-06T20:36:43.000Z</time>
        <extensions>
          <ns3:TrackPointExtension>
            <ns3:hr>78</ns3:hr>
            <ns3:cad>41</ns3:cad>
          </ns3:TrackPointExtension>
        </extensions>
      </trkpt>
      <trkpt lat="37.94779725372791290283203125" lon="-107.112114988267421722412109375">
        <ele>3809.800048828125</ele>
        <time>2026-01-06T20:36:47.000Z</time>
        <extensions>
          <ns3:TrackPointExtension>
            <ns3:hr>77</ns3:hr>
            <ns3:cad>0</ns3:cad>
          </ns3:TrackPointExtension>
        </extensions>
      </trkpt>
      <trkpt lat="37.94778090901672840118408203125" lon="-107.11212613619863986968994140625">
        <ele>3809.39990234375</ele>
        <time>2026-01-06T20:36:49.000Z</time>
        <extensions>
          <ns3:TrackPointExtension>
            <ns3:hr>77</ns3:hr>
            <ns3:cad>48</ns3:cad>
          </ns3:TrackPointExtension>
        </extensions>
      </trkpt>
      <trkpt lat="37.94777671806514263153076171875" lon="-107.11214491166174411773681640625">
        <ele>3809.39990234375</ele>
        <time>2026-01-06T20:36:52.000Z</time>
        <extensions>
          <ns3:TrackPointExtension>
            <ns3:hr>76</ns3:hr>
            <ns3:cad>48</ns3:cad>
          </ns3:TrackPointExtension>
        </extensions>
      </trkpt>
      <trkpt lat="37.9477514885365962982177734375" lon="-107.1122110448777675628662109375">
        <ele>3808.800048828125</ele>
        <time>2026-01-06T20:36:58.000Z</time>
        <extensions>
          <ns3:TrackPointExtension>
            <ns3:hr>76</ns3:hr>
            <ns3:cad>0</ns3:cad>
          </ns3:TrackPointExtension>
        </extensions>
      </trkpt>
      <trkpt lat="37.9477484710514545440673828125" lon="-107.112223617732524871826171875">
        <ele>3808.60009765625</ele>
        <time>2026-01-06T20:36:59.000Z</time>
        <extensions>
          <ns3:TrackPointExtension>
            <ns3:hr>75</ns3:hr>
            <ns3:cad>0</ns3:cad>
          </ns3:TrackPointExtension>
        </extensions>
      </trkpt>
      <trkpt lat="37.947736568748950958251953125" lon="-107.11226292885839939117431640625">
        <ele>3807.60009765625</ele>
        <time>2026-01-06T20:37:03.000Z</time>
        <extensions>
          <ns3:TrackPointExtension>
            <ns3:hr>75</ns3:hr>
            <ns3:cad>0</ns3:cad>
          </ns3:TrackPointExtension>
        </extensions>
      </trkpt>
      <trkpt lat="37.9477320425212383270263671875" lon="-107.11228187195956707000732421875">
        <ele>3807.199951171875</ele>
        <time>2026-01-06T20:37:05.000Z</time>
        <extensions>
          <ns3:TrackPointExtension>
            <ns3:hr>75</ns3:hr>
            <ns3:cad>43</ns3:cad>
          </ns3:TrackPointExtension>
        </extensions>
      </trkpt>
      <trkpt lat="37.94772894121706485748291015625" lon="-107.1123163215816020965576171875">
        <ele>3806.39990234375</ele>
        <time>2026-01-06T20:37:08.000Z</time>
        <extensions>
          <ns3:TrackPointExtension>
            <ns3:hr>75</ns3:hr>
            <ns3:cad>46</ns3:cad>
          </ns3:TrackPointExtension>
        </extensions>
      </trkpt>
      <trkpt lat="37.9477186314761638641357421875" lon="-107.112365774810314178466796875">
        <ele>3805.39990234375</ele>
        <time>2026-01-06T20:37:13.000Z</time>
        <extensions>
          <ns3:TrackPointExtension>
            <ns3:hr>74</ns3:hr>
            <ns3:cad>44</ns3:cad>
          </ns3:TrackPointExtension>
        </extensions>
      </trkpt>
      <trkpt lat="37.9477089084684848785400390625" lon="-107.11240776814520359039306640625">
        <ele>3804.199951171875</ele>
        <time>2026-01-06T20:37:17.000Z</time>
        <extensions>
          <ns3:TrackPointExtension>
            <ns3:hr>73</ns3:hr>
            <ns3:cad>41</ns3:cad>
          </ns3:TrackPointExtension>
        </extensions>
      </trkpt>
      <trkpt lat="37.94770547188818454742431640625" lon="-107.11243157275021076202392578125">
        <ele>3803.800048828125</ele>
        <time>2026-01-06T20:37:19.000Z</time>
        <extensions>
          <ns3:TrackPointExtension>
            <ns3:hr>73</ns3:hr>
            <ns3:cad>41</ns3:cad>
          </ns3:TrackPointExtension>
        </extensions>
      </trkpt>
      <trkpt lat="37.947699017822742462158203125" lon="-107.11246744729578495025634765625">
        <ele>3803.199951171875</ele>
        <time>2026-01-06T20:37:22.000Z</time>
        <extensions>
          <ns3:TrackPointExtension>
            <ns3:hr>72</ns3:hr>
            <ns3:cad>41</ns3:cad>
          </ns3:TrackPointExtension>
        </extensions>
      </trkpt>
      <trkpt lat="37.94769474305212497711181640625" lon="-107.11249954998493194580078125">
        <ele>3802.39990234375</ele>
        <time>2026-01-06T20:37:25.000Z</time>
        <extensions>
          <ns3:TrackPointExtension>
            <ns3:hr>72</ns3:hr>
            <ns3:cad>42</ns3:cad>
          </ns3:TrackPointExtension>
        </extensions>
      </trkpt>
      <trkpt lat="37.94769373722374439239501953125" lon="-107.1125121228396892547607421875">
        <ele>3802.199951171875</ele>
        <time>2026-01-06T20:37:26.000Z</time>
        <extensions>
          <ns3:TrackPointExtension>
            <ns3:hr>73</ns3:hr>
            <ns3:cad>44</ns3:cad>
          </ns3:TrackPointExtension>
        </extensions>
      </trkpt>
      <trkpt lat="37.947676889598369598388671875" lon="-107.112583704292774200439453125">
        <ele>3801.199951171875</ele>
        <time>2026-01-06T20:37:32.000Z</time>
        <extensions>
          <ns3:TrackPointExtension>
            <ns3:hr>71</ns3:hr>
            <ns3:cad>45</ns3:cad>
          </ns3:TrackPointExtension>
        </extensions>
      </trkpt>
      <trkpt lat="37.947676219046115875244140625" lon="-107.112595774233341217041015625">
        <ele>3801</ele>
        <time>2026-01-06T20:37:33.000Z</time>
        <extensions>
          <ns3:TrackPointExtension>
            <ns3:hr>72</ns3:hr>
            <ns3:cad>45</ns3:cad>
          </ns3:TrackPointExtension>
        </extensions>
      </trkpt>
      <trkpt lat="37.9476609639823436737060546875" lon="-107.1126450598239898681640625">
        <ele>3799.800048828125</ele>
        <time>2026-01-06T20:37:38.000Z</time>
        <extensions>
          <ns3:TrackPointExtension>
            <ns3:hr>73</ns3:hr>
            <ns3:cad>44</ns3:cad>
          </ns3:TrackPointExtension>
        </extensions>
      </trkpt>
      <trkpt lat="37.947657443583011627197265625" lon="-107.11265620775520801544189453125">
        <ele>3799.60009765625</ele>
        <time>2026-01-06T20:37:39.000Z</time>
        <extensions>
          <ns3:TrackPointExtension>
            <ns3:hr>73</ns3:hr>
            <ns3:cad>44</ns3:cad>
          </ns3:TrackPointExtension>
        </extensions>
      </trkpt>
      <trkpt lat="37.9476522468030452728271484375" lon="-107.11269996128976345062255859375">
        <ele>3798.800048828125</ele>
        <time>2026-01-06T20:37:43.000Z</time>
        <extensions>
          <ns3:TrackPointExtension>
            <ns3:hr>73</ns3:hr>
            <ns3:cad>0</ns3:cad>
          </ns3:TrackPointExtension>
        </extensions>
      </trkpt>
      <trkpt lat="37.9476519115269184112548828125" lon="-107.11271236650645732879638671875">
        <ele>3798.39990234375</ele>
        <time>2026-01-06T20:37:44.000Z</time>
        <extensions>
          <ns3:TrackPointExtension>
            <ns3:hr>72</ns3:hr>
            <ns3:cad>0</ns3:cad>
          </ns3:TrackPointExtension>
        </extensions>
      </trkpt>
      <trkpt lat="37.9476408474147319793701171875" lon="-107.112760730087757110595703125">
        <ele>3797.60009765625</ele>
        <time>2026-01-06T20:37:48.000Z</time>
        <extensions>
          <ns3:TrackPointExtension>
            <ns3:hr>72</ns3:hr>
            <ns3:cad>42</ns3:cad>
          </ns3:TrackPointExtension>
        </extensions>
      </trkpt>
      <trkpt lat="37.9476371593773365020751953125" lon="-107.11278126575052738189697265625">
        <ele>3797.199951171875</ele>
        <time>2026-01-06T20:37:50.000Z</time>
        <extensions>
          <ns3:TrackPointExtension>
            <ns3:hr>73</ns3:hr>
            <ns3:cad>44</ns3:cad>
          </ns3:TrackPointExtension>
        </extensions>
      </trkpt>
      <trkpt lat="37.94763271696865558624267578125" lon="-107.112817056477069854736328125">
        <ele>3796.60009765625</ele>
        <time>2026-01-06T20:37:53.000Z</time>
        <extensions>
          <ns3:TrackPointExtension>
            <ns3:hr>73</ns3:hr>
            <ns3:cad>44</ns3:cad>
          </ns3:TrackPointExtension>
        </extensions>
      </trkpt>
      <trkpt lat="37.947625927627086639404296875" lon="-107.1128220856189727783203125">
        <ele>3796.39990234375</ele>
        <time>2026-01-06T20:37:54.000Z</time>
        <extensions>
          <ns3:TrackPointExtension>
            <ns3:hr>74</ns3:hr>
            <ns3:cad>44</ns3:cad>
          </ns3:TrackPointExtension>
        </extensions>
      </trkpt>
      <trkpt lat="37.94761595316231250762939453125" lon="-107.1128349937498569488525390625">
        <ele>3795.800048828125</ele>
        <time>2026-01-06T20:37:56.000Z</time>
        <extensions>
          <ns3:TrackPointExtension>
            <ns3:hr>74</ns3:hr>
            <ns3:cad>44</ns3:cad>
          </ns3:TrackPointExtension>
        </extensions>
      </trkpt>
      <trkpt lat="37.9475932382047176361083984375" lon="-107.11284496821463108062744140625">
        <ele>3795.39990234375</ele>
        <time>2026-01-06T20:37:58.000Z</time>
        <extensions>
          <ns3:TrackPointExtension>
            <ns3:hr>74</ns3:hr>
            <ns3:cad>44</ns3:cad>
          </ns3:TrackPointExtension>
        </extensions>
      </trkpt>
      <trkpt lat="37.9475699365139007568359375" lon="-107.112864665687084197998046875">
        <ele>3795</ele>
        <time>2026-01-06T20:38:01.000Z</time>
        <extensions>
          <ns3:TrackPointExtension>
            <ns3:hr>75</ns3:hr>
            <ns3:cad>0</ns3:cad>
          </ns3:TrackPointExtension>
        </extensions>
      </trkpt>
      <trkpt lat="37.94753464870154857635498046875" lon="-107.1129007078707218170166015625">
        <ele>3794.199951171875</ele>
        <time>2026-01-06T20:38:06.000Z</time>
        <extensions>
          <ns3:TrackPointExtension>
            <ns3:hr>74</ns3:hr>
            <ns3:cad>0</ns3:cad>
          </ns3:TrackPointExtension>
        </extensions>
      </trkpt>
      <trkpt lat="37.94752224348485469818115234375" lon="-107.1129132807254791259765625">
        <ele>3793.800048828125</ele>
        <time>2026-01-06T20:38:08.000Z</time>
        <extensions>
          <ns3:TrackPointExtension>
            <ns3:hr>74</ns3:hr>
            <ns3:cad>0</ns3:cad>
          </ns3:TrackPointExtension>
        </extensions>
      </trkpt>
      <trkpt lat="37.94748636893928050994873046875" lon="-107.1129392646253108978271484375">
        <ele>3793</ele>
        <time>2026-01-06T20:38:13.000Z</time>
        <extensions>
          <ns3:TrackPointExtension>
            <ns3:hr>74</ns3:hr>
            <ns3:cad>47</ns3:cad>
          </ns3:TrackPointExtension>
        </extensions>
      </trkpt>
      <trkpt lat="37.947477065026760101318359375" lon="-107.11294747889041900634765625">
        <ele>3792.60009765625</ele>
        <time>2026-01-06T20:38:14.000Z</time>
        <extensions>
          <ns3:TrackPointExtension>
            <ns3:hr>75</ns3:hr>
            <ns3:cad>47</ns3:cad>
          </ns3:TrackPointExtension>
        </extensions>
      </trkpt>
      <trkpt lat="37.94746063649654388427734375" lon="-107.11295946501195430755615234375">
        <ele>3792</ele>
        <time>2026-01-06T20:38:16.000Z</time>
        <extensions>
          <ns3:TrackPointExtension>
            <ns3:hr>75</ns3:hr>
            <ns3:cad>47</ns3:cad>
          </ns3:TrackPointExtension>
        </extensions>
      </trkpt>
      <trkpt lat="37.94744856655597686767578125" lon="-107.1129722893238067626953125">
        <ele>3791.199951171875</ele>
        <time>2026-01-06T20:38:19.000Z</time>
        <extensions>
          <ns3:TrackPointExtension>
            <ns3:hr>76</ns3:hr>
            <ns3:cad>45</ns3:cad>
          </ns3:TrackPointExtension>
        </extensions>
      </trkpt>
      <trkpt lat="37.94741461984813213348388671875" lon="-107.11300003342330455780029296875">
        <ele>3791.39990234375</ele>
        <time>2026-01-06T20:38:24.000Z</time>
        <extensions>
          <ns3:TrackPointExtension>
            <ns3:hr>78</ns3:hr>
            <ns3:cad>42</ns3:cad>
          </ns3:TrackPointExtension>
        </extensions>
      </trkpt>
      <trkpt lat="37.94738930650055408477783203125" lon="-107.1130123548209667205810546875">
        <ele>3790.800048828125</ele>
        <time>2026-01-06T20:38:27.000Z</time>
        <extensions>
          <ns3:TrackPointExtension>
            <ns3:hr>78</ns3:hr>
            <ns3:cad>0</ns3:cad>
          </ns3:TrackPointExtension>
        </extensions>
      </trkpt>
      <trkpt lat="37.947369106113910675048828125" lon="-107.11302082054316997528076171875">
        <ele>3790.39990234375</ele>
        <time>2026-01-06T20:38:29.000Z</time>
        <extensions>
          <ns3:TrackPointExtension>
            <ns3:hr>79</ns3:hr>
            <ns3:cad>0</ns3:cad>
          </ns3:TrackPointExtension>
        </extensions>
      </trkpt>
      <trkpt lat="37.9473169706761837005615234375" lon="-107.11305619217455387115478515625">
        <ele>3789.800048828125</ele>
        <time>2026-01-06T20:38:34.000Z</time>
        <extensions>
          <ns3:TrackPointExtension>
            <ns3:hr>79</ns3:hr>
            <ns3:cad>48</ns3:cad>
          </ns3:TrackPointExtension>
        </extensions>
      </trkpt>
      <trkpt lat="37.94728939421474933624267578125" lon="-107.1130844391882419586181640625">
        <ele>3789.199951171875</ele>
        <time>2026-01-06T20:38:37.000Z</time>
        <extensions>
          <ns3:TrackPointExtension>
            <ns3:hr>80</ns3:hr>
            <ns3:cad>48</ns3:cad>
          </ns3:TrackPointExtension>
        </extensions>
      </trkpt>
      <trkpt lat="37.9472650028765201568603515625" lon="-107.1131048910319805145263671875">
        <ele>3788.800048828125</ele>
        <time>2026-01-06T20:38:40.000Z</time>
        <extensions>
          <ns3:TrackPointExtension>
            <ns3:hr>81</ns3:hr>
            <ns3:cad>50</ns3:cad>
          </ns3:TrackPointExtension>
        </extensions>
      </trkpt>
      <trkpt lat="37.9472344927489757537841796875" lon="-107.1131213195621967315673828125">
        <ele>3787.800048828125</ele>
        <time>2026-01-06T20:38:43.000Z</time>
        <extensions>
          <ns3:TrackPointExtension>
            <ns3:hr>82</ns3:hr>
            <ns3:cad>51</ns3:cad>
          </ns3:TrackPointExtension>
        </extensions>
      </trkpt>
      <trkpt lat="37.94722686521708965301513671875" lon="-107.1131333895027637481689453125">
        <ele>3787.39990234375</ele>
        <time>2026-01-06T20:38:44.000Z</time>
        <extensions>
          <ns3:TrackPointExtension>
            <ns3:hr>82</ns3:hr>
            <ns3:cad>53</ns3:cad>
          </ns3:TrackPointExtension>
        </extensions>
      </trkpt>
      <trkpt lat="37.94720121659338474273681640625" lon="-107.113165073096752166748046875">
        <ele>3786.60009765625</ele>
        <time>2026-01-06T20:38:48.000Z</time>
        <extensions>
          <ns3:TrackPointExtension>
            <ns3:hr>84</ns3:hr>
            <ns3:cad>53</ns3:cad>
          </ns3:TrackPointExtension>
        </extensions>
      </trkpt>
      <trkpt lat="37.94719434343278408050537109375" lon="-107.11317370645701885223388671875">
        <ele>3786.39990234375</ele>
        <time>2026-01-06T20:38:49.000Z</time>
        <extensions>
          <ns3:TrackPointExtension>
            <ns3:hr>84</ns3:hr>
            <ns3:cad>53</ns3:cad>
          </ns3:TrackPointExtension>
        </extensions>
      </trkpt>
      <trkpt lat="37.947155535221099853515625" lon="-107.11322315968573093414306640625">
        <ele>3785.800048828125</ele>
        <time>2026-01-06T20:38:54.000Z</time>
        <extensions>
          <ns3:TrackPointExtension>
            <ns3:hr>81</ns3:hr>
            <ns3:cad>45</ns3:cad>
          </ns3:TrackPointExtension>
        </extensions>
      </trkpt>
      <trkpt lat="37.94715260155498981475830078125" lon="-107.11322785355150699615478515625">
        <ele>3785.60009765625</ele>
        <time>2026-01-06T20:38:55.000Z</time>
        <extensions>
          <ns3:TrackPointExtension>
            <ns3:hr>81</ns3:hr>
            <ns3:cad>45</ns3:cad>
          </ns3:TrackPointExtension>
        </extensions>
      </trkpt>
      <trkpt lat="37.94714522548019886016845703125" lon="-107.11323875002562999725341796875">
        <ele>3785.39990234375</ele>
        <time>2026-01-06T20:38:56.000Z</time>
        <extensions>
          <ns3:TrackPointExtension>
            <ns3:hr>81</ns3:hr>
            <ns3:cad>45</ns3:cad>
          </ns3:TrackPointExtension>
        </extensions>
      </trkpt>
      <trkpt lat="37.9471194930374622344970703125" lon="-107.1132646501064300537109375">
        <ele>3784</ele>
        <time>2026-01-06T20:39:00.000Z</time>
        <extensions>
          <ns3:TrackPointExtension>
            <ns3:hr>80</ns3:hr>
            <ns3:cad>45</ns3:cad>
          </ns3:TrackPointExtension>
        </extensions>
      </trkpt>
      <trkpt lat="37.9471139609813690185546875" lon="-107.1132705174386501312255859375">
        <ele>3783.800048828125</ele>
        <time>2026-01-06T20:39:01.000Z</time>
        <extensions>
          <ns3:TrackPointExtension>
            <ns3:hr>80</ns3:hr>
            <ns3:cad>45</ns3:cad>
          </ns3:TrackPointExtension>
        </extensions>
      </trkpt>
      <trkpt lat="37.94705486856400966644287109375" lon="-107.1133167855441570281982421875">
        <ele>3783.199951171875</ele>
        <time>2026-01-06T20:39:07.000Z</time>
        <extensions>
          <ns3:TrackPointExtension>
            <ns3:hr>81</ns3:hr>
            <ns3:cad>74</ns3:cad>
          </ns3:TrackPointExtension>
        </extensions>
      </trkpt>
      <trkpt lat="37.9470453970134258270263671875" lon="-107.11332776583731174468994140625">
        <ele>3783</ele>
        <time>2026-01-06T20:39:08.000Z</time>
        <extensions>
          <ns3:TrackPointExtension>
            <ns3:hr>81</ns3:hr>
            <ns3:cad>71</ns3:cad>
          </ns3:TrackPointExtension>
        </extensions>
      </trkpt>
      <trkpt lat="37.9469967819750308990478515625" lon="-107.1133865229785442352294921875">
        <ele>3782.39990234375</ele>
        <time>2026-01-06T20:39:14.000Z</time>
        <extensions>
          <ns3:TrackPointExtension>
            <ns3:hr>82</ns3:hr>
            <ns3:cad>46</ns3:cad>
          </ns3:TrackPointExtension>
        </extensions>
      </trkpt>
      <trkpt lat="37.94698513112962245941162109375" lon="-107.1134029515087604522705078125">
        <ele>3781.800048828125</ele>
        <time>2026-01-06T20:39:16.000Z</time>
        <extensions>
          <ns3:TrackPointExtension>
            <ns3:hr>83</ns3:hr>
            <ns3:cad>0</ns3:cad>
          </ns3:TrackPointExtension>
        </extensions>
      </trkpt>
      <trkpt lat="37.94695495627820491790771484375" lon="-107.113432623445987701416015625">
        <ele>3780.60009765625</ele>
        <time>2026-01-06T20:39:20.000Z</time>
        <extensions>
          <ns3:TrackPointExtension>
            <ns3:hr>85</ns3:hr>
            <ns3:cad>48</ns3:cad>
          </ns3:TrackPointExtension>
        </extensions>
      </trkpt>
      <trkpt lat="37.94690801762044429779052734375" lon="-107.11348350159823894500732421875">
        <ele>3779.60009765625</ele>
        <time>2026-01-06T20:39:26.000Z</time>
        <extensions>
          <ns3:TrackPointExtension>
            <ns3:hr>86</ns3:hr>
            <ns3:cad>0</ns3:cad>
          </ns3:TrackPointExtension>
        </extensions>
      </trkpt>
      <trkpt lat="37.9469029046595096588134765625" lon="-107.11349154822528362274169921875">
        <ele>3779.199951171875</ele>
        <time>2026-01-06T20:39:27.000Z</time>
        <extensions>
          <ns3:TrackPointExtension>
            <ns3:hr>86</ns3:hr>
            <ns3:cad>46</ns3:cad>
          </ns3:TrackPointExtension>
        </extensions>
      </trkpt>
      <trkpt lat="37.94687348417937755584716796875" lon="-107.11352373473346233367919921875">
        <ele>3778.60009765625</ele>
        <time>2026-01-06T20:39:31.000Z</time>
        <extensions>
          <ns3:TrackPointExtension>
            <ns3:hr>86</ns3:hr>
            <ns3:cad>46</ns3:cad>
          </ns3:TrackPointExtension>
        </extensions>
      </trkpt>
      <trkpt lat="37.94685286469757556915283203125" lon="-107.113539241254329681396484375">
        <ele>3778.199951171875</ele>
        <time>2026-01-06T20:39:33.000Z</time>
        <extensions>
          <ns3:TrackPointExtension>
            <ns3:hr>88</ns3:hr>
            <ns3:cad>0</ns3:cad>
          </ns3:TrackPointExtension>
        </extensions>
      </trkpt>
      <trkpt lat="37.94683358632028102874755859375" lon="-107.11356949992477893829345703125">
        <ele>3777.39990234375</ele>
        <time>2026-01-06T20:39:37.000Z</time>
        <extensions>
          <ns3:TrackPointExtension>
            <ns3:hr>91</ns3:hr>
            <ns3:cad>47</ns3:cad>
          </ns3:TrackPointExtension>
        </extensions>
      </trkpt>
      <trkpt lat="37.9468140564858913421630859375" lon="-107.1135918796062469482421875">
        <ele>3777.199951171875</ele>
        <time>2026-01-06T20:39:40.000Z</time>
        <extensions>
          <ns3:TrackPointExtension>
            <ns3:hr>94</ns3:hr>
            <ns3:cad>47</ns3:cad>
          </ns3:TrackPointExtension>
        </extensions>
      </trkpt>
      <trkpt lat="37.94680089689791202545166015625" lon="-107.1136131696403026580810546875">
        <ele>3776.800048828125</ele>
        <time>2026-01-06T20:39:43.000Z</time>
        <extensions>
          <ns3:TrackPointExtension>
            <ns3:hr>97</ns3:hr>
            <ns3:cad>76</ns3:cad>
          </ns3:TrackPointExtension>
        </extensions>
      </trkpt>
      <trkpt lat="37.94679150916635990142822265625" lon="-107.1136279217898845672607421875">
        <ele>3776.199951171875</ele>
        <time>2026-01-06T20:39:45.000Z</time>
        <extensions>
          <ns3:TrackPointExtension>
            <ns3:hr>98</ns3:hr>
            <ns3:cad>76</ns3:cad>
          </ns3:TrackPointExtension>
        </extensions>
      </trkpt>
      <trkpt lat="37.946764267981052398681640625" lon="-107.113659270107746124267578125">
        <ele>3775.199951171875</ele>
        <time>2026-01-06T20:39:49.000Z</time>
        <extensions>
          <ns3:TrackPointExtension>
            <ns3:hr>98</ns3:hr>
            <ns3:cad>69</ns3:cad>
          </ns3:TrackPointExtension>
        </extensions>
      </trkpt>
      <trkpt lat="37.9467587359249591827392578125" lon="-107.1136651374399662017822265625">
        <ele>3775.199951171875</ele>
        <time>2026-01-06T20:39:50.000Z</time>
        <extensions>
          <ns3:TrackPointExtension>
            <ns3:hr>98</ns3:hr>
            <ns3:cad>69</ns3:cad>
          </ns3:TrackPointExtension>
        </extensions>
      </trkpt>
      <trkpt lat="37.94671707786619663238525390625" lon="-107.113719619810581207275390625">
        <ele>3775</ele>
        <time>2026-01-06T20:39:56.000Z</time>
        <extensions>
          <ns3:TrackPointExtension>
            <ns3:hr>98</ns3:hr>
            <ns3:cad>71</ns3:cad>
          </ns3:TrackPointExtension>
        </extensions>
      </trkpt>
      <trkpt lat="37.94670869596302509307861328125" lon="-107.11372858844697475433349609375">
        <ele>3774.800048828125</ele>
        <time>2026-01-06T20:39:57.000Z</time>
        <extensions>
          <ns3:TrackPointExtension>
            <ns3:hr>97</ns3:hr>
            <ns3:cad>71</ns3:cad>
          </ns3:TrackPointExtension>
        </extensions>
      </trkpt>
      <trkpt lat="37.94668807648122310638427734375" lon="-107.1137576736509799957275390625">
        <ele>3774.199951171875</ele>
        <time>2026-01-06T20:40:00.000Z</time>
        <extensions>
          <ns3:TrackPointExtension>
            <ns3:hr>98</ns3:hr>
            <ns3:cad>42</ns3:cad>
          </ns3:TrackPointExtension>
        </extensions>
      </trkpt>
      <trkpt lat="37.9466740787029266357421875" lon="-107.11378240026533603668212890625">
        <ele>3773.39990234375</ele>
        <time>2026-01-06T20:40:03.000Z</time>
        <extensions>
          <ns3:TrackPointExtension>
            <ns3:hr>97</ns3:hr>
            <ns3:cad>43</ns3:cad>
          </ns3:TrackPointExtension>
        </extensions>
      </trkpt>
      <trkpt lat="37.9466641880571842193603515625" lon="-107.11379799060523509979248046875">
        <ele>3773.199951171875</ele>
        <time>2026-01-06T20:40:05.000Z</time>
        <extensions>
          <ns3:TrackPointExtension>
            <ns3:hr>96</ns3:hr>
            <ns3:cad>41</ns3:cad>
          </ns3:TrackPointExtension>
        </extensions>
      </trkpt>
      <trkpt lat="37.9466209374368190765380859375" lon="-107.11385632865130901336669921875">
        <ele>3772.199951171875</ele>
        <time>2026-01-06T20:40:11.000Z</time>
        <extensions>
          <ns3:TrackPointExtension>
            <ns3:hr>97</ns3:hr>
            <ns3:cad>42</ns3:cad>
          </ns3:TrackPointExtension>
        </extensions>
      </trkpt>
      <trkpt lat="37.9466118849813938140869140625" lon="-107.11386789567768573760986328125">
        <ele>3772</ele>
        <time>2026-01-06T20:40:12.000Z</time>
        <extensions>
          <ns3:TrackPointExtension>
            <ns3:hr>97</ns3:hr>
            <ns3:cad>42</ns3:cad>
          </ns3:TrackPointExtension>
        </extensions>
      </trkpt>
      <trkpt lat="37.9465612582862377166748046875" lon="-107.11392648518085479736328125">
        <ele>3770.800048828125</ele>
        <time>2026-01-06T20:40:18.000Z</time>
        <extensions>
          <ns3:TrackPointExtension>
            <ns3:hr>96</ns3:hr>
            <ns3:cad>54</ns3:cad>
          </ns3:TrackPointExtension>
        </extensions>
      </trkpt>
      <trkpt lat="37.94651356525719165802001953125" lon="-107.1139943785965442657470703125">
        <ele>3771</ele>
        <time>2026-01-06T20:40:24.000Z</time>
        <extensions>
          <ns3:TrackPointExtension>
            <ns3:hr>94</ns3:hr>
            <ns3:cad>57</ns3:cad>
          </ns3:TrackPointExtension>
        </extensions>
      </trkpt>
      <trkpt lat="37.94651071541011333465576171875" lon="-107.11400418542325496673583984375">
        <ele>3770.800048828125</ele>
        <time>2026-01-06T20:40:25.000Z</time>
        <extensions>
          <ns3:TrackPointExtension>
            <ns3:hr>94</ns3:hr>
            <ns3:cad>47</ns3:cad>
          </ns3:TrackPointExtension>
        </extensions>
      </trkpt>
      <trkpt lat="37.9464710690081119537353515625" lon="-107.1140721626579761505126953125">
        <ele>3769.800048828125</ele>
        <time>2026-01-06T20:40:31.000Z</time>
        <extensions>
          <ns3:TrackPointExtension>
            <ns3:hr>94</ns3:hr>
            <ns3:cad>46</ns3:cad>
          </ns3:TrackPointExtension>
        </extensions>
      </trkpt>
      <trkpt lat="37.94646528549492359161376953125" lon="-107.11407979018986225128173828125">
        <ele>3769.60009765625</ele>
        <time>2026-01-06T20:40:32.000Z</time>
        <extensions>
          <ns3:TrackPointExtension>
            <ns3:hr>94</ns3:hr>
            <ns3:cad>46</ns3:cad>
          </ns3:TrackPointExtension>
        </extensions>
      </trkpt>
      <trkpt lat="37.94642396271228790283203125" lon="-107.1141395531594753265380859375">
        <ele>3768.800048828125</ele>
        <time>2026-01-06T20:40:38.000Z</time>
        <extensions>
          <ns3:TrackPointExtension>
            <ns3:hr>97</ns3:hr>
            <ns3:cad>43</ns3:cad>
          </ns3:TrackPointExtension>
        </extensions>
      </trkpt>
      <trkpt lat="37.94641717337071895599365234375" lon="-107.11414768360555171966552734375">
        <ele>3768.60009765625</ele>
        <time>2026-01-06T20:40:39.000Z</time>
        <extensions>
          <ns3:TrackPointExtension>
            <ns3:hr>99</ns3:hr>
            <ns3:cad>43</ns3:cad>
          </ns3:TrackPointExtension>
        </extensions>
      </trkpt>
      <trkpt lat="37.9463832266628742218017578125" lon="-107.1141965501010417938232421875">
        <ele>3767.800048828125</ele>
        <time>2026-01-06T20:40:44.000Z</time>
        <extensions>
          <ns3:TrackPointExtension>
            <ns3:hr>100</ns3:hr>
            <ns3:cad>44</ns3:cad>
          </ns3:TrackPointExtension>
        </extensions>
      </trkpt>
      <trkpt lat="37.94636419974267482757568359375" lon="-107.11422043852508068084716796875">
        <ele>3767.60009765625</ele>
        <time>2026-01-06T20:40:46.000Z</time>
        <extensions>
          <ns3:TrackPointExtension>
            <ns3:hr>102</ns3:hr>
            <ns3:cad>43</ns3:cad>
          </ns3:TrackPointExtension>
        </extensions>
      </trkpt>
      <trkpt lat="37.946343161165714263916015625" lon="-107.1142532117664813995361328125">
        <ele>3767.199951171875</ele>
        <time>2026-01-06T20:40:49.000Z</time>
        <extensions>
          <ns3:TrackPointExtension>
            <ns3:hr>105</ns3:hr>
            <ns3:cad>43</ns3:cad>
          </ns3:TrackPointExtension>
        </extensions>
      </trkpt>
      <trkpt lat="37.9463198594748973846435546875" lon="-107.11428732611238956451416015625">
        <ele>3766.800048828125</ele>
        <time>2026-01-06T20:40:52.000Z</time>
        <extensions>
          <ns3:TrackPointExtension>
            <ns3:hr>108</ns3:hr>
            <ns3:cad>44</ns3:cad>
          </ns3:TrackPointExtension>
        </extensions>
      </trkpt>
      <trkpt lat="37.946303598582744598388671875" lon="-107.11430610157549381256103515625">
        <ele>3766.39990234375</ele>
        <time>2026-01-06T20:40:54.000Z</time>
        <extensions>
          <ns3:TrackPointExtension>
            <ns3:hr>109</ns3:hr>
            <ns3:cad>0</ns3:cad>
          </ns3:TrackPointExtension>
        </extensions>
      </trkpt>
      <trkpt lat="37.94629479758441448211669921875" lon="-107.1143160760402679443359375">
        <ele>3766.39990234375</ele>
        <time>2026-01-06T20:40:55.000Z</time>
        <extensions>
          <ns3:TrackPointExtension>
            <ns3:hr>110</ns3:hr>
            <ns3:cad>0</ns3:cad>
          </ns3:TrackPointExtension>
        </extensions>
      </trkpt>
      <trkpt lat="37.94627183116972446441650390625" lon="-107.11434382013976573944091796875">
        <ele>3766.199951171875</ele>
        <time>2026-01-06T20:40:59.000Z</time>
        <extensions>
          <ns3:TrackPointExtension>
            <ns3:hr>113</ns3:hr>
            <ns3:cad>0</ns3:cad>
          </ns3:TrackPointExtension>
        </extensions>
      </trkpt>
      <trkpt lat="37.94626948423683643341064453125" lon="-107.11435605771839618682861328125">
        <ele>3766.39990234375</ele>
        <time>2026-01-06T20:41:00.000Z</time>
        <extensions>
          <ns3:TrackPointExtension>
            <ns3:hr>114</ns3:hr>
            <ns3:cad>0</ns3:cad>
          </ns3:TrackPointExtension>
        </extensions>
      </trkpt>
      <trkpt lat="37.946228496730327606201171875" lon="-107.1144091151654720306396484375">
        <ele>3766</ele>
        <time>2026-01-06T20:41:05.000Z</time>
        <extensions>
          <ns3:TrackPointExtension>
            <ns3:hr>114</ns3:hr>
            <ns3:cad>0</ns3:cad>
          </ns3:TrackPointExtension>
        </extensions>
      </trkpt>
      <trkpt lat="37.94619102962315082550048828125" lon="-107.11447038687765598297119140625">
        <ele>3765.39990234375</ele>
        <time>2026-01-06T20:41:11.000Z</time>
        <extensions>
          <ns3:TrackPointExtension>
            <ns3:hr>112</ns3:hr>
            <ns3:cad>0</ns3:cad>
          </ns3:TrackPointExtension>
        </extensions>
      </trkpt>
      <trkpt lat="37.94616605155169963836669921875" lon="-107.1145207621157169342041015625">
        <ele>3765.199951171875</ele>
        <time>2026-01-06T20:41:15.000Z</time>
        <extensions>
          <ns3:TrackPointExtension>
            <ns3:hr>112</ns3:hr>
            <ns3:cad>0</ns3:cad>
          </ns3:TrackPointExtension>
        </extensions>
      </trkpt>
      <trkpt lat="37.9461274109780788421630859375" lon="-107.11457583121955394744873046875">
        <ele>3764.800048828125</ele>
        <time>2026-01-06T20:41:21.000Z</time>
        <extensions>
          <ns3:TrackPointExtension>
            <ns3:hr>109</ns3:hr>
            <ns3:cad>45</ns3:cad>
          </ns3:TrackPointExtension>
        </extensions>
      </trkpt>
      <trkpt lat="37.9461089707911014556884765625" lon="-107.11460265330970287322998046875">
        <ele>3764.199951171875</ele>
        <time>2026-01-06T20:41:24.000Z</time>
        <extensions>
          <ns3:TrackPointExtension>
            <ns3:hr>108</ns3:hr>
            <ns3:cad>43</ns3:cad>
          </ns3:TrackPointExtension>
        </extensions>
      </trkpt>
      <trkpt lat="37.94606211595237255096435546875" lon="-107.11466677486896514892578125">
        <ele>3763.199951171875</ele>
        <time>2026-01-06T20:41:30.000Z</time>
        <extensions>
          <ns3:TrackPointExtension>
            <ns3:hr>110</ns3:hr>
            <ns3:cad>44</ns3:cad>
          </ns3:TrackPointExtension>
        </extensions>
      </trkpt>
      <trkpt lat="37.94605440460145473480224609375" lon="-107.11467389948666095733642578125">
        <ele>3763</ele>
        <time>2026-01-06T20:41:31.000Z</time>
        <extensions>
          <ns3:TrackPointExtension>
            <ns3:hr>109</ns3:hr>
            <ns3:cad>44</ns3:cad>
          </ns3:TrackPointExtension>
        </extensions>
      </trkpt>
      <trkpt lat="37.9460228048264980316162109375" lon="-107.11471983231604099273681640625">
        <ele>3762.199951171875</ele>
        <time>2026-01-06T20:41:36.000Z</time>
        <extensions>
          <ns3:TrackPointExtension>
            <ns3:hr>112</ns3:hr>
            <ns3:cad>0</ns3:cad>
          </ns3:TrackPointExtension>
        </extensions>
      </trkpt>
      <trkpt lat="37.9460164345800876617431640625" lon="-107.1147296391427516937255859375">
        <ele>3762</ele>
        <time>2026-01-06T20:41:37.000Z</time>
        <extensions>
          <ns3:TrackPointExtension>
            <ns3:hr>112</ns3:hr>
            <ns3:cad>0</ns3:cad>
          </ns3:TrackPointExtension>
        </extensions>
      </trkpt>
      <trkpt lat="37.94598139822483062744140625" lon="-107.11479929275810718536376953125">
        <ele>3762.199951171875</ele>
        <time>2026-01-06T20:41:43.000Z</time>
        <extensions>
          <ns3:TrackPointExtension>
            <ns3:hr>114</ns3:hr>
            <ns3:cad>47</ns3:cad>
          </ns3:TrackPointExtension>
        </extensions>
      </trkpt>
      <trkpt lat="37.9459765367209911346435546875" lon="-107.11480893194675445556640625">
        <ele>3762</ele>
        <time>2026-01-06T20:41:44.000Z</time>
        <extensions>
          <ns3:TrackPointExtension>
            <ns3:hr>114</ns3:hr>
            <ns3:cad>47</ns3:cad>
          </ns3:TrackPointExtension>
        </extensions>
      </trkpt>
      <trkpt lat="37.94594921171665191650390625" lon="-107.11487925611436367034912109375">
        <ele>3761</ele>
        <time>2026-01-06T20:41:50.000Z</time>
        <extensions>
          <ns3:TrackPointExtension>
            <ns3:hr>112</ns3:hr>
            <ns3:cad>0</ns3:cad>
          </ns3:TrackPointExtension>
        </extensions>
      </trkpt>
      <trkpt lat="37.9459363035857677459716796875" lon="-107.1149026416242122650146484375">
        <ele>3760.800048828125</ele>
        <time>2026-01-06T20:41:52.000Z</time>
        <extensions>
          <ns3:TrackPointExtension>
            <ns3:hr>112</ns3:hr>
            <ns3:cad>0</ns3:cad>
          </ns3:TrackPointExtension>
        </extensions>
      </trkpt>
      <trkpt lat="37.94590068049728870391845703125" lon="-107.1149753965437412261962890625">
        <ele>3760.60009765625</ele>
        <time>2026-01-06T20:41:58.000Z</time>
        <extensions>
          <ns3:TrackPointExtension>
            <ns3:hr>109</ns3:hr>
            <ns3:cad>50</ns3:cad>
          </ns3:TrackPointExtension>
        </extensions>
      </trkpt>
      <trkpt lat="37.9458943940699100494384765625" lon="-107.1149871312081813812255859375">
        <ele>3760.60009765625</ele>
        <time>2026-01-06T20:41:59.000Z</time>
        <extensions>
          <ns3:TrackPointExtension>
            <ns3:hr>110</ns3:hr>
            <ns3:cad>50</ns3:cad>
          </ns3:TrackPointExtension>
        </extensions>
      </trkpt>
      <trkpt lat="37.94586011208593845367431640625" lon="-107.11506265215575695037841796875">
        <ele>3759.60009765625</ele>
        <time>2026-01-06T20:42:05.000Z</time>
        <extensions>
          <ns3:TrackPointExtension>
            <ns3:hr>108</ns3:hr>
            <ns3:cad>44</ns3:cad>
          </ns3:TrackPointExtension>
        </extensions>
      </trkpt>
      <trkpt lat="37.945824824273586273193359375" lon="-107.11513213813304901123046875">
        <ele>3759.39990234375</ele>
        <time>2026-01-06T20:42:11.000Z</time>
        <extensions>
          <ns3:TrackPointExtension>
            <ns3:hr>108</ns3:hr>
            <ns3:cad>46</ns3:cad>
          </ns3:TrackPointExtension>
        </extensions>
      </trkpt>
      <trkpt lat="37.94580395333468914031982421875" lon="-107.1151690185070037841796875">
        <ele>3758.60009765625</ele>
        <time>2026-01-06T20:42:15.000Z</time>
        <extensions>
          <ns3:TrackPointExtension>
            <ns3:hr>109</ns3:hr>
            <ns3:cad>0</ns3:cad>
          </ns3:TrackPointExtension>
        </extensions>
      </trkpt>
      <trkpt lat="37.94578400440514087677001953125" lon="-107.11520413868129253387451171875">
        <ele>3757.800048828125</ele>
        <time>2026-01-06T20:42:18.000Z</time>
        <extensions>
          <ns3:TrackPointExtension>
            <ns3:hr>107</ns3:hr>
            <ns3:cad>0</ns3:cad>
          </ns3:TrackPointExtension>
        </extensions>
      </trkpt>
      <trkpt lat="37.9457656480371952056884765625" lon="-107.11523666046559810638427734375">
        <ele>3757.39990234375</ele>
        <time>2026-01-06T20:42:21.000Z</time>
        <extensions>
          <ns3:TrackPointExtension>
            <ns3:hr>106</ns3:hr>
            <ns3:cad>42</ns3:cad>
          </ns3:TrackPointExtension>
        </extensions>
      </trkpt>
      <trkpt lat="37.94575248844921588897705078125" lon="-107.115258537232875823974609375">
        <ele>3757.199951171875</ele>
        <time>2026-01-06T20:42:23.000Z</time>
        <extensions>
          <ns3:TrackPointExtension>
            <ns3:hr>107</ns3:hr>
            <ns3:cad>42</ns3:cad>
          </ns3:TrackPointExtension>
        </extensions>
      </trkpt>
      <trkpt lat="37.9457192122936248779296875" lon="-107.115306146442890167236328125">
        <ele>3756.39990234375</ele>
        <time>2026-01-06T20:42:29.000Z</time>
        <extensions>
          <ns3:TrackPointExtension>
            <ns3:hr>107</ns3:hr>
            <ns3:cad>40</ns3:cad>
          </ns3:TrackPointExtension>
        </extensions>
      </trkpt>
      <trkpt lat="37.94568593613803386688232421875" lon="-107.11535786278545856475830078125">
        <ele>3755.60009765625</ele>
        <time>2026-01-06T20:42:34.000Z</time>
        <extensions>
          <ns3:TrackPointExtension>
            <ns3:hr>107</ns3:hr>
            <ns3:cad>44</ns3:cad>
          </ns3:TrackPointExtension>
        </extensions>
      </trkpt>
      <trkpt lat="37.9456804879009723663330078125" lon="-107.1153649874031543731689453125">
        <ele>3755.39990234375</ele>
        <time>2026-01-06T20:42:35.000Z</time>
        <extensions>
          <ns3:TrackPointExtension>
            <ns3:hr>107</ns3:hr>
            <ns3:cad>44</ns3:cad>
          </ns3:TrackPointExtension>
        </extensions>
      </trkpt>
      <trkpt lat="37.9456389136612415313720703125" lon="-107.1154211461544036865234375">
        <ele>3754.39990234375</ele>
        <time>2026-01-06T20:42:40.000Z</time>
        <extensions>
          <ns3:TrackPointExtension>
            <ns3:hr>107</ns3:hr>
            <ns3:cad>41</ns3:cad>
          </ns3:TrackPointExtension>
        </extensions>
      </trkpt>
      <trkpt lat="37.94562759809195995330810546875" lon="-107.1154333837330341339111328125">
        <ele>3754.199951171875</ele>
        <time>2026-01-06T20:42:41.000Z</time>
        <extensions>
          <ns3:TrackPointExtension>
            <ns3:hr>107</ns3:hr>
            <ns3:cad>0</ns3:cad>
          </ns3:TrackPointExtension>
        </extensions>
      </trkpt>
      <trkpt lat="37.94559859670698642730712890625" lon="-107.11546967737376689910888671875">
        <ele>3754.199951171875</ele>
        <time>2026-01-06T20:42:45.000Z</time>
        <extensions>
          <ns3:TrackPointExtension>
            <ns3:hr>107</ns3:hr>
            <ns3:cad>0</ns3:cad>
          </ns3:TrackPointExtension>
        </extensions>
      </trkpt>
      <trkpt lat="37.94555149041116237640380859375" lon="-107.1155161969363689422607421875">
        <ele>3753.800048828125</ele>
        <time>2026-01-06T20:42:51.000Z</time>
        <extensions>
          <ns3:TrackPointExtension>
            <ns3:hr>107</ns3:hr>
            <ns3:cad>43</ns3:cad>
          </ns3:TrackPointExtension>
        </extensions>
      </trkpt>
      <trkpt lat="37.945521734654903411865234375" lon="-107.11555567570030689239501953125">
        <ele>3753.199951171875</ele>
        <time>2026-01-06T20:42:56.000Z</time>
        <extensions>
          <ns3:TrackPointExtension>
            <ns3:hr>107</ns3:hr>
            <ns3:cad>43</ns3:cad>
          </ns3:TrackPointExtension>
        </extensions>
      </trkpt>
      <trkpt lat="37.9455148614943027496337890625" lon="-107.11556841619312763214111328125">
        <ele>3753.199951171875</ele>
        <time>2026-01-06T20:42:57.000Z</time>
        <extensions>
          <ns3:TrackPointExtension>
            <ns3:hr>107</ns3:hr>
            <ns3:cad>43</ns3:cad>
          </ns3:TrackPointExtension>
        </extensions>
      </trkpt>
      <trkpt lat="37.945461384952068328857421875" lon="-107.11563496850430965423583984375">
        <ele>3752.60009765625</ele>
        <time>2026-01-06T20:43:03.000Z</time>
        <extensions>
          <ns3:TrackPointExtension>
            <ns3:hr>106</ns3:hr>
            <ns3:cad>45</ns3:cad>
          </ns3:TrackPointExtension>
        </extensions>
      </trkpt>
      <trkpt lat="37.9454491473734378814697265625" lon="-107.11565122939646244049072265625">
        <ele>3752.39990234375</ele>
        <time>2026-01-06T20:43:05.000Z</time>
        <extensions>
          <ns3:TrackPointExtension>
            <ns3:hr>105</ns3:hr>
            <ns3:cad>45</ns3:cad>
          </ns3:TrackPointExtension>
        </extensions>
      </trkpt>
      <trkpt lat="37.94543297030031681060791015625" lon="-107.11567201651632785797119140625">
        <ele>3752.199951171875</ele>
        <time>2026-01-06T20:43:07.000Z</time>
        <extensions>
          <ns3:TrackPointExtension>
            <ns3:hr>105</ns3:hr>
            <ns3:cad>45</ns3:cad>
          </ns3:TrackPointExtension>
        </extensions>
      </trkpt>
      <trkpt lat="37.94539977796375751495361328125" lon="-107.11570755578577518463134765625">
        <ele>3751.800048828125</ele>
        <time>2026-01-06T20:43:12.000Z</time>
        <extensions>
          <ns3:TrackPointExtension>
            <ns3:hr>105</ns3:hr>
            <ns3:cad>45</ns3:cad>
          </ns3:TrackPointExtension>
        </extensions>
      </trkpt>
      <trkpt lat="37.9453599639236927032470703125" lon="-107.11575717665255069732666015625">
        <ele>3751.39990234375</ele>
        <time>2026-01-06T20:43:18.000Z</time>
        <extensions>
          <ns3:TrackPointExtension>
            <ns3:hr>105</ns3:hr>
            <ns3:cad>0</ns3:cad>
          </ns3:TrackPointExtension>
        </extensions>
      </trkpt>
      <trkpt lat="37.94534160755574703216552734375" lon="-107.11577729322016239166259765625">
        <ele>3751.199951171875</ele>
        <time>2026-01-06T20:43:20.000Z</time>
        <extensions>
          <ns3:TrackPointExtension>
            <ns3:hr>104</ns3:hr>
            <ns3:cad>68</ns3:cad>
          </ns3:TrackPointExtension>
        </extensions>
      </trkpt>
      <trkpt lat="37.945317216217517852783203125" lon="-107.11579875089228153228759765625">
        <ele>3750.60009765625</ele>
        <time>2026-01-06T20:43:23.000Z</time>
        <extensions>
          <ns3:TrackPointExtension>
            <ns3:hr>104</ns3:hr>
            <ns3:cad>68</ns3:cad>
          </ns3:TrackPointExtension>
        </extensions>
      </trkpt>
      <trkpt lat="37.945285029709339141845703125" lon="-107.11583244614303112030029296875">
        <ele>3750</ele>
        <time>2026-01-06T20:43:28.000Z</time>
        <extensions>
          <ns3:TrackPointExtension>
            <ns3:hr>104</ns3:hr>
            <ns3:cad>42</ns3:cad>
          </ns3:TrackPointExtension>
        </extensions>
      </trkpt>
      <trkpt lat="37.945278324186801910400390625" lon="-107.1158422529697418212890625">
        <ele>3750</ele>
        <time>2026-01-06T20:43:29.000Z</time>
        <extensions>
          <ns3:TrackPointExtension>
            <ns3:hr>105</ns3:hr>
            <ns3:cad>42</ns3:cad>
          </ns3:TrackPointExtension>
        </extensions>
      </trkpt>
      <trkpt lat="37.945255525410175323486328125" lon="-107.115875445306301116943359375">
        <ele>3749.800048828125</ele>
        <time>2026-01-06T20:43:32.000Z</time>
        <extensions>
          <ns3:TrackPointExtension>
            <ns3:hr>108</ns3:hr>
            <ns3:cad>0</ns3:cad>
          </ns3:TrackPointExtension>
        </extensions>
      </trkpt>
      <trkpt lat="37.9452362470328807830810546875" lon="-107.1159024350345134735107421875">
        <ele>3749.39990234375</ele>
        <time>2026-01-06T20:43:35.000Z</time>
        <extensions>
          <ns3:TrackPointExtension>
            <ns3:hr>109</ns3:hr>
            <ns3:cad>40</ns3:cad>
          </ns3:TrackPointExtension>
        </extensions>
      </trkpt>
      <trkpt lat="37.94521696865558624267578125" lon="-107.11592649109661579132080078125">
        <ele>3749</ele>
        <time>2026-01-06T20:43:38.000Z</time>
        <extensions>
          <ns3:TrackPointExtension>
            <ns3:hr>110</ns3:hr>
            <ns3:cad>41</ns3:cad>
          </ns3:TrackPointExtension>
        </extensions>
      </trkpt>
      <trkpt lat="37.94519492425024509429931640625" lon="-107.1159527264535427093505859375">
        <ele>3748.60009765625</ele>
        <time>2026-01-06T20:43:41.000Z</time>
        <extensions>
          <ns3:TrackPointExtension>
            <ns3:hr>109</ns3:hr>
            <ns3:cad>43</ns3:cad>
          </ns3:TrackPointExtension>
        </extensions>
      </trkpt>
      <trkpt lat="37.945152260363101959228515625" lon="-107.116004191339015960693359375">
        <ele>3748.39990234375</ele>
        <time>2026-01-06T20:43:47.000Z</time>
        <extensions>
          <ns3:TrackPointExtension>
            <ns3:hr>109</ns3:hr>
            <ns3:cad>44</ns3:cad>
          </ns3:TrackPointExtension>
        </extensions>
      </trkpt>
      <trkpt lat="37.9451427049934864044189453125" lon="-107.1160110644996166229248046875">
        <ele>3748.39990234375</ele>
        <time>2026-01-06T20:43:48.000Z</time>
        <extensions>
          <ns3:TrackPointExtension>
            <ns3:hr>109</ns3:hr>
            <ns3:cad>0</ns3:cad>
          </ns3:TrackPointExtension>
        </extensions>
      </trkpt>
      <trkpt lat="37.94511311687529087066650390625" lon="-107.11606311611831188201904296875">
        <ele>3749</ele>
        <time>2026-01-06T20:43:54.000Z</time>
        <extensions>
          <ns3:TrackPointExtension>
            <ns3:hr>107</ns3:hr>
            <ns3:cad>45</ns3:cad>
          </ns3:TrackPointExtension>
        </extensions>
      </trkpt>
      <trkpt lat="37.9450954310595989227294921875" lon="-107.11608742363750934600830078125">
        <ele>3749.60009765625</ele>
        <time>2026-01-06T20:43:57.000Z</time>
        <extensions>
          <ns3:TrackPointExtension>
            <ns3:hr>104</ns3:hr>
            <ns3:cad>0</ns3:cad>
          </ns3:TrackPointExtension>
        </extensions>
      </trkpt>
      <trkpt lat="37.945085205137729644775390625" lon="-107.11609907448291778564453125">
        <ele>3750.199951171875</ele>
        <time>2026-01-06T20:43:59.000Z</time>
        <extensions>
          <ns3:TrackPointExtension>
            <ns3:hr>103</ns3:hr>
            <ns3:cad>0</ns3:cad>
          </ns3:TrackPointExtension>
        </extensions>
      </trkpt>
      <trkpt lat="37.9450796730816364288330078125" lon="-107.11610787548124790191650390625">
        <ele>3750.39990234375</ele>
        <time>2026-01-06T20:44:00.000Z</time>
        <extensions>
          <ns3:TrackPointExtension>
            <ns3:hr>102</ns3:hr>
            <ns3:cad>0</ns3:cad>
          </ns3:TrackPointExtension>
        </extensions>
      </trkpt>
      <trkpt lat="37.94506232254207134246826171875" lon="-107.11611458100378513336181640625">
        <ele>3751</ele>
        <time>2026-01-06T20:44:03.000Z</time>
        <extensions>
          <ns3:TrackPointExtension>
            <ns3:hr>103</ns3:hr>
            <ns3:cad>0</ns3:cad>
          </ns3:TrackPointExtension>
        </extensions>
      </trkpt>
      <trkpt lat="37.94504069723188877105712890625" lon="-107.11611910723149776458740234375">
        <ele>3751</ele>
        <time>2026-01-06T20:44:07.000Z</time>
        <extensions>
          <ns3:TrackPointExtension>
            <ns3:hr>105</ns3:hr>
            <ns3:cad>60</ns3:cad>
          </ns3:TrackPointExtension>
        </extensions>
      </trkpt>
      <trkpt lat="37.94500163756310939788818359375" lon="-107.11613930761814117431640625">
        <ele>3751</ele>
        <time>2026-01-06T20:44:11.000Z</time>
        <extensions>
          <ns3:TrackPointExtension>
            <ns3:hr>109</ns3:hr>
            <ns3:cad>60</ns3:cad>
          </ns3:TrackPointExtension>
        </extensions>
      </trkpt>
      <trkpt lat="37.9449968598783016204833984375" lon="-107.11616051383316516876220703125">
        <ele>3751.199951171875</ele>
        <time>2026-01-06T20:44:14.000Z</time>
        <extensions>
          <ns3:TrackPointExtension>
            <ns3:hr>110</ns3:hr>
            <ns3:cad>60</ns3:cad>
          </ns3:TrackPointExtension>
        </extensions>
      </trkpt>
      <trkpt lat="37.945004738867282867431640625" lon="-107.11617006920278072357177734375">
        <ele>3750.39990234375</ele>
        <time>2026-01-06T20:44:20.000Z</time>
        <extensions>
          <ns3:TrackPointExtension>
            <ns3:hr>108</ns3:hr>
            <ns3:cad>0</ns3:cad>
          </ns3:TrackPointExtension>
        </extensions>
      </trkpt>
      <trkpt lat="37.94500230811536312103271484375" lon="-107.1161669678986072540283203125">
        <ele>3750.39990234375</ele>
        <time>2026-01-06T20:44:26.000Z</time>
        <extensions>
          <ns3:TrackPointExtension>
            <ns3:hr>109</ns3:hr>
            <ns3:cad>0</ns3:cad>
          </ns3:TrackPointExtension>
        </extensions>
      </trkpt>
      <trkpt lat="37.94500230811536312103271484375" lon="-107.1161669678986072540283203125">
        <ele>3750.800048828125</ele>
        <time>2026-01-06T20:44:29.000Z</time>
        <extensions>
          <ns3:TrackPointExtension>
            <ns3:hr>106</ns3:hr>
            <ns3:cad>0</ns3:cad>
          </ns3:TrackPointExtension>
        </extensions>
      </trkpt>
      <trkpt lat="37.94500239193439483642578125" lon="-107.11616705171763896942138671875">
        <ele>3750.800048828125</ele>
        <time>2026-01-06T20:44:31.000Z</time>
        <extensions>
          <ns3:TrackPointExtension>
            <ns3:hr>101</ns3:hr>
            <ns3:cad>0</ns3:cad>
          </ns3:TrackPointExtension>
        </extensions>
      </trkpt>
      <trkpt lat="37.94500230811536312103271484375" lon="-107.1161669678986072540283203125">
        <ele>3750.199951171875</ele>
        <time>2026-01-06T20:44:35.000Z</time>
        <extensions>
          <ns3:TrackPointExtension>
            <ns3:hr>102</ns3:hr>
            <ns3:cad>0</ns3:cad>
          </ns3:TrackPointExtension>
        </extensions>
      </trkpt>
      <trkpt lat="37.94500230811536312103271484375" lon="-107.1161669678986072540283203125">
        <ele>3750.800048828125</ele>
        <time>2026-01-06T20:44:41.000Z</time>
        <extensions>
          <ns3:TrackPointExtension>
            <ns3:hr>103</ns3:hr>
            <ns3:cad>0</ns3:cad>
          </ns3:TrackPointExtension>
        </extensions>
      </trkpt>
      <trkpt lat="37.94500230811536312103271484375" lon="-107.1161669678986072540283203125">
        <ele>3750.39990234375</ele>
        <time>2026-01-06T20:44:47.000Z</time>
        <extensions>
          <ns3:TrackPointExtension>
            <ns3:hr>101</ns3:hr>
            <ns3:cad>0</ns3:cad>
          </ns3:TrackPointExtension>
        </extensions>
      </trkpt>
      <trkpt lat="37.94500230811536312103271484375" lon="-107.1161669678986072540283203125">
        <ele>3750.60009765625</ele>
        <time>2026-01-06T20:44:49.000Z</time>
        <extensions>
          <ns3:TrackPointExtension>
            <ns3:hr>101</ns3:hr>
            <ns3:cad>0</ns3:cad>
          </ns3:TrackPointExtension>
        </extensions>
      </trkpt>
      <trkpt lat="37.94500230811536312103271484375" lon="-107.1161669678986072540283203125">
        <ele>3751.199951171875</ele>
        <time>2026-01-06T20:44:55.000Z</time>
        <extensions>
          <ns3:TrackPointExtension>
            <ns3:hr>100</ns3:hr>
            <ns3:cad>0</ns3:cad>
          </ns3:TrackPointExtension>
        </extensions>
      </trkpt>
      <trkpt lat="37.94500230811536312103271484375" lon="-107.1161669678986072540283203125">
        <ele>3751.199951171875</ele>
        <time>2026-01-06T20:44:56.000Z</time>
        <extensions>
          <ns3:TrackPointExtension>
            <ns3:hr>100</ns3:hr>
            <ns3:cad>0</ns3:cad>
          </ns3:TrackPointExtension>
        </extensions>
      </trkpt>
      <trkpt lat="37.94500230811536312103271484375" lon="-107.1161669678986072540283203125">
        <ele>3751.199951171875</ele>
        <time>2026-01-06T20:45:02.000Z</time>
        <extensions>
          <ns3:TrackPointExtension>
            <ns3:hr>101</ns3:hr>
            <ns3:cad>0</ns3:cad>
          </ns3:TrackPointExtension>
        </extensions>
      </trkpt>
      <trkpt lat="37.94500230811536312103271484375" lon="-107.1161669678986072540283203125">
        <ele>3750.800048828125</ele>
        <time>2026-01-06T20:45:08.000Z</time>
        <extensions>
          <ns3:TrackPointExtension>
            <ns3:hr>102</ns3:hr>
            <ns3:cad>0</ns3:cad>
          </ns3:TrackPointExtension>
        </extensions>
      </trkpt>
      <trkpt lat="37.94500230811536312103271484375" lon="-107.1161669678986072540283203125">
        <ele>3751</ele>
        <time>2026-01-06T20:45:14.000Z</time>
        <extensions>
          <ns3:TrackPointExtension>
            <ns3:hr>103</ns3:hr>
            <ns3:cad>0</ns3:cad>
          </ns3:TrackPointExtension>
        </extensions>
      </trkpt>
      <trkpt lat="37.94500230811536312103271484375" lon="-107.1161669678986072540283203125">
        <ele>3750.60009765625</ele>
        <time>2026-01-06T20:45:20.000Z</time>
        <extensions>
          <ns3:TrackPointExtension>
            <ns3:hr>104</ns3:hr>
            <ns3:cad>0</ns3:cad>
          </ns3:TrackPointExtension>
        </extensions>
      </trkpt>
      <trkpt lat="37.94500230811536312103271484375" lon="-107.1161669678986072540283203125">
        <ele>3751</ele>
        <time>2026-01-06T20:45:22.000Z</time>
        <extensions>
          <ns3:TrackPointExtension>
            <ns3:hr>103</ns3:hr>
            <ns3:cad>0</ns3:cad>
          </ns3:TrackPointExtension>
        </extensions>
      </trkpt>
      <trkpt lat="37.94500230811536312103271484375" lon="-107.1161669678986072540283203125">
        <ele>3751.800048828125</ele>
        <time>2026-01-06T20:45:28.000Z</time>
        <extensions>
          <ns3:TrackPointExtension>
            <ns3:hr>103</ns3:hr>
            <ns3:cad>0</ns3:cad>
          </ns3:TrackPointExtension>
        </extensions>
      </trkpt>
      <trkpt lat="37.94500230811536312103271484375" lon="-107.1161669678986072540283203125">
        <ele>3751.39990234375</ele>
        <time>2026-01-06T20:45:34.000Z</time>
        <extensions>
          <ns3:TrackPointExtension>
            <ns3:hr>102</ns3:hr>
            <ns3:cad>0</ns3:cad>
          </ns3:TrackPointExtension>
        </extensions>
      </trkpt>
      <trkpt lat="37.94500230811536312103271484375" lon="-107.1161669678986072540283203125">
        <ele>3752.199951171875</ele>
        <time>2026-01-06T20:45:38.000Z</time>
        <extensions>
          <ns3:TrackPointExtension>
            <ns3:hr>102</ns3:hr>
            <ns3:cad>0</ns3:cad>
          </ns3:TrackPointExtension>
        </extensions>
      </trkpt>
      <trkpt lat="37.94500230811536312103271484375" lon="-107.1161669678986072540283203125">
        <ele>3752.199951171875</ele>
        <time>2026-01-06T20:45:43.000Z</time>
        <extensions>
          <ns3:TrackPointExtension>
            <ns3:hr>100</ns3:hr>
            <ns3:cad>0</ns3:cad>
          </ns3:TrackPointExtension>
        </extensions>
      </trkpt>
      <trkpt lat="37.94500230811536312103271484375" lon="-107.1161669678986072540283203125">
        <ele>3752</ele>
        <time>2026-01-06T20:45:47.000Z</time>
        <extensions>
          <ns3:TrackPointExtension>
            <ns3:hr>97</ns3:hr>
            <ns3:cad>0</ns3:cad>
          </ns3:TrackPointExtension>
        </extensions>
      </trkpt>
      <trkpt lat="37.94500230811536312103271484375" lon="-107.1161669678986072540283203125">
        <ele>3751.800048828125</ele>
        <time>2026-01-06T20:45:53.000Z</time>
        <extensions>
          <ns3:TrackPointExtension>
            <ns3:hr>95</ns3:hr>
            <ns3:cad>0</ns3:cad>
          </ns3:TrackPointExtension>
        </extensions>
      </trkpt>
      <trkpt lat="37.94499157927930355072021484375" lon="-107.116162776947021484375">
        <ele>3753.39990234375</ele>
        <time>2026-01-06T20:45:57.000Z</time>
        <extensions>
          <ns3:TrackPointExtension>
            <ns3:hr>95</ns3:hr>
            <ns3:cad>0</ns3:cad>
          </ns3:TrackPointExtension>
        </extensions>
      </trkpt>
      <trkpt lat="37.94498571194708347320556640625" lon="-107.1161669678986072540283203125">
        <ele>3754</ele>
        <time>2026-01-06T20:45:58.000Z</time>
        <extensions>
          <ns3:TrackPointExtension>
            <ns3:hr>95</ns3:hr>
            <ns3:cad>0</ns3:cad>
          </ns3:TrackPointExtension>
        </extensions>
      </trkpt>
      <trkpt lat="37.94496752321720123291015625" lon="-107.11616344749927520751953125">
        <ele>3754</ele>
        <time>2026-01-06T20:46:04.000Z</time>
        <extensions>
          <ns3:TrackPointExtension>
            <ns3:hr>94</ns3:hr>
            <ns3:cad>47</ns3:cad>
          </ns3:TrackPointExtension>
        </extensions>
      </trkpt>
      <trkpt lat="37.94496727176010608673095703125" lon="-107.1161632798612117767333984375">
        <ele>3753.800048828125</ele>
        <time>2026-01-06T20:46:05.000Z</time>
        <extensions>
          <ns3:TrackPointExtension>
            <ns3:hr>94</ns3:hr>
            <ns3:cad>47</ns3:cad>
          </ns3:TrackPointExtension>
        </extensions>
      </trkpt>
      <trkpt lat="37.9449663497507572174072265625" lon="-107.1161652915179729461669921875">
        <ele>3753.199951171875</ele>
        <time>2026-01-06T20:46:11.000Z</time>
        <extensions>
          <ns3:TrackPointExtension>
            <ns3:hr>95</ns3:hr>
            <ns3:cad>0</ns3:cad>
          </ns3:TrackPointExtension>
        </extensions>
      </trkpt>
      <trkpt lat="37.9449663497507572174072265625" lon="-107.1161652915179729461669921875">
        <ele>3754</ele>
        <time>2026-01-06T20:46:16.000Z</time>
        <extensions>
          <ns3:TrackPointExtension>
            <ns3:hr>98</ns3:hr>
            <ns3:cad>0</ns3:cad>
          </ns3:TrackPointExtension>
        </extensions>
      </trkpt>
      <trkpt lat="37.9449663497507572174072265625" lon="-107.1161652915179729461669921875">
        <ele>3754.199951171875</ele>
        <time>2026-01-06T20:46:17.000Z</time>
        <extensions>
          <ns3:TrackPointExtension>
            <ns3:hr>98</ns3:hr>
            <ns3:cad>0</ns3:cad>
          </ns3:TrackPointExtension>
        </extensions>
      </trkpt>
      <trkpt lat="37.9449663497507572174072265625" lon="-107.1161652915179729461669921875">
        <ele>3753.800048828125</ele>
        <time>2026-01-06T20:46:23.000Z</time>
        <extensions>
          <ns3:TrackPointExtension>
            <ns3:hr>98</ns3:hr>
            <ns3:cad>0</ns3:cad>
          </ns3:TrackPointExtension>
        </extensions>
      </trkpt>
      <trkpt lat="37.9449663497507572174072265625" lon="-107.1161652915179729461669921875">
        <ele>3753.60009765625</ele>
        <time>2026-01-06T20:46:29.000Z</time>
        <extensions>
          <ns3:TrackPointExtension>
            <ns3:hr>98</ns3:hr>
            <ns3:cad>0</ns3:cad>
          </ns3:TrackPointExtension>
        </extensions>
      </trkpt>
      <trkpt lat="37.9449663497507572174072265625" lon="-107.1161652915179729461669921875">
        <ele>3754</ele>
        <time>2026-01-06T20:46:35.000Z</time>
        <extensions>
          <ns3:TrackPointExtension>
            <ns3:hr>97</ns3:hr>
            <ns3:cad>0</ns3:cad>
          </ns3:TrackPointExtension>
        </extensions>
      </trkpt>
      <trkpt lat="37.9449663497507572174072265625" lon="-107.1161652915179729461669921875">
        <ele>3753.800048828125</ele>
        <time>2026-01-06T20:46:41.000Z</time>
        <extensions>
          <ns3:TrackPointExtension>
            <ns3:hr>95</ns3:hr>
            <ns3:cad>0</ns3:cad>
          </ns3:TrackPointExtension>
        </extensions>
      </trkpt>
      <trkpt lat="37.9449663497507572174072265625" lon="-107.1161652915179729461669921875">
        <ele>3754.199951171875</ele>
        <time>2026-01-06T20:46:47.000Z</time>
        <extensions>
          <ns3:TrackPointExtension>
            <ns3:hr>93</ns3:hr>
            <ns3:cad>0</ns3:cad>
          </ns3:TrackPointExtension>
        </extensions>
      </trkpt>
      <trkpt lat="37.9449663497507572174072265625" lon="-107.1161652915179729461669921875">
        <ele>3753.800048828125</ele>
        <time>2026-01-06T20:46:53.000Z</time>
        <extensions>
          <ns3:TrackPointExtension>
            <ns3:hr>94</ns3:hr>
            <ns3:cad>0</ns3:cad>
          </ns3:TrackPointExtension>
        </extensions>
      </trkpt>
      <trkpt lat="37.9449663497507572174072265625" lon="-107.1161652915179729461669921875">
        <ele>3753.800048828125</ele>
        <time>2026-01-06T20:46:55.000Z</time>
        <extensions>
          <ns3:TrackPointExtension>
            <ns3:hr>95</ns3:hr>
            <ns3:cad>0</ns3:cad>
          </ns3:TrackPointExtension>
        </extensions>
      </trkpt>
      <trkpt lat="37.9449663497507572174072265625" lon="-107.1161652915179729461669921875">
        <ele>3753.800048828125</ele>
        <time>2026-01-06T20:47:01.000Z</time>
        <extensions>
          <ns3:TrackPointExtension>
            <ns3:hr>95</ns3:hr>
            <ns3:cad>0</ns3:cad>
          </ns3:TrackPointExtension>
        </extensions>
      </trkpt>
      <trkpt lat="37.9449663497507572174072265625" lon="-107.1161652915179729461669921875">
        <ele>3754</ele>
        <time>2026-01-06T20:47:07.000Z</time>
        <extensions>
          <ns3:TrackPointExtension>
            <ns3:hr>97</ns3:hr>
            <ns3:cad>0</ns3:cad>
          </ns3:TrackPointExtension>
        </extensions>
      </trkpt>
      <trkpt lat="37.94499929063022136688232421875" lon="-107.11615129373967647552490234375">
        <ele>3753.39990234375</ele>
        <time>2026-01-06T20:47:11.000Z</time>
        <extensions>
          <ns3:TrackPointExtension>
            <ns3:hr>101</ns3:hr>
            <ns3:cad>0</ns3:cad>
          </ns3:TrackPointExtension>
        </extensions>
      </trkpt>
      <trkpt lat="37.94500834308564662933349609375" lon="-107.11614869534969329833984375">
        <ele>3752.800048828125</ele>
        <time>2026-01-06T20:47:17.000Z</time>
        <extensions>
          <ns3:TrackPointExtension>
            <ns3:hr>103</ns3:hr>
            <ns3:cad>0</ns3:cad>
          </ns3:TrackPointExtension>
        </extensions>
      </trkpt>
      <trkpt lat="37.94500851072371006011962890625" lon="-107.1161495335400104522705078125">
        <ele>3752.60009765625</ele>
        <time>2026-01-06T20:47:18.000Z</time>
        <extensions>
          <ns3:TrackPointExtension>
            <ns3:hr>103</ns3:hr>
            <ns3:cad>0</ns3:cad>
          </ns3:TrackPointExtension>
        </extensions>
      </trkpt>
      <trkpt lat="37.945009768009185791015625" lon="-107.11616336368024349212646484375">
        <ele>3752.199951171875</ele>
        <time>2026-01-06T20:47:20.000Z</time>
        <extensions>
          <ns3:TrackPointExtension>
            <ns3:hr>103</ns3:hr>
            <ns3:cad>0</ns3:cad>
          </ns3:TrackPointExtension>
        </extensions>
      </trkpt>
      <trkpt lat="37.944982945919036865234375" lon="-107.11620368063449859619140625">
        <ele>3753</ele>
        <time>2026-01-06T20:47:23.000Z</time>
        <extensions>
          <ns3:TrackPointExtension>
            <ns3:hr>103</ns3:hr>
            <ns3:cad>0</ns3:cad>
          </ns3:TrackPointExtension>
        </extensions>
      </trkpt>
      <trkpt lat="37.9449764080345630645751953125" lon="-107.1162139065563678741455078125">
        <ele>3753.39990234375</ele>
        <time>2026-01-06T20:47:24.000Z</time>
        <extensions>
          <ns3:TrackPointExtension>
            <ns3:hr>104</ns3:hr>
            <ns3:cad>0</ns3:cad>
          </ns3:TrackPointExtension>
        </extensions>
      </trkpt>
      <trkpt lat="37.944946400821208953857421875" lon="-107.11626227013766765594482421875">
        <ele>3753.60009765625</ele>
        <time>2026-01-06T20:47:28.000Z</time>
        <extensions>
          <ns3:TrackPointExtension>
            <ns3:hr>107</ns3:hr>
            <ns3:cad>0</ns3:cad>
          </ns3:TrackPointExtension>
        </extensions>
      </trkpt>
      <trkpt lat="37.94490658678114414215087890625" lon="-107.11632664315402507781982421875">
        <ele>3753.199951171875</ele>
        <time>2026-01-06T20:47:33.000Z</time>
        <extensions>
          <ns3:TrackPointExtension>
            <ns3:hr>108</ns3:hr>
            <ns3:cad>47</ns3:cad>
          </ns3:TrackPointExtension>
        </extensions>
      </trkpt>
      <trkpt lat="37.9448744840919971466064453125" lon="-107.1163926087319850921630859375">
        <ele>3752.800048828125</ele>
        <time>2026-01-06T20:47:39.000Z</time>
        <extensions>
          <ns3:TrackPointExtension>
            <ns3:hr>108</ns3:hr>
            <ns3:cad>49</ns3:cad>
          </ns3:TrackPointExtension>
        </extensions>
      </trkpt>
      <trkpt lat="37.9448671080172061920166015625" lon="-107.1164030022919178009033203125">
        <ele>3752.60009765625</ele>
        <time>2026-01-06T20:47:40.000Z</time>
        <extensions>
          <ns3:TrackPointExtension>
            <ns3:hr>108</ns3:hr>
            <ns3:cad>54</ns3:cad>
          </ns3:TrackPointExtension>
        </extensions>
      </trkpt>
      <trkpt lat="37.94485948048532009124755859375" lon="-107.116413898766040802001953125">
        <ele>3752.39990234375</ele>
        <time>2026-01-06T20:47:41.000Z</time>
        <extensions>
          <ns3:TrackPointExtension>
            <ns3:hr>108</ns3:hr>
            <ns3:cad>54</ns3:cad>
          </ns3:TrackPointExtension>
        </extensions>
      </trkpt>
      <trkpt lat="37.944839783012866973876953125" lon="-107.11645522154867649078369140625">
        <ele>3751.199951171875</ele>
        <time>2026-01-06T20:47:45.000Z</time>
        <extensions>
          <ns3:TrackPointExtension>
            <ns3:hr>108</ns3:hr>
            <ns3:cad>54</ns3:cad>
          </ns3:TrackPointExtension>
        </extensions>
      </trkpt>
      <trkpt lat="37.94482930563390254974365234375" lon="-107.1164739131927490234375">
        <ele>3750.800048828125</ele>
        <time>2026-01-06T20:47:47.000Z</time>
        <extensions>
          <ns3:TrackPointExtension>
            <ns3:hr>108</ns3:hr>
            <ns3:cad>51</ns3:cad>
          </ns3:TrackPointExtension>
        </extensions>
      </trkpt>
      <trkpt lat="37.94479309581220149993896484375" lon="-107.11655111052095890045166015625">
        <ele>3750.800048828125</ele>
        <time>2026-01-06T20:47:53.000Z</time>
        <extensions>
          <ns3:TrackPointExtension>
            <ns3:hr>107</ns3:hr>
            <ns3:cad>48</ns3:cad>
          </ns3:TrackPointExtension>
        </extensions>
      </trkpt>
      <trkpt lat="37.9447682015597820281982421875" lon="-107.11660810746252536773681640625">
        <ele>3750.199951171875</ele>
        <time>2026-01-06T20:47:58.000Z</time>
        <extensions>
          <ns3:TrackPointExtension>
            <ns3:hr>107</ns3:hr>
            <ns3:cad>52</ns3:cad>
          </ns3:TrackPointExtension>
        </extensions>
      </trkpt>
      <trkpt lat="37.94476476497948169708251953125" lon="-107.1166179142892360687255859375">
        <ele>3750</ele>
        <time>2026-01-06T20:47:59.000Z</time>
        <extensions>
          <ns3:TrackPointExtension>
            <ns3:hr>108</ns3:hr>
            <ns3:cad>52</ns3:cad>
          </ns3:TrackPointExtension>
        </extensions>
      </trkpt>
      <trkpt lat="37.944738529622554779052734375" lon="-107.11668991483747959136962890625">
        <ele>3751</ele>
        <time>2026-01-06T20:48:05.000Z</time>
        <extensions>
          <ns3:TrackPointExtension>
            <ns3:hr>106</ns3:hr>
            <ns3:cad>49</ns3:cad>
          </ns3:TrackPointExtension>
        </extensions>
      </trkpt>
      <trkpt lat="37.94473350048065185546875" lon="-107.11670315824449062347412109375">
        <ele>3750.800048828125</ele>
        <time>2026-01-06T20:48:06.000Z</time>
        <extensions>
          <ns3:TrackPointExtension>
            <ns3:hr>106</ns3:hr>
            <ns3:cad>50</ns3:cad>
          </ns3:TrackPointExtension>
        </extensions>
      </trkpt>
      <trkpt lat="37.94470022432506084442138671875" lon="-107.1167845465242862701416015625">
        <ele>3750.199951171875</ele>
        <time>2026-01-06T20:48:12.000Z</time>
        <extensions>
          <ns3:TrackPointExtension>
            <ns3:hr>106</ns3:hr>
            <ns3:cad>0</ns3:cad>
          </ns3:TrackPointExtension>
        </extensions>
      </trkpt>
      <trkpt lat="37.94469083659350872039794921875" lon="-107.11679519154131412506103515625">
        <ele>3750.39990234375</ele>
        <time>2026-01-06T20:48:13.000Z</time>
        <extensions>
          <ns3:TrackPointExtension>
            <ns3:hr>106</ns3:hr>
            <ns3:cad>48</ns3:cad>
          </ns3:TrackPointExtension>
        </extensions>
      </trkpt>
      <trkpt lat="37.94467122294008731842041015625" lon="-107.1168552897870540618896484375">
        <ele>3750.800048828125</ele>
        <time>2026-01-06T20:48:19.000Z</time>
        <extensions>
          <ns3:TrackPointExtension>
            <ns3:hr>106</ns3:hr>
            <ns3:cad>47</ns3:cad>
          </ns3:TrackPointExtension>
        </extensions>
      </trkpt>
      <trkpt lat="37.9446649365127086639404296875" lon="-107.11687465198338031768798828125">
        <ele>3751.199951171875</ele>
        <time>2026-01-06T20:48:21.000Z</time>
        <extensions>
          <ns3:TrackPointExtension>
            <ns3:hr>106</ns3:hr>
            <ns3:cad>0</ns3:cad>
          </ns3:TrackPointExtension>
        </extensions>
      </trkpt>
      <trkpt lat="37.9446518607437610626220703125" lon="-107.1169059164822101593017578125">
        <ele>3751.60009765625</ele>
        <time>2026-01-06T20:48:24.000Z</time>
        <extensions>
          <ns3:TrackPointExtension>
            <ns3:hr>107</ns3:hr>
            <ns3:cad>0</ns3:cad>
          </ns3:TrackPointExtension>
        </extensions>
      </trkpt>
      <trkpt lat="37.94464037753641605377197265625" lon="-107.1169588901102542877197265625">
        <ele>3751.60009765625</ele>
        <time>2026-01-06T20:48:29.000Z</time>
        <extensions>
          <ns3:TrackPointExtension>
            <ns3:hr>110</ns3:hr>
            <ns3:cad>48</ns3:cad>
          </ns3:TrackPointExtension>
        </extensions>
      </trkpt>
      <trkpt lat="37.9446354322135448455810546875" lon="-107.11698043160140514373779296875">
        <ele>3752</ele>
        <time>2026-01-06T20:48:31.000Z</time>
        <extensions>
          <ns3:TrackPointExtension>
            <ns3:hr>110</ns3:hr>
            <ns3:cad>48</ns3:cad>
          </ns3:TrackPointExtension>
        </extensions>
      </trkpt>
      <trkpt lat="37.9446240328252315521240234375" lon="-107.1170075051486492156982421875">
        <ele>3752.199951171875</ele>
        <time>2026-01-06T20:48:33.000Z</time>
        <extensions>
          <ns3:TrackPointExtension>
            <ns3:hr>111</ns3:hr>
            <ns3:cad>48</ns3:cad>
          </ns3:TrackPointExtension>
        </extensions>
      </trkpt>
      <trkpt lat="37.94461338780820369720458984375" lon="-107.11705930531024932861328125">
        <ele>3752</ele>
        <time>2026-01-06T20:48:37.000Z</time>
        <extensions>
          <ns3:TrackPointExtension>
            <ns3:hr>110</ns3:hr>
            <ns3:cad>48</ns3:cad>
          </ns3:TrackPointExtension>
        </extensions>
      </trkpt>
      <trkpt lat="37.94458606280386447906494140625" lon="-107.11712376214563846588134765625">
        <ele>3752.60009765625</ele>
        <time>2026-01-06T20:48:43.000Z</time>
        <extensions>
          <ns3:TrackPointExtension>
            <ns3:hr>110</ns3:hr>
            <ns3:cad>0</ns3:cad>
          </ns3:TrackPointExtension>
        </extensions>
      </trkpt>
      <trkpt lat="37.94458086602389812469482421875" lon="-107.11713566444814205169677734375">
        <ele>3752.60009765625</ele>
        <time>2026-01-06T20:48:44.000Z</time>
        <extensions>
          <ns3:TrackPointExtension>
            <ns3:hr>110</ns3:hr>
            <ns3:cad>0</ns3:cad>
          </ns3:TrackPointExtension>
        </extensions>
      </trkpt>
      <trkpt lat="37.94457013718783855438232421875" lon="-107.11716600693762302398681640625">
        <ele>3752.60009765625</ele>
        <time>2026-01-06T20:48:47.000Z</time>
        <extensions>
          <ns3:TrackPointExtension>
            <ns3:hr>113</ns3:hr>
            <ns3:cad>0</ns3:cad>
          </ns3:TrackPointExtension>
        </extensions>
      </trkpt>
      <trkpt lat="37.944548763334751129150390625" lon="-107.11721210740506649017333984375">
        <ele>3752.60009765625</ele>
        <time>2026-01-06T20:48:52.000Z</time>
        <extensions>
          <ns3:TrackPointExtension>
            <ns3:hr>114</ns3:hr>
            <ns3:cad>0</ns3:cad>
          </ns3:TrackPointExtension>
        </extensions>
      </trkpt>
      <trkpt lat="37.9445224441587924957275390625" lon="-107.11726139299571514129638671875">
        <ele>3753</ele>
        <time>2026-01-06T20:48:57.000Z</time>
        <extensions>
          <ns3:TrackPointExtension>
            <ns3:hr>115</ns3:hr>
            <ns3:cad>41</ns3:cad>
          </ns3:TrackPointExtension>
        </extensions>
      </trkpt>
      <trkpt lat="37.94450056739151477813720703125" lon="-107.117307744920253753662109375">
        <ele>3753</ele>
        <time>2026-01-06T20:49:03.000Z</time>
        <extensions>
          <ns3:TrackPointExtension>
            <ns3:hr>116</ns3:hr>
            <ns3:cad>0</ns3:cad>
          </ns3:TrackPointExtension>
        </extensions>
      </trkpt>
      <trkpt lat="37.94449411332607269287109375" lon="-107.11732123978435993194580078125">
        <ele>3753</ele>
        <time>2026-01-06T20:49:04.000Z</time>
        <extensions>
          <ns3:TrackPointExtension>
            <ns3:hr>115</ns3:hr>
            <ns3:cad>0</ns3:cad>
          </ns3:TrackPointExtension>
        </extensions>
      </trkpt>
      <trkpt lat="37.9444795288145542144775390625" lon="-107.11735577322542667388916015625">
        <ele>3753.199951171875</ele>
        <time>2026-01-06T20:49:07.000Z</time>
        <extensions>
          <ns3:TrackPointExtension>
            <ns3:hr>114</ns3:hr>
            <ns3:cad>0</ns3:cad>
          </ns3:TrackPointExtension>
        </extensions>
      </trkpt>
      <trkpt lat="37.94446326792240142822265625" lon="-107.11740220896899700164794921875">
        <ele>3753</ele>
        <time>2026-01-06T20:49:12.000Z</time>
        <extensions>
          <ns3:TrackPointExtension>
            <ns3:hr>114</ns3:hr>
            <ns3:cad>51</ns3:cad>
          </ns3:TrackPointExtension>
        </extensions>
      </trkpt>
      <trkpt lat="37.94444658793509006500244140625" lon="-107.1174571104347705841064453125">
        <ele>3753.39990234375</ele>
        <time>2026-01-06T20:49:18.000Z</time>
        <extensions>
          <ns3:TrackPointExtension>
            <ns3:hr>112</ns3:hr>
            <ns3:cad>43</ns3:cad>
          </ns3:TrackPointExtension>
        </extensions>
      </trkpt>
      <trkpt lat="37.9444392956793308258056640625" lon="-107.11747504770755767822265625">
        <ele>3753.800048828125</ele>
        <time>2026-01-06T20:49:20.000Z</time>
        <extensions>
          <ns3:TrackPointExtension>
            <ns3:hr>112</ns3:hr>
            <ns3:cad>43</ns3:cad>
          </ns3:TrackPointExtension>
        </extensions>
      </trkpt>
      <trkpt lat="37.94443309307098388671875" lon="-107.117496840655803680419921875">
        <ele>3754.39990234375</ele>
        <time>2026-01-06T20:49:22.000Z</time>
        <extensions>
          <ns3:TrackPointExtension>
            <ns3:hr>113</ns3:hr>
            <ns3:cad>0</ns3:cad>
          </ns3:TrackPointExtension>
        </extensions>
      </trkpt>
      <trkpt lat="37.94442563317716121673583984375" lon="-107.11751586757600307464599609375">
        <ele>3754.60009765625</ele>
        <time>2026-01-06T20:49:24.000Z</time>
        <extensions>
          <ns3:TrackPointExtension>
            <ns3:hr>116</ns3:hr>
            <ns3:cad>0</ns3:cad>
          </ns3:TrackPointExtension>
        </extensions>
      </trkpt>
      <trkpt lat="37.94441389851272106170654296875" lon="-107.11754352785646915435791015625">
        <ele>3754.39990234375</ele>
        <time>2026-01-06T20:49:26.000Z</time>
        <extensions>
          <ns3:TrackPointExtension>
            <ns3:hr>118</ns3:hr>
            <ns3:cad>0</ns3:cad>
          </ns3:TrackPointExtension>
        </extensions>
      </trkpt>
      <trkpt lat="37.94439084827899932861328125" lon="-107.11759306490421295166015625">
        <ele>3754.199951171875</ele>
        <time>2026-01-06T20:49:31.000Z</time>
        <extensions>
          <ns3:TrackPointExtension>
            <ns3:hr>120</ns3:hr>
            <ns3:cad>43</ns3:cad>
          </ns3:TrackPointExtension>
        </extensions>
      </trkpt>
      <trkpt lat="37.944358997046947479248046875" lon="-107.1176465414464473724365234375">
        <ele>3754.60009765625</ele>
        <time>2026-01-06T20:49:37.000Z</time>
        <extensions>
          <ns3:TrackPointExtension>
            <ns3:hr>118</ns3:hr>
            <ns3:cad>43</ns3:cad>
          </ns3:TrackPointExtension>
        </extensions>
      </trkpt>
      <trkpt lat="37.94434147886931896209716796875" lon="-107.1176954917609691619873046875">
        <ele>3754.60009765625</ele>
        <time>2026-01-06T20:49:43.000Z</time>
        <extensions>
          <ns3:TrackPointExtension>
            <ns3:hr>116</ns3:hr>
            <ns3:cad>0</ns3:cad>
          </ns3:TrackPointExtension>
        </extensions>
      </trkpt>
      <trkpt lat="37.94431884773075580596923828125" lon="-107.11774804629385471343994140625">
        <ele>3754.199951171875</ele>
        <time>2026-01-06T20:49:48.000Z</time>
        <extensions>
          <ns3:TrackPointExtension>
            <ns3:hr>116</ns3:hr>
            <ns3:cad>0</ns3:cad>
          </ns3:TrackPointExtension>
        </extensions>
      </trkpt>
      <trkpt lat="37.94429755769670009613037109375" lon="-107.1177974157035350799560546875">
        <ele>3754.199951171875</ele>
        <time>2026-01-06T20:49:53.000Z</time>
        <extensions>
          <ns3:TrackPointExtension>
            <ns3:hr>116</ns3:hr>
            <ns3:cad>73</ns3:cad>
          </ns3:TrackPointExtension>
        </extensions>
      </trkpt>
      <trkpt lat="37.94427643530070781707763671875" lon="-107.11785365827381610870361328125">
        <ele>3754</ele>
        <time>2026-01-06T20:49:59.000Z</time>
        <extensions>
          <ns3:TrackPointExtension>
            <ns3:hr>116</ns3:hr>
            <ns3:cad>0</ns3:cad>
          </ns3:TrackPointExtension>
        </extensions>
      </trkpt>
      <trkpt lat="37.94425380416214466094970703125" lon="-107.1179057098925113677978515625">
        <ele>3754.199951171875</ele>
        <time>2026-01-06T20:50:04.000Z</time>
        <extensions>
          <ns3:TrackPointExtension>
            <ns3:hr>114</ns3:hr>
            <ns3:cad>0</ns3:cad>
          </ns3:TrackPointExtension>
        </extensions>
      </trkpt>
      <trkpt lat="37.94423997402191162109375" lon="-107.11796010844409465789794921875">
        <ele>3754.60009765625</ele>
        <time>2026-01-06T20:50:10.000Z</time>
        <extensions>
          <ns3:TrackPointExtension>
            <ns3:hr>113</ns3:hr>
            <ns3:cad>40</ns3:cad>
          </ns3:TrackPointExtension>
        </extensions>
      </trkpt>
      <trkpt lat="37.94422362931072711944580078125" lon="-107.118007130920886993408203125">
        <ele>3754.199951171875</ele>
        <time>2026-01-06T20:50:15.000Z</time>
        <extensions>
          <ns3:TrackPointExtension>
            <ns3:hr>112</ns3:hr>
            <ns3:cad>0</ns3:cad>
          </ns3:TrackPointExtension>
        </extensions>
      </trkpt>
      <trkpt lat="37.9441978968679904937744140625" lon="-107.1180706657469272613525390625">
        <ele>3754</ele>
        <time>2026-01-06T20:50:21.000Z</time>
        <extensions>
          <ns3:TrackPointExtension>
            <ns3:hr>110</ns3:hr>
            <ns3:cad>0</ns3:cad>
          </ns3:TrackPointExtension>
        </extensions>
      </trkpt>
      <trkpt lat="37.944171242415904998779296875" lon="-107.1181367151439189910888671875">
        <ele>3753.800048828125</ele>
        <time>2026-01-06T20:50:27.000Z</time>
        <extensions>
          <ns3:TrackPointExtension>
            <ns3:hr>109</ns3:hr>
            <ns3:cad>0</ns3:cad>
          </ns3:TrackPointExtension>
        </extensions>
      </trkpt>
      <trkpt lat="37.9441425763070583343505859375" lon="-107.1182024292647838592529296875">
        <ele>3753.800048828125</ele>
        <time>2026-01-06T20:50:33.000Z</time>
        <extensions>
          <ns3:TrackPointExtension>
            <ns3:hr>108</ns3:hr>
            <ns3:cad>0</ns3:cad>
          </ns3:TrackPointExtension>
        </extensions>
      </trkpt>
      <trkpt lat="37.94411248527467250823974609375" lon="-107.11826202459633350372314453125">
        <ele>3754.199951171875</ele>
        <time>2026-01-06T20:50:39.000Z</time>
        <extensions>
          <ns3:TrackPointExtension>
            <ns3:hr>108</ns3:hr>
            <ns3:cad>0</ns3:cad>
          </ns3:TrackPointExtension>
        </extensions>
      </trkpt>
      <trkpt lat="37.94406831264495849609375" lon="-107.11832086555659770965576171875">
        <ele>3754</ele>
        <time>2026-01-06T20:50:45.000Z</time>
        <extensions>
          <ns3:TrackPointExtension>
            <ns3:hr>108</ns3:hr>
            <ns3:cad>53</ns3:cad>
          </ns3:TrackPointExtension>
        </extensions>
      </trkpt>
      <trkpt lat="37.94406303204596042633056640625" lon="-107.1183308400213718414306640625">
        <ele>3753.800048828125</ele>
        <time>2026-01-06T20:50:46.000Z</time>
        <extensions>
          <ns3:TrackPointExtension>
            <ns3:hr>108</ns3:hr>
            <ns3:cad>53</ns3:cad>
          </ns3:TrackPointExtension>
        </extensions>
      </trkpt>
      <trkpt lat="37.94405448250472545623779296875" lon="-107.118349112570285797119140625">
        <ele>3753.800048828125</ele>
        <time>2026-01-06T20:50:48.000Z</time>
        <extensions>
          <ns3:TrackPointExtension>
            <ns3:hr>105</ns3:hr>
            <ns3:cad>53</ns3:cad>
          </ns3:TrackPointExtension>
        </extensions>
      </trkpt>
      <trkpt lat="37.94403168372809886932373046875" lon="-107.11841289885342121124267578125">
        <ele>3754</ele>
        <time>2026-01-06T20:50:53.000Z</time>
        <extensions>
          <ns3:TrackPointExtension>
            <ns3:hr>107</ns3:hr>
            <ns3:cad>44</ns3:cad>
          </ns3:TrackPointExtension>
        </extensions>
      </trkpt>
      <trkpt lat="37.94400972314178943634033203125" lon="-107.118459083139896392822265625">
        <ele>3754</ele>
        <time>2026-01-06T20:50:57.000Z</time>
        <extensions>
          <ns3:TrackPointExtension>
            <ns3:hr>111</ns3:hr>
            <ns3:cad>45</ns3:cad>
          </ns3:TrackPointExtension>
        </extensions>
      </trkpt>
      <trkpt lat="37.94399815611541271209716796875" lon="-107.11848397739231586456298828125">
        <ele>3754</ele>
        <time>2026-01-06T20:51:00.000Z</time>
        <extensions>
          <ns3:TrackPointExtension>
            <ns3:hr>114</ns3:hr>
            <ns3:cad>44</ns3:cad>
          </ns3:TrackPointExtension>
        </extensions>
      </trkpt>
      <trkpt lat="37.94398407451808452606201171875" lon="-107.1185320056974887847900390625">
        <ele>3754.39990234375</ele>
        <time>2026-01-06T20:51:05.000Z</time>
        <extensions>
          <ns3:TrackPointExtension>
            <ns3:hr>117</ns3:hr>
            <ns3:cad>44</ns3:cad>
          </ns3:TrackPointExtension>
        </extensions>
      </trkpt>
      <trkpt lat="37.94397552497684955596923828125" lon="-107.1185621805489063262939453125">
        <ele>3754.39990234375</ele>
        <time>2026-01-06T20:51:08.000Z</time>
        <extensions>
          <ns3:TrackPointExtension>
            <ns3:hr>117</ns3:hr>
            <ns3:cad>44</ns3:cad>
          </ns3:TrackPointExtension>
        </extensions>
      </trkpt>
      <trkpt lat="37.94395507313311100006103515625" lon="-107.1186275593936443328857421875">
        <ele>3754.199951171875</ele>
        <time>2026-01-06T20:51:14.000Z</time>
        <extensions>
          <ns3:TrackPointExtension>
            <ns3:hr>116</ns3:hr>
            <ns3:cad>46</ns3:cad>
          </ns3:TrackPointExtension>
        </extensions>
      </trkpt>
      <trkpt lat="37.94392758049070835113525390625" lon="-107.11868816055357456207275390625">
        <ele>3754</ele>
        <time>2026-01-06T20:51:20.000Z</time>
        <extensions>
          <ns3:TrackPointExtension>
            <ns3:hr>115</ns3:hr>
            <ns3:cad>45</ns3:cad>
          </ns3:TrackPointExtension>
        </extensions>
      </trkpt>
      <trkpt lat="37.943918444216251373291015625" lon="-107.1187100373208522796630859375">
        <ele>3754</ele>
        <time>2026-01-06T20:51:22.000Z</time>
        <extensions>
          <ns3:TrackPointExtension>
            <ns3:hr>114</ns3:hr>
            <ns3:cad>45</ns3:cad>
          </ns3:TrackPointExtension>
        </extensions>
      </trkpt>
      <trkpt lat="37.9438891075551509857177734375" lon="-107.11877399124205112457275390625">
        <ele>3754</ele>
        <time>2026-01-06T20:51:28.000Z</time>
        <extensions>
          <ns3:TrackPointExtension>
            <ns3:hr>114</ns3:hr>
            <ns3:cad>0</ns3:cad>
          </ns3:TrackPointExtension>
        </extensions>
      </trkpt>
      <trkpt lat="37.94388332404196262359619140625" lon="-107.11878522299230098724365234375">
        <ele>3754.199951171875</ele>
        <time>2026-01-06T20:51:29.000Z</time>
        <extensions>
          <ns3:TrackPointExtension>
            <ns3:hr>114</ns3:hr>
            <ns3:cad>0</ns3:cad>
          </ns3:TrackPointExtension>
        </extensions>
      </trkpt>
      <trkpt lat="37.94385683722794055938720703125" lon="-107.11884699761867523193359375">
        <ele>3754.39990234375</ele>
        <time>2026-01-06T20:51:35.000Z</time>
        <extensions>
          <ns3:TrackPointExtension>
            <ns3:hr>112</ns3:hr>
            <ns3:cad>45</ns3:cad>
          </ns3:TrackPointExtension>
        </extensions>
      </trkpt>
      <trkpt lat="37.94382448308169841766357421875" lon="-107.1189041621983051300048828125">
        <ele>3754.39990234375</ele>
        <time>2026-01-06T20:51:41.000Z</time>
        <extensions>
          <ns3:TrackPointExtension>
            <ns3:hr>110</ns3:hr>
            <ns3:cad>44</ns3:cad>
          </ns3:TrackPointExtension>
        </extensions>
      </trkpt>
      <trkpt lat="37.94382221996784210205078125" lon="-107.118912376463413238525390625">
        <ele>3754.39990234375</ele>
        <time>2026-01-06T20:51:42.000Z</time>
        <extensions>
          <ns3:TrackPointExtension>
            <ns3:hr>110</ns3:hr>
            <ns3:cad>44</ns3:cad>
          </ns3:TrackPointExtension>
        </extensions>
      </trkpt>
      <trkpt lat="37.94381006620824337005615234375" lon="-107.11892905645072460174560546875">
        <ele>3754.60009765625</ele>
        <time>2026-01-06T20:51:44.000Z</time>
        <extensions>
          <ns3:TrackPointExtension>
            <ns3:hr>111</ns3:hr>
            <ns3:cad>44</ns3:cad>
          </ns3:TrackPointExtension>
        </extensions>
      </trkpt>
      <trkpt lat="37.94380654580891132354736328125" lon="-107.11895135231316089630126953125">
        <ele>3755</ele>
        <time>2026-01-06T20:51:46.000Z</time>
        <extensions>
          <ns3:TrackPointExtension>
            <ns3:hr>112</ns3:hr>
            <ns3:cad>0</ns3:cad>
          </ns3:TrackPointExtension>
        </extensions>
      </trkpt>
      <trkpt lat="37.943798415362834930419921875" lon="-107.11896442808210849761962890625">
        <ele>3755.199951171875</ele>
        <time>2026-01-06T20:51:48.000Z</time>
        <extensions>
          <ns3:TrackPointExtension>
            <ns3:hr>112</ns3:hr>
            <ns3:cad>0</ns3:cad>
          </ns3:TrackPointExtension>
        </extensions>
      </trkpt>
      <trkpt lat="37.94377117417752742767333984375" lon="-107.1190285496413707733154296875">
        <ele>3755</ele>
        <time>2026-01-06T20:51:54.000Z</time>
        <extensions>
          <ns3:TrackPointExtension>
            <ns3:hr>111</ns3:hr>
            <ns3:cad>0</ns3:cad>
          </ns3:TrackPointExtension>
        </extensions>
      </trkpt>
      <trkpt lat="37.94374736957252025604248046875" lon="-107.11909350939095020294189453125">
        <ele>3755.199951171875</ele>
        <time>2026-01-06T20:52:00.000Z</time>
        <extensions>
          <ns3:TrackPointExtension>
            <ns3:hr>112</ns3:hr>
            <ns3:cad>0</ns3:cad>
          </ns3:TrackPointExtension>
        </extensions>
      </trkpt>
      <trkpt lat="37.9437241517007350921630859375" lon="-107.119149751961231231689453125">
        <ele>3755.199951171875</ele>
        <time>2026-01-06T20:52:06.000Z</time>
        <extensions>
          <ns3:TrackPointExtension>
            <ns3:hr>113</ns3:hr>
            <ns3:cad>0</ns3:cad>
          </ns3:TrackPointExtension>
        </extensions>
      </trkpt>
      <trkpt lat="37.94371853582561016082763671875" lon="-107.11916995234787464141845703125">
        <ele>3755</ele>
        <time>2026-01-06T20:52:08.000Z</time>
        <extensions>
          <ns3:TrackPointExtension>
            <ns3:hr>112</ns3:hr>
            <ns3:cad>0</ns3:cad>
          </ns3:TrackPointExtension>
        </extensions>
      </trkpt>
      <trkpt lat="37.9436993412673473358154296875" lon="-107.11921974085271358489990234375">
        <ele>3755.39990234375</ele>
        <time>2026-01-06T20:52:12.000Z</time>
        <extensions>
          <ns3:TrackPointExtension>
            <ns3:hr>111</ns3:hr>
            <ns3:cad>45</ns3:cad>
          </ns3:TrackPointExtension>
        </extensions>
      </trkpt>
      <trkpt lat="37.94368232600390911102294921875" lon="-107.11926751770079135894775390625">
        <ele>3755.60009765625</ele>
        <time>2026-01-06T20:52:16.000Z</time>
        <extensions>
          <ns3:TrackPointExtension>
            <ns3:hr>111</ns3:hr>
            <ns3:cad>41</ns3:cad>
          </ns3:TrackPointExtension>
        </extensions>
      </trkpt>
      <trkpt lat="37.9436570964753627777099609375" lon="-107.1193356625735759735107421875">
        <ele>3755.60009765625</ele>
        <time>2026-01-06T20:52:22.000Z</time>
        <extensions>
          <ns3:TrackPointExtension>
            <ns3:hr>111</ns3:hr>
            <ns3:cad>0</ns3:cad>
          </ns3:TrackPointExtension>
        </extensions>
      </trkpt>
      <trkpt lat="37.9436480440199375152587890625" lon="-107.11935871280729770660400390625">
        <ele>3755.60009765625</ele>
        <time>2026-01-06T20:52:24.000Z</time>
        <extensions>
          <ns3:TrackPointExtension>
            <ns3:hr>111</ns3:hr>
            <ns3:cad>0</ns3:cad>
          </ns3:TrackPointExtension>
        </extensions>
      </trkpt>
      <trkpt lat="37.94363186694681644439697265625" lon="-107.11941420100629329681396484375">
        <ele>3755</ele>
        <time>2026-01-06T20:52:30.000Z</time>
        <extensions>
          <ns3:TrackPointExtension>
            <ns3:hr>110</ns3:hr>
            <ns3:cad>0</ns3:cad>
          </ns3:TrackPointExtension>
        </extensions>
      </trkpt>
      <trkpt lat="37.9436098225414752960205078125" lon="-107.11945761926472187042236328125">
        <ele>3755.39990234375</ele>
        <time>2026-01-06T20:52:34.000Z</time>
        <extensions>
          <ns3:TrackPointExtension>
            <ns3:hr>109</ns3:hr>
            <ns3:cad>0</ns3:cad>
          </ns3:TrackPointExtension>
        </extensions>
      </trkpt>
      <trkpt lat="37.9435836710035800933837890625" lon="-107.11951352655887603759765625">
        <ele>3755</ele>
        <time>2026-01-06T20:52:40.000Z</time>
        <extensions>
          <ns3:TrackPointExtension>
            <ns3:hr>108</ns3:hr>
            <ns3:cad>51</ns3:cad>
          </ns3:TrackPointExtension>
        </extensions>
      </trkpt>
      <trkpt lat="37.94356070458889007568359375" lon="-107.1195743791759014129638671875">
        <ele>3755</ele>
        <time>2026-01-06T20:52:46.000Z</time>
        <extensions>
          <ns3:TrackPointExtension>
            <ns3:hr>109</ns3:hr>
            <ns3:cad>0</ns3:cad>
          </ns3:TrackPointExtension>
        </extensions>
      </trkpt>
      <trkpt lat="37.943544276058673858642578125" lon="-107.11963422596454620361328125">
        <ele>3755.39990234375</ele>
        <time>2026-01-06T20:52:51.000Z</time>
        <extensions>
          <ns3:TrackPointExtension>
            <ns3:hr>109</ns3:hr>
            <ns3:cad>0</ns3:cad>
          </ns3:TrackPointExtension>
        </extensions>
      </trkpt>
      <trkpt lat="37.94352139346301555633544921875" lon="-107.11970488540828227996826171875">
        <ele>3754.60009765625</ele>
        <time>2026-01-06T20:52:57.000Z</time>
        <extensions>
          <ns3:TrackPointExtension>
            <ns3:hr>109</ns3:hr>
            <ns3:cad>0</ns3:cad>
          </ns3:TrackPointExtension>
        </extensions>
      </trkpt>
      <trkpt lat="37.9435159452259540557861328125" lon="-107.1197235770523548126220703125">
        <ele>3754.39990234375</ele>
        <time>2026-01-06T20:52:59.000Z</time>
        <extensions>
          <ns3:TrackPointExtension>
            <ns3:hr>108</ns3:hr>
            <ns3:cad>0</ns3:cad>
          </ns3:TrackPointExtension>
        </extensions>
      </trkpt>
      <trkpt lat="37.94349507428705692291259765625" lon="-107.1197772212326526641845703125">
        <ele>3754.800048828125</ele>
        <time>2026-01-06T20:53:04.000Z</time>
        <extensions>
          <ns3:TrackPointExtension>
            <ns3:hr>108</ns3:hr>
            <ns3:cad>0</ns3:cad>
          </ns3:TrackPointExtension>
        </extensions>
      </trkpt>
      <trkpt lat="37.94347814284265041351318359375" lon="-107.11981954984366893768310546875">
        <ele>3754.800048828125</ele>
        <time>2026-01-06T20:53:09.000Z</time>
        <extensions>
          <ns3:TrackPointExtension>
            <ns3:hr>108</ns3:hr>
            <ns3:cad>0</ns3:cad>
          </ns3:TrackPointExtension>
        </extensions>
      </trkpt>
      <trkpt lat="37.94345584698021411895751953125" lon="-107.119852490723133087158203125">
        <ele>3754.800048828125</ele>
        <time>2026-01-06T20:53:12.000Z</time>
        <extensions>
          <ns3:TrackPointExtension>
            <ns3:hr>105</ns3:hr>
            <ns3:cad>0</ns3:cad>
          </ns3:TrackPointExtension>
        </extensions>
      </trkpt>
      <trkpt lat="37.9434366524219512939453125" lon="-107.11988677270710468292236328125">
        <ele>3754.800048828125</ele>
        <time>2026-01-06T20:53:15.000Z</time>
        <extensions>
          <ns3:TrackPointExtension>
            <ns3:hr>104</ns3:hr>
            <ns3:cad>43</ns3:cad>
          </ns3:TrackPointExtension>
        </extensions>
      </trkpt>
      <trkpt lat="37.94340203516185283660888671875" lon="-107.1199381537735462188720703125">
        <ele>3754.60009765625</ele>
        <time>2026-01-06T20:53:20.000Z</time>
        <extensions>
          <ns3:TrackPointExtension>
            <ns3:hr>104</ns3:hr>
            <ns3:cad>0</ns3:cad>
          </ns3:TrackPointExtension>
        </extensions>
      </trkpt>
      <trkpt lat="37.94337563216686248779296875" lon="-107.12000034749507904052734375">
        <ele>3754.60009765625</ele>
        <time>2026-01-06T20:53:25.000Z</time>
        <extensions>
          <ns3:TrackPointExtension>
            <ns3:hr>104</ns3:hr>
            <ns3:cad>44</ns3:cad>
          </ns3:TrackPointExtension>
        </extensions>
      </trkpt>
      <trkpt lat="37.94337320141494274139404296875" lon="-107.1200112439692020416259765625">
        <ele>3754.60009765625</ele>
        <time>2026-01-06T20:53:26.000Z</time>
        <extensions>
          <ns3:TrackPointExtension>
            <ns3:hr>104</ns3:hr>
            <ns3:cad>0</ns3:cad>
          </ns3:TrackPointExtension>
        </extensions>
      </trkpt>
      <trkpt lat="37.9433427751064300537109375" lon="-107.12006212212145328521728515625">
        <ele>3754.60009765625</ele>
        <time>2026-01-06T20:53:31.000Z</time>
        <extensions>
          <ns3:TrackPointExtension>
            <ns3:hr>104</ns3:hr>
            <ns3:cad>0</ns3:cad>
          </ns3:TrackPointExtension>
        </extensions>
      </trkpt>
      <trkpt lat="37.94331335462629795074462890625" lon="-107.12014527060091495513916015625">
        <ele>3753.60009765625</ele>
        <time>2026-01-06T20:53:37.000Z</time>
        <extensions>
          <ns3:TrackPointExtension>
            <ns3:hr>105</ns3:hr>
            <ns3:cad>48</ns3:cad>
          </ns3:TrackPointExtension>
        </extensions>
      </trkpt>
      <trkpt lat="37.9433100856840610504150390625" lon="-107.12015683762729167938232421875">
        <ele>3753.39990234375</ele>
        <time>2026-01-06T20:53:38.000Z</time>
        <extensions>
          <ns3:TrackPointExtension>
            <ns3:hr>105</ns3:hr>
            <ns3:cad>48</ns3:cad>
          </ns3:TrackPointExtension>
        </extensions>
      </trkpt>
      <trkpt lat="37.94327630661427974700927734375" lon="-107.12023797444999217987060546875">
        <ele>3753.199951171875</ele>
        <time>2026-01-06T20:53:44.000Z</time>
        <extensions>
          <ns3:TrackPointExtension>
            <ns3:hr>103</ns3:hr>
            <ns3:cad>0</ns3:cad>
          </ns3:TrackPointExtension>
        </extensions>
      </trkpt>
      <trkpt lat="37.94325761497020721435546875" lon="-107.1203022636473178863525390625">
        <ele>3753.39990234375</ele>
        <time>2026-01-06T20:53:50.000Z</time>
        <extensions>
          <ns3:TrackPointExtension>
            <ns3:hr>101</ns3:hr>
            <ns3:cad>0</ns3:cad>
          </ns3:TrackPointExtension>
        </extensions>
      </trkpt>
      <trkpt lat="37.94323188252747058868408203125" lon="-107.12035347707569599151611328125">
        <ele>3754.39990234375</ele>
        <time>2026-01-06T20:53:55.000Z</time>
        <extensions>
          <ns3:TrackPointExtension>
            <ns3:hr>103</ns3:hr>
            <ns3:cad>0</ns3:cad>
          </ns3:TrackPointExtension>
        </extensions>
      </trkpt>
      <trkpt lat="37.94322450645267963409423828125" lon="-107.12036571465432643890380859375">
        <ele>3754.60009765625</ele>
        <time>2026-01-06T20:53:56.000Z</time>
        <extensions>
          <ns3:TrackPointExtension>
            <ns3:hr>103</ns3:hr>
            <ns3:cad>0</ns3:cad>
          </ns3:TrackPointExtension>
        </extensions>
      </trkpt>
      <trkpt lat="37.94320925138890743255615234375" lon="-107.12039873935282230377197265625">
        <ele>3754.39990234375</ele>
        <time>2026-01-06T20:53:59.000Z</time>
        <extensions>
          <ns3:TrackPointExtension>
            <ns3:hr>106</ns3:hr>
            <ns3:cad>0</ns3:cad>
          </ns3:TrackPointExtension>
        </extensions>
      </trkpt>
      <trkpt lat="37.943196929991245269775390625" lon="-107.120431847870349884033203125">
        <ele>3753.800048828125</ele>
        <time>2026-01-06T20:54:02.000Z</time>
        <extensions>
          <ns3:TrackPointExtension>
            <ns3:hr>107</ns3:hr>
            <ns3:cad>0</ns3:cad>
          </ns3:TrackPointExtension>
        </extensions>
      </trkpt>
      <trkpt lat="37.943172790110111236572265625" lon="-107.1204839833080768585205078125">
        <ele>3754</ele>
        <time>2026-01-06T20:54:07.000Z</time>
        <extensions>
          <ns3:TrackPointExtension>
            <ns3:hr>108</ns3:hr>
            <ns3:cad>0</ns3:cad>
          </ns3:TrackPointExtension>
        </extensions>
      </trkpt>
      <trkpt lat="37.94316080398857593536376953125" lon="-107.12051667273044586181640625">
        <ele>3753.39990234375</ele>
        <time>2026-01-06T20:54:10.000Z</time>
        <extensions>
          <ns3:TrackPointExtension>
            <ns3:hr>109</ns3:hr>
            <ns3:cad>0</ns3:cad>
          </ns3:TrackPointExtension>
        </extensions>
      </trkpt>
      <trkpt lat="37.94314705766737461090087890625" lon="-107.1205671317875385284423828125">
        <ele>3752.199951171875</ele>
        <time>2026-01-06T20:54:14.000Z</time>
        <extensions>
          <ns3:TrackPointExtension>
            <ns3:hr>110</ns3:hr>
            <ns3:cad>45</ns3:cad>
          </ns3:TrackPointExtension>
        </extensions>
      </trkpt>
      <trkpt lat="37.94314135797321796417236328125" lon="-107.12058062665164470672607421875">
        <ele>3752</ele>
        <time>2026-01-06T20:54:15.000Z</time>
        <extensions>
          <ns3:TrackPointExtension>
            <ns3:hr>114</ns3:hr>
            <ns3:cad>45</ns3:cad>
          </ns3:TrackPointExtension>
        </extensions>
      </trkpt>
      <trkpt lat="37.94313825666904449462890625" lon="-107.120591104030609130859375">
        <ele>3751.60009765625</ele>
        <time>2026-01-06T20:54:16.000Z</time>
        <extensions>
          <ns3:TrackPointExtension>
            <ns3:hr>117</ns3:hr>
            <ns3:cad>45</ns3:cad>
          </ns3:TrackPointExtension>
        </extensions>
      </trkpt>
      <trkpt lat="37.94311487115919589996337890625" lon="-107.12064449675381183624267578125">
        <ele>3751.800048828125</ele>
        <time>2026-01-06T20:54:21.000Z</time>
        <extensions>
          <ns3:TrackPointExtension>
            <ns3:hr>118</ns3:hr>
            <ns3:cad>0</ns3:cad>
          </ns3:TrackPointExtension>
        </extensions>
      </trkpt>
      <trkpt lat="37.94308637268841266632080078125" lon="-107.12069747038185596466064453125">
        <ele>3751.39990234375</ele>
        <time>2026-01-06T20:54:26.000Z</time>
        <extensions>
          <ns3:TrackPointExtension>
            <ns3:hr>118</ns3:hr>
            <ns3:cad>0</ns3:cad>
          </ns3:TrackPointExtension>
        </extensions>
      </trkpt>
      <trkpt lat="37.94305435381829738616943359375" lon="-107.12075983174145221710205078125">
        <ele>3751.199951171875</ele>
        <time>2026-01-06T20:54:32.000Z</time>
        <extensions>
          <ns3:TrackPointExtension>
            <ns3:hr>117</ns3:hr>
            <ns3:cad>0</ns3:cad>
          </ns3:TrackPointExtension>
        </extensions>
      </trkpt>
      <trkpt lat="37.94304630719125270843505859375" lon="-107.12077148258686065673828125">
        <ele>3751</ele>
        <time>2026-01-06T20:54:33.000Z</time>
        <extensions>
          <ns3:TrackPointExtension>
            <ns3:hr>118</ns3:hr>
            <ns3:cad>0</ns3:cad>
          </ns3:TrackPointExtension>
        </extensions>
      </trkpt>
      <trkpt lat="37.943011857569217681884765625" lon="-107.12082906626164913177490234375">
        <ele>3751.39990234375</ele>
        <time>2026-01-06T20:54:39.000Z</time>
        <extensions>
          <ns3:TrackPointExtension>
            <ns3:hr>119</ns3:hr>
            <ns3:cad>0</ns3:cad>
          </ns3:TrackPointExtension>
        </extensions>
      </trkpt>
      <trkpt lat="37.94298076070845127105712890625" lon="-107.12089092470705509185791015625">
        <ele>3751.199951171875</ele>
        <time>2026-01-06T20:54:45.000Z</time>
        <extensions>
          <ns3:TrackPointExtension>
            <ns3:hr>119</ns3:hr>
            <ns3:cad>0</ns3:cad>
          </ns3:TrackPointExtension>
        </extensions>
      </trkpt>
      <trkpt lat="37.94294639490544795989990234375" lon="-107.120925374329090118408203125">
        <ele>3751.39990234375</ele>
        <time>2026-01-06T20:54:50.000Z</time>
        <extensions>
          <ns3:TrackPointExtension>
            <ns3:hr>120</ns3:hr>
            <ns3:cad>0</ns3:cad>
          </ns3:TrackPointExtension>
        </extensions>
      </trkpt>
      <trkpt lat="37.9429104365408420562744140625" lon="-107.1209754981100559234619140625">
        <ele>3751.60009765625</ele>
        <time>2026-01-06T20:54:56.000Z</time>
        <extensions>
          <ns3:TrackPointExtension>
            <ns3:hr>120</ns3:hr>
            <ns3:cad>69</ns3:cad>
          </ns3:TrackPointExtension>
        </extensions>
      </trkpt>
      <trkpt lat="37.942880094051361083984375" lon="-107.1210224367678165435791015625">
        <ele>3751.199951171875</ele>
        <time>2026-01-06T20:55:02.000Z</time>
        <extensions>
          <ns3:TrackPointExtension>
            <ns3:hr>119</ns3:hr>
            <ns3:cad>0</ns3:cad>
          </ns3:TrackPointExtension>
        </extensions>
      </trkpt>
      <trkpt lat="37.94285017065703868865966796875" lon="-107.1210673637688159942626953125">
        <ele>3751.199951171875</ele>
        <time>2026-01-06T20:55:06.000Z</time>
        <extensions>
          <ns3:TrackPointExtension>
            <ns3:hr>118</ns3:hr>
            <ns3:cad>47</ns3:cad>
          </ns3:TrackPointExtension>
        </extensions>
      </trkpt>
      <trkpt lat="37.94282267801463603973388671875" lon="-107.12111606262624263763427734375">
        <ele>3751.60009765625</ele>
        <time>2026-01-06T20:55:12.000Z</time>
        <extensions>
          <ns3:TrackPointExtension>
            <ns3:hr>118</ns3:hr>
            <ns3:cad>0</ns3:cad>
          </ns3:TrackPointExtension>
        </extensions>
      </trkpt>
      <trkpt lat="37.9428172297775745391845703125" lon="-107.1211216785013675689697265625">
        <ele>3751.39990234375</ele>
        <time>2026-01-06T20:55:13.000Z</time>
        <extensions>
          <ns3:TrackPointExtension>
            <ns3:hr>118</ns3:hr>
            <ns3:cad>0</ns3:cad>
          </ns3:TrackPointExtension>
        </extensions>
      </trkpt>
      <trkpt lat="37.942785210907459259033203125" lon="-107.1211783401668071746826171875">
        <ele>3751.199951171875</ele>
        <time>2026-01-06T20:55:19.000Z</time>
        <extensions>
          <ns3:TrackPointExtension>
            <ns3:hr>115</ns3:hr>
            <ns3:cad>0</ns3:cad>
          </ns3:TrackPointExtension>
        </extensions>
      </trkpt>
      <trkpt lat="37.9427754878997802734375" lon="-107.12119334377348423004150390625">
        <ele>3751</ele>
        <time>2026-01-06T20:55:21.000Z</time>
        <extensions>
          <ns3:TrackPointExtension>
            <ns3:hr>115</ns3:hr>
            <ns3:cad>0</ns3:cad>
          </ns3:TrackPointExtension>
        </extensions>
      </trkpt>
      <trkpt lat="37.94275696389377117156982421875" lon="-107.121235169470310211181640625">
        <ele>3751</ele>
        <time>2026-01-06T20:55:27.000Z</time>
        <extensions>
          <ns3:TrackPointExtension>
            <ns3:hr>115</ns3:hr>
            <ns3:cad>0</ns3:cad>
          </ns3:TrackPointExtension>
        </extensions>
      </trkpt>
      <trkpt lat="37.9427327401936054229736328125" lon="-107.121289484202861785888671875">
        <ele>3750.800048828125</ele>
        <time>2026-01-06T20:55:33.000Z</time>
        <extensions>
          <ns3:TrackPointExtension>
            <ns3:hr>113</ns3:hr>
            <ns3:cad>0</ns3:cad>
          </ns3:TrackPointExtension>
        </extensions>
      </trkpt>
      <trkpt lat="37.94271103106439113616943359375" lon="-107.12133851833641529083251953125">
        <ele>3751</ele>
        <time>2026-01-06T20:55:38.000Z</time>
        <extensions>
          <ns3:TrackPointExtension>
            <ns3:hr>112</ns3:hr>
            <ns3:cad>76</ns3:cad>
          </ns3:TrackPointExtension>
        </extensions>
      </trkpt>
      <trkpt lat="37.9426941834390163421630859375" lon="-107.121402807533740997314453125">
        <ele>3750.800048828125</ele>
        <time>2026-01-06T20:55:44.000Z</time>
        <extensions>
          <ns3:TrackPointExtension>
            <ns3:hr>112</ns3:hr>
            <ns3:cad>63</ns3:cad>
          </ns3:TrackPointExtension>
        </extensions>
      </trkpt>
      <trkpt lat="37.94269158504903316497802734375" lon="-107.12141009978950023651123046875">
        <ele>3750.800048828125</ele>
        <time>2026-01-06T20:55:45.000Z</time>
        <extensions>
          <ns3:TrackPointExtension>
            <ns3:hr>112</ns3:hr>
            <ns3:cad>63</ns3:cad>
          </ns3:TrackPointExtension>
        </extensions>
      </trkpt>
      <trkpt lat="37.94267180375754833221435546875" lon="-107.12147966958582401275634765625">
        <ele>3750.800048828125</ele>
        <time>2026-01-06T20:55:51.000Z</time>
        <extensions>
          <ns3:TrackPointExtension>
            <ns3:hr>110</ns3:hr>
            <ns3:cad>44</ns3:cad>
          </ns3:TrackPointExtension>
        </extensions>
      </trkpt>
      <trkpt lat="37.94267012737691402435302734375" lon="-107.1214867942035198211669921875">
        <ele>3750.800048828125</ele>
        <time>2026-01-06T20:55:52.000Z</time>
        <extensions>
          <ns3:TrackPointExtension>
            <ns3:hr>111</ns3:hr>
            <ns3:cad>44</ns3:cad>
          </ns3:TrackPointExtension>
        </extensions>
      </trkpt>
      <trkpt lat="37.94265554286539554595947265625" lon="-107.12153666652739048004150390625">
        <ele>3750.60009765625</ele>
        <time>2026-01-06T20:55:57.000Z</time>
        <extensions>
          <ns3:TrackPointExtension>
            <ns3:hr>110</ns3:hr>
            <ns3:cad>41</ns3:cad>
          </ns3:TrackPointExtension>
        </extensions>
      </trkpt>
      <trkpt lat="37.9426351748406887054443359375" lon="-107.1215753071010112762451171875">
        <ele>3750.60009765625</ele>
        <time>2026-01-06T20:56:02.000Z</time>
        <extensions>
          <ns3:TrackPointExtension>
            <ns3:hr>109</ns3:hr>
            <ns3:cad>0</ns3:cad>
          </ns3:TrackPointExtension>
        </extensions>
      </trkpt>
      <trkpt lat="37.94260374270379543304443359375" lon="-107.12162434123456478118896484375">
        <ele>3750.199951171875</ele>
        <time>2026-01-06T20:56:07.000Z</time>
        <extensions>
          <ns3:TrackPointExtension>
            <ns3:hr>108</ns3:hr>
            <ns3:cad>0</ns3:cad>
          </ns3:TrackPointExtension>
        </extensions>
      </trkpt>
      <trkpt lat="37.94259301386773586273193359375" lon="-107.12170380167663097381591796875">
        <ele>3750.60009765625</ele>
        <time>2026-01-06T20:56:13.000Z</time>
        <extensions>
          <ns3:TrackPointExtension>
            <ns3:hr>107</ns3:hr>
            <ns3:cad>48</ns3:cad>
          </ns3:TrackPointExtension>
        </extensions>
      </trkpt>
      <trkpt lat="37.9425721429288387298583984375" lon="-107.121768258512020111083984375">
        <ele>3751</ele>
        <time>2026-01-06T20:56:18.000Z</time>
        <extensions>
          <ns3:TrackPointExtension>
            <ns3:hr>105</ns3:hr>
            <ns3:cad>47</ns3:cad>
          </ns3:TrackPointExtension>
        </extensions>
      </trkpt>
      <trkpt lat="37.9425604082643985748291015625" lon="-107.1218009479343891143798828125">
        <ele>3751.199951171875</ele>
        <time>2026-01-06T20:56:21.000Z</time>
        <extensions>
          <ns3:TrackPointExtension>
            <ns3:hr>100</ns3:hr>
            <ns3:cad>45</ns3:cad>
          </ns3:TrackPointExtension>
        </extensions>
      </trkpt>
      <trkpt lat="37.942551188170909881591796875" lon="-107.12181444279849529266357421875">
        <ele>3751</ele>
        <time>2026-01-06T20:56:22.000Z</time>
        <extensions>
          <ns3:TrackPointExtension>
            <ns3:hr>97</ns3:hr>
            <ns3:cad>45</ns3:cad>
          </ns3:TrackPointExtension>
        </extensions>
      </trkpt>
      <trkpt lat="37.9425453208386898040771484375" lon="-107.1218257583677768707275390625">
        <ele>3750.800048828125</ele>
        <time>2026-01-06T20:56:23.000Z</time>
        <extensions>
          <ns3:TrackPointExtension>
            <ns3:hr>97</ns3:hr>
            <ns3:cad>45</ns3:cad>
          </ns3:TrackPointExtension>
        </extensions>
      </trkpt>
      <trkpt lat="37.9425396211445331573486328125" lon="-107.12183506228029727935791015625">
        <ele>3750.60009765625</ele>
        <time>2026-01-06T20:56:24.000Z</time>
        <extensions>
          <ns3:TrackPointExtension>
            <ns3:hr>96</ns3:hr>
            <ns3:cad>45</ns3:cad>
          </ns3:TrackPointExtension>
        </extensions>
      </trkpt>
      <trkpt lat="37.9425211809575557708740234375" lon="-107.1218887902796268463134765625">
        <ele>3750.60009765625</ele>
        <time>2026-01-06T20:56:29.000Z</time>
        <extensions>
          <ns3:TrackPointExtension>
            <ns3:hr>99</ns3:hr>
            <ns3:cad>45</ns3:cad>
          </ns3:TrackPointExtension>
        </extensions>
      </trkpt>
      <trkpt lat="37.9425181634724140167236328125" lon="-107.12189943529665470123291015625">
        <ele>3750.60009765625</ele>
        <time>2026-01-06T20:56:30.000Z</time>
        <extensions>
          <ns3:TrackPointExtension>
            <ns3:hr>100</ns3:hr>
            <ns3:cad>45</ns3:cad>
          </ns3:TrackPointExtension>
        </extensions>
      </trkpt>
      <trkpt lat="37.94249050319194793701171875" lon="-107.1219511516392230987548828125">
        <ele>3750.39990234375</ele>
        <time>2026-01-06T20:56:36.000Z</time>
        <extensions>
          <ns3:TrackPointExtension>
            <ns3:hr>103</ns3:hr>
            <ns3:cad>45</ns3:cad>
          </ns3:TrackPointExtension>
        </extensions>
      </trkpt>
      <trkpt lat="37.94247516430914402008056640625" lon="-107.12198878638446331024169921875">
        <ele>3750.800048828125</ele>
        <time>2026-01-06T20:56:41.000Z</time>
        <extensions>
          <ns3:TrackPointExtension>
            <ns3:hr>103</ns3:hr>
            <ns3:cad>43</ns3:cad>
          </ns3:TrackPointExtension>
        </extensions>
      </trkpt>
      <trkpt lat="37.94244532473385334014892578125" lon="-107.12204729206860065460205078125">
        <ele>3751</ele>
        <time>2026-01-06T20:56:47.000Z</time>
        <extensions>
          <ns3:TrackPointExtension>
            <ns3:hr>105</ns3:hr>
            <ns3:cad>0</ns3:cad>
          </ns3:TrackPointExtension>
        </extensions>
      </trkpt>
      <trkpt lat="37.94241766445338726043701171875" lon="-107.12210177443921566009521484375">
        <ele>3750.60009765625</ele>
        <time>2026-01-06T20:56:53.000Z</time>
        <extensions>
          <ns3:TrackPointExtension>
            <ns3:hr>105</ns3:hr>
            <ns3:cad>0</ns3:cad>
          </ns3:TrackPointExtension>
        </extensions>
      </trkpt>
      <trkpt lat="37.94240861199796199798583984375" lon="-107.1221265010535717010498046875">
        <ele>3750.800048828125</ele>
        <time>2026-01-06T20:56:55.000Z</time>
        <extensions>
          <ns3:TrackPointExtension>
            <ns3:hr>107</ns3:hr>
            <ns3:cad>79</ns3:cad>
          </ns3:TrackPointExtension>
        </extensions>
      </trkpt>
      <trkpt lat="37.94238648377358913421630859375" lon="-107.12217561900615692138671875">
        <ele>3750.60009765625</ele>
        <time>2026-01-06T20:57:00.000Z</time>
        <extensions>
          <ns3:TrackPointExtension>
            <ns3:hr>110</ns3:hr>
            <ns3:cad>48</ns3:cad>
          </ns3:TrackPointExtension>
        </extensions>
      </trkpt>
      <trkpt lat="37.94238296337425708770751953125" lon="-107.12218760512769222259521484375">
        <ele>3750.60009765625</ele>
        <time>2026-01-06T20:57:01.000Z</time>
        <extensions>
          <ns3:TrackPointExtension>
            <ns3:hr>110</ns3:hr>
            <ns3:cad>48</ns3:cad>
          </ns3:TrackPointExtension>
        </extensions>
      </trkpt>
      <trkpt lat="37.94236955232918262481689453125" lon="-107.12222465313971042633056640625">
        <ele>3750.60009765625</ele>
        <time>2026-01-06T20:57:06.000Z</time>
        <extensions>
          <ns3:TrackPointExtension>
            <ns3:hr>111</ns3:hr>
            <ns3:cad>48</ns3:cad>
          </ns3:TrackPointExtension>
        </extensions>
      </trkpt>
      <trkpt lat="37.9423441551625728607177734375" lon="-107.12227058596909046173095703125">
        <ele>3751</ele>
        <time>2026-01-06T20:57:11.000Z</time>
        <extensions>
          <ns3:TrackPointExtension>
            <ns3:hr>110</ns3:hr>
            <ns3:cad>71</ns3:cad>
          </ns3:TrackPointExtension>
        </extensions>
      </trkpt>
      <trkpt lat="37.942309789359569549560546875" lon="-107.12234317325055599212646484375">
        <ele>3750.800048828125</ele>
        <time>2026-01-06T20:57:17.000Z</time>
        <extensions>
          <ns3:TrackPointExtension>
            <ns3:hr>111</ns3:hr>
            <ns3:cad>48</ns3:cad>
          </ns3:TrackPointExtension>
        </extensions>
      </trkpt>
      <trkpt lat="37.942303083837032318115234375" lon="-107.12235406972467899322509765625">
        <ele>3750.800048828125</ele>
        <time>2026-01-06T20:57:18.000Z</time>
        <extensions>
          <ns3:TrackPointExtension>
            <ns3:hr>111</ns3:hr>
            <ns3:cad>50</ns3:cad>
          </ns3:TrackPointExtension>
        </extensions>
      </trkpt>
      <trkpt lat="37.94227265752851963043212890625" lon="-107.12241374887526035308837890625">
        <ele>3751</ele>
        <time>2026-01-06T20:57:24.000Z</time>
        <extensions>
          <ns3:TrackPointExtension>
            <ns3:hr>112</ns3:hr>
            <ns3:cad>47</ns3:cad>
          </ns3:TrackPointExtension>
        </extensions>
      </trkpt>
      <trkpt lat="37.9422442428767681121826171875" lon="-107.122470997273921966552734375">
        <ele>3751</ele>
        <time>2026-01-06T20:57:29.000Z</time>
        <extensions>
          <ns3:TrackPointExtension>
            <ns3:hr>112</ns3:hr>
            <ns3:cad>48</ns3:cad>
          </ns3:TrackPointExtension>
        </extensions>
      </trkpt>
      <trkpt lat="37.94221398420631885528564453125" lon="-107.12252564728260040283203125">
        <ele>3750.199951171875</ele>
        <time>2026-01-06T20:57:34.000Z</time>
        <extensions>
          <ns3:TrackPointExtension>
            <ns3:hr>113</ns3:hr>
            <ns3:cad>47</ns3:cad>
          </ns3:TrackPointExtension>
        </extensions>
      </trkpt>
      <trkpt lat="37.9422056861221790313720703125" lon="-107.12254048325121402740478515625">
        <ele>3750</ele>
        <time>2026-01-06T20:57:36.000Z</time>
        <extensions>
          <ns3:TrackPointExtension>
            <ns3:hr>113</ns3:hr>
            <ns3:cad>47</ns3:cad>
          </ns3:TrackPointExtension>
        </extensions>
      </trkpt>
      <trkpt lat="37.9421815462410449981689453125" lon="-107.12258507497608661651611328125">
        <ele>3750.199951171875</ele>
        <time>2026-01-06T20:57:41.000Z</time>
        <extensions>
          <ns3:TrackPointExtension>
            <ns3:hr>115</ns3:hr>
            <ns3:cad>0</ns3:cad>
          </ns3:TrackPointExtension>
        </extensions>
      </trkpt>
      <trkpt lat="37.94215363450348377227783203125" lon="-107.12263788096606731414794921875">
        <ele>3750.199951171875</ele>
        <time>2026-01-06T20:57:46.000Z</time>
        <extensions>
          <ns3:TrackPointExtension>
            <ns3:hr>115</ns3:hr>
            <ns3:cad>47</ns3:cad>
          </ns3:TrackPointExtension>
        </extensions>
      </trkpt>
      <trkpt lat="37.9421201907098293304443359375" lon="-107.1227025054395198822021484375">
        <ele>3750.199951171875</ele>
        <time>2026-01-06T20:57:52.000Z</time>
        <extensions>
          <ns3:TrackPointExtension>
            <ns3:hr>113</ns3:hr>
            <ns3:cad>49</ns3:cad>
          </ns3:TrackPointExtension>
        </extensions>
      </trkpt>
      <trkpt lat="37.942114658653736114501953125" lon="-107.1227135695517063140869140625">
        <ele>3750.199951171875</ele>
        <time>2026-01-06T20:57:53.000Z</time>
        <extensions>
          <ns3:TrackPointExtension>
            <ns3:hr>113</ns3:hr>
            <ns3:cad>49</ns3:cad>
          </ns3:TrackPointExtension>
        </extensions>
      </trkpt>
      <trkpt lat="37.9420880042016506195068359375" lon="-107.1227682195603847503662109375">
        <ele>3749.800048828125</ele>
        <time>2026-01-06T20:57:59.000Z</time>
        <extensions>
          <ns3:TrackPointExtension>
            <ns3:hr>113</ns3:hr>
            <ns3:cad>44</ns3:cad>
          </ns3:TrackPointExtension>
        </extensions>
      </trkpt>
      <trkpt lat="37.9420819692313671112060546875" lon="-107.1227816306054592132568359375">
        <ele>3750</ele>
        <time>2026-01-06T20:58:00.000Z</time>
        <extensions>
          <ns3:TrackPointExtension>
            <ns3:hr>114</ns3:hr>
            <ns3:cad>44</ns3:cad>
          </ns3:TrackPointExtension>
        </extensions>
      </trkpt>
      <trkpt lat="37.9420579969882965087890625" lon="-107.1228242106735706329345703125">
        <ele>3750.199951171875</ele>
        <time>2026-01-06T20:58:05.000Z</time>
        <extensions>
          <ns3:TrackPointExtension>
            <ns3:hr>109</ns3:hr>
            <ns3:cad>40</ns3:cad>
          </ns3:TrackPointExtension>
        </extensions>
      </trkpt>
      <trkpt lat="37.942050285637378692626953125" lon="-107.12283611297607421875">
        <ele>3750.199951171875</ele>
        <time>2026-01-06T20:58:06.000Z</time>
        <extensions>
          <ns3:TrackPointExtension>
            <ns3:hr>104</ns3:hr>
            <ns3:cad>40</ns3:cad>
          </ns3:TrackPointExtension>
        </extensions>
      </trkpt>
      <trkpt lat="37.9420316778123378753662109375" lon="-107.12288103997707366943359375">
        <ele>3749.800048828125</ele>
        <time>2026-01-06T20:58:10.000Z</time>
        <extensions>
          <ns3:TrackPointExtension>
            <ns3:hr>103</ns3:hr>
            <ns3:cad>41</ns3:cad>
          </ns3:TrackPointExtension>
        </extensions>
      </trkpt>
      <trkpt lat="37.9420031793415546417236328125" lon="-107.12293510325253009796142578125">
        <ele>3749.800048828125</ele>
        <time>2026-01-06T20:58:16.000Z</time>
        <extensions>
          <ns3:TrackPointExtension>
            <ns3:hr>103</ns3:hr>
            <ns3:cad>42</ns3:cad>
          </ns3:TrackPointExtension>
        </extensions>
      </trkpt>
      <trkpt lat="37.94197627343237400054931640625" lon="-107.1229871548712253570556640625">
        <ele>3750.199951171875</ele>
        <time>2026-01-06T20:58:22.000Z</time>
        <extensions>
          <ns3:TrackPointExtension>
            <ns3:hr>102</ns3:hr>
            <ns3:cad>0</ns3:cad>
          </ns3:TrackPointExtension>
        </extensions>
      </trkpt>
      <trkpt lat="37.94193620793521404266357421875" lon="-107.12303459644317626953125">
        <ele>3750.39990234375</ele>
        <time>2026-01-06T20:58:28.000Z</time>
        <extensions>
          <ns3:TrackPointExtension>
            <ns3:hr>104</ns3:hr>
            <ns3:cad>44</ns3:cad>
          </ns3:TrackPointExtension>
        </extensions>
      </trkpt>
      <trkpt lat="37.941930256783962249755859375" lon="-107.123042307794094085693359375">
        <ele>3750.60009765625</ele>
        <time>2026-01-06T20:58:29.000Z</time>
        <extensions>
          <ns3:TrackPointExtension>
            <ns3:hr>105</ns3:hr>
            <ns3:cad>44</ns3:cad>
          </ns3:TrackPointExtension>
        </extensions>
      </trkpt>
      <trkpt lat="37.941917516291141510009765625" lon="-107.1230595745146274566650390625">
        <ele>3751.199951171875</ele>
        <time>2026-01-06T20:58:31.000Z</time>
        <extensions>
          <ns3:TrackPointExtension>
            <ns3:hr>107</ns3:hr>
            <ns3:cad>44</ns3:cad>
          </ns3:TrackPointExtension>
        </extensions>
      </trkpt>
      <trkpt lat="37.9418774507939815521240234375" lon="-107.12311078794300556182861328125">
        <ele>3750.39990234375</ele>
        <time>2026-01-06T20:58:36.000Z</time>
        <extensions>
          <ns3:TrackPointExtension>
            <ns3:hr>109</ns3:hr>
            <ns3:cad>45</ns3:cad>
          </ns3:TrackPointExtension>
        </extensions>
      </trkpt>
      <trkpt lat="37.94186345301568508148193359375" lon="-107.1231236122548580169677734375">
        <ele>3750</ele>
        <time>2026-01-06T20:58:38.000Z</time>
        <extensions>
          <ns3:TrackPointExtension>
            <ns3:hr>110</ns3:hr>
            <ns3:cad>45</ns3:cad>
          </ns3:TrackPointExtension>
        </extensions>
      </trkpt>
      <trkpt lat="37.9418285004794597625732421875" lon="-107.1231459081172943115234375">
        <ele>3749.800048828125</ele>
        <time>2026-01-06T20:58:42.000Z</time>
        <extensions>
          <ns3:TrackPointExtension>
            <ns3:hr>110</ns3:hr>
            <ns3:cad>50</ns3:cad>
          </ns3:TrackPointExtension>
        </extensions>
      </trkpt>
      <trkpt lat="37.94179187156260013580322265625" lon="-107.12318220175802707672119140625">
        <ele>3750.199951171875</ele>
        <time>2026-01-06T20:58:47.000Z</time>
        <extensions>
          <ns3:TrackPointExtension>
            <ns3:hr>109</ns3:hr>
            <ns3:cad>0</ns3:cad>
          </ns3:TrackPointExtension>
        </extensions>
      </trkpt>
      <trkpt lat="37.9417495429515838623046875" lon="-107.12321422062814235687255859375">
        <ele>3749.800048828125</ele>
        <time>2026-01-06T20:58:53.000Z</time>
        <extensions>
          <ns3:TrackPointExtension>
            <ns3:hr>111</ns3:hr>
            <ns3:cad>0</ns3:cad>
          </ns3:TrackPointExtension>
        </extensions>
      </trkpt>
      <trkpt lat="37.94174225069582462310791015625" lon="-107.12321774102747440338134765625">
        <ele>3749.800048828125</ele>
        <time>2026-01-06T20:58:54.000Z</time>
        <extensions>
          <ns3:TrackPointExtension>
            <ns3:hr>112</ns3:hr>
            <ns3:cad>19</ns3:cad>
          </ns3:TrackPointExtension>
        </extensions>
      </trkpt>
      <trkpt lat="37.94171676971018314361572265625" lon="-107.12324037216603755950927734375">
        <ele>3749.60009765625</ele>
        <time>2026-01-06T20:58:58.000Z</time>
        <extensions>
          <ns3:TrackPointExtension>
            <ns3:hr>115</ns3:hr>
            <ns3:cad>0</ns3:cad>
          </ns3:TrackPointExtension>
        </extensions>
      </trkpt>
      <trkpt lat="37.94171140529215335845947265625" lon="-107.1232503466308116912841796875">
        <ele>3749.800048828125</ele>
        <time>2026-01-06T20:58:59.000Z</time>
        <extensions>
          <ns3:TrackPointExtension>
            <ns3:hr>116</ns3:hr>
            <ns3:cad>0</ns3:cad>
          </ns3:TrackPointExtension>
        </extensions>
      </trkpt>
      <trkpt lat="37.94166396372020244598388671875" lon="-107.12328177876770496368408203125">
        <ele>3750.800048828125</ele>
        <time>2026-01-06T20:59:05.000Z</time>
        <extensions>
          <ns3:TrackPointExtension>
            <ns3:hr>117</ns3:hr>
            <ns3:cad>0</ns3:cad>
          </ns3:TrackPointExtension>
        </extensions>
      </trkpt>
      <trkpt lat="37.94165910221636295318603515625" lon="-107.12328261695802211761474609375">
        <ele>3751</ele>
        <time>2026-01-06T20:59:06.000Z</time>
        <extensions>
          <ns3:TrackPointExtension>
            <ns3:hr>117</ns3:hr>
            <ns3:cad>0</ns3:cad>
          </ns3:TrackPointExtension>
        </extensions>
      </trkpt>
      <trkpt lat="37.9416159354150295257568359375" lon="-107.1233086846768856048583984375">
        <ele>3750.39990234375</ele>
        <time>2026-01-06T20:59:11.000Z</time>
        <extensions>
          <ns3:TrackPointExtension>
            <ns3:hr>117</ns3:hr>
            <ns3:cad>0</ns3:cad>
          </ns3:TrackPointExtension>
        </extensions>
      </trkpt>
      <trkpt lat="37.94158685021102428436279296875" lon="-107.1233673579990863800048828125">
        <ele>3750.60009765625</ele>
        <time>2026-01-06T20:59:17.000Z</time>
        <extensions>
          <ns3:TrackPointExtension>
            <ns3:hr>117</ns3:hr>
            <ns3:cad>0</ns3:cad>
          </ns3:TrackPointExtension>
        </extensions>
      </trkpt>
      <trkpt lat="37.941580228507518768310546875" lon="-107.12337900884449481964111328125">
        <ele>3750.800048828125</ele>
        <time>2026-01-06T20:59:18.000Z</time>
        <extensions>
          <ns3:TrackPointExtension>
            <ns3:hr>116</ns3:hr>
            <ns3:cad>0</ns3:cad>
          </ns3:TrackPointExtension>
        </extensions>
      </trkpt>
      <trkpt lat="37.94155365787446498870849609375" lon="-107.12342821061611175537109375">
        <ele>3750.800048828125</ele>
        <time>2026-01-06T20:59:24.000Z</time>
        <extensions>
          <ns3:TrackPointExtension>
            <ns3:hr>117</ns3:hr>
            <ns3:cad>41</ns3:cad>
          </ns3:TrackPointExtension>
        </extensions>
      </trkpt>
      <trkpt lat="37.9415311105549335479736328125" lon="-107.12348495610058307647705078125">
        <ele>3750.800048828125</ele>
        <time>2026-01-06T20:59:30.000Z</time>
        <extensions>
          <ns3:TrackPointExtension>
            <ns3:hr>116</ns3:hr>
            <ns3:cad>0</ns3:cad>
          </ns3:TrackPointExtension>
        </extensions>
      </trkpt>
      <trkpt lat="37.94152666814625263214111328125" lon="-107.12349392473697662353515625">
        <ele>3750.800048828125</ele>
        <time>2026-01-06T20:59:31.000Z</time>
        <extensions>
          <ns3:TrackPointExtension>
            <ns3:hr>116</ns3:hr>
            <ns3:cad>0</ns3:cad>
          </ns3:TrackPointExtension>
        </extensions>
      </trkpt>
      <trkpt lat="37.941499762237071990966796875" lon="-107.1235480718314647674560546875">
        <ele>3751</ele>
        <time>2026-01-06T20:59:37.000Z</time>
        <extensions>
          <ns3:TrackPointExtension>
            <ns3:hr>115</ns3:hr>
            <ns3:cad>45</ns3:cad>
          </ns3:TrackPointExtension>
        </extensions>
      </trkpt>
      <trkpt lat="37.94149297289550304412841796875" lon="-107.123568356037139892578125">
        <ele>3751</ele>
        <time>2026-01-06T20:59:39.000Z</time>
        <extensions>
          <ns3:TrackPointExtension>
            <ns3:hr>115</ns3:hr>
            <ns3:cad>43</ns3:cad>
          </ns3:TrackPointExtension>
        </extensions>
      </trkpt>
      <trkpt lat="37.94149029068648815155029296875" lon="-107.12358084507286548614501953125">
        <ele>3751.199951171875</ele>
        <time>2026-01-06T20:59:40.000Z</time>
        <extensions>
          <ns3:TrackPointExtension>
            <ns3:hr>114</ns3:hr>
            <ns3:cad>41</ns3:cad>
          </ns3:TrackPointExtension>
        </extensions>
      </trkpt>
      <trkpt lat="37.94146900065243244171142578125" lon="-107.12361889891326427459716796875">
        <ele>3752</ele>
        <time>2026-01-06T20:59:45.000Z</time>
        <extensions>
          <ns3:TrackPointExtension>
            <ns3:hr>116</ns3:hr>
            <ns3:cad>0</ns3:cad>
          </ns3:TrackPointExtension>
        </extensions>
      </trkpt>
      <trkpt lat="37.94146313332021236419677734375" lon="-107.12363029830157756805419921875">
        <ele>3752</ele>
        <time>2026-01-06T20:59:46.000Z</time>
        <extensions>
          <ns3:TrackPointExtension>
            <ns3:hr>116</ns3:hr>
            <ns3:cad>0</ns3:cad>
          </ns3:TrackPointExtension>
        </extensions>
      </trkpt>
      <trkpt lat="37.94143999926745891571044921875" lon="-107.12369500659406185150146484375">
        <ele>3752.39990234375</ele>
        <time>2026-01-06T20:59:52.000Z</time>
        <extensions>
          <ns3:TrackPointExtension>
            <ns3:hr>118</ns3:hr>
            <ns3:cad>0</ns3:cad>
          </ns3:TrackPointExtension>
        </extensions>
      </trkpt>
      <trkpt lat="37.94141720049083232879638671875" lon="-107.12372970767319202423095703125">
        <ele>3753.199951171875</ele>
        <time>2026-01-06T20:59:56.000Z</time>
        <extensions>
          <ns3:TrackPointExtension>
            <ns3:hr>119</ns3:hr>
            <ns3:cad>0</ns3:cad>
          </ns3:TrackPointExtension>
        </extensions>
      </trkpt>
      <trkpt lat="37.94139842502772808074951171875" lon="-107.12376792915165424346923828125">
        <ele>3754</ele>
        <time>2026-01-06T21:00:00.000Z</time>
        <extensions>
          <ns3:TrackPointExtension>
            <ns3:hr>119</ns3:hr>
            <ns3:cad>0</ns3:cad>
          </ns3:TrackPointExtension>
        </extensions>
      </trkpt>
      <trkpt lat="37.94138199649751186370849609375" lon="-107.12379793636500835418701171875">
        <ele>3753.60009765625</ele>
        <time>2026-01-06T21:00:04.000Z</time>
        <extensions>
          <ns3:TrackPointExtension>
            <ns3:hr>122</ns3:hr>
            <ns3:cad>0</ns3:cad>
          </ns3:TrackPointExtension>
        </extensions>
      </trkpt>
      <trkpt lat="37.94137344695627689361572265625" lon="-107.12381822057068347930908203125">
        <ele>3753.60009765625</ele>
        <time>2026-01-06T21:00:06.000Z</time>
        <extensions>
          <ns3:TrackPointExtension>
            <ns3:hr>123</ns3:hr>
            <ns3:cad>0</ns3:cad>
          </ns3:TrackPointExtension>
        </extensions>
      </trkpt>
      <trkpt lat="37.94136271812021732330322265625" lon="-107.1238781511783599853515625">
        <ele>3754.199951171875</ele>
        <time>2026-01-06T21:00:11.000Z</time>
        <extensions>
          <ns3:TrackPointExtension>
            <ns3:hr>124</ns3:hr>
            <ns3:cad>0</ns3:cad>
          </ns3:TrackPointExtension>
        </extensions>
      </trkpt>
      <trkpt lat="37.9413592815399169921875" lon="-107.123894579708576202392578125">
        <ele>3754.39990234375</ele>
        <time>2026-01-06T21:00:13.000Z</time>
        <extensions>
          <ns3:TrackPointExtension>
            <ns3:hr>125</ns3:hr>
            <ns3:cad>44</ns3:cad>
          </ns3:TrackPointExtension>
        </extensions>
      </trkpt>
      <trkpt lat="37.941341511905193328857421875" lon="-107.12394051253795623779296875">
        <ele>3754.800048828125</ele>
        <time>2026-01-06T21:00:18.000Z</time>
        <extensions>
          <ns3:TrackPointExtension>
            <ns3:hr>126</ns3:hr>
            <ns3:cad>41</ns3:cad>
          </ns3:TrackPointExtension>
        </extensions>
      </trkpt>
      <trkpt lat="37.94133723713457584381103515625" lon="-107.1239440329372882843017578125">
        <ele>3755</ele>
        <time>2026-01-06T21:00:19.000Z</time>
        <extensions>
          <ns3:TrackPointExtension>
            <ns3:hr>126</ns3:hr>
            <ns3:cad>41</ns3:cad>
          </ns3:TrackPointExtension>
        </extensions>
      </trkpt>
      <trkpt lat="37.94132567010819911956787109375" lon="-107.123958282172679901123046875">
        <ele>3755.39990234375</ele>
        <time>2026-01-06T21:00:21.000Z</time>
        <extensions>
          <ns3:TrackPointExtension>
            <ns3:hr>127</ns3:hr>
            <ns3:cad>0</ns3:cad>
          </ns3:TrackPointExtension>
        </extensions>
      </trkpt>
      <trkpt lat="37.941303960978984832763671875" lon="-107.12400362826883792877197265625">
        <ele>3755.800048828125</ele>
        <time>2026-01-06T21:00:25.000Z</time>
        <extensions>
          <ns3:TrackPointExtension>
            <ns3:hr>127</ns3:hr>
            <ns3:cad>0</ns3:cad>
          </ns3:TrackPointExtension>
        </extensions>
      </trkpt>
      <trkpt lat="37.9412746243178844451904296875" lon="-107.1240684203803539276123046875">
        <ele>3755.60009765625</ele>
        <time>2026-01-06T21:00:31.000Z</time>
        <extensions>
          <ns3:TrackPointExtension>
            <ns3:hr>127</ns3:hr>
            <ns3:cad>0</ns3:cad>
          </ns3:TrackPointExtension>
        </extensions>
      </trkpt>
      <trkpt lat="37.94126766733825206756591796875" lon="-107.12407998740673065185546875">
        <ele>3755.60009765625</ele>
        <time>2026-01-06T21:00:32.000Z</time>
        <extensions>
          <ns3:TrackPointExtension>
            <ns3:hr>127</ns3:hr>
            <ns3:cad>0</ns3:cad>
          </ns3:TrackPointExtension>
        </extensions>
      </trkpt>
      <trkpt lat="37.94124201871454715728759765625" lon="-107.12412499822676181793212890625">
        <ele>3756.199951171875</ele>
        <time>2026-01-06T21:00:38.000Z</time>
        <extensions>
          <ns3:TrackPointExtension>
            <ns3:hr>126</ns3:hr>
            <ns3:cad>47</ns3:cad>
          </ns3:TrackPointExtension>
        </extensions>
      </trkpt>
      <trkpt lat="37.94120178557932376861572265625" lon="-107.1241978369653224945068359375">
        <ele>3756</ele>
        <time>2026-01-06T21:00:44.000Z</time>
        <extensions>
          <ns3:TrackPointExtension>
            <ns3:hr>124</ns3:hr>
            <ns3:cad>45</ns3:cad>
          </ns3:TrackPointExtension>
        </extensions>
      </trkpt>
      <trkpt lat="37.941163815557956695556640625" lon="-107.12426950223743915557861328125">
        <ele>3755</ele>
        <time>2026-01-06T21:00:50.000Z</time>
        <extensions>
          <ns3:TrackPointExtension>
            <ns3:hr>122</ns3:hr>
            <ns3:cad>46</ns3:cad>
          </ns3:TrackPointExtension>
        </extensions>
      </trkpt>
      <trkpt lat="37.94115702621638774871826171875" lon="-107.12428006343543529510498046875">
        <ele>3754.800048828125</ele>
        <time>2026-01-06T21:00:51.000Z</time>
        <extensions>
          <ns3:TrackPointExtension>
            <ns3:hr>122</ns3:hr>
            <ns3:cad>0</ns3:cad>
          </ns3:TrackPointExtension>
        </extensions>
      </trkpt>
      <trkpt lat="37.9411193914711475372314453125" lon="-107.1243443526327610015869140625">
        <ele>3754.39990234375</ele>
        <time>2026-01-06T21:00:57.000Z</time>
        <extensions>
          <ns3:TrackPointExtension>
            <ns3:hr>121</ns3:hr>
            <ns3:cad>47</ns3:cad>
          </ns3:TrackPointExtension>
        </extensions>
      </trkpt>
      <trkpt lat="37.9411123506724834442138671875" lon="-107.1243555843830108642578125">
        <ele>3754.199951171875</ele>
        <time>2026-01-06T21:00:58.000Z</time>
        <extensions>
          <ns3:TrackPointExtension>
            <ns3:hr>120</ns3:hr>
            <ns3:cad>45</ns3:cad>
          </ns3:TrackPointExtension>
        </extensions>
      </trkpt>
      <trkpt lat="37.9410736262798309326171875" lon="-107.12441249750554561614990234375">
        <ele>3753.800048828125</ele>
        <time>2026-01-06T21:01:04.000Z</time>
        <extensions>
          <ns3:TrackPointExtension>
            <ns3:hr>120</ns3:hr>
            <ns3:cad>47</ns3:cad>
          </ns3:TrackPointExtension>
        </extensions>
      </trkpt>
      <trkpt lat="37.94106298126280307769775390625" lon="-107.1244275011122226715087890625">
        <ele>3753.800048828125</ele>
        <time>2026-01-06T21:01:06.000Z</time>
        <extensions>
          <ns3:TrackPointExtension>
            <ns3:hr>119</ns3:hr>
            <ns3:cad>0</ns3:cad>
          </ns3:TrackPointExtension>
        </extensions>
      </trkpt>
      <trkpt lat="37.9410414397716522216796875" lon="-107.1244663931429386138916015625">
        <ele>3753.199951171875</ele>
        <time>2026-01-06T21:01:10.000Z</time>
        <extensions>
          <ns3:TrackPointExtension>
            <ns3:hr>119</ns3:hr>
            <ns3:cad>51</ns3:cad>
          </ns3:TrackPointExtension>
        </extensions>
      </trkpt>
      <trkpt lat="37.9410307109355926513671875" lon="-107.12450285442173480987548828125">
        <ele>3753.199951171875</ele>
        <time>2026-01-06T21:01:14.000Z</time>
        <extensions>
          <ns3:TrackPointExtension>
            <ns3:hr>120</ns3:hr>
            <ns3:cad>45</ns3:cad>
          </ns3:TrackPointExtension>
        </extensions>
      </trkpt>
      <trkpt lat="37.940997518599033355712890625" lon="-107.12455130182206630706787109375">
        <ele>3753.60009765625</ele>
        <time>2026-01-06T21:01:20.000Z</time>
        <extensions>
          <ns3:TrackPointExtension>
            <ns3:hr>119</ns3:hr>
            <ns3:cad>45</ns3:cad>
          </ns3:TrackPointExtension>
        </extensions>
      </trkpt>
      <trkpt lat="37.94097513891756534576416015625" lon="-107.1246088854968547821044921875">
        <ele>3753</ele>
        <time>2026-01-06T21:01:25.000Z</time>
        <extensions>
          <ns3:TrackPointExtension>
            <ns3:hr>119</ns3:hr>
            <ns3:cad>0</ns3:cad>
          </ns3:TrackPointExtension>
        </extensions>
      </trkpt>
      <trkpt lat="37.940947227180004119873046875" lon="-107.1246685646474361419677734375">
        <ele>3752.800048828125</ele>
        <time>2026-01-06T21:01:30.000Z</time>
        <extensions>
          <ns3:TrackPointExtension>
            <ns3:hr>117</ns3:hr>
            <ns3:cad>50</ns3:cad>
          </ns3:TrackPointExtension>
        </extensions>
      </trkpt>
      <trkpt lat="37.94091328047215938568115234375" lon="-107.12473687715828418731689453125">
        <ele>3753.199951171875</ele>
        <time>2026-01-06T21:01:36.000Z</time>
        <extensions>
          <ns3:TrackPointExtension>
            <ns3:hr>116</ns3:hr>
            <ns3:cad>50</ns3:cad>
          </ns3:TrackPointExtension>
        </extensions>
      </trkpt>
      <trkpt lat="37.94087505899369716644287109375" lon="-107.12480292655527591705322265625">
        <ele>3753.39990234375</ele>
        <time>2026-01-06T21:01:42.000Z</time>
        <extensions>
          <ns3:TrackPointExtension>
            <ns3:hr>114</ns3:hr>
            <ns3:cad>0</ns3:cad>
          </ns3:TrackPointExtension>
        </extensions>
      </trkpt>
      <trkpt lat="37.94084019027650356292724609375" lon="-107.1248633600771427154541015625">
        <ele>3753.60009765625</ele>
        <time>2026-01-06T21:01:48.000Z</time>
        <extensions>
          <ns3:TrackPointExtension>
            <ns3:hr>114</ns3:hr>
            <ns3:cad>0</ns3:cad>
          </ns3:TrackPointExtension>
        </extensions>
      </trkpt>
      <trkpt lat="37.940833903849124908447265625" lon="-107.12487584911286830902099609375">
        <ele>3753.39990234375</ele>
        <time>2026-01-06T21:01:49.000Z</time>
        <extensions>
          <ns3:TrackPointExtension>
            <ns3:hr>115</ns3:hr>
            <ns3:cad>48</ns3:cad>
          </ns3:TrackPointExtension>
        </extensions>
      </trkpt>
      <trkpt lat="37.9408052377402782440185546875" lon="-107.12493418715894222259521484375">
        <ele>3753</ele>
        <time>2026-01-06T21:01:54.000Z</time>
        <extensions>
          <ns3:TrackPointExtension>
            <ns3:hr>116</ns3:hr>
            <ns3:cad>0</ns3:cad>
          </ns3:TrackPointExtension>
        </extensions>
      </trkpt>
      <trkpt lat="37.94077162630856037139892578125" lon="-107.1250001527369022369384765625">
        <ele>3753.199951171875</ele>
        <time>2026-01-06T21:02:00.000Z</time>
        <extensions>
          <ns3:TrackPointExtension>
            <ns3:hr>118</ns3:hr>
            <ns3:cad>48</ns3:cad>
          </ns3:TrackPointExtension>
        </extensions>
      </trkpt>
      <trkpt lat="37.94076307676732540130615234375" lon="-107.12501549161970615386962890625">
        <ele>3753.199951171875</ele>
        <time>2026-01-06T21:02:02.000Z</time>
        <extensions>
          <ns3:TrackPointExtension>
            <ns3:hr>119</ns3:hr>
            <ns3:cad>48</ns3:cad>
          </ns3:TrackPointExtension>
        </extensions>
      </trkpt>
      <trkpt lat="37.94073558412492275238037109375" lon="-107.12506427429616451263427734375">
        <ele>3753.60009765625</ele>
        <time>2026-01-06T21:02:08.000Z</time>
        <extensions>
          <ns3:TrackPointExtension>
            <ns3:hr>120</ns3:hr>
            <ns3:cad>0</ns3:cad>
          </ns3:TrackPointExtension>
        </extensions>
      </trkpt>
      <trkpt lat="37.9407281242311000823974609375" lon="-107.1250769309699535369873046875">
        <ele>3753.60009765625</ele>
        <time>2026-01-06T21:02:09.000Z</time>
        <extensions>
          <ns3:TrackPointExtension>
            <ns3:hr>120</ns3:hr>
            <ns3:cad>0</ns3:cad>
          </ns3:TrackPointExtension>
        </extensions>
      </trkpt>
      <trkpt lat="37.94068998657166957855224609375" lon="-107.12514004670083522796630859375">
        <ele>3753.39990234375</ele>
        <time>2026-01-06T21:02:15.000Z</time>
        <extensions>
          <ns3:TrackPointExtension>
            <ns3:hr>120</ns3:hr>
            <ns3:cad>47</ns3:cad>
          </ns3:TrackPointExtension>
        </extensions>
      </trkpt>
      <trkpt lat="37.940650843083858489990234375" lon="-107.12519452907145023345947265625">
        <ele>3752.800048828125</ele>
        <time>2026-01-06T21:02:21.000Z</time>
        <extensions>
          <ns3:TrackPointExtension>
            <ns3:hr>119</ns3:hr>
            <ns3:cad>45</ns3:cad>
          </ns3:TrackPointExtension>
        </extensions>
      </trkpt>
      <trkpt lat="37.94063064269721508026123046875" lon="-107.12523174472153186798095703125">
        <ele>3753.39990234375</ele>
        <time>2026-01-06T21:02:26.000Z</time>
        <extensions>
          <ns3:TrackPointExtension>
            <ns3:hr>118</ns3:hr>
            <ns3:cad>0</ns3:cad>
          </ns3:TrackPointExtension>
        </extensions>
      </trkpt>
      <trkpt lat="37.94060516171157360076904296875" lon="-107.12528974749147891998291015625">
        <ele>3753.60009765625</ele>
        <time>2026-01-06T21:02:32.000Z</time>
        <extensions>
          <ns3:TrackPointExtension>
            <ns3:hr>118</ns3:hr>
            <ns3:cad>0</ns3:cad>
          </ns3:TrackPointExtension>
        </extensions>
      </trkpt>
      <trkpt lat="37.94059845618903636932373046875" lon="-107.12530164979398250579833984375">
        <ele>3753.60009765625</ele>
        <time>2026-01-06T21:02:33.000Z</time>
        <extensions>
          <ns3:TrackPointExtension>
            <ns3:hr>118</ns3:hr>
            <ns3:cad>0</ns3:cad>
          </ns3:TrackPointExtension>
        </extensions>
      </trkpt>
      <trkpt lat="37.9405586421489715576171875" lon="-107.1253689564764499664306640625">
        <ele>3754.199951171875</ele>
        <time>2026-01-06T21:02:39.000Z</time>
        <extensions>
          <ns3:TrackPointExtension>
            <ns3:hr>118</ns3:hr>
            <ns3:cad>41</ns3:cad>
          </ns3:TrackPointExtension>
        </extensions>
      </trkpt>
      <trkpt lat="37.94055134989321231842041015625" lon="-107.12538085877895355224609375">
        <ele>3754.199951171875</ele>
        <time>2026-01-06T21:02:40.000Z</time>
        <extensions>
          <ns3:TrackPointExtension>
            <ns3:hr>118</ns3:hr>
            <ns3:cad>43</ns3:cad>
          </ns3:TrackPointExtension>
        </extensions>
      </trkpt>
      <trkpt lat="37.94052653945982456207275390625" lon="-107.1254222653806209564208984375">
        <ele>3753.800048828125</ele>
        <time>2026-01-06T21:02:45.000Z</time>
        <extensions>
          <ns3:TrackPointExtension>
            <ns3:hr>119</ns3:hr>
            <ns3:cad>43</ns3:cad>
          </ns3:TrackPointExtension>
        </extensions>
      </trkpt>
      <trkpt lat="37.94048697687685489654541015625" lon="-107.1254842914640903472900390625">
        <ele>3753.800048828125</ele>
        <time>2026-01-06T21:02:50.000Z</time>
        <extensions>
          <ns3:TrackPointExtension>
            <ns3:hr>119</ns3:hr>
            <ns3:cad>50</ns3:cad>
          </ns3:TrackPointExtension>
        </extensions>
      </trkpt>
      <trkpt lat="37.940455712378025054931640625" lon="-107.1255479939281940460205078125">
        <ele>3754</ele>
        <time>2026-01-06T21:02:56.000Z</time>
        <extensions>
          <ns3:TrackPointExtension>
            <ns3:hr>118</ns3:hr>
            <ns3:cad>47</ns3:cad>
          </ns3:TrackPointExtension>
        </extensions>
      </trkpt>
      <trkpt lat="37.94044808484613895416259765625" lon="-107.1255553700029850006103515625">
        <ele>3754.199951171875</ele>
        <time>2026-01-06T21:02:57.000Z</time>
        <extensions>
          <ns3:TrackPointExtension>
            <ns3:hr>118</ns3:hr>
            <ns3:cad>47</ns3:cad>
          </ns3:TrackPointExtension>
        </extensions>
      </trkpt>
      <trkpt lat="37.940407432615756988525390625" lon="-107.125617563724517822265625">
        <ele>3753.39990234375</ele>
        <time>2026-01-06T21:03:03.000Z</time>
        <extensions>
          <ns3:TrackPointExtension>
            <ns3:hr>117</ns3:hr>
            <ns3:cad>49</ns3:cad>
          </ns3:TrackPointExtension>
        </extensions>
      </trkpt>
      <trkpt lat="37.9404012300074100494384765625" lon="-107.1256234310567378997802734375">
        <ele>3753</ele>
        <time>2026-01-06T21:03:04.000Z</time>
        <extensions>
          <ns3:TrackPointExtension>
            <ns3:hr>117</ns3:hr>
            <ns3:cad>49</ns3:cad>
          </ns3:TrackPointExtension>
        </extensions>
      </trkpt>
      <trkpt lat="37.94036610983312129974365234375" lon="-107.12567648850381374359130859375">
        <ele>3752.60009765625</ele>
        <time>2026-01-06T21:03:08.000Z</time>
        <extensions>
          <ns3:TrackPointExtension>
            <ns3:hr>113</ns3:hr>
            <ns3:cad>48</ns3:cad>
          </ns3:TrackPointExtension>
        </extensions>
      </trkpt>
      <trkpt lat="37.94034867547452449798583984375" lon="-107.125697694718837738037109375">
        <ele>3752.60009765625</ele>
        <time>2026-01-06T21:03:10.000Z</time>
        <extensions>
          <ns3:TrackPointExtension>
            <ns3:hr>111</ns3:hr>
            <ns3:cad>49</ns3:cad>
          </ns3:TrackPointExtension>
        </extensions>
      </trkpt>
      <trkpt lat="37.940324284136295318603515625" lon="-107.12575175799429416656494140625">
        <ele>3752</ele>
        <time>2026-01-06T21:03:16.000Z</time>
        <extensions>
          <ns3:TrackPointExtension>
            <ns3:hr>110</ns3:hr>
            <ns3:cad>51</ns3:cad>
          </ns3:TrackPointExtension>
        </extensions>
      </trkpt>
      <trkpt lat="37.9403160698711872100830078125" lon="-107.12576567195355892181396484375">
        <ele>3752</ele>
        <time>2026-01-06T21:03:17.000Z</time>
        <extensions>
          <ns3:TrackPointExtension>
            <ns3:hr>111</ns3:hr>
            <ns3:cad>51</ns3:cad>
          </ns3:TrackPointExtension>
        </extensions>
      </trkpt>
      <trkpt lat="37.94028430245816707611083984375" lon="-107.12582753039896488189697265625">
        <ele>3752.199951171875</ele>
        <time>2026-01-06T21:03:22.000Z</time>
        <extensions>
          <ns3:TrackPointExtension>
            <ns3:hr>110</ns3:hr>
            <ns3:cad>0</ns3:cad>
          </ns3:TrackPointExtension>
        </extensions>
      </trkpt>
      <trkpt lat="37.94025219976902008056640625" lon="-107.12588846683502197265625">
        <ele>3751.800048828125</ele>
        <time>2026-01-06T21:03:28.000Z</time>
        <extensions>
          <ns3:TrackPointExtension>
            <ns3:hr>111</ns3:hr>
            <ns3:cad>47</ns3:cad>
          </ns3:TrackPointExtension>
        </extensions>
      </trkpt>
      <trkpt lat="37.94021976180374622344970703125" lon="-107.12595895864069461822509765625">
        <ele>3752</ele>
        <time>2026-01-06T21:03:34.000Z</time>
        <extensions>
          <ns3:TrackPointExtension>
            <ns3:hr>113</ns3:hr>
            <ns3:cad>47</ns3:cad>
          </ns3:TrackPointExtension>
        </extensions>
      </trkpt>
      <trkpt lat="37.940215654671192169189453125" lon="-107.1259680949151515960693359375">
        <ele>3752</ele>
        <time>2026-01-06T21:03:35.000Z</time>
        <extensions>
          <ns3:TrackPointExtension>
            <ns3:hr>114</ns3:hr>
            <ns3:cad>47</ns3:cad>
          </ns3:TrackPointExtension>
        </extensions>
      </trkpt>
      <trkpt lat="37.94018237851560115814208984375" lon="-107.12603573687374591827392578125">
        <ele>3751.60009765625</ele>
        <time>2026-01-06T21:03:41.000Z</time>
        <extensions>
          <ns3:TrackPointExtension>
            <ns3:hr>116</ns3:hr>
            <ns3:cad>48</ns3:cad>
          </ns3:TrackPointExtension>
        </extensions>
      </trkpt>
      <trkpt lat="37.94015790335834026336669921875" lon="-107.12611184455454349517822265625">
        <ele>3751.39990234375</ele>
        <time>2026-01-06T21:03:47.000Z</time>
        <extensions>
          <ns3:TrackPointExtension>
            <ns3:hr>116</ns3:hr>
            <ns3:cad>49</ns3:cad>
          </ns3:TrackPointExtension>
        </extensions>
      </trkpt>
      <trkpt lat="37.940144240856170654296875" lon="-107.12618392892181873321533203125">
        <ele>3751.199951171875</ele>
        <time>2026-01-06T21:03:53.000Z</time>
        <extensions>
          <ns3:TrackPointExtension>
            <ns3:hr>113</ns3:hr>
            <ns3:cad>44</ns3:cad>
          </ns3:TrackPointExtension>
        </extensions>
      </trkpt>
      <trkpt lat="37.9401132278144359588623046875" lon="-107.12625534273684024810791015625">
        <ele>3751.800048828125</ele>
        <time>2026-01-06T21:03:59.000Z</time>
        <extensions>
          <ns3:TrackPointExtension>
            <ns3:hr>113</ns3:hr>
            <ns3:cad>47</ns3:cad>
          </ns3:TrackPointExtension>
        </extensions>
      </trkpt>
      <trkpt lat="37.94010677374899387359619140625" lon="-107.1262641437351703643798828125">
        <ele>3751.60009765625</ele>
        <time>2026-01-06T21:04:00.000Z</time>
        <extensions>
          <ns3:TrackPointExtension>
            <ns3:hr>113</ns3:hr>
            <ns3:cad>47</ns3:cad>
          </ns3:TrackPointExtension>
        </extensions>
      </trkpt>
      <trkpt lat="37.940074168145656585693359375" lon="-107.12632105685770511627197265625">
        <ele>3751.39990234375</ele>
        <time>2026-01-06T21:04:06.000Z</time>
        <extensions>
          <ns3:TrackPointExtension>
            <ns3:hr>112</ns3:hr>
            <ns3:cad>0</ns3:cad>
          </ns3:TrackPointExtension>
        </extensions>
      </trkpt>
      <trkpt lat="37.94006905518472194671630859375" lon="-107.1263270080089569091796875">
        <ele>3751.60009765625</ele>
        <time>2026-01-06T21:04:07.000Z</time>
        <extensions>
          <ns3:TrackPointExtension>
            <ns3:hr>112</ns3:hr>
            <ns3:cad>0</ns3:cad>
          </ns3:TrackPointExtension>
        </extensions>
      </trkpt>
      <trkpt lat="37.94004424475133419036865234375" lon="-107.12636045180261135101318359375">
        <ele>3752</ele>
        <time>2026-01-06T21:04:13.000Z</time>
        <extensions>
          <ns3:TrackPointExtension>
            <ns3:hr>112</ns3:hr>
            <ns3:cad>0</ns3:cad>
          </ns3:TrackPointExtension>
        </extensions>
      </trkpt>
      <trkpt lat="37.9400441609323024749755859375" lon="-107.1263607032597064971923828125">
        <ele>3751.800048828125</ele>
        <time>2026-01-06T21:04:15.000Z</time>
        <extensions>
          <ns3:TrackPointExtension>
            <ns3:hr>113</ns3:hr>
            <ns3:cad>0</ns3:cad>
          </ns3:TrackPointExtension>
        </extensions>
      </trkpt>
      <trkpt lat="37.9400304146111011505126953125" lon="-107.12633882649242877960205078125">
        <ele>3752</ele>
        <time>2026-01-06T21:04:21.000Z</time>
        <extensions>
          <ns3:TrackPointExtension>
            <ns3:hr>115</ns3:hr>
            <ns3:cad>0</ns3:cad>
          </ns3:TrackPointExtension>
        </extensions>
      </trkpt>
      <trkpt lat="37.9400196857750415802001953125" lon="-107.12633262388408184051513671875">
        <ele>3752</ele>
        <time>2026-01-06T21:04:22.000Z</time>
        <extensions>
          <ns3:TrackPointExtension>
            <ns3:hr>116</ns3:hr>
            <ns3:cad>0</ns3:cad>
          </ns3:TrackPointExtension>
        </extensions>
      </trkpt>
      <trkpt lat="37.939969561994075775146484375" lon="-107.12632491253316402435302734375">
        <ele>3752.800048828125</ele>
        <time>2026-01-06T21:04:28.000Z</time>
        <extensions>
          <ns3:TrackPointExtension>
            <ns3:hr>116</ns3:hr>
            <ns3:cad>43</ns3:cad>
          </ns3:TrackPointExtension>
        </extensions>
      </trkpt>
      <trkpt lat="37.9399385489523410797119140625" lon="-107.12633295916020870208740234375">
        <ele>3753</ele>
        <time>2026-01-06T21:04:31.000Z</time>
        <extensions>
          <ns3:TrackPointExtension>
            <ns3:hr>116</ns3:hr>
            <ns3:cad>43</ns3:cad>
          </ns3:TrackPointExtension>
        </extensions>
      </trkpt>
      <trkpt lat="37.93991968967020511627197265625" lon="-107.12636531330645084381103515625">
        <ele>3753.39990234375</ele>
        <time>2026-01-06T21:04:34.000Z</time>
        <extensions>
          <ns3:TrackPointExtension>
            <ns3:hr>117</ns3:hr>
            <ns3:cad>44</ns3:cad>
          </ns3:TrackPointExtension>
        </extensions>
      </trkpt>
      <trkpt lat="37.93988917954266071319580078125" lon="-107.12643764913082122802734375">
        <ele>3753.60009765625</ele>
        <time>2026-01-06T21:04:40.000Z</time>
        <extensions>
          <ns3:TrackPointExtension>
            <ns3:hr>120</ns3:hr>
            <ns3:cad>46</ns3:cad>
          </ns3:TrackPointExtension>
        </extensions>
      </trkpt>
      <trkpt lat="37.939885742962360382080078125" lon="-107.12644913233816623687744140625">
        <ele>3753.39990234375</ele>
        <time>2026-01-06T21:04:41.000Z</time>
        <extensions>
          <ns3:TrackPointExtension>
            <ns3:hr>120</ns3:hr>
            <ns3:cad>46</ns3:cad>
          </ns3:TrackPointExtension>
        </extensions>
      </trkpt>
      <trkpt lat="37.93984391726553440093994140625" lon="-107.1265035308897495269775390625">
        <ele>3752</ele>
        <time>2026-01-06T21:04:47.000Z</time>
        <extensions>
          <ns3:TrackPointExtension>
            <ns3:hr>121</ns3:hr>
            <ns3:cad>50</ns3:cad>
          </ns3:TrackPointExtension>
        </extensions>
      </trkpt>
      <trkpt lat="37.939837463200092315673828125" lon="-107.12651283480226993560791015625">
        <ele>3751.800048828125</ele>
        <time>2026-01-06T21:04:48.000Z</time>
        <extensions>
          <ns3:TrackPointExtension>
            <ns3:hr>120</ns3:hr>
            <ns3:cad>50</ns3:cad>
          </ns3:TrackPointExtension>
        </extensions>
      </trkpt>
      <trkpt lat="37.939782477915287017822265625" lon="-107.1265776269137859344482421875">
        <ele>3751.60009765625</ele>
        <time>2026-01-06T21:04:54.000Z</time>
        <extensions>
          <ns3:TrackPointExtension>
            <ns3:hr>119</ns3:hr>
            <ns3:cad>50</ns3:cad>
          </ns3:TrackPointExtension>
        </extensions>
      </trkpt>
      <trkpt lat="37.9397405683994293212890625" lon="-107.12663772515952587127685546875">
        <ele>3751</ele>
        <time>2026-01-06T21:04:59.000Z</time>
        <extensions>
          <ns3:TrackPointExtension>
            <ns3:hr>117</ns3:hr>
            <ns3:cad>47</ns3:cad>
          </ns3:TrackPointExtension>
        </extensions>
      </trkpt>
      <trkpt lat="37.93969706632196903228759765625" lon="-107.12671567685902118682861328125">
        <ele>3750</ele>
        <time>2026-01-06T21:05:05.000Z</time>
        <extensions>
          <ns3:TrackPointExtension>
            <ns3:hr>117</ns3:hr>
            <ns3:cad>47</ns3:cad>
          </ns3:TrackPointExtension>
        </extensions>
      </trkpt>
      <trkpt lat="37.9396601021289825439453125" lon="-107.12676563300192356109619140625">
        <ele>3750.39990234375</ele>
        <time>2026-01-06T21:05:11.000Z</time>
        <extensions>
          <ns3:TrackPointExtension>
            <ns3:hr>115</ns3:hr>
            <ns3:cad>48</ns3:cad>
          </ns3:TrackPointExtension>
        </extensions>
      </trkpt>
      <trkpt lat="37.93965297751128673553466796875" lon="-107.1267761103808879852294921875">
        <ele>3750.39990234375</ele>
        <time>2026-01-06T21:05:12.000Z</time>
        <extensions>
          <ns3:TrackPointExtension>
            <ns3:hr>115</ns3:hr>
            <ns3:cad>48</ns3:cad>
          </ns3:TrackPointExtension>
        </extensions>
      </trkpt>
      <trkpt lat="37.93962657451629638671875" lon="-107.1267999149858951568603515625">
        <ele>3749.800048828125</ele>
        <time>2026-01-06T21:05:15.000Z</time>
        <extensions>
          <ns3:TrackPointExtension>
            <ns3:hr>114</ns3:hr>
            <ns3:cad>47</ns3:cad>
          </ns3:TrackPointExtension>
        </extensions>
      </trkpt>
      <trkpt lat="37.939598076045513153076171875" lon="-107.12682598270475864410400390625">
        <ele>3749.39990234375</ele>
        <time>2026-01-06T21:05:18.000Z</time>
        <extensions>
          <ns3:TrackPointExtension>
            <ns3:hr>117</ns3:hr>
            <ns3:cad>48</ns3:cad>
          </ns3:TrackPointExtension>
        </extensions>
      </trkpt>
      <trkpt lat="37.9395898617804050445556640625" lon="-107.1268310956656932830810546875">
        <ele>3749.199951171875</ele>
        <time>2026-01-06T21:05:19.000Z</time>
        <extensions>
          <ns3:TrackPointExtension>
            <ns3:hr>119</ns3:hr>
            <ns3:cad>48</ns3:cad>
          </ns3:TrackPointExtension>
        </extensions>
      </trkpt>
      <trkpt lat="37.939575612545013427734375" lon="-107.12684492580592632293701171875">
        <ele>3749</ele>
        <time>2026-01-06T21:05:21.000Z</time>
        <extensions>
          <ns3:TrackPointExtension>
            <ns3:hr>122</ns3:hr>
            <ns3:cad>0</ns3:cad>
          </ns3:TrackPointExtension>
        </extensions>
      </trkpt>
      <trkpt lat="37.9395513050258159637451171875" lon="-107.12686168961226940155029296875">
        <ele>3748.60009765625</ele>
        <time>2026-01-06T21:05:24.000Z</time>
        <extensions>
          <ns3:TrackPointExtension>
            <ns3:hr>123</ns3:hr>
            <ns3:cad>0</ns3:cad>
          </ns3:TrackPointExtension>
        </extensions>
      </trkpt>
      <trkpt lat="37.93950394727289676666259765625" lon="-107.12690175510942935943603515625">
        <ele>3749.199951171875</ele>
        <time>2026-01-06T21:05:29.000Z</time>
        <extensions>
          <ns3:TrackPointExtension>
            <ns3:hr>122</ns3:hr>
            <ns3:cad>0</ns3:cad>
          </ns3:TrackPointExtension>
        </extensions>
      </trkpt>
      <trkpt lat="37.93945885263383388519287109375" lon="-107.12695539928972721099853515625">
        <ele>3748.800048828125</ele>
        <time>2026-01-06T21:05:34.000Z</time>
        <extensions>
          <ns3:TrackPointExtension>
            <ns3:hr>122</ns3:hr>
            <ns3:cad>49</ns3:cad>
          </ns3:TrackPointExtension>
        </extensions>
      </trkpt>
      <trkpt lat="37.93941157869994640350341796875" lon="-107.127012647688388824462890625">
        <ele>3748.199951171875</ele>
        <time>2026-01-06T21:05:40.000Z</time>
        <extensions>
          <ns3:TrackPointExtension>
            <ns3:hr>122</ns3:hr>
            <ns3:cad>45</ns3:cad>
          </ns3:TrackPointExtension>
        </extensions>
      </trkpt>
      <trkpt lat="37.93937670998275279998779296875" lon="-107.1270597539842128753662109375">
        <ele>3748</ele>
        <time>2026-01-06T21:05:45.000Z</time>
        <extensions>
          <ns3:TrackPointExtension>
            <ns3:hr>121</ns3:hr>
            <ns3:cad>50</ns3:cad>
          </ns3:TrackPointExtension>
        </extensions>
      </trkpt>
      <trkpt lat="37.939323149621486663818359375" lon="-107.12711348198354244232177734375">
        <ele>3747.800048828125</ele>
        <time>2026-01-06T21:05:50.000Z</time>
        <extensions>
          <ns3:TrackPointExtension>
            <ns3:hr>121</ns3:hr>
            <ns3:cad>47</ns3:cad>
          </ns3:TrackPointExtension>
        </extensions>
      </trkpt>
      <trkpt lat="37.93931317515671253204345703125" lon="-107.12712655775249004364013671875">
        <ele>3747.60009765625</ele>
        <time>2026-01-06T21:05:52.000Z</time>
        <extensions>
          <ns3:TrackPointExtension>
            <ns3:hr>121</ns3:hr>
            <ns3:cad>50</ns3:cad>
          </ns3:TrackPointExtension>
        </extensions>
      </trkpt>
      <trkpt lat="37.93929004110395908355712890625" lon="-107.1271539665758609771728515625">
        <ele>3747.60009765625</ele>
        <time>2026-01-06T21:05:55.000Z</time>
        <extensions>
          <ns3:TrackPointExtension>
            <ns3:hr>121</ns3:hr>
            <ns3:cad>48</ns3:cad>
          </ns3:TrackPointExtension>
        </extensions>
      </trkpt>
      <trkpt lat="37.93923220597207546234130859375" lon="-107.1271921880543231964111328125">
        <ele>3747.199951171875</ele>
        <time>2026-01-06T21:06:01.000Z</time>
        <extensions>
          <ns3:TrackPointExtension>
            <ns3:hr>120</ns3:hr>
            <ns3:cad>50</ns3:cad>
          </ns3:TrackPointExtension>
        </extensions>
      </trkpt>
      <trkpt lat="37.93921845965087413787841796875" lon="-107.1271987259387969970703125">
        <ele>3747</ele>
        <time>2026-01-06T21:06:02.000Z</time>
        <extensions>
          <ns3:TrackPointExtension>
            <ns3:hr>121</ns3:hr>
            <ns3:cad>50</ns3:cad>
          </ns3:TrackPointExtension>
        </extensions>
      </trkpt>
      <trkpt lat="37.93916523456573486328125" lon="-107.1272501908242702484130859375">
        <ele>3746.800048828125</ele>
        <time>2026-01-06T21:06:07.000Z</time>
        <extensions>
          <ns3:TrackPointExtension>
            <ns3:hr>121</ns3:hr>
            <ns3:cad>51</ns3:cad>
          </ns3:TrackPointExtension>
        </extensions>
      </trkpt>
      <trkpt lat="37.93914587236940860748291015625" lon="-107.12727743200957775115966796875">
        <ele>3746.39990234375</ele>
        <time>2026-01-06T21:06:10.000Z</time>
        <extensions>
          <ns3:TrackPointExtension>
            <ns3:hr>121</ns3:hr>
            <ns3:cad>51</ns3:cad>
          </ns3:TrackPointExtension>
        </extensions>
      </trkpt>
      <trkpt lat="37.939118631184101104736328125" lon="-107.12729855440557003021240234375">
        <ele>3745.800048828125</ele>
        <time>2026-01-06T21:06:13.000Z</time>
        <extensions>
          <ns3:TrackPointExtension>
            <ns3:hr>122</ns3:hr>
            <ns3:cad>50</ns3:cad>
          </ns3:TrackPointExtension>
        </extensions>
      </trkpt>
      <trkpt lat="37.93909373693168163299560546875" lon="-107.1273266337811946868896484375">
        <ele>3745.39990234375</ele>
        <time>2026-01-06T21:06:17.000Z</time>
        <extensions>
          <ns3:TrackPointExtension>
            <ns3:hr>121</ns3:hr>
            <ns3:cad>0</ns3:cad>
          </ns3:TrackPointExtension>
        </extensions>
      </trkpt>
      <trkpt lat="37.9390708543360233306884765625" lon="-107.12734700180590152740478515625">
        <ele>3745.39990234375</ele>
        <time>2026-01-06T21:06:20.000Z</time>
        <extensions>
          <ns3:TrackPointExtension>
            <ns3:hr>121</ns3:hr>
            <ns3:cad>42</ns3:cad>
          </ns3:TrackPointExtension>
        </extensions>
      </trkpt>
      <trkpt lat="37.9390212334692478179931640625" lon="-107.12739997543394565582275390625">
        <ele>3746</ele>
        <time>2026-01-06T21:06:25.000Z</time>
        <extensions>
          <ns3:TrackPointExtension>
            <ns3:hr>123</ns3:hr>
            <ns3:cad>0</ns3:cad>
          </ns3:TrackPointExtension>
        </extensions>
      </trkpt>
      <trkpt lat="37.9389739595353603363037109375" lon="-107.12743987329304218292236328125">
        <ele>3745.800048828125</ele>
        <time>2026-01-06T21:06:31.000Z</time>
        <extensions>
          <ns3:TrackPointExtension>
            <ns3:hr>122</ns3:hr>
            <ns3:cad>48</ns3:cad>
          </ns3:TrackPointExtension>
        </extensions>
      </trkpt>
      <trkpt lat="37.938941605389118194580078125" lon="-107.12748094461858272552490234375">
        <ele>3745.60009765625</ele>
        <time>2026-01-06T21:06:35.000Z</time>
        <extensions>
          <ns3:TrackPointExtension>
            <ns3:hr>119</ns3:hr>
            <ns3:cad>50</ns3:cad>
          </ns3:TrackPointExtension>
        </extensions>
      </trkpt>
      <trkpt lat="37.93892760761082172393798828125" lon="-107.127498127520084381103515625">
        <ele>3745.39990234375</ele>
        <time>2026-01-06T21:06:37.000Z</time>
        <extensions>
          <ns3:TrackPointExtension>
            <ns3:hr>118</ns3:hr>
            <ns3:cad>47</ns3:cad>
          </ns3:TrackPointExtension>
        </extensions>
      </trkpt>
      <trkpt lat="37.938896007835865020751953125" lon="-107.1275438927114009857177734375">
        <ele>3745.60009765625</ele>
        <time>2026-01-06T21:06:42.000Z</time>
        <extensions>
          <ns3:TrackPointExtension>
            <ns3:hr>120</ns3:hr>
            <ns3:cad>0</ns3:cad>
          </ns3:TrackPointExtension>
        </extensions>
      </trkpt>
      <trkpt lat="37.93886172585189342498779296875" lon="-107.12758890353143215179443359375">
        <ele>3744.39990234375</ele>
        <time>2026-01-06T21:06:47.000Z</time>
        <extensions>
          <ns3:TrackPointExtension>
            <ns3:hr>119</ns3:hr>
            <ns3:cad>47</ns3:cad>
          </ns3:TrackPointExtension>
        </extensions>
      </trkpt>
      <trkpt lat="37.93885166756808757781982421875" lon="-107.12759611196815967559814453125">
        <ele>3744.199951171875</ele>
        <time>2026-01-06T21:06:48.000Z</time>
        <extensions>
          <ns3:TrackPointExtension>
            <ns3:hr>119</ns3:hr>
            <ns3:cad>44</ns3:cad>
          </ns3:TrackPointExtension>
        </extensions>
      </trkpt>
      <trkpt lat="37.9388090036809444427490234375" lon="-107.1276461519300937652587890625">
        <ele>3744</ele>
        <time>2026-01-06T21:06:54.000Z</time>
        <extensions>
          <ns3:TrackPointExtension>
            <ns3:hr>118</ns3:hr>
            <ns3:cad>0</ns3:cad>
          </ns3:TrackPointExtension>
        </extensions>
      </trkpt>
      <trkpt lat="37.9387999512255191802978515625" lon="-107.1276518516242504119873046875">
        <ele>3744.199951171875</ele>
        <time>2026-01-06T21:06:55.000Z</time>
        <extensions>
          <ns3:TrackPointExtension>
            <ns3:hr>118</ns3:hr>
            <ns3:cad>0</ns3:cad>
          </ns3:TrackPointExtension>
        </extensions>
      </trkpt>
      <trkpt lat="37.93875661678612232208251953125" lon="-107.12769384495913982391357421875">
        <ele>3744.199951171875</ele>
        <time>2026-01-06T21:07:01.000Z</time>
        <extensions>
          <ns3:TrackPointExtension>
            <ns3:hr>117</ns3:hr>
            <ns3:cad>0</ns3:cad>
          </ns3:TrackPointExtension>
        </extensions>
      </trkpt>
      <trkpt lat="37.93871738947927951812744140625" lon="-107.1277346648275852203369140625">
        <ele>3744</ele>
        <time>2026-01-06T21:07:06.000Z</time>
        <extensions>
          <ns3:TrackPointExtension>
            <ns3:hr>114</ns3:hr>
            <ns3:cad>44</ns3:cad>
          </ns3:TrackPointExtension>
        </extensions>
      </trkpt>
      <trkpt lat="37.93871336616575717926025390625" lon="-107.12773793376982212066650390625">
        <ele>3743.800048828125</ele>
        <time>2026-01-06T21:07:07.000Z</time>
        <extensions>
          <ns3:TrackPointExtension>
            <ns3:hr>114</ns3:hr>
            <ns3:cad>44</ns3:cad>
          </ns3:TrackPointExtension>
        </extensions>
      </trkpt>
      <trkpt lat="37.93869475834071636199951171875" lon="-107.127757631242275238037109375">
        <ele>3743.199951171875</ele>
        <time>2026-01-06T21:07:10.000Z</time>
        <extensions>
          <ns3:TrackPointExtension>
            <ns3:hr>114</ns3:hr>
            <ns3:cad>0</ns3:cad>
          </ns3:TrackPointExtension>
        </extensions>
      </trkpt>
      <trkpt lat="37.93867765925824642181396484375" lon="-107.127779759466648101806640625">
        <ele>3743.199951171875</ele>
        <time>2026-01-06T21:07:12.000Z</time>
        <extensions>
          <ns3:TrackPointExtension>
            <ns3:hr>117</ns3:hr>
            <ns3:cad>48</ns3:cad>
          </ns3:TrackPointExtension>
        </extensions>
      </trkpt>
      <trkpt lat="37.9386668466031551361083984375" lon="-107.12778906337916851043701171875">
        <ele>3743.199951171875</ele>
        <time>2026-01-06T21:07:13.000Z</time>
        <extensions>
          <ns3:TrackPointExtension>
            <ns3:hr>118</ns3:hr>
            <ns3:cad>48</ns3:cad>
          </ns3:TrackPointExtension>
        </extensions>
      </trkpt>
      <trkpt lat="37.938624434173107147216796875" lon="-107.1278365887701511383056640625">
        <ele>3743</ele>
        <time>2026-01-06T21:07:18.000Z</time>
        <extensions>
          <ns3:TrackPointExtension>
            <ns3:hr>118</ns3:hr>
            <ns3:cad>0</ns3:cad>
          </ns3:TrackPointExtension>
        </extensions>
      </trkpt>
      <trkpt lat="37.9385850392282009124755859375" lon="-107.12788294069468975067138671875">
        <ele>3742.60009765625</ele>
        <time>2026-01-06T21:07:23.000Z</time>
        <extensions>
          <ns3:TrackPointExtension>
            <ns3:hr>119</ns3:hr>
            <ns3:cad>47</ns3:cad>
          </ns3:TrackPointExtension>
        </extensions>
      </trkpt>
      <trkpt lat="37.93854975141584873199462890625" lon="-107.12792602367699146270751953125">
        <ele>3742.800048828125</ele>
        <time>2026-01-06T21:07:28.000Z</time>
        <extensions>
          <ns3:TrackPointExtension>
            <ns3:hr>119</ns3:hr>
            <ns3:cad>0</ns3:cad>
          </ns3:TrackPointExtension>
        </extensions>
      </trkpt>
      <trkpt lat="37.93851555325090885162353515625" lon="-107.12798318825662136077880859375">
        <ele>3743</ele>
        <time>2026-01-06T21:07:34.000Z</time>
        <extensions>
          <ns3:TrackPointExtension>
            <ns3:hr>119</ns3:hr>
            <ns3:cad>47</ns3:cad>
          </ns3:TrackPointExtension>
        </extensions>
      </trkpt>
      <trkpt lat="37.93851102702319622039794921875" lon="-107.1279888041317462921142578125">
        <ele>3743</ele>
        <time>2026-01-06T21:07:35.000Z</time>
        <extensions>
          <ns3:TrackPointExtension>
            <ns3:hr>119</ns3:hr>
            <ns3:cad>47</ns3:cad>
          </ns3:TrackPointExtension>
        </extensions>
      </trkpt>
      <trkpt lat="37.9384713806211948394775390625" lon="-107.128045968711376190185546875">
        <ele>3742.800048828125</ele>
        <time>2026-01-06T21:07:41.000Z</time>
        <extensions>
          <ns3:TrackPointExtension>
            <ns3:hr>117</ns3:hr>
            <ns3:cad>43</ns3:cad>
          </ns3:TrackPointExtension>
        </extensions>
      </trkpt>
      <trkpt lat="37.9384623281657695770263671875" lon="-107.128051333129405975341796875">
        <ele>3742.800048828125</ele>
        <time>2026-01-06T21:07:42.000Z</time>
        <extensions>
          <ns3:TrackPointExtension>
            <ns3:hr>118</ns3:hr>
            <ns3:cad>42</ns3:cad>
          </ns3:TrackPointExtension>
        </extensions>
      </trkpt>
      <trkpt lat="37.938427962362766265869140625" lon="-107.128108330070972442626953125">
        <ele>3743.199951171875</ele>
        <time>2026-01-06T21:07:48.000Z</time>
        <extensions>
          <ns3:TrackPointExtension>
            <ns3:hr>118</ns3:hr>
            <ns3:cad>45</ns3:cad>
          </ns3:TrackPointExtension>
        </extensions>
      </trkpt>
      <trkpt lat="37.9384204186499118804931640625" lon="-107.12812920100986957550048828125">
        <ele>3743</ele>
        <time>2026-01-06T21:07:50.000Z</time>
        <extensions>
          <ns3:TrackPointExtension>
            <ns3:hr>117</ns3:hr>
            <ns3:cad>0</ns3:cad>
          </ns3:TrackPointExtension>
        </extensions>
      </trkpt>
      <trkpt lat="37.93838697485625743865966796875" lon="-107.128197848796844482421875">
        <ele>3742.39990234375</ele>
        <time>2026-01-06T21:07:56.000Z</time>
        <extensions>
          <ns3:TrackPointExtension>
            <ns3:hr>117</ns3:hr>
            <ns3:cad>0</ns3:cad>
          </ns3:TrackPointExtension>
        </extensions>
      </trkpt>
      <trkpt lat="37.93838177807629108428955078125" lon="-107.12822592817246913909912109375">
        <ele>3742.199951171875</ele>
        <time>2026-01-06T21:07:58.000Z</time>
        <extensions>
          <ns3:TrackPointExtension>
            <ns3:hr>117</ns3:hr>
            <ns3:cad>0</ns3:cad>
          </ns3:TrackPointExtension>
        </extensions>
      </trkpt>
      <trkpt lat="37.938378341495990753173828125" lon="-107.12826280854642391204833984375">
        <ele>3742</ele>
        <time>2026-01-06T21:08:01.000Z</time>
        <extensions>
          <ns3:TrackPointExtension>
            <ns3:hr>117</ns3:hr>
            <ns3:cad>46</ns3:cad>
          </ns3:TrackPointExtension>
        </extensions>
      </trkpt>
      <trkpt lat="37.93835311196744441986083984375" lon="-107.12833472527563571929931640625">
        <ele>3741.60009765625</ele>
        <time>2026-01-06T21:08:07.000Z</time>
        <extensions>
          <ns3:TrackPointExtension>
            <ns3:hr>117</ns3:hr>
            <ns3:cad>47</ns3:cad>
          </ns3:TrackPointExtension>
        </extensions>
      </trkpt>
      <trkpt lat="37.93833919800817966461181640625" lon="-107.12839138694107532501220703125">
        <ele>3741.199951171875</ele>
        <time>2026-01-06T21:08:12.000Z</time>
        <extensions>
          <ns3:TrackPointExtension>
            <ns3:hr>115</ns3:hr>
            <ns3:cad>45</ns3:cad>
          </ns3:TrackPointExtension>
        </extensions>
      </trkpt>
      <trkpt lat="37.9383325763046741485595703125" lon="-107.1284058876335620880126953125">
        <ele>3741</ele>
        <time>2026-01-06T21:08:13.000Z</time>
        <extensions>
          <ns3:TrackPointExtension>
            <ns3:hr>115</ns3:hr>
            <ns3:cad>45</ns3:cad>
          </ns3:TrackPointExtension>
        </extensions>
      </trkpt>
      <trkpt lat="37.93831438757479190826416015625" lon="-107.1284682489931583404541015625">
        <ele>3741.199951171875</ele>
        <time>2026-01-06T21:08:18.000Z</time>
        <extensions>
          <ns3:TrackPointExtension>
            <ns3:hr>114</ns3:hr>
            <ns3:cad>43</ns3:cad>
          </ns3:TrackPointExtension>
        </extensions>
      </trkpt>
      <trkpt lat="37.93829779140651226043701171875" lon="-107.12854561395943164825439453125">
        <ele>3741.800048828125</ele>
        <time>2026-01-06T21:08:24.000Z</time>
        <extensions>
          <ns3:TrackPointExtension>
            <ns3:hr>113</ns3:hr>
            <ns3:cad>42</ns3:cad>
          </ns3:TrackPointExtension>
        </extensions>
      </trkpt>
      <trkpt lat="37.938271723687648773193359375" lon="-107.12861602194607257843017578125">
        <ele>3741.60009765625</ele>
        <time>2026-01-06T21:08:30.000Z</time>
        <extensions>
          <ns3:TrackPointExtension>
            <ns3:hr>113</ns3:hr>
            <ns3:cad>42</ns3:cad>
          </ns3:TrackPointExtension>
        </extensions>
      </trkpt>
      <trkpt lat="37.93826946057379245758056640625" lon="-107.1286251582205295562744140625">
        <ele>3741.39990234375</ele>
        <time>2026-01-06T21:08:31.000Z</time>
        <extensions>
          <ns3:TrackPointExtension>
            <ns3:hr>113</ns3:hr>
            <ns3:cad>42</ns3:cad>
          </ns3:TrackPointExtension>
        </extensions>
      </trkpt>
      <trkpt lat="37.93823777697980403900146484375" lon="-107.1286975778639316558837890625">
        <ele>3741</ele>
        <time>2026-01-06T21:08:37.000Z</time>
        <extensions>
          <ns3:TrackPointExtension>
            <ns3:hr>114</ns3:hr>
            <ns3:cad>48</ns3:cad>
          </ns3:TrackPointExtension>
        </extensions>
      </trkpt>
      <trkpt lat="37.9382081888616085052490234375" lon="-107.128762118518352508544921875">
        <ele>3741</ele>
        <time>2026-01-06T21:08:43.000Z</time>
        <extensions>
          <ns3:TrackPointExtension>
            <ns3:hr>116</ns3:hr>
            <ns3:cad>0</ns3:cad>
          </ns3:TrackPointExtension>
        </extensions>
      </trkpt>
      <trkpt lat="37.93819167651236057281494140625" lon="-107.1288109011948108673095703125">
        <ele>3741.39990234375</ele>
        <time>2026-01-06T21:08:48.000Z</time>
        <extensions>
          <ns3:TrackPointExtension>
            <ns3:hr>116</ns3:hr>
            <ns3:cad>40</ns3:cad>
          </ns3:TrackPointExtension>
        </extensions>
      </trkpt>
      <trkpt lat="37.93816812336444854736328125" lon="-107.128847949206829071044921875">
        <ele>3741.800048828125</ele>
        <time>2026-01-06T21:08:53.000Z</time>
        <extensions>
          <ns3:TrackPointExtension>
            <ns3:hr>115</ns3:hr>
            <ns3:cad>41</ns3:cad>
          </ns3:TrackPointExtension>
        </extensions>
      </trkpt>
      <trkpt lat="37.9381521977484226226806640625" lon="-107.1288598515093326568603515625">
        <ele>3742</ele>
        <time>2026-01-06T21:08:55.000Z</time>
        <extensions>
          <ns3:TrackPointExtension>
            <ns3:hr>115</ns3:hr>
            <ns3:cad>79</ns3:cad>
          </ns3:TrackPointExtension>
        </extensions>
      </trkpt>
      <trkpt lat="37.93811841867864131927490234375" lon="-107.12891274131834506988525390625">
        <ele>3743</ele>
        <time>2026-01-06T21:09:00.000Z</time>
        <extensions>
          <ns3:TrackPointExtension>
            <ns3:hr>113</ns3:hr>
            <ns3:cad>0</ns3:cad>
          </ns3:TrackPointExtension>
        </extensions>
      </trkpt>
      <trkpt lat="37.93811422772705554962158203125" lon="-107.12892078794538974761962890625">
        <ele>3743</ele>
        <time>2026-01-06T21:09:01.000Z</time>
        <extensions>
          <ns3:TrackPointExtension>
            <ns3:hr>113</ns3:hr>
            <ns3:cad>0</ns3:cad>
          </ns3:TrackPointExtension>
        </extensions>
      </trkpt>
      <trkpt lat="37.9380881600081920623779296875" lon="-107.1289611048996448516845703125">
        <ele>3743.800048828125</ele>
        <time>2026-01-06T21:09:06.000Z</time>
        <extensions>
          <ns3:TrackPointExtension>
            <ns3:hr>115</ns3:hr>
            <ns3:cad>0</ns3:cad>
          </ns3:TrackPointExtension>
        </extensions>
      </trkpt>
      <trkpt lat="37.938084639608860015869140625" lon="-107.1289792098104953765869140625">
        <ele>3744</ele>
        <time>2026-01-06T21:09:08.000Z</time>
        <extensions>
          <ns3:TrackPointExtension>
            <ns3:hr>117</ns3:hr>
            <ns3:cad>0</ns3:cad>
          </ns3:TrackPointExtension>
        </extensions>
      </trkpt>
      <trkpt lat="37.938068211078643798828125" lon="-107.12901282124221324920654296875">
        <ele>3744.39990234375</ele>
        <time>2026-01-06T21:09:11.000Z</time>
        <extensions>
          <ns3:TrackPointExtension>
            <ns3:hr>120</ns3:hr>
            <ns3:cad>0</ns3:cad>
          </ns3:TrackPointExtension>
        </extensions>
      </trkpt>
      <trkpt lat="37.938056476414203643798828125" lon="-107.129031009972095489501953125">
        <ele>3744.39990234375</ele>
        <time>2026-01-06T21:09:13.000Z</time>
        <extensions>
          <ns3:TrackPointExtension>
            <ns3:hr>123</ns3:hr>
            <ns3:cad>0</ns3:cad>
          </ns3:TrackPointExtension>
        </extensions>
      </trkpt>
      <trkpt lat="37.93804465793073177337646484375" lon="-107.129051126539707183837890625">
        <ele>3744.60009765625</ele>
        <time>2026-01-06T21:09:15.000Z</time>
        <extensions>
          <ns3:TrackPointExtension>
            <ns3:hr>126</ns3:hr>
            <ns3:cad>0</ns3:cad>
          </ns3:TrackPointExtension>
        </extensions>
      </trkpt>
      <trkpt lat="37.93803812004625797271728515625" lon="-107.1290945447981357574462890625">
        <ele>3744.800048828125</ele>
        <time>2026-01-06T21:09:19.000Z</time>
        <extensions>
          <ns3:TrackPointExtension>
            <ns3:hr>125</ns3:hr>
            <ns3:cad>0</ns3:cad>
          </ns3:TrackPointExtension>
        </extensions>
      </trkpt>
      <trkpt lat="37.93804080225527286529541015625" lon="-107.12915698997676372528076171875">
        <ele>3744.39990234375</ele>
        <time>2026-01-06T21:09:25.000Z</time>
        <extensions>
          <ns3:TrackPointExtension>
            <ns3:hr>124</ns3:hr>
            <ns3:cad>41</ns3:cad>
          </ns3:TrackPointExtension>
        </extensions>
      </trkpt>
      <trkpt lat="37.9380311630666255950927734375" lon="-107.12921985425055027008056640625">
        <ele>3743.60009765625</ele>
        <time>2026-01-06T21:09:31.000Z</time>
        <extensions>
          <ns3:TrackPointExtension>
            <ns3:hr>121</ns3:hr>
            <ns3:cad>0</ns3:cad>
          </ns3:TrackPointExtension>
        </extensions>
      </trkpt>
      <trkpt lat="37.93802638538181781768798828125" lon="-107.1292427368462085723876953125">
        <ele>3743.60009765625</ele>
        <time>2026-01-06T21:09:33.000Z</time>
        <extensions>
          <ns3:TrackPointExtension>
            <ns3:hr>121</ns3:hr>
            <ns3:cad>0</ns3:cad>
          </ns3:TrackPointExtension>
        </extensions>
      </trkpt>
      <trkpt lat="37.93802169151604175567626953125" lon="-107.12930627167224884033203125">
        <ele>3743.800048828125</ele>
        <time>2026-01-06T21:09:39.000Z</time>
        <extensions>
          <ns3:TrackPointExtension>
            <ns3:hr>120</ns3:hr>
            <ns3:cad>0</ns3:cad>
          </ns3:TrackPointExtension>
        </extensions>
      </trkpt>
      <trkpt lat="37.93801984749734401702880859375" lon="-107.1293543837964534759521484375">
        <ele>3743.60009765625</ele>
        <time>2026-01-06T21:09:44.000Z</time>
        <extensions>
          <ns3:TrackPointExtension>
            <ns3:hr>122</ns3:hr>
            <ns3:cad>43</ns3:cad>
          </ns3:TrackPointExtension>
        </extensions>
      </trkpt>
      <trkpt lat="37.9380143992602825164794921875" lon="-107.12943057529628276824951171875">
        <ele>3744.39990234375</ele>
        <time>2026-01-06T21:09:50.000Z</time>
        <extensions>
          <ns3:TrackPointExtension>
            <ns3:hr>122</ns3:hr>
            <ns3:cad>44</ns3:cad>
          </ns3:TrackPointExtension>
        </extensions>
      </trkpt>
      <trkpt lat="37.93801389634609222412109375" lon="-107.129442393779754638671875">
        <ele>3744.60009765625</ele>
        <time>2026-01-06T21:09:51.000Z</time>
        <extensions>
          <ns3:TrackPointExtension>
            <ns3:hr>122</ns3:hr>
            <ns3:cad>44</ns3:cad>
          </ns3:TrackPointExtension>
        </extensions>
      </trkpt>
      <trkpt lat="37.93800853192806243896484375" lon="-107.12949712760746479034423828125">
        <ele>3745</ele>
        <time>2026-01-06T21:09:57.000Z</time>
        <extensions>
          <ns3:TrackPointExtension>
            <ns3:hr>122</ns3:hr>
            <ns3:cad>0</ns3:cad>
          </ns3:TrackPointExtension>
        </extensions>
      </trkpt>
      <trkpt lat="37.9380118846893310546875" lon="-107.12951623834669589996337890625">
        <ele>3745.60009765625</ele>
        <time>2026-01-06T21:09:59.000Z</time>
        <extensions>
          <ns3:TrackPointExtension>
            <ns3:hr>122</ns3:hr>
            <ns3:cad>44</ns3:cad>
          </ns3:TrackPointExtension>
        </extensions>
      </trkpt>
      <trkpt lat="37.9380170814692974090576171875" lon="-107.12954306043684482574462890625">
        <ele>3746.60009765625</ele>
        <time>2026-01-06T21:10:03.000Z</time>
        <extensions>
          <ns3:TrackPointExtension>
            <ns3:hr>123</ns3:hr>
            <ns3:cad>40</ns3:cad>
          </ns3:TrackPointExtension>
        </extensions>
      </trkpt>
      <trkpt lat="37.93802772648632526397705078125" lon="-107.1295924298465251922607421875">
        <ele>3747.199951171875</ele>
        <time>2026-01-06T21:10:09.000Z</time>
        <extensions>
          <ns3:TrackPointExtension>
            <ns3:hr>123</ns3:hr>
            <ns3:cad>0</ns3:cad>
          </ns3:TrackPointExtension>
        </extensions>
      </trkpt>
      <trkpt lat="37.9380281455814838409423828125" lon="-107.1296031586825847625732421875">
        <ele>3747.39990234375</ele>
        <time>2026-01-06T21:10:10.000Z</time>
        <extensions>
          <ns3:TrackPointExtension>
            <ns3:hr>122</ns3:hr>
            <ns3:cad>71</ns3:cad>
          </ns3:TrackPointExtension>
        </extensions>
      </trkpt>
      <trkpt lat="37.938029654324054718017578125" lon="-107.12960860691964626312255859375">
        <ele>3747.800048828125</ele>
        <time>2026-01-06T21:10:11.000Z</time>
        <extensions>
          <ns3:TrackPointExtension>
            <ns3:hr>123</ns3:hr>
            <ns3:cad>71</ns3:cad>
          </ns3:TrackPointExtension>
        </extensions>
      </trkpt>
      <trkpt lat="37.93802454136312007904052734375" lon="-107.12964749895036220550537109375">
        <ele>3748.39990234375</ele>
        <time>2026-01-06T21:10:15.000Z</time>
        <extensions>
          <ns3:TrackPointExtension>
            <ns3:hr>123</ns3:hr>
            <ns3:cad>0</ns3:cad>
          </ns3:TrackPointExtension>
        </extensions>
      </trkpt>
      <trkpt lat="37.93801481835544109344482421875" lon="-107.12969929911196231842041015625">
        <ele>3747.800048828125</ele>
        <time>2026-01-06T21:10:20.000Z</time>
        <extensions>
          <ns3:TrackPointExtension>
            <ns3:hr>124</ns3:hr>
            <ns3:cad>0</ns3:cad>
          </ns3:TrackPointExtension>
        </extensions>
      </trkpt>
      <trkpt lat="37.9379966296255588531494140625" lon="-107.1297682821750640869140625">
        <ele>3747</ele>
        <time>2026-01-06T21:10:26.000Z</time>
        <extensions>
          <ns3:TrackPointExtension>
            <ns3:hr>124</ns3:hr>
            <ns3:cad>0</ns3:cad>
          </ns3:TrackPointExtension>
        </extensions>
      </trkpt>
      <trkpt lat="37.93799520470201969146728515625" lon="-107.12978010065853595733642578125">
        <ele>3747</ele>
        <time>2026-01-06T21:10:27.000Z</time>
        <extensions>
          <ns3:TrackPointExtension>
            <ns3:hr>124</ns3:hr>
            <ns3:cad>0</ns3:cad>
          </ns3:TrackPointExtension>
        </extensions>
      </trkpt>
      <trkpt lat="37.93798028491437435150146484375" lon="-107.12984782643616199493408203125">
        <ele>3746.60009765625</ele>
        <time>2026-01-06T21:10:32.000Z</time>
        <extensions>
          <ns3:TrackPointExtension>
            <ns3:hr>125</ns3:hr>
            <ns3:cad>43</ns3:cad>
          </ns3:TrackPointExtension>
        </extensions>
      </trkpt>
      <trkpt lat="37.9379781894385814666748046875" lon="-107.12986157275736331939697265625">
        <ele>3746.60009765625</ele>
        <time>2026-01-06T21:10:33.000Z</time>
        <extensions>
          <ns3:TrackPointExtension>
            <ns3:hr>126</ns3:hr>
            <ns3:cad>43</ns3:cad>
          </ns3:TrackPointExtension>
        </extensions>
      </trkpt>
      <trkpt lat="37.9379708133637905120849609375" lon="-107.1299399435520172119140625">
        <ele>3747</ele>
        <time>2026-01-06T21:10:39.000Z</time>
        <extensions>
          <ns3:TrackPointExtension>
            <ns3:hr>126</ns3:hr>
            <ns3:cad>45</ns3:cad>
          </ns3:TrackPointExtension>
        </extensions>
      </trkpt>
      <trkpt lat="37.93796016834676265716552734375" lon="-107.12999534793198108673095703125">
        <ele>3747.39990234375</ele>
        <time>2026-01-06T21:10:43.000Z</time>
        <extensions>
          <ns3:TrackPointExtension>
            <ns3:hr>123</ns3:hr>
            <ns3:cad>44</ns3:cad>
          </ns3:TrackPointExtension>
        </extensions>
      </trkpt>
      <trkpt lat="37.937950193881988525390625" lon="-107.13002468459308147430419921875">
        <ele>3747.60009765625</ele>
        <time>2026-01-06T21:10:46.000Z</time>
        <extensions>
          <ns3:TrackPointExtension>
            <ns3:hr>121</ns3:hr>
            <ns3:cad>0</ns3:cad>
          </ns3:TrackPointExtension>
        </extensions>
      </trkpt>
      <trkpt lat="37.93793871067464351654052734375" lon="-107.130095176398754119873046875">
        <ele>3746.800048828125</ele>
        <time>2026-01-06T21:10:52.000Z</time>
        <extensions>
          <ns3:TrackPointExtension>
            <ns3:hr>119</ns3:hr>
            <ns3:cad>0</ns3:cad>
          </ns3:TrackPointExtension>
        </extensions>
      </trkpt>
      <trkpt lat="37.9379272274672985076904296875" lon="-107.130146808922290802001953125">
        <ele>3746.39990234375</ele>
        <time>2026-01-06T21:10:56.000Z</time>
        <extensions>
          <ns3:TrackPointExtension>
            <ns3:hr>116</ns3:hr>
            <ns3:cad>0</ns3:cad>
          </ns3:TrackPointExtension>
        </extensions>
      </trkpt>
      <trkpt lat="37.93792462907731533050537109375" lon="-107.130166254937648773193359375">
        <ele>3746.39990234375</ele>
        <time>2026-01-06T21:10:58.000Z</time>
        <extensions>
          <ns3:TrackPointExtension>
            <ns3:hr>116</ns3:hr>
            <ns3:cad>0</ns3:cad>
          </ns3:TrackPointExtension>
        </extensions>
      </trkpt>
      <trkpt lat="37.937912978231906890869140625" lon="-107.130217887461185455322265625">
        <ele>3746.60009765625</ele>
        <time>2026-01-06T21:11:03.000Z</time>
        <extensions>
          <ns3:TrackPointExtension>
            <ns3:hr>114</ns3:hr>
            <ns3:cad>79</ns3:cad>
          </ns3:TrackPointExtension>
        </extensions>
      </trkpt>
      <trkpt lat="37.9379040934145450592041015625" lon="-107.13029676117002964019775390625">
        <ele>3746.199951171875</ele>
        <time>2026-01-06T21:11:09.000Z</time>
        <extensions>
          <ns3:TrackPointExtension>
            <ns3:hr>114</ns3:hr>
            <ns3:cad>79</ns3:cad>
          </ns3:TrackPointExtension>
        </extensions>
      </trkpt>
      <trkpt lat="37.937891520559787750244140625" lon="-107.1303664147853851318359375">
        <ele>3745.60009765625</ele>
        <time>2026-01-06T21:11:14.000Z</time>
        <extensions>
          <ns3:TrackPointExtension>
            <ns3:hr>113</ns3:hr>
            <ns3:cad>47</ns3:cad>
          </ns3:TrackPointExtension>
        </extensions>
      </trkpt>
      <trkpt lat="37.937891520559787750244140625" lon="-107.13037454523146152496337890625">
        <ele>3745.39990234375</ele>
        <time>2026-01-06T21:11:15.000Z</time>
        <extensions>
          <ns3:TrackPointExtension>
            <ns3:hr>113</ns3:hr>
            <ns3:cad>47</ns3:cad>
          </ns3:TrackPointExtension>
        </extensions>
      </trkpt>
      <trkpt lat="37.937881462275981903076171875" lon="-107.130455262959003448486328125">
        <ele>3744.39990234375</ele>
        <time>2026-01-06T21:11:21.000Z</time>
        <extensions>
          <ns3:TrackPointExtension>
            <ns3:hr>112</ns3:hr>
            <ns3:cad>50</ns3:cad>
          </ns3:TrackPointExtension>
        </extensions>
      </trkpt>
      <trkpt lat="37.9378809593617916107177734375" lon="-107.13046942837536334991455078125">
        <ele>3744.199951171875</ele>
        <time>2026-01-06T21:11:22.000Z</time>
        <extensions>
          <ns3:TrackPointExtension>
            <ns3:hr>112</ns3:hr>
            <ns3:cad>50</ns3:cad>
          </ns3:TrackPointExtension>
        </extensions>
      </trkpt>
      <trkpt lat="37.9378802888095378875732421875" lon="-107.13054838590323925018310546875">
        <ele>3743.800048828125</ele>
        <time>2026-01-06T21:11:28.000Z</time>
        <extensions>
          <ns3:TrackPointExtension>
            <ns3:hr>111</ns3:hr>
            <ns3:cad>0</ns3:cad>
          </ns3:TrackPointExtension>
        </extensions>
      </trkpt>
      <trkpt lat="37.9378796182572841644287109375" lon="-107.13055827654898166656494140625">
        <ele>3743.60009765625</ele>
        <time>2026-01-06T21:11:29.000Z</time>
        <extensions>
          <ns3:TrackPointExtension>
            <ns3:hr>111</ns3:hr>
            <ns3:cad>0</ns3:cad>
          </ns3:TrackPointExtension>
        </extensions>
      </trkpt>
      <trkpt lat="37.93787903152406215667724609375" lon="-107.1306254155933856964111328125">
        <ele>3744</ele>
        <time>2026-01-06T21:11:34.000Z</time>
        <extensions>
          <ns3:TrackPointExtension>
            <ns3:hr>108</ns3:hr>
            <ns3:cad>0</ns3:cad>
          </ns3:TrackPointExtension>
        </extensions>
      </trkpt>
      <trkpt lat="37.937880121171474456787109375" lon="-107.13063589297235012054443359375">
        <ele>3743.800048828125</ele>
        <time>2026-01-06T21:11:35.000Z</time>
        <extensions>
          <ns3:TrackPointExtension>
            <ns3:hr>108</ns3:hr>
            <ns3:cad>0</ns3:cad>
          </ns3:TrackPointExtension>
        </extensions>
      </trkpt>
      <trkpt lat="37.937890179455280303955078125" lon="-107.13067059405148029327392578125">
        <ele>3743</ele>
        <time>2026-01-06T21:11:38.000Z</time>
        <extensions>
          <ns3:TrackPointExtension>
            <ns3:hr>107</ns3:hr>
            <ns3:cad>43</ns3:cad>
          </ns3:TrackPointExtension>
        </extensions>
      </trkpt>
      <trkpt lat="37.9378923587501049041748046875" lon="-107.1307038702070713043212890625">
        <ele>3741.800048828125</ele>
        <time>2026-01-06T21:11:41.000Z</time>
        <extensions>
          <ns3:TrackPointExtension>
            <ns3:hr>106</ns3:hr>
            <ns3:cad>43</ns3:cad>
          </ns3:TrackPointExtension>
        </extensions>
      </trkpt>
      <trkpt lat="37.93789193965494632720947265625" lon="-107.1307192929089069366455078125">
        <ele>3741.60009765625</ele>
        <time>2026-01-06T21:11:42.000Z</time>
        <extensions>
          <ns3:TrackPointExtension>
            <ns3:hr>106</ns3:hr>
            <ns3:cad>50</ns3:cad>
          </ns3:TrackPointExtension>
        </extensions>
      </trkpt>
      <trkpt lat="37.93789856135845184326171875" lon="-107.1307875216007232666015625">
        <ele>3741.60009765625</ele>
        <time>2026-01-06T21:11:48.000Z</time>
        <extensions>
          <ns3:TrackPointExtension>
            <ns3:hr>106</ns3:hr>
            <ns3:cad>46</ns3:cad>
          </ns3:TrackPointExtension>
        </extensions>
      </trkpt>
      <trkpt lat="37.93789730407297611236572265625" lon="-107.1308188699185848236083984375">
        <ele>3741.800048828125</ele>
        <time>2026-01-06T21:11:50.000Z</time>
        <extensions>
          <ns3:TrackPointExtension>
            <ns3:hr>106</ns3:hr>
            <ns3:cad>40</ns3:cad>
          </ns3:TrackPointExtension>
        </extensions>
      </trkpt>
      <trkpt lat="37.937894873321056365966796875" lon="-107.13089539669454097747802734375">
        <ele>3742</ele>
        <time>2026-01-06T21:11:56.000Z</time>
        <extensions>
          <ns3:TrackPointExtension>
            <ns3:hr>105</ns3:hr>
            <ns3:cad>41</ns3:cad>
          </ns3:TrackPointExtension>
        </extensions>
      </trkpt>
      <trkpt lat="37.937887497246265411376953125" lon="-107.1309573389589786529541015625">
        <ele>3742.39990234375</ele>
        <time>2026-01-06T21:12:01.000Z</time>
        <extensions>
          <ns3:TrackPointExtension>
            <ns3:hr>101</ns3:hr>
            <ns3:cad>44</ns3:cad>
          </ns3:TrackPointExtension>
        </extensions>
      </trkpt>
      <trkpt lat="37.93788070790469646453857421875" lon="-107.13098223321139812469482421875">
        <ele>3742.39990234375</ele>
        <time>2026-01-06T21:12:03.000Z</time>
        <extensions>
          <ns3:TrackPointExtension>
            <ns3:hr>98</ns3:hr>
            <ns3:cad>0</ns3:cad>
          </ns3:TrackPointExtension>
        </extensions>
      </trkpt>
      <trkpt lat="37.93787182308733463287353515625" lon="-107.1310585923492908477783203125">
        <ele>3741.60009765625</ele>
        <time>2026-01-06T21:12:08.000Z</time>
        <extensions>
          <ns3:TrackPointExtension>
            <ns3:hr>96</ns3:hr>
            <ns3:cad>47</ns3:cad>
          </ns3:TrackPointExtension>
        </extensions>
      </trkpt>
      <trkpt lat="37.9378605075180530548095703125" lon="-107.131144590675830841064453125">
        <ele>3741.199951171875</ele>
        <time>2026-01-06T21:12:14.000Z</time>
        <extensions>
          <ns3:TrackPointExtension>
            <ns3:hr>97</ns3:hr>
            <ns3:cad>45</ns3:cad>
          </ns3:TrackPointExtension>
        </extensions>
      </trkpt>
      <trkpt lat="37.93785204179584980010986328125" lon="-107.13120435364544391632080078125">
        <ele>3741</ele>
        <time>2026-01-06T21:12:19.000Z</time>
        <extensions>
          <ns3:TrackPointExtension>
            <ns3:hr>96</ns3:hr>
            <ns3:cad>48</ns3:cad>
          </ns3:TrackPointExtension>
        </extensions>
      </trkpt>
      <trkpt lat="37.93785070069134235382080078125" lon="-107.13121600449085235595703125">
        <ele>3740.800048828125</ele>
        <time>2026-01-06T21:12:20.000Z</time>
        <extensions>
          <ns3:TrackPointExtension>
            <ns3:hr>97</ns3:hr>
            <ns3:cad>48</ns3:cad>
          </ns3:TrackPointExtension>
        </extensions>
      </trkpt>
      <trkpt lat="37.93785631656646728515625" lon="-107.13129353709518909454345703125">
        <ele>3740</ele>
        <time>2026-01-06T21:12:26.000Z</time>
        <extensions>
          <ns3:TrackPointExtension>
            <ns3:hr>97</ns3:hr>
            <ns3:cad>46</ns3:cad>
          </ns3:TrackPointExtension>
        </extensions>
      </trkpt>
      <trkpt lat="37.9378595016896724700927734375" lon="-107.13130711577832698822021484375">
        <ele>3739.800048828125</ele>
        <time>2026-01-06T21:12:27.000Z</time>
        <extensions>
          <ns3:TrackPointExtension>
            <ns3:hr>97</ns3:hr>
            <ns3:cad>46</ns3:cad>
          </ns3:TrackPointExtension>
        </extensions>
      </trkpt>
      <trkpt lat="37.93785422109067440032958984375" lon="-107.13138070888817310333251953125">
        <ele>3740.39990234375</ele>
        <time>2026-01-06T21:12:33.000Z</time>
        <extensions>
          <ns3:TrackPointExtension>
            <ns3:hr>96</ns3:hr>
            <ns3:cad>0</ns3:cad>
          </ns3:TrackPointExtension>
        </extensions>
      </trkpt>
      <trkpt lat="37.93784550391137599945068359375" lon="-107.13144139386713504791259765625">
        <ele>3740.60009765625</ele>
        <time>2026-01-06T21:12:39.000Z</time>
        <extensions>
          <ns3:TrackPointExtension>
            <ns3:hr>97</ns3:hr>
            <ns3:cad>46</ns3:cad>
          </ns3:TrackPointExtension>
        </extensions>
      </trkpt>
      <trkpt lat="37.9378415644168853759765625" lon="-107.1314565651118755340576171875">
        <ele>3740.60009765625</ele>
        <time>2026-01-06T21:12:40.000Z</time>
        <extensions>
          <ns3:TrackPointExtension>
            <ns3:hr>97</ns3:hr>
            <ns3:cad>46</ns3:cad>
          </ns3:TrackPointExtension>
        </extensions>
      </trkpt>
      <trkpt lat="37.93782354332506656646728515625" lon="-107.131522782146930694580078125">
        <ele>3740.39990234375</ele>
        <time>2026-01-06T21:12:46.000Z</time>
        <extensions>
          <ns3:TrackPointExtension>
            <ns3:hr>98</ns3:hr>
            <ns3:cad>42</ns3:cad>
          </ns3:TrackPointExtension>
        </extensions>
      </trkpt>
      <trkpt lat="37.9378259740769863128662109375" lon="-107.13153191842138767242431640625">
        <ele>3740.39990234375</ele>
        <time>2026-01-06T21:12:47.000Z</time>
        <extensions>
          <ns3:TrackPointExtension>
            <ns3:hr>99</ns3:hr>
            <ns3:cad>42</ns3:cad>
          </ns3:TrackPointExtension>
        </extensions>
      </trkpt>
      <trkpt lat="37.93780946172773838043212890625" lon="-107.13159511797130107879638671875">
        <ele>3739.800048828125</ele>
        <time>2026-01-06T21:12:53.000Z</time>
        <extensions>
          <ns3:TrackPointExtension>
            <ns3:hr>100</ns3:hr>
            <ns3:cad>50</ns3:cad>
          </ns3:TrackPointExtension>
        </extensions>
      </trkpt>
      <trkpt lat="37.93780694715678691864013671875" lon="-107.1316174976527690887451171875">
        <ele>3739.800048828125</ele>
        <time>2026-01-06T21:12:55.000Z</time>
        <extensions>
          <ns3:TrackPointExtension>
            <ns3:hr>100</ns3:hr>
            <ns3:cad>50</ns3:cad>
          </ns3:TrackPointExtension>
        </extensions>
      </trkpt>
      <trkpt lat="37.9377917759120464324951171875" lon="-107.13167742826044559478759765625">
        <ele>3739.800048828125</ele>
        <time>2026-01-06T21:13:01.000Z</time>
        <extensions>
          <ns3:TrackPointExtension>
            <ns3:hr>100</ns3:hr>
            <ns3:cad>41</ns3:cad>
          </ns3:TrackPointExtension>
        </extensions>
      </trkpt>
      <trkpt lat="37.9377900995314121246337890625" lon="-107.13169209659099578857421875">
        <ele>3739.60009765625</ele>
        <time>2026-01-06T21:13:02.000Z</time>
        <extensions>
          <ns3:TrackPointExtension>
            <ns3:hr>100</ns3:hr>
            <ns3:cad>0</ns3:cad>
          </ns3:TrackPointExtension>
        </extensions>
      </trkpt>
      <trkpt lat="37.937786243855953216552734375" lon="-107.13173928670585155487060546875">
        <ele>3740</ele>
        <time>2026-01-06T21:13:06.000Z</time>
        <extensions>
          <ns3:TrackPointExtension>
            <ns3:hr>100</ns3:hr>
            <ns3:cad>0</ns3:cad>
          </ns3:TrackPointExtension>
        </extensions>
      </trkpt>
      <trkpt lat="37.9377783648669719696044921875" lon="-107.13177013210952281951904296875">
        <ele>3740.199951171875</ele>
        <time>2026-01-06T21:13:09.000Z</time>
        <extensions>
          <ns3:TrackPointExtension>
            <ns3:hr>101</ns3:hr>
            <ns3:cad>0</ns3:cad>
          </ns3:TrackPointExtension>
        </extensions>
      </trkpt>
      <trkpt lat="37.9377733357250690460205078125" lon="-107.1318337507545948028564453125">
        <ele>3739.60009765625</ele>
        <time>2026-01-06T21:13:15.000Z</time>
        <extensions>
          <ns3:TrackPointExtension>
            <ns3:hr>100</ns3:hr>
            <ns3:cad>0</ns3:cad>
          </ns3:TrackPointExtension>
        </extensions>
      </trkpt>
      <trkpt lat="37.9377718269824981689453125" lon="-107.1318605728447437286376953125">
        <ele>3739.60009765625</ele>
        <time>2026-01-06T21:13:18.000Z</time>
        <extensions>
          <ns3:TrackPointExtension>
            <ns3:hr>97</ns3:hr>
            <ns3:cad>0</ns3:cad>
          </ns3:TrackPointExtension>
        </extensions>
      </trkpt>
      <trkpt lat="37.93776956386864185333251953125" lon="-107.131880857050418853759765625">
        <ele>3739.60009765625</ele>
        <time>2026-01-06T21:13:20.000Z</time>
        <extensions>
          <ns3:TrackPointExtension>
            <ns3:hr>96</ns3:hr>
            <ns3:cad>0</ns3:cad>
          </ns3:TrackPointExtension>
        </extensions>
      </trkpt>
      <trkpt lat="37.93775816448032855987548828125" lon="-107.13194514624774456024169921875">
        <ele>3739.800048828125</ele>
        <time>2026-01-06T21:13:26.000Z</time>
        <extensions>
          <ns3:TrackPointExtension>
            <ns3:hr>99</ns3:hr>
            <ns3:cad>0</ns3:cad>
          </ns3:TrackPointExtension>
        </extensions>
      </trkpt>
      <trkpt lat="37.93775414116680622100830078125" lon="-107.1319601498544216156005859375">
        <ele>3739.800048828125</ele>
        <time>2026-01-06T21:13:27.000Z</time>
        <extensions>
          <ns3:TrackPointExtension>
            <ns3:hr>98</ns3:hr>
            <ns3:cad>0</ns3:cad>
          </ns3:TrackPointExtension>
        </extensions>
      </trkpt>
      <trkpt lat="37.9377455078065395355224609375" lon="-107.1320092678070068359375">
        <ele>3739.800048828125</ele>
        <time>2026-01-06T21:13:32.000Z</time>
        <extensions>
          <ns3:TrackPointExtension>
            <ns3:hr>97</ns3:hr>
            <ns3:cad>0</ns3:cad>
          </ns3:TrackPointExtension>
        </extensions>
      </trkpt>
      <trkpt lat="37.9377289116382598876953125" lon="-107.1320701204240322113037109375">
        <ele>3740</ele>
        <time>2026-01-06T21:13:37.000Z</time>
        <extensions>
          <ns3:TrackPointExtension>
            <ns3:hr>100</ns3:hr>
            <ns3:cad>78</ns3:cad>
          </ns3:TrackPointExtension>
        </extensions>
      </trkpt>
      <trkpt lat="37.93772866018116474151611328125" lon="-107.1320728026330471038818359375">
        <ele>3739.800048828125</ele>
        <time>2026-01-06T21:13:38.000Z</time>
        <extensions>
          <ns3:TrackPointExtension>
            <ns3:hr>100</ns3:hr>
            <ns3:cad>78</ns3:cad>
          </ns3:TrackPointExtension>
        </extensions>
      </trkpt>
      <trkpt lat="37.93772027827799320220947265625" lon="-107.1321013011038303375244140625">
        <ele>3738.60009765625</ele>
        <time>2026-01-06T21:13:41.000Z</time>
        <extensions>
          <ns3:TrackPointExtension>
            <ns3:hr>101</ns3:hr>
            <ns3:cad>78</ns3:cad>
          </ns3:TrackPointExtension>
        </extensions>
      </trkpt>
      <trkpt lat="37.93771156109869480133056640625" lon="-107.13213742710649967193603515625">
        <ele>3738.800048828125</ele>
        <time>2026-01-06T21:13:44.000Z</time>
        <extensions>
          <ns3:TrackPointExtension>
            <ns3:hr>101</ns3:hr>
            <ns3:cad>78</ns3:cad>
          </ns3:TrackPointExtension>
        </extensions>
      </trkpt>
      <trkpt lat="37.9376932047307491302490234375" lon="-107.13218964636325836181640625">
        <ele>3739.199951171875</ele>
        <time>2026-01-06T21:13:49.000Z</time>
        <extensions>
          <ns3:TrackPointExtension>
            <ns3:hr>100</ns3:hr>
            <ns3:cad>78</ns3:cad>
          </ns3:TrackPointExtension>
        </extensions>
      </trkpt>
      <trkpt lat="37.93767786584794521331787109375" lon="-107.1322447992861270904541015625">
        <ele>3739.199951171875</ele>
        <time>2026-01-06T21:13:55.000Z</time>
        <extensions>
          <ns3:TrackPointExtension>
            <ns3:hr>98</ns3:hr>
            <ns3:cad>0</ns3:cad>
          </ns3:TrackPointExtension>
        </extensions>
      </trkpt>
      <trkpt lat="37.93767585419118404388427734375" lon="-107.13225410319864749908447265625">
        <ele>3739.199951171875</ele>
        <time>2026-01-06T21:13:56.000Z</time>
        <extensions>
          <ns3:TrackPointExtension>
            <ns3:hr>98</ns3:hr>
            <ns3:cad>41</ns3:cad>
          </ns3:TrackPointExtension>
        </extensions>
      </trkpt>
      <trkpt lat="37.93766311369836330413818359375" lon="-107.13231998495757579803466796875">
        <ele>3738.800048828125</ele>
        <time>2026-01-06T21:14:02.000Z</time>
        <extensions>
          <ns3:TrackPointExtension>
            <ns3:hr>95</ns3:hr>
            <ns3:cad>0</ns3:cad>
          </ns3:TrackPointExtension>
        </extensions>
      </trkpt>
      <trkpt lat="37.9376626946032047271728515625" lon="-107.1323286183178424835205078125">
        <ele>3738.60009765625</ele>
        <time>2026-01-06T21:14:03.000Z</time>
        <extensions>
          <ns3:TrackPointExtension>
            <ns3:hr>95</ns3:hr>
            <ns3:cad>0</ns3:cad>
          </ns3:TrackPointExtension>
        </extensions>
      </trkpt>
      <trkpt lat="37.93765070848166942596435546875" lon="-107.13239341042935848236083984375">
        <ele>3738.199951171875</ele>
        <time>2026-01-06T21:14:08.000Z</time>
        <extensions>
          <ns3:TrackPointExtension>
            <ns3:hr>95</ns3:hr>
            <ns3:cad>45</ns3:cad>
          </ns3:TrackPointExtension>
        </extensions>
      </trkpt>
      <trkpt lat="37.93763746507465839385986328125" lon="-107.13246717117726802825927734375">
        <ele>3738.60009765625</ele>
        <time>2026-01-06T21:14:14.000Z</time>
        <extensions>
          <ns3:TrackPointExtension>
            <ns3:hr>95</ns3:hr>
            <ns3:cad>42</ns3:cad>
          </ns3:TrackPointExtension>
        </extensions>
      </trkpt>
      <trkpt lat="37.93763360939919948577880859375" lon="-107.13247639127075672149658203125">
        <ele>3738.39990234375</ele>
        <time>2026-01-06T21:14:15.000Z</time>
        <extensions>
          <ns3:TrackPointExtension>
            <ns3:hr>95</ns3:hr>
            <ns3:cad>42</ns3:cad>
          </ns3:TrackPointExtension>
        </extensions>
      </trkpt>
      <trkpt lat="37.93761936016380786895751953125" lon="-107.1325529180467128753662109375">
        <ele>3738.800048828125</ele>
        <time>2026-01-06T21:14:21.000Z</time>
        <extensions>
          <ns3:TrackPointExtension>
            <ns3:hr>95</ns3:hr>
            <ns3:cad>0</ns3:cad>
          </ns3:TrackPointExtension>
        </extensions>
      </trkpt>
      <trkpt lat="37.937615923583507537841796875" lon="-107.1325619705021381378173828125">
        <ele>3738.800048828125</ele>
        <time>2026-01-06T21:14:22.000Z</time>
        <extensions>
          <ns3:TrackPointExtension>
            <ns3:hr>95</ns3:hr>
            <ns3:cad>0</ns3:cad>
          </ns3:TrackPointExtension>
        </extensions>
      </trkpt>
      <trkpt lat="37.93759890832006931304931640625" lon="-107.13262290693819522857666015625">
        <ele>3738.60009765625</ele>
        <time>2026-01-06T21:14:28.000Z</time>
        <extensions>
          <ns3:TrackPointExtension>
            <ns3:hr>95</ns3:hr>
            <ns3:cad>46</ns3:cad>
          </ns3:TrackPointExtension>
        </extensions>
      </trkpt>
      <trkpt lat="37.9375909455120563507080078125" lon="-107.132687531411647796630859375">
        <ele>3738.60009765625</ele>
        <time>2026-01-06T21:14:34.000Z</time>
        <extensions>
          <ns3:TrackPointExtension>
            <ns3:hr>96</ns3:hr>
            <ns3:cad>0</ns3:cad>
          </ns3:TrackPointExtension>
        </extensions>
      </trkpt>
      <trkpt lat="37.93759069405496120452880859375" lon="-107.1326947398483753204345703125">
        <ele>3738.39990234375</ele>
        <time>2026-01-06T21:14:35.000Z</time>
        <extensions>
          <ns3:TrackPointExtension>
            <ns3:hr>96</ns3:hr>
            <ns3:cad>0</ns3:cad>
          </ns3:TrackPointExtension>
        </extensions>
      </trkpt>
      <trkpt lat="37.9375771991908550262451171875" lon="-107.13275349698960781097412109375">
        <ele>3738.39990234375</ele>
        <time>2026-01-06T21:14:40.000Z</time>
        <extensions>
          <ns3:TrackPointExtension>
            <ns3:hr>96</ns3:hr>
            <ns3:cad>0</ns3:cad>
          </ns3:TrackPointExtension>
        </extensions>
      </trkpt>
      <trkpt lat="37.93756303377449512481689453125" lon="-107.1328184567391872406005859375">
        <ele>3738</ele>
        <time>2026-01-06T21:14:46.000Z</time>
        <extensions>
          <ns3:TrackPointExtension>
            <ns3:hr>95</ns3:hr>
            <ns3:cad>47</ns3:cad>
          </ns3:TrackPointExtension>
        </extensions>
      </trkpt>
      <trkpt lat="37.9375476948916912078857421875" lon="-107.13288676925003528594970703125">
        <ele>3738.800048828125</ele>
        <time>2026-01-06T21:14:52.000Z</time>
        <extensions>
          <ns3:TrackPointExtension>
            <ns3:hr>97</ns3:hr>
            <ns3:cad>47</ns3:cad>
          </ns3:TrackPointExtension>
        </extensions>
      </trkpt>
      <trkpt lat="37.9375433363020420074462890625" lon="-107.13294058106839656829833984375">
        <ele>3738.800048828125</ele>
        <time>2026-01-06T21:14:57.000Z</time>
        <extensions>
          <ns3:TrackPointExtension>
            <ns3:hr>99</ns3:hr>
            <ns3:cad>0</ns3:cad>
          </ns3:TrackPointExtension>
        </extensions>
      </trkpt>
      <trkpt lat="37.9375248961150646209716796875" lon="-107.13301710784435272216796875">
        <ele>3738.800048828125</ele>
        <time>2026-01-06T21:15:03.000Z</time>
        <extensions>
          <ns3:TrackPointExtension>
            <ns3:hr>100</ns3:hr>
            <ns3:cad>77</ns3:cad>
          </ns3:TrackPointExtension>
        </extensions>
      </trkpt>
      <trkpt lat="37.9375057853758335113525390625" lon="-107.13308508507907390594482421875">
        <ele>3738.60009765625</ele>
        <time>2026-01-06T21:15:09.000Z</time>
        <extensions>
          <ns3:TrackPointExtension>
            <ns3:hr>101</ns3:hr>
            <ns3:cad>65</ns3:cad>
          </ns3:TrackPointExtension>
        </extensions>
      </trkpt>
      <trkpt lat="37.93748860247433185577392578125" lon="-107.1331483684480190277099609375">
        <ele>3738.800048828125</ele>
        <time>2026-01-06T21:15:14.000Z</time>
        <extensions>
          <ns3:TrackPointExtension>
            <ns3:hr>104</ns3:hr>
            <ns3:cad>0</ns3:cad>
          </ns3:TrackPointExtension>
        </extensions>
      </trkpt>
      <trkpt lat="37.93748038820922374725341796875" lon="-107.13317544199526309967041015625">
        <ele>3738.800048828125</ele>
        <time>2026-01-06T21:15:16.000Z</time>
        <extensions>
          <ns3:TrackPointExtension>
            <ns3:hr>104</ns3:hr>
            <ns3:cad>0</ns3:cad>
          </ns3:TrackPointExtension>
        </extensions>
      </trkpt>
      <trkpt lat="37.93746110983192920684814453125" lon="-107.133246771991252899169921875">
        <ele>3738.199951171875</ele>
        <time>2026-01-06T21:15:22.000Z</time>
        <extensions>
          <ns3:TrackPointExtension>
            <ns3:hr>103</ns3:hr>
            <ns3:cad>0</ns3:cad>
          </ns3:TrackPointExtension>
        </extensions>
      </trkpt>
      <trkpt lat="37.9374534823000431060791015625" lon="-107.1332774497568607330322265625">
        <ele>3737.60009765625</ele>
        <time>2026-01-06T21:15:25.000Z</time>
        <extensions>
          <ns3:TrackPointExtension>
            <ns3:hr>102</ns3:hr>
            <ns3:cad>46</ns3:cad>
          </ns3:TrackPointExtension>
        </extensions>
      </trkpt>
      <trkpt lat="37.93743814341723918914794921875" lon="-107.1333424933254718780517578125">
        <ele>3736.800048828125</ele>
        <time>2026-01-06T21:15:30.000Z</time>
        <extensions>
          <ns3:TrackPointExtension>
            <ns3:hr>103</ns3:hr>
            <ns3:cad>0</ns3:cad>
          </ns3:TrackPointExtension>
        </extensions>
      </trkpt>
      <trkpt lat="37.937436886131763458251953125" lon="-107.13335498236119747161865234375">
        <ele>3736.39990234375</ele>
        <time>2026-01-06T21:15:31.000Z</time>
        <extensions>
          <ns3:TrackPointExtension>
            <ns3:hr>103</ns3:hr>
            <ns3:cad>0</ns3:cad>
          </ns3:TrackPointExtension>
        </extensions>
      </trkpt>
      <trkpt lat="37.937429845333099365234375" lon="-107.13340678252279758453369140625">
        <ele>3736.199951171875</ele>
        <time>2026-01-06T21:15:35.000Z</time>
        <extensions>
          <ns3:TrackPointExtension>
            <ns3:hr>102</ns3:hr>
            <ns3:cad>0</ns3:cad>
          </ns3:TrackPointExtension>
        </extensions>
      </trkpt>
      <trkpt lat="37.93741752393543720245361328125" lon="-107.1334745921194553375244140625">
        <ele>3736.39990234375</ele>
        <time>2026-01-06T21:15:41.000Z</time>
        <extensions>
          <ns3:TrackPointExtension>
            <ns3:hr>102</ns3:hr>
            <ns3:cad>0</ns3:cad>
          </ns3:TrackPointExtension>
        </extensions>
      </trkpt>
      <trkpt lat="37.937410734593868255615234375" lon="-107.13354013860225677490234375">
        <ele>3736.800048828125</ele>
        <time>2026-01-06T21:15:47.000Z</time>
        <extensions>
          <ns3:TrackPointExtension>
            <ns3:hr>101</ns3:hr>
            <ns3:cad>45</ns3:cad>
          </ns3:TrackPointExtension>
        </extensions>
      </trkpt>
      <trkpt lat="37.93739137239754199981689453125" lon="-107.13360375724732875823974609375">
        <ele>3735.39990234375</ele>
        <time>2026-01-06T21:15:52.000Z</time>
        <extensions>
          <ns3:TrackPointExtension>
            <ns3:hr>99</ns3:hr>
            <ns3:cad>45</ns3:cad>
          </ns3:TrackPointExtension>
        </extensions>
      </trkpt>
      <trkpt lat="37.9373857565224170684814453125" lon="-107.1336194314062595367431640625">
        <ele>3735.39990234375</ele>
        <time>2026-01-06T21:15:53.000Z</time>
        <extensions>
          <ns3:TrackPointExtension>
            <ns3:hr>99</ns3:hr>
            <ns3:cad>48</ns3:cad>
          </ns3:TrackPointExtension>
        </extensions>
      </trkpt>
      <trkpt lat="37.93736186809837818145751953125" lon="-107.13369864039123058319091796875">
        <ele>3735.199951171875</ele>
        <time>2026-01-06T21:15:59.000Z</time>
        <extensions>
          <ns3:TrackPointExtension>
            <ns3:hr>100</ns3:hr>
            <ns3:cad>0</ns3:cad>
          </ns3:TrackPointExtension>
        </extensions>
      </trkpt>
      <trkpt lat="37.9373599402606487274169921875" lon="-107.1337072737514972686767578125">
        <ele>3735.199951171875</ele>
        <time>2026-01-06T21:16:00.000Z</time>
        <extensions>
          <ns3:TrackPointExtension>
            <ns3:hr>100</ns3:hr>
            <ns3:cad>0</ns3:cad>
          </ns3:TrackPointExtension>
        </extensions>
      </trkpt>
      <trkpt lat="37.937335632741451263427734375" lon="-107.1337795257568359375">
        <ele>3735</ele>
        <time>2026-01-06T21:16:06.000Z</time>
        <extensions>
          <ns3:TrackPointExtension>
            <ns3:hr>101</ns3:hr>
            <ns3:cad>0</ns3:cad>
          </ns3:TrackPointExtension>
        </extensions>
      </trkpt>
      <trkpt lat="37.93733085505664348602294921875" lon="-107.1337900869548320770263671875">
        <ele>3734.800048828125</ele>
        <time>2026-01-06T21:16:07.000Z</time>
        <extensions>
          <ns3:TrackPointExtension>
            <ns3:hr>102</ns3:hr>
            <ns3:cad>0</ns3:cad>
          </ns3:TrackPointExtension>
        </extensions>
      </trkpt>
      <trkpt lat="37.9373069666326045989990234375" lon="-107.13386191986501216888427734375">
        <ele>3734.39990234375</ele>
        <time>2026-01-06T21:16:13.000Z</time>
        <extensions>
          <ns3:TrackPointExtension>
            <ns3:hr>104</ns3:hr>
            <ns3:cad>19</ns3:cad>
          </ns3:TrackPointExtension>
        </extensions>
      </trkpt>
      <trkpt lat="37.93730202130973339080810546875" lon="-107.1338735707104206085205078125">
        <ele>3734.39990234375</ele>
        <time>2026-01-06T21:16:14.000Z</time>
        <extensions>
          <ns3:TrackPointExtension>
            <ns3:hr>103</ns3:hr>
            <ns3:cad>19</ns3:cad>
          </ns3:TrackPointExtension>
        </extensions>
      </trkpt>
      <trkpt lat="37.93726882897317409515380859375" lon="-107.13394272141158580780029296875">
        <ele>3734</ele>
        <time>2026-01-06T21:16:20.000Z</time>
        <extensions>
          <ns3:TrackPointExtension>
            <ns3:hr>101</ns3:hr>
            <ns3:cad>47</ns3:cad>
          </ns3:TrackPointExtension>
        </extensions>
      </trkpt>
      <trkpt lat="37.93723278678953647613525390625" lon="-107.134000472724437713623046875">
        <ele>3733.39990234375</ele>
        <time>2026-01-06T21:16:25.000Z</time>
        <extensions>
          <ns3:TrackPointExtension>
            <ns3:hr>101</ns3:hr>
            <ns3:cad>48</ns3:cad>
          </ns3:TrackPointExtension>
        </extensions>
      </trkpt>
      <trkpt lat="37.93722021393477916717529296875" lon="-107.1340187452733516693115234375">
        <ele>3733</ele>
        <time>2026-01-06T21:16:27.000Z</time>
        <extensions>
          <ns3:TrackPointExtension>
            <ns3:hr>101</ns3:hr>
            <ns3:cad>48</ns3:cad>
          </ns3:TrackPointExtension>
        </extensions>
      </trkpt>
      <trkpt lat="37.93719490058720111846923828125" lon="-107.1340874768793582916259765625">
        <ele>3732.800048828125</ele>
        <time>2026-01-06T21:16:33.000Z</time>
        <extensions>
          <ns3:TrackPointExtension>
            <ns3:hr>100</ns3:hr>
            <ns3:cad>47</ns3:cad>
          </ns3:TrackPointExtension>
        </extensions>
      </trkpt>
      <trkpt lat="37.93716388754546642303466796875" lon="-107.13416048325598239898681640625">
        <ele>3732.60009765625</ele>
        <time>2026-01-06T21:16:39.000Z</time>
        <extensions>
          <ns3:TrackPointExtension>
            <ns3:hr>100</ns3:hr>
            <ns3:cad>48</ns3:cad>
          </ns3:TrackPointExtension>
        </extensions>
      </trkpt>
      <trkpt lat="37.93716187588870525360107421875" lon="-107.13417473249137401580810546875">
        <ele>3732.60009765625</ele>
        <time>2026-01-06T21:16:40.000Z</time>
        <extensions>
          <ns3:TrackPointExtension>
            <ns3:hr>100</ns3:hr>
            <ns3:cad>48</ns3:cad>
          </ns3:TrackPointExtension>
        </extensions>
      </trkpt>
      <trkpt lat="37.937161289155483245849609375" lon="-107.1341873891651630401611328125">
        <ele>3732.199951171875</ele>
        <time>2026-01-06T21:16:41.000Z</time>
        <extensions>
          <ns3:TrackPointExtension>
            <ns3:hr>100</ns3:hr>
            <ns3:cad>49</ns3:cad>
          </ns3:TrackPointExtension>
        </extensions>
      </trkpt>
      <trkpt lat="37.93716338463127613067626953125" lon="-107.13422787375748157501220703125">
        <ele>3731</ele>
        <time>2026-01-06T21:16:45.000Z</time>
        <extensions>
          <ns3:TrackPointExtension>
            <ns3:hr>102</ns3:hr>
            <ns3:cad>0</ns3:cad>
          </ns3:TrackPointExtension>
        </extensions>
      </trkpt>
      <trkpt lat="37.93716673739254474639892578125" lon="-107.1342339925467967987060546875">
        <ele>3730.199951171875</ele>
        <time>2026-01-06T21:16:46.000Z</time>
        <extensions>
          <ns3:TrackPointExtension>
            <ns3:hr>102</ns3:hr>
            <ns3:cad>0</ns3:cad>
          </ns3:TrackPointExtension>
        </extensions>
      </trkpt>
      <trkpt lat="37.93716975487768650054931640625" lon="-107.13424044661223888397216796875">
        <ele>3729.39990234375</ele>
        <time>2026-01-06T21:16:47.000Z</time>
        <extensions>
          <ns3:TrackPointExtension>
            <ns3:hr>102</ns3:hr>
            <ns3:cad>0</ns3:cad>
          </ns3:TrackPointExtension>
        </extensions>
      </trkpt>
      <trkpt lat="37.93716120533645153045654296875" lon="-107.1342577971518039703369140625">
        <ele>3729</ele>
        <time>2026-01-06T21:16:49.000Z</time>
        <extensions>
          <ns3:TrackPointExtension>
            <ns3:hr>101</ns3:hr>
            <ns3:cad>0</ns3:cad>
          </ns3:TrackPointExtension>
        </extensions>
      </trkpt>
      <trkpt lat="37.93714393861591815948486328125" lon="-107.13427917100489139556884765625">
        <ele>3728.800048828125</ele>
        <time>2026-01-06T21:16:52.000Z</time>
        <extensions>
          <ns3:TrackPointExtension>
            <ns3:hr>102</ns3:hr>
            <ns3:cad>51</ns3:cad>
          </ns3:TrackPointExtension>
        </extensions>
      </trkpt>
      <trkpt lat="37.93713773600757122039794921875" lon="-107.13431504555046558380126953125">
        <ele>3728.39990234375</ele>
        <time>2026-01-06T21:16:56.000Z</time>
        <extensions>
          <ns3:TrackPointExtension>
            <ns3:hr>104</ns3:hr>
            <ns3:cad>51</ns3:cad>
          </ns3:TrackPointExtension>
        </extensions>
      </trkpt>
      <trkpt lat="37.9371292702853679656982421875" lon="-107.13433214463293552398681640625">
        <ele>3727.800048828125</ele>
        <time>2026-01-06T21:16:58.000Z</time>
        <extensions>
          <ns3:TrackPointExtension>
            <ns3:hr>103</ns3:hr>
            <ns3:cad>43</ns3:cad>
          </ns3:TrackPointExtension>
        </extensions>
      </trkpt>
      <trkpt lat="37.93712365441024303436279296875" lon="-107.13434220291674137115478515625">
        <ele>3727.39990234375</ele>
        <time>2026-01-06T21:16:59.000Z</time>
        <extensions>
          <ns3:TrackPointExtension>
            <ns3:hr>102</ns3:hr>
            <ns3:cad>43</ns3:cad>
          </ns3:TrackPointExtension>
        </extensions>
      </trkpt>
      <trkpt lat="37.9371198825538158416748046875" lon="-107.134350836277008056640625">
        <ele>3727.199951171875</ele>
        <time>2026-01-06T21:17:00.000Z</time>
        <extensions>
          <ns3:TrackPointExtension>
            <ns3:hr>101</ns3:hr>
            <ns3:cad>44</ns3:cad>
          </ns3:TrackPointExtension>
        </extensions>
      </trkpt>
      <trkpt lat="37.93711007572710514068603515625" lon="-107.13436969555914402008056640625">
        <ele>3727</ele>
        <time>2026-01-06T21:17:02.000Z</time>
        <extensions>
          <ns3:TrackPointExtension>
            <ns3:hr>98</ns3:hr>
            <ns3:cad>44</ns3:cad>
          </ns3:TrackPointExtension>
        </extensions>
      </trkpt>
      <trkpt lat="37.9371011070907115936279296875" lon="-107.13440112769603729248046875">
        <ele>3726.60009765625</ele>
        <time>2026-01-06T21:17:05.000Z</time>
        <extensions>
          <ns3:TrackPointExtension>
            <ns3:hr>95</ns3:hr>
            <ns3:cad>48</ns3:cad>
          </ns3:TrackPointExtension>
        </extensions>
      </trkpt>
      <trkpt lat="37.93709850870072841644287109375" lon="-107.13442325592041015625">
        <ele>3726</ele>
        <time>2026-01-06T21:17:07.000Z</time>
        <extensions>
          <ns3:TrackPointExtension>
            <ns3:hr>94</ns3:hr>
            <ns3:cad>46</ns3:cad>
          </ns3:TrackPointExtension>
        </extensions>
      </trkpt>
      <trkpt lat="37.9370913840830326080322265625" lon="-107.1344435401260852813720703125">
        <ele>3725</ele>
        <time>2026-01-06T21:17:10.000Z</time>
        <extensions>
          <ns3:TrackPointExtension>
            <ns3:hr>94</ns3:hr>
            <ns3:cad>46</ns3:cad>
          </ns3:TrackPointExtension>
        </extensions>
      </trkpt>
      <trkpt lat="37.9370903782546520233154296875" lon="-107.13444295339286327362060546875">
        <ele>3724.60009765625</ele>
        <time>2026-01-06T21:17:13.000Z</time>
        <extensions>
          <ns3:TrackPointExtension>
            <ns3:hr>92</ns3:hr>
            <ns3:cad>0</ns3:cad>
          </ns3:TrackPointExtension>
        </extensions>
      </trkpt>
      <trkpt lat="37.9370903782546520233154296875" lon="-107.13444295339286327362060546875">
        <ele>3723.199951171875</ele>
        <time>2026-01-06T21:17:17.000Z</time>
        <extensions>
          <ns3:TrackPointExtension>
            <ns3:hr>93</ns3:hr>
            <ns3:cad>0</ns3:cad>
          </ns3:TrackPointExtension>
        </extensions>
      </trkpt>
      <trkpt lat="37.9370903782546520233154296875" lon="-107.13444295339286327362060546875">
        <ele>3724.39990234375</ele>
        <time>2026-01-06T21:17:23.000Z</time>
        <extensions>
          <ns3:TrackPointExtension>
            <ns3:hr>94</ns3:hr>
            <ns3:cad>0</ns3:cad>
          </ns3:TrackPointExtension>
        </extensions>
      </trkpt>
      <trkpt lat="37.9370903782546520233154296875" lon="-107.13444295339286327362060546875">
        <ele>3725.60009765625</ele>
        <time>2026-01-06T21:17:24.000Z</time>
        <extensions>
          <ns3:TrackPointExtension>
            <ns3:hr>94</ns3:hr>
            <ns3:cad>0</ns3:cad>
          </ns3:TrackPointExtension>
        </extensions>
      </trkpt>
      <trkpt lat="37.9370903782546520233154296875" lon="-107.13444295339286327362060546875">
        <ele>3724.39990234375</ele>
        <time>2026-01-06T21:17:29.000Z</time>
        <extensions>
          <ns3:TrackPointExtension>
            <ns3:hr>96</ns3:hr>
            <ns3:cad>0</ns3:cad>
          </ns3:TrackPointExtension>
        </extensions>
      </trkpt>
      <trkpt lat="37.9370903782546520233154296875" lon="-107.13444295339286327362060546875">
        <ele>3723</ele>
        <time>2026-01-06T21:17:30.000Z</time>
        <extensions>
          <ns3:TrackPointExtension>
            <ns3:hr>96</ns3:hr>
            <ns3:cad>0</ns3:cad>
          </ns3:TrackPointExtension>
        </extensions>
      </trkpt>
      <trkpt lat="37.9370903782546520233154296875" lon="-107.13444295339286327362060546875">
        <ele>3722.39990234375</ele>
        <time>2026-01-06T21:17:33.000Z</time>
        <extensions>
          <ns3:TrackPointExtension>
            <ns3:hr>95</ns3:hr>
            <ns3:cad>0</ns3:cad>
          </ns3:TrackPointExtension>
        </extensions>
      </trkpt>
      <trkpt lat="37.9371021129190921783447265625" lon="-107.134441696107387542724609375">
        <ele>3721.800048828125</ele>
        <time>2026-01-06T21:17:36.000Z</time>
        <extensions>
          <ns3:TrackPointExtension>
            <ns3:hr>95</ns3:hr>
            <ns3:cad>0</ns3:cad>
          </ns3:TrackPointExtension>
        </extensions>
      </trkpt>
      <trkpt lat="37.93710638768970966339111328125" lon="-107.13447757065296173095703125">
        <ele>3722.199951171875</ele>
        <time>2026-01-06T21:17:40.000Z</time>
        <extensions>
          <ns3:TrackPointExtension>
            <ns3:hr>96</ns3:hr>
            <ns3:cad>0</ns3:cad>
          </ns3:TrackPointExtension>
        </extensions>
      </trkpt>
      <trkpt lat="37.93710705824196338653564453125" lon="-107.13449626229703426361083984375">
        <ele>3723</ele>
        <time>2026-01-06T21:17:42.000Z</time>
        <extensions>
          <ns3:TrackPointExtension>
            <ns3:hr>96</ns3:hr>
            <ns3:cad>0</ns3:cad>
          </ns3:TrackPointExtension>
        </extensions>
      </trkpt>
      <trkpt lat="37.9371146857738494873046875" lon="-107.13453565724194049835205078125">
        <ele>3723.39990234375</ele>
        <time>2026-01-06T21:17:47.000Z</time>
        <extensions>
          <ns3:TrackPointExtension>
            <ns3:hr>97</ns3:hr>
            <ns3:cad>48</ns3:cad>
          </ns3:TrackPointExtension>
        </extensions>
      </trkpt>
      <trkpt lat="37.9371359758079051971435546875" lon="-107.13457304053008556365966796875">
        <ele>3723.39990234375</ele>
        <time>2026-01-06T21:17:53.000Z</time>
        <extensions>
          <ns3:TrackPointExtension>
            <ns3:hr>101</ns3:hr>
            <ns3:cad>47</ns3:cad>
          </ns3:TrackPointExtension>
        </extensions>
      </trkpt>
      <trkpt lat="37.93714427389204502105712890625" lon="-107.13459148071706295013427734375">
        <ele>3721.199951171875</ele>
        <time>2026-01-06T21:17:57.000Z</time>
        <extensions>
          <ns3:TrackPointExtension>
            <ns3:hr>103</ns3:hr>
            <ns3:cad>47</ns3:cad>
          </ns3:TrackPointExtension>
        </extensions>
      </trkpt>
      <trkpt lat="37.93714486062526702880859375" lon="-107.13459491729736328125">
        <ele>3720</ele>
        <time>2026-01-06T21:17:58.000Z</time>
        <extensions>
          <ns3:TrackPointExtension>
            <ns3:hr>103</ns3:hr>
            <ns3:cad>47</ns3:cad>
          </ns3:TrackPointExtension>
        </extensions>
      </trkpt>
      <trkpt lat="37.937144525349140167236328125" lon="-107.13459558784961700439453125">
        <ele>3718.800048828125</ele>
        <time>2026-01-06T21:17:59.000Z</time>
        <extensions>
          <ns3:TrackPointExtension>
            <ns3:hr>103</ns3:hr>
            <ns3:cad>0</ns3:cad>
          </ns3:TrackPointExtension>
        </extensions>
      </trkpt>
      <trkpt lat="37.937144525349140167236328125" lon="-107.13459558784961700439453125">
        <ele>3718.39990234375</ele>
        <time>2026-01-06T21:18:00.000Z</time>
        <extensions>
          <ns3:TrackPointExtension>
            <ns3:hr>103</ns3:hr>
            <ns3:cad>0</ns3:cad>
          </ns3:TrackPointExtension>
        </extensions>
      </trkpt>
      <trkpt lat="37.937144525349140167236328125" lon="-107.13459558784961700439453125">
        <ele>3717.800048828125</ele>
        <time>2026-01-06T21:18:06.000Z</time>
        <extensions>
          <ns3:TrackPointExtension>
            <ns3:hr>103</ns3:hr>
            <ns3:cad>0</ns3:cad>
          </ns3:TrackPointExtension>
        </extensions>
      </trkpt>
      <trkpt lat="37.937144525349140167236328125" lon="-107.13459558784961700439453125">
        <ele>3717.800048828125</ele>
        <time>2026-01-06T21:18:07.000Z</time>
        <extensions>
          <ns3:TrackPointExtension>
            <ns3:hr>103</ns3:hr>
            <ns3:cad>0</ns3:cad>
          </ns3:TrackPointExtension>
        </extensions>
      </trkpt>
      <trkpt lat="37.937144525349140167236328125" lon="-107.13459558784961700439453125">
        <ele>3717.60009765625</ele>
        <time>2026-01-06T21:18:13.000Z</time>
        <extensions>
          <ns3:TrackPointExtension>
            <ns3:hr>101</ns3:hr>
            <ns3:cad>0</ns3:cad>
          </ns3:TrackPointExtension>
        </extensions>
      </trkpt>
      <trkpt lat="37.937144525349140167236328125" lon="-107.13459558784961700439453125">
        <ele>3718.199951171875</ele>
        <time>2026-01-06T21:18:17.000Z</time>
        <extensions>
          <ns3:TrackPointExtension>
            <ns3:hr>98</ns3:hr>
            <ns3:cad>0</ns3:cad>
          </ns3:TrackPointExtension>
        </extensions>
      </trkpt>
      <trkpt lat="37.937144525349140167236328125" lon="-107.13459558784961700439453125">
        <ele>3718.199951171875</ele>
        <time>2026-01-06T21:18:18.000Z</time>
        <extensions>
          <ns3:TrackPointExtension>
            <ns3:hr>98</ns3:hr>
            <ns3:cad>0</ns3:cad>
          </ns3:TrackPointExtension>
        </extensions>
      </trkpt>
      <trkpt lat="37.937144525349140167236328125" lon="-107.13459558784961700439453125">
        <ele>3718.800048828125</ele>
        <time>2026-01-06T21:18:23.000Z</time>
        <extensions>
          <ns3:TrackPointExtension>
            <ns3:hr>99</ns3:hr>
            <ns3:cad>0</ns3:cad>
          </ns3:TrackPointExtension>
        </extensions>
      </trkpt>
      <trkpt lat="37.937144525349140167236328125" lon="-107.13459558784961700439453125">
        <ele>3719.39990234375</ele>
        <time>2026-01-06T21:18:29.000Z</time>
        <extensions>
          <ns3:TrackPointExtension>
            <ns3:hr>100</ns3:hr>
            <ns3:cad>0</ns3:cad>
          </ns3:TrackPointExtension>
        </extensions>
      </trkpt>
      <trkpt lat="37.937144525349140167236328125" lon="-107.13459558784961700439453125">
        <ele>3718.60009765625</ele>
        <time>2026-01-06T21:18:35.000Z</time>
        <extensions>
          <ns3:TrackPointExtension>
            <ns3:hr>99</ns3:hr>
            <ns3:cad>0</ns3:cad>
          </ns3:TrackPointExtension>
        </extensions>
      </trkpt>
      <trkpt lat="37.937144525349140167236328125" lon="-107.13459558784961700439453125">
        <ele>3718.39990234375</ele>
        <time>2026-01-06T21:18:41.000Z</time>
        <extensions>
          <ns3:TrackPointExtension>
            <ns3:hr>99</ns3:hr>
            <ns3:cad>0</ns3:cad>
          </ns3:TrackPointExtension>
        </extensions>
      </trkpt>
      <trkpt lat="37.937144525349140167236328125" lon="-107.13459558784961700439453125">
        <ele>3718.39990234375</ele>
        <time>2026-01-06T21:18:47.000Z</time>
        <extensions>
          <ns3:TrackPointExtension>
            <ns3:hr>96</ns3:hr>
            <ns3:cad>0</ns3:cad>
          </ns3:TrackPointExtension>
        </extensions>
      </trkpt>
      <trkpt lat="37.937144525349140167236328125" lon="-107.13459558784961700439453125">
        <ele>3719.199951171875</ele>
        <time>2026-01-06T21:18:50.000Z</time>
        <extensions>
          <ns3:TrackPointExtension>
            <ns3:hr>93</ns3:hr>
            <ns3:cad>0</ns3:cad>
          </ns3:TrackPointExtension>
        </extensions>
      </trkpt>
      <trkpt lat="37.937144525349140167236328125" lon="-107.13459558784961700439453125">
        <ele>3719.800048828125</ele>
        <time>2026-01-06T21:18:52.000Z</time>
        <extensions>
          <ns3:TrackPointExtension>
            <ns3:hr>93</ns3:hr>
            <ns3:cad>0</ns3:cad>
          </ns3:TrackPointExtension>
        </extensions>
      </trkpt>
      <trkpt lat="37.937144525349140167236328125" lon="-107.13459558784961700439453125">
        <ele>3719.800048828125</ele>
        <time>2026-01-06T21:18:53.000Z</time>
        <extensions>
          <ns3:TrackPointExtension>
            <ns3:hr>92</ns3:hr>
            <ns3:cad>0</ns3:cad>
          </ns3:TrackPointExtension>
        </extensions>
      </trkpt>
      <trkpt lat="37.937144525349140167236328125" lon="-107.13459558784961700439453125">
        <ele>3719.60009765625</ele>
        <time>2026-01-06T21:18:59.000Z</time>
        <extensions>
          <ns3:TrackPointExtension>
            <ns3:hr>92</ns3:hr>
            <ns3:cad>0</ns3:cad>
          </ns3:TrackPointExtension>
        </extensions>
      </trkpt>
      <trkpt lat="37.937144525349140167236328125" lon="-107.13459558784961700439453125">
        <ele>3719.800048828125</ele>
        <time>2026-01-06T21:19:03.000Z</time>
        <extensions>
          <ns3:TrackPointExtension>
            <ns3:hr>93</ns3:hr>
            <ns3:cad>0</ns3:cad>
          </ns3:TrackPointExtension>
        </extensions>
      </trkpt>
      <trkpt lat="37.937144525349140167236328125" lon="-107.13459558784961700439453125">
        <ele>3720.199951171875</ele>
        <time>2026-01-06T21:19:09.000Z</time>
        <extensions>
          <ns3:TrackPointExtension>
            <ns3:hr>90</ns3:hr>
            <ns3:cad>0</ns3:cad>
          </ns3:TrackPointExtension>
        </extensions>
      </trkpt>
      <trkpt lat="37.937144525349140167236328125" lon="-107.13459558784961700439453125">
        <ele>3720.60009765625</ele>
        <time>2026-01-06T21:19:11.000Z</time>
        <extensions>
          <ns3:TrackPointExtension>
            <ns3:hr>90</ns3:hr>
            <ns3:cad>0</ns3:cad>
          </ns3:TrackPointExtension>
        </extensions>
      </trkpt>
      <trkpt lat="37.937144525349140167236328125" lon="-107.13459558784961700439453125">
        <ele>3720.39990234375</ele>
        <time>2026-01-06T21:19:17.000Z</time>
        <extensions>
          <ns3:TrackPointExtension>
            <ns3:hr>89</ns3:hr>
            <ns3:cad>0</ns3:cad>
          </ns3:TrackPointExtension>
        </extensions>
      </trkpt>
      <trkpt lat="37.937144525349140167236328125" lon="-107.13459558784961700439453125">
        <ele>3720.199951171875</ele>
        <time>2026-01-06T21:19:19.000Z</time>
        <extensions>
          <ns3:TrackPointExtension>
            <ns3:hr>92</ns3:hr>
            <ns3:cad>0</ns3:cad>
          </ns3:TrackPointExtension>
        </extensions>
      </trkpt>
      <trkpt lat="37.937144525349140167236328125" lon="-107.13459558784961700439453125">
        <ele>3719.800048828125</ele>
        <time>2026-01-06T21:19:25.000Z</time>
        <extensions>
          <ns3:TrackPointExtension>
            <ns3:hr>91</ns3:hr>
            <ns3:cad>0</ns3:cad>
          </ns3:TrackPointExtension>
        </extensions>
      </trkpt>
      <trkpt lat="37.93713924475014209747314453125" lon="-107.13457890786230564117431640625">
        <ele>3719.39990234375</ele>
        <time>2026-01-06T21:19:28.000Z</time>
        <extensions>
          <ns3:TrackPointExtension>
            <ns3:hr>89</ns3:hr>
            <ns3:cad>0</ns3:cad>
          </ns3:TrackPointExtension>
        </extensions>
      </trkpt>
      <trkpt lat="37.9371289350092411041259765625" lon="-107.134550996124744415283203125">
        <ele>3720.60009765625</ele>
        <time>2026-01-06T21:19:34.000Z</time>
        <extensions>
          <ns3:TrackPointExtension>
            <ns3:hr>89</ns3:hr>
            <ns3:cad>0</ns3:cad>
          </ns3:TrackPointExtension>
        </extensions>
      </trkpt>
      <trkpt lat="37.9371245764195919036865234375" lon="-107.1345437876880168914794921875">
        <ele>3720.800048828125</ele>
        <time>2026-01-06T21:19:35.000Z</time>
        <extensions>
          <ns3:TrackPointExtension>
            <ns3:hr>89</ns3:hr>
            <ns3:cad>0</ns3:cad>
          </ns3:TrackPointExtension>
        </extensions>
      </trkpt>
      <trkpt lat="37.93710974045097827911376953125" lon="-107.134502716362476348876953125">
        <ele>3722</ele>
        <time>2026-01-06T21:19:39.000Z</time>
        <extensions>
          <ns3:TrackPointExtension>
            <ns3:hr>90</ns3:hr>
            <ns3:cad>0</ns3:cad>
          </ns3:TrackPointExtension>
        </extensions>
      </trkpt>
      <trkpt lat="37.937104962766170501708984375" lon="-107.13448352180421352386474609375">
        <ele>3722.39990234375</ele>
        <time>2026-01-06T21:19:41.000Z</time>
        <extensions>
          <ns3:TrackPointExtension>
            <ns3:hr>91</ns3:hr>
            <ns3:cad>47</ns3:cad>
          </ns3:TrackPointExtension>
        </extensions>
      </trkpt>
      <trkpt lat="37.9371074773371219635009765625" lon="-107.134445719420909881591796875">
        <ele>3723.199951171875</ele>
        <time>2026-01-06T21:19:46.000Z</time>
        <extensions>
          <ns3:TrackPointExtension>
            <ns3:hr>93</ns3:hr>
            <ns3:cad>47</ns3:cad>
          </ns3:TrackPointExtension>
        </extensions>
      </trkpt>
      <trkpt lat="37.93710571713745594024658203125" lon="-107.13442602194845676422119140625">
        <ele>3723.60009765625</ele>
        <time>2026-01-06T21:19:48.000Z</time>
        <extensions>
          <ns3:TrackPointExtension>
            <ns3:hr>94</ns3:hr>
            <ns3:cad>0</ns3:cad>
          </ns3:TrackPointExtension>
        </extensions>
      </trkpt>
      <trkpt lat="37.93710689060389995574951171875" lon="-107.1343872137367725372314453125">
        <ele>3724</ele>
        <time>2026-01-06T21:19:53.000Z</time>
        <extensions>
          <ns3:TrackPointExtension>
            <ns3:hr>97</ns3:hr>
            <ns3:cad>0</ns3:cad>
          </ns3:TrackPointExtension>
        </extensions>
      </trkpt>
      <trkpt lat="37.93710873462259769439697265625" lon="-107.134377658367156982421875">
        <ele>3724.199951171875</ele>
        <time>2026-01-06T21:19:55.000Z</time>
        <extensions>
          <ns3:TrackPointExtension>
            <ns3:hr>98</ns3:hr>
            <ns3:cad>0</ns3:cad>
          </ns3:TrackPointExtension>
        </extensions>
      </trkpt>
      <trkpt lat="37.9371120035648345947265625" lon="-107.1343717910349369049072265625">
        <ele>3724.39990234375</ele>
        <time>2026-01-06T21:19:56.000Z</time>
        <extensions>
          <ns3:TrackPointExtension>
            <ns3:hr>101</ns3:hr>
            <ns3:cad>0</ns3:cad>
          </ns3:TrackPointExtension>
        </extensions>
      </trkpt>
      <trkpt lat="37.93711812235414981842041015625" lon="-107.13436131365597248077392578125">
        <ele>3724.60009765625</ele>
        <time>2026-01-06T21:19:58.000Z</time>
        <extensions>
          <ns3:TrackPointExtension>
            <ns3:hr>104</ns3:hr>
            <ns3:cad>0</ns3:cad>
          </ns3:TrackPointExtension>
        </extensions>
      </trkpt>
      <trkpt lat="37.937133125960826873779296875" lon="-107.13432325981557369232177734375">
        <ele>3725.199951171875</ele>
        <time>2026-01-06T21:20:02.000Z</time>
        <extensions>
          <ns3:TrackPointExtension>
            <ns3:hr>106</ns3:hr>
            <ns3:cad>0</ns3:cad>
          </ns3:TrackPointExtension>
        </extensions>
      </trkpt>
      <trkpt lat="37.93713413178920745849609375" lon="-107.1343178115785121917724609375">
        <ele>3725.39990234375</ele>
        <time>2026-01-06T21:20:03.000Z</time>
        <extensions>
          <ns3:TrackPointExtension>
            <ns3:hr>105</ns3:hr>
            <ns3:cad>0</ns3:cad>
          </ns3:TrackPointExtension>
        </extensions>
      </trkpt>
      <trkpt lat="37.9371460340917110443115234375" lon="-107.13429861702024936676025390625">
        <ele>3725.800048828125</ele>
        <time>2026-01-06T21:20:07.000Z</time>
        <extensions>
          <ns3:TrackPointExtension>
            <ns3:hr>106</ns3:hr>
            <ns3:cad>70</ns3:cad>
          </ns3:TrackPointExtension>
        </extensions>
      </trkpt>
      <trkpt lat="37.9371530748903751373291015625" lon="-107.13427665643393993377685546875">
        <ele>3726.60009765625</ele>
        <time>2026-01-06T21:20:11.000Z</time>
        <extensions>
          <ns3:TrackPointExtension>
            <ns3:hr>108</ns3:hr>
            <ns3:cad>0</ns3:cad>
          </ns3:TrackPointExtension>
        </extensions>
      </trkpt>
      <trkpt lat="37.93715416453778743743896484375" lon="-107.13427682407200336456298828125">
        <ele>3727</ele>
        <time>2026-01-06T21:20:12.000Z</time>
        <extensions>
          <ns3:TrackPointExtension>
            <ns3:hr>109</ns3:hr>
            <ns3:cad>0</ns3:cad>
          </ns3:TrackPointExtension>
        </extensions>
      </trkpt>
      <trkpt lat="37.9371534101665019989013671875" lon="-107.1342755667865276336669921875">
        <ele>3727.60009765625</ele>
        <time>2026-01-06T21:20:14.000Z</time>
        <extensions>
          <ns3:TrackPointExtension>
            <ns3:hr>110</ns3:hr>
            <ns3:cad>0</ns3:cad>
          </ns3:TrackPointExtension>
        </extensions>
      </trkpt>
      <trkpt lat="37.9371534101665019989013671875" lon="-107.1342755667865276336669921875">
        <ele>3726.60009765625</ele>
        <time>2026-01-06T21:20:20.000Z</time>
        <extensions>
          <ns3:TrackPointExtension>
            <ns3:hr>111</ns3:hr>
            <ns3:cad>0</ns3:cad>
          </ns3:TrackPointExtension>
        </extensions>
      </trkpt>
      <trkpt lat="37.9371534101665019989013671875" lon="-107.1342755667865276336669921875">
        <ele>3726.800048828125</ele>
        <time>2026-01-06T21:20:24.000Z</time>
        <extensions>
          <ns3:TrackPointExtension>
            <ns3:hr>111</ns3:hr>
            <ns3:cad>0</ns3:cad>
          </ns3:TrackPointExtension>
        </extensions>
      </trkpt>
      <trkpt lat="37.9371534101665019989013671875" lon="-107.1342755667865276336669921875">
        <ele>3726.199951171875</ele>
        <time>2026-01-06T21:20:30.000Z</time>
        <extensions>
          <ns3:TrackPointExtension>
            <ns3:hr>109</ns3:hr>
            <ns3:cad>0</ns3:cad>
          </ns3:TrackPointExtension>
        </extensions>
      </trkpt>
      <trkpt lat="37.9371534101665019989013671875" lon="-107.1342755667865276336669921875">
        <ele>3726.60009765625</ele>
        <time>2026-01-06T21:20:34.000Z</time>
        <extensions>
          <ns3:TrackPointExtension>
            <ns3:hr>105</ns3:hr>
            <ns3:cad>0</ns3:cad>
          </ns3:TrackPointExtension>
        </extensions>
      </trkpt>
      <trkpt lat="37.9371534101665019989013671875" lon="-107.1342755667865276336669921875">
        <ele>3725.800048828125</ele>
        <time>2026-01-06T21:20:39.000Z</time>
        <extensions>
          <ns3:TrackPointExtension>
            <ns3:hr>103</ns3:hr>
            <ns3:cad>0</ns3:cad>
          </ns3:TrackPointExtension>
        </extensions>
      </trkpt>
      <trkpt lat="37.9371534101665019989013671875" lon="-107.1342755667865276336669921875">
        <ele>3726.199951171875</ele>
        <time>2026-01-06T21:20:45.000Z</time>
        <extensions>
          <ns3:TrackPointExtension>
            <ns3:hr>102</ns3:hr>
            <ns3:cad>0</ns3:cad>
          </ns3:TrackPointExtension>
        </extensions>
      </trkpt>
      <trkpt lat="37.9371534101665019989013671875" lon="-107.1342755667865276336669921875">
        <ele>3726.199951171875</ele>
        <time>2026-01-06T21:20:50.000Z</time>
        <extensions>
          <ns3:TrackPointExtension>
            <ns3:hr>101</ns3:hr>
            <ns3:cad>0</ns3:cad>
          </ns3:TrackPointExtension>
        </extensions>
      </trkpt>
      <trkpt lat="37.9371534101665019989013671875" lon="-107.1342755667865276336669921875">
        <ele>3726.39990234375</ele>
        <time>2026-01-06T21:20:56.000Z</time>
        <extensions>
          <ns3:TrackPointExtension>
            <ns3:hr>100</ns3:hr>
            <ns3:cad>0</ns3:cad>
          </ns3:TrackPointExtension>
        </extensions>
      </trkpt>
      <trkpt lat="37.9371534101665019989013671875" lon="-107.1342755667865276336669921875">
        <ele>3725.60009765625</ele>
        <time>2026-01-06T21:21:02.000Z</time>
        <extensions>
          <ns3:TrackPointExtension>
            <ns3:hr>99</ns3:hr>
            <ns3:cad>0</ns3:cad>
          </ns3:TrackPointExtension>
        </extensions>
      </trkpt>
      <trkpt lat="37.93715818785130977630615234375" lon="-107.134289480745792388916015625">
        <ele>3726.199951171875</ele>
        <time>2026-01-06T21:21:08.000Z</time>
        <extensions>
          <ns3:TrackPointExtension>
            <ns3:hr>99</ns3:hr>
            <ns3:cad>0</ns3:cad>
          </ns3:TrackPointExtension>
        </extensions>
      </trkpt>
      <trkpt lat="37.93715567328035831451416015625" lon="-107.13429710827767848968505859375">
        <ele>3726.60009765625</ele>
        <time>2026-01-06T21:21:09.000Z</time>
        <extensions>
          <ns3:TrackPointExtension>
            <ns3:hr>99</ns3:hr>
            <ns3:cad>0</ns3:cad>
          </ns3:TrackPointExtension>
        </extensions>
      </trkpt>
      <trkpt lat="37.93714427389204502105712890625" lon="-107.134316302835941314697265625">
        <ele>3728</ele>
        <time>2026-01-06T21:21:11.000Z</time>
        <extensions>
          <ns3:TrackPointExtension>
            <ns3:hr>100</ns3:hr>
            <ns3:cad>0</ns3:cad>
          </ns3:TrackPointExtension>
        </extensions>
      </trkpt>
      <trkpt lat="37.93713136576116085052490234375" lon="-107.13435326702892780303955078125">
        <ele>3728.199951171875</ele>
        <time>2026-01-06T21:21:15.000Z</time>
        <extensions>
          <ns3:TrackPointExtension>
            <ns3:hr>97</ns3:hr>
            <ns3:cad>0</ns3:cad>
          </ns3:TrackPointExtension>
        </extensions>
      </trkpt>
      <trkpt lat="37.93713035993278026580810546875" lon="-107.13437573052942752838134765625">
        <ele>3727</ele>
        <time>2026-01-06T21:21:17.000Z</time>
        <extensions>
          <ns3:TrackPointExtension>
            <ns3:hr>96</ns3:hr>
            <ns3:cad>0</ns3:cad>
          </ns3:TrackPointExtension>
        </extensions>
      </trkpt>
      <trkpt lat="37.93713413178920745849609375" lon="-107.1343955956399440765380859375">
        <ele>3726.199951171875</ele>
        <time>2026-01-06T21:21:19.000Z</time>
        <extensions>
          <ns3:TrackPointExtension>
            <ns3:hr>96</ns3:hr>
            <ns3:cad>0</ns3:cad>
          </ns3:TrackPointExtension>
        </extensions>
      </trkpt>
      <trkpt lat="37.9371361434459686279296875" lon="-107.13440137915313243865966796875">
        <ele>3725.60009765625</ele>
        <time>2026-01-06T21:21:20.000Z</time>
        <extensions>
          <ns3:TrackPointExtension>
            <ns3:hr>96</ns3:hr>
            <ns3:cad>0</ns3:cad>
          </ns3:TrackPointExtension>
        </extensions>
      </trkpt>
      <trkpt lat="37.9371336288750171661376953125" lon="-107.13442183099687099456787109375">
        <ele>3724.39990234375</ele>
        <time>2026-01-06T21:21:22.000Z</time>
        <extensions>
          <ns3:TrackPointExtension>
            <ns3:hr>95</ns3:hr>
            <ns3:cad>50</ns3:cad>
          </ns3:TrackPointExtension>
        </extensions>
      </trkpt>
      <trkpt lat="37.93713203631341457366943359375" lon="-107.13445049710571765899658203125">
        <ele>3723.39990234375</ele>
        <time>2026-01-06T21:21:25.000Z</time>
        <extensions>
          <ns3:TrackPointExtension>
            <ns3:hr>95</ns3:hr>
            <ns3:cad>49</ns3:cad>
          </ns3:TrackPointExtension>
        </extensions>
      </trkpt>
      <trkpt lat="37.93713119812309741973876953125" lon="-107.1344643272459506988525390625">
        <ele>3723.199951171875</ele>
        <time>2026-01-06T21:21:26.000Z</time>
        <extensions>
          <ns3:TrackPointExtension>
            <ns3:hr>95</ns3:hr>
            <ns3:cad>49</ns3:cad>
          </ns3:TrackPointExtension>
        </extensions>
      </trkpt>
      <trkpt lat="37.9371396638453006744384765625" lon="-107.1345203183591365814208984375">
        <ele>3722.199951171875</ele>
        <time>2026-01-06T21:21:31.000Z</time>
        <extensions>
          <ns3:TrackPointExtension>
            <ns3:hr>94</ns3:hr>
            <ns3:cad>0</ns3:cad>
          </ns3:TrackPointExtension>
        </extensions>
      </trkpt>
      <trkpt lat="37.9371393285691738128662109375" lon="-107.13452526368200778961181640625">
        <ele>3721.800048828125</ele>
        <time>2026-01-06T21:21:32.000Z</time>
        <extensions>
          <ns3:TrackPointExtension>
            <ns3:hr>95</ns3:hr>
            <ns3:cad>0</ns3:cad>
          </ns3:TrackPointExtension>
        </extensions>
      </trkpt>
      <trkpt lat="37.937133125960826873779296875" lon="-107.13455812074244022369384765625">
        <ele>3721.39990234375</ele>
        <time>2026-01-06T21:21:36.000Z</time>
        <extensions>
          <ns3:TrackPointExtension>
            <ns3:hr>99</ns3:hr>
            <ns3:cad>0</ns3:cad>
          </ns3:TrackPointExtension>
        </extensions>
      </trkpt>
      <trkpt lat="37.93713371269404888153076171875" lon="-107.134567089378833770751953125">
        <ele>3721.199951171875</ele>
        <time>2026-01-06T21:21:37.000Z</time>
        <extensions>
          <ns3:TrackPointExtension>
            <ns3:hr>107</ns3:hr>
            <ns3:cad>0</ns3:cad>
          </ns3:TrackPointExtension>
        </extensions>
      </trkpt>
      <trkpt lat="37.93713404797017574310302734375" lon="-107.134574465453624725341796875">
        <ele>3721.199951171875</ele>
        <time>2026-01-06T21:21:38.000Z</time>
        <extensions>
          <ns3:TrackPointExtension>
            <ns3:hr>118</ns3:hr>
            <ns3:cad>0</ns3:cad>
          </ns3:TrackPointExtension>
        </extensions>
      </trkpt>
      <trkpt lat="37.93713639490306377410888671875" lon="-107.134584523737430572509765625">
        <ele>3720.60009765625</ele>
        <time>2026-01-06T21:21:39.000Z</time>
        <extensions>
          <ns3:TrackPointExtension>
            <ns3:hr>128</ns3:hr>
            <ns3:cad>0</ns3:cad>
          </ns3:TrackPointExtension>
        </extensions>
      </trkpt>
      <trkpt lat="37.937137819826602935791015625" lon="-107.13458762504160404205322265625">
        <ele>3720.39990234375</ele>
        <time>2026-01-06T21:21:40.000Z</time>
        <extensions>
          <ns3:TrackPointExtension>
            <ns3:hr>131</ns3:hr>
            <ns3:cad>0</ns3:cad>
          </ns3:TrackPointExtension>
        </extensions>
      </trkpt>
      <trkpt lat="37.9371379874646663665771484375" lon="-107.13459449820220470428466796875">
        <ele>3720</ele>
        <time>2026-01-06T21:21:41.000Z</time>
        <extensions>
          <ns3:TrackPointExtension>
            <ns3:hr>135</ns3:hr>
            <ns3:cad>0</ns3:cad>
          </ns3:TrackPointExtension>
        </extensions>
      </trkpt>
      <trkpt lat="37.93713388033211231231689453125" lon="-107.1346061490476131439208984375">
        <ele>3720</ele>
        <time>2026-01-06T21:21:42.000Z</time>
        <extensions>
          <ns3:TrackPointExtension>
            <ns3:hr>135</ns3:hr>
            <ns3:cad>0</ns3:cad>
          </ns3:TrackPointExtension>
        </extensions>
      </trkpt>
      <trkpt lat="37.93713304214179515838623046875" lon="-107.13463179767131805419921875">
        <ele>3719.60009765625</ele>
        <time>2026-01-06T21:21:45.000Z</time>
        <extensions>
          <ns3:TrackPointExtension>
            <ns3:hr>135</ns3:hr>
            <ns3:cad>0</ns3:cad>
          </ns3:TrackPointExtension>
        </extensions>
      </trkpt>
      <trkpt lat="37.93713907711207866668701171875" lon="-107.134648226201534271240234375">
        <ele>3718.800048828125</ele>
        <time>2026-01-06T21:21:48.000Z</time>
        <extensions>
          <ns3:TrackPointExtension>
            <ns3:hr>135</ns3:hr>
            <ns3:cad>0</ns3:cad>
          </ns3:TrackPointExtension>
        </extensions>
      </trkpt>
      <trkpt lat="37.93715483509004116058349609375" lon="-107.13467211462557315826416015625">
        <ele>3717.800048828125</ele>
        <time>2026-01-06T21:21:53.000Z</time>
        <extensions>
          <ns3:TrackPointExtension>
            <ns3:hr>134</ns3:hr>
            <ns3:cad>41</ns3:cad>
          </ns3:TrackPointExtension>
        </extensions>
      </trkpt>
      <trkpt lat="37.93716707266867160797119140625" lon="-107.13468686677515506744384765625">
        <ele>3716.60009765625</ele>
        <time>2026-01-06T21:21:56.000Z</time>
        <extensions>
          <ns3:TrackPointExtension>
            <ns3:hr>133</ns3:hr>
            <ns3:cad>0</ns3:cad>
          </ns3:TrackPointExtension>
        </extensions>
      </trkpt>
      <trkpt lat="37.93716891668736934661865234375" lon="-107.1346963383257389068603515625">
        <ele>3716.39990234375</ele>
        <time>2026-01-06T21:21:59.000Z</time>
        <extensions>
          <ns3:TrackPointExtension>
            <ns3:hr>133</ns3:hr>
            <ns3:cad>0</ns3:cad>
          </ns3:TrackPointExtension>
        </extensions>
      </trkpt>
      <trkpt lat="37.93719582259654998779296875" lon="-107.1347089111804962158203125">
        <ele>3715.39990234375</ele>
        <time>2026-01-06T21:22:03.000Z</time>
        <extensions>
          <ns3:TrackPointExtension>
            <ns3:hr>134</ns3:hr>
            <ns3:cad>45</ns3:cad>
          </ns3:TrackPointExtension>
        </extensions>
      </trkpt>
      <trkpt lat="37.937199510633945465087890625" lon="-107.13471226394176483154296875">
        <ele>3715</ele>
        <time>2026-01-06T21:22:04.000Z</time>
        <extensions>
          <ns3:TrackPointExtension>
            <ns3:hr>134</ns3:hr>
            <ns3:cad>45</ns3:cad>
          </ns3:TrackPointExtension>
        </extensions>
      </trkpt>
      <trkpt lat="37.93720965273678302764892578125" lon="-107.134727351367473602294921875">
        <ele>3714.199951171875</ele>
        <time>2026-01-06T21:22:06.000Z</time>
        <extensions>
          <ns3:TrackPointExtension>
            <ns3:hr>134</ns3:hr>
            <ns3:cad>42</ns3:cad>
          </ns3:TrackPointExtension>
        </extensions>
      </trkpt>
      <trkpt lat="37.93723295442759990692138671875" lon="-107.13475677184760570526123046875">
        <ele>3714.199951171875</ele>
        <time>2026-01-06T21:22:10.000Z</time>
        <extensions>
          <ns3:TrackPointExtension>
            <ns3:hr>133</ns3:hr>
            <ns3:cad>41</ns3:cad>
          </ns3:TrackPointExtension>
        </extensions>
      </trkpt>
      <trkpt lat="37.93722960166633129119873046875" lon="-107.13477873243391513824462890625">
        <ele>3714.39990234375</ele>
        <time>2026-01-06T21:22:13.000Z</time>
        <extensions>
          <ns3:TrackPointExtension>
            <ns3:hr>133</ns3:hr>
            <ns3:cad>41</ns3:cad>
          </ns3:TrackPointExtension>
        </extensions>
      </trkpt>
      <trkpt lat="37.93722926639020442962646484375" lon="-107.13478862307965755462646484375">
        <ele>3714</ele>
        <time>2026-01-06T21:22:15.000Z</time>
        <extensions>
          <ns3:TrackPointExtension>
            <ns3:hr>133</ns3:hr>
            <ns3:cad>0</ns3:cad>
          </ns3:TrackPointExtension>
        </extensions>
      </trkpt>
      <trkpt lat="37.937229685485363006591796875" lon="-107.13482315652072429656982421875">
        <ele>3713</ele>
        <time>2026-01-06T21:22:20.000Z</time>
        <extensions>
          <ns3:TrackPointExtension>
            <ns3:hr>129</ns3:hr>
            <ns3:cad>41</ns3:cad>
          </ns3:TrackPointExtension>
        </extensions>
      </trkpt>
      <trkpt lat="37.937232367694377899169921875" lon="-107.13482835330069065093994140625">
        <ele>3712.800048828125</ele>
        <time>2026-01-06T21:22:21.000Z</time>
        <extensions>
          <ns3:TrackPointExtension>
            <ns3:hr>126</ns3:hr>
            <ns3:cad>41</ns3:cad>
          </ns3:TrackPointExtension>
        </extensions>
      </trkpt>
      <trkpt lat="37.9372338764369487762451171875" lon="-107.1348338015377521514892578125">
        <ele>3712.60009765625</ele>
        <time>2026-01-06T21:22:22.000Z</time>
        <extensions>
          <ns3:TrackPointExtension>
            <ns3:hr>123</ns3:hr>
            <ns3:cad>70</ns3:cad>
          </ns3:TrackPointExtension>
        </extensions>
      </trkpt>
      <trkpt lat="37.937231697142124176025390625" lon="-107.13485349901020526885986328125">
        <ele>3711.800048828125</ele>
        <time>2026-01-06T21:22:25.000Z</time>
        <extensions>
          <ns3:TrackPointExtension>
            <ns3:hr>122</ns3:hr>
            <ns3:cad>0</ns3:cad>
          </ns3:TrackPointExtension>
        </extensions>
      </trkpt>
      <trkpt lat="37.93722759000957012176513671875" lon="-107.1348703466355800628662109375">
        <ele>3711.60009765625</ele>
        <time>2026-01-06T21:22:27.000Z</time>
        <extensions>
          <ns3:TrackPointExtension>
            <ns3:hr>121</ns3:hr>
            <ns3:cad>0</ns3:cad>
          </ns3:TrackPointExtension>
        </extensions>
      </trkpt>
      <trkpt lat="37.93721619062125682830810546875" lon="-107.13489993475377559661865234375">
        <ele>3710.800048828125</ele>
        <time>2026-01-06T21:22:32.000Z</time>
        <extensions>
          <ns3:TrackPointExtension>
            <ns3:hr>122</ns3:hr>
            <ns3:cad>0</ns3:cad>
          </ns3:TrackPointExtension>
        </extensions>
      </trkpt>
      <trkpt lat="37.9372261650860309600830078125" lon="-107.13494385592639446258544921875">
        <ele>3709.60009765625</ele>
        <time>2026-01-06T21:22:37.000Z</time>
        <extensions>
          <ns3:TrackPointExtension>
            <ns3:hr>122</ns3:hr>
            <ns3:cad>42</ns3:cad>
          </ns3:TrackPointExtension>
        </extensions>
      </trkpt>
      <trkpt lat="37.93722490780055522918701171875" lon="-107.13495366275310516357421875">
        <ele>3709.39990234375</ele>
        <time>2026-01-06T21:22:38.000Z</time>
        <extensions>
          <ns3:TrackPointExtension>
            <ns3:hr>122</ns3:hr>
            <ns3:cad>43</ns3:cad>
          </ns3:TrackPointExtension>
        </extensions>
      </trkpt>
      <trkpt lat="37.9372358880937099456787109375" lon="-107.13501133024692535400390625">
        <ele>3708.39990234375</ele>
        <time>2026-01-06T21:22:43.000Z</time>
        <extensions>
          <ns3:TrackPointExtension>
            <ns3:hr>122</ns3:hr>
            <ns3:cad>46</ns3:cad>
          </ns3:TrackPointExtension>
        </extensions>
      </trkpt>
      <trkpt lat="37.93724401853978633880615234375" lon="-107.135037146508693695068359375">
        <ele>3707.60009765625</ele>
        <time>2026-01-06T21:22:46.000Z</time>
        <extensions>
          <ns3:TrackPointExtension>
            <ns3:hr>123</ns3:hr>
            <ns3:cad>44</ns3:cad>
          </ns3:TrackPointExtension>
        </extensions>
      </trkpt>
      <trkpt lat="37.93724770657718181610107421875" lon="-107.1350436843931674957275390625">
        <ele>3707.39990234375</ele>
        <time>2026-01-06T21:22:47.000Z</time>
        <extensions>
          <ns3:TrackPointExtension>
            <ns3:hr>123</ns3:hr>
            <ns3:cad>44</ns3:cad>
          </ns3:TrackPointExtension>
        </extensions>
      </trkpt>
      <trkpt lat="37.9372660629451274871826171875" lon="-107.13509204797446727752685546875">
        <ele>3706.800048828125</ele>
        <time>2026-01-06T21:22:53.000Z</time>
        <extensions>
          <ns3:TrackPointExtension>
            <ns3:hr>123</ns3:hr>
            <ns3:cad>48</ns3:cad>
          </ns3:TrackPointExtension>
        </extensions>
      </trkpt>
      <trkpt lat="37.93727436102926731109619140625" lon="-107.13510495610535144805908203125">
        <ele>3706.199951171875</ele>
        <time>2026-01-06T21:22:55.000Z</time>
        <extensions>
          <ns3:TrackPointExtension>
            <ns3:hr>124</ns3:hr>
            <ns3:cad>46</ns3:cad>
          </ns3:TrackPointExtension>
        </extensions>
      </trkpt>
      <trkpt lat="37.93728475458920001983642578125" lon="-107.13511970825493335723876953125">
        <ele>3705.60009765625</ele>
        <time>2026-01-06T21:22:57.000Z</time>
        <extensions>
          <ns3:TrackPointExtension>
            <ns3:hr>127</ns3:hr>
            <ns3:cad>46</ns3:cad>
          </ns3:TrackPointExtension>
        </extensions>
      </trkpt>
      <trkpt lat="37.93728793971240520477294921875" lon="-107.13512540794909000396728515625">
        <ele>3705.199951171875</ele>
        <time>2026-01-06T21:22:58.000Z</time>
        <extensions>
          <ns3:TrackPointExtension>
            <ns3:hr>128</ns3:hr>
            <ns3:cad>46</ns3:cad>
          </ns3:TrackPointExtension>
        </extensions>
      </trkpt>
      <trkpt lat="37.93730235658586025238037109375" lon="-107.13514720089733600616455078125">
        <ele>3704</ele>
        <time>2026-01-06T21:23:01.000Z</time>
        <extensions>
          <ns3:TrackPointExtension>
            <ns3:hr>129</ns3:hr>
            <ns3:cad>46</ns3:cad>
          </ns3:TrackPointExtension>
        </extensions>
      </trkpt>
      <trkpt lat="37.937306463718414306640625" lon="-107.13515482842922210693359375">
        <ele>3703.60009765625</ele>
        <time>2026-01-06T21:23:02.000Z</time>
        <extensions>
          <ns3:TrackPointExtension>
            <ns3:hr>128</ns3:hr>
            <ns3:cad>0</ns3:cad>
          </ns3:TrackPointExtension>
        </extensions>
      </trkpt>
      <trkpt lat="37.93731115758419036865234375" lon="-107.135172598063945770263671875">
        <ele>3702.800048828125</ele>
        <time>2026-01-06T21:23:04.000Z</time>
        <extensions>
          <ns3:TrackPointExtension>
            <ns3:hr>129</ns3:hr>
            <ns3:cad>0</ns3:cad>
          </ns3:TrackPointExtension>
        </extensions>
      </trkpt>
      <trkpt lat="37.93731912039220333099365234375" lon="-107.13521760888397693634033203125">
        <ele>3703</ele>
        <time>2026-01-06T21:23:08.000Z</time>
        <extensions>
          <ns3:TrackPointExtension>
            <ns3:hr>128</ns3:hr>
            <ns3:cad>73</ns3:cad>
          </ns3:TrackPointExtension>
        </extensions>
      </trkpt>
      <trkpt lat="37.93731987476348876953125" lon="-107.13527594693005084991455078125">
        <ele>3702.199951171875</ele>
        <time>2026-01-06T21:23:14.000Z</time>
        <extensions>
          <ns3:TrackPointExtension>
            <ns3:hr>127</ns3:hr>
            <ns3:cad>40</ns3:cad>
          </ns3:TrackPointExtension>
        </extensions>
      </trkpt>
      <trkpt lat="37.9373237304389476776123046875" lon="-107.13528516702353954315185546875">
        <ele>3701.800048828125</ele>
        <time>2026-01-06T21:23:15.000Z</time>
        <extensions>
          <ns3:TrackPointExtension>
            <ns3:hr>127</ns3:hr>
            <ns3:cad>40</ns3:cad>
          </ns3:TrackPointExtension>
        </extensions>
      </trkpt>
      <trkpt lat="37.9373341239988803863525390625" lon="-107.1352921240031719207763671875">
        <ele>3701</ele>
        <time>2026-01-06T21:23:17.000Z</time>
        <extensions>
          <ns3:TrackPointExtension>
            <ns3:hr>127</ns3:hr>
            <ns3:cad>0</ns3:cad>
          </ns3:TrackPointExtension>
        </extensions>
      </trkpt>
      <trkpt lat="37.93733538128435611724853515625" lon="-107.13529430329799652099609375">
        <ele>3700.800048828125</ele>
        <time>2026-01-06T21:23:19.000Z</time>
        <extensions>
          <ns3:TrackPointExtension>
            <ns3:hr>127</ns3:hr>
            <ns3:cad>46</ns3:cad>
          </ns3:TrackPointExtension>
        </extensions>
      </trkpt>
      <trkpt lat="37.93732951395213603973388671875" lon="-107.13529706932604312896728515625">
        <ele>3700.800048828125</ele>
        <time>2026-01-06T21:23:20.000Z</time>
        <extensions>
          <ns3:TrackPointExtension>
            <ns3:hr>126</ns3:hr>
            <ns3:cad>68</ns3:cad>
          </ns3:TrackPointExtension>
        </extensions>
      </trkpt>
      <trkpt lat="37.93732565827667713165283203125" lon="-107.13533093221485614776611328125">
        <ele>3700.60009765625</ele>
        <time>2026-01-06T21:23:26.000Z</time>
        <extensions>
          <ns3:TrackPointExtension>
            <ns3:hr>125</ns3:hr>
            <ns3:cad>0</ns3:cad>
          </ns3:TrackPointExtension>
        </extensions>
      </trkpt>
      <trkpt lat="37.9373267479240894317626953125" lon="-107.13534350506961345672607421875">
        <ele>3700.39990234375</ele>
        <time>2026-01-06T21:23:27.000Z</time>
        <extensions>
          <ns3:TrackPointExtension>
            <ns3:hr>125</ns3:hr>
            <ns3:cad>0</ns3:cad>
          </ns3:TrackPointExtension>
        </extensions>
      </trkpt>
      <trkpt lat="37.93732347898185253143310546875" lon="-107.13539614342153072357177734375">
        <ele>3699.60009765625</ele>
        <time>2026-01-06T21:23:32.000Z</time>
        <extensions>
          <ns3:TrackPointExtension>
            <ns3:hr>124</ns3:hr>
            <ns3:cad>0</ns3:cad>
          </ns3:TrackPointExtension>
        </extensions>
      </trkpt>
      <trkpt lat="37.93732314370572566986083984375" lon="-107.13541567325592041015625">
        <ele>3699.39990234375</ele>
        <time>2026-01-06T21:23:34.000Z</time>
        <extensions>
          <ns3:TrackPointExtension>
            <ns3:hr>124</ns3:hr>
            <ns3:cad>0</ns3:cad>
          </ns3:TrackPointExtension>
        </extensions>
      </trkpt>
      <trkpt lat="37.93732993304729461669921875" lon="-107.13543855585157871246337890625">
        <ele>3698.60009765625</ele>
        <time>2026-01-06T21:23:38.000Z</time>
        <extensions>
          <ns3:TrackPointExtension>
            <ns3:hr>124</ns3:hr>
            <ns3:cad>45</ns3:cad>
          </ns3:TrackPointExtension>
        </extensions>
      </trkpt>
      <trkpt lat="37.937334291636943817138671875" lon="-107.1354594267904758453369140625">
        <ele>3698</ele>
        <time>2026-01-06T21:23:41.000Z</time>
        <extensions>
          <ns3:TrackPointExtension>
            <ns3:hr>124</ns3:hr>
            <ns3:cad>0</ns3:cad>
          </ns3:TrackPointExtension>
        </extensions>
      </trkpt>
      <trkpt lat="37.93733219616115093231201171875" lon="-107.13546202518045902252197265625">
        <ele>3698</ele>
        <time>2026-01-06T21:23:47.000Z</time>
        <extensions>
          <ns3:TrackPointExtension>
            <ns3:hr>123</ns3:hr>
            <ns3:cad>0</ns3:cad>
          </ns3:TrackPointExtension>
        </extensions>
      </trkpt>
      <trkpt lat="37.9373284243047237396240234375" lon="-107.13550150394439697265625">
        <ele>3697.60009765625</ele>
        <time>2026-01-06T21:23:52.000Z</time>
        <extensions>
          <ns3:TrackPointExtension>
            <ns3:hr>123</ns3:hr>
            <ns3:cad>0</ns3:cad>
          </ns3:TrackPointExtension>
        </extensions>
      </trkpt>
      <trkpt lat="37.937328927218914031982421875" lon="-107.13550024665892124176025390625">
        <ele>3697.39990234375</ele>
        <time>2026-01-06T21:23:53.000Z</time>
        <extensions>
          <ns3:TrackPointExtension>
            <ns3:hr>122</ns3:hr>
            <ns3:cad>0</ns3:cad>
          </ns3:TrackPointExtension>
        </extensions>
      </trkpt>
      <trkpt lat="37.9373212158679962158203125" lon="-107.13553159497678279876708984375">
        <ele>3696.800048828125</ele>
        <time>2026-01-06T21:23:58.000Z</time>
        <extensions>
          <ns3:TrackPointExtension>
            <ns3:hr>122</ns3:hr>
            <ns3:cad>0</ns3:cad>
          </ns3:TrackPointExtension>
        </extensions>
      </trkpt>
      <trkpt lat="37.937327921390533447265625" lon="-107.1355298347771167755126953125">
        <ele>3696</ele>
        <time>2026-01-06T21:24:01.000Z</time>
        <extensions>
          <ns3:TrackPointExtension>
            <ns3:hr>123</ns3:hr>
            <ns3:cad>0</ns3:cad>
          </ns3:TrackPointExtension>
        </extensions>
      </trkpt>
      <trkpt lat="37.937336973845958709716796875" lon="-107.13553075678646564483642578125">
        <ele>3695</ele>
        <time>2026-01-06T21:24:03.000Z</time>
        <extensions>
          <ns3:TrackPointExtension>
            <ns3:hr>123</ns3:hr>
            <ns3:cad>0</ns3:cad>
          </ns3:TrackPointExtension>
        </extensions>
      </trkpt>
      <trkpt lat="37.9373361356556415557861328125" lon="-107.13552991859614849090576171875">
        <ele>3695.39990234375</ele>
        <time>2026-01-06T21:24:09.000Z</time>
        <extensions>
          <ns3:TrackPointExtension>
            <ns3:hr>121</ns3:hr>
            <ns3:cad>0</ns3:cad>
          </ns3:TrackPointExtension>
        </extensions>
      </trkpt>
      <trkpt lat="37.9373361356556415557861328125" lon="-107.13552991859614849090576171875">
        <ele>3695.39990234375</ele>
        <time>2026-01-06T21:24:15.000Z</time>
        <extensions>
          <ns3:TrackPointExtension>
            <ns3:hr>122</ns3:hr>
            <ns3:cad>0</ns3:cad>
          </ns3:TrackPointExtension>
        </extensions>
      </trkpt>
      <trkpt lat="37.9373317770659923553466796875" lon="-107.135525643825531005859375">
        <ele>3695</ele>
        <time>2026-01-06T21:24:21.000Z</time>
        <extensions>
          <ns3:TrackPointExtension>
            <ns3:hr>121</ns3:hr>
            <ns3:cad>0</ns3:cad>
          </ns3:TrackPointExtension>
        </extensions>
      </trkpt>
      <trkpt lat="37.9373361356556415557861328125" lon="-107.13552991859614849090576171875">
        <ele>3695.199951171875</ele>
        <time>2026-01-06T21:24:23.000Z</time>
        <extensions>
          <ns3:TrackPointExtension>
            <ns3:hr>120</ns3:hr>
            <ns3:cad>0</ns3:cad>
          </ns3:TrackPointExtension>
        </extensions>
      </trkpt>
      <trkpt lat="37.9373361356556415557861328125" lon="-107.13552991859614849090576171875">
        <ele>3695.199951171875</ele>
        <time>2026-01-06T21:24:26.000Z</time>
        <extensions>
          <ns3:TrackPointExtension>
            <ns3:hr>117</ns3:hr>
            <ns3:cad>0</ns3:cad>
          </ns3:TrackPointExtension>
        </extensions>
      </trkpt>
      <trkpt lat="37.9373361356556415557861328125" lon="-107.13552991859614849090576171875">
        <ele>3695</ele>
        <time>2026-01-06T21:24:32.000Z</time>
        <extensions>
          <ns3:TrackPointExtension>
            <ns3:hr>117</ns3:hr>
            <ns3:cad>0</ns3:cad>
          </ns3:TrackPointExtension>
        </extensions>
      </trkpt>
      <trkpt lat="37.9373361356556415557861328125" lon="-107.13552991859614849090576171875">
        <ele>3695.39990234375</ele>
        <time>2026-01-06T21:24:37.000Z</time>
        <extensions>
          <ns3:TrackPointExtension>
            <ns3:hr>118</ns3:hr>
            <ns3:cad>0</ns3:cad>
          </ns3:TrackPointExtension>
        </extensions>
      </trkpt>
      <trkpt lat="37.9373361356556415557861328125" lon="-107.13552991859614849090576171875">
        <ele>3696</ele>
        <time>2026-01-06T21:24:43.000Z</time>
        <extensions>
          <ns3:TrackPointExtension>
            <ns3:hr>117</ns3:hr>
            <ns3:cad>0</ns3:cad>
          </ns3:TrackPointExtension>
        </extensions>
      </trkpt>
      <trkpt lat="37.9373361356556415557861328125" lon="-107.13552991859614849090576171875">
        <ele>3696.39990234375</ele>
        <time>2026-01-06T21:24:45.000Z</time>
        <extensions>
          <ns3:TrackPointExtension>
            <ns3:hr>116</ns3:hr>
            <ns3:cad>0</ns3:cad>
          </ns3:TrackPointExtension>
        </extensions>
      </trkpt>
      <trkpt lat="37.9373361356556415557861328125" lon="-107.13552991859614849090576171875">
        <ele>3696.800048828125</ele>
        <time>2026-01-06T21:24:51.000Z</time>
        <extensions>
          <ns3:TrackPointExtension>
            <ns3:hr>118</ns3:hr>
            <ns3:cad>0</ns3:cad>
          </ns3:TrackPointExtension>
        </extensions>
      </trkpt>
      <trkpt lat="37.9373257420957088470458984375" lon="-107.13552958332002162933349609375">
        <ele>3696.60009765625</ele>
        <time>2026-01-06T21:24:54.000Z</time>
        <extensions>
          <ns3:TrackPointExtension>
            <ns3:hr>119</ns3:hr>
            <ns3:cad>0</ns3:cad>
          </ns3:TrackPointExtension>
        </extensions>
      </trkpt>
      <trkpt lat="37.937319539487361907958984375" lon="-107.13553209789097309112548828125">
        <ele>3696.39990234375</ele>
        <time>2026-01-06T21:24:59.000Z</time>
        <extensions>
          <ns3:TrackPointExtension>
            <ns3:hr>122</ns3:hr>
            <ns3:cad>0</ns3:cad>
          </ns3:TrackPointExtension>
        </extensions>
      </trkpt>
      <trkpt lat="37.937319539487361907958984375" lon="-107.13553209789097309112548828125">
        <ele>3696.39990234375</ele>
        <time>2026-01-06T21:25:01.000Z</time>
        <extensions>
          <ns3:TrackPointExtension>
            <ns3:hr>122</ns3:hr>
            <ns3:cad>0</ns3:cad>
          </ns3:TrackPointExtension>
        </extensions>
      </trkpt>
      <trkpt lat="37.937319539487361907958984375" lon="-107.13553209789097309112548828125">
        <ele>3696.39990234375</ele>
        <time>2026-01-06T21:25:03.000Z</time>
        <extensions>
          <ns3:TrackPointExtension>
            <ns3:hr>118</ns3:hr>
            <ns3:cad>0</ns3:cad>
          </ns3:TrackPointExtension>
        </extensions>
      </trkpt>
      <trkpt lat="37.937319539487361907958984375" lon="-107.13553209789097309112548828125">
        <ele>3696.39990234375</ele>
        <time>2026-01-06T21:25:04.000Z</time>
        <extensions>
          <ns3:TrackPointExtension>
            <ns3:hr>106</ns3:hr>
            <ns3:cad>0</ns3:cad>
          </ns3:TrackPointExtension>
        </extensions>
      </trkpt>
      <trkpt lat="37.937319539487361907958984375" lon="-107.13553209789097309112548828125">
        <ele>3696.39990234375</ele>
        <time>2026-01-06T21:25:05.000Z</time>
        <extensions>
          <ns3:TrackPointExtension>
            <ns3:hr>100</ns3:hr>
            <ns3:cad>0</ns3:cad>
          </ns3:TrackPointExtension>
        </extensions>
      </trkpt>
      <trkpt lat="37.937319539487361907958984375" lon="-107.13553209789097309112548828125">
        <ele>3696.199951171875</ele>
        <time>2026-01-06T21:25:08.000Z</time>
        <extensions>
          <ns3:TrackPointExtension>
            <ns3:hr>99</ns3:hr>
            <ns3:cad>0</ns3:cad>
          </ns3:TrackPointExtension>
        </extensions>
      </trkpt>
      <trkpt lat="37.937319539487361907958984375" lon="-107.13553209789097309112548828125">
        <ele>3696</ele>
        <time>2026-01-06T21:25:14.000Z</time>
        <extensions>
          <ns3:TrackPointExtension>
            <ns3:hr>98</ns3:hr>
            <ns3:cad>0</ns3:cad>
          </ns3:TrackPointExtension>
        </extensions>
      </trkpt>
      <trkpt lat="37.937319539487361907958984375" lon="-107.13553209789097309112548828125">
        <ele>3696.60009765625</ele>
        <time>2026-01-06T21:25:20.000Z</time>
        <extensions>
          <ns3:TrackPointExtension>
            <ns3:hr>97</ns3:hr>
            <ns3:cad>0</ns3:cad>
          </ns3:TrackPointExtension>
        </extensions>
      </trkpt>
      <trkpt lat="37.937319539487361907958984375" lon="-107.13553209789097309112548828125">
        <ele>3696.39990234375</ele>
        <time>2026-01-06T21:25:23.000Z</time>
        <extensions>
          <ns3:TrackPointExtension>
            <ns3:hr>105</ns3:hr>
            <ns3:cad>0</ns3:cad>
          </ns3:TrackPointExtension>
        </extensions>
      </trkpt>
      <trkpt lat="37.937319539487361907958984375" lon="-107.13553209789097309112548828125">
        <ele>3696</ele>
        <time>2026-01-06T21:25:29.000Z</time>
        <extensions>
          <ns3:TrackPointExtension>
            <ns3:hr>106</ns3:hr>
            <ns3:cad>0</ns3:cad>
          </ns3:TrackPointExtension>
        </extensions>
      </trkpt>
      <trkpt lat="37.937319539487361907958984375" lon="-107.13553209789097309112548828125">
        <ele>3696.60009765625</ele>
        <time>2026-01-06T21:25:34.000Z</time>
        <extensions>
          <ns3:TrackPointExtension>
            <ns3:hr>110</ns3:hr>
            <ns3:cad>0</ns3:cad>
          </ns3:TrackPointExtension>
        </extensions>
      </trkpt>
      <trkpt lat="37.937319539487361907958984375" lon="-107.13553209789097309112548828125">
        <ele>3696.800048828125</ele>
        <time>2026-01-06T21:25:36.000Z</time>
        <extensions>
          <ns3:TrackPointExtension>
            <ns3:hr>121</ns3:hr>
            <ns3:cad>0</ns3:cad>
          </ns3:TrackPointExtension>
        </extensions>
      </trkpt>
      <trkpt lat="37.937319539487361907958984375" lon="-107.13553209789097309112548828125">
        <ele>3697</ele>
        <time>2026-01-06T21:25:39.000Z</time>
        <extensions>
          <ns3:TrackPointExtension>
            <ns3:hr>123</ns3:hr>
            <ns3:cad>0</ns3:cad>
          </ns3:TrackPointExtension>
        </extensions>
      </trkpt>
      <trkpt lat="37.937319539487361907958984375" lon="-107.13553209789097309112548828125">
        <ele>3697.199951171875</ele>
        <time>2026-01-06T21:25:40.000Z</time>
        <extensions>
          <ns3:TrackPointExtension>
            <ns3:hr>123</ns3:hr>
            <ns3:cad>0</ns3:cad>
          </ns3:TrackPointExtension>
        </extensions>
      </trkpt>
      <trkpt lat="37.937319539487361907958984375" lon="-107.13553209789097309112548828125">
        <ele>3697.800048828125</ele>
        <time>2026-01-06T21:25:46.000Z</time>
        <extensions>
          <ns3:TrackPointExtension>
            <ns3:hr>124</ns3:hr>
            <ns3:cad>0</ns3:cad>
          </ns3:TrackPointExtension>
        </extensions>
      </trkpt>
      <trkpt lat="37.93732096441090106964111328125" lon="-107.13553033769130706787109375">
        <ele>3697.199951171875</ele>
        <time>2026-01-06T21:25:52.000Z</time>
        <extensions>
          <ns3:TrackPointExtension>
            <ns3:hr>123</ns3:hr>
            <ns3:cad>0</ns3:cad>
          </ns3:TrackPointExtension>
        </extensions>
      </trkpt>
      <trkpt lat="37.9373227246105670928955078125" lon="-107.135529331862926483154296875">
        <ele>3697.199951171875</ele>
        <time>2026-01-06T21:25:53.000Z</time>
        <extensions>
          <ns3:TrackPointExtension>
            <ns3:hr>123</ns3:hr>
            <ns3:cad>0</ns3:cad>
          </ns3:TrackPointExtension>
        </extensions>
      </trkpt>
      <trkpt lat="37.937319539487361907958984375" lon="-107.13553209789097309112548828125">
        <ele>3696.60009765625</ele>
        <time>2026-01-06T21:25:59.000Z</time>
        <extensions>
          <ns3:TrackPointExtension>
            <ns3:hr>123</ns3:hr>
            <ns3:cad>0</ns3:cad>
          </ns3:TrackPointExtension>
        </extensions>
      </trkpt>
      <trkpt lat="37.937319539487361907958984375" lon="-107.13553209789097309112548828125">
        <ele>3696.199951171875</ele>
        <time>2026-01-06T21:26:01.000Z</time>
        <extensions>
          <ns3:TrackPointExtension>
            <ns3:hr>123</ns3:hr>
            <ns3:cad>0</ns3:cad>
          </ns3:TrackPointExtension>
        </extensions>
      </trkpt>
      <trkpt lat="37.937319539487361907958984375" lon="-107.13553209789097309112548828125">
        <ele>3696.60009765625</ele>
        <time>2026-01-06T21:26:07.000Z</time>
        <extensions>
          <ns3:TrackPointExtension>
            <ns3:hr>122</ns3:hr>
            <ns3:cad>0</ns3:cad>
          </ns3:TrackPointExtension>
        </extensions>
      </trkpt>
      <trkpt lat="37.937319539487361907958984375" lon="-107.13553209789097309112548828125">
        <ele>3697</ele>
        <time>2026-01-06T21:26:10.000Z</time>
        <extensions>
          <ns3:TrackPointExtension>
            <ns3:hr>122</ns3:hr>
            <ns3:cad>0</ns3:cad>
          </ns3:TrackPointExtension>
        </extensions>
      </trkpt>
      <trkpt lat="37.937319539487361907958984375" lon="-107.13553209789097309112548828125">
        <ele>3696.800048828125</ele>
        <time>2026-01-06T21:26:13.000Z</time>
        <extensions>
          <ns3:TrackPointExtension>
            <ns3:hr>118</ns3:hr>
            <ns3:cad>0</ns3:cad>
          </ns3:TrackPointExtension>
        </extensions>
      </trkpt>
      <trkpt lat="37.937319539487361907958984375" lon="-107.13553209789097309112548828125">
        <ele>3696.60009765625</ele>
        <time>2026-01-06T21:26:14.000Z</time>
        <extensions>
          <ns3:TrackPointExtension>
            <ns3:hr>112</ns3:hr>
            <ns3:cad>0</ns3:cad>
          </ns3:TrackPointExtension>
        </extensions>
      </trkpt>
      <trkpt lat="37.937319539487361907958984375" lon="-107.13553209789097309112548828125">
        <ele>3696.39990234375</ele>
        <time>2026-01-06T21:26:15.000Z</time>
        <extensions>
          <ns3:TrackPointExtension>
            <ns3:hr>112</ns3:hr>
            <ns3:cad>0</ns3:cad>
          </ns3:TrackPointExtension>
        </extensions>
      </trkpt>
      <trkpt lat="37.937319539487361907958984375" lon="-107.13553209789097309112548828125">
        <ele>3696.60009765625</ele>
        <time>2026-01-06T21:26:20.000Z</time>
        <extensions>
          <ns3:TrackPointExtension>
            <ns3:hr>110</ns3:hr>
            <ns3:cad>0</ns3:cad>
          </ns3:TrackPointExtension>
        </extensions>
      </trkpt>
      <trkpt lat="37.93732314370572566986083984375" lon="-107.1355392225086688995361328125">
        <ele>3696.800048828125</ele>
        <time>2026-01-06T21:26:26.000Z</time>
        <extensions>
          <ns3:TrackPointExtension>
            <ns3:hr>110</ns3:hr>
            <ns3:cad>0</ns3:cad>
          </ns3:TrackPointExtension>
        </extensions>
      </trkpt>
      <trkpt lat="37.9373240657150745391845703125" lon="-107.13553176261484622955322265625">
        <ele>3697.199951171875</ele>
        <time>2026-01-06T21:26:29.000Z</time>
        <extensions>
          <ns3:TrackPointExtension>
            <ns3:hr>111</ns3:hr>
            <ns3:cad>0</ns3:cad>
          </ns3:TrackPointExtension>
        </extensions>
      </trkpt>
      <trkpt lat="37.937319539487361907958984375" lon="-107.13553209789097309112548828125">
        <ele>3696.800048828125</ele>
        <time>2026-01-06T21:26:34.000Z</time>
        <extensions>
          <ns3:TrackPointExtension>
            <ns3:hr>112</ns3:hr>
            <ns3:cad>0</ns3:cad>
          </ns3:TrackPointExtension>
        </extensions>
      </trkpt>
      <trkpt lat="37.937319539487361907958984375" lon="-107.13553209789097309112548828125">
        <ele>3696.800048828125</ele>
        <time>2026-01-06T21:26:40.000Z</time>
        <extensions>
          <ns3:TrackPointExtension>
            <ns3:hr>110</ns3:hr>
            <ns3:cad>0</ns3:cad>
          </ns3:TrackPointExtension>
        </extensions>
      </trkpt>
      <trkpt lat="37.937319539487361907958984375" lon="-107.13553209789097309112548828125">
        <ele>3697.199951171875</ele>
        <time>2026-01-06T21:26:42.000Z</time>
        <extensions>
          <ns3:TrackPointExtension>
            <ns3:hr>110</ns3:hr>
            <ns3:cad>0</ns3:cad>
          </ns3:TrackPointExtension>
        </extensions>
      </trkpt>
      <trkpt lat="37.937319539487361907958984375" lon="-107.13553209789097309112548828125">
        <ele>3697.199951171875</ele>
        <time>2026-01-06T21:26:48.000Z</time>
        <extensions>
          <ns3:TrackPointExtension>
            <ns3:hr>111</ns3:hr>
            <ns3:cad>0</ns3:cad>
          </ns3:TrackPointExtension>
        </extensions>
      </trkpt>
      <trkpt lat="37.93732750229537487030029296875" lon="-107.13554777204990386962890625">
        <ele>3696.39990234375</ele>
        <time>2026-01-06T21:26:51.000Z</time>
        <extensions>
          <ns3:TrackPointExtension>
            <ns3:hr>108</ns3:hr>
            <ns3:cad>0</ns3:cad>
          </ns3:TrackPointExtension>
        </extensions>
      </trkpt>
      <trkpt lat="37.9373324476182460784912109375" lon="-107.1355600096285343170166015625">
        <ele>3696</ele>
        <time>2026-01-06T21:26:52.000Z</time>
        <extensions>
          <ns3:TrackPointExtension>
            <ns3:hr>107</ns3:hr>
            <ns3:cad>0</ns3:cad>
          </ns3:TrackPointExtension>
        </extensions>
      </trkpt>
      <trkpt lat="37.93733638711273670196533203125" lon="-107.13558289222419261932373046875">
        <ele>3694.800048828125</ele>
        <time>2026-01-06T21:26:55.000Z</time>
        <extensions>
          <ns3:TrackPointExtension>
            <ns3:hr>105</ns3:hr>
            <ns3:cad>0</ns3:cad>
          </ns3:TrackPointExtension>
        </extensions>
      </trkpt>
      <trkpt lat="37.9373334534466266632080078125" lon="-107.13561273179948329925537109375">
        <ele>3694.800048828125</ele>
        <time>2026-01-06T21:26:58.000Z</time>
        <extensions>
          <ns3:TrackPointExtension>
            <ns3:hr>104</ns3:hr>
            <ns3:cad>0</ns3:cad>
          </ns3:TrackPointExtension>
        </extensions>
      </trkpt>
      <trkpt lat="37.9373307712376117706298828125" lon="-107.13567140512168407440185546875">
        <ele>3694.60009765625</ele>
        <time>2026-01-06T21:27:04.000Z</time>
        <extensions>
          <ns3:TrackPointExtension>
            <ns3:hr>103</ns3:hr>
            <ns3:cad>0</ns3:cad>
          </ns3:TrackPointExtension>
        </extensions>
      </trkpt>
      <trkpt lat="37.937335632741451263427734375" lon="-107.13568816892802715301513671875">
        <ele>3693.800048828125</ele>
        <time>2026-01-06T21:27:06.000Z</time>
        <extensions>
          <ns3:TrackPointExtension>
            <ns3:hr>105</ns3:hr>
            <ns3:cad>0</ns3:cad>
          </ns3:TrackPointExtension>
        </extensions>
      </trkpt>
      <trkpt lat="37.93733454309403896331787109375" lon="-107.13572169654071331024169921875">
        <ele>3692.800048828125</ele>
        <time>2026-01-06T21:27:09.000Z</time>
        <extensions>
          <ns3:TrackPointExtension>
            <ns3:hr>105</ns3:hr>
            <ns3:cad>0</ns3:cad>
          </ns3:TrackPointExtension>
        </extensions>
      </trkpt>
      <trkpt lat="37.9373411647975444793701171875" lon="-107.1357890032231807708740234375">
        <ele>3692</ele>
        <time>2026-01-06T21:27:15.000Z</time>
        <extensions>
          <ns3:TrackPointExtension>
            <ns3:hr>108</ns3:hr>
            <ns3:cad>0</ns3:cad>
          </ns3:TrackPointExtension>
        </extensions>
      </trkpt>
      <trkpt lat="37.93733286671340465545654296875" lon="-107.1358097903430461883544921875">
        <ele>3691.60009765625</ele>
        <time>2026-01-06T21:27:17.000Z</time>
        <extensions>
          <ns3:TrackPointExtension>
            <ns3:hr>110</ns3:hr>
            <ns3:cad>0</ns3:cad>
          </ns3:TrackPointExtension>
        </extensions>
      </trkpt>
      <trkpt lat="37.9373287595808506011962890625" lon="-107.1358785219490528106689453125">
        <ele>3690.39990234375</ele>
        <time>2026-01-06T21:27:23.000Z</time>
        <extensions>
          <ns3:TrackPointExtension>
            <ns3:hr>108</ns3:hr>
            <ns3:cad>45</ns3:cad>
          </ns3:TrackPointExtension>
        </extensions>
      </trkpt>
      <trkpt lat="37.937327921390533447265625" lon="-107.13589109480381011962890625">
        <ele>3690.199951171875</ele>
        <time>2026-01-06T21:27:24.000Z</time>
        <extensions>
          <ns3:TrackPointExtension>
            <ns3:hr>108</ns3:hr>
            <ns3:cad>47</ns3:cad>
          </ns3:TrackPointExtension>
        </extensions>
      </trkpt>
      <trkpt lat="37.93733186088502407073974609375" lon="-107.135916911065578460693359375">
        <ele>3689</ele>
        <time>2026-01-06T21:27:26.000Z</time>
        <extensions>
          <ns3:TrackPointExtension>
            <ns3:hr>107</ns3:hr>
            <ns3:cad>50</ns3:cad>
          </ns3:TrackPointExtension>
        </extensions>
      </trkpt>
      <trkpt lat="37.93733127415180206298828125" lon="-107.1359499357640743255615234375">
        <ele>3688</ele>
        <time>2026-01-06T21:27:29.000Z</time>
        <extensions>
          <ns3:TrackPointExtension>
            <ns3:hr>107</ns3:hr>
            <ns3:cad>48</ns3:cad>
          </ns3:TrackPointExtension>
        </extensions>
      </trkpt>
      <trkpt lat="37.9373351298272609710693359375" lon="-107.135975249111652374267578125">
        <ele>3687.39990234375</ele>
        <time>2026-01-06T21:27:31.000Z</time>
        <extensions>
          <ns3:TrackPointExtension>
            <ns3:hr>108</ns3:hr>
            <ns3:cad>48</ns3:cad>
          </ns3:TrackPointExtension>
        </extensions>
      </trkpt>
      <trkpt lat="37.93734678067266941070556640625" lon="-107.13600031100213527679443359375">
        <ele>3686.800048828125</ele>
        <time>2026-01-06T21:27:33.000Z</time>
        <extensions>
          <ns3:TrackPointExtension>
            <ns3:hr>108</ns3:hr>
            <ns3:cad>48</ns3:cad>
          </ns3:TrackPointExtension>
        </extensions>
      </trkpt>
      <trkpt lat="37.93736354447901248931884765625" lon="-107.136034257709980010986328125">
        <ele>3685.800048828125</ele>
        <time>2026-01-06T21:27:36.000Z</time>
        <extensions>
          <ns3:TrackPointExtension>
            <ns3:hr>108</ns3:hr>
            <ns3:cad>48</ns3:cad>
          </ns3:TrackPointExtension>
        </extensions>
      </trkpt>
      <trkpt lat="37.93737360276281833648681640625" lon="-107.13607482612133026123046875">
        <ele>3684.800048828125</ele>
        <time>2026-01-06T21:27:39.000Z</time>
        <extensions>
          <ns3:TrackPointExtension>
            <ns3:hr>108</ns3:hr>
            <ns3:cad>56</ns3:cad>
          </ns3:TrackPointExtension>
        </extensions>
      </trkpt>
      <trkpt lat="37.93738181702792644500732421875" lon="-107.13611581362783908843994140625">
        <ele>3684.60009765625</ele>
        <time>2026-01-06T21:27:42.000Z</time>
        <extensions>
          <ns3:TrackPointExtension>
            <ns3:hr>108</ns3:hr>
            <ns3:cad>0</ns3:cad>
          </ns3:TrackPointExtension>
        </extensions>
      </trkpt>
      <trkpt lat="37.93739967048168182373046875" lon="-107.13614146225154399871826171875">
        <ele>3683.39990234375</ele>
        <time>2026-01-06T21:27:45.000Z</time>
        <extensions>
          <ns3:TrackPointExtension>
            <ns3:hr>108</ns3:hr>
            <ns3:cad>18</ns3:cad>
          </ns3:TrackPointExtension>
        </extensions>
      </trkpt>
      <trkpt lat="37.93742188252508640289306640625" lon="-107.13617180474102497100830078125">
        <ele>3682.60009765625</ele>
        <time>2026-01-06T21:27:48.000Z</time>
        <extensions>
          <ns3:TrackPointExtension>
            <ns3:hr>111</ns3:hr>
            <ns3:cad>0</ns3:cad>
          </ns3:TrackPointExtension>
        </extensions>
      </trkpt>
      <trkpt lat="37.93743328191339969635009765625" lon="-107.136190496385097503662109375">
        <ele>3682.199951171875</ele>
        <time>2026-01-06T21:27:50.000Z</time>
        <extensions>
          <ns3:TrackPointExtension>
            <ns3:hr>111</ns3:hr>
            <ns3:cad>0</ns3:cad>
          </ns3:TrackPointExtension>
        </extensions>
      </trkpt>
      <trkpt lat="37.9374400712549686431884765625" lon="-107.13621220551431179046630859375">
        <ele>3681.800048828125</ele>
        <time>2026-01-06T21:27:52.000Z</time>
        <extensions>
          <ns3:TrackPointExtension>
            <ns3:hr>112</ns3:hr>
            <ns3:cad>0</ns3:cad>
          </ns3:TrackPointExtension>
        </extensions>
      </trkpt>
      <trkpt lat="37.9374675638973712921142578125" lon="-107.13623768649995326995849609375">
        <ele>3680.800048828125</ele>
        <time>2026-01-06T21:27:56.000Z</time>
        <extensions>
          <ns3:TrackPointExtension>
            <ns3:hr>113</ns3:hr>
            <ns3:cad>53</ns3:cad>
          </ns3:TrackPointExtension>
        </extensions>
      </trkpt>
      <trkpt lat="37.93748608790338039398193359375" lon="-107.13626325130462646484375">
        <ele>3679.800048828125</ele>
        <time>2026-01-06T21:27:59.000Z</time>
        <extensions>
          <ns3:TrackPointExtension>
            <ns3:hr>114</ns3:hr>
            <ns3:cad>53</ns3:cad>
          </ns3:TrackPointExtension>
        </extensions>
      </trkpt>
      <trkpt lat="37.9374933801591396331787109375" lon="-107.1362694539129734039306640625">
        <ele>3679.800048828125</ele>
        <time>2026-01-06T21:28:00.000Z</time>
        <extensions>
          <ns3:TrackPointExtension>
            <ns3:hr>114</ns3:hr>
            <ns3:cad>53</ns3:cad>
          </ns3:TrackPointExtension>
        </extensions>
      </trkpt>
      <trkpt lat="37.937521040439605712890625" lon="-107.1363241039216518402099609375">
        <ele>3679</ele>
        <time>2026-01-06T21:28:06.000Z</time>
        <extensions>
          <ns3:TrackPointExtension>
            <ns3:hr>115</ns3:hr>
            <ns3:cad>53</ns3:cad>
          </ns3:TrackPointExtension>
        </extensions>
      </trkpt>
      <trkpt lat="37.9375279136002063751220703125" lon="-107.136335670948028564453125">
        <ele>3678.800048828125</ele>
        <time>2026-01-06T21:28:07.000Z</time>
        <extensions>
          <ns3:TrackPointExtension>
            <ns3:hr>116</ns3:hr>
            <ns3:cad>53</ns3:cad>
          </ns3:TrackPointExtension>
        </extensions>
      </trkpt>
      <trkpt lat="37.93754626996815204620361328125" lon="-107.1363888122141361236572265625">
        <ele>3677.800048828125</ele>
        <time>2026-01-06T21:28:13.000Z</time>
        <extensions>
          <ns3:TrackPointExtension>
            <ns3:hr>116</ns3:hr>
            <ns3:cad>0</ns3:cad>
          </ns3:TrackPointExtension>
        </extensions>
      </trkpt>
      <trkpt lat="37.93755054473876953125" lon="-107.13642812334001064300537109375">
        <ele>3677.60009765625</ele>
        <time>2026-01-06T21:28:17.000Z</time>
        <extensions>
          <ns3:TrackPointExtension>
            <ns3:hr>116</ns3:hr>
            <ns3:cad>0</ns3:cad>
          </ns3:TrackPointExtension>
        </extensions>
      </trkpt>
      <trkpt lat="37.9375580884516239166259765625" lon="-107.1364344097673892974853515625">
        <ele>3677.199951171875</ele>
        <time>2026-01-06T21:28:18.000Z</time>
        <extensions>
          <ns3:TrackPointExtension>
            <ns3:hr>116</ns3:hr>
            <ns3:cad>0</ns3:cad>
          </ns3:TrackPointExtension>
        </extensions>
      </trkpt>
      <trkpt lat="37.9375644586980342864990234375" lon="-107.13644974865019321441650390625">
        <ele>3676.39990234375</ele>
        <time>2026-01-06T21:28:20.000Z</time>
        <extensions>
          <ns3:TrackPointExtension>
            <ns3:hr>118</ns3:hr>
            <ns3:cad>0</ns3:cad>
          </ns3:TrackPointExtension>
        </extensions>
      </trkpt>
      <trkpt lat="37.93754878453910350799560546875" lon="-107.13650532066822052001953125">
        <ele>3676.199951171875</ele>
        <time>2026-01-06T21:28:25.000Z</time>
        <extensions>
          <ns3:TrackPointExtension>
            <ns3:hr>118</ns3:hr>
            <ns3:cad>0</ns3:cad>
          </ns3:TrackPointExtension>
        </extensions>
      </trkpt>
      <trkpt lat="37.93754543177783489227294921875" lon="-107.13655267842113971710205078125">
        <ele>3675.39990234375</ele>
        <time>2026-01-06T21:28:30.000Z</time>
        <extensions>
          <ns3:TrackPointExtension>
            <ns3:hr>118</ns3:hr>
            <ns3:cad>0</ns3:cad>
          </ns3:TrackPointExtension>
        </extensions>
      </trkpt>
      <trkpt lat="37.93755121529102325439453125" lon="-107.13656273670494556427001953125">
        <ele>3674.800048828125</ele>
        <time>2026-01-06T21:28:31.000Z</time>
        <extensions>
          <ns3:TrackPointExtension>
            <ns3:hr>118</ns3:hr>
            <ns3:cad>0</ns3:cad>
          </ns3:TrackPointExtension>
        </extensions>
      </trkpt>
      <trkpt lat="37.9375537298619747161865234375" lon="-107.1365708671510219573974609375">
        <ele>3674.199951171875</ele>
        <time>2026-01-06T21:28:32.000Z</time>
        <extensions>
          <ns3:TrackPointExtension>
            <ns3:hr>118</ns3:hr>
            <ns3:cad>0</ns3:cad>
          </ns3:TrackPointExtension>
        </extensions>
      </trkpt>
      <trkpt lat="37.937585748732089996337890625" lon="-107.13658167980611324310302734375">
        <ele>3673.199951171875</ele>
        <time>2026-01-06T21:28:36.000Z</time>
        <extensions>
          <ns3:TrackPointExtension>
            <ns3:hr>119</ns3:hr>
            <ns3:cad>0</ns3:cad>
          </ns3:TrackPointExtension>
        </extensions>
      </trkpt>
      <trkpt lat="37.937639057636260986328125" lon="-107.13658570311963558197021484375">
        <ele>3673.60009765625</ele>
        <time>2026-01-06T21:28:41.000Z</time>
        <extensions>
          <ns3:TrackPointExtension>
            <ns3:hr>118</ns3:hr>
            <ns3:cad>0</ns3:cad>
          </ns3:TrackPointExtension>
        </extensions>
      </trkpt>
      <trkpt lat="37.93769530020654201507568359375" lon="-107.13660313747823238372802734375">
        <ele>3672.39990234375</ele>
        <time>2026-01-06T21:28:47.000Z</time>
        <extensions>
          <ns3:TrackPointExtension>
            <ns3:hr>117</ns3:hr>
            <ns3:cad>0</ns3:cad>
          </ns3:TrackPointExtension>
        </extensions>
      </trkpt>
      <trkpt lat="37.9377049393951892852783203125" lon="-107.13660188019275665283203125">
        <ele>3672.199951171875</ele>
        <time>2026-01-06T21:28:48.000Z</time>
        <extensions>
          <ns3:TrackPointExtension>
            <ns3:hr>118</ns3:hr>
            <ns3:cad>0</ns3:cad>
          </ns3:TrackPointExtension>
        </extensions>
      </trkpt>
      <trkpt lat="37.93774173595011234283447265625" lon="-107.136614620685577392578125">
        <ele>3672.199951171875</ele>
        <time>2026-01-06T21:28:52.000Z</time>
        <extensions>
          <ns3:TrackPointExtension>
            <ns3:hr>117</ns3:hr>
            <ns3:cad>47</ns3:cad>
          </ns3:TrackPointExtension>
        </extensions>
      </trkpt>
      <trkpt lat="37.937805019319057464599609375" lon="-107.1366261877119541168212890625">
        <ele>3671.60009765625</ele>
        <time>2026-01-06T21:28:58.000Z</time>
        <extensions>
          <ns3:TrackPointExtension>
            <ns3:hr>116</ns3:hr>
            <ns3:cad>50</ns3:cad>
          </ns3:TrackPointExtension>
        </extensions>
      </trkpt>
      <trkpt lat="37.9378169216215610504150390625" lon="-107.13662560097873210906982421875">
        <ele>3671.199951171875</ele>
        <time>2026-01-06T21:28:59.000Z</time>
        <extensions>
          <ns3:TrackPointExtension>
            <ns3:hr>116</ns3:hr>
            <ns3:cad>50</ns3:cad>
          </ns3:TrackPointExtension>
        </extensions>
      </trkpt>
      <trkpt lat="37.9378549754619598388671875" lon="-107.13662065565586090087890625">
        <ele>3670.199951171875</ele>
        <time>2026-01-06T21:29:03.000Z</time>
        <extensions>
          <ns3:TrackPointExtension>
            <ns3:hr>116</ns3:hr>
            <ns3:cad>50</ns3:cad>
          </ns3:TrackPointExtension>
        </extensions>
      </trkpt>
      <trkpt lat="37.9378722421824932098388671875" lon="-107.136616297066211700439453125">
        <ele>3669.800048828125</ele>
        <time>2026-01-06T21:29:05.000Z</time>
        <extensions>
          <ns3:TrackPointExtension>
            <ns3:hr>116</ns3:hr>
            <ns3:cad>50</ns3:cad>
          </ns3:TrackPointExtension>
        </extensions>
      </trkpt>
      <trkpt lat="37.93792965821921825408935546875" lon="-107.13663213886320590972900390625">
        <ele>3669.39990234375</ele>
        <time>2026-01-06T21:29:11.000Z</time>
        <extensions>
          <ns3:TrackPointExtension>
            <ns3:hr>115</ns3:hr>
            <ns3:cad>47</ns3:cad>
          </ns3:TrackPointExtension>
        </extensions>
      </trkpt>
      <trkpt lat="37.93793653137981891632080078125" lon="-107.136641778051853179931640625">
        <ele>3669.199951171875</ele>
        <time>2026-01-06T21:29:12.000Z</time>
        <extensions>
          <ns3:TrackPointExtension>
            <ns3:hr>114</ns3:hr>
            <ns3:cad>47</ns3:cad>
          </ns3:TrackPointExtension>
        </extensions>
      </trkpt>
      <trkpt lat="37.93794306926429271697998046875" lon="-107.13665007613599300384521484375">
        <ele>3669</ele>
        <time>2026-01-06T21:29:13.000Z</time>
        <extensions>
          <ns3:TrackPointExtension>
            <ns3:hr>114</ns3:hr>
            <ns3:cad>0</ns3:cad>
          </ns3:TrackPointExtension>
        </extensions>
      </trkpt>
      <trkpt lat="37.93795798905193805694580078125" lon="-107.1366791613399982452392578125">
        <ele>3668.199951171875</ele>
        <time>2026-01-06T21:29:16.000Z</time>
        <extensions>
          <ns3:TrackPointExtension>
            <ns3:hr>114</ns3:hr>
            <ns3:cad>50</ns3:cad>
          </ns3:TrackPointExtension>
        </extensions>
      </trkpt>
      <trkpt lat="37.93796955607831478118896484375" lon="-107.136724255979061126708984375">
        <ele>3667.39990234375</ele>
        <time>2026-01-06T21:29:20.000Z</time>
        <extensions>
          <ns3:TrackPointExtension>
            <ns3:hr>115</ns3:hr>
            <ns3:cad>50</ns3:cad>
          </ns3:TrackPointExtension>
        </extensions>
      </trkpt>
      <trkpt lat="37.937978021800518035888671875" lon="-107.1367428638041019439697265625">
        <ele>3667.199951171875</ele>
        <time>2026-01-06T21:29:22.000Z</time>
        <extensions>
          <ns3:TrackPointExtension>
            <ns3:hr>116</ns3:hr>
            <ns3:cad>50</ns3:cad>
          </ns3:TrackPointExtension>
        </extensions>
      </trkpt>
      <trkpt lat="37.9379949532449245452880859375" lon="-107.136777900159358978271484375">
        <ele>3666.39990234375</ele>
        <time>2026-01-06T21:29:26.000Z</time>
        <extensions>
          <ns3:TrackPointExtension>
            <ns3:hr>113</ns3:hr>
            <ns3:cad>0</ns3:cad>
          </ns3:TrackPointExtension>
        </extensions>
      </trkpt>
      <trkpt lat="37.9379966296255588531494140625" lon="-107.1367857791483402252197265625">
        <ele>3666.39990234375</ele>
        <time>2026-01-06T21:29:27.000Z</time>
        <extensions>
          <ns3:TrackPointExtension>
            <ns3:hr>113</ns3:hr>
            <ns3:cad>0</ns3:cad>
          </ns3:TrackPointExtension>
        </extensions>
      </trkpt>
      <trkpt lat="37.9380080290138721466064453125" lon="-107.1368095837533473968505859375">
        <ele>3666.39990234375</ele>
        <time>2026-01-06T21:29:30.000Z</time>
        <extensions>
          <ns3:TrackPointExtension>
            <ns3:hr>110</ns3:hr>
            <ns3:cad>0</ns3:cad>
          </ns3:TrackPointExtension>
        </extensions>
      </trkpt>
      <trkpt lat="37.93802202679216861724853515625" lon="-107.13681972585618495941162109375">
        <ele>3666</ele>
        <time>2026-01-06T21:29:33.000Z</time>
        <extensions>
          <ns3:TrackPointExtension>
            <ns3:hr>107</ns3:hr>
            <ns3:cad>0</ns3:cad>
          </ns3:TrackPointExtension>
        </extensions>
      </trkpt>
      <trkpt lat="37.93803443200886249542236328125" lon="-107.13681913912296295166015625">
        <ele>3665</ele>
        <time>2026-01-06T21:29:36.000Z</time>
        <extensions>
          <ns3:TrackPointExtension>
            <ns3:hr>106</ns3:hr>
            <ns3:cad>0</ns3:cad>
          </ns3:TrackPointExtension>
        </extensions>
      </trkpt>
      <trkpt lat="37.93804205954074859619140625" lon="-107.136823832988739013671875">
        <ele>3664.60009765625</ele>
        <time>2026-01-06T21:29:38.000Z</time>
        <extensions>
          <ns3:TrackPointExtension>
            <ns3:hr>106</ns3:hr>
            <ns3:cad>0</ns3:cad>
          </ns3:TrackPointExtension>
        </extensions>
      </trkpt>
      <trkpt lat="37.938052453100681304931640625" lon="-107.13685157708823680877685546875">
        <ele>3664</ele>
        <time>2026-01-06T21:29:43.000Z</time>
        <extensions>
          <ns3:TrackPointExtension>
            <ns3:hr>106</ns3:hr>
            <ns3:cad>0</ns3:cad>
          </ns3:TrackPointExtension>
        </extensions>
      </trkpt>
      <trkpt lat="37.93805354274809360504150390625" lon="-107.13685459457337856292724609375">
        <ele>3663.800048828125</ele>
        <time>2026-01-06T21:29:44.000Z</time>
        <extensions>
          <ns3:TrackPointExtension>
            <ns3:hr>106</ns3:hr>
            <ns3:cad>0</ns3:cad>
          </ns3:TrackPointExtension>
        </extensions>
      </trkpt>
      <trkpt lat="37.938069887459278106689453125" lon="-107.1368866972625255584716796875">
        <ele>3662.800048828125</ele>
        <time>2026-01-06T21:29:49.000Z</time>
        <extensions>
          <ns3:TrackPointExtension>
            <ns3:hr>108</ns3:hr>
            <ns3:cad>0</ns3:cad>
          </ns3:TrackPointExtension>
        </extensions>
      </trkpt>
      <trkpt lat="37.938073910772800445556640625" lon="-107.13689801283180713653564453125">
        <ele>3662.199951171875</ele>
        <time>2026-01-06T21:29:51.000Z</time>
        <extensions>
          <ns3:TrackPointExtension>
            <ns3:hr>108</ns3:hr>
            <ns3:cad>0</ns3:cad>
          </ns3:TrackPointExtension>
        </extensions>
      </trkpt>
      <trkpt lat="37.93808489106595516204833984375" lon="-107.1369450353085994720458984375">
        <ele>3662.199951171875</ele>
        <time>2026-01-06T21:29:57.000Z</time>
        <extensions>
          <ns3:TrackPointExtension>
            <ns3:hr>109</ns3:hr>
            <ns3:cad>0</ns3:cad>
          </ns3:TrackPointExtension>
        </extensions>
      </trkpt>
      <trkpt lat="37.93809126131236553192138671875" lon="-107.13694713078439235687255859375">
        <ele>3661.39990234375</ele>
        <time>2026-01-06T21:29:58.000Z</time>
        <extensions>
          <ns3:TrackPointExtension>
            <ns3:hr>109</ns3:hr>
            <ns3:cad>0</ns3:cad>
          </ns3:TrackPointExtension>
        </extensions>
      </trkpt>
      <trkpt lat="37.9381059296429157257080078125" lon="-107.1369487233459949493408203125">
        <ele>3660.800048828125</ele>
        <time>2026-01-06T21:30:00.000Z</time>
        <extensions>
          <ns3:TrackPointExtension>
            <ns3:hr>110</ns3:hr>
            <ns3:cad>0</ns3:cad>
          </ns3:TrackPointExtension>
        </extensions>
      </trkpt>
      <trkpt lat="37.938111126422882080078125" lon="-107.136951573193073272705078125">
        <ele>3660.39990234375</ele>
        <time>2026-01-06T21:30:02.000Z</time>
        <extensions>
          <ns3:TrackPointExtension>
            <ns3:hr>110</ns3:hr>
            <ns3:cad>0</ns3:cad>
          </ns3:TrackPointExtension>
        </extensions>
      </trkpt>
      <trkpt lat="37.938132248818874359130859375" lon="-107.1369664929807186126708984375">
        <ele>3659.60009765625</ele>
        <time>2026-01-06T21:30:06.000Z</time>
        <extensions>
          <ns3:TrackPointExtension>
            <ns3:hr>108</ns3:hr>
            <ns3:cad>0</ns3:cad>
          </ns3:TrackPointExtension>
        </extensions>
      </trkpt>
      <trkpt lat="37.938149012625217437744140625" lon="-107.13697135448455810546875">
        <ele>3659.199951171875</ele>
        <time>2026-01-06T21:30:08.000Z</time>
        <extensions>
          <ns3:TrackPointExtension>
            <ns3:hr>107</ns3:hr>
            <ns3:cad>0</ns3:cad>
          </ns3:TrackPointExtension>
        </extensions>
      </trkpt>
      <trkpt lat="37.93814607895910739898681640625" lon="-107.13698585517704486846923828125">
        <ele>3658.39990234375</ele>
        <time>2026-01-06T21:30:12.000Z</time>
        <extensions>
          <ns3:TrackPointExtension>
            <ns3:hr>107</ns3:hr>
            <ns3:cad>0</ns3:cad>
          </ns3:TrackPointExtension>
        </extensions>
      </trkpt>
      <trkpt lat="37.93816083110868930816650390625" lon="-107.1370080672204494476318359375">
        <ele>3658</ele>
        <time>2026-01-06T21:30:16.000Z</time>
        <extensions>
          <ns3:TrackPointExtension>
            <ns3:hr>107</ns3:hr>
            <ns3:cad>0</ns3:cad>
          </ns3:TrackPointExtension>
        </extensions>
      </trkpt>
      <trkpt lat="37.93817491270601749420166015625" lon="-107.13700680993497371673583984375">
        <ele>3657.60009765625</ele>
        <time>2026-01-06T21:30:18.000Z</time>
        <extensions>
          <ns3:TrackPointExtension>
            <ns3:hr>107</ns3:hr>
            <ns3:cad>0</ns3:cad>
          </ns3:TrackPointExtension>
        </extensions>
      </trkpt>
      <trkpt lat="37.9381900839507579803466796875" lon="-107.13700429536402225494384765625">
        <ele>3657</ele>
        <time>2026-01-06T21:30:22.000Z</time>
        <extensions>
          <ns3:TrackPointExtension>
            <ns3:hr>106</ns3:hr>
            <ns3:cad>0</ns3:cad>
          </ns3:TrackPointExtension>
        </extensions>
      </trkpt>
      <trkpt lat="37.938202656805515289306640625" lon="-107.1370043791830539703369140625">
        <ele>3656.39990234375</ele>
        <time>2026-01-06T21:30:25.000Z</time>
        <extensions>
          <ns3:TrackPointExtension>
            <ns3:hr>108</ns3:hr>
            <ns3:cad>0</ns3:cad>
          </ns3:TrackPointExtension>
        </extensions>
      </trkpt>
      <trkpt lat="37.938202656805515289306640625" lon="-107.1370043791830539703369140625">
        <ele>3656</ele>
        <time>2026-01-06T21:30:27.000Z</time>
        <extensions>
          <ns3:TrackPointExtension>
            <ns3:hr>109</ns3:hr>
            <ns3:cad>0</ns3:cad>
          </ns3:TrackPointExtension>
        </extensions>
      </trkpt>
      <trkpt lat="37.9382098652422428131103515625" lon="-107.13701628148555755615234375">
        <ele>3655.60009765625</ele>
        <time>2026-01-06T21:30:33.000Z</time>
        <extensions>
          <ns3:TrackPointExtension>
            <ns3:hr>111</ns3:hr>
            <ns3:cad>0</ns3:cad>
          </ns3:TrackPointExtension>
        </extensions>
      </trkpt>
      <trkpt lat="37.93821179307997226715087890625" lon="-107.13702030479907989501953125">
        <ele>3655.60009765625</ele>
        <time>2026-01-06T21:30:34.000Z</time>
        <extensions>
          <ns3:TrackPointExtension>
            <ns3:hr>110</ns3:hr>
            <ns3:cad>0</ns3:cad>
          </ns3:TrackPointExtension>
        </extensions>
      </trkpt>
      <trkpt lat="37.93821380473673343658447265625" lon="-107.13704310357570648193359375">
        <ele>3655.199951171875</ele>
        <time>2026-01-06T21:30:37.000Z</time>
        <extensions>
          <ns3:TrackPointExtension>
            <ns3:hr>106</ns3:hr>
            <ns3:cad>0</ns3:cad>
          </ns3:TrackPointExtension>
        </extensions>
      </trkpt>
      <trkpt lat="37.9382189176976680755615234375" lon="-107.137059867382049560546875">
        <ele>3654.800048828125</ele>
        <time>2026-01-06T21:30:39.000Z</time>
        <extensions>
          <ns3:TrackPointExtension>
            <ns3:hr>103</ns3:hr>
            <ns3:cad>0</ns3:cad>
          </ns3:TrackPointExtension>
        </extensions>
      </trkpt>
      <trkpt lat="37.93822067789733409881591796875" lon="-107.1370630525052547454833984375">
        <ele>3654.60009765625</ele>
        <time>2026-01-06T21:30:40.000Z</time>
        <extensions>
          <ns3:TrackPointExtension>
            <ns3:hr>103</ns3:hr>
            <ns3:cad>0</ns3:cad>
          </ns3:TrackPointExtension>
        </extensions>
      </trkpt>
      <trkpt lat="37.93822838924825191497802734375" lon="-107.13708241470158100128173828125">
        <ele>3653.800048828125</ele>
        <time>2026-01-06T21:30:43.000Z</time>
        <extensions>
          <ns3:TrackPointExtension>
            <ns3:hr>102</ns3:hr>
            <ns3:cad>0</ns3:cad>
          </ns3:TrackPointExtension>
        </extensions>
      </trkpt>
      <trkpt lat="37.938242889940738677978515625" lon="-107.13709934614598751068115234375">
        <ele>3653.199951171875</ele>
        <time>2026-01-06T21:30:46.000Z</time>
        <extensions>
          <ns3:TrackPointExtension>
            <ns3:hr>104</ns3:hr>
            <ns3:cad>0</ns3:cad>
          </ns3:TrackPointExtension>
        </extensions>
      </trkpt>
      <trkpt lat="37.93825387023389339447021484375" lon="-107.13710404001176357269287109375">
        <ele>3652.60009765625</ele>
        <time>2026-01-06T21:30:49.000Z</time>
        <extensions>
          <ns3:TrackPointExtension>
            <ns3:hr>106</ns3:hr>
            <ns3:cad>0</ns3:cad>
          </ns3:TrackPointExtension>
        </extensions>
      </trkpt>
      <trkpt lat="37.93825102038681507110595703125" lon="-107.1371227316558361053466796875">
        <ele>3652.199951171875</ele>
        <time>2026-01-06T21:30:52.000Z</time>
        <extensions>
          <ns3:TrackPointExtension>
            <ns3:hr>108</ns3:hr>
            <ns3:cad>0</ns3:cad>
          </ns3:TrackPointExtension>
        </extensions>
      </trkpt>
      <trkpt lat="37.938248924911022186279296875" lon="-107.137168832123279571533203125">
        <ele>3651.39990234375</ele>
        <time>2026-01-06T21:30:57.000Z</time>
        <extensions>
          <ns3:TrackPointExtension>
            <ns3:hr>110</ns3:hr>
            <ns3:cad>0</ns3:cad>
          </ns3:TrackPointExtension>
        </extensions>
      </trkpt>
      <trkpt lat="37.93825554661452770233154296875" lon="-107.13718048296868801116943359375">
        <ele>3650.60009765625</ele>
        <time>2026-01-06T21:30:59.000Z</time>
        <extensions>
          <ns3:TrackPointExtension>
            <ns3:hr>111</ns3:hr>
            <ns3:cad>0</ns3:cad>
          </ns3:TrackPointExtension>
        </extensions>
      </trkpt>
      <trkpt lat="37.93826325796544551849365234375" lon="-107.137177884578704833984375">
        <ele>3650.39990234375</ele>
        <time>2026-01-06T21:31:00.000Z</time>
        <extensions>
          <ns3:TrackPointExtension>
            <ns3:hr>111</ns3:hr>
            <ns3:cad>0</ns3:cad>
          </ns3:TrackPointExtension>
        </extensions>
      </trkpt>
      <trkpt lat="37.93828287161886692047119140625" lon="-107.137177884578704833984375">
        <ele>3649.199951171875</ele>
        <time>2026-01-06T21:31:03.000Z</time>
        <extensions>
          <ns3:TrackPointExtension>
            <ns3:hr>110</ns3:hr>
            <ns3:cad>52</ns3:cad>
          </ns3:TrackPointExtension>
        </extensions>
      </trkpt>
      <trkpt lat="37.93829427100718021392822265625" lon="-107.13718115352094173431396484375">
        <ele>3648.800048828125</ele>
        <time>2026-01-06T21:31:05.000Z</time>
        <extensions>
          <ns3:TrackPointExtension>
            <ns3:hr>110</ns3:hr>
            <ns3:cad>52</ns3:cad>
          </ns3:TrackPointExtension>
        </extensions>
      </trkpt>
      <trkpt lat="37.93830684386193752288818359375" lon="-107.13721501640975475311279296875">
        <ele>3648.60009765625</ele>
        <time>2026-01-06T21:31:11.000Z</time>
        <extensions>
          <ns3:TrackPointExtension>
            <ns3:hr>110</ns3:hr>
            <ns3:cad>0</ns3:cad>
          </ns3:TrackPointExtension>
        </extensions>
      </trkpt>
      <trkpt lat="37.93831028044223785400390625" lon="-107.13724602945148944854736328125">
        <ele>3648.199951171875</ele>
        <time>2026-01-06T21:31:15.000Z</time>
        <extensions>
          <ns3:TrackPointExtension>
            <ns3:hr>110</ns3:hr>
            <ns3:cad>0</ns3:cad>
          </ns3:TrackPointExtension>
        </extensions>
      </trkpt>
      <trkpt lat="37.938311286270618438720703125" lon="-107.1372625418007373809814453125">
        <ele>3647.199951171875</ele>
        <time>2026-01-06T21:31:19.000Z</time>
        <extensions>
          <ns3:TrackPointExtension>
            <ns3:hr>111</ns3:hr>
            <ns3:cad>0</ns3:cad>
          </ns3:TrackPointExtension>
        </extensions>
      </trkpt>
      <trkpt lat="37.93831187300384044647216796875" lon="-107.13726765476167201995849609375">
        <ele>3647</ele>
        <time>2026-01-06T21:31:20.000Z</time>
        <extensions>
          <ns3:TrackPointExtension>
            <ns3:hr>110</ns3:hr>
            <ns3:cad>0</ns3:cad>
          </ns3:TrackPointExtension>
        </extensions>
      </trkpt>
      <trkpt lat="37.93831774033606052398681640625" lon="-107.13731400668621063232421875">
        <ele>3646.39990234375</ele>
        <time>2026-01-06T21:31:26.000Z</time>
        <extensions>
          <ns3:TrackPointExtension>
            <ns3:hr>112</ns3:hr>
            <ns3:cad>0</ns3:cad>
          </ns3:TrackPointExtension>
        </extensions>
      </trkpt>
      <trkpt lat="37.9383215121924877166748046875" lon="-107.1373133361339569091796875">
        <ele>3646</ele>
        <time>2026-01-06T21:31:27.000Z</time>
        <extensions>
          <ns3:TrackPointExtension>
            <ns3:hr>112</ns3:hr>
            <ns3:cad>0</ns3:cad>
          </ns3:TrackPointExtension>
        </extensions>
      </trkpt>
      <trkpt lat="37.9383245296776294708251953125" lon="-107.13731241412460803985595703125">
        <ele>3645.39990234375</ele>
        <time>2026-01-06T21:31:32.000Z</time>
        <extensions>
          <ns3:TrackPointExtension>
            <ns3:hr>113</ns3:hr>
            <ns3:cad>0</ns3:cad>
          </ns3:TrackPointExtension>
        </extensions>
      </trkpt>
      <trkpt lat="37.9383245296776294708251953125" lon="-107.13731241412460803985595703125">
        <ele>3645.800048828125</ele>
        <time>2026-01-06T21:31:38.000Z</time>
        <extensions>
          <ns3:TrackPointExtension>
            <ns3:hr>116</ns3:hr>
            <ns3:cad>0</ns3:cad>
          </ns3:TrackPointExtension>
        </extensions>
      </trkpt>
      <trkpt lat="37.93832696042954921722412109375" lon="-107.13731191121041774749755859375">
        <ele>3645.60009765625</ele>
        <time>2026-01-06T21:31:40.000Z</time>
        <extensions>
          <ns3:TrackPointExtension>
            <ns3:hr>119</ns3:hr>
            <ns3:cad>0</ns3:cad>
          </ns3:TrackPointExtension>
        </extensions>
      </trkpt>
      <trkpt lat="37.9383245296776294708251953125" lon="-107.13731241412460803985595703125">
        <ele>3645.199951171875</ele>
        <time>2026-01-06T21:31:44.000Z</time>
        <extensions>
          <ns3:TrackPointExtension>
            <ns3:hr>120</ns3:hr>
            <ns3:cad>0</ns3:cad>
          </ns3:TrackPointExtension>
        </extensions>
      </trkpt>
      <trkpt lat="37.93833316303789615631103515625" lon="-107.1373208798468112945556640625">
        <ele>3645</ele>
        <time>2026-01-06T21:31:45.000Z</time>
        <extensions>
          <ns3:TrackPointExtension>
            <ns3:hr>120</ns3:hr>
            <ns3:cad>0</ns3:cad>
          </ns3:TrackPointExtension>
        </extensions>
      </trkpt>
      <trkpt lat="37.93834623880684375762939453125" lon="-107.13734359480440616607666015625">
        <ele>3644</ele>
        <time>2026-01-06T21:31:51.000Z</time>
        <extensions>
          <ns3:TrackPointExtension>
            <ns3:hr>119</ns3:hr>
            <ns3:cad>0</ns3:cad>
          </ns3:TrackPointExtension>
        </extensions>
      </trkpt>
      <trkpt lat="37.9383490048348903656005859375" lon="-107.1373490430414676666259765625">
        <ele>3643</ele>
        <time>2026-01-06T21:31:57.000Z</time>
        <extensions>
          <ns3:TrackPointExtension>
            <ns3:hr>115</ns3:hr>
            <ns3:cad>0</ns3:cad>
          </ns3:TrackPointExtension>
        </extensions>
      </trkpt>
      <trkpt lat="37.93835453689098358154296875" lon="-107.13735281489789485931396484375">
        <ele>3643</ele>
        <time>2026-01-06T21:31:58.000Z</time>
        <extensions>
          <ns3:TrackPointExtension>
            <ns3:hr>110</ns3:hr>
            <ns3:cad>0</ns3:cad>
          </ns3:TrackPointExtension>
        </extensions>
      </trkpt>
      <trkpt lat="37.93835587799549102783203125" lon="-107.13735784403979778289794921875">
        <ele>3643.199951171875</ele>
        <time>2026-01-06T21:31:59.000Z</time>
        <extensions>
          <ns3:TrackPointExtension>
            <ns3:hr>107</ns3:hr>
            <ns3:cad>0</ns3:cad>
          </ns3:TrackPointExtension>
        </extensions>
      </trkpt>
      <trkpt lat="37.93835797347128391265869140625" lon="-107.13735918514430522918701171875">
        <ele>3643</ele>
        <time>2026-01-06T21:32:00.000Z</time>
        <extensions>
          <ns3:TrackPointExtension>
            <ns3:hr>103</ns3:hr>
            <ns3:cad>0</ns3:cad>
          </ns3:TrackPointExtension>
        </extensions>
      </trkpt>
      <trkpt lat="37.938359566032886505126953125" lon="-107.13736136443912982940673828125">
        <ele>3642.800048828125</ele>
        <time>2026-01-06T21:32:02.000Z</time>
        <extensions>
          <ns3:TrackPointExtension>
            <ns3:hr>100</ns3:hr>
            <ns3:cad>0</ns3:cad>
          </ns3:TrackPointExtension>
        </extensions>
      </trkpt>
      <trkpt lat="37.938359566032886505126953125" lon="-107.13736136443912982940673828125">
        <ele>3642.60009765625</ele>
        <time>2026-01-06T21:32:07.000Z</time>
        <extensions>
          <ns3:TrackPointExtension>
            <ns3:hr>99</ns3:hr>
            <ns3:cad>0</ns3:cad>
          </ns3:TrackPointExtension>
        </extensions>
      </trkpt>
      <trkpt lat="37.93837423436343669891357421875" lon="-107.13736874051392078399658203125">
        <ele>3641.800048828125</ele>
        <time>2026-01-06T21:32:13.000Z</time>
        <extensions>
          <ns3:TrackPointExtension>
            <ns3:hr>100</ns3:hr>
            <ns3:cad>0</ns3:cad>
          </ns3:TrackPointExtension>
        </extensions>
      </trkpt>
      <trkpt lat="37.93837758712470531463623046875" lon="-107.137371338903903961181640625">
        <ele>3641.60009765625</ele>
        <time>2026-01-06T21:32:14.000Z</time>
        <extensions>
          <ns3:TrackPointExtension>
            <ns3:hr>100</ns3:hr>
            <ns3:cad>0</ns3:cad>
          </ns3:TrackPointExtension>
        </extensions>
      </trkpt>
      <trkpt lat="37.9383771680295467376708984375" lon="-107.13737167418003082275390625">
        <ele>3641.199951171875</ele>
        <time>2026-01-06T21:32:20.000Z</time>
        <extensions>
          <ns3:TrackPointExtension>
            <ns3:hr>101</ns3:hr>
            <ns3:cad>0</ns3:cad>
          </ns3:TrackPointExtension>
        </extensions>
      </trkpt>
      <trkpt lat="37.9383771680295467376708984375" lon="-107.13737167418003082275390625">
        <ele>3641.199951171875</ele>
        <time>2026-01-06T21:32:22.000Z</time>
        <extensions>
          <ns3:TrackPointExtension>
            <ns3:hr>102</ns3:hr>
            <ns3:cad>0</ns3:cad>
          </ns3:TrackPointExtension>
        </extensions>
      </trkpt>
      <trkpt lat="37.9383771680295467376708984375" lon="-107.13737167418003082275390625">
        <ele>3641</ele>
        <time>2026-01-06T21:32:27.000Z</time>
        <extensions>
          <ns3:TrackPointExtension>
            <ns3:hr>105</ns3:hr>
            <ns3:cad>0</ns3:cad>
          </ns3:TrackPointExtension>
        </extensions>
      </trkpt>
      <trkpt lat="37.9383771680295467376708984375" lon="-107.13737167418003082275390625">
        <ele>3640.800048828125</ele>
        <time>2026-01-06T21:32:30.000Z</time>
        <extensions>
          <ns3:TrackPointExtension>
            <ns3:hr>106</ns3:hr>
            <ns3:cad>0</ns3:cad>
          </ns3:TrackPointExtension>
        </extensions>
      </trkpt>
      <trkpt lat="37.93839954771101474761962890625" lon="-107.13738868944346904754638671875">
        <ele>3639.60009765625</ele>
        <time>2026-01-06T21:32:35.000Z</time>
        <extensions>
          <ns3:TrackPointExtension>
            <ns3:hr>107</ns3:hr>
            <ns3:cad>0</ns3:cad>
          </ns3:TrackPointExtension>
        </extensions>
      </trkpt>
      <trkpt lat="37.938400804996490478515625" lon="-107.137390784919261932373046875">
        <ele>3639.39990234375</ele>
        <time>2026-01-06T21:32:37.000Z</time>
        <extensions>
          <ns3:TrackPointExtension>
            <ns3:hr>107</ns3:hr>
            <ns3:cad>0</ns3:cad>
          </ns3:TrackPointExtension>
        </extensions>
      </trkpt>
      <trkpt lat="37.9384009726345539093017578125" lon="-107.137390784919261932373046875">
        <ele>3639.199951171875</ele>
        <time>2026-01-06T21:32:38.000Z</time>
        <extensions>
          <ns3:TrackPointExtension>
            <ns3:hr>106</ns3:hr>
            <ns3:cad>0</ns3:cad>
          </ns3:TrackPointExtension>
        </extensions>
      </trkpt>
      <trkpt lat="37.938400804996490478515625" lon="-107.137390784919261932373046875">
        <ele>3638.39990234375</ele>
        <time>2026-01-06T21:32:44.000Z</time>
        <extensions>
          <ns3:TrackPointExtension>
            <ns3:hr>108</ns3:hr>
            <ns3:cad>0</ns3:cad>
          </ns3:TrackPointExtension>
        </extensions>
      </trkpt>
      <trkpt lat="37.938400804996490478515625" lon="-107.137390784919261932373046875">
        <ele>3638.39990234375</ele>
        <time>2026-01-06T21:32:45.000Z</time>
        <extensions>
          <ns3:TrackPointExtension>
            <ns3:hr>108</ns3:hr>
            <ns3:cad>0</ns3:cad>
          </ns3:TrackPointExtension>
        </extensions>
      </trkpt>
      <trkpt lat="37.93841161765158176422119140625" lon="-107.137401513755321502685546875">
        <ele>3638.60009765625</ele>
        <time>2026-01-06T21:32:51.000Z</time>
        <extensions>
          <ns3:TrackPointExtension>
            <ns3:hr>110</ns3:hr>
            <ns3:cad>0</ns3:cad>
          </ns3:TrackPointExtension>
        </extensions>
      </trkpt>
      <trkpt lat="37.938411869108676910400390625" lon="-107.13740159757435321807861328125">
        <ele>3638.60009765625</ele>
        <time>2026-01-06T21:32:52.000Z</time>
        <extensions>
          <ns3:TrackPointExtension>
            <ns3:hr>114</ns3:hr>
            <ns3:cad>0</ns3:cad>
          </ns3:TrackPointExtension>
        </extensions>
      </trkpt>
      <trkpt lat="37.938411869108676910400390625" lon="-107.13740159757435321807861328125">
        <ele>3638.60009765625</ele>
        <time>2026-01-06T21:32:53.000Z</time>
        <extensions>
          <ns3:TrackPointExtension>
            <ns3:hr>120</ns3:hr>
            <ns3:cad>0</ns3:cad>
          </ns3:TrackPointExtension>
        </extensions>
      </trkpt>
      <trkpt lat="37.938411869108676910400390625" lon="-107.13740159757435321807861328125">
        <ele>3638.39990234375</ele>
        <time>2026-01-06T21:32:55.000Z</time>
        <extensions>
          <ns3:TrackPointExtension>
            <ns3:hr>122</ns3:hr>
            <ns3:cad>0</ns3:cad>
          </ns3:TrackPointExtension>
        </extensions>
      </trkpt>
      <trkpt lat="37.938411869108676910400390625" lon="-107.13740159757435321807861328125">
        <ele>3638.199951171875</ele>
        <time>2026-01-06T21:33:01.000Z</time>
        <extensions>
          <ns3:TrackPointExtension>
            <ns3:hr>121</ns3:hr>
            <ns3:cad>0</ns3:cad>
          </ns3:TrackPointExtension>
        </extensions>
      </trkpt>
      <trkpt lat="37.938411869108676910400390625" lon="-107.13740159757435321807861328125">
        <ele>3638.199951171875</ele>
        <time>2026-01-06T21:33:02.000Z</time>
        <extensions>
          <ns3:TrackPointExtension>
            <ns3:hr>121</ns3:hr>
            <ns3:cad>0</ns3:cad>
          </ns3:TrackPointExtension>
        </extensions>
      </trkpt>
      <trkpt lat="37.938411869108676910400390625" lon="-107.13740159757435321807861328125">
        <ele>3637.60009765625</ele>
        <time>2026-01-06T21:33:08.000Z</time>
        <extensions>
          <ns3:TrackPointExtension>
            <ns3:hr>119</ns3:hr>
            <ns3:cad>0</ns3:cad>
          </ns3:TrackPointExtension>
        </extensions>
      </trkpt>
      <trkpt lat="37.9384224303066730499267578125" lon="-107.13741249404847621917724609375">
        <ele>3637.39990234375</ele>
        <time>2026-01-06T21:33:09.000Z</time>
        <extensions>
          <ns3:TrackPointExtension>
            <ns3:hr>119</ns3:hr>
            <ns3:cad>0</ns3:cad>
          </ns3:TrackPointExtension>
        </extensions>
      </trkpt>
      <trkpt lat="37.93842301703989505767822265625" lon="-107.1374125778675079345703125">
        <ele>3637.199951171875</ele>
        <time>2026-01-06T21:33:10.000Z</time>
        <extensions>
          <ns3:TrackPointExtension>
            <ns3:hr>118</ns3:hr>
            <ns3:cad>0</ns3:cad>
          </ns3:TrackPointExtension>
        </extensions>
      </trkpt>
      <trkpt lat="37.93842301703989505767822265625" lon="-107.1374125778675079345703125">
        <ele>3637.39990234375</ele>
        <time>2026-01-06T21:33:16.000Z</time>
        <extensions>
          <ns3:TrackPointExtension>
            <ns3:hr>116</ns3:hr>
            <ns3:cad>0</ns3:cad>
          </ns3:TrackPointExtension>
        </extensions>
      </trkpt>
      <trkpt lat="37.93842469342052936553955078125" lon="-107.13741417042911052703857421875">
        <ele>3637.39990234375</ele>
        <time>2026-01-06T21:33:18.000Z</time>
        <extensions>
          <ns3:TrackPointExtension>
            <ns3:hr>114</ns3:hr>
            <ns3:cad>0</ns3:cad>
          </ns3:TrackPointExtension>
        </extensions>
      </trkpt>
      <trkpt lat="37.93843391351401805877685546875" lon="-107.1374254859983921051025390625">
        <ele>3637.199951171875</ele>
        <time>2026-01-06T21:33:20.000Z</time>
        <extensions>
          <ns3:TrackPointExtension>
            <ns3:hr>111</ns3:hr>
            <ns3:cad>0</ns3:cad>
          </ns3:TrackPointExtension>
        </extensions>
      </trkpt>
      <trkpt lat="37.93844816274940967559814453125" lon="-107.137426994740962982177734375">
        <ele>3636.39990234375</ele>
        <time>2026-01-06T21:33:25.000Z</time>
        <extensions>
          <ns3:TrackPointExtension>
            <ns3:hr>111</ns3:hr>
            <ns3:cad>0</ns3:cad>
          </ns3:TrackPointExtension>
        </extensions>
      </trkpt>
      <trkpt lat="37.9384499229490756988525390625" lon="-107.13742741383612155914306640625">
        <ele>3636.39990234375</ele>
        <time>2026-01-06T21:33:26.000Z</time>
        <extensions>
          <ns3:TrackPointExtension>
            <ns3:hr>112</ns3:hr>
            <ns3:cad>0</ns3:cad>
          </ns3:TrackPointExtension>
        </extensions>
      </trkpt>
      <trkpt lat="37.93845084495842456817626953125" lon="-107.13742942549288272857666015625">
        <ele>3635.800048828125</ele>
        <time>2026-01-06T21:33:30.000Z</time>
        <extensions>
          <ns3:TrackPointExtension>
            <ns3:hr>115</ns3:hr>
            <ns3:cad>0</ns3:cad>
          </ns3:TrackPointExtension>
        </extensions>
      </trkpt>
      <trkpt lat="37.93845084495842456817626953125" lon="-107.13742942549288272857666015625">
        <ele>3635.60009765625</ele>
        <time>2026-01-06T21:33:33.000Z</time>
        <extensions>
          <ns3:TrackPointExtension>
            <ns3:hr>115</ns3:hr>
            <ns3:cad>0</ns3:cad>
          </ns3:TrackPointExtension>
        </extensions>
      </trkpt>
      <trkpt lat="37.93845084495842456817626953125" lon="-107.13742942549288272857666015625">
        <ele>3635.39990234375</ele>
        <time>2026-01-06T21:33:37.000Z</time>
        <extensions>
          <ns3:TrackPointExtension>
            <ns3:hr>114</ns3:hr>
            <ns3:cad>0</ns3:cad>
          </ns3:TrackPointExtension>
        </extensions>
      </trkpt>
      <trkpt lat="37.93845084495842456817626953125" lon="-107.13742942549288272857666015625">
        <ele>3635</ele>
        <time>2026-01-06T21:33:40.000Z</time>
        <extensions>
          <ns3:TrackPointExtension>
            <ns3:hr>114</ns3:hr>
            <ns3:cad>0</ns3:cad>
          </ns3:TrackPointExtension>
        </extensions>
      </trkpt>
      <trkpt lat="37.93845084495842456817626953125" lon="-107.13742942549288272857666015625">
        <ele>3635</ele>
        <time>2026-01-06T21:33:46.000Z</time>
        <extensions>
          <ns3:TrackPointExtension>
            <ns3:hr>113</ns3:hr>
            <ns3:cad>0</ns3:cad>
          </ns3:TrackPointExtension>
        </extensions>
      </trkpt>
      <trkpt lat="37.93845084495842456817626953125" lon="-107.13742942549288272857666015625">
        <ele>3635</ele>
        <time>2026-01-06T21:33:51.000Z</time>
        <extensions>
          <ns3:TrackPointExtension>
            <ns3:hr>113</ns3:hr>
            <ns3:cad>0</ns3:cad>
          </ns3:TrackPointExtension>
        </extensions>
      </trkpt>
      <trkpt lat="37.93845084495842456817626953125" lon="-107.13742942549288272857666015625">
        <ele>3635</ele>
        <time>2026-01-06T21:33:57.000Z</time>
        <extensions>
          <ns3:TrackPointExtension>
            <ns3:hr>112</ns3:hr>
            <ns3:cad>0</ns3:cad>
          </ns3:TrackPointExtension>
        </extensions>
      </trkpt>
      <trkpt lat="37.93845084495842456817626953125" lon="-107.13742942549288272857666015625">
        <ele>3634.800048828125</ele>
        <time>2026-01-06T21:34:00.000Z</time>
        <extensions>
          <ns3:TrackPointExtension>
            <ns3:hr>109</ns3:hr>
            <ns3:cad>0</ns3:cad>
          </ns3:TrackPointExtension>
        </extensions>
      </trkpt>
      <trkpt lat="37.93845084495842456817626953125" lon="-107.13742942549288272857666015625">
        <ele>3634.800048828125</ele>
        <time>2026-01-06T21:34:01.000Z</time>
        <extensions>
          <ns3:TrackPointExtension>
            <ns3:hr>108</ns3:hr>
            <ns3:cad>0</ns3:cad>
          </ns3:TrackPointExtension>
        </extensions>
      </trkpt>
      <trkpt lat="37.93845084495842456817626953125" lon="-107.13742942549288272857666015625">
        <ele>3634.800048828125</ele>
        <time>2026-01-06T21:34:03.000Z</time>
        <extensions>
          <ns3:TrackPointExtension>
            <ns3:hr>105</ns3:hr>
            <ns3:cad>0</ns3:cad>
          </ns3:TrackPointExtension>
        </extensions>
      </trkpt>
      <trkpt lat="37.93845084495842456817626953125" lon="-107.13742942549288272857666015625">
        <ele>3635</ele>
        <time>2026-01-06T21:34:09.000Z</time>
        <extensions>
          <ns3:TrackPointExtension>
            <ns3:hr>104</ns3:hr>
            <ns3:cad>0</ns3:cad>
          </ns3:TrackPointExtension>
        </extensions>
      </trkpt>
      <trkpt lat="37.93845084495842456817626953125" lon="-107.13742942549288272857666015625">
        <ele>3634.800048828125</ele>
        <time>2026-01-06T21:34:15.000Z</time>
        <extensions>
          <ns3:TrackPointExtension>
            <ns3:hr>104</ns3:hr>
            <ns3:cad>0</ns3:cad>
          </ns3:TrackPointExtension>
        </extensions>
      </trkpt>
      <trkpt lat="37.93845084495842456817626953125" lon="-107.13742942549288272857666015625">
        <ele>3634.60009765625</ele>
        <time>2026-01-06T21:34:17.000Z</time>
        <extensions>
          <ns3:TrackPointExtension>
            <ns3:hr>105</ns3:hr>
            <ns3:cad>0</ns3:cad>
          </ns3:TrackPointExtension>
        </extensions>
      </trkpt>
      <trkpt lat="37.93845084495842456817626953125" lon="-107.13742942549288272857666015625">
        <ele>3634.60009765625</ele>
        <time>2026-01-06T21:34:23.000Z</time>
        <extensions>
          <ns3:TrackPointExtension>
            <ns3:hr>105</ns3:hr>
            <ns3:cad>0</ns3:cad>
          </ns3:TrackPointExtension>
        </extensions>
      </trkpt>
      <trkpt lat="37.93845084495842456817626953125" lon="-107.13742942549288272857666015625">
        <ele>3634.39990234375</ele>
        <time>2026-01-06T21:34:27.000Z</time>
        <extensions>
          <ns3:TrackPointExtension>
            <ns3:hr>106</ns3:hr>
            <ns3:cad>0</ns3:cad>
          </ns3:TrackPointExtension>
        </extensions>
      </trkpt>
      <trkpt lat="37.93845084495842456817626953125" lon="-107.13742942549288272857666015625">
        <ele>3634.39990234375</ele>
        <time>2026-01-06T21:34:30.000Z</time>
        <extensions>
          <ns3:TrackPointExtension>
            <ns3:hr>106</ns3:hr>
            <ns3:cad>0</ns3:cad>
          </ns3:TrackPointExtension>
        </extensions>
      </trkpt>
      <trkpt lat="37.93845084495842456817626953125" lon="-107.13742942549288272857666015625">
        <ele>3633.800048828125</ele>
        <time>2026-01-06T21:34:35.000Z</time>
        <extensions>
          <ns3:TrackPointExtension>
            <ns3:hr>106</ns3:hr>
            <ns3:cad>0</ns3:cad>
          </ns3:TrackPointExtension>
        </extensions>
      </trkpt>
      <trkpt lat="37.93845084495842456817626953125" lon="-107.13742942549288272857666015625">
        <ele>3633.800048828125</ele>
        <time>2026-01-06T21:34:40.000Z</time>
        <extensions>
          <ns3:TrackPointExtension>
            <ns3:hr>103</ns3:hr>
            <ns3:cad>0</ns3:cad>
          </ns3:TrackPointExtension>
        </extensions>
      </trkpt>
      <trkpt lat="37.93845939449965953826904296875" lon="-107.13744317181408405303955078125">
        <ele>3633.39990234375</ele>
        <time>2026-01-06T21:34:45.000Z</time>
        <extensions>
          <ns3:TrackPointExtension>
            <ns3:hr>100</ns3:hr>
            <ns3:cad>0</ns3:cad>
          </ns3:TrackPointExtension>
        </extensions>
      </trkpt>
      <trkpt lat="37.9384596459567546844482421875" lon="-107.1374435909092426300048828125">
        <ele>3633.39990234375</ele>
        <time>2026-01-06T21:34:46.000Z</time>
        <extensions>
          <ns3:TrackPointExtension>
            <ns3:hr>100</ns3:hr>
            <ns3:cad>0</ns3:cad>
          </ns3:TrackPointExtension>
        </extensions>
      </trkpt>
      <trkpt lat="37.9384599812328815460205078125" lon="-107.13744409382343292236328125">
        <ele>3633.39990234375</ele>
        <time>2026-01-06T21:34:47.000Z</time>
        <extensions>
          <ns3:TrackPointExtension>
            <ns3:hr>100</ns3:hr>
            <ns3:cad>0</ns3:cad>
          </ns3:TrackPointExtension>
        </extensions>
      </trkpt>
      <trkpt lat="37.9384787566959857940673828125" lon="-107.13745859451591968536376953125">
        <ele>3633.199951171875</ele>
        <time>2026-01-06T21:34:50.000Z</time>
        <extensions>
          <ns3:TrackPointExtension>
            <ns3:hr>100</ns3:hr>
            <ns3:cad>0</ns3:cad>
          </ns3:TrackPointExtension>
        </extensions>
      </trkpt>
      <trkpt lat="37.93847884051501750946044921875" lon="-107.13746412657201290130615234375">
        <ele>3633</ele>
        <time>2026-01-06T21:34:52.000Z</time>
        <extensions>
          <ns3:TrackPointExtension>
            <ns3:hr>100</ns3:hr>
            <ns3:cad>0</ns3:cad>
          </ns3:TrackPointExtension>
        </extensions>
      </trkpt>
      <trkpt lat="37.93847884051501750946044921875" lon="-107.13746429421007633209228515625">
        <ele>3633.60009765625</ele>
        <time>2026-01-06T21:34:56.000Z</time>
        <extensions>
          <ns3:TrackPointExtension>
            <ns3:hr>103</ns3:hr>
            <ns3:cad>0</ns3:cad>
          </ns3:TrackPointExtension>
        </extensions>
      </trkpt>
      <trkpt lat="37.93847884051501750946044921875" lon="-107.13746429421007633209228515625">
        <ele>3633.60009765625</ele>
        <time>2026-01-06T21:34:59.000Z</time>
        <extensions>
          <ns3:TrackPointExtension>
            <ns3:hr>105</ns3:hr>
            <ns3:cad>0</ns3:cad>
          </ns3:TrackPointExtension>
        </extensions>
      </trkpt>
      <trkpt lat="37.93847884051501750946044921875" lon="-107.13746429421007633209228515625">
        <ele>3632.800048828125</ele>
        <time>2026-01-06T21:35:05.000Z</time>
        <extensions>
          <ns3:TrackPointExtension>
            <ns3:hr>105</ns3:hr>
            <ns3:cad>0</ns3:cad>
          </ns3:TrackPointExtension>
        </extensions>
      </trkpt>
      <trkpt lat="37.93847884051501750946044921875" lon="-107.13746429421007633209228515625">
        <ele>3633</ele>
        <time>2026-01-06T21:35:11.000Z</time>
        <extensions>
          <ns3:TrackPointExtension>
            <ns3:hr>103</ns3:hr>
            <ns3:cad>0</ns3:cad>
          </ns3:TrackPointExtension>
        </extensions>
      </trkpt>
      <trkpt lat="37.93847884051501750946044921875" lon="-107.13746429421007633209228515625">
        <ele>3632.800048828125</ele>
        <time>2026-01-06T21:35:17.000Z</time>
        <extensions>
          <ns3:TrackPointExtension>
            <ns3:hr>102</ns3:hr>
            <ns3:cad>0</ns3:cad>
          </ns3:TrackPointExtension>
        </extensions>
      </trkpt>
      <trkpt lat="37.93847884051501750946044921875" lon="-107.13746429421007633209228515625">
        <ele>3632</ele>
        <time>2026-01-06T21:35:20.000Z</time>
        <extensions>
          <ns3:TrackPointExtension>
            <ns3:hr>102</ns3:hr>
            <ns3:cad>0</ns3:cad>
          </ns3:TrackPointExtension>
        </extensions>
      </trkpt>
      <trkpt lat="37.93847884051501750946044921875" lon="-107.13746429421007633209228515625">
        <ele>3631.800048828125</ele>
        <time>2026-01-06T21:35:26.000Z</time>
        <extensions>
          <ns3:TrackPointExtension>
            <ns3:hr>102</ns3:hr>
            <ns3:cad>0</ns3:cad>
          </ns3:TrackPointExtension>
        </extensions>
      </trkpt>
      <trkpt lat="37.93847884051501750946044921875" lon="-107.13746429421007633209228515625">
        <ele>3631.60009765625</ele>
        <time>2026-01-06T21:35:28.000Z</time>
        <extensions>
          <ns3:TrackPointExtension>
            <ns3:hr>103</ns3:hr>
            <ns3:cad>0</ns3:cad>
          </ns3:TrackPointExtension>
        </extensions>
      </trkpt>
      <trkpt lat="37.93847884051501750946044921875" lon="-107.13746429421007633209228515625">
        <ele>3631</ele>
        <time>2026-01-06T21:35:34.000Z</time>
        <extensions>
          <ns3:TrackPointExtension>
            <ns3:hr>103</ns3:hr>
            <ns3:cad>0</ns3:cad>
          </ns3:TrackPointExtension>
        </extensions>
      </trkpt>
      <trkpt lat="37.93847884051501750946044921875" lon="-107.13746429421007633209228515625">
        <ele>3631</ele>
        <time>2026-01-06T21:35:35.000Z</time>
        <extensions>
          <ns3:TrackPointExtension>
            <ns3:hr>103</ns3:hr>
            <ns3:cad>0</ns3:cad>
          </ns3:TrackPointExtension>
        </extensions>
      </trkpt>
      <trkpt lat="37.93847884051501750946044921875" lon="-107.13746429421007633209228515625">
        <ele>3630.800048828125</ele>
        <time>2026-01-06T21:35:37.000Z</time>
        <extensions>
          <ns3:TrackPointExtension>
            <ns3:hr>104</ns3:hr>
            <ns3:cad>0</ns3:cad>
          </ns3:TrackPointExtension>
        </extensions>
      </trkpt>
      <trkpt lat="37.93847884051501750946044921875" lon="-107.13746429421007633209228515625">
        <ele>3631</ele>
        <time>2026-01-06T21:35:43.000Z</time>
        <extensions>
          <ns3:TrackPointExtension>
            <ns3:hr>104</ns3:hr>
            <ns3:cad>0</ns3:cad>
          </ns3:TrackPointExtension>
        </extensions>
      </trkpt>
      <trkpt lat="37.93847884051501750946044921875" lon="-107.13746429421007633209228515625">
        <ele>3630.199951171875</ele>
        <time>2026-01-06T21:35:49.000Z</time>
        <extensions>
          <ns3:TrackPointExtension>
            <ns3:hr>104</ns3:hr>
            <ns3:cad>0</ns3:cad>
          </ns3:TrackPointExtension>
        </extensions>
      </trkpt>
      <trkpt lat="37.93847884051501750946044921875" lon="-107.13746429421007633209228515625">
        <ele>3630.60009765625</ele>
        <time>2026-01-06T21:35:55.000Z</time>
        <extensions>
          <ns3:TrackPointExtension>
            <ns3:hr>104</ns3:hr>
            <ns3:cad>0</ns3:cad>
          </ns3:TrackPointExtension>
        </extensions>
      </trkpt>
      <trkpt lat="37.93847884051501750946044921875" lon="-107.13746429421007633209228515625">
        <ele>3630.800048828125</ele>
        <time>2026-01-06T21:35:58.000Z</time>
        <extensions>
          <ns3:TrackPointExtension>
            <ns3:hr>104</ns3:hr>
            <ns3:cad>0</ns3:cad>
          </ns3:TrackPointExtension>
        </extensions>
      </trkpt>
      <trkpt lat="37.93847884051501750946044921875" lon="-107.13746429421007633209228515625">
        <ele>3631</ele>
        <time>2026-01-06T21:36:01.000Z</time>
        <extensions>
          <ns3:TrackPointExtension>
            <ns3:hr>109</ns3:hr>
            <ns3:cad>0</ns3:cad>
          </ns3:TrackPointExtension>
        </extensions>
      </trkpt>
      <trkpt lat="37.93847884051501750946044921875" lon="-107.13746429421007633209228515625">
        <ele>3630.800048828125</ele>
        <time>2026-01-06T21:36:02.000Z</time>
        <extensions>
          <ns3:TrackPointExtension>
            <ns3:hr>112</ns3:hr>
            <ns3:cad>0</ns3:cad>
          </ns3:TrackPointExtension>
        </extensions>
      </trkpt>
      <trkpt lat="37.93847884051501750946044921875" lon="-107.13746429421007633209228515625">
        <ele>3630.199951171875</ele>
        <time>2026-01-06T21:36:04.000Z</time>
        <extensions>
          <ns3:TrackPointExtension>
            <ns3:hr>115</ns3:hr>
            <ns3:cad>0</ns3:cad>
          </ns3:TrackPointExtension>
        </extensions>
      </trkpt>
      <trkpt lat="37.93847884051501750946044921875" lon="-107.13746429421007633209228515625">
        <ele>3630</ele>
        <time>2026-01-06T21:36:06.000Z</time>
        <extensions>
          <ns3:TrackPointExtension>
            <ns3:hr>114</ns3:hr>
            <ns3:cad>0</ns3:cad>
          </ns3:TrackPointExtension>
        </extensions>
      </trkpt>
      <trkpt lat="37.93847884051501750946044921875" lon="-107.13746429421007633209228515625">
        <ele>3630</ele>
        <time>2026-01-06T21:36:08.000Z</time>
        <extensions>
          <ns3:TrackPointExtension>
            <ns3:hr>114</ns3:hr>
            <ns3:cad>0</ns3:cad>
          </ns3:TrackPointExtension>
        </extensions>
      </trkpt>
      <trkpt lat="37.93847884051501750946044921875" lon="-107.13746429421007633209228515625">
        <ele>3630.60009765625</ele>
        <time>2026-01-06T21:36:14.000Z</time>
        <extensions>
          <ns3:TrackPointExtension>
            <ns3:hr>111</ns3:hr>
            <ns3:cad>0</ns3:cad>
          </ns3:TrackPointExtension>
        </extensions>
      </trkpt>
      <trkpt lat="37.93849409557878971099853515625" lon="-107.137462198734283447265625">
        <ele>3630.800048828125</ele>
        <time>2026-01-06T21:36:17.000Z</time>
        <extensions>
          <ns3:TrackPointExtension>
            <ns3:hr>111</ns3:hr>
            <ns3:cad>0</ns3:cad>
          </ns3:TrackPointExtension>
        </extensions>
      </trkpt>
      <trkpt lat="37.93849409557878971099853515625" lon="-107.137462198734283447265625">
        <ele>3631</ele>
        <time>2026-01-06T21:36:18.000Z</time>
        <extensions>
          <ns3:TrackPointExtension>
            <ns3:hr>111</ns3:hr>
            <ns3:cad>0</ns3:cad>
          </ns3:TrackPointExtension>
        </extensions>
      </trkpt>
      <trkpt lat="37.93849409557878971099853515625" lon="-107.137462198734283447265625">
        <ele>3631.39990234375</ele>
        <time>2026-01-06T21:36:24.000Z</time>
        <extensions>
          <ns3:TrackPointExtension>
            <ns3:hr>114</ns3:hr>
            <ns3:cad>0</ns3:cad>
          </ns3:TrackPointExtension>
        </extensions>
      </trkpt>
      <trkpt lat="37.93850733898580074310302734375" lon="-107.1374643780291080474853515625">
        <ele>3630.800048828125</ele>
        <time>2026-01-06T21:36:27.000Z</time>
        <extensions>
          <ns3:TrackPointExtension>
            <ns3:hr>113</ns3:hr>
            <ns3:cad>0</ns3:cad>
          </ns3:TrackPointExtension>
        </extensions>
      </trkpt>
      <trkpt lat="37.938517816364765167236328125" lon="-107.13746152818202972412109375">
        <ele>3629.800048828125</ele>
        <time>2026-01-06T21:36:31.000Z</time>
        <extensions>
          <ns3:TrackPointExtension>
            <ns3:hr>112</ns3:hr>
            <ns3:cad>0</ns3:cad>
          </ns3:TrackPointExtension>
        </extensions>
      </trkpt>
      <trkpt lat="37.938517816364765167236328125" lon="-107.13746152818202972412109375">
        <ele>3629.60009765625</ele>
        <time>2026-01-06T21:36:35.000Z</time>
        <extensions>
          <ns3:TrackPointExtension>
            <ns3:hr>112</ns3:hr>
            <ns3:cad>0</ns3:cad>
          </ns3:TrackPointExtension>
        </extensions>
      </trkpt>
      <trkpt lat="37.938517816364765167236328125" lon="-107.13746152818202972412109375">
        <ele>3629.800048828125</ele>
        <time>2026-01-06T21:36:41.000Z</time>
        <extensions>
          <ns3:TrackPointExtension>
            <ns3:hr>112</ns3:hr>
            <ns3:cad>0</ns3:cad>
          </ns3:TrackPointExtension>
        </extensions>
      </trkpt>
      <trkpt lat="37.9385226778686046600341796875" lon="-107.13746898807585239410400390625">
        <ele>3630</ele>
        <time>2026-01-06T21:36:44.000Z</time>
        <extensions>
          <ns3:TrackPointExtension>
            <ns3:hr>112</ns3:hr>
            <ns3:cad>0</ns3:cad>
          </ns3:TrackPointExtension>
        </extensions>
      </trkpt>
      <trkpt lat="37.93852963484823703765869140625" lon="-107.13747669942677021026611328125">
        <ele>3629.60009765625</ele>
        <time>2026-01-06T21:36:48.000Z</time>
        <extensions>
          <ns3:TrackPointExtension>
            <ns3:hr>109</ns3:hr>
            <ns3:cad>0</ns3:cad>
          </ns3:TrackPointExtension>
        </extensions>
      </trkpt>
      <trkpt lat="37.93852963484823703765869140625" lon="-107.13747669942677021026611328125">
        <ele>3629.39990234375</ele>
        <time>2026-01-06T21:36:50.000Z</time>
        <extensions>
          <ns3:TrackPointExtension>
            <ns3:hr>105</ns3:hr>
            <ns3:cad>0</ns3:cad>
          </ns3:TrackPointExtension>
        </extensions>
      </trkpt>
      <trkpt lat="37.93853080831468105316162109375" lon="-107.13748089037835597991943359375">
        <ele>3629.39990234375</ele>
        <time>2026-01-06T21:36:52.000Z</time>
        <extensions>
          <ns3:TrackPointExtension>
            <ns3:hr>106</ns3:hr>
            <ns3:cad>0</ns3:cad>
          </ns3:TrackPointExtension>
        </extensions>
      </trkpt>
      <trkpt lat="37.93852963484823703765869140625" lon="-107.13747669942677021026611328125">
        <ele>3629.199951171875</ele>
        <time>2026-01-06T21:36:54.000Z</time>
        <extensions>
          <ns3:TrackPointExtension>
            <ns3:hr>109</ns3:hr>
            <ns3:cad>0</ns3:cad>
          </ns3:TrackPointExtension>
        </extensions>
      </trkpt>
      <trkpt lat="37.93853365816175937652587890625" lon="-107.1374868415296077728271484375">
        <ele>3629.199951171875</ele>
        <time>2026-01-06T21:37:00.000Z</time>
        <extensions>
          <ns3:TrackPointExtension>
            <ns3:hr>111</ns3:hr>
            <ns3:cad>0</ns3:cad>
          </ns3:TrackPointExtension>
        </extensions>
      </trkpt>
      <trkpt lat="37.9385317303240299224853515625" lon="-107.1374868415296077728271484375">
        <ele>3629</ele>
        <time>2026-01-06T21:37:01.000Z</time>
        <extensions>
          <ns3:TrackPointExtension>
            <ns3:hr>108</ns3:hr>
            <ns3:cad>0</ns3:cad>
          </ns3:TrackPointExtension>
        </extensions>
      </trkpt>
      <trkpt lat="37.9385335743427276611328125" lon="-107.13749237358570098876953125">
        <ele>3628.800048828125</ele>
        <time>2026-01-06T21:37:02.000Z</time>
        <extensions>
          <ns3:TrackPointExtension>
            <ns3:hr>107</ns3:hr>
            <ns3:cad>0</ns3:cad>
          </ns3:TrackPointExtension>
        </extensions>
      </trkpt>
      <trkpt lat="37.93853298760950565338134765625" lon="-107.13749296031892299652099609375">
        <ele>3628.60009765625</ele>
        <time>2026-01-06T21:37:03.000Z</time>
        <extensions>
          <ns3:TrackPointExtension>
            <ns3:hr>101</ns3:hr>
            <ns3:cad>0</ns3:cad>
          </ns3:TrackPointExtension>
        </extensions>
      </trkpt>
      <trkpt lat="37.93853332288563251495361328125" lon="-107.137495391070842742919921875">
        <ele>3628.39990234375</ele>
        <time>2026-01-06T21:37:04.000Z</time>
        <extensions>
          <ns3:TrackPointExtension>
            <ns3:hr>94</ns3:hr>
            <ns3:cad>0</ns3:cad>
          </ns3:TrackPointExtension>
        </extensions>
      </trkpt>
      <trkpt lat="37.93853332288563251495361328125" lon="-107.13749547488987445831298828125">
        <ele>3628.39990234375</ele>
        <time>2026-01-06T21:37:05.000Z</time>
        <extensions>
          <ns3:TrackPointExtension>
            <ns3:hr>90</ns3:hr>
            <ns3:cad>0</ns3:cad>
          </ns3:TrackPointExtension>
        </extensions>
      </trkpt>
      <trkpt lat="37.93853332288563251495361328125" lon="-107.13749547488987445831298828125">
        <ele>3628.39990234375</ele>
        <time>2026-01-06T21:37:06.000Z</time>
        <extensions>
          <ns3:TrackPointExtension>
            <ns3:hr>87</ns3:hr>
            <ns3:cad>0</ns3:cad>
          </ns3:TrackPointExtension>
        </extensions>
      </trkpt>
      <trkpt lat="37.93853332288563251495361328125" lon="-107.13749547488987445831298828125">
        <ele>3628.60009765625</ele>
        <time>2026-01-06T21:37:09.000Z</time>
        <extensions>
          <ns3:TrackPointExtension>
            <ns3:hr>84</ns3:hr>
            <ns3:cad>0</ns3:cad>
          </ns3:TrackPointExtension>
        </extensions>
      </trkpt>
      <trkpt lat="37.93853332288563251495361328125" lon="-107.13749547488987445831298828125">
        <ele>3629</ele>
        <time>2026-01-06T21:37:14.000Z</time>
        <extensions>
          <ns3:TrackPointExtension>
            <ns3:hr>81</ns3:hr>
            <ns3:cad>0</ns3:cad>
          </ns3:TrackPointExtension>
        </extensions>
      </trkpt>
      <trkpt lat="37.93853332288563251495361328125" lon="-107.13749547488987445831298828125">
        <ele>3628.800048828125</ele>
        <time>2026-01-06T21:37:20.000Z</time>
        <extensions>
          <ns3:TrackPointExtension>
            <ns3:hr>81</ns3:hr>
            <ns3:cad>0</ns3:cad>
          </ns3:TrackPointExtension>
        </extensions>
      </trkpt>
      <trkpt lat="37.93853332288563251495361328125" lon="-107.13749547488987445831298828125">
        <ele>3628.60009765625</ele>
        <time>2026-01-06T21:37:21.000Z</time>
        <extensions>
          <ns3:TrackPointExtension>
            <ns3:hr>81</ns3:hr>
            <ns3:cad>0</ns3:cad>
          </ns3:TrackPointExtension>
        </extensions>
      </trkpt>
      <trkpt lat="37.93853332288563251495361328125" lon="-107.13749547488987445831298828125">
        <ele>3629</ele>
        <time>2026-01-06T21:37:27.000Z</time>
        <extensions>
          <ns3:TrackPointExtension>
            <ns3:hr>81</ns3:hr>
            <ns3:cad>0</ns3:cad>
          </ns3:TrackPointExtension>
        </extensions>
      </trkpt>
      <trkpt lat="37.93853332288563251495361328125" lon="-107.13749547488987445831298828125">
        <ele>3628.39990234375</ele>
        <time>2026-01-06T21:37:33.000Z</time>
        <extensions>
          <ns3:TrackPointExtension>
            <ns3:hr>80</ns3:hr>
            <ns3:cad>0</ns3:cad>
          </ns3:TrackPointExtension>
        </extensions>
      </trkpt>
      <trkpt lat="37.93853332288563251495361328125" lon="-107.13749547488987445831298828125">
        <ele>3628.199951171875</ele>
        <time>2026-01-06T21:37:35.000Z</time>
        <extensions>
          <ns3:TrackPointExtension>
            <ns3:hr>80</ns3:hr>
            <ns3:cad>0</ns3:cad>
          </ns3:TrackPointExtension>
        </extensions>
      </trkpt>
      <trkpt lat="37.93853332288563251495361328125" lon="-107.13749547488987445831298828125">
        <ele>3628</ele>
        <time>2026-01-06T21:37:41.000Z</time>
        <extensions>
          <ns3:TrackPointExtension>
            <ns3:hr>80</ns3:hr>
            <ns3:cad>0</ns3:cad>
          </ns3:TrackPointExtension>
        </extensions>
      </trkpt>
      <trkpt lat="37.93853332288563251495361328125" lon="-107.13749547488987445831298828125">
        <ele>3627.60009765625</ele>
        <time>2026-01-06T21:37:44.000Z</time>
        <extensions>
          <ns3:TrackPointExtension>
            <ns3:hr>81</ns3:hr>
            <ns3:cad>0</ns3:cad>
          </ns3:TrackPointExtension>
        </extensions>
      </trkpt>
      <trkpt lat="37.93853332288563251495361328125" lon="-107.13749547488987445831298828125">
        <ele>3627.60009765625</ele>
        <time>2026-01-06T21:37:45.000Z</time>
        <extensions>
          <ns3:TrackPointExtension>
            <ns3:hr>81</ns3:hr>
            <ns3:cad>0</ns3:cad>
          </ns3:TrackPointExtension>
        </extensions>
      </trkpt>
      <trkpt lat="37.93854824267327785491943359375" lon="-107.13750788010656833648681640625">
        <ele>3627.199951171875</ele>
        <time>2026-01-06T21:37:50.000Z</time>
        <extensions>
          <ns3:TrackPointExtension>
            <ns3:hr>85</ns3:hr>
            <ns3:cad>0</ns3:cad>
          </ns3:TrackPointExtension>
        </extensions>
      </trkpt>
      <trkpt lat="37.93854899704456329345703125" lon="-107.13751123286783695220947265625">
        <ele>3627</ele>
        <time>2026-01-06T21:37:51.000Z</time>
        <extensions>
          <ns3:TrackPointExtension>
            <ns3:hr>86</ns3:hr>
            <ns3:cad>0</ns3:cad>
          </ns3:TrackPointExtension>
        </extensions>
      </trkpt>
      <trkpt lat="37.93855327181518077850341796875" lon="-107.13751693256199359893798828125">
        <ele>3627.199951171875</ele>
        <time>2026-01-06T21:37:56.000Z</time>
        <extensions>
          <ns3:TrackPointExtension>
            <ns3:hr>89</ns3:hr>
            <ns3:cad>0</ns3:cad>
          </ns3:TrackPointExtension>
        </extensions>
      </trkpt>
      <trkpt lat="37.93855327181518077850341796875" lon="-107.13751693256199359893798828125">
        <ele>3626.800048828125</ele>
        <time>2026-01-06T21:37:59.000Z</time>
        <extensions>
          <ns3:TrackPointExtension>
            <ns3:hr>91</ns3:hr>
            <ns3:cad>0</ns3:cad>
          </ns3:TrackPointExtension>
        </extensions>
      </trkpt>
      <trkpt lat="37.93855327181518077850341796875" lon="-107.13751693256199359893798828125">
        <ele>3626.60009765625</ele>
        <time>2026-01-06T21:38:00.000Z</time>
        <extensions>
          <ns3:TrackPointExtension>
            <ns3:hr>91</ns3:hr>
            <ns3:cad>0</ns3:cad>
          </ns3:TrackPointExtension>
        </extensions>
      </trkpt>
      <trkpt lat="37.93855327181518077850341796875" lon="-107.13751693256199359893798828125">
        <ele>3626.60009765625</ele>
        <time>2026-01-06T21:38:03.000Z</time>
        <extensions>
          <ns3:TrackPointExtension>
            <ns3:hr>94</ns3:hr>
            <ns3:cad>0</ns3:cad>
          </ns3:TrackPointExtension>
        </extensions>
      </trkpt>
      <trkpt lat="37.93855327181518077850341796875" lon="-107.13751693256199359893798828125">
        <ele>3626.800048828125</ele>
        <time>2026-01-06T21:38:08.000Z</time>
        <extensions>
          <ns3:TrackPointExtension>
            <ns3:hr>94</ns3:hr>
            <ns3:cad>0</ns3:cad>
          </ns3:TrackPointExtension>
        </extensions>
      </trkpt>
      <trkpt lat="37.938563413918018341064453125" lon="-107.13751927949488162994384765625">
        <ele>3627.60009765625</ele>
        <time>2026-01-06T21:38:12.000Z</time>
        <extensions>
          <ns3:TrackPointExtension>
            <ns3:hr>94</ns3:hr>
            <ns3:cad>0</ns3:cad>
          </ns3:TrackPointExtension>
        </extensions>
      </trkpt>
      <trkpt lat="37.93856902979314327239990234375" lon="-107.137522213160991668701171875">
        <ele>3628</ele>
        <time>2026-01-06T21:38:14.000Z</time>
        <extensions>
          <ns3:TrackPointExtension>
            <ns3:hr>94</ns3:hr>
            <ns3:cad>0</ns3:cad>
          </ns3:TrackPointExtension>
        </extensions>
      </trkpt>
      <trkpt lat="37.9385689459741115570068359375" lon="-107.13752196170389652252197265625">
        <ele>3626.800048828125</ele>
        <time>2026-01-06T21:38:20.000Z</time>
        <extensions>
          <ns3:TrackPointExtension>
            <ns3:hr>94</ns3:hr>
            <ns3:cad>0</ns3:cad>
          </ns3:TrackPointExtension>
        </extensions>
      </trkpt>
      <trkpt lat="37.9385689459741115570068359375" lon="-107.13752196170389652252197265625">
        <ele>3626.60009765625</ele>
        <time>2026-01-06T21:38:21.000Z</time>
        <extensions>
          <ns3:TrackPointExtension>
            <ns3:hr>94</ns3:hr>
            <ns3:cad>0</ns3:cad>
          </ns3:TrackPointExtension>
        </extensions>
      </trkpt>
      <trkpt lat="37.9385689459741115570068359375" lon="-107.13752196170389652252197265625">
        <ele>3626.39990234375</ele>
        <time>2026-01-06T21:38:23.000Z</time>
        <extensions>
          <ns3:TrackPointExtension>
            <ns3:hr>95</ns3:hr>
            <ns3:cad>0</ns3:cad>
          </ns3:TrackPointExtension>
        </extensions>
      </trkpt>
      <trkpt lat="37.9385689459741115570068359375" lon="-107.13752196170389652252197265625">
        <ele>3626.800048828125</ele>
        <time>2026-01-06T21:38:29.000Z</time>
        <extensions>
          <ns3:TrackPointExtension>
            <ns3:hr>96</ns3:hr>
            <ns3:cad>0</ns3:cad>
          </ns3:TrackPointExtension>
        </extensions>
      </trkpt>
      <trkpt lat="37.9385689459741115570068359375" lon="-107.13752196170389652252197265625">
        <ele>3627.199951171875</ele>
        <time>2026-01-06T21:38:35.000Z</time>
        <extensions>
          <ns3:TrackPointExtension>
            <ns3:hr>96</ns3:hr>
            <ns3:cad>0</ns3:cad>
          </ns3:TrackPointExtension>
        </extensions>
      </trkpt>
      <trkpt lat="37.9385689459741115570068359375" lon="-107.13752196170389652252197265625">
        <ele>3626</ele>
        <time>2026-01-06T21:38:41.000Z</time>
        <extensions>
          <ns3:TrackPointExtension>
            <ns3:hr>95</ns3:hr>
            <ns3:cad>0</ns3:cad>
          </ns3:TrackPointExtension>
        </extensions>
      </trkpt>
      <trkpt lat="37.9385689459741115570068359375" lon="-107.13752196170389652252197265625">
        <ele>3625.800048828125</ele>
        <time>2026-01-06T21:38:43.000Z</time>
        <extensions>
          <ns3:TrackPointExtension>
            <ns3:hr>95</ns3:hr>
            <ns3:cad>0</ns3:cad>
          </ns3:TrackPointExtension>
        </extensions>
      </trkpt>
      <trkpt lat="37.9385689459741115570068359375" lon="-107.13752196170389652252197265625">
        <ele>3625.60009765625</ele>
        <time>2026-01-06T21:38:45.000Z</time>
        <extensions>
          <ns3:TrackPointExtension>
            <ns3:hr>94</ns3:hr>
            <ns3:cad>0</ns3:cad>
          </ns3:TrackPointExtension>
        </extensions>
      </trkpt>
      <trkpt lat="37.9385689459741115570068359375" lon="-107.13752196170389652252197265625">
        <ele>3625.60009765625</ele>
        <time>2026-01-06T21:38:48.000Z</time>
        <extensions>
          <ns3:TrackPointExtension>
            <ns3:hr>91</ns3:hr>
            <ns3:cad>0</ns3:cad>
          </ns3:TrackPointExtension>
        </extensions>
      </trkpt>
      <trkpt lat="37.9385689459741115570068359375" lon="-107.13752196170389652252197265625">
        <ele>3625.800048828125</ele>
        <time>2026-01-06T21:38:51.000Z</time>
        <extensions>
          <ns3:TrackPointExtension>
            <ns3:hr>91</ns3:hr>
            <ns3:cad>0</ns3:cad>
          </ns3:TrackPointExtension>
        </extensions>
      </trkpt>
      <trkpt lat="37.93858478777110576629638671875" lon="-107.13751827366650104522705078125">
        <ele>3626.199951171875</ele>
        <time>2026-01-06T21:38:57.000Z</time>
        <extensions>
          <ns3:TrackPointExtension>
            <ns3:hr>91</ns3:hr>
            <ns3:cad>0</ns3:cad>
          </ns3:TrackPointExtension>
        </extensions>
      </trkpt>
      <trkpt lat="37.93858495540916919708251953125" lon="-107.1375186927616596221923828125">
        <ele>3626</ele>
        <time>2026-01-06T21:39:03.000Z</time>
        <extensions>
          <ns3:TrackPointExtension>
            <ns3:hr>90</ns3:hr>
            <ns3:cad>0</ns3:cad>
          </ns3:TrackPointExtension>
        </extensions>
      </trkpt>
      <trkpt lat="37.93858663178980350494384765625" lon="-107.13751911185681819915771484375">
        <ele>3626</ele>
        <time>2026-01-06T21:39:04.000Z</time>
        <extensions>
          <ns3:TrackPointExtension>
            <ns3:hr>90</ns3:hr>
            <ns3:cad>0</ns3:cad>
          </ns3:TrackPointExtension>
        </extensions>
      </trkpt>
      <trkpt lat="37.93858478777110576629638671875" lon="-107.13751827366650104522705078125">
        <ele>3625.60009765625</ele>
        <time>2026-01-06T21:39:10.000Z</time>
        <extensions>
          <ns3:TrackPointExtension>
            <ns3:hr>90</ns3:hr>
            <ns3:cad>0</ns3:cad>
          </ns3:TrackPointExtension>
        </extensions>
      </trkpt>
      <trkpt lat="37.93858478777110576629638671875" lon="-107.13751827366650104522705078125">
        <ele>3625.800048828125</ele>
        <time>2026-01-06T21:39:13.000Z</time>
        <extensions>
          <ns3:TrackPointExtension>
            <ns3:hr>91</ns3:hr>
            <ns3:cad>0</ns3:cad>
          </ns3:TrackPointExtension>
        </extensions>
      </trkpt>
      <trkpt lat="37.93858478777110576629638671875" lon="-107.13751827366650104522705078125">
        <ele>3625.60009765625</ele>
        <time>2026-01-06T21:39:19.000Z</time>
        <extensions>
          <ns3:TrackPointExtension>
            <ns3:hr>93</ns3:hr>
            <ns3:cad>0</ns3:cad>
          </ns3:TrackPointExtension>
        </extensions>
      </trkpt>
      <trkpt lat="37.93859316967427730560302734375" lon="-107.13752456009387969970703125">
        <ele>3625.39990234375</ele>
        <time>2026-01-06T21:39:22.000Z</time>
        <extensions>
          <ns3:TrackPointExtension>
            <ns3:hr>94</ns3:hr>
            <ns3:cad>0</ns3:cad>
          </ns3:TrackPointExtension>
        </extensions>
      </trkpt>
      <trkpt lat="37.93858478777110576629638671875" lon="-107.13751827366650104522705078125">
        <ele>3625.39990234375</ele>
        <time>2026-01-06T21:39:25.000Z</time>
        <extensions>
          <ns3:TrackPointExtension>
            <ns3:hr>97</ns3:hr>
            <ns3:cad>0</ns3:cad>
          </ns3:TrackPointExtension>
        </extensions>
      </trkpt>
      <trkpt lat="37.9385964386165142059326171875" lon="-107.13752715848386287689208984375">
        <ele>3625.199951171875</ele>
        <time>2026-01-06T21:39:31.000Z</time>
        <extensions>
          <ns3:TrackPointExtension>
            <ns3:hr>96</ns3:hr>
            <ns3:cad>0</ns3:cad>
          </ns3:TrackPointExtension>
        </extensions>
      </trkpt>
      <trkpt lat="37.9385964386165142059326171875" lon="-107.13752715848386287689208984375">
        <ele>3625</ele>
        <time>2026-01-06T21:39:37.000Z</time>
        <extensions>
          <ns3:TrackPointExtension>
            <ns3:hr>97</ns3:hr>
            <ns3:cad>0</ns3:cad>
          </ns3:TrackPointExtension>
        </extensions>
      </trkpt>
      <trkpt lat="37.9385964386165142059326171875" lon="-107.13752715848386287689208984375">
        <ele>3624.800048828125</ele>
        <time>2026-01-06T21:39:40.000Z</time>
        <extensions>
          <ns3:TrackPointExtension>
            <ns3:hr>100</ns3:hr>
            <ns3:cad>0</ns3:cad>
          </ns3:TrackPointExtension>
        </extensions>
      </trkpt>
      <trkpt lat="37.93859702534973621368408203125" lon="-107.1375317685306072235107421875">
        <ele>3625</ele>
        <time>2026-01-06T21:39:43.000Z</time>
        <extensions>
          <ns3:TrackPointExtension>
            <ns3:hr>102</ns3:hr>
            <ns3:cad>0</ns3:cad>
          </ns3:TrackPointExtension>
        </extensions>
      </trkpt>
      <trkpt lat="37.9385964386165142059326171875" lon="-107.13752715848386287689208984375">
        <ele>3625</ele>
        <time>2026-01-06T21:39:45.000Z</time>
        <extensions>
          <ns3:TrackPointExtension>
            <ns3:hr>98</ns3:hr>
            <ns3:cad>0</ns3:cad>
          </ns3:TrackPointExtension>
        </extensions>
      </trkpt>
      <trkpt lat="37.9385964386165142059326171875" lon="-107.13752715848386287689208984375">
        <ele>3624.39990234375</ele>
        <time>2026-01-06T21:39:51.000Z</time>
        <extensions>
          <ns3:TrackPointExtension>
            <ns3:hr>98</ns3:hr>
            <ns3:cad>0</ns3:cad>
          </ns3:TrackPointExtension>
        </extensions>
      </trkpt>
      <trkpt lat="37.9385964386165142059326171875" lon="-107.13752715848386287689208984375">
        <ele>3624.199951171875</ele>
        <time>2026-01-06T21:39:53.000Z</time>
        <extensions>
          <ns3:TrackPointExtension>
            <ns3:hr>99</ns3:hr>
            <ns3:cad>0</ns3:cad>
          </ns3:TrackPointExtension>
        </extensions>
      </trkpt>
      <trkpt lat="37.9385964386165142059326171875" lon="-107.13752715848386287689208984375">
        <ele>3624.199951171875</ele>
        <time>2026-01-06T21:39:59.000Z</time>
        <extensions>
          <ns3:TrackPointExtension>
            <ns3:hr>97</ns3:hr>
            <ns3:cad>0</ns3:cad>
          </ns3:TrackPointExtension>
        </extensions>
      </trkpt>
      <trkpt lat="37.9386034794151782989501953125" lon="-107.13754241354763507843017578125">
        <ele>3624.60009765625</ele>
        <time>2026-01-06T21:40:02.000Z</time>
        <extensions>
          <ns3:TrackPointExtension>
            <ns3:hr>94</ns3:hr>
            <ns3:cad>0</ns3:cad>
          </ns3:TrackPointExtension>
        </extensions>
      </trkpt>
      <trkpt lat="37.9386034794151782989501953125" lon="-107.13754241354763507843017578125">
        <ele>3624.800048828125</ele>
        <time>2026-01-06T21:40:03.000Z</time>
        <extensions>
          <ns3:TrackPointExtension>
            <ns3:hr>93</ns3:hr>
            <ns3:cad>0</ns3:cad>
          </ns3:TrackPointExtension>
        </extensions>
      </trkpt>
      <trkpt lat="37.938614375889301300048828125" lon="-107.13755565695464611053466796875">
        <ele>3624.199951171875</ele>
        <time>2026-01-06T21:40:09.000Z</time>
        <extensions>
          <ns3:TrackPointExtension>
            <ns3:hr>92</ns3:hr>
            <ns3:cad>0</ns3:cad>
          </ns3:TrackPointExtension>
        </extensions>
      </trkpt>
      <trkpt lat="37.93861546553671360015869140625" lon="-107.1375575847923755645751953125">
        <ele>3624.199951171875</ele>
        <time>2026-01-06T21:40:10.000Z</time>
        <extensions>
          <ns3:TrackPointExtension>
            <ns3:hr>91</ns3:hr>
            <ns3:cad>0</ns3:cad>
          </ns3:TrackPointExtension>
        </extensions>
      </trkpt>
      <trkpt lat="37.93862300924956798553466796875" lon="-107.13756035082042217254638671875">
        <ele>3624</ele>
        <time>2026-01-06T21:40:16.000Z</time>
        <extensions>
          <ns3:TrackPointExtension>
            <ns3:hr>90</ns3:hr>
            <ns3:cad>0</ns3:cad>
          </ns3:TrackPointExtension>
        </extensions>
      </trkpt>
      <trkpt lat="37.93862879276275634765625" lon="-107.13756521232426166534423828125">
        <ele>3624</ele>
        <time>2026-01-06T21:40:18.000Z</time>
        <extensions>
          <ns3:TrackPointExtension>
            <ns3:hr>90</ns3:hr>
            <ns3:cad>0</ns3:cad>
          </ns3:TrackPointExtension>
        </extensions>
      </trkpt>
      <trkpt lat="37.93862879276275634765625" lon="-107.13756521232426166534423828125">
        <ele>3623.800048828125</ele>
        <time>2026-01-06T21:40:22.000Z</time>
        <extensions>
          <ns3:TrackPointExtension>
            <ns3:hr>86</ns3:hr>
            <ns3:cad>0</ns3:cad>
          </ns3:TrackPointExtension>
        </extensions>
      </trkpt>
      <trkpt lat="37.93862879276275634765625" lon="-107.13756521232426166534423828125">
        <ele>3623.800048828125</ele>
        <time>2026-01-06T21:40:24.000Z</time>
        <extensions>
          <ns3:TrackPointExtension>
            <ns3:hr>83</ns3:hr>
            <ns3:cad>0</ns3:cad>
          </ns3:TrackPointExtension>
        </extensions>
      </trkpt>
      <trkpt lat="37.93862879276275634765625" lon="-107.13756521232426166534423828125">
        <ele>3623.39990234375</ele>
        <time>2026-01-06T21:40:26.000Z</time>
        <extensions>
          <ns3:TrackPointExtension>
            <ns3:hr>82</ns3:hr>
            <ns3:cad>0</ns3:cad>
          </ns3:TrackPointExtension>
        </extensions>
      </trkpt>
      <trkpt lat="37.93863189406692981719970703125" lon="-107.13756672106683254241943359375">
        <ele>3623.39990234375</ele>
        <time>2026-01-06T21:40:27.000Z</time>
        <extensions>
          <ns3:TrackPointExtension>
            <ns3:hr>82</ns3:hr>
            <ns3:cad>0</ns3:cad>
          </ns3:TrackPointExtension>
        </extensions>
      </trkpt>
      <trkpt lat="37.93862879276275634765625" lon="-107.13756521232426166534423828125">
        <ele>3622.800048828125</ele>
        <time>2026-01-06T21:40:33.000Z</time>
        <extensions>
          <ns3:TrackPointExtension>
            <ns3:hr>81</ns3:hr>
            <ns3:cad>0</ns3:cad>
          </ns3:TrackPointExtension>
        </extensions>
      </trkpt>
      <trkpt lat="37.93862879276275634765625" lon="-107.13756521232426166534423828125">
        <ele>3622.800048828125</ele>
        <time>2026-01-06T21:40:34.000Z</time>
        <extensions>
          <ns3:TrackPointExtension>
            <ns3:hr>82</ns3:hr>
            <ns3:cad>0</ns3:cad>
          </ns3:TrackPointExtension>
        </extensions>
      </trkpt>
      <trkpt lat="37.93862879276275634765625" lon="-107.13756521232426166534423828125">
        <ele>3622.39990234375</ele>
        <time>2026-01-06T21:40:39.000Z</time>
        <extensions>
          <ns3:TrackPointExtension>
            <ns3:hr>83</ns3:hr>
            <ns3:cad>0</ns3:cad>
          </ns3:TrackPointExtension>
        </extensions>
      </trkpt>
      <trkpt lat="37.93864287436008453369140625" lon="-107.13758063502609729766845703125">
        <ele>3622</ele>
        <time>2026-01-06T21:40:42.000Z</time>
        <extensions>
          <ns3:TrackPointExtension>
            <ns3:hr>86</ns3:hr>
            <ns3:cad>0</ns3:cad>
          </ns3:TrackPointExtension>
        </extensions>
      </trkpt>
      <trkpt lat="37.93864287436008453369140625" lon="-107.13758063502609729766845703125">
        <ele>3622.199951171875</ele>
        <time>2026-01-06T21:40:44.000Z</time>
        <extensions>
          <ns3:TrackPointExtension>
            <ns3:hr>86</ns3:hr>
            <ns3:cad>0</ns3:cad>
          </ns3:TrackPointExtension>
        </extensions>
      </trkpt>
      <trkpt lat="37.93864287436008453369140625" lon="-107.13758063502609729766845703125">
        <ele>3622.199951171875</ele>
        <time>2026-01-06T21:40:50.000Z</time>
        <extensions>
          <ns3:TrackPointExtension>
            <ns3:hr>87</ns3:hr>
            <ns3:cad>0</ns3:cad>
          </ns3:TrackPointExtension>
        </extensions>
      </trkpt>
      <trkpt lat="37.93864287436008453369140625" lon="-107.13758063502609729766845703125">
        <ele>3622.199951171875</ele>
        <time>2026-01-06T21:40:52.000Z</time>
        <extensions>
          <ns3:TrackPointExtension>
            <ns3:hr>86</ns3:hr>
            <ns3:cad>0</ns3:cad>
          </ns3:TrackPointExtension>
        </extensions>
      </trkpt>
      <trkpt lat="37.9386484064161777496337890625" lon="-107.13759119622409343719482421875">
        <ele>3622</ele>
        <time>2026-01-06T21:40:56.000Z</time>
        <extensions>
          <ns3:TrackPointExtension>
            <ns3:hr>85</ns3:hr>
            <ns3:cad>0</ns3:cad>
          </ns3:TrackPointExtension>
        </extensions>
      </trkpt>
      <trkpt lat="37.9386515915393829345703125" lon="-107.137596644461154937744140625">
        <ele>3621.199951171875</ele>
        <time>2026-01-06T21:40:59.000Z</time>
        <extensions>
          <ns3:TrackPointExtension>
            <ns3:hr>84</ns3:hr>
            <ns3:cad>0</ns3:cad>
          </ns3:TrackPointExtension>
        </extensions>
      </trkpt>
      <trkpt lat="37.9386515915393829345703125" lon="-107.137596644461154937744140625">
        <ele>3621</ele>
        <time>2026-01-06T21:41:03.000Z</time>
        <extensions>
          <ns3:TrackPointExtension>
            <ns3:hr>84</ns3:hr>
            <ns3:cad>0</ns3:cad>
          </ns3:TrackPointExtension>
        </extensions>
      </trkpt>
      <trkpt lat="37.9386515915393829345703125" lon="-107.137596644461154937744140625">
        <ele>3621.199951171875</ele>
        <time>2026-01-06T21:41:09.000Z</time>
        <extensions>
          <ns3:TrackPointExtension>
            <ns3:hr>85</ns3:hr>
            <ns3:cad>0</ns3:cad>
          </ns3:TrackPointExtension>
        </extensions>
      </trkpt>
      <trkpt lat="37.9386571235954761505126953125" lon="-107.13761231862008571624755859375">
        <ele>3621.199951171875</ele>
        <time>2026-01-06T21:41:11.000Z</time>
        <extensions>
          <ns3:TrackPointExtension>
            <ns3:hr>86</ns3:hr>
            <ns3:cad>0</ns3:cad>
          </ns3:TrackPointExtension>
        </extensions>
      </trkpt>
      <trkpt lat="37.938657291233539581298828125" lon="-107.1376125700771808624267578125">
        <ele>3621</ele>
        <time>2026-01-06T21:41:14.000Z</time>
        <extensions>
          <ns3:TrackPointExtension>
            <ns3:hr>89</ns3:hr>
            <ns3:cad>0</ns3:cad>
          </ns3:TrackPointExtension>
        </extensions>
      </trkpt>
      <trkpt lat="37.938657291233539581298828125" lon="-107.1376125700771808624267578125">
        <ele>3620.800048828125</ele>
        <time>2026-01-06T21:41:19.000Z</time>
        <extensions>
          <ns3:TrackPointExtension>
            <ns3:hr>90</ns3:hr>
            <ns3:cad>0</ns3:cad>
          </ns3:TrackPointExtension>
        </extensions>
      </trkpt>
      <trkpt lat="37.938657291233539581298828125" lon="-107.1376125700771808624267578125">
        <ele>3621</ele>
        <time>2026-01-06T21:41:21.000Z</time>
        <extensions>
          <ns3:TrackPointExtension>
            <ns3:hr>93</ns3:hr>
            <ns3:cad>0</ns3:cad>
          </ns3:TrackPointExtension>
        </extensions>
      </trkpt>
      <trkpt lat="37.938669361174106597900390625" lon="-107.13763209991157054901123046875">
        <ele>3620</ele>
        <time>2026-01-06T21:41:27.000Z</time>
        <extensions>
          <ns3:TrackPointExtension>
            <ns3:hr>94</ns3:hr>
            <ns3:cad>0</ns3:cad>
          </ns3:TrackPointExtension>
        </extensions>
      </trkpt>
      <trkpt lat="37.93867279775440692901611328125" lon="-107.137648947536945343017578125">
        <ele>3619.199951171875</ele>
        <time>2026-01-06T21:41:33.000Z</time>
        <extensions>
          <ns3:TrackPointExtension>
            <ns3:hr>97</ns3:hr>
            <ns3:cad>0</ns3:cad>
          </ns3:TrackPointExtension>
        </extensions>
      </trkpt>
      <trkpt lat="37.93867145664989948272705078125" lon="-107.1376514621078968048095703125">
        <ele>3619.199951171875</ele>
        <time>2026-01-06T21:41:34.000Z</time>
        <extensions>
          <ns3:TrackPointExtension>
            <ns3:hr>97</ns3:hr>
            <ns3:cad>0</ns3:cad>
          </ns3:TrackPointExtension>
        </extensions>
      </trkpt>
      <trkpt lat="37.9386738874018192291259765625" lon="-107.13765137828886508941650390625">
        <ele>3618.800048828125</ele>
        <time>2026-01-06T21:41:40.000Z</time>
        <extensions>
          <ns3:TrackPointExtension>
            <ns3:hr>97</ns3:hr>
            <ns3:cad>0</ns3:cad>
          </ns3:TrackPointExtension>
        </extensions>
      </trkpt>
      <trkpt lat="37.93867371976375579833984375" lon="-107.13765489868819713592529296875">
        <ele>3619</ele>
        <time>2026-01-06T21:41:41.000Z</time>
        <extensions>
          <ns3:TrackPointExtension>
            <ns3:hr>97</ns3:hr>
            <ns3:cad>0</ns3:cad>
          </ns3:TrackPointExtension>
        </extensions>
      </trkpt>
      <trkpt lat="37.9386809282004833221435546875" lon="-107.13768683373928070068359375">
        <ele>3619.199951171875</ele>
        <time>2026-01-06T21:41:47.000Z</time>
        <extensions>
          <ns3:TrackPointExtension>
            <ns3:hr>98</ns3:hr>
            <ns3:cad>0</ns3:cad>
          </ns3:TrackPointExtension>
        </extensions>
      </trkpt>
      <trkpt lat="37.93868310749530792236328125" lon="-107.13768809102475643157958984375">
        <ele>3619.199951171875</ele>
        <time>2026-01-06T21:41:48.000Z</time>
        <extensions>
          <ns3:TrackPointExtension>
            <ns3:hr>98</ns3:hr>
            <ns3:cad>0</ns3:cad>
          </ns3:TrackPointExtension>
        </extensions>
      </trkpt>
      <trkpt lat="37.9386829398572444915771484375" lon="-107.13768809102475643157958984375">
        <ele>3618.800048828125</ele>
        <time>2026-01-06T21:41:54.000Z</time>
        <extensions>
          <ns3:TrackPointExtension>
            <ns3:hr>97</ns3:hr>
            <ns3:cad>0</ns3:cad>
          </ns3:TrackPointExtension>
        </extensions>
      </trkpt>
      <trkpt lat="37.9386829398572444915771484375" lon="-107.13768809102475643157958984375">
        <ele>3618.199951171875</ele>
        <time>2026-01-06T21:42:00.000Z</time>
        <extensions>
          <ns3:TrackPointExtension>
            <ns3:hr>99</ns3:hr>
            <ns3:cad>0</ns3:cad>
          </ns3:TrackPointExtension>
        </extensions>
      </trkpt>
      <trkpt lat="37.93868981301784515380859375" lon="-107.1377022564411163330078125">
        <ele>3618</ele>
        <time>2026-01-06T21:42:05.000Z</time>
        <extensions>
          <ns3:TrackPointExtension>
            <ns3:hr>99</ns3:hr>
            <ns3:cad>0</ns3:cad>
          </ns3:TrackPointExtension>
        </extensions>
      </trkpt>
      <trkpt lat="37.93869316577911376953125" lon="-107.1377091296017169952392578125">
        <ele>3617.800048828125</ele>
        <time>2026-01-06T21:42:06.000Z</time>
        <extensions>
          <ns3:TrackPointExtension>
            <ns3:hr>99</ns3:hr>
            <ns3:cad>0</ns3:cad>
          </ns3:TrackPointExtension>
        </extensions>
      </trkpt>
      <trkpt lat="37.93869576416909694671630859375" lon="-107.13772262446582317352294921875">
        <ele>3617.199951171875</ele>
        <time>2026-01-06T21:42:12.000Z</time>
        <extensions>
          <ns3:TrackPointExtension>
            <ns3:hr>98</ns3:hr>
            <ns3:cad>0</ns3:cad>
          </ns3:TrackPointExtension>
        </extensions>
      </trkpt>
      <trkpt lat="37.93869576416909694671630859375" lon="-107.13772262446582317352294921875">
        <ele>3617.800048828125</ele>
        <time>2026-01-06T21:42:18.000Z</time>
        <extensions>
          <ns3:TrackPointExtension>
            <ns3:hr>96</ns3:hr>
            <ns3:cad>0</ns3:cad>
          </ns3:TrackPointExtension>
        </extensions>
      </trkpt>
      <trkpt lat="37.93869576416909694671630859375" lon="-107.13772262446582317352294921875">
        <ele>3617.60009765625</ele>
        <time>2026-01-06T21:42:20.000Z</time>
        <extensions>
          <ns3:TrackPointExtension>
            <ns3:hr>96</ns3:hr>
            <ns3:cad>0</ns3:cad>
          </ns3:TrackPointExtension>
        </extensions>
      </trkpt>
      <trkpt lat="37.93870188295841217041015625" lon="-107.13773779571056365966796875">
        <ele>3616.800048828125</ele>
        <time>2026-01-06T21:42:26.000Z</time>
        <extensions>
          <ns3:TrackPointExtension>
            <ns3:hr>97</ns3:hr>
            <ns3:cad>0</ns3:cad>
          </ns3:TrackPointExtension>
        </extensions>
      </trkpt>
      <trkpt lat="37.93870724737644195556640625" lon="-107.1377510391175746917724609375">
        <ele>3617</ele>
        <time>2026-01-06T21:42:28.000Z</time>
        <extensions>
          <ns3:TrackPointExtension>
            <ns3:hr>97</ns3:hr>
            <ns3:cad>0</ns3:cad>
          </ns3:TrackPointExtension>
        </extensions>
      </trkpt>
      <trkpt lat="37.93871588073670864105224609375" lon="-107.1377714909613132476806640625">
        <ele>3616.800048828125</ele>
        <time>2026-01-06T21:42:32.000Z</time>
        <extensions>
          <ns3:TrackPointExtension>
            <ns3:hr>98</ns3:hr>
            <ns3:cad>0</ns3:cad>
          </ns3:TrackPointExtension>
        </extensions>
      </trkpt>
      <trkpt lat="37.93871588073670864105224609375" lon="-107.13778381235897541046142578125">
        <ele>3616.39990234375</ele>
        <time>2026-01-06T21:42:34.000Z</time>
        <extensions>
          <ns3:TrackPointExtension>
            <ns3:hr>98</ns3:hr>
            <ns3:cad>0</ns3:cad>
          </ns3:TrackPointExtension>
        </extensions>
      </trkpt>
      <trkpt lat="37.9387178085744380950927734375" lon="-107.13778750039637088775634765625">
        <ele>3616</ele>
        <time>2026-01-06T21:42:40.000Z</time>
        <extensions>
          <ns3:TrackPointExtension>
            <ns3:hr>98</ns3:hr>
            <ns3:cad>0</ns3:cad>
          </ns3:TrackPointExtension>
        </extensions>
      </trkpt>
      <trkpt lat="37.938718982040882110595703125" lon="-107.137792445719242095947265625">
        <ele>3615.800048828125</ele>
        <time>2026-01-06T21:42:41.000Z</time>
        <extensions>
          <ns3:TrackPointExtension>
            <ns3:hr>98</ns3:hr>
            <ns3:cad>0</ns3:cad>
          </ns3:TrackPointExtension>
        </extensions>
      </trkpt>
      <trkpt lat="37.938722670078277587890625" lon="-107.13779940269887447357177734375">
        <ele>3615.800048828125</ele>
        <time>2026-01-06T21:42:42.000Z</time>
        <extensions>
          <ns3:TrackPointExtension>
            <ns3:hr>99</ns3:hr>
            <ns3:cad>0</ns3:cad>
          </ns3:TrackPointExtension>
        </extensions>
      </trkpt>
      <trkpt lat="37.93873012997210025787353515625" lon="-107.1378063596785068511962890625">
        <ele>3615</ele>
        <time>2026-01-06T21:42:48.000Z</time>
        <extensions>
          <ns3:TrackPointExtension>
            <ns3:hr>98</ns3:hr>
            <ns3:cad>0</ns3:cad>
          </ns3:TrackPointExtension>
        </extensions>
      </trkpt>
      <trkpt lat="37.9387335665524005889892578125" lon="-107.1378073655068874359130859375">
        <ele>3615</ele>
        <time>2026-01-06T21:42:49.000Z</time>
        <extensions>
          <ns3:TrackPointExtension>
            <ns3:hr>98</ns3:hr>
            <ns3:cad>0</ns3:cad>
          </ns3:TrackPointExtension>
        </extensions>
      </trkpt>
      <trkpt lat="37.93872325681149959564208984375" lon="-107.13780376128852367401123046875">
        <ele>3615.60009765625</ele>
        <time>2026-01-06T21:42:55.000Z</time>
        <extensions>
          <ns3:TrackPointExtension>
            <ns3:hr>98</ns3:hr>
            <ns3:cad>0</ns3:cad>
          </ns3:TrackPointExtension>
        </extensions>
      </trkpt>
      <trkpt lat="37.93872325681149959564208984375" lon="-107.13780376128852367401123046875">
        <ele>3615.60009765625</ele>
        <time>2026-01-06T21:42:56.000Z</time>
        <extensions>
          <ns3:TrackPointExtension>
            <ns3:hr>98</ns3:hr>
            <ns3:cad>0</ns3:cad>
          </ns3:TrackPointExtension>
        </extensions>
      </trkpt>
      <trkpt lat="37.93872325681149959564208984375" lon="-107.13780376128852367401123046875">
        <ele>3615.60009765625</ele>
        <time>2026-01-06T21:43:02.000Z</time>
        <extensions>
          <ns3:TrackPointExtension>
            <ns3:hr>97</ns3:hr>
            <ns3:cad>0</ns3:cad>
          </ns3:TrackPointExtension>
        </extensions>
      </trkpt>
      <trkpt lat="37.93872325681149959564208984375" lon="-107.13780376128852367401123046875">
        <ele>3615.60009765625</ele>
        <time>2026-01-06T21:43:04.000Z</time>
        <extensions>
          <ns3:TrackPointExtension>
            <ns3:hr>97</ns3:hr>
            <ns3:cad>0</ns3:cad>
          </ns3:TrackPointExtension>
        </extensions>
      </trkpt>
      <trkpt lat="37.93873163871467113494873046875" lon="-107.137807197868824005126953125">
        <ele>3616</ele>
        <time>2026-01-06T21:43:10.000Z</time>
        <extensions>
          <ns3:TrackPointExtension>
            <ns3:hr>100</ns3:hr>
            <ns3:cad>0</ns3:cad>
          </ns3:TrackPointExtension>
        </extensions>
      </trkpt>
      <trkpt lat="37.93873113580048084259033203125" lon="-107.13779722340404987335205078125">
        <ele>3615.800048828125</ele>
        <time>2026-01-06T21:43:12.000Z</time>
        <extensions>
          <ns3:TrackPointExtension>
            <ns3:hr>101</ns3:hr>
            <ns3:cad>0</ns3:cad>
          </ns3:TrackPointExtension>
        </extensions>
      </trkpt>
      <trkpt lat="37.93873096816241741180419921875" lon="-107.13780443184077739715576171875">
        <ele>3615.39990234375</ele>
        <time>2026-01-06T21:43:18.000Z</time>
        <extensions>
          <ns3:TrackPointExtension>
            <ns3:hr>102</ns3:hr>
            <ns3:cad>0</ns3:cad>
          </ns3:TrackPointExtension>
        </extensions>
      </trkpt>
      <trkpt lat="37.9387315548956394195556640625" lon="-107.13780225254595279693603515625">
        <ele>3615.60009765625</ele>
        <time>2026-01-06T21:43:19.000Z</time>
        <extensions>
          <ns3:TrackPointExtension>
            <ns3:hr>102</ns3:hr>
            <ns3:cad>0</ns3:cad>
          </ns3:TrackPointExtension>
        </extensions>
      </trkpt>
      <trkpt lat="37.93872325681149959564208984375" lon="-107.13780376128852367401123046875">
        <ele>3616</ele>
        <time>2026-01-06T21:43:23.000Z</time>
        <extensions>
          <ns3:TrackPointExtension>
            <ns3:hr>99</ns3:hr>
            <ns3:cad>0</ns3:cad>
          </ns3:TrackPointExtension>
        </extensions>
      </trkpt>
      <trkpt lat="37.9387318901717662811279296875" lon="-107.13779923506081104278564453125">
        <ele>3615.800048828125</ele>
        <time>2026-01-06T21:43:29.000Z</time>
        <extensions>
          <ns3:TrackPointExtension>
            <ns3:hr>99</ns3:hr>
            <ns3:cad>0</ns3:cad>
          </ns3:TrackPointExtension>
        </extensions>
      </trkpt>
      <trkpt lat="37.93872325681149959564208984375" lon="-107.13780376128852367401123046875">
        <ele>3615.60009765625</ele>
        <time>2026-01-06T21:43:31.000Z</time>
        <extensions>
          <ns3:TrackPointExtension>
            <ns3:hr>99</ns3:hr>
            <ns3:cad>0</ns3:cad>
          </ns3:TrackPointExtension>
        </extensions>
      </trkpt>
      <trkpt lat="37.93872325681149959564208984375" lon="-107.13780376128852367401123046875">
        <ele>3615.800048828125</ele>
        <time>2026-01-06T21:43:37.000Z</time>
        <extensions>
          <ns3:TrackPointExtension>
            <ns3:hr>98</ns3:hr>
            <ns3:cad>0</ns3:cad>
          </ns3:TrackPointExtension>
        </extensions>
      </trkpt>
      <trkpt lat="37.93872325681149959564208984375" lon="-107.13780376128852367401123046875">
        <ele>3615.800048828125</ele>
        <time>2026-01-06T21:43:40.000Z</time>
        <extensions>
          <ns3:TrackPointExtension>
            <ns3:hr>99</ns3:hr>
            <ns3:cad>0</ns3:cad>
          </ns3:TrackPointExtension>
        </extensions>
      </trkpt>
      <trkpt lat="37.93872325681149959564208984375" lon="-107.13780376128852367401123046875">
        <ele>3616.199951171875</ele>
        <time>2026-01-06T21:43:46.000Z</time>
        <extensions>
          <ns3:TrackPointExtension>
            <ns3:hr>100</ns3:hr>
            <ns3:cad>0</ns3:cad>
          </ns3:TrackPointExtension>
        </extensions>
      </trkpt>
      <trkpt lat="37.93872325681149959564208984375" lon="-107.13780376128852367401123046875">
        <ele>3616</ele>
        <time>2026-01-06T21:43:48.000Z</time>
        <extensions>
          <ns3:TrackPointExtension>
            <ns3:hr>100</ns3:hr>
            <ns3:cad>0</ns3:cad>
          </ns3:TrackPointExtension>
        </extensions>
      </trkpt>
      <trkpt lat="37.93872325681149959564208984375" lon="-107.13780376128852367401123046875">
        <ele>3615.800048828125</ele>
        <time>2026-01-06T21:43:50.000Z</time>
        <extensions>
          <ns3:TrackPointExtension>
            <ns3:hr>96</ns3:hr>
            <ns3:cad>0</ns3:cad>
          </ns3:TrackPointExtension>
        </extensions>
      </trkpt>
      <trkpt lat="37.93872325681149959564208984375" lon="-107.13780376128852367401123046875">
        <ele>3616</ele>
        <time>2026-01-06T21:43:56.000Z</time>
        <extensions>
          <ns3:TrackPointExtension>
            <ns3:hr>94</ns3:hr>
            <ns3:cad>0</ns3:cad>
          </ns3:TrackPointExtension>
        </extensions>
      </trkpt>
      <trkpt lat="37.93872325681149959564208984375" lon="-107.13780376128852367401123046875">
        <ele>3616</ele>
        <time>2026-01-06T21:43:58.000Z</time>
        <extensions>
          <ns3:TrackPointExtension>
            <ns3:hr>94</ns3:hr>
            <ns3:cad>0</ns3:cad>
          </ns3:TrackPointExtension>
        </extensions>
      </trkpt>
      <trkpt lat="37.93872325681149959564208984375" lon="-107.13780376128852367401123046875">
        <ele>3616.199951171875</ele>
        <time>2026-01-06T21:44:04.000Z</time>
        <extensions>
          <ns3:TrackPointExtension>
            <ns3:hr>94</ns3:hr>
            <ns3:cad>0</ns3:cad>
          </ns3:TrackPointExtension>
        </extensions>
      </trkpt>
      <trkpt lat="37.93872325681149959564208984375" lon="-107.13780376128852367401123046875">
        <ele>3616.199951171875</ele>
        <time>2026-01-06T21:44:07.000Z</time>
        <extensions>
          <ns3:TrackPointExtension>
            <ns3:hr>94</ns3:hr>
            <ns3:cad>0</ns3:cad>
          </ns3:TrackPointExtension>
        </extensions>
      </trkpt>
      <trkpt lat="37.93872325681149959564208984375" lon="-107.13780376128852367401123046875">
        <ele>3616.199951171875</ele>
        <time>2026-01-06T21:44:13.000Z</time>
        <extensions>
          <ns3:TrackPointExtension>
            <ns3:hr>95</ns3:hr>
            <ns3:cad>0</ns3:cad>
          </ns3:TrackPointExtension>
        </extensions>
      </trkpt>
      <trkpt lat="37.93872325681149959564208984375" lon="-107.13780376128852367401123046875">
        <ele>3616</ele>
        <time>2026-01-06T21:44:16.000Z</time>
        <extensions>
          <ns3:TrackPointExtension>
            <ns3:hr>95</ns3:hr>
            <ns3:cad>0</ns3:cad>
          </ns3:TrackPointExtension>
        </extensions>
      </trkpt>
      <trkpt lat="37.93872325681149959564208984375" lon="-107.13780376128852367401123046875">
        <ele>3616.199951171875</ele>
        <time>2026-01-06T21:44:22.000Z</time>
        <extensions>
          <ns3:TrackPointExtension>
            <ns3:hr>96</ns3:hr>
            <ns3:cad>0</ns3:cad>
          </ns3:TrackPointExtension>
        </extensions>
      </trkpt>
      <trkpt lat="37.9387401044368743896484375" lon="-107.13780082762241363525390625">
        <ele>3616</ele>
        <time>2026-01-06T21:44:27.000Z</time>
        <extensions>
          <ns3:TrackPointExtension>
            <ns3:hr>95</ns3:hr>
            <ns3:cad>0</ns3:cad>
          </ns3:TrackPointExtension>
        </extensions>
      </trkpt>
      <trkpt lat="37.9387401044368743896484375" lon="-107.13780082762241363525390625">
        <ele>3616.39990234375</ele>
        <time>2026-01-06T21:44:33.000Z</time>
        <extensions>
          <ns3:TrackPointExtension>
            <ns3:hr>94</ns3:hr>
            <ns3:cad>0</ns3:cad>
          </ns3:TrackPointExtension>
        </extensions>
      </trkpt>
      <trkpt lat="37.9387401044368743896484375" lon="-107.13780082762241363525390625">
        <ele>3616.199951171875</ele>
        <time>2026-01-06T21:44:36.000Z</time>
        <extensions>
          <ns3:TrackPointExtension>
            <ns3:hr>92</ns3:hr>
            <ns3:cad>0</ns3:cad>
          </ns3:TrackPointExtension>
        </extensions>
      </trkpt>
      <trkpt lat="37.9387401044368743896484375" lon="-107.13780082762241363525390625">
        <ele>3616.199951171875</ele>
        <time>2026-01-06T21:44:42.000Z</time>
        <extensions>
          <ns3:TrackPointExtension>
            <ns3:hr>92</ns3:hr>
            <ns3:cad>0</ns3:cad>
          </ns3:TrackPointExtension>
        </extensions>
      </trkpt>
      <trkpt lat="37.9387401044368743896484375" lon="-107.13780082762241363525390625">
        <ele>3616</ele>
        <time>2026-01-06T21:44:48.000Z</time>
        <extensions>
          <ns3:TrackPointExtension>
            <ns3:hr>91</ns3:hr>
            <ns3:cad>0</ns3:cad>
          </ns3:TrackPointExtension>
        </extensions>
      </trkpt>
      <trkpt lat="37.9387401044368743896484375" lon="-107.13780082762241363525390625">
        <ele>3615.39990234375</ele>
        <time>2026-01-06T21:44:54.000Z</time>
        <extensions>
          <ns3:TrackPointExtension>
            <ns3:hr>90</ns3:hr>
            <ns3:cad>0</ns3:cad>
          </ns3:TrackPointExtension>
        </extensions>
      </trkpt>
      <trkpt lat="37.9387401044368743896484375" lon="-107.13780082762241363525390625">
        <ele>3615.199951171875</ele>
        <time>2026-01-06T21:44:58.000Z</time>
        <extensions>
          <ns3:TrackPointExtension>
            <ns3:hr>91</ns3:hr>
            <ns3:cad>0</ns3:cad>
          </ns3:TrackPointExtension>
        </extensions>
      </trkpt>
      <trkpt lat="37.9387401044368743896484375" lon="-107.13780082762241363525390625">
        <ele>3616.800048828125</ele>
        <time>2026-01-06T21:45:04.000Z</time>
        <extensions>
          <ns3:TrackPointExtension>
            <ns3:hr>91</ns3:hr>
            <ns3:cad>0</ns3:cad>
          </ns3:TrackPointExtension>
        </extensions>
      </trkpt>
      <trkpt lat="37.9387401044368743896484375" lon="-107.13780082762241363525390625">
        <ele>3615.39990234375</ele>
        <time>2026-01-06T21:45:09.000Z</time>
        <extensions>
          <ns3:TrackPointExtension>
            <ns3:hr>92</ns3:hr>
            <ns3:cad>0</ns3:cad>
          </ns3:TrackPointExtension>
        </extensions>
      </trkpt>
      <trkpt lat="37.9387401044368743896484375" lon="-107.13780082762241363525390625">
        <ele>3615.39990234375</ele>
        <time>2026-01-06T21:45:15.000Z</time>
        <extensions>
          <ns3:TrackPointExtension>
            <ns3:hr>92</ns3:hr>
            <ns3:cad>0</ns3:cad>
          </ns3:TrackPointExtension>
        </extensions>
      </trkpt>
      <trkpt lat="37.9387401044368743896484375" lon="-107.13780082762241363525390625">
        <ele>3615.60009765625</ele>
        <time>2026-01-06T21:45:17.000Z</time>
        <extensions>
          <ns3:TrackPointExtension>
            <ns3:hr>91</ns3:hr>
            <ns3:cad>0</ns3:cad>
          </ns3:TrackPointExtension>
        </extensions>
      </trkpt>
      <trkpt lat="37.93874119408428668975830078125" lon="-107.1377993188798427581787109375">
        <ele>3616.60009765625</ele>
        <time>2026-01-06T21:45:22.000Z</time>
        <extensions>
          <ns3:TrackPointExtension>
            <ns3:hr>90</ns3:hr>
            <ns3:cad>0</ns3:cad>
          </ns3:TrackPointExtension>
        </extensions>
      </trkpt>
      <trkpt lat="37.9387401044368743896484375" lon="-107.13780082762241363525390625">
        <ele>3616.60009765625</ele>
        <time>2026-01-06T21:45:28.000Z</time>
        <extensions>
          <ns3:TrackPointExtension>
            <ns3:hr>95</ns3:hr>
            <ns3:cad>0</ns3:cad>
          </ns3:TrackPointExtension>
        </extensions>
      </trkpt>
      <trkpt lat="37.9387401044368743896484375" lon="-107.13780082762241363525390625">
        <ele>3616.60009765625</ele>
        <time>2026-01-06T21:45:29.000Z</time>
        <extensions>
          <ns3:TrackPointExtension>
            <ns3:hr>99</ns3:hr>
            <ns3:cad>0</ns3:cad>
          </ns3:TrackPointExtension>
        </extensions>
      </trkpt>
      <trkpt lat="37.9387401044368743896484375" lon="-107.13780082762241363525390625">
        <ele>3616.60009765625</ele>
        <time>2026-01-06T21:45:30.000Z</time>
        <extensions>
          <ns3:TrackPointExtension>
            <ns3:hr>103</ns3:hr>
            <ns3:cad>0</ns3:cad>
          </ns3:TrackPointExtension>
        </extensions>
      </trkpt>
      <trkpt lat="37.9387401044368743896484375" lon="-107.13780082762241363525390625">
        <ele>3616.60009765625</ele>
        <time>2026-01-06T21:45:32.000Z</time>
        <extensions>
          <ns3:TrackPointExtension>
            <ns3:hr>107</ns3:hr>
            <ns3:cad>0</ns3:cad>
          </ns3:TrackPointExtension>
        </extensions>
      </trkpt>
      <trkpt lat="37.9387401044368743896484375" lon="-107.13780082762241363525390625">
        <ele>3616.39990234375</ele>
        <time>2026-01-06T21:45:33.000Z</time>
        <extensions>
          <ns3:TrackPointExtension>
            <ns3:hr>110</ns3:hr>
            <ns3:cad>0</ns3:cad>
          </ns3:TrackPointExtension>
        </extensions>
      </trkpt>
      <trkpt lat="37.9387401044368743896484375" lon="-107.13780082762241363525390625">
        <ele>3615.60009765625</ele>
        <time>2026-01-06T21:45:37.000Z</time>
        <extensions>
          <ns3:TrackPointExtension>
            <ns3:hr>112</ns3:hr>
            <ns3:cad>0</ns3:cad>
          </ns3:TrackPointExtension>
        </extensions>
      </trkpt>
      <trkpt lat="37.9387401044368743896484375" lon="-107.13780082762241363525390625">
        <ele>3616</ele>
        <time>2026-01-06T21:45:43.000Z</time>
        <extensions>
          <ns3:TrackPointExtension>
            <ns3:hr>110</ns3:hr>
            <ns3:cad>0</ns3:cad>
          </ns3:TrackPointExtension>
        </extensions>
      </trkpt>
      <trkpt lat="37.9387401044368743896484375" lon="-107.13780082762241363525390625">
        <ele>3616.199951171875</ele>
        <time>2026-01-06T21:45:44.000Z</time>
        <extensions>
          <ns3:TrackPointExtension>
            <ns3:hr>110</ns3:hr>
            <ns3:cad>0</ns3:cad>
          </ns3:TrackPointExtension>
        </extensions>
      </trkpt>
      <trkpt lat="37.9387401044368743896484375" lon="-107.13780082762241363525390625">
        <ele>3616</ele>
        <time>2026-01-06T21:45:46.000Z</time>
        <extensions>
          <ns3:TrackPointExtension>
            <ns3:hr>107</ns3:hr>
            <ns3:cad>0</ns3:cad>
          </ns3:TrackPointExtension>
        </extensions>
      </trkpt>
      <trkpt lat="37.9387401044368743896484375" lon="-107.13780082762241363525390625">
        <ele>3616.60009765625</ele>
        <time>2026-01-06T21:45:51.000Z</time>
        <extensions>
          <ns3:TrackPointExtension>
            <ns3:hr>106</ns3:hr>
            <ns3:cad>0</ns3:cad>
          </ns3:TrackPointExtension>
        </extensions>
      </trkpt>
      <trkpt lat="37.9387401044368743896484375" lon="-107.13780082762241363525390625">
        <ele>3616.800048828125</ele>
        <time>2026-01-06T21:45:52.000Z</time>
        <extensions>
          <ns3:TrackPointExtension>
            <ns3:hr>103</ns3:hr>
            <ns3:cad>0</ns3:cad>
          </ns3:TrackPointExtension>
        </extensions>
      </trkpt>
      <trkpt lat="37.9387401044368743896484375" lon="-107.13780082762241363525390625">
        <ele>3616.60009765625</ele>
        <time>2026-01-06T21:45:58.000Z</time>
        <extensions>
          <ns3:TrackPointExtension>
            <ns3:hr>101</ns3:hr>
            <ns3:cad>0</ns3:cad>
          </ns3:TrackPointExtension>
        </extensions>
      </trkpt>
      <trkpt lat="37.9387401044368743896484375" lon="-107.13780082762241363525390625">
        <ele>3616.800048828125</ele>
        <time>2026-01-06T21:46:04.000Z</time>
        <extensions>
          <ns3:TrackPointExtension>
            <ns3:hr>98</ns3:hr>
            <ns3:cad>0</ns3:cad>
          </ns3:TrackPointExtension>
        </extensions>
      </trkpt>
      <trkpt lat="37.9387401044368743896484375" lon="-107.13780082762241363525390625">
        <ele>3616.800048828125</ele>
        <time>2026-01-06T21:46:05.000Z</time>
        <extensions>
          <ns3:TrackPointExtension>
            <ns3:hr>97</ns3:hr>
            <ns3:cad>0</ns3:cad>
          </ns3:TrackPointExtension>
        </extensions>
      </trkpt>
      <trkpt lat="37.9387401044368743896484375" lon="-107.13780082762241363525390625">
        <ele>3616.60009765625</ele>
        <time>2026-01-06T21:46:11.000Z</time>
        <extensions>
          <ns3:TrackPointExtension>
            <ns3:hr>96</ns3:hr>
            <ns3:cad>0</ns3:cad>
          </ns3:TrackPointExtension>
        </extensions>
      </trkpt>
      <trkpt lat="37.9387401044368743896484375" lon="-107.13780082762241363525390625">
        <ele>3616.800048828125</ele>
        <time>2026-01-06T21:46:17.000Z</time>
        <extensions>
          <ns3:TrackPointExtension>
            <ns3:hr>95</ns3:hr>
            <ns3:cad>0</ns3:cad>
          </ns3:TrackPointExtension>
        </extensions>
      </trkpt>
      <trkpt lat="37.9387401044368743896484375" lon="-107.13780082762241363525390625">
        <ele>3616.39990234375</ele>
        <time>2026-01-06T21:46:23.000Z</time>
        <extensions>
          <ns3:TrackPointExtension>
            <ns3:hr>93</ns3:hr>
            <ns3:cad>0</ns3:cad>
          </ns3:TrackPointExtension>
        </extensions>
      </trkpt>
      <trkpt lat="37.9387401044368743896484375" lon="-107.13780082762241363525390625">
        <ele>3616.39990234375</ele>
        <time>2026-01-06T21:46:26.000Z</time>
        <extensions>
          <ns3:TrackPointExtension>
            <ns3:hr>90</ns3:hr>
            <ns3:cad>0</ns3:cad>
          </ns3:TrackPointExtension>
        </extensions>
      </trkpt>
      <trkpt lat="37.9387401044368743896484375" lon="-107.13780082762241363525390625">
        <ele>3616.199951171875</ele>
        <time>2026-01-06T21:46:32.000Z</time>
        <extensions>
          <ns3:TrackPointExtension>
            <ns3:hr>89</ns3:hr>
            <ns3:cad>0</ns3:cad>
          </ns3:TrackPointExtension>
        </extensions>
      </trkpt>
      <trkpt lat="37.9387401044368743896484375" lon="-107.13780082762241363525390625">
        <ele>3616.39990234375</ele>
        <time>2026-01-06T21:46:38.000Z</time>
        <extensions>
          <ns3:TrackPointExtension>
            <ns3:hr>90</ns3:hr>
            <ns3:cad>0</ns3:cad>
          </ns3:TrackPointExtension>
        </extensions>
      </trkpt>
      <trkpt lat="37.9387401044368743896484375" lon="-107.13780082762241363525390625">
        <ele>3616.39990234375</ele>
        <time>2026-01-06T21:46:43.000Z</time>
        <extensions>
          <ns3:TrackPointExtension>
            <ns3:hr>85</ns3:hr>
            <ns3:cad>0</ns3:cad>
          </ns3:TrackPointExtension>
        </extensions>
      </trkpt>
      <trkpt lat="37.9387401044368743896484375" lon="-107.13780082762241363525390625">
        <ele>3616.39990234375</ele>
        <time>2026-01-06T21:46:45.000Z</time>
        <extensions>
          <ns3:TrackPointExtension>
            <ns3:hr>82</ns3:hr>
            <ns3:cad>0</ns3:cad>
          </ns3:TrackPointExtension>
        </extensions>
      </trkpt>
      <trkpt lat="37.9387401044368743896484375" lon="-107.13780082762241363525390625">
        <ele>3616.60009765625</ele>
        <time>2026-01-06T21:46:50.000Z</time>
        <extensions>
          <ns3:TrackPointExtension>
            <ns3:hr>79</ns3:hr>
            <ns3:cad>0</ns3:cad>
          </ns3:TrackPointExtension>
        </extensions>
      </trkpt>
      <trkpt lat="37.9387401044368743896484375" lon="-107.13780082762241363525390625">
        <ele>3616.60009765625</ele>
        <time>2026-01-06T21:46:53.000Z</time>
        <extensions>
          <ns3:TrackPointExtension>
            <ns3:hr>76</ns3:hr>
            <ns3:cad>0</ns3:cad>
          </ns3:TrackPointExtension>
        </extensions>
      </trkpt>
      <trkpt lat="37.9387401044368743896484375" lon="-107.13780082762241363525390625">
        <ele>3616.199951171875</ele>
        <time>2026-01-06T21:46:56.000Z</time>
        <extensions>
          <ns3:TrackPointExtension>
            <ns3:hr>79</ns3:hr>
            <ns3:cad>0</ns3:cad>
          </ns3:TrackPointExtension>
        </extensions>
      </trkpt>
      <trkpt lat="37.9387401044368743896484375" lon="-107.13780082762241363525390625">
        <ele>3616.199951171875</ele>
        <time>2026-01-06T21:46:58.000Z</time>
        <extensions>
          <ns3:TrackPointExtension>
            <ns3:hr>81</ns3:hr>
            <ns3:cad>0</ns3:cad>
          </ns3:TrackPointExtension>
        </extensions>
      </trkpt>
      <trkpt lat="37.9387401044368743896484375" lon="-107.13780082762241363525390625">
        <ele>3616.39990234375</ele>
        <time>2026-01-06T21:47:04.000Z</time>
        <extensions>
          <ns3:TrackPointExtension>
            <ns3:hr>79</ns3:hr>
            <ns3:cad>0</ns3:cad>
          </ns3:TrackPointExtension>
        </extensions>
      </trkpt>
      <trkpt lat="37.9387401044368743896484375" lon="-107.13780082762241363525390625">
        <ele>3616.800048828125</ele>
        <time>2026-01-06T21:47:10.000Z</time>
        <extensions>
          <ns3:TrackPointExtension>
            <ns3:hr>77</ns3:hr>
            <ns3:cad>0</ns3:cad>
          </ns3:TrackPointExtension>
        </extensions>
      </trkpt>
      <trkpt lat="37.9387401044368743896484375" lon="-107.13780082762241363525390625">
        <ele>3615.60009765625</ele>
        <time>2026-01-06T21:47:16.000Z</time>
        <extensions>
          <ns3:TrackPointExtension>
            <ns3:hr>79</ns3:hr>
            <ns3:cad>0</ns3:cad>
          </ns3:TrackPointExtension>
        </extensions>
      </trkpt>
      <trkpt lat="37.9387401044368743896484375" lon="-107.13780082762241363525390625">
        <ele>3616.199951171875</ele>
        <time>2026-01-06T21:47:22.000Z</time>
        <extensions>
          <ns3:TrackPointExtension>
            <ns3:hr>78</ns3:hr>
            <ns3:cad>0</ns3:cad>
          </ns3:TrackPointExtension>
        </extensions>
      </trkpt>
      <trkpt lat="37.9387401044368743896484375" lon="-107.13780082762241363525390625">
        <ele>3616.199951171875</ele>
        <time>2026-01-06T21:47:26.000Z</time>
        <extensions>
          <ns3:TrackPointExtension>
            <ns3:hr>78</ns3:hr>
            <ns3:cad>0</ns3:cad>
          </ns3:TrackPointExtension>
        </extensions>
      </trkpt>
      <trkpt lat="37.9387401044368743896484375" lon="-107.13780082762241363525390625">
        <ele>3616</ele>
        <time>2026-01-06T21:47:32.000Z</time>
        <extensions>
          <ns3:TrackPointExtension>
            <ns3:hr>77</ns3:hr>
            <ns3:cad>0</ns3:cad>
          </ns3:TrackPointExtension>
        </extensions>
      </trkpt>
      <trkpt lat="37.9387401044368743896484375" lon="-107.13780082762241363525390625">
        <ele>3616.199951171875</ele>
        <time>2026-01-06T21:47:34.000Z</time>
        <extensions>
          <ns3:TrackPointExtension>
            <ns3:hr>80</ns3:hr>
            <ns3:cad>0</ns3:cad>
          </ns3:TrackPointExtension>
        </extensions>
      </trkpt>
      <trkpt lat="37.9387401044368743896484375" lon="-107.13780082762241363525390625">
        <ele>3616.199951171875</ele>
        <time>2026-01-06T21:47:37.000Z</time>
        <extensions>
          <ns3:TrackPointExtension>
            <ns3:hr>80</ns3:hr>
            <ns3:cad>0</ns3:cad>
          </ns3:TrackPointExtension>
        </extensions>
      </trkpt>
      <trkpt lat="37.9387401044368743896484375" lon="-107.13780082762241363525390625">
        <ele>3616.39990234375</ele>
        <time>2026-01-06T21:47:43.000Z</time>
        <extensions>
          <ns3:TrackPointExtension>
            <ns3:hr>82</ns3:hr>
            <ns3:cad>0</ns3:cad>
          </ns3:TrackPointExtension>
        </extensions>
      </trkpt>
      <trkpt lat="37.93873784132301807403564453125" lon="-107.1378157474100589752197265625">
        <ele>3616.39990234375</ele>
        <time>2026-01-06T21:47:44.000Z</time>
        <extensions>
          <ns3:TrackPointExtension>
            <ns3:hr>85</ns3:hr>
            <ns3:cad>0</ns3:cad>
          </ns3:TrackPointExtension>
        </extensions>
      </trkpt>
      <trkpt lat="37.93873541057109832763671875" lon="-107.1378256380558013916015625">
        <ele>3616</ele>
        <time>2026-01-06T21:47:46.000Z</time>
        <extensions>
          <ns3:TrackPointExtension>
            <ns3:hr>88</ns3:hr>
            <ns3:cad>0</ns3:cad>
          </ns3:TrackPointExtension>
        </extensions>
      </trkpt>
      <trkpt lat="37.93873230926692485809326171875" lon="-107.1378470957279205322265625">
        <ele>3615.60009765625</ele>
        <time>2026-01-06T21:47:49.000Z</time>
        <extensions>
          <ns3:TrackPointExtension>
            <ns3:hr>91</ns3:hr>
            <ns3:cad>0</ns3:cad>
          </ns3:TrackPointExtension>
        </extensions>
      </trkpt>
      <trkpt lat="37.93873214162886142730712890625" lon="-107.1378470957279205322265625">
        <ele>3615.60009765625</ele>
        <time>2026-01-06T21:47:50.000Z</time>
        <extensions>
          <ns3:TrackPointExtension>
            <ns3:hr>91</ns3:hr>
            <ns3:cad>0</ns3:cad>
          </ns3:TrackPointExtension>
        </extensions>
      </trkpt>
      <trkpt lat="37.9387322254478931427001953125" lon="-107.137878946959972381591796875">
        <ele>3615.199951171875</ele>
        <time>2026-01-06T21:47:56.000Z</time>
        <extensions>
          <ns3:TrackPointExtension>
            <ns3:hr>91</ns3:hr>
            <ns3:cad>0</ns3:cad>
          </ns3:TrackPointExtension>
        </extensions>
      </trkpt>
      <trkpt lat="37.938732393085956573486328125" lon="-107.13789872825145721435546875">
        <ele>3614.60009765625</ele>
        <time>2026-01-06T21:47:59.000Z</time>
        <extensions>
          <ns3:TrackPointExtension>
            <ns3:hr>90</ns3:hr>
            <ns3:cad>0</ns3:cad>
          </ns3:TrackPointExtension>
        </extensions>
      </trkpt>
      <trkpt lat="37.93873532675206661224365234375" lon="-107.1379220299422740936279296875">
        <ele>3614</ele>
        <time>2026-01-06T21:48:05.000Z</time>
        <extensions>
          <ns3:TrackPointExtension>
            <ns3:hr>90</ns3:hr>
            <ns3:cad>0</ns3:cad>
          </ns3:TrackPointExtension>
        </extensions>
      </trkpt>
      <trkpt lat="37.9387347400188446044921875" lon="-107.1379221975803375244140625">
        <ele>3614</ele>
        <time>2026-01-06T21:48:06.000Z</time>
        <extensions>
          <ns3:TrackPointExtension>
            <ns3:hr>90</ns3:hr>
            <ns3:cad>0</ns3:cad>
          </ns3:TrackPointExtension>
        </extensions>
      </trkpt>
      <trkpt lat="37.9387374222278594970703125" lon="-107.13794256560504436492919921875">
        <ele>3614</ele>
        <time>2026-01-06T21:48:12.000Z</time>
        <extensions>
          <ns3:TrackPointExtension>
            <ns3:hr>90</ns3:hr>
            <ns3:cad>0</ns3:cad>
          </ns3:TrackPointExtension>
        </extensions>
      </trkpt>
      <trkpt lat="37.9387375898659229278564453125" lon="-107.137950025498867034912109375">
        <ele>3613.60009765625</ele>
        <time>2026-01-06T21:48:17.000Z</time>
        <extensions>
          <ns3:TrackPointExtension>
            <ns3:hr>89</ns3:hr>
            <ns3:cad>0</ns3:cad>
          </ns3:TrackPointExtension>
        </extensions>
      </trkpt>
      <trkpt lat="37.938734404742717742919921875" lon="-107.13796310126781463623046875">
        <ele>3613.39990234375</ele>
        <time>2026-01-06T21:48:20.000Z</time>
        <extensions>
          <ns3:TrackPointExtension>
            <ns3:hr>89</ns3:hr>
            <ns3:cad>0</ns3:cad>
          </ns3:TrackPointExtension>
        </extensions>
      </trkpt>
      <trkpt lat="37.93873834423720836639404296875" lon="-107.137968800961971282958984375">
        <ele>3613.60009765625</ele>
        <time>2026-01-06T21:48:26.000Z</time>
        <extensions>
          <ns3:TrackPointExtension>
            <ns3:hr>88</ns3:hr>
            <ns3:cad>0</ns3:cad>
          </ns3:TrackPointExtension>
        </extensions>
      </trkpt>
      <trkpt lat="37.93873834423720836639404296875" lon="-107.137968800961971282958984375">
        <ele>3613.39990234375</ele>
        <time>2026-01-06T21:48:28.000Z</time>
        <extensions>
          <ns3:TrackPointExtension>
            <ns3:hr>88</ns3:hr>
            <ns3:cad>0</ns3:cad>
          </ns3:TrackPointExtension>
        </extensions>
      </trkpt>
      <trkpt lat="37.93873834423720836639404296875" lon="-107.137968800961971282958984375">
        <ele>3613.199951171875</ele>
        <time>2026-01-06T21:48:31.000Z</time>
        <extensions>
          <ns3:TrackPointExtension>
            <ns3:hr>91</ns3:hr>
            <ns3:cad>0</ns3:cad>
          </ns3:TrackPointExtension>
        </extensions>
      </trkpt>
      <trkpt lat="37.93873834423720836639404296875" lon="-107.137968800961971282958984375">
        <ele>3613.60009765625</ele>
        <time>2026-01-06T21:48:37.000Z</time>
        <extensions>
          <ns3:TrackPointExtension>
            <ns3:hr>92</ns3:hr>
            <ns3:cad>0</ns3:cad>
          </ns3:TrackPointExtension>
        </extensions>
      </trkpt>
      <trkpt lat="37.93874085880815982818603515625" lon="-107.13797206990420818328857421875">
        <ele>3613.60009765625</ele>
        <time>2026-01-06T21:48:39.000Z</time>
        <extensions>
          <ns3:TrackPointExtension>
            <ns3:hr>92</ns3:hr>
            <ns3:cad>0</ns3:cad>
          </ns3:TrackPointExtension>
        </extensions>
      </trkpt>
      <trkpt lat="37.93873817659914493560791015625" lon="-107.13801674544811248779296875">
        <ele>3613.199951171875</ele>
        <time>2026-01-06T21:48:45.000Z</time>
        <extensions>
          <ns3:TrackPointExtension>
            <ns3:hr>92</ns3:hr>
            <ns3:cad>0</ns3:cad>
          </ns3:TrackPointExtension>
        </extensions>
      </trkpt>
      <trkpt lat="37.93873683549463748931884765625" lon="-107.13804616592824459075927734375">
        <ele>3613</ele>
        <time>2026-01-06T21:48:51.000Z</time>
        <extensions>
          <ns3:TrackPointExtension>
            <ns3:hr>93</ns3:hr>
            <ns3:cad>0</ns3:cad>
          </ns3:TrackPointExtension>
        </extensions>
      </trkpt>
      <trkpt lat="37.93873398564755916595458984375" lon="-107.13808991946280002593994140625">
        <ele>3612.60009765625</ele>
        <time>2026-01-06T21:48:57.000Z</time>
        <extensions>
          <ns3:TrackPointExtension>
            <ns3:hr>92</ns3:hr>
            <ns3:cad>0</ns3:cad>
          </ns3:TrackPointExtension>
        </extensions>
      </trkpt>
      <trkpt lat="37.9387332312762737274169921875" lon="-107.1380884945392608642578125">
        <ele>3612.39990234375</ele>
        <time>2026-01-06T21:48:58.000Z</time>
        <extensions>
          <ns3:TrackPointExtension>
            <ns3:hr>93</ns3:hr>
            <ns3:cad>0</ns3:cad>
          </ns3:TrackPointExtension>
        </extensions>
      </trkpt>
      <trkpt lat="37.93872929178178310394287109375" lon="-107.13811707682907581329345703125">
        <ele>3611.800048828125</ele>
        <time>2026-01-06T21:49:04.000Z</time>
        <extensions>
          <ns3:TrackPointExtension>
            <ns3:hr>93</ns3:hr>
            <ns3:cad>0</ns3:cad>
          </ns3:TrackPointExtension>
        </extensions>
      </trkpt>
      <trkpt lat="37.93873004615306854248046875" lon="-107.13812327943742275238037109375">
        <ele>3611.800048828125</ele>
        <time>2026-01-06T21:49:05.000Z</time>
        <extensions>
          <ns3:TrackPointExtension>
            <ns3:hr>93</ns3:hr>
            <ns3:cad>0</ns3:cad>
          </ns3:TrackPointExtension>
        </extensions>
      </trkpt>
      <trkpt lat="37.9387302137911319732666015625" lon="-107.13815093971788883209228515625">
        <ele>3611.60009765625</ele>
        <time>2026-01-06T21:49:10.000Z</time>
        <extensions>
          <ns3:TrackPointExtension>
            <ns3:hr>90</ns3:hr>
            <ns3:cad>0</ns3:cad>
          </ns3:TrackPointExtension>
        </extensions>
      </trkpt>
      <trkpt lat="37.9387295432388782501220703125" lon="-107.13815412484109401702880859375">
        <ele>3611.39990234375</ele>
        <time>2026-01-06T21:49:12.000Z</time>
        <extensions>
          <ns3:TrackPointExtension>
            <ns3:hr>90</ns3:hr>
            <ns3:cad>0</ns3:cad>
          </ns3:TrackPointExtension>
        </extensions>
      </trkpt>
      <trkpt lat="37.9387298785150051116943359375" lon="-107.13815412484109401702880859375">
        <ele>3611.199951171875</ele>
        <time>2026-01-06T21:49:13.000Z</time>
        <extensions>
          <ns3:TrackPointExtension>
            <ns3:hr>90</ns3:hr>
            <ns3:cad>0</ns3:cad>
          </ns3:TrackPointExtension>
        </extensions>
      </trkpt>
      <trkpt lat="37.9387320578098297119140625" lon="-107.13817105628550052642822265625">
        <ele>3610.60009765625</ele>
        <time>2026-01-06T21:49:19.000Z</time>
        <extensions>
          <ns3:TrackPointExtension>
            <ns3:hr>89</ns3:hr>
            <ns3:cad>0</ns3:cad>
          </ns3:TrackPointExtension>
        </extensions>
      </trkpt>
      <trkpt lat="37.93872443027794361114501953125" lon="-107.13820047676563262939453125">
        <ele>3610.60009765625</ele>
        <time>2026-01-06T21:49:25.000Z</time>
        <extensions>
          <ns3:TrackPointExtension>
            <ns3:hr>86</ns3:hr>
            <ns3:cad>59</ns3:cad>
          </ns3:TrackPointExtension>
        </extensions>
      </trkpt>
      <trkpt lat="37.938723005354404449462890625" lon="-107.1382157318294048309326171875">
        <ele>3610</ele>
        <time>2026-01-06T21:49:27.000Z</time>
        <extensions>
          <ns3:TrackPointExtension>
            <ns3:hr>86</ns3:hr>
            <ns3:cad>0</ns3:cad>
          </ns3:TrackPointExtension>
        </extensions>
      </trkpt>
      <trkpt lat="37.9387231729924678802490234375" lon="-107.13824607431888580322265625">
        <ele>3609.199951171875</ele>
        <time>2026-01-06T21:49:32.000Z</time>
        <extensions>
          <ns3:TrackPointExtension>
            <ns3:hr>89</ns3:hr>
            <ns3:cad>0</ns3:cad>
          </ns3:TrackPointExtension>
        </extensions>
      </trkpt>
      <trkpt lat="37.9387218318879604339599609375" lon="-107.13824967853724956512451171875">
        <ele>3609.199951171875</ele>
        <time>2026-01-06T21:49:33.000Z</time>
        <extensions>
          <ns3:TrackPointExtension>
            <ns3:hr>90</ns3:hr>
            <ns3:cad>0</ns3:cad>
          </ns3:TrackPointExtension>
        </extensions>
      </trkpt>
      <trkpt lat="37.93872342444956302642822265625" lon="-107.13824565522372722625732421875">
        <ele>3609</ele>
        <time>2026-01-06T21:49:39.000Z</time>
        <extensions>
          <ns3:TrackPointExtension>
            <ns3:hr>93</ns3:hr>
            <ns3:cad>0</ns3:cad>
          </ns3:TrackPointExtension>
        </extensions>
      </trkpt>
      <trkpt lat="37.93872342444956302642822265625" lon="-107.13824565522372722625732421875">
        <ele>3608.800048828125</ele>
        <time>2026-01-06T21:49:40.000Z</time>
        <extensions>
          <ns3:TrackPointExtension>
            <ns3:hr>92</ns3:hr>
            <ns3:cad>0</ns3:cad>
          </ns3:TrackPointExtension>
        </extensions>
      </trkpt>
      <trkpt lat="37.9387235082685947418212890625" lon="-107.13825680315494537353515625">
        <ele>3607.800048828125</ele>
        <time>2026-01-06T21:49:46.000Z</time>
        <extensions>
          <ns3:TrackPointExtension>
            <ns3:hr>93</ns3:hr>
            <ns3:cad>0</ns3:cad>
          </ns3:TrackPointExtension>
        </extensions>
      </trkpt>
      <trkpt lat="37.938723005354404449462890625" lon="-107.138265185058116912841796875">
        <ele>3607.800048828125</ele>
        <time>2026-01-06T21:49:47.000Z</time>
        <extensions>
          <ns3:TrackPointExtension>
            <ns3:hr>92</ns3:hr>
            <ns3:cad>0</ns3:cad>
          </ns3:TrackPointExtension>
        </extensions>
      </trkpt>
      <trkpt lat="37.93872191570699214935302734375" lon="-107.13828387670218944549560546875">
        <ele>3607.60009765625</ele>
        <time>2026-01-06T21:49:49.000Z</time>
        <extensions>
          <ns3:TrackPointExtension>
            <ns3:hr>92</ns3:hr>
            <ns3:cad>0</ns3:cad>
          </ns3:TrackPointExtension>
        </extensions>
      </trkpt>
      <trkpt lat="37.93872191570699214935302734375" lon="-107.13831556029617786407470703125">
        <ele>3607.60009765625</ele>
        <time>2026-01-06T21:49:54.000Z</time>
        <extensions>
          <ns3:TrackPointExtension>
            <ns3:hr>92</ns3:hr>
            <ns3:cad>0</ns3:cad>
          </ns3:TrackPointExtension>
        </extensions>
      </trkpt>
      <trkpt lat="37.93871839530766010284423828125" lon="-107.1383392810821533203125">
        <ele>3606.39990234375</ele>
        <time>2026-01-06T21:49:58.000Z</time>
        <extensions>
          <ns3:TrackPointExtension>
            <ns3:hr>93</ns3:hr>
            <ns3:cad>0</ns3:cad>
          </ns3:TrackPointExtension>
        </extensions>
      </trkpt>
      <trkpt lat="37.938719652593135833740234375" lon="-107.13836719281971454620361328125">
        <ele>3605.800048828125</ele>
        <time>2026-01-06T21:50:02.000Z</time>
        <extensions>
          <ns3:TrackPointExtension>
            <ns3:hr>96</ns3:hr>
            <ns3:cad>0</ns3:cad>
          </ns3:TrackPointExtension>
        </extensions>
      </trkpt>
      <trkpt lat="37.9387199878692626953125" lon="-107.13839770294725894927978515625">
        <ele>3606</ele>
        <time>2026-01-06T21:50:08.000Z</time>
        <extensions>
          <ns3:TrackPointExtension>
            <ns3:hr>97</ns3:hr>
            <ns3:cad>0</ns3:cad>
          </ns3:TrackPointExtension>
        </extensions>
      </trkpt>
      <trkpt lat="37.9387147910892963409423828125" lon="-107.13842712342739105224609375">
        <ele>3606</ele>
        <time>2026-01-06T21:50:14.000Z</time>
        <extensions>
          <ns3:TrackPointExtension>
            <ns3:hr>98</ns3:hr>
            <ns3:cad>0</ns3:cad>
          </ns3:TrackPointExtension>
        </extensions>
      </trkpt>
      <trkpt lat="37.9387107677757740020751953125" lon="-107.13843676261603832244873046875">
        <ele>3605.800048828125</ele>
        <time>2026-01-06T21:50:17.000Z</time>
        <extensions>
          <ns3:TrackPointExtension>
            <ns3:hr>97</ns3:hr>
            <ns3:cad>0</ns3:cad>
          </ns3:TrackPointExtension>
        </extensions>
      </trkpt>
      <trkpt lat="37.938708923757076263427734375" lon="-107.13844112120568752288818359375">
        <ele>3605.199951171875</ele>
        <time>2026-01-06T21:50:21.000Z</time>
        <extensions>
          <ns3:TrackPointExtension>
            <ns3:hr>96</ns3:hr>
            <ns3:cad>0</ns3:cad>
          </ns3:TrackPointExtension>
        </extensions>
      </trkpt>
      <trkpt lat="37.93870515190064907073974609375" lon="-107.13844749145209789276123046875">
        <ele>3605.199951171875</ele>
        <time>2026-01-06T21:50:22.000Z</time>
        <extensions>
          <ns3:TrackPointExtension>
            <ns3:hr>97</ns3:hr>
            <ns3:cad>0</ns3:cad>
          </ns3:TrackPointExtension>
        </extensions>
      </trkpt>
      <trkpt lat="37.93869945220649242401123046875" lon="-107.1384799294173717498779296875">
        <ele>3604.800048828125</ele>
        <time>2026-01-06T21:50:28.000Z</time>
        <extensions>
          <ns3:TrackPointExtension>
            <ns3:hr>97</ns3:hr>
            <ns3:cad>0</ns3:cad>
          </ns3:TrackPointExtension>
        </extensions>
      </trkpt>
      <trkpt lat="37.93869945220649242401123046875" lon="-107.1384799294173717498779296875">
        <ele>3605</ele>
        <time>2026-01-06T21:50:30.000Z</time>
        <extensions>
          <ns3:TrackPointExtension>
            <ns3:hr>98</ns3:hr>
            <ns3:cad>0</ns3:cad>
          </ns3:TrackPointExtension>
        </extensions>
      </trkpt>
      <trkpt lat="37.93868838809430599212646484375" lon="-107.1385007165372371673583984375">
        <ele>3605</ele>
        <time>2026-01-06T21:50:35.000Z</time>
        <extensions>
          <ns3:TrackPointExtension>
            <ns3:hr>99</ns3:hr>
            <ns3:cad>0</ns3:cad>
          </ns3:TrackPointExtension>
        </extensions>
      </trkpt>
      <trkpt lat="37.93866827152669429779052734375" lon="-107.138532735407352447509765625">
        <ele>3604.60009765625</ele>
        <time>2026-01-06T21:50:41.000Z</time>
        <extensions>
          <ns3:TrackPointExtension>
            <ns3:hr>99</ns3:hr>
            <ns3:cad>0</ns3:cad>
          </ns3:TrackPointExtension>
        </extensions>
      </trkpt>
      <trkpt lat="37.93865603394806385040283203125" lon="-107.13855184614658355712890625">
        <ele>3604.800048828125</ele>
        <time>2026-01-06T21:50:47.000Z</time>
        <extensions>
          <ns3:TrackPointExtension>
            <ns3:hr>99</ns3:hr>
            <ns3:cad>50</ns3:cad>
          </ns3:TrackPointExtension>
        </extensions>
      </trkpt>
      <trkpt lat="37.9386510886251926422119140625" lon="-107.138560228049755096435546875">
        <ele>3604.199951171875</ele>
        <time>2026-01-06T21:50:50.000Z</time>
        <extensions>
          <ns3:TrackPointExtension>
            <ns3:hr>101</ns3:hr>
            <ns3:cad>0</ns3:cad>
          </ns3:TrackPointExtension>
        </extensions>
      </trkpt>
      <trkpt lat="37.938636839389801025390625" lon="-107.13857942260801792144775390625">
        <ele>3604.39990234375</ele>
        <time>2026-01-06T21:50:53.000Z</time>
        <extensions>
          <ns3:TrackPointExtension>
            <ns3:hr>101</ns3:hr>
            <ns3:cad>77</ns3:cad>
          </ns3:TrackPointExtension>
        </extensions>
      </trkpt>
      <trkpt lat="37.938629128038883209228515625" lon="-107.13859518058598041534423828125">
        <ele>3603.800048828125</ele>
        <time>2026-01-06T21:50:59.000Z</time>
        <extensions>
          <ns3:TrackPointExtension>
            <ns3:hr>100</ns3:hr>
            <ns3:cad>0</ns3:cad>
          </ns3:TrackPointExtension>
        </extensions>
      </trkpt>
      <trkpt lat="37.93862879276275634765625" lon="-107.13859484530985355377197265625">
        <ele>3603.800048828125</ele>
        <time>2026-01-06T21:51:00.000Z</time>
        <extensions>
          <ns3:TrackPointExtension>
            <ns3:hr>100</ns3:hr>
            <ns3:cad>0</ns3:cad>
          </ns3:TrackPointExtension>
        </extensions>
      </trkpt>
      <trkpt lat="37.93861739337444305419921875" lon="-107.1386061608791351318359375">
        <ele>3603.800048828125</ele>
        <time>2026-01-06T21:51:06.000Z</time>
        <extensions>
          <ns3:TrackPointExtension>
            <ns3:hr>99</ns3:hr>
            <ns3:cad>69</ns3:cad>
          </ns3:TrackPointExtension>
        </extensions>
      </trkpt>
      <trkpt lat="37.9385979473590850830078125" lon="-107.13863591663539409637451171875">
        <ele>3603.60009765625</ele>
        <time>2026-01-06T21:51:10.000Z</time>
        <extensions>
          <ns3:TrackPointExtension>
            <ns3:hr>94</ns3:hr>
            <ns3:cad>0</ns3:cad>
          </ns3:TrackPointExtension>
        </extensions>
      </trkpt>
      <trkpt lat="37.9385917447507381439208984375" lon="-107.13864664547145366668701171875">
        <ele>3603.60009765625</ele>
        <time>2026-01-06T21:51:11.000Z</time>
        <extensions>
          <ns3:TrackPointExtension>
            <ns3:hr>92</ns3:hr>
            <ns3:cad>0</ns3:cad>
          </ns3:TrackPointExtension>
        </extensions>
      </trkpt>
      <trkpt lat="37.93857824988663196563720703125" lon="-107.13865703903138637542724609375">
        <ele>3603.199951171875</ele>
        <time>2026-01-06T21:51:16.000Z</time>
        <extensions>
          <ns3:TrackPointExtension>
            <ns3:hr>90</ns3:hr>
            <ns3:cad>0</ns3:cad>
          </ns3:TrackPointExtension>
        </extensions>
      </trkpt>
      <trkpt lat="37.938572801649570465087890625" lon="-107.13866047561168670654296875">
        <ele>3603.199951171875</ele>
        <time>2026-01-06T21:51:17.000Z</time>
        <extensions>
          <ns3:TrackPointExtension>
            <ns3:hr>90</ns3:hr>
            <ns3:cad>0</ns3:cad>
          </ns3:TrackPointExtension>
        </extensions>
      </trkpt>
      <trkpt lat="37.93855595402419567108154296875" lon="-107.13868469931185245513916015625">
        <ele>3602.800048828125</ele>
        <time>2026-01-06T21:51:23.000Z</time>
        <extensions>
          <ns3:TrackPointExtension>
            <ns3:hr>90</ns3:hr>
            <ns3:cad>0</ns3:cad>
          </ns3:TrackPointExtension>
        </extensions>
      </trkpt>
      <trkpt lat="37.938529215753078460693359375" lon="-107.13870800100266933441162109375">
        <ele>3603.39990234375</ele>
        <time>2026-01-06T21:51:29.000Z</time>
        <extensions>
          <ns3:TrackPointExtension>
            <ns3:hr>91</ns3:hr>
            <ns3:cad>0</ns3:cad>
          </ns3:TrackPointExtension>
        </extensions>
      </trkpt>
      <trkpt lat="37.9385067522525787353515625" lon="-107.13874806649982929229736328125">
        <ele>3602.199951171875</ele>
        <time>2026-01-06T21:51:34.000Z</time>
        <extensions>
          <ns3:TrackPointExtension>
            <ns3:hr>88</ns3:hr>
            <ns3:cad>0</ns3:cad>
          </ns3:TrackPointExtension>
        </extensions>
      </trkpt>
      <trkpt lat="37.938505746424198150634765625" lon="-107.1387510001659393310546875">
        <ele>3602</ele>
        <time>2026-01-06T21:51:35.000Z</time>
        <extensions>
          <ns3:TrackPointExtension>
            <ns3:hr>88</ns3:hr>
            <ns3:cad>0</ns3:cad>
          </ns3:TrackPointExtension>
        </extensions>
      </trkpt>
      <trkpt lat="37.93850700370967388153076171875" lon="-107.13875577785074710845947265625">
        <ele>3602</ele>
        <time>2026-01-06T21:51:37.000Z</time>
        <extensions>
          <ns3:TrackPointExtension>
            <ns3:hr>87</ns3:hr>
            <ns3:cad>0</ns3:cad>
          </ns3:TrackPointExtension>
        </extensions>
      </trkpt>
      <trkpt lat="37.938505746424198150634765625" lon="-107.1387773193418979644775390625">
        <ele>3602</ele>
        <time>2026-01-06T21:51:42.000Z</time>
        <extensions>
          <ns3:TrackPointExtension>
            <ns3:hr>86</ns3:hr>
            <ns3:cad>0</ns3:cad>
          </ns3:TrackPointExtension>
        </extensions>
      </trkpt>
      <trkpt lat="37.93850968591868877410888671875" lon="-107.13881093077361583709716796875">
        <ele>3601.199951171875</ele>
        <time>2026-01-06T21:51:48.000Z</time>
        <extensions>
          <ns3:TrackPointExtension>
            <ns3:hr>87</ns3:hr>
            <ns3:cad>0</ns3:cad>
          </ns3:TrackPointExtension>
        </extensions>
      </trkpt>
      <trkpt lat="37.9385166428983211517333984375" lon="-107.13882274925708770751953125">
        <ele>3600.800048828125</ele>
        <time>2026-01-06T21:51:50.000Z</time>
        <extensions>
          <ns3:TrackPointExtension>
            <ns3:hr>87</ns3:hr>
            <ns3:cad>0</ns3:cad>
          </ns3:TrackPointExtension>
        </extensions>
      </trkpt>
      <trkpt lat="37.938519157469272613525390625" lon="-107.13882677257061004638671875">
        <ele>3600.60009765625</ele>
        <time>2026-01-06T21:51:51.000Z</time>
        <extensions>
          <ns3:TrackPointExtension>
            <ns3:hr>87</ns3:hr>
            <ns3:cad>0</ns3:cad>
          </ns3:TrackPointExtension>
        </extensions>
      </trkpt>
      <trkpt lat="37.93853935785591602325439453125" lon="-107.13885887525975704193115234375">
        <ele>3599.60009765625</ele>
        <time>2026-01-06T21:51:55.000Z</time>
        <extensions>
          <ns3:TrackPointExtension>
            <ns3:hr>87</ns3:hr>
            <ns3:cad>0</ns3:cad>
          </ns3:TrackPointExtension>
        </extensions>
      </trkpt>
      <trkpt lat="37.9385443031787872314453125" lon="-107.1388628147542476654052734375">
        <ele>3599.39990234375</ele>
        <time>2026-01-06T21:51:56.000Z</time>
        <extensions>
          <ns3:TrackPointExtension>
            <ns3:hr>87</ns3:hr>
            <ns3:cad>0</ns3:cad>
          </ns3:TrackPointExtension>
        </extensions>
      </trkpt>
      <trkpt lat="37.938574142754077911376953125" lon="-107.13887228630483150482177734375">
        <ele>3598.60009765625</ele>
        <time>2026-01-06T21:52:01.000Z</time>
        <extensions>
          <ns3:TrackPointExtension>
            <ns3:hr>85</ns3:hr>
            <ns3:cad>51</ns3:cad>
          </ns3:TrackPointExtension>
        </extensions>
      </trkpt>
      <trkpt lat="37.93861228041350841522216796875" lon="-107.13887639343738555908203125">
        <ele>3597.800048828125</ele>
        <time>2026-01-06T21:52:07.000Z</time>
        <extensions>
          <ns3:TrackPointExtension>
            <ns3:hr>86</ns3:hr>
            <ns3:cad>0</ns3:cad>
          </ns3:TrackPointExtension>
        </extensions>
      </trkpt>
      <trkpt lat="37.9386140406131744384765625" lon="-107.13888284750282764434814453125">
        <ele>3597.800048828125</ele>
        <time>2026-01-06T21:52:08.000Z</time>
        <extensions>
          <ns3:TrackPointExtension>
            <ns3:hr>86</ns3:hr>
            <ns3:cad>0</ns3:cad>
          </ns3:TrackPointExtension>
        </extensions>
      </trkpt>
      <trkpt lat="37.9386138729751110076904296875" lon="-107.13888846337795257568359375">
        <ele>3597.39990234375</ele>
        <time>2026-01-06T21:52:11.000Z</time>
        <extensions>
          <ns3:TrackPointExtension>
            <ns3:hr>87</ns3:hr>
            <ns3:cad>19</ns3:cad>
          </ns3:TrackPointExtension>
        </extensions>
      </trkpt>
      <trkpt lat="37.93862552382051944732666015625" lon="-107.1388946659862995147705078125">
        <ele>3597.39990234375</ele>
        <time>2026-01-06T21:52:14.000Z</time>
        <extensions>
          <ns3:TrackPointExtension>
            <ns3:hr>88</ns3:hr>
            <ns3:cad>0</ns3:cad>
          </ns3:TrackPointExtension>
        </extensions>
      </trkpt>
      <trkpt lat="37.93866944499313831329345703125" lon="-107.13889374397695064544677734375">
        <ele>3596.60009765625</ele>
        <time>2026-01-06T21:52:20.000Z</time>
        <extensions>
          <ns3:TrackPointExtension>
            <ns3:hr>89</ns3:hr>
            <ns3:cad>54</ns3:cad>
          </ns3:TrackPointExtension>
        </extensions>
      </trkpt>
      <trkpt lat="37.93867648579180240631103515625" lon="-107.13889458216726779937744140625">
        <ele>3596.39990234375</ele>
        <time>2026-01-06T21:52:21.000Z</time>
        <extensions>
          <ns3:TrackPointExtension>
            <ns3:hr>89</ns3:hr>
            <ns3:cad>54</ns3:cad>
          </ns3:TrackPointExtension>
        </extensions>
      </trkpt>
      <trkpt lat="37.93869392015039920806884765625" lon="-107.13888645172119140625">
        <ele>3596.39990234375</ele>
        <time>2026-01-06T21:52:23.000Z</time>
        <extensions>
          <ns3:TrackPointExtension>
            <ns3:hr>89</ns3:hr>
            <ns3:cad>0</ns3:cad>
          </ns3:TrackPointExtension>
        </extensions>
      </trkpt>
      <trkpt lat="37.938727699220180511474609375" lon="-107.1388943307101726531982421875">
        <ele>3596.39990234375</ele>
        <time>2026-01-06T21:52:29.000Z</time>
        <extensions>
          <ns3:TrackPointExtension>
            <ns3:hr>90</ns3:hr>
            <ns3:cad>0</ns3:cad>
          </ns3:TrackPointExtension>
        </extensions>
      </trkpt>
      <trkpt lat="37.93872292153537273406982421875" lon="-107.13894856162369251251220703125">
        <ele>3595.800048828125</ele>
        <time>2026-01-06T21:52:35.000Z</time>
        <extensions>
          <ns3:TrackPointExtension>
            <ns3:hr>90</ns3:hr>
            <ns3:cad>0</ns3:cad>
          </ns3:TrackPointExtension>
        </extensions>
      </trkpt>
      <trkpt lat="37.93872811831533908843994140625" lon="-107.138967923820018768310546875">
        <ele>3595.199951171875</ele>
        <time>2026-01-06T21:52:37.000Z</time>
        <extensions>
          <ns3:TrackPointExtension>
            <ns3:hr>89</ns3:hr>
            <ns3:cad>0</ns3:cad>
          </ns3:TrackPointExtension>
        </extensions>
      </trkpt>
      <trkpt lat="37.93876382522284984588623046875" lon="-107.13900824077427387237548828125">
        <ele>3594.39990234375</ele>
        <time>2026-01-06T21:52:43.000Z</time>
        <extensions>
          <ns3:TrackPointExtension>
            <ns3:hr>87</ns3:hr>
            <ns3:cad>0</ns3:cad>
          </ns3:TrackPointExtension>
        </extensions>
      </trkpt>
      <trkpt lat="37.938769944012165069580078125" lon="-107.13901025243103504180908203125">
        <ele>3594</ele>
        <time>2026-01-06T21:52:44.000Z</time>
        <extensions>
          <ns3:TrackPointExtension>
            <ns3:hr>87</ns3:hr>
            <ns3:cad>0</ns3:cad>
          </ns3:TrackPointExtension>
        </extensions>
      </trkpt>
      <trkpt lat="37.93879249133169651031494140625" lon="-107.13903103955090045928955078125">
        <ele>3593</ele>
        <time>2026-01-06T21:52:48.000Z</time>
        <extensions>
          <ns3:TrackPointExtension>
            <ns3:hr>87</ns3:hr>
            <ns3:cad>48</ns3:cad>
          </ns3:TrackPointExtension>
        </extensions>
      </trkpt>
      <trkpt lat="37.938800789415836334228515625" lon="-107.13903690688312053680419921875">
        <ele>3593</ele>
        <time>2026-01-06T21:52:49.000Z</time>
        <extensions>
          <ns3:TrackPointExtension>
            <ns3:hr>86</ns3:hr>
            <ns3:cad>0</ns3:cad>
          </ns3:TrackPointExtension>
        </extensions>
      </trkpt>
      <trkpt lat="37.9388178884983062744140625" lon="-107.13908283971250057220458984375">
        <ele>3592.39990234375</ele>
        <time>2026-01-06T21:52:55.000Z</time>
        <extensions>
          <ns3:TrackPointExtension>
            <ns3:hr>87</ns3:hr>
            <ns3:cad>0</ns3:cad>
          </ns3:TrackPointExtension>
        </extensions>
      </trkpt>
      <trkpt lat="37.93882216326892375946044921875" lon="-107.1390961669385433197021484375">
        <ele>3591.800048828125</ele>
        <time>2026-01-06T21:52:57.000Z</time>
        <extensions>
          <ns3:TrackPointExtension>
            <ns3:hr>86</ns3:hr>
            <ns3:cad>0</ns3:cad>
          </ns3:TrackPointExtension>
        </extensions>
      </trkpt>
      <trkpt lat="37.9388579539954662322998046875" lon="-107.139154337346553802490234375">
        <ele>3590.800048828125</ele>
        <time>2026-01-06T21:53:03.000Z</time>
        <extensions>
          <ns3:TrackPointExtension>
            <ns3:hr>86</ns3:hr>
            <ns3:cad>48</ns3:cad>
          </ns3:TrackPointExtension>
        </extensions>
      </trkpt>
      <trkpt lat="37.93888351880013942718505859375" lon="-107.139178477227687835693359375">
        <ele>3590</ele>
        <time>2026-01-06T21:53:06.000Z</time>
        <extensions>
          <ns3:TrackPointExtension>
            <ns3:hr>83</ns3:hr>
            <ns3:cad>0</ns3:cad>
          </ns3:TrackPointExtension>
        </extensions>
      </trkpt>
      <trkpt lat="37.93890598230063915252685546875" lon="-107.1392094902694225311279296875">
        <ele>3589.800048828125</ele>
        <time>2026-01-06T21:53:09.000Z</time>
        <extensions>
          <ns3:TrackPointExtension>
            <ns3:hr>84</ns3:hr>
            <ns3:cad>0</ns3:cad>
          </ns3:TrackPointExtension>
        </extensions>
      </trkpt>
      <trkpt lat="37.93891268782317638397216796875" lon="-107.13922114111483097076416015625">
        <ele>3589.60009765625</ele>
        <time>2026-01-06T21:53:10.000Z</time>
        <extensions>
          <ns3:TrackPointExtension>
            <ns3:hr>85</ns3:hr>
            <ns3:cad>0</ns3:cad>
          </ns3:TrackPointExtension>
        </extensions>
      </trkpt>
      <trkpt lat="37.93891520239412784576416015625" lon="-107.1392396651208400726318359375">
        <ele>3589.60009765625</ele>
        <time>2026-01-06T21:53:12.000Z</time>
        <extensions>
          <ns3:TrackPointExtension>
            <ns3:hr>84</ns3:hr>
            <ns3:cad>0</ns3:cad>
          </ns3:TrackPointExtension>
        </extensions>
      </trkpt>
      <trkpt lat="37.93891067616641521453857421875" lon="-107.13928014971315860748291015625">
        <ele>3589</ele>
        <time>2026-01-06T21:53:16.000Z</time>
        <extensions>
          <ns3:TrackPointExtension>
            <ns3:hr>84</ns3:hr>
            <ns3:cad>0</ns3:cad>
          </ns3:TrackPointExtension>
        </extensions>
      </trkpt>
      <trkpt lat="37.9389085806906223297119140625" lon="-107.13929255492985248565673828125">
        <ele>3588.60009765625</ele>
        <time>2026-01-06T21:53:17.000Z</time>
        <extensions>
          <ns3:TrackPointExtension>
            <ns3:hr>85</ns3:hr>
            <ns3:cad>0</ns3:cad>
          </ns3:TrackPointExtension>
        </extensions>
      </trkpt>
      <trkpt lat="37.9388881288468837738037109375" lon="-107.139363549649715423583984375">
        <ele>3588</ele>
        <time>2026-01-06T21:53:23.000Z</time>
        <extensions>
          <ns3:TrackPointExtension>
            <ns3:hr>83</ns3:hr>
            <ns3:cad>48</ns3:cad>
          </ns3:TrackPointExtension>
        </extensions>
      </trkpt>
      <trkpt lat="37.93888033367693424224853515625" lon="-107.13937553577125072479248046875">
        <ele>3588</ele>
        <time>2026-01-06T21:53:24.000Z</time>
        <extensions>
          <ns3:TrackPointExtension>
            <ns3:hr>83</ns3:hr>
            <ns3:cad>0</ns3:cad>
          </ns3:TrackPointExtension>
        </extensions>
      </trkpt>
      <trkpt lat="37.93884747661650180816650390625" lon="-107.13940202258527278900146484375">
        <ele>3587.60009765625</ele>
        <time>2026-01-06T21:53:28.000Z</time>
        <extensions>
          <ns3:TrackPointExtension>
            <ns3:hr>83</ns3:hr>
            <ns3:cad>0</ns3:cad>
          </ns3:TrackPointExtension>
        </extensions>
      </trkpt>
      <trkpt lat="37.93883607722818851470947265625" lon="-107.13943571783602237701416015625">
        <ele>3587.39990234375</ele>
        <time>2026-01-06T21:53:31.000Z</time>
        <extensions>
          <ns3:TrackPointExtension>
            <ns3:hr>83</ns3:hr>
            <ns3:cad>47</ns3:cad>
          </ns3:TrackPointExtension>
        </extensions>
      </trkpt>
      <trkpt lat="37.93879550881683826446533203125" lon="-107.13946455158293247222900390625">
        <ele>3586.800048828125</ele>
        <time>2026-01-06T21:53:37.000Z</time>
        <extensions>
          <ns3:TrackPointExtension>
            <ns3:hr>83</ns3:hr>
            <ns3:cad>48</ns3:cad>
          </ns3:TrackPointExtension>
        </extensions>
      </trkpt>
      <trkpt lat="37.938769273459911346435546875" lon="-107.13948123157024383544921875">
        <ele>3587.39990234375</ele>
        <time>2026-01-06T21:53:43.000Z</time>
        <extensions>
          <ns3:TrackPointExtension>
            <ns3:hr>84</ns3:hr>
            <ns3:cad>0</ns3:cad>
          </ns3:TrackPointExtension>
        </extensions>
      </trkpt>
      <trkpt lat="37.93876214884221553802490234375" lon="-107.1394881047308444976806640625">
        <ele>3587.39990234375</ele>
        <time>2026-01-06T21:53:44.000Z</time>
        <extensions>
          <ns3:TrackPointExtension>
            <ns3:hr>84</ns3:hr>
            <ns3:cad>0</ns3:cad>
          </ns3:TrackPointExtension>
        </extensions>
      </trkpt>
      <trkpt lat="37.9387141205370426177978515625" lon="-107.13954954408109188079833984375">
        <ele>3586.800048828125</ele>
        <time>2026-01-06T21:53:50.000Z</time>
        <extensions>
          <ns3:TrackPointExtension>
            <ns3:hr>84</ns3:hr>
            <ns3:cad>0</ns3:cad>
          </ns3:TrackPointExtension>
        </extensions>
      </trkpt>
      <trkpt lat="37.93869542889297008514404296875" lon="-107.1395803056657314300537109375">
        <ele>3586.39990234375</ele>
        <time>2026-01-06T21:53:53.000Z</time>
        <extensions>
          <ns3:TrackPointExtension>
            <ns3:hr>83</ns3:hr>
            <ns3:cad>53</ns3:cad>
          </ns3:TrackPointExtension>
        </extensions>
      </trkpt>
      <trkpt lat="37.93869777582585811614990234375" lon="-107.13962531648576259613037109375">
        <ele>3585.800048828125</ele>
        <time>2026-01-06T21:53:56.000Z</time>
        <extensions>
          <ns3:TrackPointExtension>
            <ns3:hr>83</ns3:hr>
            <ns3:cad>0</ns3:cad>
          </ns3:TrackPointExtension>
        </extensions>
      </trkpt>
      <trkpt lat="37.9387050680816173553466796875" lon="-107.13963973335921764373779296875">
        <ele>3585.800048828125</ele>
        <time>2026-01-06T21:53:57.000Z</time>
        <extensions>
          <ns3:TrackPointExtension>
            <ns3:hr>84</ns3:hr>
            <ns3:cad>0</ns3:cad>
          </ns3:TrackPointExtension>
        </extensions>
      </trkpt>
      <trkpt lat="37.93870548717677593231201171875" lon="-107.139663957059383392333984375">
        <ele>3585.60009765625</ele>
        <time>2026-01-06T21:54:00.000Z</time>
        <extensions>
          <ns3:TrackPointExtension>
            <ns3:hr>84</ns3:hr>
            <ns3:cad>44</ns3:cad>
          </ns3:TrackPointExtension>
        </extensions>
      </trkpt>
      <trkpt lat="37.93869492597877979278564453125" lon="-107.13967837393283843994140625">
        <ele>3585.39990234375</ele>
        <time>2026-01-06T21:54:02.000Z</time>
        <extensions>
          <ns3:TrackPointExtension>
            <ns3:hr>84</ns3:hr>
            <ns3:cad>44</ns3:cad>
          </ns3:TrackPointExtension>
        </extensions>
      </trkpt>
      <trkpt lat="37.93869056738913059234619140625" lon="-107.1396889351308345794677734375">
        <ele>3585.199951171875</ele>
        <time>2026-01-06T21:54:03.000Z</time>
        <extensions>
          <ns3:TrackPointExtension>
            <ns3:hr>85</ns3:hr>
            <ns3:cad>55</ns3:cad>
          </ns3:TrackPointExtension>
        </extensions>
      </trkpt>
      <trkpt lat="37.93870062567293643951416015625" lon="-107.1397519670426845550537109375">
        <ele>3584.199951171875</ele>
        <time>2026-01-06T21:54:09.000Z</time>
        <extensions>
          <ns3:TrackPointExtension>
            <ns3:hr>84</ns3:hr>
            <ns3:cad>56</ns3:cad>
          </ns3:TrackPointExtension>
        </extensions>
      </trkpt>
      <trkpt lat="37.93869693763554096221923828125" lon="-107.13980720378458499908447265625">
        <ele>3583.60009765625</ele>
        <time>2026-01-06T21:54:15.000Z</time>
        <extensions>
          <ns3:TrackPointExtension>
            <ns3:hr>83</ns3:hr>
            <ns3:cad>48</ns3:cad>
          </ns3:TrackPointExtension>
        </extensions>
      </trkpt>
      <trkpt lat="37.93869517743587493896484375" lon="-107.1398200280964374542236328125">
        <ele>3583.39990234375</ele>
        <time>2026-01-06T21:54:16.000Z</time>
        <extensions>
          <ns3:TrackPointExtension>
            <ns3:hr>83</ns3:hr>
            <ns3:cad>48</ns3:cad>
          </ns3:TrackPointExtension>
        </extensions>
      </trkpt>
      <trkpt lat="37.93867346830666065216064453125" lon="-107.1398507058620452880859375">
        <ele>3583.199951171875</ele>
        <time>2026-01-06T21:54:20.000Z</time>
        <extensions>
          <ns3:TrackPointExtension>
            <ns3:hr>83</ns3:hr>
            <ns3:cad>47</ns3:cad>
          </ns3:TrackPointExtension>
        </extensions>
      </trkpt>
      <trkpt lat="37.9386567883193492889404296875" lon="-107.13988783769309520721435546875">
        <ele>3583.199951171875</ele>
        <time>2026-01-06T21:54:23.000Z</time>
        <extensions>
          <ns3:TrackPointExtension>
            <ns3:hr>83</ns3:hr>
            <ns3:cad>0</ns3:cad>
          </ns3:TrackPointExtension>
        </extensions>
      </trkpt>
      <trkpt lat="37.93863826431334018707275390625" lon="-107.13996562175452709197998046875">
        <ele>3582.800048828125</ele>
        <time>2026-01-06T21:54:29.000Z</time>
        <extensions>
          <ns3:TrackPointExtension>
            <ns3:hr>83</ns3:hr>
            <ns3:cad>0</ns3:cad>
          </ns3:TrackPointExtension>
        </extensions>
      </trkpt>
      <trkpt lat="37.93863206170499324798583984375" lon="-107.139977104961872100830078125">
        <ele>3582.800048828125</ele>
        <time>2026-01-06T21:54:30.000Z</time>
        <extensions>
          <ns3:TrackPointExtension>
            <ns3:hr>84</ns3:hr>
            <ns3:cad>0</ns3:cad>
          </ns3:TrackPointExtension>
        </extensions>
      </trkpt>
      <trkpt lat="37.9386041499674320220947265625" lon="-107.1400466747581958770751953125">
        <ele>3582.199951171875</ele>
        <time>2026-01-06T21:54:36.000Z</time>
        <extensions>
          <ns3:TrackPointExtension>
            <ns3:hr>84</ns3:hr>
            <ns3:cad>46</ns3:cad>
          </ns3:TrackPointExtension>
        </extensions>
      </trkpt>
      <trkpt lat="37.938608340919017791748046875" lon="-107.14005581103265285491943359375">
        <ele>3582.199951171875</ele>
        <time>2026-01-06T21:54:37.000Z</time>
        <extensions>
          <ns3:TrackPointExtension>
            <ns3:hr>83</ns3:hr>
            <ns3:cad>46</ns3:cad>
          </ns3:TrackPointExtension>
        </extensions>
      </trkpt>
      <trkpt lat="37.9385994561016559600830078125" lon="-107.14009788818657398223876953125">
        <ele>3581.60009765625</ele>
        <time>2026-01-06T21:54:42.000Z</time>
        <extensions>
          <ns3:TrackPointExtension>
            <ns3:hr>83</ns3:hr>
            <ns3:cad>44</ns3:cad>
          </ns3:TrackPointExtension>
        </extensions>
      </trkpt>
      <trkpt lat="37.93859635479748249053955078125" lon="-107.1401462517678737640380859375">
        <ele>3581.199951171875</ele>
        <time>2026-01-06T21:54:47.000Z</time>
        <extensions>
          <ns3:TrackPointExtension>
            <ns3:hr>83</ns3:hr>
            <ns3:cad>0</ns3:cad>
          </ns3:TrackPointExtension>
        </extensions>
      </trkpt>
      <trkpt lat="37.93859920464456081390380859375" lon="-107.14015723206102848052978515625">
        <ele>3581</ele>
        <time>2026-01-06T21:54:48.000Z</time>
        <extensions>
          <ns3:TrackPointExtension>
            <ns3:hr>83</ns3:hr>
            <ns3:cad>0</ns3:cad>
          </ns3:TrackPointExtension>
        </extensions>
      </trkpt>
      <trkpt lat="37.93860205449163913726806640625" lon="-107.14024323038756847381591796875">
        <ele>3580</ele>
        <time>2026-01-06T21:54:54.000Z</time>
        <extensions>
          <ns3:TrackPointExtension>
            <ns3:hr>81</ns3:hr>
            <ns3:cad>0</ns3:cad>
          </ns3:TrackPointExtension>
        </extensions>
      </trkpt>
      <trkpt lat="37.93860876001417636871337890625" lon="-107.1402619220316410064697265625">
        <ele>3579.60009765625</ele>
        <time>2026-01-06T21:54:56.000Z</time>
        <extensions>
          <ns3:TrackPointExtension>
            <ns3:hr>81</ns3:hr>
            <ns3:cad>51</ns3:cad>
          </ns3:TrackPointExtension>
        </extensions>
      </trkpt>
      <trkpt lat="37.9386081732809543609619140625" lon="-107.14029838331043720245361328125">
        <ele>3579</ele>
        <time>2026-01-06T21:54:59.000Z</time>
        <extensions>
          <ns3:TrackPointExtension>
            <ns3:hr>81</ns3:hr>
            <ns3:cad>51</ns3:cad>
          </ns3:TrackPointExtension>
        </extensions>
      </trkpt>
      <trkpt lat="37.93859652243554592132568359375" lon="-107.14033375494182109832763671875">
        <ele>3578.199951171875</ele>
        <time>2026-01-06T21:55:03.000Z</time>
        <extensions>
          <ns3:TrackPointExtension>
            <ns3:hr>81</ns3:hr>
            <ns3:cad>48</ns3:cad>
          </ns3:TrackPointExtension>
        </extensions>
      </trkpt>
      <trkpt lat="37.938592918217182159423828125" lon="-107.1403571404516696929931640625">
        <ele>3578.199951171875</ele>
        <time>2026-01-06T21:55:05.000Z</time>
        <extensions>
          <ns3:TrackPointExtension>
            <ns3:hr>78</ns3:hr>
            <ns3:cad>48</ns3:cad>
          </ns3:TrackPointExtension>
        </extensions>
      </trkpt>
      <trkpt lat="37.938596941530704498291015625" lon="-107.1403809450566768646240234375">
        <ele>3578.199951171875</ele>
        <time>2026-01-06T21:55:08.000Z</time>
        <extensions>
          <ns3:TrackPointExtension>
            <ns3:hr>75</ns3:hr>
            <ns3:cad>0</ns3:cad>
          </ns3:TrackPointExtension>
        </extensions>
      </trkpt>
      <trkpt lat="37.9385925829410552978515625" lon="-107.1403883211314678192138671875">
        <ele>3578</ele>
        <time>2026-01-06T21:55:09.000Z</time>
        <extensions>
          <ns3:TrackPointExtension>
            <ns3:hr>75</ns3:hr>
            <ns3:cad>0</ns3:cad>
          </ns3:TrackPointExtension>
        </extensions>
      </trkpt>
      <trkpt lat="37.93858654797077178955078125" lon="-107.1403970383107662200927734375">
        <ele>3578</ele>
        <time>2026-01-06T21:55:10.000Z</time>
        <extensions>
          <ns3:TrackPointExtension>
            <ns3:hr>74</ns3:hr>
            <ns3:cad>0</ns3:cad>
          </ns3:TrackPointExtension>
        </extensions>
      </trkpt>
      <trkpt lat="37.93858143500983715057373046875" lon="-107.14040382765233516693115234375">
        <ele>3577.800048828125</ele>
        <time>2026-01-06T21:55:11.000Z</time>
        <extensions>
          <ns3:TrackPointExtension>
            <ns3:hr>75</ns3:hr>
            <ns3:cad>0</ns3:cad>
          </ns3:TrackPointExtension>
        </extensions>
      </trkpt>
      <trkpt lat="37.9385592229664325714111328125" lon="-107.14045755565166473388671875">
        <ele>3577</ele>
        <time>2026-01-06T21:55:16.000Z</time>
        <extensions>
          <ns3:TrackPointExtension>
            <ns3:hr>75</ns3:hr>
            <ns3:cad>0</ns3:cad>
          </ns3:TrackPointExtension>
        </extensions>
      </trkpt>
      <trkpt lat="37.93856366537511348724365234375" lon="-107.14045512489974498748779296875">
        <ele>3577</ele>
        <time>2026-01-06T21:55:17.000Z</time>
        <extensions>
          <ns3:TrackPointExtension>
            <ns3:hr>75</ns3:hr>
            <ns3:cad>46</ns3:cad>
          </ns3:TrackPointExtension>
        </extensions>
      </trkpt>
      <trkpt lat="37.93856433592736721038818359375" lon="-107.14045353233814239501953125">
        <ele>3576.60009765625</ele>
        <time>2026-01-06T21:55:23.000Z</time>
        <extensions>
          <ns3:TrackPointExtension>
            <ns3:hr>74</ns3:hr>
            <ns3:cad>46</ns3:cad>
          </ns3:TrackPointExtension>
        </extensions>
      </trkpt>
      <trkpt lat="37.93856550939381122589111328125" lon="-107.1404483355581760406494140625">
        <ele>3576.60009765625</ele>
        <time>2026-01-06T21:55:24.000Z</time>
        <extensions>
          <ns3:TrackPointExtension>
            <ns3:hr>75</ns3:hr>
            <ns3:cad>0</ns3:cad>
          </ns3:TrackPointExtension>
        </extensions>
      </trkpt>
      <trkpt lat="37.93854841031134128570556640625" lon="-107.14046769775450229644775390625">
        <ele>3577.39990234375</ele>
        <time>2026-01-06T21:55:30.000Z</time>
        <extensions>
          <ns3:TrackPointExtension>
            <ns3:hr>78</ns3:hr>
            <ns3:cad>0</ns3:cad>
          </ns3:TrackPointExtension>
        </extensions>
      </trkpt>
      <trkpt lat="37.93854488991200923919677734375" lon="-107.1404828689992427825927734375">
        <ele>3577.39990234375</ele>
        <time>2026-01-06T21:55:31.000Z</time>
        <extensions>
          <ns3:TrackPointExtension>
            <ns3:hr>78</ns3:hr>
            <ns3:cad>0</ns3:cad>
          </ns3:TrackPointExtension>
        </extensions>
      </trkpt>
      <trkpt lat="37.93852619826793670654296875" lon="-107.14056484401226043701171875">
        <ele>3576.60009765625</ele>
        <time>2026-01-06T21:55:37.000Z</time>
        <extensions>
          <ns3:TrackPointExtension>
            <ns3:hr>77</ns3:hr>
            <ns3:cad>0</ns3:cad>
          </ns3:TrackPointExtension>
        </extensions>
      </trkpt>
      <trkpt lat="37.93848403729498386383056640625" lon="-107.1406186558306217193603515625">
        <ele>3576</ele>
        <time>2026-01-06T21:55:42.000Z</time>
        <extensions>
          <ns3:TrackPointExtension>
            <ns3:hr>80</ns3:hr>
            <ns3:cad>0</ns3:cad>
          </ns3:TrackPointExtension>
        </extensions>
      </trkpt>
      <trkpt lat="37.9384774155914783477783203125" lon="-107.1406260319054126739501953125">
        <ele>3576.199951171875</ele>
        <time>2026-01-06T21:55:43.000Z</time>
        <extensions>
          <ns3:TrackPointExtension>
            <ns3:hr>81</ns3:hr>
            <ns3:cad>0</ns3:cad>
          </ns3:TrackPointExtension>
        </extensions>
      </trkpt>
      <trkpt lat="37.93844841420650482177734375" lon="-107.14066986925899982452392578125">
        <ele>3575.800048828125</ele>
        <time>2026-01-06T21:55:47.000Z</time>
        <extensions>
          <ns3:TrackPointExtension>
            <ns3:hr>81</ns3:hr>
            <ns3:cad>48</ns3:cad>
          </ns3:TrackPointExtension>
        </extensions>
      </trkpt>
      <trkpt lat="37.93843173421919345855712890625" lon="-107.1406927518546581268310546875">
        <ele>3575.60009765625</ele>
        <time>2026-01-06T21:55:49.000Z</time>
        <extensions>
          <ns3:TrackPointExtension>
            <ns3:hr>82</ns3:hr>
            <ns3:cad>44</ns3:cad>
          </ns3:TrackPointExtension>
        </extensions>
      </trkpt>
      <trkpt lat="37.938395105302333831787109375" lon="-107.14075385592877864837646484375">
        <ele>3574.800048828125</ele>
        <time>2026-01-06T21:55:54.000Z</time>
        <extensions>
          <ns3:TrackPointExtension>
            <ns3:hr>83</ns3:hr>
            <ns3:cad>45</ns3:cad>
          </ns3:TrackPointExtension>
        </extensions>
      </trkpt>
      <trkpt lat="37.938393764197826385498046875" lon="-107.14078252203762531280517578125">
        <ele>3574.39990234375</ele>
        <time>2026-01-06T21:55:56.000Z</time>
        <extensions>
          <ns3:TrackPointExtension>
            <ns3:hr>83</ns3:hr>
            <ns3:cad>45</ns3:cad>
          </ns3:TrackPointExtension>
        </extensions>
      </trkpt>
      <trkpt lat="37.93838529847562313079833984375" lon="-107.14086717925965785980224609375">
        <ele>3573.800048828125</ele>
        <time>2026-01-06T21:56:02.000Z</time>
        <extensions>
          <ns3:TrackPointExtension>
            <ns3:hr>80</ns3:hr>
            <ns3:cad>47</ns3:cad>
          </ns3:TrackPointExtension>
        </extensions>
      </trkpt>
      <trkpt lat="37.9383838735520839691162109375" lon="-107.14088344015181064605712890625">
        <ele>3573.800048828125</ele>
        <time>2026-01-06T21:56:03.000Z</time>
        <extensions>
          <ns3:TrackPointExtension>
            <ns3:hr>79</ns3:hr>
            <ns3:cad>47</ns3:cad>
          </ns3:TrackPointExtension>
        </extensions>
      </trkpt>
      <trkpt lat="37.9383808560669422149658203125" lon="-107.14089618064463138580322265625">
        <ele>3573.60009765625</ele>
        <time>2026-01-06T21:56:04.000Z</time>
        <extensions>
          <ns3:TrackPointExtension>
            <ns3:hr>79</ns3:hr>
            <ns3:cad>51</ns3:cad>
          </ns3:TrackPointExtension>
        </extensions>
      </trkpt>
      <trkpt lat="37.938363254070281982421875" lon="-107.1409665048122406005859375">
        <ele>3573.199951171875</ele>
        <time>2026-01-06T21:56:10.000Z</time>
        <extensions>
          <ns3:TrackPointExtension>
            <ns3:hr>77</ns3:hr>
            <ns3:cad>52</ns3:cad>
          </ns3:TrackPointExtension>
        </extensions>
      </trkpt>
      <trkpt lat="37.93835110031068325042724609375" lon="-107.1410067379474639892578125">
        <ele>3573</ele>
        <time>2026-01-06T21:56:13.000Z</time>
        <extensions>
          <ns3:TrackPointExtension>
            <ns3:hr>77</ns3:hr>
            <ns3:cad>49</ns3:cad>
          </ns3:TrackPointExtension>
        </extensions>
      </trkpt>
      <trkpt lat="37.93831321410834789276123046875" lon="-107.14106750674545764923095703125">
        <ele>3572.800048828125</ele>
        <time>2026-01-06T21:56:18.000Z</time>
        <extensions>
          <ns3:TrackPointExtension>
            <ns3:hr>77</ns3:hr>
            <ns3:cad>49</ns3:cad>
          </ns3:TrackPointExtension>
        </extensions>
      </trkpt>
      <trkpt lat="37.93829628266394138336181640625" lon="-107.14108142070472240447998046875">
        <ele>3572.199951171875</ele>
        <time>2026-01-06T21:56:20.000Z</time>
        <extensions>
          <ns3:TrackPointExtension>
            <ns3:hr>78</ns3:hr>
            <ns3:cad>49</ns3:cad>
          </ns3:TrackPointExtension>
        </extensions>
      </trkpt>
      <trkpt lat="37.938275076448917388916015625" lon="-107.1410950832068920135498046875">
        <ele>3571.800048828125</ele>
        <time>2026-01-06T21:56:22.000Z</time>
        <extensions>
          <ns3:TrackPointExtension>
            <ns3:hr>77</ns3:hr>
            <ns3:cad>49</ns3:cad>
          </ns3:TrackPointExtension>
        </extensions>
      </trkpt>
      <trkpt lat="37.9382420517504215240478515625" lon="-107.14111746288836002349853515625">
        <ele>3571.60009765625</ele>
        <time>2026-01-06T21:56:26.000Z</time>
        <extensions>
          <ns3:TrackPointExtension>
            <ns3:hr>77</ns3:hr>
            <ns3:cad>41</ns3:cad>
          </ns3:TrackPointExtension>
        </extensions>
      </trkpt>
      <trkpt lat="37.93820424936711788177490234375" lon="-107.14114596135914325714111328125">
        <ele>3572</ele>
        <time>2026-01-06T21:56:31.000Z</time>
        <extensions>
          <ns3:TrackPointExtension>
            <ns3:hr>74</ns3:hr>
            <ns3:cad>0</ns3:cad>
          </ns3:TrackPointExtension>
        </extensions>
      </trkpt>
      <trkpt lat="37.9381847195327281951904296875" lon="-107.14117663912475109100341796875">
        <ele>3571.60009765625</ele>
        <time>2026-01-06T21:56:34.000Z</time>
        <extensions>
          <ns3:TrackPointExtension>
            <ns3:hr>75</ns3:hr>
            <ns3:cad>0</ns3:cad>
          </ns3:TrackPointExtension>
        </extensions>
      </trkpt>
      <trkpt lat="37.93817910365760326385498046875" lon="-107.14121653698384761810302734375">
        <ele>3571.39990234375</ele>
        <time>2026-01-06T21:56:38.000Z</time>
        <extensions>
          <ns3:TrackPointExtension>
            <ns3:hr>78</ns3:hr>
            <ns3:cad>0</ns3:cad>
          </ns3:TrackPointExtension>
        </extensions>
      </trkpt>
      <trkpt lat="37.9381790198385715484619140625" lon="-107.14123145677149295806884765625">
        <ele>3571.39990234375</ele>
        <time>2026-01-06T21:56:39.000Z</time>
        <extensions>
          <ns3:TrackPointExtension>
            <ns3:hr>79</ns3:hr>
            <ns3:cad>0</ns3:cad>
          </ns3:TrackPointExtension>
        </extensions>
      </trkpt>
      <trkpt lat="37.9381931014358997344970703125" lon="-107.14126029051840305328369140625">
        <ele>3571.39990234375</ele>
        <time>2026-01-06T21:56:41.000Z</time>
        <extensions>
          <ns3:TrackPointExtension>
            <ns3:hr>79</ns3:hr>
            <ns3:cad>47</ns3:cad>
          </ns3:TrackPointExtension>
        </extensions>
      </trkpt>
      <trkpt lat="37.93821883387863636016845703125" lon="-107.14130404405295848846435546875">
        <ele>3570.60009765625</ele>
        <time>2026-01-06T21:56:45.000Z</time>
        <extensions>
          <ns3:TrackPointExtension>
            <ns3:hr>80</ns3:hr>
            <ns3:cad>47</ns3:cad>
          </ns3:TrackPointExtension>
        </extensions>
      </trkpt>
      <trkpt lat="37.93819938786327838897705078125" lon="-107.14135299436748027801513671875">
        <ele>3570</ele>
        <time>2026-01-06T21:56:50.000Z</time>
        <extensions>
          <ns3:TrackPointExtension>
            <ns3:hr>79</ns3:hr>
            <ns3:cad>0</ns3:cad>
          </ns3:TrackPointExtension>
        </extensions>
      </trkpt>
      <trkpt lat="37.93819301761686801910400390625" lon="-107.14136204682290554046630859375">
        <ele>3569.800048828125</ele>
        <time>2026-01-06T21:56:51.000Z</time>
        <extensions>
          <ns3:TrackPointExtension>
            <ns3:hr>78</ns3:hr>
            <ns3:cad>0</ns3:cad>
          </ns3:TrackPointExtension>
        </extensions>
      </trkpt>
      <trkpt lat="37.938185222446918487548828125" lon="-107.14138157665729522705078125">
        <ele>3569.60009765625</ele>
        <time>2026-01-06T21:56:53.000Z</time>
        <extensions>
          <ns3:TrackPointExtension>
            <ns3:hr>78</ns3:hr>
            <ns3:cad>0</ns3:cad>
          </ns3:TrackPointExtension>
        </extensions>
      </trkpt>
      <trkpt lat="37.9381612502038478851318359375" lon="-107.14143614284694194793701171875">
        <ele>3568.60009765625</ele>
        <time>2026-01-06T21:56:57.000Z</time>
        <extensions>
          <ns3:TrackPointExtension>
            <ns3:hr>76</ns3:hr>
            <ns3:cad>48</ns3:cad>
          </ns3:TrackPointExtension>
        </extensions>
      </trkpt>
      <trkpt lat="37.93815529905259609222412109375" lon="-107.1414461173117160797119140625">
        <ele>3568.39990234375</ele>
        <time>2026-01-06T21:56:58.000Z</time>
        <extensions>
          <ns3:TrackPointExtension>
            <ns3:hr>76</ns3:hr>
            <ns3:cad>48</ns3:cad>
          </ns3:TrackPointExtension>
        </extensions>
      </trkpt>
      <trkpt lat="37.9381216876208782196044921875" lon="-107.141506969928741455078125">
        <ele>3567.60009765625</ele>
        <time>2026-01-06T21:57:04.000Z</time>
        <extensions>
          <ns3:TrackPointExtension>
            <ns3:hr>77</ns3:hr>
            <ns3:cad>48</ns3:cad>
          </ns3:TrackPointExtension>
        </extensions>
      </trkpt>
      <trkpt lat="37.93811389245092868804931640625" lon="-107.1415212191641330718994140625">
        <ele>3567.39990234375</ele>
        <time>2026-01-06T21:57:05.000Z</time>
        <extensions>
          <ns3:TrackPointExtension>
            <ns3:hr>77</ns3:hr>
            <ns3:cad>48</ns3:cad>
          </ns3:TrackPointExtension>
        </extensions>
      </trkpt>
      <trkpt lat="37.93806376866996288299560546875" lon="-107.1415768750011920928955078125">
        <ele>3567</ele>
        <time>2026-01-06T21:57:11.000Z</time>
        <extensions>
          <ns3:TrackPointExtension>
            <ns3:hr>78</ns3:hr>
            <ns3:cad>51</ns3:cad>
          </ns3:TrackPointExtension>
        </extensions>
      </trkpt>
      <trkpt lat="37.93804415501654148101806640625" lon="-107.14159120805561542510986328125">
        <ele>3566.39990234375</ele>
        <time>2026-01-06T21:57:13.000Z</time>
        <extensions>
          <ns3:TrackPointExtension>
            <ns3:hr>78</ns3:hr>
            <ns3:cad>50</ns3:cad>
          </ns3:TrackPointExtension>
        </extensions>
      </trkpt>
      <trkpt lat="37.93798279948532581329345703125" lon="-107.14162859134376049041748046875">
        <ele>3565.39990234375</ele>
        <time>2026-01-06T21:57:19.000Z</time>
        <extensions>
          <ns3:TrackPointExtension>
            <ns3:hr>77</ns3:hr>
            <ns3:cad>0</ns3:cad>
          </ns3:TrackPointExtension>
        </extensions>
      </trkpt>
      <trkpt lat="37.937971986830234527587890625" lon="-107.14163772761821746826171875">
        <ele>3565.199951171875</ele>
        <time>2026-01-06T21:57:20.000Z</time>
        <extensions>
          <ns3:TrackPointExtension>
            <ns3:hr>77</ns3:hr>
            <ns3:cad>0</ns3:cad>
          </ns3:TrackPointExtension>
        </extensions>
      </trkpt>
      <trkpt lat="37.93794055469334125518798828125" lon="-107.14169405400753021240234375">
        <ele>3564.60009765625</ele>
        <time>2026-01-06T21:57:26.000Z</time>
        <extensions>
          <ns3:TrackPointExtension>
            <ns3:hr>75</ns3:hr>
            <ns3:cad>47</ns3:cad>
          </ns3:TrackPointExtension>
        </extensions>
      </trkpt>
      <trkpt lat="37.9379367828369140625" lon="-107.14171014726161956787109375">
        <ele>3564.199951171875</ele>
        <time>2026-01-06T21:57:27.000Z</time>
        <extensions>
          <ns3:TrackPointExtension>
            <ns3:hr>75</ns3:hr>
            <ns3:cad>47</ns3:cad>
          </ns3:TrackPointExtension>
        </extensions>
      </trkpt>
      <trkpt lat="37.93793485499918460845947265625" lon="-107.14175641536712646484375">
        <ele>3563.199951171875</ele>
        <time>2026-01-06T21:57:30.000Z</time>
        <extensions>
          <ns3:TrackPointExtension>
            <ns3:hr>75</ns3:hr>
            <ns3:cad>47</ns3:cad>
          </ns3:TrackPointExtension>
        </extensions>
      </trkpt>
      <trkpt lat="37.9379255510866641998291015625" lon="-107.14179438538849353790283203125">
        <ele>3562.39990234375</ele>
        <time>2026-01-06T21:57:34.000Z</time>
        <extensions>
          <ns3:TrackPointExtension>
            <ns3:hr>75</ns3:hr>
            <ns3:cad>0</ns3:cad>
          </ns3:TrackPointExtension>
        </extensions>
      </trkpt>
      <trkpt lat="37.9379245452582836151123046875" lon="-107.14181651361286640167236328125">
        <ele>3562</ele>
        <time>2026-01-06T21:57:36.000Z</time>
        <extensions>
          <ns3:TrackPointExtension>
            <ns3:hr>75</ns3:hr>
            <ns3:cad>0</ns3:cad>
          </ns3:TrackPointExtension>
        </extensions>
      </trkpt>
      <trkpt lat="37.93791465461254119873046875" lon="-107.141904272139072418212890625">
        <ele>3561.199951171875</ele>
        <time>2026-01-06T21:57:42.000Z</time>
        <extensions>
          <ns3:TrackPointExtension>
            <ns3:hr>76</ns3:hr>
            <ns3:cad>0</ns3:cad>
          </ns3:TrackPointExtension>
        </extensions>
      </trkpt>
      <trkpt lat="37.93792446143925189971923828125" lon="-107.14191257022321224212646484375">
        <ele>3561.199951171875</ele>
        <time>2026-01-06T21:57:43.000Z</time>
        <extensions>
          <ns3:TrackPointExtension>
            <ns3:hr>77</ns3:hr>
            <ns3:cad>0</ns3:cad>
          </ns3:TrackPointExtension>
        </extensions>
      </trkpt>
      <trkpt lat="37.9379595816135406494140625" lon="-107.141928412020206451416015625">
        <ele>3561</ele>
        <time>2026-01-06T21:57:46.000Z</time>
        <extensions>
          <ns3:TrackPointExtension>
            <ns3:hr>78</ns3:hr>
            <ns3:cad>0</ns3:cad>
          </ns3:TrackPointExtension>
        </extensions>
      </trkpt>
      <trkpt lat="37.93796922080218791961669921875" lon="-107.14193570427596569061279296875">
        <ele>3561</ele>
        <time>2026-01-06T21:57:47.000Z</time>
        <extensions>
          <ns3:TrackPointExtension>
            <ns3:hr>78</ns3:hr>
            <ns3:cad>47</ns3:cad>
          </ns3:TrackPointExtension>
        </extensions>
      </trkpt>
      <trkpt lat="37.9380013234913349151611328125" lon="-107.1419691480696201324462890625">
        <ele>3561.199951171875</ele>
        <time>2026-01-06T21:57:52.000Z</time>
        <extensions>
          <ns3:TrackPointExtension>
            <ns3:hr>78</ns3:hr>
            <ns3:cad>44</ns3:cad>
          </ns3:TrackPointExtension>
        </extensions>
      </trkpt>
      <trkpt lat="37.93805086053907871246337890625" lon="-107.14203109033405780792236328125">
        <ele>3560.60009765625</ele>
        <time>2026-01-06T21:57:58.000Z</time>
        <extensions>
          <ns3:TrackPointExtension>
            <ns3:hr>76</ns3:hr>
            <ns3:cad>59</ns3:cad>
          </ns3:TrackPointExtension>
        </extensions>
      </trkpt>
      <trkpt lat="37.93805639259517192840576171875" lon="-107.142043076455593109130859375">
        <ele>3560.60009765625</ele>
        <time>2026-01-06T21:57:59.000Z</time>
        <extensions>
          <ns3:TrackPointExtension>
            <ns3:hr>76</ns3:hr>
            <ns3:cad>59</ns3:cad>
          </ns3:TrackPointExtension>
        </extensions>
      </trkpt>
      <trkpt lat="37.9380884952843189239501953125" lon="-107.14211876504123210906982421875">
        <ele>3560</ele>
        <time>2026-01-06T21:58:05.000Z</time>
        <extensions>
          <ns3:TrackPointExtension>
            <ns3:hr>76</ns3:hr>
            <ns3:cad>0</ns3:cad>
          </ns3:TrackPointExtension>
        </extensions>
      </trkpt>
      <trkpt lat="37.93809846974909305572509765625" lon="-107.14213217608630657196044921875">
        <ele>3560.199951171875</ele>
        <time>2026-01-06T21:58:06.000Z</time>
        <extensions>
          <ns3:TrackPointExtension>
            <ns3:hr>76</ns3:hr>
            <ns3:cad>0</ns3:cad>
          </ns3:TrackPointExtension>
        </extensions>
      </trkpt>
      <trkpt lat="37.9381205141544342041015625" lon="-107.142176516354084014892578125">
        <ele>3560.39990234375</ele>
        <time>2026-01-06T21:58:11.000Z</time>
        <extensions>
          <ns3:TrackPointExtension>
            <ns3:hr>77</ns3:hr>
            <ns3:cad>48</ns3:cad>
          </ns3:TrackPointExtension>
        </extensions>
      </trkpt>
      <trkpt lat="37.9381446540355682373046875" lon="-107.1421988122165203094482421875">
        <ele>3560</ele>
        <time>2026-01-06T21:58:14.000Z</time>
        <extensions>
          <ns3:TrackPointExtension>
            <ns3:hr>76</ns3:hr>
            <ns3:cad>48</ns3:cad>
          </ns3:TrackPointExtension>
        </extensions>
      </trkpt>
      <trkpt lat="37.93815429322421550750732421875" lon="-107.14222379028797149658203125">
        <ele>3559.800048828125</ele>
        <time>2026-01-06T21:58:16.000Z</time>
        <extensions>
          <ns3:TrackPointExtension>
            <ns3:hr>76</ns3:hr>
            <ns3:cad>0</ns3:cad>
          </ns3:TrackPointExtension>
        </extensions>
      </trkpt>
      <trkpt lat="37.9381578974425792694091796875" lon="-107.14223594404757022857666015625">
        <ele>3559.60009765625</ele>
        <time>2026-01-06T21:58:17.000Z</time>
        <extensions>
          <ns3:TrackPointExtension>
            <ns3:hr>77</ns3:hr>
            <ns3:cad>0</ns3:cad>
          </ns3:TrackPointExtension>
        </extensions>
      </trkpt>
      <trkpt lat="37.93816887773573398590087890625" lon="-107.14229830540716648101806640625">
        <ele>3559.199951171875</ele>
        <time>2026-01-06T21:58:22.000Z</time>
        <extensions>
          <ns3:TrackPointExtension>
            <ns3:hr>80</ns3:hr>
            <ns3:cad>0</ns3:cad>
          </ns3:TrackPointExtension>
        </extensions>
      </trkpt>
      <trkpt lat="37.938170135021209716796875" lon="-107.142311632633209228515625">
        <ele>3559</ele>
        <time>2026-01-06T21:58:23.000Z</time>
        <extensions>
          <ns3:TrackPointExtension>
            <ns3:hr>80</ns3:hr>
            <ns3:cad>0</ns3:cad>
          </ns3:TrackPointExtension>
        </extensions>
      </trkpt>
      <trkpt lat="37.9381706379354000091552734375" lon="-107.14232143945991992950439453125">
        <ele>3559</ele>
        <time>2026-01-06T21:58:24.000Z</time>
        <extensions>
          <ns3:TrackPointExtension>
            <ns3:hr>80</ns3:hr>
            <ns3:cad>0</ns3:cad>
          </ns3:TrackPointExtension>
        </extensions>
      </trkpt>
      <trkpt lat="37.9381813667714595794677734375" lon="-107.1424060128629207611083984375">
        <ele>3558.39990234375</ele>
        <time>2026-01-06T21:58:30.000Z</time>
        <extensions>
          <ns3:TrackPointExtension>
            <ns3:hr>80</ns3:hr>
            <ns3:cad>45</ns3:cad>
          </ns3:TrackPointExtension>
        </extensions>
      </trkpt>
      <trkpt lat="37.93818027712404727935791015625" lon="-107.14241749607026576995849609375">
        <ele>3558.39990234375</ele>
        <time>2026-01-06T21:58:31.000Z</time>
        <extensions>
          <ns3:TrackPointExtension>
            <ns3:hr>81</ns3:hr>
            <ns3:cad>45</ns3:cad>
          </ns3:TrackPointExtension>
        </extensions>
      </trkpt>
      <trkpt lat="37.93816770426928997039794921875" lon="-107.1424516104161739349365234375">
        <ele>3558.199951171875</ele>
        <time>2026-01-06T21:58:34.000Z</time>
        <extensions>
          <ns3:TrackPointExtension>
            <ns3:hr>84</ns3:hr>
            <ns3:cad>0</ns3:cad>
          </ns3:TrackPointExtension>
        </extensions>
      </trkpt>
      <trkpt lat="37.93815395794808864593505859375" lon="-107.1424787677824497222900390625">
        <ele>3558.60009765625</ele>
        <time>2026-01-06T21:58:38.000Z</time>
        <extensions>
          <ns3:TrackPointExtension>
            <ns3:hr>83</ns3:hr>
            <ns3:cad>0</ns3:cad>
          </ns3:TrackPointExtension>
        </extensions>
      </trkpt>
      <trkpt lat="37.9381377808749675750732421875" lon="-107.14252159930765628814697265625">
        <ele>3559</ele>
        <time>2026-01-06T21:58:44.000Z</time>
        <extensions>
          <ns3:TrackPointExtension>
            <ns3:hr>83</ns3:hr>
            <ns3:cad>0</ns3:cad>
          </ns3:TrackPointExtension>
        </extensions>
      </trkpt>
      <trkpt lat="37.93810701929032802581787109375" lon="-107.1425679512321949005126953125">
        <ele>3558.39990234375</ele>
        <time>2026-01-06T21:58:50.000Z</time>
        <extensions>
          <ns3:TrackPointExtension>
            <ns3:hr>84</ns3:hr>
            <ns3:cad>0</ns3:cad>
          </ns3:TrackPointExtension>
        </extensions>
      </trkpt>
      <trkpt lat="37.93809444643557071685791015625" lon="-107.1425897441804409027099609375">
        <ele>3557.800048828125</ele>
        <time>2026-01-06T21:58:52.000Z</time>
        <extensions>
          <ns3:TrackPointExtension>
            <ns3:hr>85</ns3:hr>
            <ns3:cad>0</ns3:cad>
          </ns3:TrackPointExtension>
        </extensions>
      </trkpt>
      <trkpt lat="37.9380646906793117523193359375" lon="-107.1426383592188358306884765625">
        <ele>3557.39990234375</ele>
        <time>2026-01-06T21:58:57.000Z</time>
        <extensions>
          <ns3:TrackPointExtension>
            <ns3:hr>86</ns3:hr>
            <ns3:cad>47</ns3:cad>
          </ns3:TrackPointExtension>
        </extensions>
      </trkpt>
      <trkpt lat="37.9380204342305660247802734375" lon="-107.14268487878143787384033203125">
        <ele>3557</ele>
        <time>2026-01-06T21:59:03.000Z</time>
        <extensions>
          <ns3:TrackPointExtension>
            <ns3:hr>86</ns3:hr>
            <ns3:cad>0</ns3:cad>
          </ns3:TrackPointExtension>
        </extensions>
      </trkpt>
      <trkpt lat="37.9380103759467601776123046875" lon="-107.14269225485622882843017578125">
        <ele>3556.800048828125</ele>
        <time>2026-01-06T21:59:04.000Z</time>
        <extensions>
          <ns3:TrackPointExtension>
            <ns3:hr>86</ns3:hr>
            <ns3:cad>0</ns3:cad>
          </ns3:TrackPointExtension>
        </extensions>
      </trkpt>
      <trkpt lat="37.93799872510135173797607421875" lon="-107.1426966972649097442626953125">
        <ele>3556.800048828125</ele>
        <time>2026-01-06T21:59:05.000Z</time>
        <extensions>
          <ns3:TrackPointExtension>
            <ns3:hr>86</ns3:hr>
            <ns3:cad>0</ns3:cad>
          </ns3:TrackPointExtension>
        </extensions>
      </trkpt>
      <trkpt lat="37.937967292964458465576171875" lon="-107.1427144668996334075927734375">
        <ele>3555.60009765625</ele>
        <time>2026-01-06T21:59:09.000Z</time>
        <extensions>
          <ns3:TrackPointExtension>
            <ns3:hr>86</ns3:hr>
            <ns3:cad>0</ns3:cad>
          </ns3:TrackPointExtension>
        </extensions>
      </trkpt>
      <trkpt lat="37.93794927187263965606689453125" lon="-107.142735756933689117431640625">
        <ele>3555</ele>
        <time>2026-01-06T21:59:11.000Z</time>
        <extensions>
          <ns3:TrackPointExtension>
            <ns3:hr>86</ns3:hr>
            <ns3:cad>49</ns3:cad>
          </ns3:TrackPointExtension>
        </extensions>
      </trkpt>
      <trkpt lat="37.9379362799227237701416015625" lon="-107.14277272112667560577392578125">
        <ele>3554.39990234375</ele>
        <time>2026-01-06T21:59:14.000Z</time>
        <extensions>
          <ns3:TrackPointExtension>
            <ns3:hr>86</ns3:hr>
            <ns3:cad>49</ns3:cad>
          </ns3:TrackPointExtension>
        </extensions>
      </trkpt>
      <trkpt lat="37.93792077340185642242431640625" lon="-107.14280926622450351715087890625">
        <ele>3553.800048828125</ele>
        <time>2026-01-06T21:59:18.000Z</time>
        <extensions>
          <ns3:TrackPointExtension>
            <ns3:hr>86</ns3:hr>
            <ns3:cad>49</ns3:cad>
          </ns3:TrackPointExtension>
        </extensions>
      </trkpt>
      <trkpt lat="37.93789722025394439697265625" lon="-107.14285301975905895233154296875">
        <ele>3553.199951171875</ele>
        <time>2026-01-06T21:59:23.000Z</time>
        <extensions>
          <ns3:TrackPointExtension>
            <ns3:hr>85</ns3:hr>
            <ns3:cad>44</ns3:cad>
          </ns3:TrackPointExtension>
        </extensions>
      </trkpt>
      <trkpt lat="37.9378833062946796417236328125" lon="-107.14287581853568553924560546875">
        <ele>3552.800048828125</ele>
        <time>2026-01-06T21:59:25.000Z</time>
        <extensions>
          <ns3:TrackPointExtension>
            <ns3:hr>85</ns3:hr>
            <ns3:cad>44</ns3:cad>
          </ns3:TrackPointExtension>
        </extensions>
      </trkpt>
      <trkpt lat="37.93786394409835338592529296875" lon="-107.14291202835738658905029296875">
        <ele>3552.199951171875</ele>
        <time>2026-01-06T21:59:28.000Z</time>
        <extensions>
          <ns3:TrackPointExtension>
            <ns3:hr>87</ns3:hr>
            <ns3:cad>45</ns3:cad>
          </ns3:TrackPointExtension>
        </extensions>
      </trkpt>
      <trkpt lat="37.93784198351204395294189453125" lon="-107.142958380281925201416015625">
        <ele>3551.800048828125</ele>
        <time>2026-01-06T21:59:32.000Z</time>
        <extensions>
          <ns3:TrackPointExtension>
            <ns3:hr>91</ns3:hr>
            <ns3:cad>45</ns3:cad>
          </ns3:TrackPointExtension>
        </extensions>
      </trkpt>
      <trkpt lat="37.93782874010503292083740234375" lon="-107.1429813466966152191162109375">
        <ele>3551.39990234375</ele>
        <time>2026-01-06T21:59:34.000Z</time>
        <extensions>
          <ns3:TrackPointExtension>
            <ns3:hr>93</ns3:hr>
            <ns3:cad>45</ns3:cad>
          </ns3:TrackPointExtension>
        </extensions>
      </trkpt>
      <trkpt lat="37.937819100916385650634765625" lon="-107.14300255291163921356201171875">
        <ele>3551</ele>
        <time>2026-01-06T21:59:36.000Z</time>
        <extensions>
          <ns3:TrackPointExtension>
            <ns3:hr>95</ns3:hr>
            <ns3:cad>0</ns3:cad>
          </ns3:TrackPointExtension>
        </extensions>
      </trkpt>
      <trkpt lat="37.93778934516012668609619140625" lon="-107.14305921457707881927490234375">
        <ele>3550.60009765625</ele>
        <time>2026-01-06T21:59:41.000Z</time>
        <extensions>
          <ns3:TrackPointExtension>
            <ns3:hr>96</ns3:hr>
            <ns3:cad>0</ns3:cad>
          </ns3:TrackPointExtension>
        </extensions>
      </trkpt>
      <trkpt lat="37.9377616010606288909912109375" lon="-107.143106572329998016357421875">
        <ele>3550</ele>
        <time>2026-01-06T21:59:47.000Z</time>
        <extensions>
          <ns3:TrackPointExtension>
            <ns3:hr>97</ns3:hr>
            <ns3:cad>0</ns3:cad>
          </ns3:TrackPointExtension>
        </extensions>
      </trkpt>
      <trkpt lat="37.9377552308142185211181640625" lon="-107.14310682378709316253662109375">
        <ele>3549.800048828125</ele>
        <time>2026-01-06T21:59:48.000Z</time>
        <extensions>
          <ns3:TrackPointExtension>
            <ns3:hr>97</ns3:hr>
            <ns3:cad>0</ns3:cad>
          </ns3:TrackPointExtension>
        </extensions>
      </trkpt>
      <trkpt lat="37.9377310909330844879150390625" lon="-107.14314219541847705841064453125">
        <ele>3549.199951171875</ele>
        <time>2026-01-06T21:59:52.000Z</time>
        <extensions>
          <ns3:TrackPointExtension>
            <ns3:hr>97</ns3:hr>
            <ns3:cad>0</ns3:cad>
          </ns3:TrackPointExtension>
        </extensions>
      </trkpt>
      <trkpt lat="37.9377317614853382110595703125" lon="-107.1431432850658893585205078125">
        <ele>3548.800048828125</ele>
        <time>2026-01-06T21:59:58.000Z</time>
        <extensions>
          <ns3:TrackPointExtension>
            <ns3:hr>95</ns3:hr>
            <ns3:cad>0</ns3:cad>
          </ns3:TrackPointExtension>
        </extensions>
      </trkpt>
      <trkpt lat="37.9377317614853382110595703125" lon="-107.1431432850658893585205078125">
        <ele>3548.800048828125</ele>
        <time>2026-01-06T22:00:04.000Z</time>
        <extensions>
          <ns3:TrackPointExtension>
            <ns3:hr>95</ns3:hr>
            <ns3:cad>0</ns3:cad>
          </ns3:TrackPointExtension>
        </extensions>
      </trkpt>
      <trkpt lat="37.9377317614853382110595703125" lon="-107.1431432850658893585205078125">
        <ele>3548.800048828125</ele>
        <time>2026-01-06T22:00:06.000Z</time>
        <extensions>
          <ns3:TrackPointExtension>
            <ns3:hr>94</ns3:hr>
            <ns3:cad>0</ns3:cad>
          </ns3:TrackPointExtension>
        </extensions>
      </trkpt>
      <trkpt lat="37.9377317614853382110595703125" lon="-107.1431432850658893585205078125">
        <ele>3548.199951171875</ele>
        <time>2026-01-06T22:00:10.000Z</time>
        <extensions>
          <ns3:TrackPointExtension>
            <ns3:hr>93</ns3:hr>
            <ns3:cad>0</ns3:cad>
          </ns3:TrackPointExtension>
        </extensions>
      </trkpt>
      <trkpt lat="37.93773402459919452667236328125" lon="-107.14314923621714115142822265625">
        <ele>3548.800048828125</ele>
        <time>2026-01-06T22:00:16.000Z</time>
        <extensions>
          <ns3:TrackPointExtension>
            <ns3:hr>93</ns3:hr>
            <ns3:cad>0</ns3:cad>
          </ns3:TrackPointExtension>
        </extensions>
      </trkpt>
      <trkpt lat="37.9377448372542858123779296875" lon="-107.1431659162044525146484375">
        <ele>3549</ele>
        <time>2026-01-06T22:00:19.000Z</time>
        <extensions>
          <ns3:TrackPointExtension>
            <ns3:hr>92</ns3:hr>
            <ns3:cad>0</ns3:cad>
          </ns3:TrackPointExtension>
        </extensions>
      </trkpt>
      <trkpt lat="37.937747351825237274169921875" lon="-107.1431644074618816375732421875">
        <ele>3548.800048828125</ele>
        <time>2026-01-06T22:00:25.000Z</time>
        <extensions>
          <ns3:TrackPointExtension>
            <ns3:hr>90</ns3:hr>
            <ns3:cad>0</ns3:cad>
          </ns3:TrackPointExtension>
        </extensions>
      </trkpt>
      <trkpt lat="37.937747351825237274169921875" lon="-107.1431644074618816375732421875">
        <ele>3548.60009765625</ele>
        <time>2026-01-06T22:00:27.000Z</time>
        <extensions>
          <ns3:TrackPointExtension>
            <ns3:hr>86</ns3:hr>
            <ns3:cad>0</ns3:cad>
          </ns3:TrackPointExtension>
        </extensions>
      </trkpt>
      <trkpt lat="37.9377488605678081512451171875" lon="-107.1431623958051204681396484375">
        <ele>3548.39990234375</ele>
        <time>2026-01-06T22:00:28.000Z</time>
        <extensions>
          <ns3:TrackPointExtension>
            <ns3:hr>84</ns3:hr>
            <ns3:cad>0</ns3:cad>
          </ns3:TrackPointExtension>
        </extensions>
      </trkpt>
      <trkpt lat="37.93778213672339916229248046875" lon="-107.14320237748324871063232421875">
        <ele>3548.199951171875</ele>
        <time>2026-01-06T22:00:32.000Z</time>
        <extensions>
          <ns3:TrackPointExtension>
            <ns3:hr>82</ns3:hr>
            <ns3:cad>0</ns3:cad>
          </ns3:TrackPointExtension>
        </extensions>
      </trkpt>
      <trkpt lat="37.9378356970846652984619140625" lon="-107.14327328838407993316650390625">
        <ele>3547.60009765625</ele>
        <time>2026-01-06T22:00:38.000Z</time>
        <extensions>
          <ns3:TrackPointExtension>
            <ns3:hr>81</ns3:hr>
            <ns3:cad>49</ns3:cad>
          </ns3:TrackPointExtension>
        </extensions>
      </trkpt>
      <trkpt lat="37.93785204179584980010986328125" lon="-107.14329457841813564300537109375">
        <ele>3547.199951171875</ele>
        <time>2026-01-06T22:00:40.000Z</time>
        <extensions>
          <ns3:TrackPointExtension>
            <ns3:hr>81</ns3:hr>
            <ns3:cad>49</ns3:cad>
          </ns3:TrackPointExtension>
        </extensions>
      </trkpt>
      <trkpt lat="37.93788674287497997283935546875" lon="-107.14337253011763095855712890625">
        <ele>3547.199951171875</ele>
        <time>2026-01-06T22:00:46.000Z</time>
        <extensions>
          <ns3:TrackPointExtension>
            <ns3:hr>80</ns3:hr>
            <ns3:cad>0</ns3:cad>
          </ns3:TrackPointExtension>
        </extensions>
      </trkpt>
      <trkpt lat="37.93789512477815151214599609375" lon="-107.14338426478207111358642578125">
        <ele>3547.199951171875</ele>
        <time>2026-01-06T22:00:47.000Z</time>
        <extensions>
          <ns3:TrackPointExtension>
            <ns3:hr>80</ns3:hr>
            <ns3:cad>0</ns3:cad>
          </ns3:TrackPointExtension>
        </extensions>
      </trkpt>
      <trkpt lat="37.9379247128963470458984375" lon="-107.1434234082698822021484375">
        <ele>3546.60009765625</ele>
        <time>2026-01-06T22:00:51.000Z</time>
        <extensions>
          <ns3:TrackPointExtension>
            <ns3:hr>81</ns3:hr>
            <ns3:cad>49</ns3:cad>
          </ns3:TrackPointExtension>
        </extensions>
      </trkpt>
      <trkpt lat="37.93794373981654644012451171875" lon="-107.14345651678740978240966796875">
        <ele>3546.199951171875</ele>
        <time>2026-01-06T22:00:54.000Z</time>
        <extensions>
          <ns3:TrackPointExtension>
            <ns3:hr>82</ns3:hr>
            <ns3:cad>51</ns3:cad>
          </ns3:TrackPointExtension>
        </extensions>
      </trkpt>
      <trkpt lat="37.9379610903561115264892578125" lon="-107.14349255897104740142822265625">
        <ele>3545.60009765625</ele>
        <time>2026-01-06T22:00:57.000Z</time>
        <extensions>
          <ns3:TrackPointExtension>
            <ns3:hr>84</ns3:hr>
            <ns3:cad>51</ns3:cad>
          </ns3:TrackPointExtension>
        </extensions>
      </trkpt>
      <trkpt lat="37.937975339591503143310546875" lon="-107.143545113503932952880859375">
        <ele>3545.39990234375</ele>
        <time>2026-01-06T22:01:01.000Z</time>
        <extensions>
          <ns3:TrackPointExtension>
            <ns3:hr>84</ns3:hr>
            <ns3:cad>51</ns3:cad>
          </ns3:TrackPointExtension>
        </extensions>
      </trkpt>
      <trkpt lat="37.93799989856779575347900390625" lon="-107.14359632693231105804443359375">
        <ele>3544.39990234375</ele>
        <time>2026-01-06T22:01:05.000Z</time>
        <extensions>
          <ns3:TrackPointExtension>
            <ns3:hr>83</ns3:hr>
            <ns3:cad>51</ns3:cad>
          </ns3:TrackPointExtension>
        </extensions>
      </trkpt>
      <trkpt lat="37.938020266592502593994140625" lon="-107.143634967505931854248046875">
        <ele>3543.800048828125</ele>
        <time>2026-01-06T22:01:08.000Z</time>
        <extensions>
          <ns3:TrackPointExtension>
            <ns3:hr>84</ns3:hr>
            <ns3:cad>0</ns3:cad>
          </ns3:TrackPointExtension>
        </extensions>
      </trkpt>
      <trkpt lat="37.9380546323955059051513671875" lon="-107.1437042020261287689208984375">
        <ele>3543.39990234375</ele>
        <time>2026-01-06T22:01:14.000Z</time>
        <extensions>
          <ns3:TrackPointExtension>
            <ns3:hr>83</ns3:hr>
            <ns3:cad>51</ns3:cad>
          </ns3:TrackPointExtension>
        </extensions>
      </trkpt>
      <trkpt lat="37.9380596615374088287353515625" lon="-107.1437132544815540313720703125">
        <ele>3543.199951171875</ele>
        <time>2026-01-06T22:01:15.000Z</time>
        <extensions>
          <ns3:TrackPointExtension>
            <ns3:hr>83</ns3:hr>
            <ns3:cad>50</ns3:cad>
          </ns3:TrackPointExtension>
        </extensions>
      </trkpt>
      <trkpt lat="37.93809478171169757843017578125" lon="-107.1437930501997470855712890625">
        <ele>3542.60009765625</ele>
        <time>2026-01-06T22:01:21.000Z</time>
        <extensions>
          <ns3:TrackPointExtension>
            <ns3:hr>83</ns3:hr>
            <ns3:cad>51</ns3:cad>
          </ns3:TrackPointExtension>
        </extensions>
      </trkpt>
      <trkpt lat="37.93810869567096233367919921875" lon="-107.1438336186110973358154296875">
        <ele>3542.199951171875</ele>
        <time>2026-01-06T22:01:24.000Z</time>
        <extensions>
          <ns3:TrackPointExtension>
            <ns3:hr>83</ns3:hr>
            <ns3:cad>49</ns3:cad>
          </ns3:TrackPointExtension>
        </extensions>
      </trkpt>
      <trkpt lat="37.938132919371128082275390625" lon="-107.14390159584581851959228515625">
        <ele>3541.60009765625</ele>
        <time>2026-01-06T22:01:29.000Z</time>
        <extensions>
          <ns3:TrackPointExtension>
            <ns3:hr>83</ns3:hr>
            <ns3:cad>50</ns3:cad>
          </ns3:TrackPointExtension>
        </extensions>
      </trkpt>
      <trkpt lat="37.93814641423523426055908203125" lon="-107.14396848343312740325927734375">
        <ele>3541.199951171875</ele>
        <time>2026-01-06T22:01:33.000Z</time>
        <extensions>
          <ns3:TrackPointExtension>
            <ns3:hr>84</ns3:hr>
            <ns3:cad>50</ns3:cad>
          </ns3:TrackPointExtension>
        </extensions>
      </trkpt>
      <trkpt lat="37.93815379031002521514892578125" lon="-107.1439834870398044586181640625">
        <ele>3541</ele>
        <time>2026-01-06T22:01:35.000Z</time>
        <extensions>
          <ns3:TrackPointExtension>
            <ns3:hr>84</ns3:hr>
            <ns3:cad>50</ns3:cad>
          </ns3:TrackPointExtension>
        </extensions>
      </trkpt>
      <trkpt lat="37.93818287551403045654296875" lon="-107.144060432910919189453125">
        <ele>3540</ele>
        <time>2026-01-06T22:01:41.000Z</time>
        <extensions>
          <ns3:TrackPointExtension>
            <ns3:hr>85</ns3:hr>
            <ns3:cad>51</ns3:cad>
          </ns3:TrackPointExtension>
        </extensions>
      </trkpt>
      <trkpt lat="37.938191927969455718994140625" lon="-107.14407392777502536773681640625">
        <ele>3539.60009765625</ele>
        <time>2026-01-06T22:01:42.000Z</time>
        <extensions>
          <ns3:TrackPointExtension>
            <ns3:hr>85</ns3:hr>
            <ns3:cad>52</ns3:cad>
          </ns3:TrackPointExtension>
        </extensions>
      </trkpt>
      <trkpt lat="37.93821766041219234466552734375" lon="-107.144097983837127685546875">
        <ele>3538.60009765625</ele>
        <time>2026-01-06T22:01:45.000Z</time>
        <extensions>
          <ns3:TrackPointExtension>
            <ns3:hr>86</ns3:hr>
            <ns3:cad>53</ns3:cad>
          </ns3:TrackPointExtension>
        </extensions>
      </trkpt>
      <trkpt lat="37.938263006508350372314453125" lon="-107.1441253088414669036865234375">
        <ele>3537.800048828125</ele>
        <time>2026-01-06T22:01:49.000Z</time>
        <extensions>
          <ns3:TrackPointExtension>
            <ns3:hr>87</ns3:hr>
            <ns3:cad>55</ns3:cad>
          </ns3:TrackPointExtension>
        </extensions>
      </trkpt>
      <trkpt lat="37.93831002898514270782470703125" lon="-107.14415037073194980621337890625">
        <ele>3537.39990234375</ele>
        <time>2026-01-06T22:01:53.000Z</time>
        <extensions>
          <ns3:TrackPointExtension>
            <ns3:hr>87</ns3:hr>
            <ns3:cad>53</ns3:cad>
          </ns3:TrackPointExtension>
        </extensions>
      </trkpt>
      <trkpt lat="37.93833467178046703338623046875" lon="-107.1441551484167575836181640625">
        <ele>3537</ele>
        <time>2026-01-06T22:01:55.000Z</time>
        <extensions>
          <ns3:TrackPointExtension>
            <ns3:hr>87</ns3:hr>
            <ns3:cad>53</ns3:cad>
          </ns3:TrackPointExtension>
        </extensions>
      </trkpt>
      <trkpt lat="37.9383992962539196014404296875" lon="-107.1441476047039031982421875">
        <ele>3537</ele>
        <time>2026-01-06T22:02:01.000Z</time>
        <extensions>
          <ns3:TrackPointExtension>
            <ns3:hr>87</ns3:hr>
            <ns3:cad>54</ns3:cad>
          </ns3:TrackPointExtension>
        </extensions>
      </trkpt>
      <trkpt lat="37.93845838867127895355224609375" lon="-107.14414584450423717498779296875">
        <ele>3536.39990234375</ele>
        <time>2026-01-06T22:02:06.000Z</time>
        <extensions>
          <ns3:TrackPointExtension>
            <ns3:hr>86</ns3:hr>
            <ns3:cad>49</ns3:cad>
          </ns3:TrackPointExtension>
        </extensions>
      </trkpt>
      <trkpt lat="37.9385201632976531982421875" lon="-107.1441444195806980133056640625">
        <ele>3535.39990234375</ele>
        <time>2026-01-06T22:02:12.000Z</time>
        <extensions>
          <ns3:TrackPointExtension>
            <ns3:hr>85</ns3:hr>
            <ns3:cad>52</ns3:cad>
          </ns3:TrackPointExtension>
        </extensions>
      </trkpt>
      <trkpt lat="37.93853030540049076080322265625" lon="-107.14414550922811031341552734375">
        <ele>3535.199951171875</ele>
        <time>2026-01-06T22:02:13.000Z</time>
        <extensions>
          <ns3:TrackPointExtension>
            <ns3:hr>85</ns3:hr>
            <ns3:cad>51</ns3:cad>
          </ns3:TrackPointExtension>
        </extensions>
      </trkpt>
      <trkpt lat="37.9385981149971485137939453125" lon="-107.144151628017425537109375">
        <ele>3534.60009765625</ele>
        <time>2026-01-06T22:02:19.000Z</time>
        <extensions>
          <ns3:TrackPointExtension>
            <ns3:hr>84</ns3:hr>
            <ns3:cad>52</ns3:cad>
          </ns3:TrackPointExtension>
        </extensions>
      </trkpt>
      <trkpt lat="37.93860892765223979949951171875" lon="-107.144152633845806121826171875">
        <ele>3534.199951171875</ele>
        <time>2026-01-06T22:02:20.000Z</time>
        <extensions>
          <ns3:TrackPointExtension>
            <ns3:hr>85</ns3:hr>
            <ns3:cad>53</ns3:cad>
          </ns3:TrackPointExtension>
        </extensions>
      </trkpt>
      <trkpt lat="37.93866164982318878173828125" lon="-107.14415472932159900665283203125">
        <ele>3533.199951171875</ele>
        <time>2026-01-06T22:02:25.000Z</time>
        <extensions>
          <ns3:TrackPointExtension>
            <ns3:hr>85</ns3:hr>
            <ns3:cad>49</ns3:cad>
          </ns3:TrackPointExtension>
        </extensions>
      </trkpt>
      <trkpt lat="37.938680090010166168212890625" lon="-107.14416009373962879180908203125">
        <ele>3532.60009765625</ele>
        <time>2026-01-06T22:02:27.000Z</time>
        <extensions>
          <ns3:TrackPointExtension>
            <ns3:hr>85</ns3:hr>
            <ns3:cad>50</ns3:cad>
          </ns3:TrackPointExtension>
        </extensions>
      </trkpt>
      <trkpt lat="37.93870246969163417816162109375" lon="-107.14416093192994594573974609375">
        <ele>3532</ele>
        <time>2026-01-06T22:02:29.000Z</time>
        <extensions>
          <ns3:TrackPointExtension>
            <ns3:hr>85</ns3:hr>
            <ns3:cad>50</ns3:cad>
          </ns3:TrackPointExtension>
        </extensions>
      </trkpt>
      <trkpt lat="37.938754856586456298828125" lon="-107.144164033234119415283203125">
        <ele>3531.199951171875</ele>
        <time>2026-01-06T22:02:35.000Z</time>
        <extensions>
          <ns3:TrackPointExtension>
            <ns3:hr>84</ns3:hr>
            <ns3:cad>52</ns3:cad>
          </ns3:TrackPointExtension>
        </extensions>
      </trkpt>
      <trkpt lat="37.93876600451767444610595703125" lon="-107.1441605128347873687744140625">
        <ele>3531</ele>
        <time>2026-01-06T22:02:36.000Z</time>
        <extensions>
          <ns3:TrackPointExtension>
            <ns3:hr>85</ns3:hr>
            <ns3:cad>52</ns3:cad>
          </ns3:TrackPointExtension>
        </extensions>
      </trkpt>
      <trkpt lat="37.938812188804149627685546875" lon="-107.144169397652149200439453125">
        <ele>3530</ele>
        <time>2026-01-06T22:02:41.000Z</time>
        <extensions>
          <ns3:TrackPointExtension>
            <ns3:hr>84</ns3:hr>
            <ns3:cad>50</ns3:cad>
          </ns3:TrackPointExtension>
        </extensions>
      </trkpt>
      <trkpt lat="37.9388307966291904449462890625" lon="-107.14418021030724048614501953125">
        <ele>3529.39990234375</ele>
        <time>2026-01-06T22:02:43.000Z</time>
        <extensions>
          <ns3:TrackPointExtension>
            <ns3:hr>87</ns3:hr>
            <ns3:cad>49</ns3:cad>
          </ns3:TrackPointExtension>
        </extensions>
      </trkpt>
      <trkpt lat="37.938847728073596954345703125" lon="-107.1442040987312793731689453125">
        <ele>3528.800048828125</ele>
        <time>2026-01-06T22:02:46.000Z</time>
        <extensions>
          <ns3:TrackPointExtension>
            <ns3:hr>89</ns3:hr>
            <ns3:cad>51</ns3:cad>
          </ns3:TrackPointExtension>
        </extensions>
      </trkpt>
      <trkpt lat="37.93885367922484874725341796875" lon="-107.144226394593715667724609375">
        <ele>3528.60009765625</ele>
        <time>2026-01-06T22:02:48.000Z</time>
        <extensions>
          <ns3:TrackPointExtension>
            <ns3:hr>92</ns3:hr>
            <ns3:cad>51</ns3:cad>
          </ns3:TrackPointExtension>
        </extensions>
      </trkpt>
      <trkpt lat="37.93885652907192707061767578125" lon="-107.144235782325267791748046875">
        <ele>3528.39990234375</ele>
        <time>2026-01-06T22:02:49.000Z</time>
        <extensions>
          <ns3:TrackPointExtension>
            <ns3:hr>93</ns3:hr>
            <ns3:cad>51</ns3:cad>
          </ns3:TrackPointExtension>
        </extensions>
      </trkpt>
      <trkpt lat="37.93887714855372905731201171875" lon="-107.14427676983177661895751953125">
        <ele>3527.800048828125</ele>
        <time>2026-01-06T22:02:53.000Z</time>
        <extensions>
          <ns3:TrackPointExtension>
            <ns3:hr>95</ns3:hr>
            <ns3:cad>51</ns3:cad>
          </ns3:TrackPointExtension>
        </extensions>
      </trkpt>
      <trkpt lat="37.93888569809496402740478515625" lon="-107.1442989818751811981201171875">
        <ele>3527.39990234375</ele>
        <time>2026-01-06T22:02:55.000Z</time>
        <extensions>
          <ns3:TrackPointExtension>
            <ns3:hr>95</ns3:hr>
            <ns3:cad>51</ns3:cad>
          </ns3:TrackPointExtension>
        </extensions>
      </trkpt>
      <trkpt lat="37.93889357708394527435302734375" lon="-107.14433477260172367095947265625">
        <ele>3526.60009765625</ele>
        <time>2026-01-06T22:02:58.000Z</time>
        <extensions>
          <ns3:TrackPointExtension>
            <ns3:hr>95</ns3:hr>
            <ns3:cad>51</ns3:cad>
          </ns3:TrackPointExtension>
        </extensions>
      </trkpt>
      <trkpt lat="37.93891453184187412261962890625" lon="-107.1443908475339412689208984375">
        <ele>3525.60009765625</ele>
        <time>2026-01-06T22:03:03.000Z</time>
        <extensions>
          <ns3:TrackPointExtension>
            <ns3:hr>95</ns3:hr>
            <ns3:cad>52</ns3:cad>
          </ns3:TrackPointExtension>
        </extensions>
      </trkpt>
      <trkpt lat="37.93892039917409420013427734375" lon="-107.144402749836444854736328125">
        <ele>3525.39990234375</ele>
        <time>2026-01-06T22:03:04.000Z</time>
        <extensions>
          <ns3:TrackPointExtension>
            <ns3:hr>94</ns3:hr>
            <ns3:cad>54</ns3:cad>
          </ns3:TrackPointExtension>
        </extensions>
      </trkpt>
      <trkpt lat="37.93895342387259006500244140625" lon="-107.14447290636599063873291015625">
        <ele>3524.39990234375</ele>
        <time>2026-01-06T22:03:09.000Z</time>
        <extensions>
          <ns3:TrackPointExtension>
            <ns3:hr>94</ns3:hr>
            <ns3:cad>54</ns3:cad>
          </ns3:TrackPointExtension>
        </extensions>
      </trkpt>
      <trkpt lat="37.93896339833736419677734375" lon="-107.14448480866849422454833984375">
        <ele>3524.199951171875</ele>
        <time>2026-01-06T22:03:10.000Z</time>
        <extensions>
          <ns3:TrackPointExtension>
            <ns3:hr>94</ns3:hr>
            <ns3:cad>54</ns3:cad>
          </ns3:TrackPointExtension>
        </extensions>
      </trkpt>
      <trkpt lat="37.93899533338844776153564453125" lon="-107.14454934932291507720947265625">
        <ele>3524</ele>
        <time>2026-01-06T22:03:16.000Z</time>
        <extensions>
          <ns3:TrackPointExtension>
            <ns3:hr>92</ns3:hr>
            <ns3:cad>51</ns3:cad>
          </ns3:TrackPointExtension>
        </extensions>
      </trkpt>
      <trkpt lat="37.93899717740714550018310546875" lon="-107.14457516558468341827392578125">
        <ele>3523.39990234375</ele>
        <time>2026-01-06T22:03:19.000Z</time>
        <extensions>
          <ns3:TrackPointExtension>
            <ns3:hr>90</ns3:hr>
            <ns3:cad>50</ns3:cad>
          </ns3:TrackPointExtension>
        </extensions>
      </trkpt>
      <trkpt lat="37.939001955091953277587890625" lon="-107.14461590163409709930419921875">
        <ele>3522.39990234375</ele>
        <time>2026-01-06T22:03:22.000Z</time>
        <extensions>
          <ns3:TrackPointExtension>
            <ns3:hr>90</ns3:hr>
            <ns3:cad>50</ns3:cad>
          </ns3:TrackPointExtension>
        </extensions>
      </trkpt>
      <trkpt lat="37.939016036689281463623046875" lon="-107.1446728147566318511962890625">
        <ele>3521.199951171875</ele>
        <time>2026-01-06T22:03:26.000Z</time>
        <extensions>
          <ns3:TrackPointExtension>
            <ns3:hr>89</ns3:hr>
            <ns3:cad>0</ns3:cad>
          </ns3:TrackPointExtension>
        </extensions>
      </trkpt>
      <trkpt lat="37.93903154321014881134033203125" lon="-107.14471631683409214019775390625">
        <ele>3520.800048828125</ele>
        <time>2026-01-06T22:03:29.000Z</time>
        <extensions>
          <ns3:TrackPointExtension>
            <ns3:hr>89</ns3:hr>
            <ns3:cad>53</ns3:cad>
          </ns3:TrackPointExtension>
        </extensions>
      </trkpt>
      <trkpt lat="37.939054258167743682861328125" lon="-107.1447961963713169097900390625">
        <ele>3520.39990234375</ele>
        <time>2026-01-06T22:03:35.000Z</time>
        <extensions>
          <ns3:TrackPointExtension>
            <ns3:hr>89</ns3:hr>
            <ns3:cad>52</ns3:cad>
          </ns3:TrackPointExtension>
        </extensions>
      </trkpt>
      <trkpt lat="37.9390557669103145599365234375" lon="-107.14481287635862827301025390625">
        <ele>3520.199951171875</ele>
        <time>2026-01-06T22:03:36.000Z</time>
        <extensions>
          <ns3:TrackPointExtension>
            <ns3:hr>89</ns3:hr>
            <ns3:cad>52</ns3:cad>
          </ns3:TrackPointExtension>
        </extensions>
      </trkpt>
      <trkpt lat="37.93907898478209972381591796875" lon="-107.14487926103174686431884765625">
        <ele>3519</ele>
        <time>2026-01-06T22:03:41.000Z</time>
        <extensions>
          <ns3:TrackPointExtension>
            <ns3:hr>89</ns3:hr>
            <ns3:cad>53</ns3:cad>
          </ns3:TrackPointExtension>
        </extensions>
      </trkpt>
      <trkpt lat="37.93908200226724147796630859375" lon="-107.1448883973062038421630859375">
        <ele>3518.60009765625</ele>
        <time>2026-01-06T22:03:42.000Z</time>
        <extensions>
          <ns3:TrackPointExtension>
            <ns3:hr>90</ns3:hr>
            <ns3:cad>53</ns3:cad>
          </ns3:TrackPointExtension>
        </extensions>
      </trkpt>
      <trkpt lat="37.93908837251365184783935546875" lon="-107.14495184831321239471435546875">
        <ele>3517.800048828125</ele>
        <time>2026-01-06T22:03:48.000Z</time>
        <extensions>
          <ns3:TrackPointExtension>
            <ns3:hr>90</ns3:hr>
            <ns3:cad>50</ns3:cad>
          </ns3:TrackPointExtension>
        </extensions>
      </trkpt>
      <trkpt lat="37.9390896297991275787353515625" lon="-107.1449631638824939727783203125">
        <ele>3517.60009765625</ele>
        <time>2026-01-06T22:03:49.000Z</time>
        <extensions>
          <ns3:TrackPointExtension>
            <ns3:hr>89</ns3:hr>
            <ns3:cad>50</ns3:cad>
          </ns3:TrackPointExtension>
        </extensions>
      </trkpt>
      <trkpt lat="37.939104549586772918701171875" lon="-107.14503734372556209564208984375">
        <ele>3516.800048828125</ele>
        <time>2026-01-06T22:03:54.000Z</time>
        <extensions>
          <ns3:TrackPointExtension>
            <ns3:hr>89</ns3:hr>
            <ns3:cad>48</ns3:cad>
          </ns3:TrackPointExtension>
        </extensions>
      </trkpt>
      <trkpt lat="37.93910748325288295745849609375" lon="-107.14505075477063655853271484375">
        <ele>3516.39990234375</ele>
        <time>2026-01-06T22:03:55.000Z</time>
        <extensions>
          <ns3:TrackPointExtension>
            <ns3:hr>89</ns3:hr>
            <ns3:cad>48</ns3:cad>
          </ns3:TrackPointExtension>
        </extensions>
      </trkpt>
      <trkpt lat="37.93910815380513668060302734375" lon="-107.145073972642421722412109375">
        <ele>3515.60009765625</ele>
        <time>2026-01-06T22:03:57.000Z</time>
        <extensions>
          <ns3:TrackPointExtension>
            <ns3:hr>88</ns3:hr>
            <ns3:cad>50</ns3:cad>
          </ns3:TrackPointExtension>
        </extensions>
      </trkpt>
      <trkpt lat="37.93910689651966094970703125" lon="-107.1451324783265590667724609375">
        <ele>3514.800048828125</ele>
        <time>2026-01-06T22:04:02.000Z</time>
        <extensions>
          <ns3:TrackPointExtension>
            <ns3:hr>88</ns3:hr>
            <ns3:cad>51</ns3:cad>
          </ns3:TrackPointExtension>
        </extensions>
      </trkpt>
      <trkpt lat="37.93910630978643894195556640625" lon="-107.14515469036996364593505859375">
        <ele>3514.39990234375</ele>
        <time>2026-01-06T22:04:04.000Z</time>
        <extensions>
          <ns3:TrackPointExtension>
            <ns3:hr>89</ns3:hr>
            <ns3:cad>51</ns3:cad>
          </ns3:TrackPointExtension>
        </extensions>
      </trkpt>
      <trkpt lat="37.93910429812967777252197265625" lon="-107.14521654881536960601806640625">
        <ele>3513.39990234375</ele>
        <time>2026-01-06T22:04:09.000Z</time>
        <extensions>
          <ns3:TrackPointExtension>
            <ns3:hr>88</ns3:hr>
            <ns3:cad>53</ns3:cad>
          </ns3:TrackPointExtension>
        </extensions>
      </trkpt>
      <trkpt lat="37.93910496868193149566650390625" lon="-107.14522778056561946868896484375">
        <ele>3513</ele>
        <time>2026-01-06T22:04:10.000Z</time>
        <extensions>
          <ns3:TrackPointExtension>
            <ns3:hr>88</ns3:hr>
            <ns3:cad>53</ns3:cad>
          </ns3:TrackPointExtension>
        </extensions>
      </trkpt>
      <trkpt lat="37.9391124285757541656494140625" lon="-107.14526348747313022613525390625">
        <ele>3512.199951171875</ele>
        <time>2026-01-06T22:04:13.000Z</time>
        <extensions>
          <ns3:TrackPointExtension>
            <ns3:hr>87</ns3:hr>
            <ns3:cad>0</ns3:cad>
          </ns3:TrackPointExtension>
        </extensions>
      </trkpt>
      <trkpt lat="37.93911150656640529632568359375" lon="-107.14533305726945400238037109375">
        <ele>3511.800048828125</ele>
        <time>2026-01-06T22:04:17.000Z</time>
        <extensions>
          <ns3:TrackPointExtension>
            <ns3:hr>87</ns3:hr>
            <ns3:cad>0</ns3:cad>
          </ns3:TrackPointExtension>
        </extensions>
      </trkpt>
      <trkpt lat="37.93912039138376712799072265625" lon="-107.14538116939365863800048828125">
        <ele>3511.199951171875</ele>
        <time>2026-01-06T22:04:20.000Z</time>
        <extensions>
          <ns3:TrackPointExtension>
            <ns3:hr>86</ns3:hr>
            <ns3:cad>0</ns3:cad>
          </ns3:TrackPointExtension>
        </extensions>
      </trkpt>
      <trkpt lat="37.9391328804194927215576171875" lon="-107.145397849380970001220703125">
        <ele>3511</ele>
        <time>2026-01-06T22:04:21.000Z</time>
        <extensions>
          <ns3:TrackPointExtension>
            <ns3:hr>85</ns3:hr>
            <ns3:cad>0</ns3:cad>
          </ns3:TrackPointExtension>
        </extensions>
      </trkpt>
      <trkpt lat="37.93913883157074451446533203125" lon="-107.1454040519893169403076171875">
        <ele>3510.60009765625</ele>
        <time>2026-01-06T22:04:22.000Z</time>
        <extensions>
          <ns3:TrackPointExtension>
            <ns3:hr>85</ns3:hr>
            <ns3:cad>53</ns3:cad>
          </ns3:TrackPointExtension>
        </extensions>
      </trkpt>
      <trkpt lat="37.939159870147705078125" lon="-107.14543305337429046630859375">
        <ele>3510</ele>
        <time>2026-01-06T22:04:25.000Z</time>
        <extensions>
          <ns3:TrackPointExtension>
            <ns3:hr>85</ns3:hr>
            <ns3:cad>53</ns3:cad>
          </ns3:TrackPointExtension>
        </extensions>
      </trkpt>
      <trkpt lat="37.93918132781982421875" lon="-107.14547253213822841644287109375">
        <ele>3509.60009765625</ele>
        <time>2026-01-06T22:04:28.000Z</time>
        <extensions>
          <ns3:TrackPointExtension>
            <ns3:hr>85</ns3:hr>
            <ns3:cad>52</ns3:cad>
          </ns3:TrackPointExtension>
        </extensions>
      </trkpt>
      <trkpt lat="37.939223237335681915283203125" lon="-107.1455331332981586456298828125">
        <ele>3509</ele>
        <time>2026-01-06T22:04:33.000Z</time>
        <extensions>
          <ns3:TrackPointExtension>
            <ns3:hr>85</ns3:hr>
            <ns3:cad>50</ns3:cad>
          </ns3:TrackPointExtension>
        </extensions>
      </trkpt>
      <trkpt lat="37.93922969140112400054931640625" lon="-107.14554461650550365447998046875">
        <ele>3508.800048828125</ele>
        <time>2026-01-06T22:04:34.000Z</time>
        <extensions>
          <ns3:TrackPointExtension>
            <ns3:hr>86</ns3:hr>
            <ns3:cad>50</ns3:cad>
          </ns3:TrackPointExtension>
        </extensions>
      </trkpt>
      <trkpt lat="37.93928467668592929840087890625" lon="-107.145609743893146514892578125">
        <ele>3508.39990234375</ele>
        <time>2026-01-06T22:04:40.000Z</time>
        <extensions>
          <ns3:TrackPointExtension>
            <ns3:hr>86</ns3:hr>
            <ns3:cad>49</ns3:cad>
          </ns3:TrackPointExtension>
        </extensions>
      </trkpt>
      <trkpt lat="37.93930127285420894622802734375" lon="-107.14564201422035694122314453125">
        <ele>3508</ele>
        <time>2026-01-06T22:04:43.000Z</time>
        <extensions>
          <ns3:TrackPointExtension>
            <ns3:hr>85</ns3:hr>
            <ns3:cad>49</ns3:cad>
          </ns3:TrackPointExtension>
        </extensions>
      </trkpt>
      <trkpt lat="37.9393095709383487701416015625" lon="-107.14567445218563079833984375">
        <ele>3507.199951171875</ele>
        <time>2026-01-06T22:04:46.000Z</time>
        <extensions>
          <ns3:TrackPointExtension>
            <ns3:hr>85</ns3:hr>
            <ns3:cad>51</ns3:cad>
          </ns3:TrackPointExtension>
        </extensions>
      </trkpt>
      <trkpt lat="37.93931149877607822418212890625" lon="-107.14569993317127227783203125">
        <ele>3506.800048828125</ele>
        <time>2026-01-06T22:04:48.000Z</time>
        <extensions>
          <ns3:TrackPointExtension>
            <ns3:hr>85</ns3:hr>
            <ns3:cad>53</ns3:cad>
          </ns3:TrackPointExtension>
        </extensions>
      </trkpt>
      <trkpt lat="37.93931476771831512451171875" lon="-107.14575516991317272186279296875">
        <ele>3506.199951171875</ele>
        <time>2026-01-06T22:04:52.000Z</time>
        <extensions>
          <ns3:TrackPointExtension>
            <ns3:hr>85</ns3:hr>
            <ns3:cad>53</ns3:cad>
          </ns3:TrackPointExtension>
        </extensions>
      </trkpt>
      <trkpt lat="37.93932013213634490966796875" lon="-107.14580244384706020355224609375">
        <ele>3505.800048828125</ele>
        <time>2026-01-06T22:04:55.000Z</time>
        <extensions>
          <ns3:TrackPointExtension>
            <ns3:hr>85</ns3:hr>
            <ns3:cad>53</ns3:cad>
          </ns3:TrackPointExtension>
        </extensions>
      </trkpt>
      <trkpt lat="37.939330525696277618408203125" lon="-107.14582440443336963653564453125">
        <ele>3505.39990234375</ele>
        <time>2026-01-06T22:04:57.000Z</time>
        <extensions>
          <ns3:TrackPointExtension>
            <ns3:hr>86</ns3:hr>
            <ns3:cad>53</ns3:cad>
          </ns3:TrackPointExtension>
        </extensions>
      </trkpt>
      <trkpt lat="37.939337231218814849853515625" lon="-107.1458566747605800628662109375">
        <ele>3504.800048828125</ele>
        <time>2026-01-06T22:05:00.000Z</time>
        <extensions>
          <ns3:TrackPointExtension>
            <ns3:hr>85</ns3:hr>
            <ns3:cad>53</ns3:cad>
          </ns3:TrackPointExtension>
        </extensions>
      </trkpt>
      <trkpt lat="37.93935709632933139801025390625" lon="-107.14588676579296588897705078125">
        <ele>3504.39990234375</ele>
        <time>2026-01-06T22:05:02.000Z</time>
        <extensions>
          <ns3:TrackPointExtension>
            <ns3:hr>83</ns3:hr>
            <ns3:cad>0</ns3:cad>
          </ns3:TrackPointExtension>
        </extensions>
      </trkpt>
      <trkpt lat="37.9394007660448551177978515625" lon="-107.145940326154232025146484375">
        <ele>3504.199951171875</ele>
        <time>2026-01-06T22:05:07.000Z</time>
        <extensions>
          <ns3:TrackPointExtension>
            <ns3:hr>82</ns3:hr>
            <ns3:cad>52</ns3:cad>
          </ns3:TrackPointExtension>
        </extensions>
      </trkpt>
      <trkpt lat="37.9394470341503620147705078125" lon="-107.14600075967609882354736328125">
        <ele>3504.800048828125</ele>
        <time>2026-01-06T22:05:13.000Z</time>
        <extensions>
          <ns3:TrackPointExtension>
            <ns3:hr>82</ns3:hr>
            <ns3:cad>50</ns3:cad>
          </ns3:TrackPointExtension>
        </extensions>
      </trkpt>
      <trkpt lat="37.93946187011897563934326171875" lon="-107.1460196189582347869873046875">
        <ele>3504.800048828125</ele>
        <time>2026-01-06T22:05:15.000Z</time>
        <extensions>
          <ns3:TrackPointExtension>
            <ns3:hr>83</ns3:hr>
            <ns3:cad>50</ns3:cad>
          </ns3:TrackPointExtension>
        </extensions>
      </trkpt>
      <trkpt lat="37.93951450847089290618896484375" lon="-107.14608608745038509368896484375">
        <ele>3505.39990234375</ele>
        <time>2026-01-06T22:05:21.000Z</time>
        <extensions>
          <ns3:TrackPointExtension>
            <ns3:hr>82</ns3:hr>
            <ns3:cad>48</ns3:cad>
          </ns3:TrackPointExtension>
        </extensions>
      </trkpt>
      <trkpt lat="37.9395251534879207611083984375" lon="-107.1460975706577301025390625">
        <ele>3505.39990234375</ele>
        <time>2026-01-06T22:05:22.000Z</time>
        <extensions>
          <ns3:TrackPointExtension>
            <ns3:hr>81</ns3:hr>
            <ns3:cad>48</ns3:cad>
          </ns3:TrackPointExtension>
        </extensions>
      </trkpt>
      <trkpt lat="37.93954535387456417083740234375" lon="-107.1461188606917858123779296875">
        <ele>3505.800048828125</ele>
        <time>2026-01-06T22:05:25.000Z</time>
        <extensions>
          <ns3:TrackPointExtension>
            <ns3:hr>80</ns3:hr>
            <ns3:cad>49</ns3:cad>
          </ns3:TrackPointExtension>
        </extensions>
      </trkpt>
      <trkpt lat="37.93956245295703411102294921875" lon="-107.1461463533341884613037109375">
        <ele>3506</ele>
        <time>2026-01-06T22:05:27.000Z</time>
        <extensions>
          <ns3:TrackPointExtension>
            <ns3:hr>80</ns3:hr>
            <ns3:cad>49</ns3:cad>
          </ns3:TrackPointExtension>
        </extensions>
      </trkpt>
      <trkpt lat="37.93960100971162319183349609375" lon="-107.14620175771415233612060546875">
        <ele>3506.199951171875</ele>
        <time>2026-01-06T22:05:33.000Z</time>
        <extensions>
          <ns3:TrackPointExtension>
            <ns3:hr>80</ns3:hr>
            <ns3:cad>0</ns3:cad>
          </ns3:TrackPointExtension>
        </extensions>
      </trkpt>
      <trkpt lat="37.93962095864117145538330078125" lon="-107.146233357489109039306640625">
        <ele>3505.60009765625</ele>
        <time>2026-01-06T22:05:36.000Z</time>
        <extensions>
          <ns3:TrackPointExtension>
            <ns3:hr>83</ns3:hr>
            <ns3:cad>0</ns3:cad>
          </ns3:TrackPointExtension>
        </extensions>
      </trkpt>
      <trkpt lat="37.939650379121303558349609375" lon="-107.1462707407772541046142578125">
        <ele>3505.800048828125</ele>
        <time>2026-01-06T22:05:40.000Z</time>
        <extensions>
          <ns3:TrackPointExtension>
            <ns3:hr>84</ns3:hr>
            <ns3:cad>0</ns3:cad>
          </ns3:TrackPointExtension>
        </extensions>
      </trkpt>
      <trkpt lat="37.93967762030661106109619140625" lon="-107.14632681570947170257568359375">
        <ele>3505.39990234375</ele>
        <time>2026-01-06T22:05:46.000Z</time>
        <extensions>
          <ns3:TrackPointExtension>
            <ns3:hr>87</ns3:hr>
            <ns3:cad>0</ns3:cad>
          </ns3:TrackPointExtension>
        </extensions>
      </trkpt>
      <trkpt lat="37.93968223035335540771484375" lon="-107.14635145850479602813720703125">
        <ele>3505</ele>
        <time>2026-01-06T22:05:48.000Z</time>
        <extensions>
          <ns3:TrackPointExtension>
            <ns3:hr>90</ns3:hr>
            <ns3:cad>0</ns3:cad>
          </ns3:TrackPointExtension>
        </extensions>
      </trkpt>
      <trkpt lat="37.93968700803816318511962890625" lon="-107.14636352844536304473876953125">
        <ele>3504.60009765625</ele>
        <time>2026-01-06T22:05:49.000Z</time>
        <extensions>
          <ns3:TrackPointExtension>
            <ns3:hr>90</ns3:hr>
            <ns3:cad>0</ns3:cad>
          </ns3:TrackPointExtension>
        </extensions>
      </trkpt>
      <trkpt lat="37.9397021792829036712646484375" lon="-107.146413065493106842041015625">
        <ele>3504</ele>
        <time>2026-01-06T22:05:52.000Z</time>
        <extensions>
          <ns3:TrackPointExtension>
            <ns3:hr>90</ns3:hr>
            <ns3:cad>0</ns3:cad>
          </ns3:TrackPointExtension>
        </extensions>
      </trkpt>
      <trkpt lat="37.9397206194698810577392578125" lon="-107.1464450843632221221923828125">
        <ele>3503.60009765625</ele>
        <time>2026-01-06T22:05:55.000Z</time>
        <extensions>
          <ns3:TrackPointExtension>
            <ns3:hr>89</ns3:hr>
            <ns3:cad>0</ns3:cad>
          </ns3:TrackPointExtension>
        </extensions>
      </trkpt>
      <trkpt lat="37.93973864056169986724853515625" lon="-107.146472744643688201904296875">
        <ele>3503.39990234375</ele>
        <time>2026-01-06T22:05:57.000Z</time>
        <extensions>
          <ns3:TrackPointExtension>
            <ns3:hr>90</ns3:hr>
            <ns3:cad>49</ns3:cad>
          </ns3:TrackPointExtension>
        </extensions>
      </trkpt>
      <trkpt lat="37.939787171781063079833984375" lon="-107.1465374529361724853515625">
        <ele>3502.60009765625</ele>
        <time>2026-01-06T22:06:03.000Z</time>
        <extensions>
          <ns3:TrackPointExtension>
            <ns3:hr>87</ns3:hr>
            <ns3:cad>0</ns3:cad>
          </ns3:TrackPointExtension>
        </extensions>
      </trkpt>
      <trkpt lat="37.9398478567600250244140625" lon="-107.146603502333164215087890625">
        <ele>3502.39990234375</ele>
        <time>2026-01-06T22:06:09.000Z</time>
        <extensions>
          <ns3:TrackPointExtension>
            <ns3:hr>87</ns3:hr>
            <ns3:cad>51</ns3:cad>
          </ns3:TrackPointExtension>
        </extensions>
      </trkpt>
      <trkpt lat="37.9398751817643642425537109375" lon="-107.1466683782637119293212890625">
        <ele>3501.60009765625</ele>
        <time>2026-01-06T22:06:14.000Z</time>
        <extensions>
          <ns3:TrackPointExtension>
            <ns3:hr>88</ns3:hr>
            <ns3:cad>49</ns3:cad>
          </ns3:TrackPointExtension>
        </extensions>
      </trkpt>
      <trkpt lat="37.93987694196403026580810546875" lon="-107.1466791070997714996337890625">
        <ele>3501.199951171875</ele>
        <time>2026-01-06T22:06:15.000Z</time>
        <extensions>
          <ns3:TrackPointExtension>
            <ns3:hr>88</ns3:hr>
            <ns3:cad>49</ns3:cad>
          </ns3:TrackPointExtension>
        </extensions>
      </trkpt>
      <trkpt lat="37.93987224809825420379638671875" lon="-107.1467176638543605804443359375">
        <ele>3500.60009765625</ele>
        <time>2026-01-06T22:06:18.000Z</time>
        <extensions>
          <ns3:TrackPointExtension>
            <ns3:hr>89</ns3:hr>
            <ns3:cad>54</ns3:cad>
          </ns3:TrackPointExtension>
        </extensions>
      </trkpt>
      <trkpt lat="37.9398745112121105194091796875" lon="-107.1467431448400020599365234375">
        <ele>3500.39990234375</ele>
        <time>2026-01-06T22:06:20.000Z</time>
        <extensions>
          <ns3:TrackPointExtension>
            <ns3:hr>88</ns3:hr>
            <ns3:cad>54</ns3:cad>
          </ns3:TrackPointExtension>
        </extensions>
      </trkpt>
      <trkpt lat="37.93990275822579860687255859375" lon="-107.14682118035852909088134765625">
        <ele>3499.39990234375</ele>
        <time>2026-01-06T22:06:26.000Z</time>
        <extensions>
          <ns3:TrackPointExtension>
            <ns3:hr>89</ns3:hr>
            <ns3:cad>51</ns3:cad>
          </ns3:TrackPointExtension>
        </extensions>
      </trkpt>
      <trkpt lat="37.9399087093770503997802734375" lon="-107.1468383632600307464599609375">
        <ele>3499.199951171875</ele>
        <time>2026-01-06T22:06:27.000Z</time>
        <extensions>
          <ns3:TrackPointExtension>
            <ns3:hr>89</ns3:hr>
            <ns3:cad>53</ns3:cad>
          </ns3:TrackPointExtension>
        </extensions>
      </trkpt>
      <trkpt lat="37.93994382955133914947509765625" lon="-107.1469138003885746002197265625">
        <ele>3498.39990234375</ele>
        <time>2026-01-06T22:06:32.000Z</time>
        <extensions>
          <ns3:TrackPointExtension>
            <ns3:hr>89</ns3:hr>
            <ns3:cad>48</ns3:cad>
          </ns3:TrackPointExtension>
        </extensions>
      </trkpt>
      <trkpt lat="37.939956821501255035400390625" lon="-107.1469436399638652801513671875">
        <ele>3498.199951171875</ele>
        <time>2026-01-06T22:06:34.000Z</time>
        <extensions>
          <ns3:TrackPointExtension>
            <ns3:hr>90</ns3:hr>
            <ns3:cad>49</ns3:cad>
          </ns3:TrackPointExtension>
        </extensions>
      </trkpt>
      <trkpt lat="37.9399794526398181915283203125" lon="-107.14700474403798580169677734375">
        <ele>3497.199951171875</ele>
        <time>2026-01-06T22:06:39.000Z</time>
        <extensions>
          <ns3:TrackPointExtension>
            <ns3:hr>89</ns3:hr>
            <ns3:cad>49</ns3:cad>
          </ns3:TrackPointExtension>
        </extensions>
      </trkpt>
      <trkpt lat="37.93998339213430881500244140625" lon="-107.1470160596072673797607421875">
        <ele>3497.199951171875</ele>
        <time>2026-01-06T22:06:40.000Z</time>
        <extensions>
          <ns3:TrackPointExtension>
            <ns3:hr>89</ns3:hr>
            <ns3:cad>50</ns3:cad>
          </ns3:TrackPointExtension>
        </extensions>
      </trkpt>
      <trkpt lat="37.94000049121677875518798828125" lon="-107.1470743976533412933349609375">
        <ele>3496.199951171875</ele>
        <time>2026-01-06T22:06:44.000Z</time>
        <extensions>
          <ns3:TrackPointExtension>
            <ns3:hr>89</ns3:hr>
            <ns3:cad>52</ns3:cad>
          </ns3:TrackPointExtension>
        </extensions>
      </trkpt>
      <trkpt lat="37.940009124577045440673828125" lon="-107.14709761552512645721435546875">
        <ele>3495.60009765625</ele>
        <time>2026-01-06T22:06:46.000Z</time>
        <extensions>
          <ns3:TrackPointExtension>
            <ns3:hr>89</ns3:hr>
            <ns3:cad>52</ns3:cad>
          </ns3:TrackPointExtension>
        </extensions>
      </trkpt>
      <trkpt lat="37.94001826085150241851806640625" lon="-107.14714371599256992340087890625">
        <ele>3495</ele>
        <time>2026-01-06T22:06:49.000Z</time>
        <extensions>
          <ns3:TrackPointExtension>
            <ns3:hr>88</ns3:hr>
            <ns3:cad>51</ns3:cad>
          </ns3:TrackPointExtension>
        </extensions>
      </trkpt>
      <trkpt lat="37.9400320909917354583740234375" lon="-107.1471997909247875213623046875">
        <ele>3494.199951171875</ele>
        <time>2026-01-06T22:06:53.000Z</time>
        <extensions>
          <ns3:TrackPointExtension>
            <ns3:hr>87</ns3:hr>
            <ns3:cad>52</ns3:cad>
          </ns3:TrackPointExtension>
        </extensions>
      </trkpt>
      <trkpt lat="37.94004893861711025238037109375" lon="-107.14723910205066204071044921875">
        <ele>3494</ele>
        <time>2026-01-06T22:06:56.000Z</time>
        <extensions>
          <ns3:TrackPointExtension>
            <ns3:hr>88</ns3:hr>
            <ns3:cad>52</ns3:cad>
          </ns3:TrackPointExtension>
        </extensions>
      </trkpt>
      <trkpt lat="37.940078191459178924560546875" lon="-107.14729660190641880035400390625">
        <ele>3492.800048828125</ele>
        <time>2026-01-06T22:07:01.000Z</time>
        <extensions>
          <ns3:TrackPointExtension>
            <ns3:hr>87</ns3:hr>
            <ns3:cad>0</ns3:cad>
          </ns3:TrackPointExtension>
        </extensions>
      </trkpt>
      <trkpt lat="37.94009755365550518035888671875" lon="-107.14737187139689922332763671875">
        <ele>3491.60009765625</ele>
        <time>2026-01-06T22:07:07.000Z</time>
        <extensions>
          <ns3:TrackPointExtension>
            <ns3:hr>89</ns3:hr>
            <ns3:cad>0</ns3:cad>
          </ns3:TrackPointExtension>
        </extensions>
      </trkpt>
      <trkpt lat="37.94011230580508708953857421875" lon="-107.14745116420090198516845703125">
        <ele>3490.39990234375</ele>
        <time>2026-01-06T22:07:13.000Z</time>
        <extensions>
          <ns3:TrackPointExtension>
            <ns3:hr>89</ns3:hr>
            <ns3:cad>53</ns3:cad>
          </ns3:TrackPointExtension>
        </extensions>
      </trkpt>
      <trkpt lat="37.9401108808815479278564453125" lon="-107.14751486666500568389892578125">
        <ele>3489.199951171875</ele>
        <time>2026-01-06T22:07:17.000Z</time>
        <extensions>
          <ns3:TrackPointExtension>
            <ns3:hr>89</ns3:hr>
            <ns3:cad>55</ns3:cad>
          </ns3:TrackPointExtension>
        </extensions>
      </trkpt>
      <trkpt lat="37.94011482037603855133056640625" lon="-107.1475880406796932220458984375">
        <ele>3488.199951171875</ele>
        <time>2026-01-06T22:07:23.000Z</time>
        <extensions>
          <ns3:TrackPointExtension>
            <ns3:hr>89</ns3:hr>
            <ns3:cad>0</ns3:cad>
          </ns3:TrackPointExtension>
        </extensions>
      </trkpt>
      <trkpt lat="37.94011674821376800537109375" lon="-107.1475997753441333770751953125">
        <ele>3488</ele>
        <time>2026-01-06T22:07:24.000Z</time>
        <extensions>
          <ns3:TrackPointExtension>
            <ns3:hr>89</ns3:hr>
            <ns3:cad>53</ns3:cad>
          </ns3:TrackPointExtension>
        </extensions>
      </trkpt>
      <trkpt lat="37.9401229508221149444580078125" lon="-107.14764562435448169708251953125">
        <ele>3487.199951171875</ele>
        <time>2026-01-06T22:07:27.000Z</time>
        <extensions>
          <ns3:TrackPointExtension>
            <ns3:hr>90</ns3:hr>
            <ns3:cad>54</ns3:cad>
          </ns3:TrackPointExtension>
        </extensions>
      </trkpt>
      <trkpt lat="37.94012554921209812164306640625" lon="-107.1476721949875354766845703125">
        <ele>3486.60009765625</ele>
        <time>2026-01-06T22:07:29.000Z</time>
        <extensions>
          <ns3:TrackPointExtension>
            <ns3:hr>93</ns3:hr>
            <ns3:cad>54</ns3:cad>
          </ns3:TrackPointExtension>
        </extensions>
      </trkpt>
      <trkpt lat="37.94012772850692272186279296875" lon="-107.1476959995925426483154296875">
        <ele>3486</ele>
        <time>2026-01-06T22:07:31.000Z</time>
        <extensions>
          <ns3:TrackPointExtension>
            <ns3:hr>93</ns3:hr>
            <ns3:cad>54</ns3:cad>
          </ns3:TrackPointExtension>
        </extensions>
      </trkpt>
      <trkpt lat="37.940143905580043792724609375" lon="-107.14775827713310718536376953125">
        <ele>3484.800048828125</ele>
        <time>2026-01-06T22:07:36.000Z</time>
        <extensions>
          <ns3:TrackPointExtension>
            <ns3:hr>92</ns3:hr>
            <ns3:cad>54</ns3:cad>
          </ns3:TrackPointExtension>
        </extensions>
      </trkpt>
      <trkpt lat="37.94013275764882564544677734375" lon="-107.1477811597287654876708984375">
        <ele>3484.60009765625</ele>
        <time>2026-01-06T22:07:38.000Z</time>
        <extensions>
          <ns3:TrackPointExtension>
            <ns3:hr>91</ns3:hr>
            <ns3:cad>54</ns3:cad>
          </ns3:TrackPointExtension>
        </extensions>
      </trkpt>
      <trkpt lat="37.94012588448822498321533203125" lon="-107.14779096655547618865966796875">
        <ele>3484.39990234375</ele>
        <time>2026-01-06T22:07:39.000Z</time>
        <extensions>
          <ns3:TrackPointExtension>
            <ns3:hr>91</ns3:hr>
            <ns3:cad>54</ns3:cad>
          </ns3:TrackPointExtension>
        </extensions>
      </trkpt>
      <trkpt lat="37.94009889476001262664794921875" lon="-107.14781879447400569915771484375">
        <ele>3483.800048828125</ele>
        <time>2026-01-06T22:07:42.000Z</time>
        <extensions>
          <ns3:TrackPointExtension>
            <ns3:hr>91</ns3:hr>
            <ns3:cad>53</ns3:cad>
          </ns3:TrackPointExtension>
        </extensions>
      </trkpt>
      <trkpt lat="37.94004793278872966766357421875" lon="-107.14786774478852748870849609375">
        <ele>3483.39990234375</ele>
        <time>2026-01-06T22:07:47.000Z</time>
        <extensions>
          <ns3:TrackPointExtension>
            <ns3:hr>91</ns3:hr>
            <ns3:cad>53</ns3:cad>
          </ns3:TrackPointExtension>
        </extensions>
      </trkpt>
      <trkpt lat="37.9400458373129367828369140625" lon="-107.14789993129670619964599609375">
        <ele>3483.199951171875</ele>
        <time>2026-01-06T22:07:49.000Z</time>
        <extensions>
          <ns3:TrackPointExtension>
            <ns3:hr>90</ns3:hr>
            <ns3:cad>53</ns3:cad>
          </ns3:TrackPointExtension>
        </extensions>
      </trkpt>
      <trkpt lat="37.940043322741985321044921875" lon="-107.147929854691028594970703125">
        <ele>3482.60009765625</ele>
        <time>2026-01-06T22:07:51.000Z</time>
        <extensions>
          <ns3:TrackPointExtension>
            <ns3:hr>90</ns3:hr>
            <ns3:cad>54</ns3:cad>
          </ns3:TrackPointExtension>
        </extensions>
      </trkpt>
      <trkpt lat="37.94004994444549083709716796875" lon="-107.14795793406665325164794921875">
        <ele>3482</ele>
        <time>2026-01-06T22:07:53.000Z</time>
        <extensions>
          <ns3:TrackPointExtension>
            <ns3:hr>90</ns3:hr>
            <ns3:cad>54</ns3:cad>
          </ns3:TrackPointExtension>
        </extensions>
      </trkpt>
      <trkpt lat="37.94005782343447208404541015625" lon="-107.14797738008201122283935546875">
        <ele>3481.39990234375</ele>
        <time>2026-01-06T22:07:55.000Z</time>
        <extensions>
          <ns3:TrackPointExtension>
            <ns3:hr>90</ns3:hr>
            <ns3:cad>51</ns3:cad>
          </ns3:TrackPointExtension>
        </extensions>
      </trkpt>
      <trkpt lat="37.94007056392729282379150390625" lon="-107.1480289287865161895751953125">
        <ele>3480.39990234375</ele>
        <time>2026-01-06T22:08:00.000Z</time>
        <extensions>
          <ns3:TrackPointExtension>
            <ns3:hr>90</ns3:hr>
            <ns3:cad>51</ns3:cad>
          </ns3:TrackPointExtension>
        </extensions>
      </trkpt>
      <trkpt lat="37.9400693066418170928955078125" lon="-107.148041166365146636962890625">
        <ele>3480.199951171875</ele>
        <time>2026-01-06T22:08:01.000Z</time>
        <extensions>
          <ns3:TrackPointExtension>
            <ns3:hr>89</ns3:hr>
            <ns3:cad>51</ns3:cad>
          </ns3:TrackPointExtension>
        </extensions>
      </trkpt>
      <trkpt lat="37.94006955809891223907470703125" lon="-107.148113586008548736572265625">
        <ele>3479</ele>
        <time>2026-01-06T22:08:06.000Z</time>
        <extensions>
          <ns3:TrackPointExtension>
            <ns3:hr>89</ns3:hr>
            <ns3:cad>53</ns3:cad>
          </ns3:TrackPointExtension>
        </extensions>
      </trkpt>
      <trkpt lat="37.94007743708789348602294921875" lon="-107.148170582950115203857421875">
        <ele>3478</ele>
        <time>2026-01-06T22:08:10.000Z</time>
        <extensions>
          <ns3:TrackPointExtension>
            <ns3:hr>88</ns3:hr>
            <ns3:cad>53</ns3:cad>
          </ns3:TrackPointExtension>
        </extensions>
      </trkpt>
      <trkpt lat="37.94008514843881130218505859375" lon="-107.148200087249279022216796875">
        <ele>3477.39990234375</ele>
        <time>2026-01-06T22:08:12.000Z</time>
        <extensions>
          <ns3:TrackPointExtension>
            <ns3:hr>88</ns3:hr>
            <ns3:cad>55</ns3:cad>
          </ns3:TrackPointExtension>
        </extensions>
      </trkpt>
      <trkpt lat="37.940086238086223602294921875" lon="-107.14821492321789264678955078125">
        <ele>3477</ele>
        <time>2026-01-06T22:08:13.000Z</time>
        <extensions>
          <ns3:TrackPointExtension>
            <ns3:hr>88</ns3:hr>
            <ns3:cad>55</ns3:cad>
          </ns3:TrackPointExtension>
        </extensions>
      </trkpt>
      <trkpt lat="37.94009336270391941070556640625" lon="-107.148295976221561431884765625">
        <ele>3476</ele>
        <time>2026-01-06T22:08:19.000Z</time>
        <extensions>
          <ns3:TrackPointExtension>
            <ns3:hr>88</ns3:hr>
            <ns3:cad>52</ns3:cad>
          </ns3:TrackPointExtension>
        </extensions>
      </trkpt>
      <trkpt lat="37.940078191459178924560546875" lon="-107.148332186043262481689453125">
        <ele>3474.800048828125</ele>
        <time>2026-01-06T22:08:23.000Z</time>
        <extensions>
          <ns3:TrackPointExtension>
            <ns3:hr>88</ns3:hr>
            <ns3:cad>51</ns3:cad>
          </ns3:TrackPointExtension>
        </extensions>
      </trkpt>
      <trkpt lat="37.9400733299553394317626953125" lon="-107.14836261235177516937255859375">
        <ele>3474.199951171875</ele>
        <time>2026-01-06T22:08:26.000Z</time>
        <extensions>
          <ns3:TrackPointExtension>
            <ns3:hr>88</ns3:hr>
            <ns3:cad>51</ns3:cad>
          </ns3:TrackPointExtension>
        </extensions>
      </trkpt>
      <trkpt lat="37.94006846845149993896484375" lon="-107.14840502478182315826416015625">
        <ele>3473.60009765625</ele>
        <time>2026-01-06T22:08:29.000Z</time>
        <extensions>
          <ns3:TrackPointExtension>
            <ns3:hr>88</ns3:hr>
            <ns3:cad>51</ns3:cad>
          </ns3:TrackPointExtension>
        </extensions>
      </trkpt>
      <trkpt lat="37.94005296193063259124755859375" lon="-107.14846260845661163330078125">
        <ele>3472.39990234375</ele>
        <time>2026-01-06T22:08:34.000Z</time>
        <extensions>
          <ns3:TrackPointExtension>
            <ns3:hr>87</ns3:hr>
            <ns3:cad>0</ns3:cad>
          </ns3:TrackPointExtension>
        </extensions>
      </trkpt>
      <trkpt lat="37.94003427028656005859375" lon="-107.1485020034015178680419921875">
        <ele>3471.39990234375</ele>
        <time>2026-01-06T22:08:39.000Z</time>
        <extensions>
          <ns3:TrackPointExtension>
            <ns3:hr>88</ns3:hr>
            <ns3:cad>51</ns3:cad>
          </ns3:TrackPointExtension>
        </extensions>
      </trkpt>
      <trkpt lat="37.9400270618498325347900390625" lon="-107.14851549826562404632568359375">
        <ele>3471.199951171875</ele>
        <time>2026-01-06T22:08:40.000Z</time>
        <extensions>
          <ns3:TrackPointExtension>
            <ns3:hr>89</ns3:hr>
            <ns3:cad>51</ns3:cad>
          </ns3:TrackPointExtension>
        </extensions>
      </trkpt>
      <trkpt lat="37.94001088477671146392822265625" lon="-107.14857316575944423675537109375">
        <ele>3470.199951171875</ele>
        <time>2026-01-06T22:08:46.000Z</time>
        <extensions>
          <ns3:TrackPointExtension>
            <ns3:hr>88</ns3:hr>
            <ns3:cad>0</ns3:cad>
          </ns3:TrackPointExtension>
        </extensions>
      </trkpt>
      <trkpt lat="37.940013818442821502685546875" lon="-107.14857970364391803741455078125">
        <ele>3469.800048828125</ele>
        <time>2026-01-06T22:08:47.000Z</time>
        <extensions>
          <ns3:TrackPointExtension>
            <ns3:hr>88</ns3:hr>
            <ns3:cad>50</ns3:cad>
          </ns3:TrackPointExtension>
        </extensions>
      </trkpt>
      <trkpt lat="37.93999881483614444732666015625" lon="-107.148604430258274078369140625">
        <ele>3469.199951171875</ele>
        <time>2026-01-06T22:08:52.000Z</time>
        <extensions>
          <ns3:TrackPointExtension>
            <ns3:hr>88</ns3:hr>
            <ns3:cad>49</ns3:cad>
          </ns3:TrackPointExtension>
        </extensions>
      </trkpt>
      <trkpt lat="37.939993701875209808349609375" lon="-107.14861222542822360992431640625">
        <ele>3468.800048828125</ele>
        <time>2026-01-06T22:08:54.000Z</time>
        <extensions>
          <ns3:TrackPointExtension>
            <ns3:hr>89</ns3:hr>
            <ns3:cad>49</ns3:cad>
          </ns3:TrackPointExtension>
        </extensions>
      </trkpt>
      <trkpt lat="37.939986996352672576904296875" lon="-107.1486602537333965301513671875">
        <ele>3467.800048828125</ele>
        <time>2026-01-06T22:08:58.000Z</time>
        <extensions>
          <ns3:TrackPointExtension>
            <ns3:hr>87</ns3:hr>
            <ns3:cad>49</ns3:cad>
          </ns3:TrackPointExtension>
        </extensions>
      </trkpt>
      <trkpt lat="37.939986996352672576904296875" lon="-107.148675508797168731689453125">
        <ele>3467.60009765625</ele>
        <time>2026-01-06T22:08:59.000Z</time>
        <extensions>
          <ns3:TrackPointExtension>
            <ns3:hr>86</ns3:hr>
            <ns3:cad>0</ns3:cad>
          </ns3:TrackPointExtension>
        </extensions>
      </trkpt>
      <trkpt lat="37.939988337457180023193359375" lon="-107.1487494371831417083740234375">
        <ele>3467</ele>
        <time>2026-01-06T22:09:05.000Z</time>
        <extensions>
          <ns3:TrackPointExtension>
            <ns3:hr>84</ns3:hr>
            <ns3:cad>44</ns3:cad>
          </ns3:TrackPointExtension>
        </extensions>
      </trkpt>
      <trkpt lat="37.9399878345429897308349609375" lon="-107.14876024983823299407958984375">
        <ele>3466.800048828125</ele>
        <time>2026-01-06T22:09:06.000Z</time>
        <extensions>
          <ns3:TrackPointExtension>
            <ns3:hr>84</ns3:hr>
            <ns3:cad>44</ns3:cad>
          </ns3:TrackPointExtension>
        </extensions>
      </trkpt>
      <trkpt lat="37.93998942710459232330322265625" lon="-107.14877902530133724212646484375">
        <ele>3466.39990234375</ele>
        <time>2026-01-06T22:09:08.000Z</time>
        <extensions>
          <ns3:TrackPointExtension>
            <ns3:hr>85</ns3:hr>
            <ns3:cad>44</ns3:cad>
          </ns3:TrackPointExtension>
        </extensions>
      </trkpt>
      <trkpt lat="37.939989678561687469482421875" lon="-107.1488111279904842376708984375">
        <ele>3465.60009765625</ele>
        <time>2026-01-06T22:09:11.000Z</time>
        <extensions>
          <ns3:TrackPointExtension>
            <ns3:hr>83</ns3:hr>
            <ns3:cad>0</ns3:cad>
          </ns3:TrackPointExtension>
        </extensions>
      </trkpt>
      <trkpt lat="37.93998590670526027679443359375" lon="-107.14884239248931407928466796875">
        <ele>3465</ele>
        <time>2026-01-06T22:09:14.000Z</time>
        <extensions>
          <ns3:TrackPointExtension>
            <ns3:hr>80</ns3:hr>
            <ns3:cad>0</ns3:cad>
          </ns3:TrackPointExtension>
        </extensions>
      </trkpt>
      <trkpt lat="37.93998942710459232330322265625" lon="-107.14885027147829532623291015625">
        <ele>3465</ele>
        <time>2026-01-06T22:09:15.000Z</time>
        <extensions>
          <ns3:TrackPointExtension>
            <ns3:hr>79</ns3:hr>
            <ns3:cad>0</ns3:cad>
          </ns3:TrackPointExtension>
        </extensions>
      </trkpt>
      <trkpt lat="37.93999780900776386260986328125" lon="-107.1488889120519161224365234375">
        <ele>3464.60009765625</ele>
        <time>2026-01-06T22:09:19.000Z</time>
        <extensions>
          <ns3:TrackPointExtension>
            <ns3:hr>79</ns3:hr>
            <ns3:cad>47</ns3:cad>
          </ns3:TrackPointExtension>
        </extensions>
      </trkpt>
      <trkpt lat="37.9399972222745418548583984375" lon="-107.14889503084123134613037109375">
        <ele>3464</ele>
        <time>2026-01-06T22:09:22.000Z</time>
        <extensions>
          <ns3:TrackPointExtension>
            <ns3:hr>79</ns3:hr>
            <ns3:cad>0</ns3:cad>
          </ns3:TrackPointExtension>
        </extensions>
      </trkpt>
      <trkpt lat="37.94000317342579364776611328125" lon="-107.1489301510155200958251953125">
        <ele>3463.800048828125</ele>
        <time>2026-01-06T22:09:27.000Z</time>
        <extensions>
          <ns3:TrackPointExtension>
            <ns3:hr>79</ns3:hr>
            <ns3:cad>0</ns3:cad>
          </ns3:TrackPointExtension>
        </extensions>
      </trkpt>
      <trkpt lat="37.9400022514164447784423828125" lon="-107.14894347824156284332275390625">
        <ele>3463.60009765625</ele>
        <time>2026-01-06T22:09:29.000Z</time>
        <extensions>
          <ns3:TrackPointExtension>
            <ns3:hr>79</ns3:hr>
            <ns3:cad>0</ns3:cad>
          </ns3:TrackPointExtension>
        </extensions>
      </trkpt>
      <trkpt lat="37.93999613262712955474853515625" lon="-107.148974239826202392578125">
        <ele>3462.199951171875</ele>
        <time>2026-01-06T22:09:33.000Z</time>
        <extensions>
          <ns3:TrackPointExtension>
            <ns3:hr>79</ns3:hr>
            <ns3:cad>43</ns3:cad>
          </ns3:TrackPointExtension>
        </extensions>
      </trkpt>
      <trkpt lat="37.93999470770359039306640625" lon="-107.1489821188151836395263671875">
        <ele>3462.199951171875</ele>
        <time>2026-01-06T22:09:34.000Z</time>
        <extensions>
          <ns3:TrackPointExtension>
            <ns3:hr>80</ns3:hr>
            <ns3:cad>43</ns3:cad>
          </ns3:TrackPointExtension>
        </extensions>
      </trkpt>
      <trkpt lat="37.93998121283948421478271484375" lon="-107.14903685264289379119873046875">
        <ele>3461.60009765625</ele>
        <time>2026-01-06T22:09:40.000Z</time>
        <extensions>
          <ns3:TrackPointExtension>
            <ns3:hr>82</ns3:hr>
            <ns3:cad>0</ns3:cad>
          </ns3:TrackPointExtension>
        </extensions>
      </trkpt>
      <trkpt lat="37.939980290830135345458984375" lon="-107.149045653641223907470703125">
        <ele>3461.39990234375</ele>
        <time>2026-01-06T22:09:41.000Z</time>
        <extensions>
          <ns3:TrackPointExtension>
            <ns3:hr>83</ns3:hr>
            <ns3:cad>44</ns3:cad>
          </ns3:TrackPointExtension>
        </extensions>
      </trkpt>
      <trkpt lat="37.9399814642965793609619140625" lon="-107.14905646629631519317626953125">
        <ele>3461.199951171875</ele>
        <time>2026-01-06T22:09:42.000Z</time>
        <extensions>
          <ns3:TrackPointExtension>
            <ns3:hr>83</ns3:hr>
            <ns3:cad>44</ns3:cad>
          </ns3:TrackPointExtension>
        </extensions>
      </trkpt>
      <trkpt lat="37.9399915225803852081298828125" lon="-107.149099297821521759033203125">
        <ele>3460.199951171875</ele>
        <time>2026-01-06T22:09:45.000Z</time>
        <extensions>
          <ns3:TrackPointExtension>
            <ns3:hr>83</ns3:hr>
            <ns3:cad>41</ns3:cad>
          </ns3:TrackPointExtension>
        </extensions>
      </trkpt>
      <trkpt lat="37.94000518508255481719970703125" lon="-107.14914279989898204803466796875">
        <ele>3459.60009765625</ele>
        <time>2026-01-06T22:09:49.000Z</time>
        <extensions>
          <ns3:TrackPointExtension>
            <ns3:hr>85</ns3:hr>
            <ns3:cad>47</ns3:cad>
          </ns3:TrackPointExtension>
        </extensions>
      </trkpt>
      <trkpt lat="37.93999864719808101654052734375" lon="-107.1491722203791141510009765625">
        <ele>3459</ele>
        <time>2026-01-06T22:09:52.000Z</time>
        <extensions>
          <ns3:TrackPointExtension>
            <ns3:hr>87</ns3:hr>
            <ns3:cad>47</ns3:cad>
          </ns3:TrackPointExtension>
        </extensions>
      </trkpt>
      <trkpt lat="37.9399935342371463775634765625" lon="-107.14918546378612518310546875">
        <ele>3458.60009765625</ele>
        <time>2026-01-06T22:09:54.000Z</time>
        <extensions>
          <ns3:TrackPointExtension>
            <ns3:hr>91</ns3:hr>
            <ns3:cad>0</ns3:cad>
          </ns3:TrackPointExtension>
        </extensions>
      </trkpt>
      <trkpt lat="37.93999412097036838531494140625" lon="-107.14920231141149997711181640625">
        <ele>3458.199951171875</ele>
        <time>2026-01-06T22:09:56.000Z</time>
        <extensions>
          <ns3:TrackPointExtension>
            <ns3:hr>95</ns3:hr>
            <ns3:cad>0</ns3:cad>
          </ns3:TrackPointExtension>
        </extensions>
      </trkpt>
      <trkpt lat="37.9399911873042583465576171875" lon="-107.1492218412458896636962890625">
        <ele>3458</ele>
        <time>2026-01-06T22:09:58.000Z</time>
        <extensions>
          <ns3:TrackPointExtension>
            <ns3:hr>97</ns3:hr>
            <ns3:cad>52</ns3:cad>
          </ns3:TrackPointExtension>
        </extensions>
      </trkpt>
      <trkpt lat="37.93998909182846546173095703125" lon="-107.14925520122051239013671875">
        <ele>3457</ele>
        <time>2026-01-06T22:10:03.000Z</time>
        <extensions>
          <ns3:TrackPointExtension>
            <ns3:hr>96</ns3:hr>
            <ns3:cad>51</ns3:cad>
          </ns3:TrackPointExtension>
        </extensions>
      </trkpt>
      <trkpt lat="37.939986996352672576904296875" lon="-107.1492567099630832672119140625">
        <ele>3457</ele>
        <time>2026-01-06T22:10:04.000Z</time>
        <extensions>
          <ns3:TrackPointExtension>
            <ns3:hr>97</ns3:hr>
            <ns3:cad>51</ns3:cad>
          </ns3:TrackPointExtension>
        </extensions>
      </trkpt>
      <trkpt lat="37.939982302486896514892578125" lon="-107.14929333887994289398193359375">
        <ele>3456.60009765625</ele>
        <time>2026-01-06T22:10:08.000Z</time>
        <extensions>
          <ns3:TrackPointExtension>
            <ns3:hr>95</ns3:hr>
            <ns3:cad>0</ns3:cad>
          </ns3:TrackPointExtension>
        </extensions>
      </trkpt>
      <trkpt lat="37.93997920118272304534912109375" lon="-107.14933021925389766693115234375">
        <ele>3455.800048828125</ele>
        <time>2026-01-06T22:10:11.000Z</time>
        <extensions>
          <ns3:TrackPointExtension>
            <ns3:hr>93</ns3:hr>
            <ns3:cad>0</ns3:cad>
          </ns3:TrackPointExtension>
        </extensions>
      </trkpt>
      <trkpt lat="37.9399844817817211151123046875" lon="-107.14936391450464725494384765625">
        <ele>3455</ele>
        <time>2026-01-06T22:10:15.000Z</time>
        <extensions>
          <ns3:TrackPointExtension>
            <ns3:hr>92</ns3:hr>
            <ns3:cad>0</ns3:cad>
          </ns3:TrackPointExtension>
        </extensions>
      </trkpt>
      <trkpt lat="37.9399846494197845458984375" lon="-107.14938553981482982635498046875">
        <ele>3454.60009765625</ele>
        <time>2026-01-06T22:10:17.000Z</time>
        <extensions>
          <ns3:TrackPointExtension>
            <ns3:hr>91</ns3:hr>
            <ns3:cad>66</ns3:cad>
          </ns3:TrackPointExtension>
        </extensions>
      </trkpt>
      <trkpt lat="37.939989008009433746337890625" lon="-107.14945770800113677978515625">
        <ele>3453.60009765625</ele>
        <time>2026-01-06T22:10:23.000Z</time>
        <extensions>
          <ns3:TrackPointExtension>
            <ns3:hr>93</ns3:hr>
            <ns3:cad>0</ns3:cad>
          </ns3:TrackPointExtension>
        </extensions>
      </trkpt>
      <trkpt lat="37.9399926960468292236328125" lon="-107.1495339833199977874755859375">
        <ele>3452.800048828125</ele>
        <time>2026-01-06T22:10:29.000Z</time>
        <extensions>
          <ns3:TrackPointExtension>
            <ns3:hr>92</ns3:hr>
            <ns3:cad>0</ns3:cad>
          </ns3:TrackPointExtension>
        </extensions>
      </trkpt>
      <trkpt lat="37.9399928636848926544189453125" lon="-107.14953892864286899566650390625">
        <ele>3452.60009765625</ele>
        <time>2026-01-06T22:10:30.000Z</time>
        <extensions>
          <ns3:TrackPointExtension>
            <ns3:hr>92</ns3:hr>
            <ns3:cad>48</ns3:cad>
          </ns3:TrackPointExtension>
        </extensions>
      </trkpt>
      <trkpt lat="37.9399918578565120697021484375" lon="-107.149545885622501373291015625">
        <ele>3452.39990234375</ele>
        <time>2026-01-06T22:10:31.000Z</time>
        <extensions>
          <ns3:TrackPointExtension>
            <ns3:hr>93</ns3:hr>
            <ns3:cad>48</ns3:cad>
          </ns3:TrackPointExtension>
        </extensions>
      </trkpt>
      <trkpt lat="37.9399921931326389312744140625" lon="-107.14958846569061279296875">
        <ele>3451.39990234375</ele>
        <time>2026-01-06T22:10:36.000Z</time>
        <extensions>
          <ns3:TrackPointExtension>
            <ns3:hr>92</ns3:hr>
            <ns3:cad>48</ns3:cad>
          </ns3:TrackPointExtension>
        </extensions>
      </trkpt>
      <trkpt lat="37.93999378569424152374267578125" lon="-107.149599529802799224853515625">
        <ele>3451.199951171875</ele>
        <time>2026-01-06T22:10:37.000Z</time>
        <extensions>
          <ns3:TrackPointExtension>
            <ns3:hr>92</ns3:hr>
            <ns3:cad>48</ns3:cad>
          </ns3:TrackPointExtension>
        </extensions>
      </trkpt>
      <trkpt lat="37.93998674489557743072509765625" lon="-107.14966381900012493133544921875">
        <ele>3450.199951171875</ele>
        <time>2026-01-06T22:10:43.000Z</time>
        <extensions>
          <ns3:TrackPointExtension>
            <ns3:hr>96</ns3:hr>
            <ns3:cad>48</ns3:cad>
          </ns3:TrackPointExtension>
        </extensions>
      </trkpt>
      <trkpt lat="37.939979620277881622314453125" lon="-107.149685360491275787353515625">
        <ele>3449.800048828125</ele>
        <time>2026-01-06T22:10:45.000Z</time>
        <extensions>
          <ns3:TrackPointExtension>
            <ns3:hr>96</ns3:hr>
            <ns3:cad>0</ns3:cad>
          </ns3:TrackPointExtension>
        </extensions>
      </trkpt>
      <trkpt lat="37.93996595777571201324462890625" lon="-107.14969986118376255035400390625">
        <ele>3449.199951171875</ele>
        <time>2026-01-06T22:10:48.000Z</time>
        <extensions>
          <ns3:TrackPointExtension>
            <ns3:hr>97</ns3:hr>
            <ns3:cad>48</ns3:cad>
          </ns3:TrackPointExtension>
        </extensions>
      </trkpt>
      <trkpt lat="37.93995103798806667327880859375" lon="-107.1497193910181522369384765625">
        <ele>3448.39990234375</ele>
        <time>2026-01-06T22:10:51.000Z</time>
        <extensions>
          <ns3:TrackPointExtension>
            <ns3:hr>97</ns3:hr>
            <ns3:cad>0</ns3:cad>
          </ns3:TrackPointExtension>
        </extensions>
      </trkpt>
      <trkpt lat="37.93994508683681488037109375" lon="-107.14973154477775096893310546875">
        <ele>3448</ele>
        <time>2026-01-06T22:10:53.000Z</time>
        <extensions>
          <ns3:TrackPointExtension>
            <ns3:hr>97</ns3:hr>
            <ns3:cad>0</ns3:cad>
          </ns3:TrackPointExtension>
        </extensions>
      </trkpt>
      <trkpt lat="37.9399425722658634185791015625" lon="-107.14978300966322422027587890625">
        <ele>3447.39990234375</ele>
        <time>2026-01-06T22:10:58.000Z</time>
        <extensions>
          <ns3:TrackPointExtension>
            <ns3:hr>97</ns3:hr>
            <ns3:cad>0</ns3:cad>
          </ns3:TrackPointExtension>
        </extensions>
      </trkpt>
      <trkpt lat="37.9399385489523410797119140625" lon="-107.1498285233974456787109375">
        <ele>3447</ele>
        <time>2026-01-06T22:11:03.000Z</time>
        <extensions>
          <ns3:TrackPointExtension>
            <ns3:hr>99</ns3:hr>
            <ns3:cad>0</ns3:cad>
          </ns3:TrackPointExtension>
        </extensions>
      </trkpt>
      <trkpt lat="37.939934693276882171630859375" lon="-107.1498499810695648193359375">
        <ele>3446.800048828125</ele>
        <time>2026-01-06T22:11:05.000Z</time>
        <extensions>
          <ns3:TrackPointExtension>
            <ns3:hr>97</ns3:hr>
            <ns3:cad>0</ns3:cad>
          </ns3:TrackPointExtension>
        </extensions>
      </trkpt>
      <trkpt lat="37.9399288259446620941162109375" lon="-107.14987521059811115264892578125">
        <ele>3446.199951171875</ele>
        <time>2026-01-06T22:11:07.000Z</time>
        <extensions>
          <ns3:TrackPointExtension>
            <ns3:hr>94</ns3:hr>
            <ns3:cad>0</ns3:cad>
          </ns3:TrackPointExtension>
        </extensions>
      </trkpt>
      <trkpt lat="37.9399274848401546478271484375" lon="-107.1498870290815830230712890625">
        <ele>3446</ele>
        <time>2026-01-06T22:11:08.000Z</time>
        <extensions>
          <ns3:TrackPointExtension>
            <ns3:hr>94</ns3:hr>
            <ns3:cad>0</ns3:cad>
          </ns3:TrackPointExtension>
        </extensions>
      </trkpt>
      <trkpt lat="37.939921952784061431884765625" lon="-107.1499678306281566619873046875">
        <ele>3444.800048828125</ele>
        <time>2026-01-06T22:11:14.000Z</time>
        <extensions>
          <ns3:TrackPointExtension>
            <ns3:hr>93</ns3:hr>
            <ns3:cad>0</ns3:cad>
          </ns3:TrackPointExtension>
        </extensions>
      </trkpt>
      <trkpt lat="37.9399310052394866943359375" lon="-107.150026001036167144775390625">
        <ele>3443.800048828125</ele>
        <time>2026-01-06T22:11:19.000Z</time>
        <extensions>
          <ns3:TrackPointExtension>
            <ns3:hr>92</ns3:hr>
            <ns3:cad>49</ns3:cad>
          </ns3:TrackPointExtension>
        </extensions>
      </trkpt>
      <trkpt lat="37.9399362020194530487060546875" lon="-107.150061540305614471435546875">
        <ele>3443</ele>
        <time>2026-01-06T22:11:22.000Z</time>
        <extensions>
          <ns3:TrackPointExtension>
            <ns3:hr>92</ns3:hr>
            <ns3:cad>49</ns3:cad>
          </ns3:TrackPointExtension>
        </extensions>
      </trkpt>
      <trkpt lat="37.9399341903626918792724609375" lon="-107.1500861831009387969970703125">
        <ele>3442.39990234375</ele>
        <time>2026-01-06T22:11:24.000Z</time>
        <extensions>
          <ns3:TrackPointExtension>
            <ns3:hr>92</ns3:hr>
            <ns3:cad>49</ns3:cad>
          </ns3:TrackPointExtension>
        </extensions>
      </trkpt>
      <trkpt lat="37.93992220424115657806396484375" lon="-107.15014426968991756439208984375">
        <ele>3441.60009765625</ele>
        <time>2026-01-06T22:11:30.000Z</time>
        <extensions>
          <ns3:TrackPointExtension>
            <ns3:hr>92</ns3:hr>
            <ns3:cad>51</ns3:cad>
          </ns3:TrackPointExtension>
        </extensions>
      </trkpt>
      <trkpt lat="37.93992002494633197784423828125" lon="-107.1501555852591991424560546875">
        <ele>3441.199951171875</ele>
        <time>2026-01-06T22:11:31.000Z</time>
        <extensions>
          <ns3:TrackPointExtension>
            <ns3:hr>92</ns3:hr>
            <ns3:cad>51</ns3:cad>
          </ns3:TrackPointExtension>
        </extensions>
      </trkpt>
      <trkpt lat="37.9399097152054309844970703125" lon="-107.15023127384483814239501953125">
        <ele>3440.800048828125</ele>
        <time>2026-01-06T22:11:37.000Z</time>
        <extensions>
          <ns3:TrackPointExtension>
            <ns3:hr>91</ns3:hr>
            <ns3:cad>51</ns3:cad>
          </ns3:TrackPointExtension>
        </extensions>
      </trkpt>
      <trkpt lat="37.939900495111942291259765625" lon="-107.1502467803657054901123046875">
        <ele>3440.199951171875</ele>
        <time>2026-01-06T22:11:39.000Z</time>
        <extensions>
          <ns3:TrackPointExtension>
            <ns3:hr>89</ns3:hr>
            <ns3:cad>51</ns3:cad>
          </ns3:TrackPointExtension>
        </extensions>
      </trkpt>
      <trkpt lat="37.939895130693912506103515625" lon="-107.15029045008122920989990234375">
        <ele>3439.39990234375</ele>
        <time>2026-01-06T22:11:42.000Z</time>
        <extensions>
          <ns3:TrackPointExtension>
            <ns3:hr>89</ns3:hr>
            <ns3:cad>52</ns3:cad>
          </ns3:TrackPointExtension>
        </extensions>
      </trkpt>
      <trkpt lat="37.93989521451294422149658203125" lon="-107.1503067947924137115478515625">
        <ele>3439.199951171875</ele>
        <time>2026-01-06T22:11:43.000Z</time>
        <extensions>
          <ns3:TrackPointExtension>
            <ns3:hr>90</ns3:hr>
            <ns3:cad>0</ns3:cad>
          </ns3:TrackPointExtension>
        </extensions>
      </trkpt>
      <trkpt lat="37.9398912750184535980224609375" lon="-107.1503577567636966705322265625">
        <ele>3438</ele>
        <time>2026-01-06T22:11:49.000Z</time>
        <extensions>
          <ns3:TrackPointExtension>
            <ns3:hr>91</ns3:hr>
            <ns3:cad>0</ns3:cad>
          </ns3:TrackPointExtension>
        </extensions>
      </trkpt>
      <trkpt lat="37.9398788698017597198486328125" lon="-107.15041399933397769927978515625">
        <ele>3437</ele>
        <time>2026-01-06T22:11:55.000Z</time>
        <extensions>
          <ns3:TrackPointExtension>
            <ns3:hr>91</ns3:hr>
            <ns3:cad>0</ns3:cad>
          </ns3:TrackPointExtension>
        </extensions>
      </trkpt>
      <trkpt lat="37.9398771934211254119873046875" lon="-107.150423638522624969482421875">
        <ele>3436.800048828125</ele>
        <time>2026-01-06T22:11:56.000Z</time>
        <extensions>
          <ns3:TrackPointExtension>
            <ns3:hr>92</ns3:hr>
            <ns3:cad>0</ns3:cad>
          </ns3:TrackPointExtension>
        </extensions>
      </trkpt>
      <trkpt lat="37.93987073935568332672119140625" lon="-107.1505017578601837158203125">
        <ele>3435.800048828125</ele>
        <time>2026-01-06T22:12:02.000Z</time>
        <extensions>
          <ns3:TrackPointExtension>
            <ns3:hr>95</ns3:hr>
            <ns3:cad>47</ns3:cad>
          </ns3:TrackPointExtension>
        </extensions>
      </trkpt>
      <trkpt lat="37.93986889533698558807373046875" lon="-107.15051843784749507904052734375">
        <ele>3435.800048828125</ele>
        <time>2026-01-06T22:12:04.000Z</time>
        <extensions>
          <ns3:TrackPointExtension>
            <ns3:hr>95</ns3:hr>
            <ns3:cad>48</ns3:cad>
          </ns3:TrackPointExtension>
        </extensions>
      </trkpt>
      <trkpt lat="37.9398547299206256866455078125" lon="-107.15056051500141620635986328125">
        <ele>3434.60009765625</ele>
        <time>2026-01-06T22:12:08.000Z</time>
        <extensions>
          <ns3:TrackPointExtension>
            <ns3:hr>95</ns3:hr>
            <ns3:cad>50</ns3:cad>
          </ns3:TrackPointExtension>
        </extensions>
      </trkpt>
      <trkpt lat="37.9398527182638645172119140625" lon="-107.1505991555750370025634765625">
        <ele>3433.800048828125</ele>
        <time>2026-01-06T22:12:11.000Z</time>
        <extensions>
          <ns3:TrackPointExtension>
            <ns3:hr>94</ns3:hr>
            <ns3:cad>0</ns3:cad>
          </ns3:TrackPointExtension>
        </extensions>
      </trkpt>
      <trkpt lat="37.93985246680676937103271484375" lon="-107.15061566792428493499755859375">
        <ele>3433.39990234375</ele>
        <time>2026-01-06T22:12:13.000Z</time>
        <extensions>
          <ns3:TrackPointExtension>
            <ns3:hr>95</ns3:hr>
            <ns3:cad>0</ns3:cad>
          </ns3:TrackPointExtension>
        </extensions>
      </trkpt>
      <trkpt lat="37.939846850931644439697265625" lon="-107.15067149139940738677978515625">
        <ele>3433</ele>
        <time>2026-01-06T22:12:17.000Z</time>
        <extensions>
          <ns3:TrackPointExtension>
            <ns3:hr>94</ns3:hr>
            <ns3:cad>0</ns3:cad>
          </ns3:TrackPointExtension>
        </extensions>
      </trkpt>
      <trkpt lat="37.93984584510326385498046875" lon="-107.15069764293730258941650390625">
        <ele>3432.39990234375</ele>
        <time>2026-01-06T22:12:19.000Z</time>
        <extensions>
          <ns3:TrackPointExtension>
            <ns3:hr>95</ns3:hr>
            <ns3:cad>48</ns3:cad>
          </ns3:TrackPointExtension>
        </extensions>
      </trkpt>
      <trkpt lat="37.93983318842947483062744140625" lon="-107.150782048702239990234375">
        <ele>3431.39990234375</ele>
        <time>2026-01-06T22:12:25.000Z</time>
        <extensions>
          <ns3:TrackPointExtension>
            <ns3:hr>94</ns3:hr>
            <ns3:cad>52</ns3:cad>
          </ns3:TrackPointExtension>
        </extensions>
      </trkpt>
      <trkpt lat="37.93983352370560169219970703125" lon="-107.15079705230891704559326171875">
        <ele>3431.199951171875</ele>
        <time>2026-01-06T22:12:26.000Z</time>
        <extensions>
          <ns3:TrackPointExtension>
            <ns3:hr>94</ns3:hr>
            <ns3:cad>0</ns3:cad>
          </ns3:TrackPointExtension>
        </extensions>
      </trkpt>
      <trkpt lat="37.9398329369723796844482421875" lon="-107.15084784664213657379150390625">
        <ele>3430.199951171875</ele>
        <time>2026-01-06T22:12:31.000Z</time>
        <extensions>
          <ns3:TrackPointExtension>
            <ns3:hr>93</ns3:hr>
            <ns3:cad>47</ns3:cad>
          </ns3:TrackPointExtension>
        </extensions>
      </trkpt>
      <trkpt lat="37.939836792647838592529296875" lon="-107.1508690528571605682373046875">
        <ele>3430</ele>
        <time>2026-01-06T22:12:33.000Z</time>
        <extensions>
          <ns3:TrackPointExtension>
            <ns3:hr>93</ns3:hr>
            <ns3:cad>47</ns3:cad>
          </ns3:TrackPointExtension>
        </extensions>
      </trkpt>
      <trkpt lat="37.93983184732496738433837890625" lon="-107.15089377947151660919189453125">
        <ele>3429.199951171875</ele>
        <time>2026-01-06T22:12:37.000Z</time>
        <extensions>
          <ns3:TrackPointExtension>
            <ns3:hr>94</ns3:hr>
            <ns3:cad>47</ns3:cad>
          </ns3:TrackPointExtension>
        </extensions>
      </trkpt>
      <trkpt lat="37.93982572853565216064453125" lon="-107.15092194266617298126220703125">
        <ele>3428.60009765625</ele>
        <time>2026-01-06T22:12:40.000Z</time>
        <extensions>
          <ns3:TrackPointExtension>
            <ns3:hr>96</ns3:hr>
            <ns3:cad>0</ns3:cad>
          </ns3:TrackPointExtension>
        </extensions>
      </trkpt>
      <trkpt lat="37.93980284593999385833740234375" lon="-107.1509778499603271484375">
        <ele>3428.39990234375</ele>
        <time>2026-01-06T22:12:46.000Z</time>
        <extensions>
          <ns3:TrackPointExtension>
            <ns3:hr>95</ns3:hr>
            <ns3:cad>0</ns3:cad>
          </ns3:TrackPointExtension>
        </extensions>
      </trkpt>
      <trkpt lat="37.93979697860777378082275390625" lon="-107.15099788270890712738037109375">
        <ele>3428</ele>
        <time>2026-01-06T22:12:48.000Z</time>
        <extensions>
          <ns3:TrackPointExtension>
            <ns3:hr>95</ns3:hr>
            <ns3:cad>0</ns3:cad>
          </ns3:TrackPointExtension>
        </extensions>
      </trkpt>
      <trkpt lat="37.93979010544717311859130859375" lon="-107.15102252550423145294189453125">
        <ele>3427</ele>
        <time>2026-01-06T22:12:52.000Z</time>
        <extensions>
          <ns3:TrackPointExtension>
            <ns3:hr>95</ns3:hr>
            <ns3:cad>0</ns3:cad>
          </ns3:TrackPointExtension>
        </extensions>
      </trkpt>
      <trkpt lat="37.93978256173431873321533203125" lon="-107.1510896645486354827880859375">
        <ele>3426.199951171875</ele>
        <time>2026-01-06T22:12:58.000Z</time>
        <extensions>
          <ns3:TrackPointExtension>
            <ns3:hr>95</ns3:hr>
            <ns3:cad>0</ns3:cad>
          </ns3:TrackPointExtension>
        </extensions>
      </trkpt>
      <trkpt lat="37.9397846572101116180419921875" lon="-107.15110735036432743072509765625">
        <ele>3425.800048828125</ele>
        <time>2026-01-06T22:13:00.000Z</time>
        <extensions>
          <ns3:TrackPointExtension>
            <ns3:hr>95</ns3:hr>
            <ns3:cad>0</ns3:cad>
          </ns3:TrackPointExtension>
        </extensions>
      </trkpt>
      <trkpt lat="37.939781807363033294677734375" lon="-107.15116116218268871307373046875">
        <ele>3425.39990234375</ele>
        <time>2026-01-06T22:13:06.000Z</time>
        <extensions>
          <ns3:TrackPointExtension>
            <ns3:hr>95</ns3:hr>
            <ns3:cad>43</ns3:cad>
          </ns3:TrackPointExtension>
        </extensions>
      </trkpt>
      <trkpt lat="37.93977987952530384063720703125" lon="-107.151186056435108184814453125">
        <ele>3425.199951171875</ele>
        <time>2026-01-06T22:13:08.000Z</time>
        <extensions>
          <ns3:TrackPointExtension>
            <ns3:hr>96</ns3:hr>
            <ns3:cad>43</ns3:cad>
          </ns3:TrackPointExtension>
        </extensions>
      </trkpt>
      <trkpt lat="37.93977602384984493255615234375" lon="-107.151210866868495941162109375">
        <ele>3424.800048828125</ele>
        <time>2026-01-06T22:13:10.000Z</time>
        <extensions>
          <ns3:TrackPointExtension>
            <ns3:hr>97</ns3:hr>
            <ns3:cad>43</ns3:cad>
          </ns3:TrackPointExtension>
        </extensions>
      </trkpt>
      <trkpt lat="37.93977837078273296356201171875" lon="-107.15128521434962749481201171875">
        <ele>3423.800048828125</ele>
        <time>2026-01-06T22:13:16.000Z</time>
        <extensions>
          <ns3:TrackPointExtension>
            <ns3:hr>98</ns3:hr>
            <ns3:cad>43</ns3:cad>
          </ns3:TrackPointExtension>
        </extensions>
      </trkpt>
      <trkpt lat="37.9397782869637012481689453125" lon="-107.151302732527256011962890625">
        <ele>3423.60009765625</ele>
        <time>2026-01-06T22:13:18.000Z</time>
        <extensions>
          <ns3:TrackPointExtension>
            <ns3:hr>98</ns3:hr>
            <ns3:cad>40</ns3:cad>
          </ns3:TrackPointExtension>
        </extensions>
      </trkpt>
      <trkpt lat="37.93976864777505397796630859375" lon="-107.15133751742541790008544921875">
        <ele>3423.199951171875</ele>
        <time>2026-01-06T22:13:21.000Z</time>
        <extensions>
          <ns3:TrackPointExtension>
            <ns3:hr>94</ns3:hr>
            <ns3:cad>0</ns3:cad>
          </ns3:TrackPointExtension>
        </extensions>
      </trkpt>
      <trkpt lat="37.93976697139441967010498046875" lon="-107.15135495178401470184326171875">
        <ele>3423</ele>
        <time>2026-01-06T22:13:22.000Z</time>
        <extensions>
          <ns3:TrackPointExtension>
            <ns3:hr>91</ns3:hr>
            <ns3:cad>0</ns3:cad>
          </ns3:TrackPointExtension>
        </extensions>
      </trkpt>
      <trkpt lat="37.93976403772830963134765625" lon="-107.151388227939605712890625">
        <ele>3422.800048828125</ele>
        <time>2026-01-06T22:13:24.000Z</time>
        <extensions>
          <ns3:TrackPointExtension>
            <ns3:hr>90</ns3:hr>
            <ns3:cad>48</ns3:cad>
          </ns3:TrackPointExtension>
        </extensions>
      </trkpt>
      <trkpt lat="37.93976143933832645416259765625" lon="-107.1514142118394374847412109375">
        <ele>3422.39990234375</ele>
        <time>2026-01-06T22:13:26.000Z</time>
        <extensions>
          <ns3:TrackPointExtension>
            <ns3:hr>89</ns3:hr>
            <ns3:cad>49</ns3:cad>
          </ns3:TrackPointExtension>
        </extensions>
      </trkpt>
      <trkpt lat="37.9397605173289775848388671875" lon="-107.15148151852190494537353515625">
        <ele>3421.39990234375</ele>
        <time>2026-01-06T22:13:31.000Z</time>
        <extensions>
          <ns3:TrackPointExtension>
            <ns3:hr>90</ns3:hr>
            <ns3:cad>52</ns3:cad>
          </ns3:TrackPointExtension>
        </extensions>
      </trkpt>
      <trkpt lat="37.9397551529109477996826171875" lon="-107.1514923311769962310791015625">
        <ele>3421.199951171875</ele>
        <time>2026-01-06T22:13:32.000Z</time>
        <extensions>
          <ns3:TrackPointExtension>
            <ns3:hr>90</ns3:hr>
            <ns3:cad>52</ns3:cad>
          </ns3:TrackPointExtension>
        </extensions>
      </trkpt>
      <trkpt lat="37.9397450946271419525146484375" lon="-107.1515184827148914337158203125">
        <ele>3421</ele>
        <time>2026-01-06T22:13:35.000Z</time>
        <extensions>
          <ns3:TrackPointExtension>
            <ns3:hr>87</ns3:hr>
            <ns3:cad>52</ns3:cad>
          </ns3:TrackPointExtension>
        </extensions>
      </trkpt>
      <trkpt lat="37.9397233016788959503173828125" lon="-107.151536755263805389404296875">
        <ele>3420.199951171875</ele>
        <time>2026-01-06T22:13:38.000Z</time>
        <extensions>
          <ns3:TrackPointExtension>
            <ns3:hr>84</ns3:hr>
            <ns3:cad>51</ns3:cad>
          </ns3:TrackPointExtension>
        </extensions>
      </trkpt>
      <trkpt lat="37.9397219605743885040283203125" lon="-107.15153750963509082794189453125">
        <ele>3420</ele>
        <time>2026-01-06T22:13:39.000Z</time>
        <extensions>
          <ns3:TrackPointExtension>
            <ns3:hr>82</ns3:hr>
            <ns3:cad>51</ns3:cad>
          </ns3:TrackPointExtension>
        </extensions>
      </trkpt>
      <trkpt lat="37.9397085495293140411376953125" lon="-107.15158964507281780242919921875">
        <ele>3419.199951171875</ele>
        <time>2026-01-06T22:13:44.000Z</time>
        <extensions>
          <ns3:TrackPointExtension>
            <ns3:hr>82</ns3:hr>
            <ns3:cad>51</ns3:cad>
          </ns3:TrackPointExtension>
        </extensions>
      </trkpt>
      <trkpt lat="37.93970829807221889495849609375" lon="-107.1516006253659725189208984375">
        <ele>3419</ele>
        <time>2026-01-06T22:13:45.000Z</time>
        <extensions>
          <ns3:TrackPointExtension>
            <ns3:hr>82</ns3:hr>
            <ns3:cad>51</ns3:cad>
          </ns3:TrackPointExtension>
        </extensions>
      </trkpt>
      <trkpt lat="37.93969555757939815521240234375" lon="-107.15167949907481670379638671875">
        <ele>3418.39990234375</ele>
        <time>2026-01-06T22:13:51.000Z</time>
        <extensions>
          <ns3:TrackPointExtension>
            <ns3:hr>83</ns3:hr>
            <ns3:cad>49</ns3:cad>
          </ns3:TrackPointExtension>
        </extensions>
      </trkpt>
      <trkpt lat="37.93969555757939815521240234375" lon="-107.1517089195549488067626953125">
        <ele>3418</ele>
        <time>2026-01-06T22:13:53.000Z</time>
        <extensions>
          <ns3:TrackPointExtension>
            <ns3:hr>84</ns3:hr>
            <ns3:cad>49</ns3:cad>
          </ns3:TrackPointExtension>
        </extensions>
      </trkpt>
      <trkpt lat="37.93970905244350433349609375" lon="-107.1517736278474330902099609375">
        <ele>3417.39990234375</ele>
        <time>2026-01-06T22:13:58.000Z</time>
        <extensions>
          <ns3:TrackPointExtension>
            <ns3:hr>85</ns3:hr>
            <ns3:cad>47</ns3:cad>
          </ns3:TrackPointExtension>
        </extensions>
      </trkpt>
      <trkpt lat="37.939730845391750335693359375" lon="-107.1518480591475963592529296875">
        <ele>3417.39990234375</ele>
        <time>2026-01-06T22:14:04.000Z</time>
        <extensions>
          <ns3:TrackPointExtension>
            <ns3:hr>84</ns3:hr>
            <ns3:cad>0</ns3:cad>
          </ns3:TrackPointExtension>
        </extensions>
      </trkpt>
      <trkpt lat="37.93973478488624095916748046875" lon="-107.15186230838298797607421875">
        <ele>3417.199951171875</ele>
        <time>2026-01-06T22:14:05.000Z</time>
        <extensions>
          <ns3:TrackPointExtension>
            <ns3:hr>83</ns3:hr>
            <ns3:cad>48</ns3:cad>
          </ns3:TrackPointExtension>
        </extensions>
      </trkpt>
      <trkpt lat="37.93973562307655811309814453125" lon="-107.15188770554959774017333984375">
        <ele>3417</ele>
        <time>2026-01-06T22:14:07.000Z</time>
        <extensions>
          <ns3:TrackPointExtension>
            <ns3:hr>83</ns3:hr>
            <ns3:cad>48</ns3:cad>
          </ns3:TrackPointExtension>
        </extensions>
      </trkpt>
      <trkpt lat="37.93972321785986423492431640625" lon="-107.1519469656050205230712890625">
        <ele>3416.199951171875</ele>
        <time>2026-01-06T22:14:13.000Z</time>
        <extensions>
          <ns3:TrackPointExtension>
            <ns3:hr>82</ns3:hr>
            <ns3:cad>46</ns3:cad>
          </ns3:TrackPointExtension>
        </extensions>
      </trkpt>
      <trkpt lat="37.9397129081189632415771484375" lon="-107.15197990648448467254638671875">
        <ele>3415.800048828125</ele>
        <time>2026-01-06T22:14:17.000Z</time>
        <extensions>
          <ns3:TrackPointExtension>
            <ns3:hr>81</ns3:hr>
            <ns3:cad>45</ns3:cad>
          </ns3:TrackPointExtension>
        </extensions>
      </trkpt>
      <trkpt lat="37.9396998323500156402587890625" lon="-107.15201946906745433807373046875">
        <ele>3415.60009765625</ele>
        <time>2026-01-06T22:14:20.000Z</time>
        <extensions>
          <ns3:TrackPointExtension>
            <ns3:hr>81</ns3:hr>
            <ns3:cad>51</ns3:cad>
          </ns3:TrackPointExtension>
        </extensions>
      </trkpt>
      <trkpt lat="37.93969103135168552398681640625" lon="-107.15207864530384540557861328125">
        <ele>3414.800048828125</ele>
        <time>2026-01-06T22:14:24.000Z</time>
        <extensions>
          <ns3:TrackPointExtension>
            <ns3:hr>81</ns3:hr>
            <ns3:cad>49</ns3:cad>
          </ns3:TrackPointExtension>
        </extensions>
      </trkpt>
      <trkpt lat="37.9396874271333217620849609375" lon="-107.1521276794373989105224609375">
        <ele>3414.199951171875</ele>
        <time>2026-01-06T22:14:27.000Z</time>
        <extensions>
          <ns3:TrackPointExtension>
            <ns3:hr>78</ns3:hr>
            <ns3:cad>51</ns3:cad>
          </ns3:TrackPointExtension>
        </extensions>
      </trkpt>
      <trkpt lat="37.9396800510585308074951171875" lon="-107.1522000990808010101318359375">
        <ele>3413.800048828125</ele>
        <time>2026-01-06T22:14:33.000Z</time>
        <extensions>
          <ns3:TrackPointExtension>
            <ns3:hr>77</ns3:hr>
            <ns3:cad>51</ns3:cad>
          </ns3:TrackPointExtension>
        </extensions>
      </trkpt>
      <trkpt lat="37.9396842420101165771484375" lon="-107.1522114984691143035888671875">
        <ele>3413.60009765625</ele>
        <time>2026-01-06T22:14:34.000Z</time>
        <extensions>
          <ns3:TrackPointExtension>
            <ns3:hr>77</ns3:hr>
            <ns3:cad>51</ns3:cad>
          </ns3:TrackPointExtension>
        </extensions>
      </trkpt>
      <trkpt lat="37.9396827332675457000732421875" lon="-107.15222331695258617401123046875">
        <ele>3413.39990234375</ele>
        <time>2026-01-06T22:14:35.000Z</time>
        <extensions>
          <ns3:TrackPointExtension>
            <ns3:hr>76</ns3:hr>
            <ns3:cad>51</ns3:cad>
          </ns3:TrackPointExtension>
        </extensions>
      </trkpt>
      <trkpt lat="37.93967711739242076873779296875" lon="-107.152256257832050323486328125">
        <ele>3412.800048828125</ele>
        <time>2026-01-06T22:14:38.000Z</time>
        <extensions>
          <ns3:TrackPointExtension>
            <ns3:hr>79</ns3:hr>
            <ns3:cad>50</ns3:cad>
          </ns3:TrackPointExtension>
        </extensions>
      </trkpt>
      <trkpt lat="37.93967845849692821502685546875" lon="-107.15226723812520503997802734375">
        <ele>3412.60009765625</ele>
        <time>2026-01-06T22:14:39.000Z</time>
        <extensions>
          <ns3:TrackPointExtension>
            <ns3:hr>80</ns3:hr>
            <ns3:cad>44</ns3:cad>
          </ns3:TrackPointExtension>
        </extensions>
      </trkpt>
      <trkpt lat="37.93968415819108486175537109375" lon="-107.15232557617127895355224609375">
        <ele>3412.199951171875</ele>
        <time>2026-01-06T22:14:44.000Z</time>
        <extensions>
          <ns3:TrackPointExtension>
            <ns3:hr>82</ns3:hr>
            <ns3:cad>0</ns3:cad>
          </ns3:TrackPointExtension>
        </extensions>
      </trkpt>
      <trkpt lat="37.9396891035139560699462890625" lon="-107.15242515318095684051513671875">
        <ele>3411.39990234375</ele>
        <time>2026-01-06T22:14:50.000Z</time>
        <extensions>
          <ns3:TrackPointExtension>
            <ns3:hr>83</ns3:hr>
            <ns3:cad>0</ns3:cad>
          </ns3:TrackPointExtension>
        </extensions>
      </trkpt>
      <trkpt lat="37.9397135786712169647216796875" lon="-107.1524944715201854705810546875">
        <ele>3410.39990234375</ele>
        <time>2026-01-06T22:14:55.000Z</time>
        <extensions>
          <ns3:TrackPointExtension>
            <ns3:hr>83</ns3:hr>
            <ns3:cad>51</ns3:cad>
          </ns3:TrackPointExtension>
        </extensions>
      </trkpt>
      <trkpt lat="37.93972020037472248077392578125" lon="-107.1525105647742748260498046875">
        <ele>3410</ele>
        <time>2026-01-06T22:14:57.000Z</time>
        <extensions>
          <ns3:TrackPointExtension>
            <ns3:hr>83</ns3:hr>
            <ns3:cad>51</ns3:cad>
          </ns3:TrackPointExtension>
        </extensions>
      </trkpt>
      <trkpt lat="37.9397360421717166900634765625" lon="-107.15255557559430599212646484375">
        <ele>3409.800048828125</ele>
        <time>2026-01-06T22:15:01.000Z</time>
        <extensions>
          <ns3:TrackPointExtension>
            <ns3:hr>83</ns3:hr>
            <ns3:cad>51</ns3:cad>
          </ns3:TrackPointExtension>
        </extensions>
      </trkpt>
      <trkpt lat="37.939754985272884368896484375" lon="-107.15257619507610797882080078125">
        <ele>3409.199951171875</ele>
        <time>2026-01-06T22:15:04.000Z</time>
        <extensions>
          <ns3:TrackPointExtension>
            <ns3:hr>83</ns3:hr>
            <ns3:cad>51</ns3:cad>
          </ns3:TrackPointExtension>
        </extensions>
      </trkpt>
      <trkpt lat="37.93977719731628894805908203125" lon="-107.15261357836425304412841796875">
        <ele>3408.199951171875</ele>
        <time>2026-01-06T22:15:09.000Z</time>
        <extensions>
          <ns3:TrackPointExtension>
            <ns3:hr>83</ns3:hr>
            <ns3:cad>0</ns3:cad>
          </ns3:TrackPointExtension>
        </extensions>
      </trkpt>
      <trkpt lat="37.93978792615234851837158203125" lon="-107.15263746678829193115234375">
        <ele>3407.39990234375</ele>
        <time>2026-01-06T22:15:11.000Z</time>
        <extensions>
          <ns3:TrackPointExtension>
            <ns3:hr>83</ns3:hr>
            <ns3:cad>0</ns3:cad>
          </ns3:TrackPointExtension>
        </extensions>
      </trkpt>
      <trkpt lat="37.93979161418974399566650390625" lon="-107.15264894999563694000244140625">
        <ele>3407.199951171875</ele>
        <time>2026-01-06T22:15:12.000Z</time>
        <extensions>
          <ns3:TrackPointExtension>
            <ns3:hr>84</ns3:hr>
            <ns3:cad>0</ns3:cad>
          </ns3:TrackPointExtension>
        </extensions>
      </trkpt>
      <trkpt lat="37.93979890644550323486328125" lon="-107.152703516185283660888671875">
        <ele>3406</ele>
        <time>2026-01-06T22:15:16.000Z</time>
        <extensions>
          <ns3:TrackPointExtension>
            <ns3:hr>86</ns3:hr>
            <ns3:cad>53</ns3:cad>
          </ns3:TrackPointExtension>
        </extensions>
      </trkpt>
      <trkpt lat="37.939799241721630096435546875" lon="-107.15272639878094196319580078125">
        <ele>3405.60009765625</ele>
        <time>2026-01-06T22:15:18.000Z</time>
        <extensions>
          <ns3:TrackPointExtension>
            <ns3:hr>90</ns3:hr>
            <ns3:cad>54</ns3:cad>
          </ns3:TrackPointExtension>
        </extensions>
      </trkpt>
      <trkpt lat="37.93979949317872524261474609375" lon="-107.15274970047175884246826171875">
        <ele>3405.199951171875</ele>
        <time>2026-01-06T22:15:20.000Z</time>
        <extensions>
          <ns3:TrackPointExtension>
            <ns3:hr>93</ns3:hr>
            <ns3:cad>53</ns3:cad>
          </ns3:TrackPointExtension>
        </extensions>
      </trkpt>
      <trkpt lat="37.93979664333164691925048828125" lon="-107.15277769602835178375244140625">
        <ele>3405</ele>
        <time>2026-01-06T22:15:22.000Z</time>
        <extensions>
          <ns3:TrackPointExtension>
            <ns3:hr>94</ns3:hr>
            <ns3:cad>53</ns3:cad>
          </ns3:TrackPointExtension>
        </extensions>
      </trkpt>
      <trkpt lat="37.93978943489491939544677734375" lon="-107.1528354473412036895751953125">
        <ele>3404.39990234375</ele>
        <time>2026-01-06T22:15:26.000Z</time>
        <extensions>
          <ns3:TrackPointExtension>
            <ns3:hr>97</ns3:hr>
            <ns3:cad>51</ns3:cad>
          </ns3:TrackPointExtension>
        </extensions>
      </trkpt>
      <trkpt lat="37.9397888481616973876953125" lon="-107.15284810401499271392822265625">
        <ele>3404</ele>
        <time>2026-01-06T22:15:27.000Z</time>
        <extensions>
          <ns3:TrackPointExtension>
            <ns3:hr>96</ns3:hr>
            <ns3:cad>52</ns3:cad>
          </ns3:TrackPointExtension>
        </extensions>
      </trkpt>
      <trkpt lat="37.93979161418974399566650390625" lon="-107.15285950340330600738525390625">
        <ele>3403.60009765625</ele>
        <time>2026-01-06T22:15:28.000Z</time>
        <extensions>
          <ns3:TrackPointExtension>
            <ns3:hr>96</ns3:hr>
            <ns3:cad>53</ns3:cad>
          </ns3:TrackPointExtension>
        </extensions>
      </trkpt>
      <trkpt lat="37.93978256173431873321533203125" lon="-107.152938880026340484619140625">
        <ele>3402.800048828125</ele>
        <time>2026-01-06T22:15:34.000Z</time>
        <extensions>
          <ns3:TrackPointExtension>
            <ns3:hr>96</ns3:hr>
            <ns3:cad>57</ns3:cad>
          </ns3:TrackPointExtension>
        </extensions>
      </trkpt>
      <trkpt lat="37.9397809691727161407470703125" lon="-107.15295203961431980133056640625">
        <ele>3402.60009765625</ele>
        <time>2026-01-06T22:15:35.000Z</time>
        <extensions>
          <ns3:TrackPointExtension>
            <ns3:hr>96</ns3:hr>
            <ns3:cad>57</ns3:cad>
          </ns3:TrackPointExtension>
        </extensions>
      </trkpt>
      <trkpt lat="37.939765043556690216064453125" lon="-107.15301104821264743804931640625">
        <ele>3401.39990234375</ele>
        <time>2026-01-06T22:15:40.000Z</time>
        <extensions>
          <ns3:TrackPointExtension>
            <ns3:hr>97</ns3:hr>
            <ns3:cad>0</ns3:cad>
          </ns3:TrackPointExtension>
        </extensions>
      </trkpt>
      <trkpt lat="37.93976462446153163909912109375" lon="-107.15302647091448307037353515625">
        <ele>3401.199951171875</ele>
        <time>2026-01-06T22:15:41.000Z</time>
        <extensions>
          <ns3:TrackPointExtension>
            <ns3:hr>97</ns3:hr>
            <ns3:cad>0</ns3:cad>
          </ns3:TrackPointExtension>
        </extensions>
      </trkpt>
      <trkpt lat="37.9397608526051044464111328125" lon="-107.1530875749886035919189453125">
        <ele>3400.199951171875</ele>
        <time>2026-01-06T22:15:46.000Z</time>
        <extensions>
          <ns3:TrackPointExtension>
            <ns3:hr>96</ns3:hr>
            <ns3:cad>57</ns3:cad>
          </ns3:TrackPointExtension>
        </extensions>
      </trkpt>
      <trkpt lat="37.939764373004436492919921875" lon="-107.1531130559742450714111328125">
        <ele>3399.800048828125</ele>
        <time>2026-01-06T22:15:48.000Z</time>
        <extensions>
          <ns3:TrackPointExtension>
            <ns3:hr>95</ns3:hr>
            <ns3:cad>57</ns3:cad>
          </ns3:TrackPointExtension>
        </extensions>
      </trkpt>
      <trkpt lat="37.93976780958473682403564453125" lon="-107.15316041372716426849365234375">
        <ele>3399.199951171875</ele>
        <time>2026-01-06T22:15:51.000Z</time>
        <extensions>
          <ns3:TrackPointExtension>
            <ns3:hr>94</ns3:hr>
            <ns3:cad>55</ns3:cad>
          </ns3:TrackPointExtension>
        </extensions>
      </trkpt>
      <trkpt lat="37.93977233581244945526123046875" lon="-107.15321221388876438140869140625">
        <ele>3398.60009765625</ele>
        <time>2026-01-06T22:15:55.000Z</time>
        <extensions>
          <ns3:TrackPointExtension>
            <ns3:hr>94</ns3:hr>
            <ns3:cad>53</ns3:cad>
          </ns3:TrackPointExtension>
        </extensions>
      </trkpt>
      <trkpt lat="37.93976244516670703887939453125" lon="-107.153260074555873870849609375">
        <ele>3398.199951171875</ele>
        <time>2026-01-06T22:15:58.000Z</time>
        <extensions>
          <ns3:TrackPointExtension>
            <ns3:hr>94</ns3:hr>
            <ns3:cad>51</ns3:cad>
          </ns3:TrackPointExtension>
        </extensions>
      </trkpt>
      <trkpt lat="37.93975104577839374542236328125" lon="-107.1533105336129665374755859375">
        <ele>3397.60009765625</ele>
        <time>2026-01-06T22:16:02.000Z</time>
        <extensions>
          <ns3:TrackPointExtension>
            <ns3:hr>95</ns3:hr>
            <ns3:cad>53</ns3:cad>
          </ns3:TrackPointExtension>
        </extensions>
      </trkpt>
      <trkpt lat="37.93974392116069793701171875" lon="-107.15335789136588573455810546875">
        <ele>3397.199951171875</ele>
        <time>2026-01-06T22:16:05.000Z</time>
        <extensions>
          <ns3:TrackPointExtension>
            <ns3:hr>94</ns3:hr>
            <ns3:cad>55</ns3:cad>
          </ns3:TrackPointExtension>
        </extensions>
      </trkpt>
      <trkpt lat="37.93973629362881183624267578125" lon="-107.1534422971308231353759765625">
        <ele>3396.39990234375</ele>
        <time>2026-01-06T22:16:11.000Z</time>
        <extensions>
          <ns3:TrackPointExtension>
            <ns3:hr>93</ns3:hr>
            <ns3:cad>52</ns3:cad>
          </ns3:TrackPointExtension>
        </extensions>
      </trkpt>
      <trkpt lat="37.9397404007613658905029296875" lon="-107.15346752665936946868896484375">
        <ele>3396.199951171875</ele>
        <time>2026-01-06T22:16:13.000Z</time>
        <extensions>
          <ns3:TrackPointExtension>
            <ns3:hr>93</ns3:hr>
            <ns3:cad>52</ns3:cad>
          </ns3:TrackPointExtension>
        </extensions>
      </trkpt>
      <trkpt lat="37.93974618427455425262451171875" lon="-107.15352687053382396697998046875">
        <ele>3395.199951171875</ele>
        <time>2026-01-06T22:16:17.000Z</time>
        <extensions>
          <ns3:TrackPointExtension>
            <ns3:hr>94</ns3:hr>
            <ns3:cad>53</ns3:cad>
          </ns3:TrackPointExtension>
        </extensions>
      </trkpt>
      <trkpt lat="37.9397484473884105682373046875" lon="-107.15354179032146930694580078125">
        <ele>3395</ele>
        <time>2026-01-06T22:16:18.000Z</time>
        <extensions>
          <ns3:TrackPointExtension>
            <ns3:hr>94</ns3:hr>
            <ns3:cad>53</ns3:cad>
          </ns3:TrackPointExtension>
        </extensions>
      </trkpt>
      <trkpt lat="37.939747609198093414306640625" lon="-107.1535995416343212127685546875">
        <ele>3393.800048828125</ele>
        <time>2026-01-06T22:16:22.000Z</time>
        <extensions>
          <ns3:TrackPointExtension>
            <ns3:hr>94</ns3:hr>
            <ns3:cad>53</ns3:cad>
          </ns3:TrackPointExtension>
        </extensions>
      </trkpt>
      <trkpt lat="37.93975875712931156158447265625" lon="-107.15367036871612071990966796875">
        <ele>3393.199951171875</ele>
        <time>2026-01-06T22:16:27.000Z</time>
        <extensions>
          <ns3:TrackPointExtension>
            <ns3:hr>94</ns3:hr>
            <ns3:cad>54</ns3:cad>
          </ns3:TrackPointExtension>
        </extensions>
      </trkpt>
      <trkpt lat="37.93975573964416980743408203125" lon="-107.153728790581226348876953125">
        <ele>3392.800048828125</ele>
        <time>2026-01-06T22:16:31.000Z</time>
        <extensions>
          <ns3:TrackPointExtension>
            <ns3:hr>95</ns3:hr>
            <ns3:cad>55</ns3:cad>
          </ns3:TrackPointExtension>
        </extensions>
      </trkpt>
      <trkpt lat="37.939757667481899261474609375" lon="-107.15377078391611576080322265625">
        <ele>3392.199951171875</ele>
        <time>2026-01-06T22:16:34.000Z</time>
        <extensions>
          <ns3:TrackPointExtension>
            <ns3:hr>94</ns3:hr>
            <ns3:cad>55</ns3:cad>
          </ns3:TrackPointExtension>
        </extensions>
      </trkpt>
      <trkpt lat="37.9397642053663730621337890625" lon="-107.1538157947361469268798828125">
        <ele>3391.60009765625</ele>
        <time>2026-01-06T22:16:37.000Z</time>
        <extensions>
          <ns3:TrackPointExtension>
            <ns3:hr>95</ns3:hr>
            <ns3:cad>55</ns3:cad>
          </ns3:TrackPointExtension>
        </extensions>
      </trkpt>
      <trkpt lat="37.93977149762213230133056640625" lon="-107.153897769749164581298828125">
        <ele>3390.800048828125</ele>
        <time>2026-01-06T22:16:43.000Z</time>
        <extensions>
          <ns3:TrackPointExtension>
            <ns3:hr>95</ns3:hr>
            <ns3:cad>55</ns3:cad>
          </ns3:TrackPointExtension>
        </extensions>
      </trkpt>
      <trkpt lat="37.93977920897305011749267578125" lon="-107.15393993072211742401123046875">
        <ele>3390.60009765625</ele>
        <time>2026-01-06T22:16:46.000Z</time>
        <extensions>
          <ns3:TrackPointExtension>
            <ns3:hr>95</ns3:hr>
            <ns3:cad>55</ns3:cad>
          </ns3:TrackPointExtension>
        </extensions>
      </trkpt>
      <trkpt lat="37.939777784049510955810546875" lon="-107.154017798602581024169921875">
        <ele>3390</ele>
        <time>2026-01-06T22:16:51.000Z</time>
        <extensions>
          <ns3:TrackPointExtension>
            <ns3:hr>97</ns3:hr>
            <ns3:cad>53</ns3:cad>
          </ns3:TrackPointExtension>
        </extensions>
      </trkpt>
      <trkpt lat="37.9397759400308132171630859375" lon="-107.15404386632144451141357421875">
        <ele>3389.39990234375</ele>
        <time>2026-01-06T22:16:53.000Z</time>
        <extensions>
          <ns3:TrackPointExtension>
            <ns3:hr>97</ns3:hr>
            <ns3:cad>53</ns3:cad>
          </ns3:TrackPointExtension>
        </extensions>
      </trkpt>
      <trkpt lat="37.939777113497257232666015625" lon="-107.15409181080758571624755859375">
        <ele>3388.39990234375</ele>
        <time>2026-01-06T22:16:56.000Z</time>
        <extensions>
          <ns3:TrackPointExtension>
            <ns3:hr>96</ns3:hr>
            <ns3:cad>52</ns3:cad>
          </ns3:TrackPointExtension>
        </extensions>
      </trkpt>
      <trkpt lat="37.93977786786854267120361328125" lon="-107.15410890989005565643310546875">
        <ele>3388.199951171875</ele>
        <time>2026-01-06T22:16:57.000Z</time>
        <extensions>
          <ns3:TrackPointExtension>
            <ns3:hr>97</ns3:hr>
            <ns3:cad>52</ns3:cad>
          </ns3:TrackPointExtension>
        </extensions>
      </trkpt>
      <trkpt lat="37.9397781193256378173828125" lon="-107.1541790664196014404296875">
        <ele>3387.39990234375</ele>
        <time>2026-01-06T22:17:02.000Z</time>
        <extensions>
          <ns3:TrackPointExtension>
            <ns3:hr>97</ns3:hr>
            <ns3:cad>51</ns3:cad>
          </ns3:TrackPointExtension>
        </extensions>
      </trkpt>
      <trkpt lat="37.93977853842079639434814453125" lon="-107.1542472951114177703857421875">
        <ele>3386.199951171875</ele>
        <time>2026-01-06T22:17:07.000Z</time>
        <extensions>
          <ns3:TrackPointExtension>
            <ns3:hr>97</ns3:hr>
            <ns3:cad>51</ns3:cad>
          </ns3:TrackPointExtension>
        </extensions>
      </trkpt>
      <trkpt lat="37.93977342545986175537109375" lon="-107.1543324552476406097412109375">
        <ele>3385.39990234375</ele>
        <time>2026-01-06T22:17:13.000Z</time>
        <extensions>
          <ns3:TrackPointExtension>
            <ns3:hr>95</ns3:hr>
            <ns3:cad>52</ns3:cad>
          </ns3:TrackPointExtension>
        </extensions>
      </trkpt>
      <trkpt lat="37.939772419631481170654296875" lon="-107.15434863232076168060302734375">
        <ele>3385.199951171875</ele>
        <time>2026-01-06T22:17:14.000Z</time>
        <extensions>
          <ns3:TrackPointExtension>
            <ns3:hr>94</ns3:hr>
            <ns3:cad>52</ns3:cad>
          </ns3:TrackPointExtension>
        </extensions>
      </trkpt>
      <trkpt lat="37.9397695697844028472900390625" lon="-107.1543614566326141357421875">
        <ele>3385</ele>
        <time>2026-01-06T22:17:15.000Z</time>
        <extensions>
          <ns3:TrackPointExtension>
            <ns3:hr>94</ns3:hr>
            <ns3:cad>55</ns3:cad>
          </ns3:TrackPointExtension>
        </extensions>
      </trkpt>
      <trkpt lat="37.939762361347675323486328125" lon="-107.1544119156897068023681640625">
        <ele>3384</ele>
        <time>2026-01-06T22:17:18.000Z</time>
        <extensions>
          <ns3:TrackPointExtension>
            <ns3:hr>94</ns3:hr>
            <ns3:cad>55</ns3:cad>
          </ns3:TrackPointExtension>
        </extensions>
      </trkpt>
      <trkpt lat="37.93977384455502033233642578125" lon="-107.15448374859988689422607421875">
        <ele>3383.39990234375</ele>
        <time>2026-01-06T22:17:22.000Z</time>
        <extensions>
          <ns3:TrackPointExtension>
            <ns3:hr>95</ns3:hr>
            <ns3:cad>53</ns3:cad>
          </ns3:TrackPointExtension>
        </extensions>
      </trkpt>
      <trkpt lat="37.9397870041429996490478515625" lon="-107.15452666394412517547607421875">
        <ele>3383</ele>
        <time>2026-01-06T22:17:25.000Z</time>
        <extensions>
          <ns3:TrackPointExtension>
            <ns3:hr>96</ns3:hr>
            <ns3:cad>53</ns3:cad>
          </ns3:TrackPointExtension>
        </extensions>
      </trkpt>
      <trkpt lat="37.93980452232062816619873046875" lon="-107.154587768018245697021484375">
        <ele>3382.199951171875</ele>
        <time>2026-01-06T22:17:29.000Z</time>
        <extensions>
          <ns3:TrackPointExtension>
            <ns3:hr>96</ns3:hr>
            <ns3:cad>53</ns3:cad>
          </ns3:TrackPointExtension>
        </extensions>
      </trkpt>
      <trkpt lat="37.939804606139659881591796875" lon="-107.154600508511066436767578125">
        <ele>3381.800048828125</ele>
        <time>2026-01-06T22:17:30.000Z</time>
        <extensions>
          <ns3:TrackPointExtension>
            <ns3:hr>96</ns3:hr>
            <ns3:cad>55</ns3:cad>
          </ns3:TrackPointExtension>
        </extensions>
      </trkpt>
      <trkpt lat="37.93978876434266567230224609375" lon="-107.15467770583927631378173828125">
        <ele>3381.199951171875</ele>
        <time>2026-01-06T22:17:36.000Z</time>
        <extensions>
          <ns3:TrackPointExtension>
            <ns3:hr>96</ns3:hr>
            <ns3:cad>55</ns3:cad>
          </ns3:TrackPointExtension>
        </extensions>
      </trkpt>
      <trkpt lat="37.939822375774383544921875" lon="-107.1547545678913593292236328125">
        <ele>3380.60009765625</ele>
        <time>2026-01-06T22:17:41.000Z</time>
        <extensions>
          <ns3:TrackPointExtension>
            <ns3:hr>95</ns3:hr>
            <ns3:cad>53</ns3:cad>
          </ns3:TrackPointExtension>
        </extensions>
      </trkpt>
      <trkpt lat="37.93983000330626964569091796875" lon="-107.15476940385997295379638671875">
        <ele>3380.39990234375</ele>
        <time>2026-01-06T22:17:42.000Z</time>
        <extensions>
          <ns3:TrackPointExtension>
            <ns3:hr>95</ns3:hr>
            <ns3:cad>52</ns3:cad>
          </ns3:TrackPointExtension>
        </extensions>
      </trkpt>
      <trkpt lat="37.9398746788501739501953125" lon="-107.15484199114143848419189453125">
        <ele>3379.60009765625</ele>
        <time>2026-01-06T22:17:48.000Z</time>
        <extensions>
          <ns3:TrackPointExtension>
            <ns3:hr>93</ns3:hr>
            <ns3:cad>51</ns3:cad>
          </ns3:TrackPointExtension>
        </extensions>
      </trkpt>
      <trkpt lat="37.939901836216449737548828125" lon="-107.15492178685963153839111328125">
        <ele>3378.800048828125</ele>
        <time>2026-01-06T22:17:54.000Z</time>
        <extensions>
          <ns3:TrackPointExtension>
            <ns3:hr>93</ns3:hr>
            <ns3:cad>52</ns3:cad>
          </ns3:TrackPointExtension>
        </extensions>
      </trkpt>
      <trkpt lat="37.9399043507874011993408203125" lon="-107.1549336053431034088134765625">
        <ele>3378.60009765625</ele>
        <time>2026-01-06T22:17:55.000Z</time>
        <extensions>
          <ns3:TrackPointExtension>
            <ns3:hr>93</ns3:hr>
            <ns3:cad>52</ns3:cad>
          </ns3:TrackPointExtension>
        </extensions>
      </trkpt>
      <trkpt lat="37.93991499580442905426025390625" lon="-107.15498364530503749847412109375">
        <ele>3378.60009765625</ele>
        <time>2026-01-06T22:17:58.000Z</time>
        <extensions>
          <ns3:TrackPointExtension>
            <ns3:hr>93</ns3:hr>
            <ns3:cad>53</ns3:cad>
          </ns3:TrackPointExtension>
        </extensions>
      </trkpt>
      <trkpt lat="37.93992673046886920928955078125" lon="-107.15502924285829067230224609375">
        <ele>3378.199951171875</ele>
        <time>2026-01-06T22:18:01.000Z</time>
        <extensions>
          <ns3:TrackPointExtension>
            <ns3:hr>93</ns3:hr>
            <ns3:cad>53</ns3:cad>
          </ns3:TrackPointExtension>
        </extensions>
      </trkpt>
      <trkpt lat="37.9399605095386505126953125" lon="-107.15511046350002288818359375">
        <ele>3377.39990234375</ele>
        <time>2026-01-06T22:18:07.000Z</time>
        <extensions>
          <ns3:TrackPointExtension>
            <ns3:hr>93</ns3:hr>
            <ns3:cad>52</ns3:cad>
          </ns3:TrackPointExtension>
        </extensions>
      </trkpt>
      <trkpt lat="37.93999579735100269317626953125" lon="-107.15519637800753116607666015625">
        <ele>3376.800048828125</ele>
        <time>2026-01-06T22:18:13.000Z</time>
        <extensions>
          <ns3:TrackPointExtension>
            <ns3:hr>93</ns3:hr>
            <ns3:cad>52</ns3:cad>
          </ns3:TrackPointExtension>
        </extensions>
      </trkpt>
      <trkpt lat="37.94001557864248752593994140625" lon="-107.155241556465625762939453125">
        <ele>3376.39990234375</ele>
        <time>2026-01-06T22:18:16.000Z</time>
        <extensions>
          <ns3:TrackPointExtension>
            <ns3:hr>94</ns3:hr>
            <ns3:cad>17</ns3:cad>
          </ns3:TrackPointExtension>
        </extensions>
      </trkpt>
      <trkpt lat="37.94002798385918140411376953125" lon="-107.15526192449033260345458984375">
        <ele>3376.199951171875</ele>
        <time>2026-01-06T22:18:18.000Z</time>
        <extensions>
          <ns3:TrackPointExtension>
            <ns3:hr>95</ns3:hr>
            <ns3:cad>17</ns3:cad>
          </ns3:TrackPointExtension>
        </extensions>
      </trkpt>
      <trkpt lat="37.94005128554999828338623046875" lon="-107.15535261668264865875244140625">
        <ele>3375.800048828125</ele>
        <time>2026-01-06T22:18:23.000Z</time>
        <extensions>
          <ns3:TrackPointExtension>
            <ns3:hr>95</ns3:hr>
            <ns3:cad>52</ns3:cad>
          </ns3:TrackPointExtension>
        </extensions>
      </trkpt>
      <trkpt lat="37.94006234966218471527099609375" lon="-107.1553875692188739776611328125">
        <ele>3375.39990234375</ele>
        <time>2026-01-06T22:18:25.000Z</time>
        <extensions>
          <ns3:TrackPointExtension>
            <ns3:hr>96</ns3:hr>
            <ns3:cad>52</ns3:cad>
          </ns3:TrackPointExtension>
        </extensions>
      </trkpt>
      <trkpt lat="37.94010409153997898101806640625" lon="-107.15545671992003917694091796875">
        <ele>3374.199951171875</ele>
        <time>2026-01-06T22:18:30.000Z</time>
        <extensions>
          <ns3:TrackPointExtension>
            <ns3:hr>96</ns3:hr>
            <ns3:cad>54</ns3:cad>
          </ns3:TrackPointExtension>
        </extensions>
      </trkpt>
      <trkpt lat="37.940125130116939544677734375" lon="-107.1555397845804691314697265625">
        <ele>3374.199951171875</ele>
        <time>2026-01-06T22:18:36.000Z</time>
        <extensions>
          <ns3:TrackPointExtension>
            <ns3:hr>95</ns3:hr>
            <ns3:cad>53</ns3:cad>
          </ns3:TrackPointExtension>
        </extensions>
      </trkpt>
      <trkpt lat="37.94012286700308322906494140625" lon="-107.15555411763489246368408203125">
        <ele>3373.800048828125</ele>
        <time>2026-01-06T22:18:37.000Z</time>
        <extensions>
          <ns3:TrackPointExtension>
            <ns3:hr>95</ns3:hr>
            <ns3:cad>53</ns3:cad>
          </ns3:TrackPointExtension>
        </extensions>
      </trkpt>
      <trkpt lat="37.94012186117470264434814453125" lon="-107.15558211319148540496826171875">
        <ele>3373.199951171875</ele>
        <time>2026-01-06T22:18:39.000Z</time>
        <extensions>
          <ns3:TrackPointExtension>
            <ns3:hr>94</ns3:hr>
            <ns3:cad>51</ns3:cad>
          </ns3:TrackPointExtension>
        </extensions>
      </trkpt>
      <trkpt lat="37.9401363618671894073486328125" lon="-107.155637852847576141357421875">
        <ele>3372.39990234375</ele>
        <time>2026-01-06T22:18:43.000Z</time>
        <extensions>
          <ns3:TrackPointExtension>
            <ns3:hr>94</ns3:hr>
            <ns3:cad>54</ns3:cad>
          </ns3:TrackPointExtension>
        </extensions>
      </trkpt>
      <trkpt lat="37.940146923065185546875" lon="-107.15567364357411861419677734375">
        <ele>3372.199951171875</ele>
        <time>2026-01-06T22:18:45.000Z</time>
        <extensions>
          <ns3:TrackPointExtension>
            <ns3:hr>95</ns3:hr>
            <ns3:cad>53</ns3:cad>
          </ns3:TrackPointExtension>
        </extensions>
      </trkpt>
      <trkpt lat="37.94017416425049304962158203125" lon="-107.15574773959815502166748046875">
        <ele>3371</ele>
        <time>2026-01-06T22:18:50.000Z</time>
        <extensions>
          <ns3:TrackPointExtension>
            <ns3:hr>95</ns3:hr>
            <ns3:cad>55</ns3:cad>
          </ns3:TrackPointExtension>
        </extensions>
      </trkpt>
      <trkpt lat="37.94018288142979145050048828125" lon="-107.1557815186679363250732421875">
        <ele>3370.800048828125</ele>
        <time>2026-01-06T22:18:52.000Z</time>
        <extensions>
          <ns3:TrackPointExtension>
            <ns3:hr>96</ns3:hr>
            <ns3:cad>0</ns3:cad>
          </ns3:TrackPointExtension>
        </extensions>
      </trkpt>
      <trkpt lat="37.94020014815032482147216796875" lon="-107.155837006866931915283203125">
        <ele>3370</ele>
        <time>2026-01-06T22:18:56.000Z</time>
        <extensions>
          <ns3:TrackPointExtension>
            <ns3:hr>96</ns3:hr>
            <ns3:cad>51</ns3:cad>
          </ns3:TrackPointExtension>
        </extensions>
      </trkpt>
      <trkpt lat="37.94020517729222774505615234375" lon="-107.15586340986192226409912109375">
        <ele>3369.60009765625</ele>
        <time>2026-01-06T22:18:58.000Z</time>
        <extensions>
          <ns3:TrackPointExtension>
            <ns3:hr>96</ns3:hr>
            <ns3:cad>53</ns3:cad>
          </ns3:TrackPointExtension>
        </extensions>
      </trkpt>
      <trkpt lat="37.94021355919539928436279296875" lon="-107.1559515036642551422119140625">
        <ele>3369</ele>
        <time>2026-01-06T22:19:04.000Z</time>
        <extensions>
          <ns3:TrackPointExtension>
            <ns3:hr>96</ns3:hr>
            <ns3:cad>55</ns3:cad>
          </ns3:TrackPointExtension>
        </extensions>
      </trkpt>
      <trkpt lat="37.94020836241543292999267578125" lon="-107.15596650727093219757080078125">
        <ele>3368.800048828125</ele>
        <time>2026-01-06T22:19:05.000Z</time>
        <extensions>
          <ns3:TrackPointExtension>
            <ns3:hr>96</ns3:hr>
            <ns3:cad>55</ns3:cad>
          </ns3:TrackPointExtension>
        </extensions>
      </trkpt>
      <trkpt lat="37.9402060993015766143798828125" lon="-107.15598159469664096832275390625">
        <ele>3368.39990234375</ele>
        <time>2026-01-06T22:19:06.000Z</time>
        <extensions>
          <ns3:TrackPointExtension>
            <ns3:hr>97</ns3:hr>
            <ns3:cad>55</ns3:cad>
          </ns3:TrackPointExtension>
        </extensions>
      </trkpt>
      <trkpt lat="37.94019578956067562103271484375" lon="-107.1560410223901271820068359375">
        <ele>3367.60009765625</ele>
        <time>2026-01-06T22:19:10.000Z</time>
        <extensions>
          <ns3:TrackPointExtension>
            <ns3:hr>96</ns3:hr>
            <ns3:cad>55</ns3:cad>
          </ns3:TrackPointExtension>
        </extensions>
      </trkpt>
      <trkpt lat="37.94019327498972415924072265625" lon="-107.1561305411159992218017578125">
        <ele>3366.800048828125</ele>
        <time>2026-01-06T22:19:15.000Z</time>
        <extensions>
          <ns3:TrackPointExtension>
            <ns3:hr>97</ns3:hr>
            <ns3:cad>52</ns3:cad>
          </ns3:TrackPointExtension>
        </extensions>
      </trkpt>
      <trkpt lat="37.9402030818164348602294921875" lon="-107.15616549365222454071044921875">
        <ele>3366.39990234375</ele>
        <time>2026-01-06T22:19:17.000Z</time>
        <extensions>
          <ns3:TrackPointExtension>
            <ns3:hr>96</ns3:hr>
            <ns3:cad>56</ns3:cad>
          </ns3:TrackPointExtension>
        </extensions>
      </trkpt>
      <trkpt lat="37.94020920060575008392333984375" lon="-107.15621176175773143768310546875">
        <ele>3365.199951171875</ele>
        <time>2026-01-06T22:19:20.000Z</time>
        <extensions>
          <ns3:TrackPointExtension>
            <ns3:hr>96</ns3:hr>
            <ns3:cad>56</ns3:cad>
          </ns3:TrackPointExtension>
        </extensions>
      </trkpt>
      <trkpt lat="37.94019394554197788238525390625" lon="-107.156250737607479095458984375">
        <ele>3364.60009765625</ele>
        <time>2026-01-06T22:19:23.000Z</time>
        <extensions>
          <ns3:TrackPointExtension>
            <ns3:hr>96</ns3:hr>
            <ns3:cad>56</ns3:cad>
          </ns3:TrackPointExtension>
        </extensions>
      </trkpt>
      <trkpt lat="37.94012923724949359893798828125" lon="-107.15630915947258472442626953125">
        <ele>3364.199951171875</ele>
        <time>2026-01-06T22:19:29.000Z</time>
        <extensions>
          <ns3:TrackPointExtension>
            <ns3:hr>97</ns3:hr>
            <ns3:cad>54</ns3:cad>
          </ns3:TrackPointExtension>
        </extensions>
      </trkpt>
      <trkpt lat="37.940098978579044342041015625" lon="-107.15639599598944187164306640625">
        <ele>3363.800048828125</ele>
        <time>2026-01-06T22:19:35.000Z</time>
        <extensions>
          <ns3:TrackPointExtension>
            <ns3:hr>96</ns3:hr>
            <ns3:cad>57</ns3:cad>
          </ns3:TrackPointExtension>
        </extensions>
      </trkpt>
      <trkpt lat="37.94009529054164886474609375" lon="-107.15641091577708721160888671875">
        <ele>3363.800048828125</ele>
        <time>2026-01-06T22:19:36.000Z</time>
        <extensions>
          <ns3:TrackPointExtension>
            <ns3:hr>97</ns3:hr>
            <ns3:cad>57</ns3:cad>
          </ns3:TrackPointExtension>
        </extensions>
      </trkpt>
      <trkpt lat="37.9400838911533355712890625" lon="-107.156483419239521026611328125">
        <ele>3363</ele>
        <time>2026-01-06T22:19:41.000Z</time>
        <extensions>
          <ns3:TrackPointExtension>
            <ns3:hr>96</ns3:hr>
            <ns3:cad>54</ns3:cad>
          </ns3:TrackPointExtension>
        </extensions>
      </trkpt>
      <trkpt lat="37.94008129276335239410400390625" lon="-107.15652910061180591583251953125">
        <ele>3362.39990234375</ele>
        <time>2026-01-06T22:19:44.000Z</time>
        <extensions>
          <ns3:TrackPointExtension>
            <ns3:hr>95</ns3:hr>
            <ns3:cad>54</ns3:cad>
          </ns3:TrackPointExtension>
        </extensions>
      </trkpt>
      <trkpt lat="37.94008464552462100982666015625" lon="-107.15654276311397552490234375">
        <ele>3362</ele>
        <time>2026-01-06T22:19:45.000Z</time>
        <extensions>
          <ns3:TrackPointExtension>
            <ns3:hr>95</ns3:hr>
            <ns3:cad>54</ns3:cad>
          </ns3:TrackPointExtension>
        </extensions>
      </trkpt>
      <trkpt lat="37.94009285978972911834716796875" lon="-107.1566073037683963775634765625">
        <ele>3360.800048828125</ele>
        <time>2026-01-06T22:19:49.000Z</time>
        <extensions>
          <ns3:TrackPointExtension>
            <ns3:hr>94</ns3:hr>
            <ns3:cad>55</ns3:cad>
          </ns3:TrackPointExtension>
        </extensions>
      </trkpt>
      <trkpt lat="37.9400917701423168182373046875" lon="-107.15663395822048187255859375">
        <ele>3360.39990234375</ele>
        <time>2026-01-06T22:19:51.000Z</time>
        <extensions>
          <ns3:TrackPointExtension>
            <ns3:hr>95</ns3:hr>
            <ns3:cad>55</ns3:cad>
          </ns3:TrackPointExtension>
        </extensions>
      </trkpt>
      <trkpt lat="37.9400837235152721405029296875" lon="-107.15670947916805744171142578125">
        <ele>3359.800048828125</ele>
        <time>2026-01-06T22:19:57.000Z</time>
        <extensions>
          <ns3:TrackPointExtension>
            <ns3:hr>93</ns3:hr>
            <ns3:cad>0</ns3:cad>
          </ns3:TrackPointExtension>
        </extensions>
      </trkpt>
      <trkpt lat="37.940082885324954986572265625" lon="-107.15672322548925876617431640625">
        <ele>3359.60009765625</ele>
        <time>2026-01-06T22:19:58.000Z</time>
        <extensions>
          <ns3:TrackPointExtension>
            <ns3:hr>93</ns3:hr>
            <ns3:cad>0</ns3:cad>
          </ns3:TrackPointExtension>
        </extensions>
      </trkpt>
      <trkpt lat="37.94008783064782619476318359375" lon="-107.15678022243082523345947265625">
        <ele>3358.800048828125</ele>
        <time>2026-01-06T22:20:04.000Z</time>
        <extensions>
          <ns3:TrackPointExtension>
            <ns3:hr>92</ns3:hr>
            <ns3:cad>47</ns3:cad>
          </ns3:TrackPointExtension>
        </extensions>
      </trkpt>
      <trkpt lat="37.94008724391460418701171875" lon="-107.1567937172949314117431640625">
        <ele>3358.39990234375</ele>
        <time>2026-01-06T22:20:05.000Z</time>
        <extensions>
          <ns3:TrackPointExtension>
            <ns3:hr>93</ns3:hr>
            <ns3:cad>47</ns3:cad>
          </ns3:TrackPointExtension>
        </extensions>
      </trkpt>
      <trkpt lat="37.94008724391460418701171875" lon="-107.1568031050264835357666015625">
        <ele>3358</ele>
        <time>2026-01-06T22:20:06.000Z</time>
        <extensions>
          <ns3:TrackPointExtension>
            <ns3:hr>92</ns3:hr>
            <ns3:cad>47</ns3:cad>
          </ns3:TrackPointExtension>
        </extensions>
      </trkpt>
      <trkpt lat="37.940084896981716156005859375" lon="-107.1568272449076175689697265625">
        <ele>3357.39990234375</ele>
        <time>2026-01-06T22:20:08.000Z</time>
        <extensions>
          <ns3:TrackPointExtension>
            <ns3:hr>93</ns3:hr>
            <ns3:cad>51</ns3:cad>
          </ns3:TrackPointExtension>
        </extensions>
      </trkpt>
      <trkpt lat="37.9400847293436527252197265625" lon="-107.15687091462314128875732421875">
        <ele>3356.199951171875</ele>
        <time>2026-01-06T22:20:12.000Z</time>
        <extensions>
          <ns3:TrackPointExtension>
            <ns3:hr>92</ns3:hr>
            <ns3:cad>51</ns3:cad>
          </ns3:TrackPointExtension>
        </extensions>
      </trkpt>
      <trkpt lat="37.94008456170558929443359375" lon="-107.15687694959342479705810546875">
        <ele>3356</ele>
        <time>2026-01-06T22:20:13.000Z</time>
        <extensions>
          <ns3:TrackPointExtension>
            <ns3:hr>91</ns3:hr>
            <ns3:cad>51</ns3:cad>
          </ns3:TrackPointExtension>
        </extensions>
      </trkpt>
      <trkpt lat="37.9400833882391452789306640625" lon="-107.15689974837005138397216796875">
        <ele>3355.60009765625</ele>
        <time>2026-01-06T22:20:15.000Z</time>
        <extensions>
          <ns3:TrackPointExtension>
            <ns3:hr>88</ns3:hr>
            <ns3:cad>51</ns3:cad>
          </ns3:TrackPointExtension>
        </extensions>
      </trkpt>
      <trkpt lat="37.940081544220447540283203125" lon="-107.1569335274398326873779296875">
        <ele>3355</ele>
        <time>2026-01-06T22:20:17.000Z</time>
        <extensions>
          <ns3:TrackPointExtension>
            <ns3:hr>87</ns3:hr>
            <ns3:cad>56</ns3:cad>
          </ns3:TrackPointExtension>
        </extensions>
      </trkpt>
      <trkpt lat="37.9400770179927349090576171875" lon="-107.15697862207889556884765625">
        <ele>3354.39990234375</ele>
        <time>2026-01-06T22:20:20.000Z</time>
        <extensions>
          <ns3:TrackPointExtension>
            <ns3:hr>86</ns3:hr>
            <ns3:cad>56</ns3:cad>
          </ns3:TrackPointExtension>
        </extensions>
      </trkpt>
      <trkpt lat="37.940077520906925201416015625" lon="-107.1570195257663726806640625">
        <ele>3354</ele>
        <time>2026-01-06T22:20:23.000Z</time>
        <extensions>
          <ns3:TrackPointExtension>
            <ns3:hr>86</ns3:hr>
            <ns3:cad>56</ns3:cad>
          </ns3:TrackPointExtension>
        </extensions>
      </trkpt>
      <trkpt lat="37.940076179802417755126953125" lon="-107.15710158459842205047607421875">
        <ele>3352.800048828125</ele>
        <time>2026-01-06T22:20:28.000Z</time>
        <extensions>
          <ns3:TrackPointExtension>
            <ns3:hr>85</ns3:hr>
            <ns3:cad>54</ns3:cad>
          </ns3:TrackPointExtension>
        </extensions>
      </trkpt>
      <trkpt lat="37.94008397497236728668212890625" lon="-107.15719495899975299835205078125">
        <ele>3352.39990234375</ele>
        <time>2026-01-06T22:20:34.000Z</time>
        <extensions>
          <ns3:TrackPointExtension>
            <ns3:hr>85</ns3:hr>
            <ns3:cad>54</ns3:cad>
          </ns3:TrackPointExtension>
        </extensions>
      </trkpt>
      <trkpt lat="37.94011867605149745941162109375" lon="-107.15722060762345790863037109375">
        <ele>3351.800048828125</ele>
        <time>2026-01-06T22:20:37.000Z</time>
        <extensions>
          <ns3:TrackPointExtension>
            <ns3:hr>85</ns3:hr>
            <ns3:cad>55</ns3:cad>
          </ns3:TrackPointExtension>
        </extensions>
      </trkpt>
      <trkpt lat="37.94013082981109619140625" lon="-107.1572211943566799163818359375">
        <ele>3351.60009765625</ele>
        <time>2026-01-06T22:20:38.000Z</time>
        <extensions>
          <ns3:TrackPointExtension>
            <ns3:hr>86</ns3:hr>
            <ns3:cad>55</ns3:cad>
          </ns3:TrackPointExtension>
        </extensions>
      </trkpt>
      <trkpt lat="37.94014734216034412384033203125" lon="-107.15722295455634593963623046875">
        <ele>3351.60009765625</ele>
        <time>2026-01-06T22:20:39.000Z</time>
        <extensions>
          <ns3:TrackPointExtension>
            <ns3:hr>86</ns3:hr>
            <ns3:cad>51</ns3:cad>
          </ns3:TrackPointExtension>
        </extensions>
      </trkpt>
      <trkpt lat="37.94023417867720127105712890625" lon="-107.15720853768289089202880859375">
        <ele>3351.199951171875</ele>
        <time>2026-01-06T22:20:45.000Z</time>
        <extensions>
          <ns3:TrackPointExtension>
            <ns3:hr>88</ns3:hr>
            <ns3:cad>51</ns3:cad>
          </ns3:TrackPointExtension>
        </extensions>
      </trkpt>
      <trkpt lat="37.94031447730958461761474609375" lon="-107.15721759013831615447998046875">
        <ele>3351</ele>
        <time>2026-01-06T22:20:51.000Z</time>
        <extensions>
          <ns3:TrackPointExtension>
            <ns3:hr>89</ns3:hr>
            <ns3:cad>53</ns3:cad>
          </ns3:TrackPointExtension>
        </extensions>
      </trkpt>
      <trkpt lat="37.94035336934030055999755859375" lon="-107.15726427733898162841796875">
        <ele>3350.60009765625</ele>
        <time>2026-01-06T22:20:55.000Z</time>
        <extensions>
          <ns3:TrackPointExtension>
            <ns3:hr>90</ns3:hr>
            <ns3:cad>51</ns3:cad>
          </ns3:TrackPointExtension>
        </extensions>
      </trkpt>
      <trkpt lat="37.94035303406417369842529296875" lon="-107.1572822146117687225341796875">
        <ele>3350.39990234375</ele>
        <time>2026-01-06T22:20:56.000Z</time>
        <extensions>
          <ns3:TrackPointExtension>
            <ns3:hr>90</ns3:hr>
            <ns3:cad>51</ns3:cad>
          </ns3:TrackPointExtension>
        </extensions>
      </trkpt>
      <trkpt lat="37.94034071266651153564453125" lon="-107.157305516302585601806640625">
        <ele>3350.60009765625</ele>
        <time>2026-01-06T22:20:58.000Z</time>
        <extensions>
          <ns3:TrackPointExtension>
            <ns3:hr>91</ns3:hr>
            <ns3:cad>51</ns3:cad>
          </ns3:TrackPointExtension>
        </extensions>
      </trkpt>
      <trkpt lat="37.9402969591319561004638671875" lon="-107.1573145687580108642578125">
        <ele>3350.39990234375</ele>
        <time>2026-01-06T22:21:01.000Z</time>
        <extensions>
          <ns3:TrackPointExtension>
            <ns3:hr>91</ns3:hr>
            <ns3:cad>53</ns3:cad>
          </ns3:TrackPointExtension>
        </extensions>
      </trkpt>
      <trkpt lat="37.9402523674070835113525390625" lon="-107.157327644526958465576171875">
        <ele>3349.39990234375</ele>
        <time>2026-01-06T22:21:05.000Z</time>
        <extensions>
          <ns3:TrackPointExtension>
            <ns3:hr>91</ns3:hr>
            <ns3:cad>53</ns3:cad>
          </ns3:TrackPointExtension>
        </extensions>
      </trkpt>
      <trkpt lat="37.94023250229656696319580078125" lon="-107.15733208693563938140869140625">
        <ele>3348.800048828125</ele>
        <time>2026-01-06T22:21:07.000Z</time>
        <extensions>
          <ns3:TrackPointExtension>
            <ns3:hr>92</ns3:hr>
            <ns3:cad>54</ns3:cad>
          </ns3:TrackPointExtension>
        </extensions>
      </trkpt>
      <trkpt lat="37.9402077756822109222412109375" lon="-107.15734415687620639801025390625">
        <ele>3348.39990234375</ele>
        <time>2026-01-06T22:21:09.000Z</time>
        <extensions>
          <ns3:TrackPointExtension>
            <ns3:hr>92</ns3:hr>
            <ns3:cad>54</ns3:cad>
          </ns3:TrackPointExtension>
        </extensions>
      </trkpt>
      <trkpt lat="37.94017567299306392669677734375" lon="-107.1573628485202789306640625">
        <ele>3347.800048828125</ele>
        <time>2026-01-06T22:21:13.000Z</time>
        <extensions>
          <ns3:TrackPointExtension>
            <ns3:hr>94</ns3:hr>
            <ns3:cad>54</ns3:cad>
          </ns3:TrackPointExtension>
        </extensions>
      </trkpt>
      <trkpt lat="37.9401474259793758392333984375" lon="-107.15737248770892620086669921875">
        <ele>3347.199951171875</ele>
        <time>2026-01-06T22:21:17.000Z</time>
        <extensions>
          <ns3:TrackPointExtension>
            <ns3:hr>94</ns3:hr>
            <ns3:cad>0</ns3:cad>
          </ns3:TrackPointExtension>
        </extensions>
      </trkpt>
      <trkpt lat="37.94012940488755702972412109375" lon="-107.157386653125286102294921875">
        <ele>3347</ele>
        <time>2026-01-06T22:21:19.000Z</time>
        <extensions>
          <ns3:TrackPointExtension>
            <ns3:hr>93</ns3:hr>
            <ns3:cad>0</ns3:cad>
          </ns3:TrackPointExtension>
        </extensions>
      </trkpt>
      <trkpt lat="37.9401081986725330352783203125" lon="-107.1574072726070880889892578125">
        <ele>3346.199951171875</ele>
        <time>2026-01-06T22:21:23.000Z</time>
        <extensions>
          <ns3:TrackPointExtension>
            <ns3:hr>94</ns3:hr>
            <ns3:cad>0</ns3:cad>
          </ns3:TrackPointExtension>
        </extensions>
      </trkpt>
      <trkpt lat="37.94009906239807605743408203125" lon="-107.157416157424449920654296875">
        <ele>3345.60009765625</ele>
        <time>2026-01-06T22:21:25.000Z</time>
        <extensions>
          <ns3:TrackPointExtension>
            <ns3:hr>95</ns3:hr>
            <ns3:cad>0</ns3:cad>
          </ns3:TrackPointExtension>
        </extensions>
      </trkpt>
      <trkpt lat="37.94006888754665851593017578125" lon="-107.15742965228855609893798828125">
        <ele>3345.199951171875</ele>
        <time>2026-01-06T22:21:29.000Z</time>
        <extensions>
          <ns3:TrackPointExtension>
            <ns3:hr>97</ns3:hr>
            <ns3:cad>0</ns3:cad>
          </ns3:TrackPointExtension>
        </extensions>
      </trkpt>
      <trkpt lat="37.94006285257637500762939453125" lon="-107.15747809968888759613037109375">
        <ele>3344.60009765625</ele>
        <time>2026-01-06T22:21:32.000Z</time>
        <extensions>
          <ns3:TrackPointExtension>
            <ns3:hr>99</ns3:hr>
            <ns3:cad>0</ns3:cad>
          </ns3:TrackPointExtension>
        </extensions>
      </trkpt>
      <trkpt lat="37.94007257558405399322509765625" lon="-107.1574934385716915130615234375">
        <ele>3344.60009765625</ele>
        <time>2026-01-06T22:21:35.000Z</time>
        <extensions>
          <ns3:TrackPointExtension>
            <ns3:hr>99</ns3:hr>
            <ns3:cad>46</ns3:cad>
          </ns3:TrackPointExtension>
        </extensions>
      </trkpt>
      <trkpt lat="37.9400820471346378326416015625" lon="-107.15750710107386112213134765625">
        <ele>3344.199951171875</ele>
        <time>2026-01-06T22:21:37.000Z</time>
        <extensions>
          <ns3:TrackPointExtension>
            <ns3:hr>99</ns3:hr>
            <ns3:cad>46</ns3:cad>
          </ns3:TrackPointExtension>
        </extensions>
      </trkpt>
      <trkpt lat="37.9400840587913990020751953125" lon="-107.15751062147319316864013671875">
        <ele>3344</ele>
        <time>2026-01-06T22:21:38.000Z</time>
        <extensions>
          <ns3:TrackPointExtension>
            <ns3:hr>98</ns3:hr>
            <ns3:cad>46</ns3:cad>
          </ns3:TrackPointExtension>
        </extensions>
      </trkpt>
      <trkpt lat="37.940089590847492218017578125" lon="-107.15751850046217441558837890625">
        <ele>3343.199951171875</ele>
        <time>2026-01-06T22:21:44.000Z</time>
        <extensions>
          <ns3:TrackPointExtension>
            <ns3:hr>98</ns3:hr>
            <ns3:cad>0</ns3:cad>
          </ns3:TrackPointExtension>
        </extensions>
      </trkpt>
      <trkpt lat="37.940089590847492218017578125" lon="-107.15751850046217441558837890625">
        <ele>3343.199951171875</ele>
        <time>2026-01-06T22:21:45.000Z</time>
        <extensions>
          <ns3:TrackPointExtension>
            <ns3:hr>101</ns3:hr>
            <ns3:cad>0</ns3:cad>
          </ns3:TrackPointExtension>
        </extensions>
      </trkpt>
      <trkpt lat="37.940089590847492218017578125" lon="-107.15751850046217441558837890625">
        <ele>3344</ele>
        <time>2026-01-06T22:21:48.000Z</time>
        <extensions>
          <ns3:TrackPointExtension>
            <ns3:hr>104</ns3:hr>
            <ns3:cad>0</ns3:cad>
          </ns3:TrackPointExtension>
        </extensions>
      </trkpt>
      <trkpt lat="37.940089590847492218017578125" lon="-107.15751850046217441558837890625">
        <ele>3343.60009765625</ele>
        <time>2026-01-06T22:21:51.000Z</time>
        <extensions>
          <ns3:TrackPointExtension>
            <ns3:hr>105</ns3:hr>
            <ns3:cad>0</ns3:cad>
          </ns3:TrackPointExtension>
        </extensions>
      </trkpt>
      <trkpt lat="37.940089590847492218017578125" lon="-107.15751850046217441558837890625">
        <ele>3343.800048828125</ele>
        <time>2026-01-06T22:21:57.000Z</time>
        <extensions>
          <ns3:TrackPointExtension>
            <ns3:hr>104</ns3:hr>
            <ns3:cad>0</ns3:cad>
          </ns3:TrackPointExtension>
        </extensions>
      </trkpt>
      <trkpt lat="37.940089590847492218017578125" lon="-107.15751850046217441558837890625">
        <ele>3343.60009765625</ele>
        <time>2026-01-06T22:22:00.000Z</time>
        <extensions>
          <ns3:TrackPointExtension>
            <ns3:hr>104</ns3:hr>
            <ns3:cad>0</ns3:cad>
          </ns3:TrackPointExtension>
        </extensions>
      </trkpt>
      <trkpt lat="37.940089590847492218017578125" lon="-107.15751850046217441558837890625">
        <ele>3344</ele>
        <time>2026-01-06T22:22:06.000Z</time>
        <extensions>
          <ns3:TrackPointExtension>
            <ns3:hr>103</ns3:hr>
            <ns3:cad>0</ns3:cad>
          </ns3:TrackPointExtension>
        </extensions>
      </trkpt>
      <trkpt lat="37.940089590847492218017578125" lon="-107.15751850046217441558837890625">
        <ele>3343.800048828125</ele>
        <time>2026-01-06T22:22:10.000Z</time>
        <extensions>
          <ns3:TrackPointExtension>
            <ns3:hr>103</ns3:hr>
            <ns3:cad>0</ns3:cad>
          </ns3:TrackPointExtension>
        </extensions>
      </trkpt>
      <trkpt lat="37.940089590847492218017578125" lon="-107.15751850046217441558837890625">
        <ele>3343.800048828125</ele>
        <time>2026-01-06T22:22:16.000Z</time>
        <extensions>
          <ns3:TrackPointExtension>
            <ns3:hr>100</ns3:hr>
            <ns3:cad>0</ns3:cad>
          </ns3:TrackPointExtension>
        </extensions>
      </trkpt>
      <trkpt lat="37.940089590847492218017578125" lon="-107.15751850046217441558837890625">
        <ele>3343.800048828125</ele>
        <time>2026-01-06T22:22:20.000Z</time>
        <extensions>
          <ns3:TrackPointExtension>
            <ns3:hr>97</ns3:hr>
            <ns3:cad>0</ns3:cad>
          </ns3:TrackPointExtension>
        </extensions>
      </trkpt>
      <trkpt lat="37.94010342098772525787353515625" lon="-107.15751514770090579986572265625">
        <ele>3343.60009765625</ele>
        <time>2026-01-06T22:22:26.000Z</time>
        <extensions>
          <ns3:TrackPointExtension>
            <ns3:hr>95</ns3:hr>
            <ns3:cad>0</ns3:cad>
          </ns3:TrackPointExtension>
        </extensions>
      </trkpt>
      <trkpt lat="37.94010342098772525787353515625" lon="-107.15751514770090579986572265625">
        <ele>3343.60009765625</ele>
        <time>2026-01-06T22:22:27.000Z</time>
        <extensions>
          <ns3:TrackPointExtension>
            <ns3:hr>96</ns3:hr>
            <ns3:cad>0</ns3:cad>
          </ns3:TrackPointExtension>
        </extensions>
      </trkpt>
      <trkpt lat="37.9401561431586742401123046875" lon="-107.15751782990992069244384765625">
        <ele>3342.800048828125</ele>
        <time>2026-01-06T22:22:32.000Z</time>
        <extensions>
          <ns3:TrackPointExtension>
            <ns3:hr>95</ns3:hr>
            <ns3:cad>0</ns3:cad>
          </ns3:TrackPointExtension>
        </extensions>
      </trkpt>
      <trkpt lat="37.94024088419973850250244140625" lon="-107.1575316600501537322998046875">
        <ele>3342.39990234375</ele>
        <time>2026-01-06T22:22:38.000Z</time>
        <extensions>
          <ns3:TrackPointExtension>
            <ns3:hr>97</ns3:hr>
            <ns3:cad>53</ns3:cad>
          </ns3:TrackPointExtension>
        </extensions>
      </trkpt>
      <trkpt lat="37.940247841179370880126953125" lon="-107.15754565782845020294189453125">
        <ele>3342.39990234375</ele>
        <time>2026-01-06T22:22:39.000Z</time>
        <extensions>
          <ns3:TrackPointExtension>
            <ns3:hr>97</ns3:hr>
            <ns3:cad>53</ns3:cad>
          </ns3:TrackPointExtension>
        </extensions>
      </trkpt>
      <trkpt lat="37.94024256058037281036376953125" lon="-107.1575977094471454620361328125">
        <ele>3342.199951171875</ele>
        <time>2026-01-06T22:22:43.000Z</time>
        <extensions>
          <ns3:TrackPointExtension>
            <ns3:hr>98</ns3:hr>
            <ns3:cad>51</ns3:cad>
          </ns3:TrackPointExtension>
        </extensions>
      </trkpt>
      <trkpt lat="37.9402329213917255401611328125" lon="-107.1576091088354587554931640625">
        <ele>3342.199951171875</ele>
        <time>2026-01-06T22:22:44.000Z</time>
        <extensions>
          <ns3:TrackPointExtension>
            <ns3:hr>98</ns3:hr>
            <ns3:cad>52</ns3:cad>
          </ns3:TrackPointExtension>
        </extensions>
      </trkpt>
      <trkpt lat="37.94019796885550022125244140625" lon="-107.1576272137463092803955078125">
        <ele>3341.800048828125</ele>
        <time>2026-01-06T22:22:47.000Z</time>
        <extensions>
          <ns3:TrackPointExtension>
            <ns3:hr>98</ns3:hr>
            <ns3:cad>51</ns3:cad>
          </ns3:TrackPointExtension>
        </extensions>
      </trkpt>
      <trkpt lat="37.940146587789058685302734375" lon="-107.1576459892094135284423828125">
        <ele>3341.60009765625</ele>
        <time>2026-01-06T22:22:51.000Z</time>
        <extensions>
          <ns3:TrackPointExtension>
            <ns3:hr>98</ns3:hr>
            <ns3:cad>53</ns3:cad>
          </ns3:TrackPointExtension>
        </extensions>
      </trkpt>
      <trkpt lat="37.94012906961143016815185546875" lon="-107.15770843438804149627685546875">
        <ele>3341.199951171875</ele>
        <time>2026-01-06T22:22:55.000Z</time>
        <extensions>
          <ns3:TrackPointExtension>
            <ns3:hr>98</ns3:hr>
            <ns3:cad>55</ns3:cad>
          </ns3:TrackPointExtension>
        </extensions>
      </trkpt>
      <trkpt lat="37.94013929553329944610595703125" lon="-107.1577355079352855682373046875">
        <ele>3341</ele>
        <time>2026-01-06T22:22:57.000Z</time>
        <extensions>
          <ns3:TrackPointExtension>
            <ns3:hr>97</ns3:hr>
            <ns3:cad>0</ns3:cad>
          </ns3:TrackPointExtension>
        </extensions>
      </trkpt>
      <trkpt lat="37.9401544667780399322509765625" lon="-107.15776048600673675537109375">
        <ele>3340.60009765625</ele>
        <time>2026-01-06T22:22:59.000Z</time>
        <extensions>
          <ns3:TrackPointExtension>
            <ns3:hr>97</ns3:hr>
            <ns3:cad>0</ns3:cad>
          </ns3:TrackPointExtension>
        </extensions>
      </trkpt>
      <trkpt lat="37.94020785950124263763427734375" lon="-107.15778253041207790374755859375">
        <ele>3339.800048828125</ele>
        <time>2026-01-06T22:23:04.000Z</time>
        <extensions>
          <ns3:TrackPointExtension>
            <ns3:hr>100</ns3:hr>
            <ns3:cad>0</ns3:cad>
          </ns3:TrackPointExtension>
        </extensions>
      </trkpt>
      <trkpt lat="37.94021842069923877716064453125" lon="-107.157786302268505096435546875">
        <ele>3339.39990234375</ele>
        <time>2026-01-06T22:23:05.000Z</time>
        <extensions>
          <ns3:TrackPointExtension>
            <ns3:hr>100</ns3:hr>
            <ns3:cad>0</ns3:cad>
          </ns3:TrackPointExtension>
        </extensions>
      </trkpt>
      <trkpt lat="37.9402604140341281890869140625" lon="-107.15781304053962230682373046875">
        <ele>3338.39990234375</ele>
        <time>2026-01-06T22:23:09.000Z</time>
        <extensions>
          <ns3:TrackPointExtension>
            <ns3:hr>101</ns3:hr>
            <ns3:cad>57</ns3:cad>
          </ns3:TrackPointExtension>
        </extensions>
      </trkpt>
      <trkpt lat="37.94028379954397678375244140625" lon="-107.15784304775297641754150390625">
        <ele>3337.800048828125</ele>
        <time>2026-01-06T22:23:12.000Z</time>
        <extensions>
          <ns3:TrackPointExtension>
            <ns3:hr>101</ns3:hr>
            <ns3:cad>55</ns3:cad>
          </ns3:TrackPointExtension>
        </extensions>
      </trkpt>
      <trkpt lat="37.94028514064848423004150390625" lon="-107.15785746462643146514892578125">
        <ele>3337.800048828125</ele>
        <time>2026-01-06T22:23:13.000Z</time>
        <extensions>
          <ns3:TrackPointExtension>
            <ns3:hr>101</ns3:hr>
            <ns3:cad>55</ns3:cad>
          </ns3:TrackPointExtension>
        </extensions>
      </trkpt>
      <trkpt lat="37.9402879066765308380126953125" lon="-107.157889567315578460693359375">
        <ele>3337.199951171875</ele>
        <time>2026-01-06T22:23:16.000Z</time>
        <extensions>
          <ns3:TrackPointExtension>
            <ns3:hr>101</ns3:hr>
            <ns3:cad>55</ns3:cad>
          </ns3:TrackPointExtension>
        </extensions>
      </trkpt>
      <trkpt lat="37.94031213037669658660888671875" lon="-107.15793575160205364227294921875">
        <ele>3336.60009765625</ele>
        <time>2026-01-06T22:23:19.000Z</time>
        <extensions>
          <ns3:TrackPointExtension>
            <ns3:hr>101</ns3:hr>
            <ns3:cad>53</ns3:cad>
          </ns3:TrackPointExtension>
        </extensions>
      </trkpt>
      <trkpt lat="37.94033291749656200408935546875" lon="-107.1579537726938724517822265625">
        <ele>3336.199951171875</ele>
        <time>2026-01-06T22:23:21.000Z</time>
        <extensions>
          <ns3:TrackPointExtension>
            <ns3:hr>101</ns3:hr>
            <ns3:cad>53</ns3:cad>
          </ns3:TrackPointExtension>
        </extensions>
      </trkpt>
      <trkpt lat="37.94037650339305400848388671875" lon="-107.15798034332692623138427734375">
        <ele>3335.60009765625</ele>
        <time>2026-01-06T22:23:25.000Z</time>
        <extensions>
          <ns3:TrackPointExtension>
            <ns3:hr>101</ns3:hr>
            <ns3:cad>57</ns3:cad>
          </ns3:TrackPointExtension>
        </extensions>
      </trkpt>
      <trkpt lat="37.9404116235673427581787109375" lon="-107.158033065497875213623046875">
        <ele>3335</ele>
        <time>2026-01-06T22:23:29.000Z</time>
        <extensions>
          <ns3:TrackPointExtension>
            <ns3:hr>101</ns3:hr>
            <ns3:cad>53</ns3:cad>
          </ns3:TrackPointExtension>
        </extensions>
      </trkpt>
      <trkpt lat="37.94041053391993045806884765625" lon="-107.15806148014962673187255859375">
        <ele>3334.39990234375</ele>
        <time>2026-01-06T22:23:32.000Z</time>
        <extensions>
          <ns3:TrackPointExtension>
            <ns3:hr>101</ns3:hr>
            <ns3:cad>53</ns3:cad>
          </ns3:TrackPointExtension>
        </extensions>
      </trkpt>
      <trkpt lat="37.9404079355299472808837890625" lon="-107.15806868858635425567626953125">
        <ele>3334</ele>
        <time>2026-01-06T22:23:33.000Z</time>
        <extensions>
          <ns3:TrackPointExtension>
            <ns3:hr>101</ns3:hr>
            <ns3:cad>0</ns3:cad>
          </ns3:TrackPointExtension>
        </extensions>
      </trkpt>
      <trkpt lat="37.94038823805749416351318359375" lon="-107.1581328101456165313720703125">
        <ele>3333</ele>
        <time>2026-01-06T22:23:39.000Z</time>
        <extensions>
          <ns3:TrackPointExtension>
            <ns3:hr>98</ns3:hr>
            <ns3:cad>0</ns3:cad>
          </ns3:TrackPointExtension>
        </extensions>
      </trkpt>
      <trkpt lat="37.94038639403879642486572265625" lon="-107.158146388828754425048828125">
        <ele>3332.800048828125</ele>
        <time>2026-01-06T22:23:40.000Z</time>
        <extensions>
          <ns3:TrackPointExtension>
            <ns3:hr>97</ns3:hr>
            <ns3:cad>0</ns3:cad>
          </ns3:TrackPointExtension>
        </extensions>
      </trkpt>
      <trkpt lat="37.94037516228854656219482421875" lon="-107.15819525532424449920654296875">
        <ele>3332.199951171875</ele>
        <time>2026-01-06T22:23:43.000Z</time>
        <extensions>
          <ns3:TrackPointExtension>
            <ns3:hr>94</ns3:hr>
            <ns3:cad>0</ns3:cad>
          </ns3:TrackPointExtension>
        </extensions>
      </trkpt>
      <trkpt lat="37.9403650201857089996337890625" lon="-107.15821939520537853240966796875">
        <ele>3331.60009765625</ele>
        <time>2026-01-06T22:23:45.000Z</time>
        <extensions>
          <ns3:TrackPointExtension>
            <ns3:hr>93</ns3:hr>
            <ns3:cad>0</ns3:cad>
          </ns3:TrackPointExtension>
        </extensions>
      </trkpt>
      <trkpt lat="37.940361499786376953125" lon="-107.158228866755962371826171875">
        <ele>3331.39990234375</ele>
        <time>2026-01-06T22:23:46.000Z</time>
        <extensions>
          <ns3:TrackPointExtension>
            <ns3:hr>93</ns3:hr>
            <ns3:cad>0</ns3:cad>
          </ns3:TrackPointExtension>
        </extensions>
      </trkpt>
      <trkpt lat="37.9403475858271121978759765625" lon="-107.1582582034170627593994140625">
        <ele>3330.60009765625</ele>
        <time>2026-01-06T22:23:49.000Z</time>
        <extensions>
          <ns3:TrackPointExtension>
            <ns3:hr>92</ns3:hr>
            <ns3:cad>0</ns3:cad>
          </ns3:TrackPointExtension>
        </extensions>
      </trkpt>
      <trkpt lat="37.940318249166011810302734375" lon="-107.15828879736363887786865234375">
        <ele>3329.800048828125</ele>
        <time>2026-01-06T22:23:52.000Z</time>
        <extensions>
          <ns3:TrackPointExtension>
            <ns3:hr>92</ns3:hr>
            <ns3:cad>47</ns3:cad>
          </ns3:TrackPointExtension>
        </extensions>
      </trkpt>
      <trkpt lat="37.9402584023773670196533203125" lon="-107.15833758004009723663330078125">
        <ele>3329.60009765625</ele>
        <time>2026-01-06T22:23:58.000Z</time>
        <extensions>
          <ns3:TrackPointExtension>
            <ns3:hr>93</ns3:hr>
            <ns3:cad>0</ns3:cad>
          </ns3:TrackPointExtension>
        </extensions>
      </trkpt>
      <trkpt lat="37.94024708680808544158935546875" lon="-107.15834964998066425323486328125">
        <ele>3329.60009765625</ele>
        <time>2026-01-06T22:23:59.000Z</time>
        <extensions>
          <ns3:TrackPointExtension>
            <ns3:hr>93</ns3:hr>
            <ns3:cad>0</ns3:cad>
          </ns3:TrackPointExtension>
        </extensions>
      </trkpt>
      <trkpt lat="37.9402389563620090484619140625" lon="-107.1583748795092105865478515625">
        <ele>3329.39990234375</ele>
        <time>2026-01-06T22:24:01.000Z</time>
        <extensions>
          <ns3:TrackPointExtension>
            <ns3:hr>93</ns3:hr>
            <ns3:cad>0</ns3:cad>
          </ns3:TrackPointExtension>
        </extensions>
      </trkpt>
      <trkpt lat="37.94024490751326084136962890625" lon="-107.15840647928416728973388671875">
        <ele>3329</ele>
        <time>2026-01-06T22:24:03.000Z</time>
        <extensions>
          <ns3:TrackPointExtension>
            <ns3:hr>93</ns3:hr>
            <ns3:cad>0</ns3:cad>
          </ns3:TrackPointExtension>
        </extensions>
      </trkpt>
      <trkpt lat="37.94025245122611522674560546875" lon="-107.1584104187786579132080078125">
        <ele>3328.800048828125</ele>
        <time>2026-01-06T22:24:04.000Z</time>
        <extensions>
          <ns3:TrackPointExtension>
            <ns3:hr>93</ns3:hr>
            <ns3:cad>0</ns3:cad>
          </ns3:TrackPointExtension>
        </extensions>
      </trkpt>
      <trkpt lat="37.94026234187185764312744140625" lon="-107.1584010310471057891845703125">
        <ele>3328.60009765625</ele>
        <time>2026-01-06T22:24:05.000Z</time>
        <extensions>
          <ns3:TrackPointExtension>
            <ns3:hr>93</ns3:hr>
            <ns3:cad>0</ns3:cad>
          </ns3:TrackPointExtension>
        </extensions>
      </trkpt>
      <trkpt lat="37.9402724839746952056884765625" lon="-107.1583993546664714813232421875">
        <ele>3328.39990234375</ele>
        <time>2026-01-06T22:24:07.000Z</time>
        <extensions>
          <ns3:TrackPointExtension>
            <ns3:hr>92</ns3:hr>
            <ns3:cad>0</ns3:cad>
          </ns3:TrackPointExtension>
        </extensions>
      </trkpt>
      <trkpt lat="37.94027525000274181365966796875" lon="-107.1583976782858371734619140625">
        <ele>3328.39990234375</ele>
        <time>2026-01-06T22:24:09.000Z</time>
        <extensions>
          <ns3:TrackPointExtension>
            <ns3:hr>93</ns3:hr>
            <ns3:cad>0</ns3:cad>
          </ns3:TrackPointExtension>
        </extensions>
      </trkpt>
      <trkpt lat="37.94027172960340976715087890625" lon="-107.15840279124677181243896484375">
        <ele>3328.800048828125</ele>
        <time>2026-01-06T22:24:11.000Z</time>
        <extensions>
          <ns3:TrackPointExtension>
            <ns3:hr>92</ns3:hr>
            <ns3:cad>0</ns3:cad>
          </ns3:TrackPointExtension>
        </extensions>
      </trkpt>
      <trkpt lat="37.94027692638337612152099609375" lon="-107.15840329416096210479736328125">
        <ele>3328.800048828125</ele>
        <time>2026-01-06T22:24:16.000Z</time>
        <extensions>
          <ns3:TrackPointExtension>
            <ns3:hr>89</ns3:hr>
            <ns3:cad>0</ns3:cad>
          </ns3:TrackPointExtension>
        </extensions>
      </trkpt>
      <trkpt lat="37.94027692638337612152099609375" lon="-107.15840329416096210479736328125">
        <ele>3328.800048828125</ele>
        <time>2026-01-06T22:24:17.000Z</time>
        <extensions>
          <ns3:TrackPointExtension>
            <ns3:hr>89</ns3:hr>
            <ns3:cad>0</ns3:cad>
          </ns3:TrackPointExtension>
        </extensions>
      </trkpt>
      <trkpt lat="37.94027692638337612152099609375" lon="-107.15840329416096210479736328125">
        <ele>3329.199951171875</ele>
        <time>2026-01-06T22:24:23.000Z</time>
        <extensions>
          <ns3:TrackPointExtension>
            <ns3:hr>92</ns3:hr>
            <ns3:cad>0</ns3:cad>
          </ns3:TrackPointExtension>
        </extensions>
      </trkpt>
      <trkpt lat="37.94027742929756641387939453125" lon="-107.15840446762740612030029296875">
        <ele>3329</ele>
        <time>2026-01-06T22:24:24.000Z</time>
        <extensions>
          <ns3:TrackPointExtension>
            <ns3:hr>92</ns3:hr>
            <ns3:cad>0</ns3:cad>
          </ns3:TrackPointExtension>
        </extensions>
      </trkpt>
      <trkpt lat="37.94027692638337612152099609375" lon="-107.15840329416096210479736328125">
        <ele>3328.39990234375</ele>
        <time>2026-01-06T22:24:30.000Z</time>
        <extensions>
          <ns3:TrackPointExtension>
            <ns3:hr>95</ns3:hr>
            <ns3:cad>0</ns3:cad>
          </ns3:TrackPointExtension>
        </extensions>
      </trkpt>
      <trkpt lat="37.94027374126017093658447265625" lon="-107.158408574759960174560546875">
        <ele>3328.60009765625</ele>
        <time>2026-01-06T22:24:36.000Z</time>
        <extensions>
          <ns3:TrackPointExtension>
            <ns3:hr>96</ns3:hr>
            <ns3:cad>75</ns3:cad>
          </ns3:TrackPointExtension>
        </extensions>
      </trkpt>
      <trkpt lat="37.94027692638337612152099609375" lon="-107.15840329416096210479736328125">
        <ele>3328.800048828125</ele>
        <time>2026-01-06T22:24:42.000Z</time>
        <extensions>
          <ns3:TrackPointExtension>
            <ns3:hr>97</ns3:hr>
            <ns3:cad>0</ns3:cad>
          </ns3:TrackPointExtension>
        </extensions>
      </trkpt>
      <trkpt lat="37.94027692638337612152099609375" lon="-107.15840329416096210479736328125">
        <ele>3328.800048828125</ele>
        <time>2026-01-06T22:24:44.000Z</time>
        <extensions>
          <ns3:TrackPointExtension>
            <ns3:hr>97</ns3:hr>
            <ns3:cad>0</ns3:cad>
          </ns3:TrackPointExtension>
        </extensions>
      </trkpt>
      <trkpt lat="37.94027692638337612152099609375" lon="-107.15840329416096210479736328125">
        <ele>3328.800048828125</ele>
        <time>2026-01-06T22:24:50.000Z</time>
        <extensions>
          <ns3:TrackPointExtension>
            <ns3:hr>98</ns3:hr>
            <ns3:cad>0</ns3:cad>
          </ns3:TrackPointExtension>
        </extensions>
      </trkpt>
      <trkpt lat="37.94027692638337612152099609375" lon="-107.15840329416096210479736328125">
        <ele>3329</ele>
        <time>2026-01-06T22:24:53.000Z</time>
        <extensions>
          <ns3:TrackPointExtension>
            <ns3:hr>98</ns3:hr>
            <ns3:cad>0</ns3:cad>
          </ns3:TrackPointExtension>
        </extensions>
      </trkpt>
      <trkpt lat="37.94027692638337612152099609375" lon="-107.15840329416096210479736328125">
        <ele>3329.39990234375</ele>
        <time>2026-01-06T22:24:58.000Z</time>
        <extensions>
          <ns3:TrackPointExtension>
            <ns3:hr>97</ns3:hr>
            <ns3:cad>0</ns3:cad>
          </ns3:TrackPointExtension>
        </extensions>
      </trkpt>
      <trkpt lat="37.94027692638337612152099609375" lon="-107.15840329416096210479736328125">
        <ele>3329</ele>
        <time>2026-01-06T22:25:01.000Z</time>
        <extensions>
          <ns3:TrackPointExtension>
            <ns3:hr>97</ns3:hr>
            <ns3:cad>0</ns3:cad>
          </ns3:TrackPointExtension>
        </extensions>
      </trkpt>
      <trkpt lat="37.94027692638337612152099609375" lon="-107.15840329416096210479736328125">
        <ele>3328.39990234375</ele>
        <time>2026-01-06T22:25:05.000Z</time>
        <extensions>
          <ns3:TrackPointExtension>
            <ns3:hr>97</ns3:hr>
            <ns3:cad>0</ns3:cad>
          </ns3:TrackPointExtension>
        </extensions>
      </trkpt>
      <trkpt lat="37.94027692638337612152099609375" lon="-107.15840329416096210479736328125">
        <ele>3328.800048828125</ele>
        <time>2026-01-06T22:25:11.000Z</time>
        <extensions>
          <ns3:TrackPointExtension>
            <ns3:hr>97</ns3:hr>
            <ns3:cad>0</ns3:cad>
          </ns3:TrackPointExtension>
        </extensions>
      </trkpt>
      <trkpt lat="37.94027692638337612152099609375" lon="-107.15840329416096210479736328125">
        <ele>3328.60009765625</ele>
        <time>2026-01-06T22:25:13.000Z</time>
        <extensions>
          <ns3:TrackPointExtension>
            <ns3:hr>97</ns3:hr>
            <ns3:cad>0</ns3:cad>
          </ns3:TrackPointExtension>
        </extensions>
      </trkpt>
      <trkpt lat="37.94027692638337612152099609375" lon="-107.15840329416096210479736328125">
        <ele>3329.199951171875</ele>
        <time>2026-01-06T22:25:19.000Z</time>
        <extensions>
          <ns3:TrackPointExtension>
            <ns3:hr>95</ns3:hr>
            <ns3:cad>0</ns3:cad>
          </ns3:TrackPointExtension>
        </extensions>
      </trkpt>
      <trkpt lat="37.94027692638337612152099609375" lon="-107.15840329416096210479736328125">
        <ele>3329.39990234375</ele>
        <time>2026-01-06T22:25:23.000Z</time>
        <extensions>
          <ns3:TrackPointExtension>
            <ns3:hr>93</ns3:hr>
            <ns3:cad>0</ns3:cad>
          </ns3:TrackPointExtension>
        </extensions>
      </trkpt>
      <trkpt lat="37.94027692638337612152099609375" lon="-107.15840329416096210479736328125">
        <ele>3329</ele>
        <time>2026-01-06T22:25:29.000Z</time>
        <extensions>
          <ns3:TrackPointExtension>
            <ns3:hr>91</ns3:hr>
            <ns3:cad>0</ns3:cad>
          </ns3:TrackPointExtension>
        </extensions>
      </trkpt>
      <trkpt lat="37.94027692638337612152099609375" lon="-107.15840329416096210479736328125">
        <ele>3329.199951171875</ele>
        <time>2026-01-06T22:25:32.000Z</time>
        <extensions>
          <ns3:TrackPointExtension>
            <ns3:hr>92</ns3:hr>
            <ns3:cad>0</ns3:cad>
          </ns3:TrackPointExtension>
        </extensions>
      </trkpt>
      <trkpt lat="37.94027692638337612152099609375" lon="-107.15840329416096210479736328125">
        <ele>3329.199951171875</ele>
        <time>2026-01-06T22:25:38.000Z</time>
        <extensions>
          <ns3:TrackPointExtension>
            <ns3:hr>92</ns3:hr>
            <ns3:cad>0</ns3:cad>
          </ns3:TrackPointExtension>
        </extensions>
      </trkpt>
      <trkpt lat="37.94027692638337612152099609375" lon="-107.15840329416096210479736328125">
        <ele>3329.39990234375</ele>
        <time>2026-01-06T22:25:44.000Z</time>
        <extensions>
          <ns3:TrackPointExtension>
            <ns3:hr>93</ns3:hr>
            <ns3:cad>0</ns3:cad>
          </ns3:TrackPointExtension>
        </extensions>
      </trkpt>
      <trkpt lat="37.94027692638337612152099609375" lon="-107.15840329416096210479736328125">
        <ele>3329.39990234375</ele>
        <time>2026-01-06T22:25:47.000Z</time>
        <extensions>
          <ns3:TrackPointExtension>
            <ns3:hr>94</ns3:hr>
            <ns3:cad>0</ns3:cad>
          </ns3:TrackPointExtension>
        </extensions>
      </trkpt>
      <trkpt lat="37.94027692638337612152099609375" lon="-107.15840329416096210479736328125">
        <ele>3329</ele>
        <time>2026-01-06T22:25:53.000Z</time>
        <extensions>
          <ns3:TrackPointExtension>
            <ns3:hr>96</ns3:hr>
            <ns3:cad>0</ns3:cad>
          </ns3:TrackPointExtension>
        </extensions>
      </trkpt>
      <trkpt lat="37.94027692638337612152099609375" lon="-107.15840329416096210479736328125">
        <ele>3329.39990234375</ele>
        <time>2026-01-06T22:25:59.000Z</time>
        <extensions>
          <ns3:TrackPointExtension>
            <ns3:hr>97</ns3:hr>
            <ns3:cad>0</ns3:cad>
          </ns3:TrackPointExtension>
        </extensions>
      </trkpt>
      <trkpt lat="37.94027692638337612152099609375" lon="-107.15840329416096210479736328125">
        <ele>3329.199951171875</ele>
        <time>2026-01-06T22:26:01.000Z</time>
        <extensions>
          <ns3:TrackPointExtension>
            <ns3:hr>97</ns3:hr>
            <ns3:cad>0</ns3:cad>
          </ns3:TrackPointExtension>
        </extensions>
      </trkpt>
      <trkpt lat="37.94027768075466156005859375" lon="-107.1584208123385906219482421875">
        <ele>3329.60009765625</ele>
        <time>2026-01-06T22:26:07.000Z</time>
        <extensions>
          <ns3:TrackPointExtension>
            <ns3:hr>95</ns3:hr>
            <ns3:cad>0</ns3:cad>
          </ns3:TrackPointExtension>
        </extensions>
      </trkpt>
      <trkpt lat="37.94027776457369327545166015625" lon="-107.15842257253825664520263671875">
        <ele>3329.60009765625</ele>
        <time>2026-01-06T22:26:11.000Z</time>
        <extensions>
          <ns3:TrackPointExtension>
            <ns3:hr>94</ns3:hr>
            <ns3:cad>0</ns3:cad>
          </ns3:TrackPointExtension>
        </extensions>
      </trkpt>
      <trkpt lat="37.94027768075466156005859375" lon="-107.1584208123385906219482421875">
        <ele>3329.800048828125</ele>
        <time>2026-01-06T22:26:15.000Z</time>
        <extensions>
          <ns3:TrackPointExtension>
            <ns3:hr>94</ns3:hr>
            <ns3:cad>0</ns3:cad>
          </ns3:TrackPointExtension>
        </extensions>
      </trkpt>
      <trkpt lat="37.94027768075466156005859375" lon="-107.1584208123385906219482421875">
        <ele>3330</ele>
        <time>2026-01-06T22:26:21.000Z</time>
        <extensions>
          <ns3:TrackPointExtension>
            <ns3:hr>93</ns3:hr>
            <ns3:cad>0</ns3:cad>
          </ns3:TrackPointExtension>
        </extensions>
      </trkpt>
      <trkpt lat="37.94027768075466156005859375" lon="-107.1584208123385906219482421875">
        <ele>3329.800048828125</ele>
        <time>2026-01-06T22:26:26.000Z</time>
        <extensions>
          <ns3:TrackPointExtension>
            <ns3:hr>93</ns3:hr>
            <ns3:cad>0</ns3:cad>
          </ns3:TrackPointExtension>
        </extensions>
      </trkpt>
      <trkpt lat="37.94027768075466156005859375" lon="-107.1584208123385906219482421875">
        <ele>3330.199951171875</ele>
        <time>2026-01-06T22:26:31.000Z</time>
        <extensions>
          <ns3:TrackPointExtension>
            <ns3:hr>90</ns3:hr>
            <ns3:cad>0</ns3:cad>
          </ns3:TrackPointExtension>
        </extensions>
      </trkpt>
      <trkpt lat="37.94027768075466156005859375" lon="-107.1584208123385906219482421875">
        <ele>3329.800048828125</ele>
        <time>2026-01-06T22:26:37.000Z</time>
        <extensions>
          <ns3:TrackPointExtension>
            <ns3:hr>90</ns3:hr>
            <ns3:cad>0</ns3:cad>
          </ns3:TrackPointExtension>
        </extensions>
      </trkpt>
      <trkpt lat="37.94027768075466156005859375" lon="-107.1584208123385906219482421875">
        <ele>3329.800048828125</ele>
        <time>2026-01-06T22:26:38.000Z</time>
        <extensions>
          <ns3:TrackPointExtension>
            <ns3:hr>90</ns3:hr>
            <ns3:cad>0</ns3:cad>
          </ns3:TrackPointExtension>
        </extensions>
      </trkpt>
      <trkpt lat="37.94027768075466156005859375" lon="-107.1584208123385906219482421875">
        <ele>3330</ele>
        <time>2026-01-06T22:26:44.000Z</time>
        <extensions>
          <ns3:TrackPointExtension>
            <ns3:hr>91</ns3:hr>
            <ns3:cad>0</ns3:cad>
          </ns3:TrackPointExtension>
        </extensions>
      </trkpt>
      <trkpt lat="37.94027768075466156005859375" lon="-107.1584208123385906219482421875">
        <ele>3330.199951171875</ele>
        <time>2026-01-06T22:26:47.000Z</time>
        <extensions>
          <ns3:TrackPointExtension>
            <ns3:hr>92</ns3:hr>
            <ns3:cad>0</ns3:cad>
          </ns3:TrackPointExtension>
        </extensions>
      </trkpt>
      <trkpt lat="37.94027768075466156005859375" lon="-107.1584208123385906219482421875">
        <ele>3330.39990234375</ele>
        <time>2026-01-06T22:26:50.000Z</time>
        <extensions>
          <ns3:TrackPointExtension>
            <ns3:hr>95</ns3:hr>
            <ns3:cad>0</ns3:cad>
          </ns3:TrackPointExtension>
        </extensions>
      </trkpt>
      <trkpt lat="37.94027768075466156005859375" lon="-107.1584208123385906219482421875">
        <ele>3329.800048828125</ele>
        <time>2026-01-06T22:26:56.000Z</time>
        <extensions>
          <ns3:TrackPointExtension>
            <ns3:hr>94</ns3:hr>
            <ns3:cad>0</ns3:cad>
          </ns3:TrackPointExtension>
        </extensions>
      </trkpt>
      <trkpt lat="37.94027768075466156005859375" lon="-107.1584208123385906219482421875">
        <ele>3329.800048828125</ele>
        <time>2026-01-06T22:27:02.000Z</time>
        <extensions>
          <ns3:TrackPointExtension>
            <ns3:hr>92</ns3:hr>
            <ns3:cad>0</ns3:cad>
          </ns3:TrackPointExtension>
        </extensions>
      </trkpt>
      <trkpt lat="37.94027768075466156005859375" lon="-107.1584208123385906219482421875">
        <ele>3329.800048828125</ele>
        <time>2026-01-06T22:27:08.000Z</time>
        <extensions>
          <ns3:TrackPointExtension>
            <ns3:hr>93</ns3:hr>
            <ns3:cad>0</ns3:cad>
          </ns3:TrackPointExtension>
        </extensions>
      </trkpt>
      <trkpt lat="37.94027768075466156005859375" lon="-107.1584208123385906219482421875">
        <ele>3330</ele>
        <time>2026-01-06T22:27:14.000Z</time>
        <extensions>
          <ns3:TrackPointExtension>
            <ns3:hr>94</ns3:hr>
            <ns3:cad>0</ns3:cad>
          </ns3:TrackPointExtension>
        </extensions>
      </trkpt>
      <trkpt lat="37.94027768075466156005859375" lon="-107.1584208123385906219482421875">
        <ele>3329.800048828125</ele>
        <time>2026-01-06T22:27:17.000Z</time>
        <extensions>
          <ns3:TrackPointExtension>
            <ns3:hr>94</ns3:hr>
            <ns3:cad>0</ns3:cad>
          </ns3:TrackPointExtension>
        </extensions>
      </trkpt>
      <trkpt lat="37.94027768075466156005859375" lon="-107.1584208123385906219482421875">
        <ele>3330</ele>
        <time>2026-01-06T22:27:23.000Z</time>
        <extensions>
          <ns3:TrackPointExtension>
            <ns3:hr>94</ns3:hr>
            <ns3:cad>0</ns3:cad>
          </ns3:TrackPointExtension>
        </extensions>
      </trkpt>
      <trkpt lat="37.94028111733496189117431640625" lon="-107.15841838158667087554931640625">
        <ele>3330</ele>
        <time>2026-01-06T22:27:27.000Z</time>
        <extensions>
          <ns3:TrackPointExtension>
            <ns3:hr>94</ns3:hr>
            <ns3:cad>0</ns3:cad>
          </ns3:TrackPointExtension>
        </extensions>
      </trkpt>
      <trkpt lat="37.94027726165950298309326171875" lon="-107.1584117598831653594970703125">
        <ele>3330.39990234375</ele>
        <time>2026-01-06T22:27:30.000Z</time>
        <extensions>
          <ns3:TrackPointExtension>
            <ns3:hr>94</ns3:hr>
            <ns3:cad>0</ns3:cad>
          </ns3:TrackPointExtension>
        </extensions>
      </trkpt>
      <trkpt lat="37.94027768075466156005859375" lon="-107.1584208123385906219482421875">
        <ele>3330.60009765625</ele>
        <time>2026-01-06T22:27:33.000Z</time>
        <extensions>
          <ns3:TrackPointExtension>
            <ns3:hr>95</ns3:hr>
            <ns3:cad>0</ns3:cad>
          </ns3:TrackPointExtension>
        </extensions>
      </trkpt>
      <trkpt lat="37.94027768075466156005859375" lon="-107.1584208123385906219482421875">
        <ele>3330.199951171875</ele>
        <time>2026-01-06T22:27:39.000Z</time>
        <extensions>
          <ns3:TrackPointExtension>
            <ns3:hr>97</ns3:hr>
            <ns3:cad>0</ns3:cad>
          </ns3:TrackPointExtension>
        </extensions>
      </trkpt>
      <trkpt lat="37.94027768075466156005859375" lon="-107.1584208123385906219482421875">
        <ele>3330.199951171875</ele>
        <time>2026-01-06T22:27:40.000Z</time>
        <extensions>
          <ns3:TrackPointExtension>
            <ns3:hr>95</ns3:hr>
            <ns3:cad>0</ns3:cad>
          </ns3:TrackPointExtension>
        </extensions>
      </trkpt>
      <trkpt lat="37.94027768075466156005859375" lon="-107.1584208123385906219482421875">
        <ele>3330.199951171875</ele>
        <time>2026-01-06T22:27:44.000Z</time>
        <extensions>
          <ns3:TrackPointExtension>
            <ns3:hr>92</ns3:hr>
            <ns3:cad>0</ns3:cad>
          </ns3:TrackPointExtension>
        </extensions>
      </trkpt>
      <trkpt lat="37.94027768075466156005859375" lon="-107.1584208123385906219482421875">
        <ele>3330.199951171875</ele>
        <time>2026-01-06T22:27:50.000Z</time>
        <extensions>
          <ns3:TrackPointExtension>
            <ns3:hr>92</ns3:hr>
            <ns3:cad>0</ns3:cad>
          </ns3:TrackPointExtension>
        </extensions>
      </trkpt>
      <trkpt lat="37.94027768075466156005859375" lon="-107.1584208123385906219482421875">
        <ele>3330.60009765625</ele>
        <time>2026-01-06T22:27:56.000Z</time>
        <extensions>
          <ns3:TrackPointExtension>
            <ns3:hr>93</ns3:hr>
            <ns3:cad>0</ns3:cad>
          </ns3:TrackPointExtension>
        </extensions>
      </trkpt>
      <trkpt lat="37.94027768075466156005859375" lon="-107.1584208123385906219482421875">
        <ele>3330.39990234375</ele>
        <time>2026-01-06T22:27:57.000Z</time>
        <extensions>
          <ns3:TrackPointExtension>
            <ns3:hr>93</ns3:hr>
            <ns3:cad>0</ns3:cad>
          </ns3:TrackPointExtension>
        </extensions>
      </trkpt>
      <trkpt lat="37.94025111012160778045654296875" lon="-107.15840689837932586669921875">
        <ele>3330.60009765625</ele>
        <time>2026-01-06T22:28:03.000Z</time>
        <extensions>
          <ns3:TrackPointExtension>
            <ns3:hr>94</ns3:hr>
            <ns3:cad>0</ns3:cad>
          </ns3:TrackPointExtension>
        </extensions>
      </trkpt>
      <trkpt lat="37.9402475059032440185546875" lon="-107.15841301716864109039306640625">
        <ele>3330.60009765625</ele>
        <time>2026-01-06T22:28:04.000Z</time>
        <extensions>
          <ns3:TrackPointExtension>
            <ns3:hr>93</ns3:hr>
            <ns3:cad>0</ns3:cad>
          </ns3:TrackPointExtension>
        </extensions>
      </trkpt>
      <trkpt lat="37.94024281203746795654296875" lon="-107.1584732830524444580078125">
        <ele>3329.39990234375</ele>
        <time>2026-01-06T22:28:10.000Z</time>
        <extensions>
          <ns3:TrackPointExtension>
            <ns3:hr>94</ns3:hr>
            <ns3:cad>0</ns3:cad>
          </ns3:TrackPointExtension>
        </extensions>
      </trkpt>
      <trkpt lat="37.94023702852427959442138671875" lon="-107.15848141349852085113525390625">
        <ele>3329.199951171875</ele>
        <time>2026-01-06T22:28:11.000Z</time>
        <extensions>
          <ns3:TrackPointExtension>
            <ns3:hr>94</ns3:hr>
            <ns3:cad>0</ns3:cad>
          </ns3:TrackPointExtension>
        </extensions>
      </trkpt>
      <trkpt lat="37.94020014815032482147216796875" lon="-107.158465571701526641845703125">
        <ele>3328</ele>
        <time>2026-01-06T22:28:15.000Z</time>
        <extensions>
          <ns3:TrackPointExtension>
            <ns3:hr>94</ns3:hr>
            <ns3:cad>0</ns3:cad>
          </ns3:TrackPointExtension>
        </extensions>
      </trkpt>
      <trkpt lat="37.94019143097102642059326171875" lon="-107.15845157392323017120361328125">
        <ele>3327.60009765625</ele>
        <time>2026-01-06T22:28:16.000Z</time>
        <extensions>
          <ns3:TrackPointExtension>
            <ns3:hr>94</ns3:hr>
            <ns3:cad>0</ns3:cad>
          </ns3:TrackPointExtension>
        </extensions>
      </trkpt>
      <trkpt lat="37.94017718173563480377197265625" lon="-107.1584214828908443450927734375">
        <ele>3326.800048828125</ele>
        <time>2026-01-06T22:28:19.000Z</time>
        <extensions>
          <ns3:TrackPointExtension>
            <ns3:hr>94</ns3:hr>
            <ns3:cad>0</ns3:cad>
          </ns3:TrackPointExtension>
        </extensions>
      </trkpt>
      <trkpt lat="37.94016192667186260223388671875" lon="-107.15838133357465267181396484375">
        <ele>3326.39990234375</ele>
        <time>2026-01-06T22:28:22.000Z</time>
        <extensions>
          <ns3:TrackPointExtension>
            <ns3:hr>93</ns3:hr>
            <ns3:cad>0</ns3:cad>
          </ns3:TrackPointExtension>
        </extensions>
      </trkpt>
      <trkpt lat="37.9401098750531673431396484375" lon="-107.15830438770353794097900390625">
        <ele>3326</ele>
        <time>2026-01-06T22:28:28.000Z</time>
        <extensions>
          <ns3:TrackPointExtension>
            <ns3:hr>93</ns3:hr>
            <ns3:cad>0</ns3:cad>
          </ns3:TrackPointExtension>
        </extensions>
      </trkpt>
      <trkpt lat="37.9401041753590106964111328125" lon="-107.15829164721071720123291015625">
        <ele>3325.800048828125</ele>
        <time>2026-01-06T22:28:29.000Z</time>
        <extensions>
          <ns3:TrackPointExtension>
            <ns3:hr>93</ns3:hr>
            <ns3:cad>0</ns3:cad>
          </ns3:TrackPointExtension>
        </extensions>
      </trkpt>
      <trkpt lat="37.9400666244328022003173828125" lon="-107.15826365165412425994873046875">
        <ele>3324.800048828125</ele>
        <time>2026-01-06T22:28:33.000Z</time>
        <extensions>
          <ns3:TrackPointExtension>
            <ns3:hr>94</ns3:hr>
            <ns3:cad>0</ns3:cad>
          </ns3:TrackPointExtension>
        </extensions>
      </trkpt>
      <trkpt lat="37.9400575719773769378662109375" lon="-107.1582721173763275146484375">
        <ele>3324.800048828125</ele>
        <time>2026-01-06T22:28:34.000Z</time>
        <extensions>
          <ns3:TrackPointExtension>
            <ns3:hr>93</ns3:hr>
            <ns3:cad>0</ns3:cad>
          </ns3:TrackPointExtension>
        </extensions>
      </trkpt>
      <trkpt lat="37.94005581177771091461181640625" lon="-107.15828343294560909271240234375">
        <ele>3324.60009765625</ele>
        <time>2026-01-06T22:28:35.000Z</time>
        <extensions>
          <ns3:TrackPointExtension>
            <ns3:hr>93</ns3:hr>
            <ns3:cad>0</ns3:cad>
          </ns3:TrackPointExtension>
        </extensions>
      </trkpt>
      <trkpt lat="37.940052039921283721923828125" lon="-107.15836775489151477813720703125">
        <ele>3324.199951171875</ele>
        <time>2026-01-06T22:28:41.000Z</time>
        <extensions>
          <ns3:TrackPointExtension>
            <ns3:hr>93</ns3:hr>
            <ns3:cad>0</ns3:cad>
          </ns3:TrackPointExtension>
        </extensions>
      </trkpt>
      <trkpt lat="37.94005237519741058349609375" lon="-107.15838150121271610260009765625">
        <ele>3324.199951171875</ele>
        <time>2026-01-06T22:28:42.000Z</time>
        <extensions>
          <ns3:TrackPointExtension>
            <ns3:hr>93</ns3:hr>
            <ns3:cad>0</ns3:cad>
          </ns3:TrackPointExtension>
        </extensions>
      </trkpt>
      <trkpt lat="37.9400503635406494140625" lon="-107.15845392085611820220947265625">
        <ele>3323.800048828125</ele>
        <time>2026-01-06T22:28:47.000Z</time>
        <extensions>
          <ns3:TrackPointExtension>
            <ns3:hr>93</ns3:hr>
            <ns3:cad>0</ns3:cad>
          </ns3:TrackPointExtension>
        </extensions>
      </trkpt>
      <trkpt lat="37.9400517046451568603515625" lon="-107.1584694273769855499267578125">
        <ele>3323.39990234375</ele>
        <time>2026-01-06T22:28:48.000Z</time>
        <extensions>
          <ns3:TrackPointExtension>
            <ns3:hr>93</ns3:hr>
            <ns3:cad>0</ns3:cad>
          </ns3:TrackPointExtension>
        </extensions>
      </trkpt>
      <trkpt lat="37.940049357712268829345703125" lon="-107.15852969326078891754150390625">
        <ele>3322.800048828125</ele>
        <time>2026-01-06T22:28:54.000Z</time>
        <extensions>
          <ns3:TrackPointExtension>
            <ns3:hr>91</ns3:hr>
            <ns3:cad>0</ns3:cad>
          </ns3:TrackPointExtension>
        </extensions>
      </trkpt>
      <trkpt lat="37.9400418139994144439697265625" lon="-107.15853455476462841033935546875">
        <ele>3322.800048828125</ele>
        <time>2026-01-06T22:28:55.000Z</time>
        <extensions>
          <ns3:TrackPointExtension>
            <ns3:hr>91</ns3:hr>
            <ns3:cad>0</ns3:cad>
          </ns3:TrackPointExtension>
        </extensions>
      </trkpt>
      <trkpt lat="37.94003301300108432769775390625" lon="-107.1585411764681339263916015625">
        <ele>3322.800048828125</ele>
        <time>2026-01-06T22:29:01.000Z</time>
        <extensions>
          <ns3:TrackPointExtension>
            <ns3:hr>91</ns3:hr>
            <ns3:cad>0</ns3:cad>
          </ns3:TrackPointExtension>
        </extensions>
      </trkpt>
      <trkpt lat="37.94003301300108432769775390625" lon="-107.1585411764681339263916015625">
        <ele>3323</ele>
        <time>2026-01-06T22:29:02.000Z</time>
        <extensions>
          <ns3:TrackPointExtension>
            <ns3:hr>91</ns3:hr>
            <ns3:cad>0</ns3:cad>
          </ns3:TrackPointExtension>
        </extensions>
      </trkpt>
      <trkpt lat="37.9400337673723697662353515625" lon="-107.15856959111988544464111328125">
        <ele>3323.39990234375</ele>
        <time>2026-01-06T22:29:08.000Z</time>
        <extensions>
          <ns3:TrackPointExtension>
            <ns3:hr>90</ns3:hr>
            <ns3:cad>0</ns3:cad>
          </ns3:TrackPointExtension>
        </extensions>
      </trkpt>
      <trkpt lat="37.94004206545650959014892578125" lon="-107.1585944853723049163818359375">
        <ele>3322.60009765625</ele>
        <time>2026-01-06T22:29:11.000Z</time>
        <extensions>
          <ns3:TrackPointExtension>
            <ns3:hr>89</ns3:hr>
            <ns3:cad>0</ns3:cad>
          </ns3:TrackPointExtension>
        </extensions>
      </trkpt>
      <trkpt lat="37.94004508294165134429931640625" lon="-107.1586119197309017181396484375">
        <ele>3322.39990234375</ele>
        <time>2026-01-06T22:29:15.000Z</time>
        <extensions>
          <ns3:TrackPointExtension>
            <ns3:hr>90</ns3:hr>
            <ns3:cad>0</ns3:cad>
          </ns3:TrackPointExtension>
        </extensions>
      </trkpt>
      <trkpt lat="37.9400451667606830596923828125" lon="-107.15864670462906360626220703125">
        <ele>3322.60009765625</ele>
        <time>2026-01-06T22:29:21.000Z</time>
        <extensions>
          <ns3:TrackPointExtension>
            <ns3:hr>90</ns3:hr>
            <ns3:cad>0</ns3:cad>
          </ns3:TrackPointExtension>
        </extensions>
      </trkpt>
      <trkpt lat="37.94004441238939762115478515625" lon="-107.1586601994931697845458984375">
        <ele>3322.39990234375</ele>
        <time>2026-01-06T22:29:22.000Z</time>
        <extensions>
          <ns3:TrackPointExtension>
            <ns3:hr>90</ns3:hr>
            <ns3:cad>0</ns3:cad>
          </ns3:TrackPointExtension>
        </extensions>
      </trkpt>
      <trkpt lat="37.94004575349390506744384765625" lon="-107.1587182022631168365478515625">
        <ele>3321.800048828125</ele>
        <time>2026-01-06T22:29:28.000Z</time>
        <extensions>
          <ns3:TrackPointExtension>
            <ns3:hr>90</ns3:hr>
            <ns3:cad>0</ns3:cad>
          </ns3:TrackPointExtension>
        </extensions>
      </trkpt>
      <trkpt lat="37.94000149704515933990478515625" lon="-107.15876765549182891845703125">
        <ele>3322.199951171875</ele>
        <time>2026-01-06T22:29:34.000Z</time>
        <extensions>
          <ns3:TrackPointExtension>
            <ns3:hr>90</ns3:hr>
            <ns3:cad>49</ns3:cad>
          </ns3:TrackPointExtension>
        </extensions>
      </trkpt>
      <trkpt lat="37.93998791836202144622802734375" lon="-107.15877343900501728057861328125">
        <ele>3322.39990234375</ele>
        <time>2026-01-06T22:29:35.000Z</time>
        <extensions>
          <ns3:TrackPointExtension>
            <ns3:hr>90</ns3:hr>
            <ns3:cad>48</ns3:cad>
          </ns3:TrackPointExtension>
        </extensions>
      </trkpt>
      <trkpt lat="37.9399425722658634185791015625" lon="-107.15879070572555065155029296875">
        <ele>3322.60009765625</ele>
        <time>2026-01-06T22:29:40.000Z</time>
        <extensions>
          <ns3:TrackPointExtension>
            <ns3:hr>89</ns3:hr>
            <ns3:cad>49</ns3:cad>
          </ns3:TrackPointExtension>
        </extensions>
      </trkpt>
      <trkpt lat="37.93987476266920566558837890625" lon="-107.1587963216006755828857421875">
        <ele>3322.199951171875</ele>
        <time>2026-01-06T22:29:46.000Z</time>
        <extensions>
          <ns3:TrackPointExtension>
            <ns3:hr>89</ns3:hr>
            <ns3:cad>50</ns3:cad>
          </ns3:TrackPointExtension>
        </extensions>
      </trkpt>
      <trkpt lat="37.93980871327221393585205078125" lon="-107.15881383977830410003662109375">
        <ele>3322.199951171875</ele>
        <time>2026-01-06T22:29:52.000Z</time>
        <extensions>
          <ns3:TrackPointExtension>
            <ns3:hr>89</ns3:hr>
            <ns3:cad>50</ns3:cad>
          </ns3:TrackPointExtension>
        </extensions>
      </trkpt>
      <trkpt lat="37.939797230064868927001953125" lon="-107.15881903655827045440673828125">
        <ele>3322.199951171875</ele>
        <time>2026-01-06T22:29:53.000Z</time>
        <extensions>
          <ns3:TrackPointExtension>
            <ns3:hr>88</ns3:hr>
            <ns3:cad>50</ns3:cad>
          </ns3:TrackPointExtension>
        </extensions>
      </trkpt>
      <trkpt lat="37.9397518001496791839599609375" lon="-107.15887972153723239898681640625">
        <ele>3322.199951171875</ele>
        <time>2026-01-06T22:29:59.000Z</time>
        <extensions>
          <ns3:TrackPointExtension>
            <ns3:hr>89</ns3:hr>
            <ns3:cad>52</ns3:cad>
          </ns3:TrackPointExtension>
        </extensions>
      </trkpt>
      <trkpt lat="37.9397548176348209381103515625" lon="-107.15889237821102142333984375">
        <ele>3322.199951171875</ele>
        <time>2026-01-06T22:30:00.000Z</time>
        <extensions>
          <ns3:TrackPointExtension>
            <ns3:hr>89</ns3:hr>
            <ns3:cad>52</ns3:cad>
          </ns3:TrackPointExtension>
        </extensions>
      </trkpt>
      <trkpt lat="37.9397709108889102935791015625" lon="-107.15894040651619434356689453125">
        <ele>3321.800048828125</ele>
        <time>2026-01-06T22:30:04.000Z</time>
        <extensions>
          <ns3:TrackPointExtension>
            <ns3:hr>87</ns3:hr>
            <ns3:cad>51</ns3:cad>
          </ns3:TrackPointExtension>
        </extensions>
      </trkpt>
      <trkpt lat="37.93980720452964305877685546875" lon="-107.159012742340564727783203125">
        <ele>3321.800048828125</ele>
        <time>2026-01-06T22:30:10.000Z</time>
        <extensions>
          <ns3:TrackPointExtension>
            <ns3:hr>86</ns3:hr>
            <ns3:cad>53</ns3:cad>
          </ns3:TrackPointExtension>
        </extensions>
      </trkpt>
      <trkpt lat="37.939828746020793914794921875" lon="-107.15904501266777515411376953125">
        <ele>3321.60009765625</ele>
        <time>2026-01-06T22:30:13.000Z</time>
        <extensions>
          <ns3:TrackPointExtension>
            <ns3:hr>85</ns3:hr>
            <ns3:cad>54</ns3:cad>
          </ns3:TrackPointExtension>
        </extensions>
      </trkpt>
      <trkpt lat="37.93986453674733638763427734375" lon="-107.15910024940967559814453125">
        <ele>3321.199951171875</ele>
        <time>2026-01-06T22:30:18.000Z</time>
        <extensions>
          <ns3:TrackPointExtension>
            <ns3:hr>85</ns3:hr>
            <ns3:cad>53</ns3:cad>
          </ns3:TrackPointExtension>
        </extensions>
      </trkpt>
      <trkpt lat="37.93990426696836948394775390625" lon="-107.159157581627368927001953125">
        <ele>3321.60009765625</ele>
        <time>2026-01-06T22:30:24.000Z</time>
        <extensions>
          <ns3:TrackPointExtension>
            <ns3:hr>86</ns3:hr>
            <ns3:cad>53</ns3:cad>
          </ns3:TrackPointExtension>
        </extensions>
      </trkpt>
      <trkpt lat="37.93990460224449634552001953125" lon="-107.1591611020267009735107421875">
        <ele>3321.39990234375</ele>
        <time>2026-01-06T22:30:26.000Z</time>
        <extensions>
          <ns3:TrackPointExtension>
            <ns3:hr>86</ns3:hr>
            <ns3:cad>0</ns3:cad>
          </ns3:TrackPointExtension>
        </extensions>
      </trkpt>
      <trkpt lat="37.9399308376014232635498046875" lon="-107.15919773094356060028076171875">
        <ele>3321.39990234375</ele>
        <time>2026-01-06T22:30:32.000Z</time>
        <extensions>
          <ns3:TrackPointExtension>
            <ns3:hr>88</ns3:hr>
            <ns3:cad>0</ns3:cad>
          </ns3:TrackPointExtension>
        </extensions>
      </trkpt>
      <trkpt lat="37.93993729166686534881591796875" lon="-107.159209214150905609130859375">
        <ele>3321.39990234375</ele>
        <time>2026-01-06T22:30:33.000Z</time>
        <extensions>
          <ns3:TrackPointExtension>
            <ns3:hr>89</ns3:hr>
            <ns3:cad>0</ns3:cad>
          </ns3:TrackPointExtension>
        </extensions>
      </trkpt>
      <trkpt lat="37.9400009103119373321533203125" lon="-107.15926294215023517608642578125">
        <ele>3321.60009765625</ele>
        <time>2026-01-06T22:30:39.000Z</time>
        <extensions>
          <ns3:TrackPointExtension>
            <ns3:hr>90</ns3:hr>
            <ns3:cad>51</ns3:cad>
          </ns3:TrackPointExtension>
        </extensions>
      </trkpt>
      <trkpt lat="37.94001172296702861785888671875" lon="-107.15926679782569408416748046875">
        <ele>3321.60009765625</ele>
        <time>2026-01-06T22:30:40.000Z</time>
        <extensions>
          <ns3:TrackPointExtension>
            <ns3:hr>90</ns3:hr>
            <ns3:cad>52</ns3:cad>
          </ns3:TrackPointExtension>
        </extensions>
      </trkpt>
      <trkpt lat="37.94007961638271808624267578125" lon="-107.15927685610949993133544921875">
        <ele>3321.800048828125</ele>
        <time>2026-01-06T22:30:46.000Z</time>
        <extensions>
          <ns3:TrackPointExtension>
            <ns3:hr>93</ns3:hr>
            <ns3:cad>51</ns3:cad>
          </ns3:TrackPointExtension>
        </extensions>
      </trkpt>
      <trkpt lat="37.94008791446685791015625" lon="-107.159272246062755584716796875">
        <ele>3321.800048828125</ele>
        <time>2026-01-06T22:30:47.000Z</time>
        <extensions>
          <ns3:TrackPointExtension>
            <ns3:hr>93</ns3:hr>
            <ns3:cad>51</ns3:cad>
          </ns3:TrackPointExtension>
        </extensions>
      </trkpt>
      <trkpt lat="37.940097637474536895751953125" lon="-107.1592657081782817840576171875">
        <ele>3322.199951171875</ele>
        <time>2026-01-06T22:30:51.000Z</time>
        <extensions>
          <ns3:TrackPointExtension>
            <ns3:hr>96</ns3:hr>
            <ns3:cad>51</ns3:cad>
          </ns3:TrackPointExtension>
        </extensions>
      </trkpt>
      <trkpt lat="37.9401008225977420806884765625" lon="-107.159267552196979522705078125">
        <ele>3322</ele>
        <time>2026-01-06T22:30:55.000Z</time>
        <extensions>
          <ns3:TrackPointExtension>
            <ns3:hr>98</ns3:hr>
            <ns3:cad>0</ns3:cad>
          </ns3:TrackPointExtension>
        </extensions>
      </trkpt>
      <trkpt lat="37.94009939767420291900634765625" lon="-107.15926696546375751495361328125">
        <ele>3322.199951171875</ele>
        <time>2026-01-06T22:31:01.000Z</time>
        <extensions>
          <ns3:TrackPointExtension>
            <ns3:hr>97</ns3:hr>
            <ns3:cad>0</ns3:cad>
          </ns3:TrackPointExtension>
        </extensions>
      </trkpt>
      <trkpt lat="37.94009939767420291900634765625" lon="-107.15926696546375751495361328125">
        <ele>3321.800048828125</ele>
        <time>2026-01-06T22:31:06.000Z</time>
        <extensions>
          <ns3:TrackPointExtension>
            <ns3:hr>95</ns3:hr>
            <ns3:cad>0</ns3:cad>
          </ns3:TrackPointExtension>
        </extensions>
      </trkpt>
      <trkpt lat="37.94009939767420291900634765625" lon="-107.15926696546375751495361328125">
        <ele>3322</ele>
        <time>2026-01-06T22:31:12.000Z</time>
        <extensions>
          <ns3:TrackPointExtension>
            <ns3:hr>96</ns3:hr>
            <ns3:cad>0</ns3:cad>
          </ns3:TrackPointExtension>
        </extensions>
      </trkpt>
      <trkpt lat="37.94009939767420291900634765625" lon="-107.15926696546375751495361328125">
        <ele>3322.199951171875</ele>
        <time>2026-01-06T22:31:18.000Z</time>
        <extensions>
          <ns3:TrackPointExtension>
            <ns3:hr>93</ns3:hr>
            <ns3:cad>0</ns3:cad>
          </ns3:TrackPointExtension>
        </extensions>
      </trkpt>
      <trkpt lat="37.94010140933096408843994140625" lon="-107.1592670492827892303466796875">
        <ele>3322.199951171875</ele>
        <time>2026-01-06T22:31:24.000Z</time>
        <extensions>
          <ns3:TrackPointExtension>
            <ns3:hr>94</ns3:hr>
            <ns3:cad>0</ns3:cad>
          </ns3:TrackPointExtension>
        </extensions>
      </trkpt>
      <trkpt lat="37.94010308571159839630126953125" lon="-107.15926009230315685272216796875">
        <ele>3322.39990234375</ele>
        <time>2026-01-06T22:31:25.000Z</time>
        <extensions>
          <ns3:TrackPointExtension>
            <ns3:hr>93</ns3:hr>
            <ns3:cad>0</ns3:cad>
          </ns3:TrackPointExtension>
        </extensions>
      </trkpt>
      <trkpt lat="37.94009939767420291900634765625" lon="-107.15926696546375751495361328125">
        <ele>3322.60009765625</ele>
        <time>2026-01-06T22:31:27.000Z</time>
        <extensions>
          <ns3:TrackPointExtension>
            <ns3:hr>93</ns3:hr>
            <ns3:cad>0</ns3:cad>
          </ns3:TrackPointExtension>
        </extensions>
      </trkpt>
      <trkpt lat="37.94009939767420291900634765625" lon="-107.15926696546375751495361328125">
        <ele>3322.39990234375</ele>
        <time>2026-01-06T22:31:32.000Z</time>
        <extensions>
          <ns3:TrackPointExtension>
            <ns3:hr>93</ns3:hr>
            <ns3:cad>0</ns3:cad>
          </ns3:TrackPointExtension>
        </extensions>
      </trkpt>
      <trkpt lat="37.94010157696902751922607421875" lon="-107.15925908647477626800537109375">
        <ele>3322.39990234375</ele>
        <time>2026-01-06T22:31:37.000Z</time>
        <extensions>
          <ns3:TrackPointExtension>
            <ns3:hr>96</ns3:hr>
            <ns3:cad>0</ns3:cad>
          </ns3:TrackPointExtension>
        </extensions>
      </trkpt>
      <trkpt lat="37.9400988109409809112548828125" lon="-107.159252800047397613525390625">
        <ele>3322.800048828125</ele>
        <time>2026-01-06T22:31:40.000Z</time>
        <extensions>
          <ns3:TrackPointExtension>
            <ns3:hr>97</ns3:hr>
            <ns3:cad>0</ns3:cad>
          </ns3:TrackPointExtension>
        </extensions>
      </trkpt>
      <trkpt lat="37.94010241515934467315673828125" lon="-107.15925690717995166778564453125">
        <ele>3322.39990234375</ele>
        <time>2026-01-06T22:31:46.000Z</time>
        <extensions>
          <ns3:TrackPointExtension>
            <ns3:hr>96</ns3:hr>
            <ns3:cad>0</ns3:cad>
          </ns3:TrackPointExtension>
        </extensions>
      </trkpt>
      <trkpt lat="37.9401024989783763885498046875" lon="-107.159261517226696014404296875">
        <ele>3322.39990234375</ele>
        <time>2026-01-06T22:31:47.000Z</time>
        <extensions>
          <ns3:TrackPointExtension>
            <ns3:hr>96</ns3:hr>
            <ns3:cad>0</ns3:cad>
          </ns3:TrackPointExtension>
        </extensions>
      </trkpt>
      <trkpt lat="37.94009939767420291900634765625" lon="-107.15926696546375751495361328125">
        <ele>3322.60009765625</ele>
        <time>2026-01-06T22:31:53.000Z</time>
        <extensions>
          <ns3:TrackPointExtension>
            <ns3:hr>96</ns3:hr>
            <ns3:cad>0</ns3:cad>
          </ns3:TrackPointExtension>
        </extensions>
      </trkpt>
      <trkpt lat="37.94009939767420291900634765625" lon="-107.15926696546375751495361328125">
        <ele>3322.60009765625</ele>
        <time>2026-01-06T22:31:55.000Z</time>
        <extensions>
          <ns3:TrackPointExtension>
            <ns3:hr>95</ns3:hr>
            <ns3:cad>0</ns3:cad>
          </ns3:TrackPointExtension>
        </extensions>
      </trkpt>
      <trkpt lat="37.9401011578738689422607421875" lon="-107.1592657081782817840576171875">
        <ele>3322.39990234375</ele>
        <time>2026-01-06T22:32:01.000Z</time>
        <extensions>
          <ns3:TrackPointExtension>
            <ns3:hr>95</ns3:hr>
            <ns3:cad>0</ns3:cad>
          </ns3:TrackPointExtension>
        </extensions>
      </trkpt>
      <trkpt lat="37.94009939767420291900634765625" lon="-107.15926696546375751495361328125">
        <ele>3322.39990234375</ele>
        <time>2026-01-06T22:32:04.000Z</time>
        <extensions>
          <ns3:TrackPointExtension>
            <ns3:hr>95</ns3:hr>
            <ns3:cad>0</ns3:cad>
          </ns3:TrackPointExtension>
        </extensions>
      </trkpt>
      <trkpt lat="37.94009939767420291900634765625" lon="-107.15926696546375751495361328125">
        <ele>3323</ele>
        <time>2026-01-06T22:32:10.000Z</time>
        <extensions>
          <ns3:TrackPointExtension>
            <ns3:hr>97</ns3:hr>
            <ns3:cad>0</ns3:cad>
          </ns3:TrackPointExtension>
        </extensions>
      </trkpt>
      <trkpt lat="37.94009939767420291900634765625" lon="-107.15926696546375751495361328125">
        <ele>3323</ele>
        <time>2026-01-06T22:32:12.000Z</time>
        <extensions>
          <ns3:TrackPointExtension>
            <ns3:hr>96</ns3:hr>
            <ns3:cad>0</ns3:cad>
          </ns3:TrackPointExtension>
        </extensions>
      </trkpt>
      <trkpt lat="37.94009939767420291900634765625" lon="-107.15926696546375751495361328125">
        <ele>3323</ele>
        <time>2026-01-06T22:32:14.000Z</time>
        <extensions>
          <ns3:TrackPointExtension>
            <ns3:hr>92</ns3:hr>
            <ns3:cad>0</ns3:cad>
          </ns3:TrackPointExtension>
        </extensions>
      </trkpt>
      <trkpt lat="37.9401065222918987274169921875" lon="-107.15926629491150379180908203125">
        <ele>3323.199951171875</ele>
        <time>2026-01-06T22:32:19.000Z</time>
        <extensions>
          <ns3:TrackPointExtension>
            <ns3:hr>90</ns3:hr>
            <ns3:cad>0</ns3:cad>
          </ns3:TrackPointExtension>
        </extensions>
      </trkpt>
      <trkpt lat="37.9401001520454883575439453125" lon="-107.15926579199731349945068359375">
        <ele>3323</ele>
        <time>2026-01-06T22:32:25.000Z</time>
        <extensions>
          <ns3:TrackPointExtension>
            <ns3:hr>90</ns3:hr>
            <ns3:cad>0</ns3:cad>
          </ns3:TrackPointExtension>
        </extensions>
      </trkpt>
      <trkpt lat="37.9400961287319660186767578125" lon="-107.15927216224372386932373046875">
        <ele>3323</ele>
        <time>2026-01-06T22:32:26.000Z</time>
        <extensions>
          <ns3:TrackPointExtension>
            <ns3:hr>90</ns3:hr>
            <ns3:cad>0</ns3:cad>
          </ns3:TrackPointExtension>
        </extensions>
      </trkpt>
      <trkpt lat="37.94009939767420291900634765625" lon="-107.15926696546375751495361328125">
        <ele>3323.199951171875</ele>
        <time>2026-01-06T22:32:31.000Z</time>
        <extensions>
          <ns3:TrackPointExtension>
            <ns3:hr>90</ns3:hr>
            <ns3:cad>0</ns3:cad>
          </ns3:TrackPointExtension>
        </extensions>
      </trkpt>
      <trkpt lat="37.9401321709156036376953125" lon="-107.15924550779163837432861328125">
        <ele>3323.199951171875</ele>
        <time>2026-01-06T22:32:36.000Z</time>
        <extensions>
          <ns3:TrackPointExtension>
            <ns3:hr>91</ns3:hr>
            <ns3:cad>53</ns3:cad>
          </ns3:TrackPointExtension>
        </extensions>
      </trkpt>
      <trkpt lat="37.9401350207626819610595703125" lon="-107.15923972427845001220703125">
        <ele>3323.199951171875</ele>
        <time>2026-01-06T22:32:42.000Z</time>
        <extensions>
          <ns3:TrackPointExtension>
            <ns3:hr>91</ns3:hr>
            <ns3:cad>0</ns3:cad>
          </ns3:TrackPointExtension>
        </extensions>
      </trkpt>
      <trkpt lat="37.9401350207626819610595703125" lon="-107.15923972427845001220703125">
        <ele>3323.39990234375</ele>
        <time>2026-01-06T22:32:45.000Z</time>
        <extensions>
          <ns3:TrackPointExtension>
            <ns3:hr>94</ns3:hr>
            <ns3:cad>0</ns3:cad>
          </ns3:TrackPointExtension>
        </extensions>
      </trkpt>
      <trkpt lat="37.9401350207626819610595703125" lon="-107.15923972427845001220703125">
        <ele>3323.199951171875</ele>
        <time>2026-01-06T22:32:48.000Z</time>
        <extensions>
          <ns3:TrackPointExtension>
            <ns3:hr>97</ns3:hr>
            <ns3:cad>0</ns3:cad>
          </ns3:TrackPointExtension>
        </extensions>
      </trkpt>
      <trkpt lat="37.9401350207626819610595703125" lon="-107.15923972427845001220703125">
        <ele>3323</ele>
        <time>2026-01-06T22:32:50.000Z</time>
        <extensions>
          <ns3:TrackPointExtension>
            <ns3:hr>97</ns3:hr>
            <ns3:cad>0</ns3:cad>
          </ns3:TrackPointExtension>
        </extensions>
      </trkpt>
      <trkpt lat="37.9401350207626819610595703125" lon="-107.15923972427845001220703125">
        <ele>3323.199951171875</ele>
        <time>2026-01-06T22:32:56.000Z</time>
        <extensions>
          <ns3:TrackPointExtension>
            <ns3:hr>95</ns3:hr>
            <ns3:cad>0</ns3:cad>
          </ns3:TrackPointExtension>
        </extensions>
      </trkpt>
      <trkpt lat="37.9401350207626819610595703125" lon="-107.15923972427845001220703125">
        <ele>3323</ele>
        <time>2026-01-06T22:32:58.000Z</time>
        <extensions>
          <ns3:TrackPointExtension>
            <ns3:hr>95</ns3:hr>
            <ns3:cad>0</ns3:cad>
          </ns3:TrackPointExtension>
        </extensions>
      </trkpt>
      <trkpt lat="37.9401350207626819610595703125" lon="-107.15923972427845001220703125">
        <ele>3323</ele>
        <time>2026-01-06T22:33:04.000Z</time>
        <extensions>
          <ns3:TrackPointExtension>
            <ns3:hr>92</ns3:hr>
            <ns3:cad>0</ns3:cad>
          </ns3:TrackPointExtension>
        </extensions>
      </trkpt>
      <trkpt lat="37.9401350207626819610595703125" lon="-107.15923972427845001220703125">
        <ele>3323</ele>
        <time>2026-01-06T22:33:10.000Z</time>
        <extensions>
          <ns3:TrackPointExtension>
            <ns3:hr>93</ns3:hr>
            <ns3:cad>0</ns3:cad>
          </ns3:TrackPointExtension>
        </extensions>
      </trkpt>
      <trkpt lat="37.9401350207626819610595703125" lon="-107.15923972427845001220703125">
        <ele>3323.39990234375</ele>
        <time>2026-01-06T22:33:15.000Z</time>
        <extensions>
          <ns3:TrackPointExtension>
            <ns3:hr>91</ns3:hr>
            <ns3:cad>0</ns3:cad>
          </ns3:TrackPointExtension>
        </extensions>
      </trkpt>
      <trkpt lat="37.9401350207626819610595703125" lon="-107.15923972427845001220703125">
        <ele>3323.39990234375</ele>
        <time>2026-01-06T22:33:16.000Z</time>
        <extensions>
          <ns3:TrackPointExtension>
            <ns3:hr>87</ns3:hr>
            <ns3:cad>0</ns3:cad>
          </ns3:TrackPointExtension>
        </extensions>
      </trkpt>
      <trkpt lat="37.9401350207626819610595703125" lon="-107.15923972427845001220703125">
        <ele>3323.39990234375</ele>
        <time>2026-01-06T22:33:17.000Z</time>
        <extensions>
          <ns3:TrackPointExtension>
            <ns3:hr>83</ns3:hr>
            <ns3:cad>0</ns3:cad>
          </ns3:TrackPointExtension>
        </extensions>
      </trkpt>
      <trkpt lat="37.9401350207626819610595703125" lon="-107.15923972427845001220703125">
        <ele>3323.39990234375</ele>
        <time>2026-01-06T22:33:18.000Z</time>
        <extensions>
          <ns3:TrackPointExtension>
            <ns3:hr>83</ns3:hr>
            <ns3:cad>0</ns3:cad>
          </ns3:TrackPointExtension>
        </extensions>
      </trkpt>
      <trkpt lat="37.9401350207626819610595703125" lon="-107.15923972427845001220703125">
        <ele>3323.39990234375</ele>
        <time>2026-01-06T22:33:24.000Z</time>
        <extensions>
          <ns3:TrackPointExtension>
            <ns3:hr>83</ns3:hr>
            <ns3:cad>0</ns3:cad>
          </ns3:TrackPointExtension>
        </extensions>
      </trkpt>
      <trkpt lat="37.9401350207626819610595703125" lon="-107.15923972427845001220703125">
        <ele>3323.60009765625</ele>
        <time>2026-01-06T22:33:25.000Z</time>
        <extensions>
          <ns3:TrackPointExtension>
            <ns3:hr>83</ns3:hr>
            <ns3:cad>0</ns3:cad>
          </ns3:TrackPointExtension>
        </extensions>
      </trkpt>
      <trkpt lat="37.9401350207626819610595703125" lon="-107.15923972427845001220703125">
        <ele>3323.60009765625</ele>
        <time>2026-01-06T22:33:31.000Z</time>
        <extensions>
          <ns3:TrackPointExtension>
            <ns3:hr>83</ns3:hr>
            <ns3:cad>0</ns3:cad>
          </ns3:TrackPointExtension>
        </extensions>
      </trkpt>
      <trkpt lat="37.94013041071593761444091796875" lon="-107.15923025272786617279052734375">
        <ele>3323.39990234375</ele>
        <time>2026-01-06T22:33:36.000Z</time>
        <extensions>
          <ns3:TrackPointExtension>
            <ns3:hr>84</ns3:hr>
            <ns3:cad>0</ns3:cad>
          </ns3:TrackPointExtension>
        </extensions>
      </trkpt>
      <trkpt lat="37.94013024307787418365478515625" lon="-107.15922455303370952606201171875">
        <ele>3323.39990234375</ele>
        <time>2026-01-06T22:33:42.000Z</time>
        <extensions>
          <ns3:TrackPointExtension>
            <ns3:hr>87</ns3:hr>
            <ns3:cad>0</ns3:cad>
          </ns3:TrackPointExtension>
        </extensions>
      </trkpt>
      <trkpt lat="37.94013091363012790679931640625" lon="-107.15922254137694835662841796875">
        <ele>3323.199951171875</ele>
        <time>2026-01-06T22:33:44.000Z</time>
        <extensions>
          <ns3:TrackPointExtension>
            <ns3:hr>88</ns3:hr>
            <ns3:cad>0</ns3:cad>
          </ns3:TrackPointExtension>
        </extensions>
      </trkpt>
      <trkpt lat="37.94012320227921009063720703125" lon="-107.1592258103191852569580078125">
        <ele>3323.39990234375</ele>
        <time>2026-01-06T22:33:50.000Z</time>
        <extensions>
          <ns3:TrackPointExtension>
            <ns3:hr>89</ns3:hr>
            <ns3:cad>0</ns3:cad>
          </ns3:TrackPointExtension>
        </extensions>
      </trkpt>
      <trkpt lat="37.9401162452995777130126953125" lon="-107.1592284925282001495361328125">
        <ele>3323.60009765625</ele>
        <time>2026-01-06T22:33:52.000Z</time>
        <extensions>
          <ns3:TrackPointExtension>
            <ns3:hr>89</ns3:hr>
            <ns3:cad>0</ns3:cad>
          </ns3:TrackPointExtension>
        </extensions>
      </trkpt>
      <trkpt lat="37.94011113233864307403564453125" lon="-107.159236036241054534912109375">
        <ele>3323.39990234375</ele>
        <time>2026-01-06T22:33:58.000Z</time>
        <extensions>
          <ns3:TrackPointExtension>
            <ns3:hr>87</ns3:hr>
            <ns3:cad>0</ns3:cad>
          </ns3:TrackPointExtension>
        </extensions>
      </trkpt>
      <trkpt lat="37.940101325511932373046875" lon="-107.15924751944839954376220703125">
        <ele>3323.800048828125</ele>
        <time>2026-01-06T22:34:01.000Z</time>
        <extensions>
          <ns3:TrackPointExtension>
            <ns3:hr>87</ns3:hr>
            <ns3:cad>0</ns3:cad>
          </ns3:TrackPointExtension>
        </extensions>
      </trkpt>
      <trkpt lat="37.940096966922283172607421875" lon="-107.15926109813153743743896484375">
        <ele>3323.60009765625</ele>
        <time>2026-01-06T22:34:06.000Z</time>
        <extensions>
          <ns3:TrackPointExtension>
            <ns3:hr>86</ns3:hr>
            <ns3:cad>0</ns3:cad>
          </ns3:TrackPointExtension>
        </extensions>
      </trkpt>
      <trkpt lat="37.94009864330291748046875" lon="-107.15926093049347400665283203125">
        <ele>3323.39990234375</ele>
        <time>2026-01-06T22:34:08.000Z</time>
        <extensions>
          <ns3:TrackPointExtension>
            <ns3:hr>83</ns3:hr>
            <ns3:cad>0</ns3:cad>
          </ns3:TrackPointExtension>
        </extensions>
      </trkpt>
      <trkpt lat="37.9400988109409809112548828125" lon="-107.15926788747310638427734375">
        <ele>3323</ele>
        <time>2026-01-06T22:34:10.000Z</time>
        <extensions>
          <ns3:TrackPointExtension>
            <ns3:hr>83</ns3:hr>
            <ns3:cad>0</ns3:cad>
          </ns3:TrackPointExtension>
        </extensions>
      </trkpt>
      <trkpt lat="37.9400988109409809112548828125" lon="-107.15926788747310638427734375">
        <ele>3323.60009765625</ele>
        <time>2026-01-06T22:34:16.000Z</time>
        <extensions>
          <ns3:TrackPointExtension>
            <ns3:hr>84</ns3:hr>
            <ns3:cad>0</ns3:cad>
          </ns3:TrackPointExtension>
        </extensions>
      </trkpt>
      <trkpt lat="37.9400988109409809112548828125" lon="-107.15926788747310638427734375">
        <ele>3324</ele>
        <time>2026-01-06T22:34:20.000Z</time>
        <extensions>
          <ns3:TrackPointExtension>
            <ns3:hr>87</ns3:hr>
            <ns3:cad>0</ns3:cad>
          </ns3:TrackPointExtension>
        </extensions>
      </trkpt>
      <trkpt lat="37.9400988109409809112548828125" lon="-107.15926788747310638427734375">
        <ele>3323.60009765625</ele>
        <time>2026-01-06T22:34:23.000Z</time>
        <extensions>
          <ns3:TrackPointExtension>
            <ns3:hr>86</ns3:hr>
            <ns3:cad>0</ns3:cad>
          </ns3:TrackPointExtension>
        </extensions>
      </trkpt>
      <trkpt lat="37.9400988109409809112548828125" lon="-107.15926788747310638427734375">
        <ele>3323.39990234375</ele>
        <time>2026-01-06T22:34:25.000Z</time>
        <extensions>
          <ns3:TrackPointExtension>
            <ns3:hr>83</ns3:hr>
            <ns3:cad>0</ns3:cad>
          </ns3:TrackPointExtension>
        </extensions>
      </trkpt>
      <trkpt lat="37.9400988109409809112548828125" lon="-107.15926788747310638427734375">
        <ele>3323.39990234375</ele>
        <time>2026-01-06T22:34:31.000Z</time>
        <extensions>
          <ns3:TrackPointExtension>
            <ns3:hr>87</ns3:hr>
            <ns3:cad>0</ns3:cad>
          </ns3:TrackPointExtension>
        </extensions>
      </trkpt>
      <trkpt lat="37.9400988109409809112548828125" lon="-107.15926788747310638427734375">
        <ele>3323.39990234375</ele>
        <time>2026-01-06T22:34:34.000Z</time>
        <extensions>
          <ns3:TrackPointExtension>
            <ns3:hr>91</ns3:hr>
            <ns3:cad>0</ns3:cad>
          </ns3:TrackPointExtension>
        </extensions>
      </trkpt>
      <trkpt lat="37.9400988109409809112548828125" lon="-107.15926788747310638427734375">
        <ele>3323.60009765625</ele>
        <time>2026-01-06T22:34:37.000Z</time>
        <extensions>
          <ns3:TrackPointExtension>
            <ns3:hr>91</ns3:hr>
            <ns3:cad>0</ns3:cad>
          </ns3:TrackPointExtension>
        </extensions>
      </trkpt>
      <trkpt lat="37.940098978579044342041015625" lon="-107.1592633612453937530517578125">
        <ele>3324.39990234375</ele>
        <time>2026-01-06T22:34:43.000Z</time>
        <extensions>
          <ns3:TrackPointExtension>
            <ns3:hr>92</ns3:hr>
            <ns3:cad>0</ns3:cad>
          </ns3:TrackPointExtension>
        </extensions>
      </trkpt>
      <trkpt lat="37.9401014931499958038330078125" lon="-107.15927232988178730010986328125">
        <ele>3324.39990234375</ele>
        <time>2026-01-06T22:34:44.000Z</time>
        <extensions>
          <ns3:TrackPointExtension>
            <ns3:hr>91</ns3:hr>
            <ns3:cad>0</ns3:cad>
          </ns3:TrackPointExtension>
        </extensions>
      </trkpt>
      <trkpt lat="37.9400988109409809112548828125" lon="-107.15926788747310638427734375">
        <ele>3323.39990234375</ele>
        <time>2026-01-06T22:34:50.000Z</time>
        <extensions>
          <ns3:TrackPointExtension>
            <ns3:hr>92</ns3:hr>
            <ns3:cad>0</ns3:cad>
          </ns3:TrackPointExtension>
        </extensions>
      </trkpt>
      <trkpt lat="37.9400988109409809112548828125" lon="-107.15926788747310638427734375">
        <ele>3323.39990234375</ele>
        <time>2026-01-06T22:34:51.000Z</time>
        <extensions>
          <ns3:TrackPointExtension>
            <ns3:hr>91</ns3:hr>
            <ns3:cad>0</ns3:cad>
          </ns3:TrackPointExtension>
        </extensions>
      </trkpt>
      <trkpt lat="37.9400988109409809112548828125" lon="-107.15926788747310638427734375">
        <ele>3324.60009765625</ele>
        <time>2026-01-06T22:34:57.000Z</time>
        <extensions>
          <ns3:TrackPointExtension>
            <ns3:hr>90</ns3:hr>
            <ns3:cad>0</ns3:cad>
          </ns3:TrackPointExtension>
        </extensions>
      </trkpt>
      <trkpt lat="37.9400988109409809112548828125" lon="-107.15926788747310638427734375">
        <ele>3324.800048828125</ele>
        <time>2026-01-06T22:34:58.000Z</time>
        <extensions>
          <ns3:TrackPointExtension>
            <ns3:hr>89</ns3:hr>
            <ns3:cad>0</ns3:cad>
          </ns3:TrackPointExtension>
        </extensions>
      </trkpt>
      <trkpt lat="37.9400988109409809112548828125" lon="-107.15926788747310638427734375">
        <ele>3324.800048828125</ele>
        <time>2026-01-06T22:34:59.000Z</time>
        <extensions>
          <ns3:TrackPointExtension>
            <ns3:hr>89</ns3:hr>
            <ns3:cad>0</ns3:cad>
          </ns3:TrackPointExtension>
        </extensions>
      </trkpt>
      <trkpt lat="37.94010207988321781158447265625" lon="-107.1592643670737743377685546875">
        <ele>3324.60009765625</ele>
        <time>2026-01-06T22:35:05.000Z</time>
        <extensions>
          <ns3:TrackPointExtension>
            <ns3:hr>87</ns3:hr>
            <ns3:cad>0</ns3:cad>
          </ns3:TrackPointExtension>
        </extensions>
      </trkpt>
      <trkpt lat="37.94010744430124759674072265625" lon="-107.1592724137008190155029296875">
        <ele>3324.39990234375</ele>
        <time>2026-01-06T22:35:07.000Z</time>
        <extensions>
          <ns3:TrackPointExtension>
            <ns3:hr>86</ns3:hr>
            <ns3:cad>0</ns3:cad>
          </ns3:TrackPointExtension>
        </extensions>
      </trkpt>
      <trkpt lat="37.94013460166752338409423828125" lon="-107.15923595242202281951904296875">
        <ele>3324.800048828125</ele>
        <time>2026-01-06T22:35:12.000Z</time>
        <extensions>
          <ns3:TrackPointExtension>
            <ns3:hr>85</ns3:hr>
            <ns3:cad>0</ns3:cad>
          </ns3:TrackPointExtension>
        </extensions>
      </trkpt>
      <trkpt lat="37.94013074599206447601318359375" lon="-107.1592284925282001495361328125">
        <ele>3324</ele>
        <time>2026-01-06T22:35:18.000Z</time>
        <extensions>
          <ns3:TrackPointExtension>
            <ns3:hr>85</ns3:hr>
            <ns3:cad>0</ns3:cad>
          </ns3:TrackPointExtension>
        </extensions>
      </trkpt>
      <trkpt lat="37.94013074599206447601318359375" lon="-107.1592284925282001495361328125">
        <ele>3324.39990234375</ele>
        <time>2026-01-06T22:35:21.000Z</time>
        <extensions>
          <ns3:TrackPointExtension>
            <ns3:hr>87</ns3:hr>
            <ns3:cad>0</ns3:cad>
          </ns3:TrackPointExtension>
        </extensions>
      </trkpt>
      <trkpt lat="37.94013074599206447601318359375" lon="-107.1592284925282001495361328125">
        <ele>3324.60009765625</ele>
        <time>2026-01-06T22:35:27.000Z</time>
        <extensions>
          <ns3:TrackPointExtension>
            <ns3:hr>88</ns3:hr>
            <ns3:cad>0</ns3:cad>
          </ns3:TrackPointExtension>
        </extensions>
      </trkpt>
      <trkpt lat="37.94013074599206447601318359375" lon="-107.1592284925282001495361328125">
        <ele>3324.60009765625</ele>
        <time>2026-01-06T22:35:29.000Z</time>
        <extensions>
          <ns3:TrackPointExtension>
            <ns3:hr>89</ns3:hr>
            <ns3:cad>0</ns3:cad>
          </ns3:TrackPointExtension>
        </extensions>
      </trkpt>
      <trkpt lat="37.94013074599206447601318359375" lon="-107.1592284925282001495361328125">
        <ele>3324.60009765625</ele>
        <time>2026-01-06T22:35:35.000Z</time>
        <extensions>
          <ns3:TrackPointExtension>
            <ns3:hr>91</ns3:hr>
            <ns3:cad>0</ns3:cad>
          </ns3:TrackPointExtension>
        </extensions>
      </trkpt>
      <trkpt lat="37.94013074599206447601318359375" lon="-107.1592284925282001495361328125">
        <ele>3324.800048828125</ele>
        <time>2026-01-06T22:35:38.000Z</time>
        <extensions>
          <ns3:TrackPointExtension>
            <ns3:hr>92</ns3:hr>
            <ns3:cad>0</ns3:cad>
          </ns3:TrackPointExtension>
        </extensions>
      </trkpt>
      <trkpt lat="37.9401269741356372833251953125" lon="-107.159229330718517303466796875">
        <ele>3324</ele>
        <time>2026-01-06T22:35:44.000Z</time>
        <extensions>
          <ns3:TrackPointExtension>
            <ns3:hr>94</ns3:hr>
            <ns3:cad>0</ns3:cad>
          </ns3:TrackPointExtension>
        </extensions>
      </trkpt>
      <trkpt lat="37.94012353755533695220947265625" lon="-107.1592315100133419036865234375">
        <ele>3323.60009765625</ele>
        <time>2026-01-06T22:35:46.000Z</time>
        <extensions>
          <ns3:TrackPointExtension>
            <ns3:hr>93</ns3:hr>
            <ns3:cad>0</ns3:cad>
          </ns3:TrackPointExtension>
        </extensions>
      </trkpt>
      <trkpt lat="37.94011951424181461334228515625" lon="-107.159232012927532196044921875">
        <ele>3323.60009765625</ele>
        <time>2026-01-06T22:35:47.000Z</time>
        <extensions>
          <ns3:TrackPointExtension>
            <ns3:hr>94</ns3:hr>
            <ns3:cad>0</ns3:cad>
          </ns3:TrackPointExtension>
        </extensions>
      </trkpt>
      <trkpt lat="37.94012269936501979827880859375" lon="-107.15922094881534576416015625">
        <ele>3324.199951171875</ele>
        <time>2026-01-06T22:35:53.000Z</time>
        <extensions>
          <ns3:TrackPointExtension>
            <ns3:hr>93</ns3:hr>
            <ns3:cad>0</ns3:cad>
          </ns3:TrackPointExtension>
        </extensions>
      </trkpt>
      <trkpt lat="37.9401187598705291748046875" lon="-107.15921734459698200225830078125">
        <ele>3324.199951171875</ele>
        <time>2026-01-06T22:35:54.000Z</time>
        <extensions>
          <ns3:TrackPointExtension>
            <ns3:hr>93</ns3:hr>
            <ns3:cad>0</ns3:cad>
          </ns3:TrackPointExtension>
        </extensions>
      </trkpt>
    </trkseg>
  </trk>
</gpx>
